<?xml version="1.0" encoding="UTF-8" standalone="no" ?>
<gpx xmlns="http://www.topografix.com/GPX/1/1" xmlns:xsi="http://www.w3.org/2001/XMLSchema-instance" xsi:schemaLocation="http://www.topografix.com/GPX/1/1 http://www.topografix.com/GPX/1/1/gpx.xsd" version="1.1" creator="VisuGPX - https://www.visugpx.com">
  <metadata>
    <name>French-divide 2021</name>
  </metadata>
  <trk>
    <name><![CDATA[08 FD]]></name>
    <trkseg>
      <trkpt lat="46.33907" lon="3.26533">
        <ele>306.8</ele>
        <time>2021-08-14T03:08:06Z</time>
      </trkpt>
      <trkpt lat="46.33912" lon="3.26532">
        <ele>306.8</ele>
        <time>2021-08-14T03:08:12Z</time>
      </trkpt>
      <trkpt lat="46.33922" lon="3.26532">
        <ele>306.8</ele>
        <time>2021-08-14T03:08:19Z</time>
      </trkpt>
      <trkpt lat="46.33936" lon="3.2654">
        <ele>305.84</ele>
        <time>2021-08-14T03:08:26Z</time>
      </trkpt>
      <trkpt lat="46.33937" lon="3.26544">
        <ele>305.84</ele>
        <time>2021-08-14T03:08:27Z</time>
      </trkpt>
      <trkpt lat="46.33938" lon="3.26547">
        <ele>305.84</ele>
        <time>2021-08-14T03:08:28Z</time>
      </trkpt>
      <trkpt lat="46.33943" lon="3.26576">
        <ele>305.36</ele>
        <time>2021-08-14T03:08:37Z</time>
      </trkpt>
      <trkpt lat="46.33948" lon="3.26615">
        <ele>304.39</ele>
        <time>2021-08-14T03:08:46Z</time>
      </trkpt>
      <trkpt lat="46.33954" lon="3.26651">
        <ele>302.95</ele>
        <time>2021-08-14T03:08:54Z</time>
      </trkpt>
      <trkpt lat="46.33962" lon="3.26697">
        <ele>301.99</ele>
        <time>2021-08-14T03:09:04Z</time>
      </trkpt>
      <trkpt lat="46.33966" lon="3.26716">
        <ele>301.99</ele>
        <time>2021-08-14T03:09:10Z</time>
      </trkpt>
      <trkpt lat="46.33974" lon="3.26745">
        <ele>301.99</ele>
        <time>2021-08-14T03:09:18Z</time>
      </trkpt>
      <trkpt lat="46.33985" lon="3.26783">
        <ele>301.51</ele>
        <time>2021-08-14T03:09:27Z</time>
      </trkpt>
      <trkpt lat="46.33984" lon="3.26785">
        <ele>301.51</ele>
        <time>2021-08-14T03:09:28Z</time>
      </trkpt>
      <trkpt lat="46.33982" lon="3.26786">
        <ele>301.51</ele>
        <time>2021-08-14T03:09:29Z</time>
      </trkpt>
      <trkpt lat="46.3398" lon="3.26787">
        <ele>301.51</ele>
        <time>2021-08-14T03:09:30Z</time>
      </trkpt>
      <trkpt lat="46.33978" lon="3.26788">
        <ele>301.51</ele>
        <time>2021-08-14T03:09:31Z</time>
      </trkpt>
      <trkpt lat="46.3397" lon="3.26788">
        <ele>301.51</ele>
        <time>2021-08-14T03:09:34Z</time>
      </trkpt>
      <trkpt lat="46.33952" lon="3.26792">
        <ele>301.51</ele>
        <time>2021-08-14T03:09:41Z</time>
      </trkpt>
      <trkpt lat="46.33924" lon="3.26799">
        <ele>301.51</ele>
        <time>2021-08-14T03:09:51Z</time>
      </trkpt>
      <trkpt lat="46.33895" lon="3.26804">
        <ele>301.03</ele>
        <time>2021-08-14T03:10:00Z</time>
      </trkpt>
      <trkpt lat="46.33882" lon="3.26804">
        <ele>301.03</ele>
        <time>2021-08-14T03:10:05Z</time>
      </trkpt>
      <trkpt lat="46.3388" lon="3.26804">
        <ele>301.03</ele>
        <time>2021-08-14T03:10:06Z</time>
      </trkpt>
      <trkpt lat="46.33877" lon="3.26803">
        <ele>301.03</ele>
        <time>2021-08-14T03:10:07Z</time>
      </trkpt>
      <trkpt lat="46.33874" lon="3.26803">
        <ele>301.03</ele>
        <time>2021-08-14T03:10:08Z</time>
      </trkpt>
      <trkpt lat="46.33871" lon="3.26802">
        <ele>301.03</ele>
        <time>2021-08-14T03:10:09Z</time>
      </trkpt>
      <trkpt lat="46.33868" lon="3.26801">
        <ele>301.03</ele>
        <time>2021-08-14T03:10:10Z</time>
      </trkpt>
      <trkpt lat="46.33865" lon="3.268">
        <ele>301.03</ele>
        <time>2021-08-14T03:10:11Z</time>
      </trkpt>
      <trkpt lat="46.33861" lon="3.268">
        <ele>301.03</ele>
        <time>2021-08-14T03:10:12Z</time>
      </trkpt>
      <trkpt lat="46.33833" lon="3.26794">
        <ele>301.03</ele>
        <time>2021-08-14T03:10:20Z</time>
      </trkpt>
      <trkpt lat="46.3379" lon="3.26786">
        <ele>300.55</ele>
        <time>2021-08-14T03:10:31Z</time>
      </trkpt>
      <trkpt lat="46.3375" lon="3.26777">
        <ele>300.07</ele>
        <time>2021-08-14T03:10:41Z</time>
      </trkpt>
      <trkpt lat="46.33713" lon="3.26771">
        <ele>299.59</ele>
        <time>2021-08-14T03:10:50Z</time>
      </trkpt>
      <trkpt lat="46.33671" lon="3.26761">
        <ele>298.63</ele>
        <time>2021-08-14T03:10:59Z</time>
      </trkpt>
      <trkpt lat="46.33646" lon="3.26757">
        <ele>297.67</ele>
        <time>2021-08-14T03:11:04Z</time>
      </trkpt>
      <trkpt lat="46.33642" lon="3.26758">
        <ele>297.67</ele>
        <time>2021-08-14T03:11:05Z</time>
      </trkpt>
      <trkpt lat="46.33637" lon="3.2676">
        <ele>297.67</ele>
        <time>2021-08-14T03:11:06Z</time>
      </trkpt>
      <trkpt lat="46.33633" lon="3.26764">
        <ele>297.18</ele>
        <time>2021-08-14T03:11:07Z</time>
      </trkpt>
      <trkpt lat="46.33629" lon="3.26769">
        <ele>297.18</ele>
        <time>2021-08-14T03:11:08Z</time>
      </trkpt>
      <trkpt lat="46.33626" lon="3.26776">
        <ele>296.7</ele>
        <time>2021-08-14T03:11:09Z</time>
      </trkpt>
      <trkpt lat="46.33622" lon="3.26782">
        <ele>296.22</ele>
        <time>2021-08-14T03:11:10Z</time>
      </trkpt>
      <trkpt lat="46.33617" lon="3.26788">
        <ele>295.74</ele>
        <time>2021-08-14T03:11:11Z</time>
      </trkpt>
      <trkpt lat="46.33611" lon="3.26792">
        <ele>294.78</ele>
        <time>2021-08-14T03:11:12Z</time>
      </trkpt>
      <trkpt lat="46.33605" lon="3.26794">
        <ele>294.3</ele>
        <time>2021-08-14T03:11:13Z</time>
      </trkpt>
      <trkpt lat="46.33598" lon="3.26795">
        <ele>293.82</ele>
        <time>2021-08-14T03:11:14Z</time>
      </trkpt>
      <trkpt lat="46.33591" lon="3.26795">
        <ele>293.34</ele>
        <time>2021-08-14T03:11:15Z</time>
      </trkpt>
      <trkpt lat="46.33584" lon="3.26794">
        <ele>293.34</ele>
        <time>2021-08-14T03:11:16Z</time>
      </trkpt>
      <trkpt lat="46.33533" lon="3.26786">
        <ele>289.97</ele>
        <time>2021-08-14T03:11:23Z</time>
      </trkpt>
      <trkpt lat="46.3352" lon="3.26783">
        <ele>289.49</ele>
        <time>2021-08-14T03:11:25Z</time>
      </trkpt>
      <trkpt lat="46.33516" lon="3.26779">
        <ele>289.97</ele>
        <time>2021-08-14T03:11:26Z</time>
      </trkpt>
      <trkpt lat="46.33513" lon="3.26772">
        <ele>289.97</ele>
        <time>2021-08-14T03:11:27Z</time>
      </trkpt>
      <trkpt lat="46.33505" lon="3.26746">
        <ele>289.97</ele>
        <time>2021-08-14T03:11:31Z</time>
      </trkpt>
      <trkpt lat="46.33502" lon="3.26726">
        <ele>289.97</ele>
        <time>2021-08-14T03:11:34Z</time>
      </trkpt>
      <trkpt lat="46.33501" lon="3.2672">
        <ele>290.94</ele>
        <time>2021-08-14T03:11:35Z</time>
      </trkpt>
      <trkpt lat="46.33501" lon="3.26691">
        <ele>292.38</ele>
        <time>2021-08-14T03:11:41Z</time>
      </trkpt>
      <trkpt lat="46.33504" lon="3.26657">
        <ele>292.86</ele>
        <time>2021-08-14T03:11:50Z</time>
      </trkpt>
      <trkpt lat="46.33506" lon="3.26649">
        <ele>293.34</ele>
        <time>2021-08-14T03:11:56Z</time>
      </trkpt>
      <trkpt lat="46.33506" lon="3.26648">
        <ele>293.34</ele>
        <time>2021-08-14T03:11:57Z</time>
      </trkpt>
      <trkpt lat="46.33504" lon="3.26647">
        <ele>293.82</ele>
        <time>2021-08-14T03:12:02Z</time>
      </trkpt>
      <trkpt lat="46.33504" lon="3.2665">
        <ele>293.82</ele>
        <time>2021-08-14T03:12:04Z</time>
      </trkpt>
      <trkpt lat="46.33504" lon="3.26653">
        <ele>293.82</ele>
        <time>2021-08-14T03:12:05Z</time>
      </trkpt>
      <trkpt lat="46.33505" lon="3.26655">
        <ele>293.82</ele>
        <time>2021-08-14T03:12:06Z</time>
      </trkpt>
      <trkpt lat="46.33505" lon="3.26659">
        <ele>293.82</ele>
        <time>2021-08-14T03:12:07Z</time>
      </trkpt>
      <trkpt lat="46.33505" lon="3.26662">
        <ele>293.82</ele>
        <time>2021-08-14T03:12:08Z</time>
      </trkpt>
      <trkpt lat="46.33505" lon="3.26666">
        <ele>293.82</ele>
        <time>2021-08-14T03:12:09Z</time>
      </trkpt>
      <trkpt lat="46.33502" lon="3.26701">
        <ele>292.38</ele>
        <time>2021-08-14T03:12:17Z</time>
      </trkpt>
      <trkpt lat="46.33501" lon="3.26719">
        <ele>291.9</ele>
        <time>2021-08-14T03:12:20Z</time>
      </trkpt>
      <trkpt lat="46.33501" lon="3.26733">
        <ele>291.42</ele>
        <time>2021-08-14T03:12:24Z</time>
      </trkpt>
      <trkpt lat="46.335" lon="3.26733">
        <ele>291.42</ele>
        <time>2021-08-14T03:12:25Z</time>
      </trkpt>
      <trkpt lat="46.33497" lon="3.26732">
        <ele>291.42</ele>
        <time>2021-08-14T03:12:27Z</time>
      </trkpt>
      <trkpt lat="46.33496" lon="3.2673">
        <ele>290.94</ele>
        <time>2021-08-14T03:12:28Z</time>
      </trkpt>
      <trkpt lat="46.33495" lon="3.26729">
        <ele>290.94</ele>
        <time>2021-08-14T03:12:29Z</time>
      </trkpt>
      <trkpt lat="46.3349" lon="3.2672">
        <ele>290.94</ele>
        <time>2021-08-14T03:12:35Z</time>
      </trkpt>
      <trkpt lat="46.33479" lon="3.26709">
        <ele>290.94</ele>
        <time>2021-08-14T03:12:41Z</time>
      </trkpt>
      <trkpt lat="46.3346" lon="3.26694">
        <ele>291.9</ele>
        <time>2021-08-14T03:12:49Z</time>
      </trkpt>
      <trkpt lat="46.33432" lon="3.26678">
        <ele>291.9</ele>
        <time>2021-08-14T03:12:59Z</time>
      </trkpt>
      <trkpt lat="46.33407" lon="3.26667">
        <ele>291.9</ele>
        <time>2021-08-14T03:13:07Z</time>
      </trkpt>
      <trkpt lat="46.33378" lon="3.2666">
        <ele>291.9</ele>
        <time>2021-08-14T03:13:15Z</time>
      </trkpt>
      <trkpt lat="46.33346" lon="3.26651">
        <ele>290.94</ele>
        <time>2021-08-14T03:13:23Z</time>
      </trkpt>
      <trkpt lat="46.33315" lon="3.26642">
        <ele>290.94</ele>
        <time>2021-08-14T03:13:31Z</time>
      </trkpt>
      <trkpt lat="46.33282" lon="3.2663">
        <ele>290.46</ele>
        <time>2021-08-14T03:13:40Z</time>
      </trkpt>
      <trkpt lat="46.33248" lon="3.26616">
        <ele>290.46</ele>
        <time>2021-08-14T03:13:50Z</time>
      </trkpt>
      <trkpt lat="46.33228" lon="3.26608">
        <ele>289.97</ele>
        <time>2021-08-14T03:13:55Z</time>
      </trkpt>
      <trkpt lat="46.33224" lon="3.26606">
        <ele>289.97</ele>
        <time>2021-08-14T03:13:56Z</time>
      </trkpt>
      <trkpt lat="46.3322" lon="3.26604">
        <ele>289.97</ele>
        <time>2021-08-14T03:13:57Z</time>
      </trkpt>
      <trkpt lat="46.33193" lon="3.26593">
        <ele>289.49</ele>
        <time>2021-08-14T03:14:05Z</time>
      </trkpt>
      <trkpt lat="46.33167" lon="3.26581">
        <ele>289.01</ele>
        <time>2021-08-14T03:14:14Z</time>
      </trkpt>
      <trkpt lat="46.33147" lon="3.26569">
        <ele>289.01</ele>
        <time>2021-08-14T03:14:21Z</time>
      </trkpt>
      <trkpt lat="46.33126" lon="3.26555">
        <ele>288.53</ele>
        <time>2021-08-14T03:14:29Z</time>
      </trkpt>
      <trkpt lat="46.33107" lon="3.26543">
        <ele>288.53</ele>
        <time>2021-08-14T03:14:35Z</time>
      </trkpt>
      <trkpt lat="46.33072" lon="3.26525">
        <ele>288.05</ele>
        <time>2021-08-14T03:14:44Z</time>
      </trkpt>
      <trkpt lat="46.33045" lon="3.26524">
        <ele>286.61</ele>
        <time>2021-08-14T03:14:50Z</time>
      </trkpt>
      <trkpt lat="46.32997" lon="3.2654">
        <ele>284.21</ele>
        <time>2021-08-14T03:14:59Z</time>
      </trkpt>
      <trkpt lat="46.32954" lon="3.26559">
        <ele>283.25</ele>
        <time>2021-08-14T03:15:07Z</time>
      </trkpt>
      <trkpt lat="46.32949" lon="3.26559">
        <ele>283.25</ele>
        <time>2021-08-14T03:15:08Z</time>
      </trkpt>
      <trkpt lat="46.32939" lon="3.26558">
        <ele>283.25</ele>
        <time>2021-08-14T03:15:10Z</time>
      </trkpt>
      <trkpt lat="46.32892" lon="3.26547">
        <ele>281.8</ele>
        <time>2021-08-14T03:15:19Z</time>
      </trkpt>
      <trkpt lat="46.32846" lon="3.26539">
        <ele>281.8</ele>
        <time>2021-08-14T03:15:29Z</time>
      </trkpt>
      <trkpt lat="46.32837" lon="3.26533">
        <ele>281.8</ele>
        <time>2021-08-14T03:15:32Z</time>
      </trkpt>
      <trkpt lat="46.32835" lon="3.26529">
        <ele>281.8</ele>
        <time>2021-08-14T03:15:33Z</time>
      </trkpt>
      <trkpt lat="46.32834" lon="3.26524">
        <ele>281.8</ele>
        <time>2021-08-14T03:15:34Z</time>
      </trkpt>
      <trkpt lat="46.32834" lon="3.2652">
        <ele>281.8</ele>
        <time>2021-08-14T03:15:35Z</time>
      </trkpt>
      <trkpt lat="46.32835" lon="3.26515">
        <ele>281.8</ele>
        <time>2021-08-14T03:15:36Z</time>
      </trkpt>
      <trkpt lat="46.32841" lon="3.26477">
        <ele>283.73</ele>
        <time>2021-08-14T03:15:46Z</time>
      </trkpt>
      <trkpt lat="46.32845" lon="3.26446">
        <ele>285.17</ele>
        <time>2021-08-14T03:15:56Z</time>
      </trkpt>
      <trkpt lat="46.32846" lon="3.26416">
        <ele>286.13</ele>
        <time>2021-08-14T03:16:06Z</time>
      </trkpt>
      <trkpt lat="46.32846" lon="3.26384">
        <ele>287.09</ele>
        <time>2021-08-14T03:16:17Z</time>
      </trkpt>
      <trkpt lat="46.32846" lon="3.26352">
        <ele>288.05</ele>
        <time>2021-08-14T03:16:28Z</time>
      </trkpt>
      <trkpt lat="46.32846" lon="3.26349">
        <ele>288.05</ele>
        <time>2021-08-14T03:16:29Z</time>
      </trkpt>
      <trkpt lat="46.32844" lon="3.26346">
        <ele>288.05</ele>
        <time>2021-08-14T03:16:30Z</time>
      </trkpt>
      <trkpt lat="46.32842" lon="3.26344">
        <ele>288.05</ele>
        <time>2021-08-14T03:16:31Z</time>
      </trkpt>
      <trkpt lat="46.3284" lon="3.26343">
        <ele>288.05</ele>
        <time>2021-08-14T03:16:32Z</time>
      </trkpt>
      <trkpt lat="46.32838" lon="3.26342">
        <ele>288.05</ele>
        <time>2021-08-14T03:16:33Z</time>
      </trkpt>
      <trkpt lat="46.32834" lon="3.26342">
        <ele>288.05</ele>
        <time>2021-08-14T03:16:34Z</time>
      </trkpt>
      <trkpt lat="46.32831" lon="3.26343">
        <ele>288.05</ele>
        <time>2021-08-14T03:16:35Z</time>
      </trkpt>
      <trkpt lat="46.32824" lon="3.26342">
        <ele>286.61</ele>
        <time>2021-08-14T03:16:37Z</time>
      </trkpt>
      <trkpt lat="46.32819" lon="3.26342">
        <ele>286.61</ele>
        <time>2021-08-14T03:16:38Z</time>
      </trkpt>
      <trkpt lat="46.32784" lon="3.2634">
        <ele>284.21</ele>
        <time>2021-08-14T03:16:45Z</time>
      </trkpt>
      <trkpt lat="46.32737" lon="3.26341">
        <ele>281.32</ele>
        <time>2021-08-14T03:16:52Z</time>
      </trkpt>
      <trkpt lat="46.32694" lon="3.26349">
        <ele>277.96</ele>
        <time>2021-08-14T03:16:58Z</time>
      </trkpt>
      <trkpt lat="46.32649" lon="3.26361">
        <ele>275.07</ele>
        <time>2021-08-14T03:17:05Z</time>
      </trkpt>
      <trkpt lat="46.32611" lon="3.26374">
        <ele>271.71</ele>
        <time>2021-08-14T03:17:10Z</time>
      </trkpt>
      <trkpt lat="46.32581" lon="3.26384">
        <ele>270.27</ele>
        <time>2021-08-14T03:17:15Z</time>
      </trkpt>
      <trkpt lat="46.32577" lon="3.26381">
        <ele>270.27</ele>
        <time>2021-08-14T03:17:16Z</time>
      </trkpt>
      <trkpt lat="46.32575" lon="3.26377">
        <ele>269.79</ele>
        <time>2021-08-14T03:17:17Z</time>
      </trkpt>
      <trkpt lat="46.32572" lon="3.26367">
        <ele>269.79</ele>
        <time>2021-08-14T03:17:19Z</time>
      </trkpt>
      <trkpt lat="46.3257" lon="3.26362">
        <ele>269.79</ele>
        <time>2021-08-14T03:17:20Z</time>
      </trkpt>
      <trkpt lat="46.32556" lon="3.26315">
        <ele>270.27</ele>
        <time>2021-08-14T03:17:29Z</time>
      </trkpt>
      <trkpt lat="46.32538" lon="3.26277">
        <ele>272.19</ele>
        <time>2021-08-14T03:17:39Z</time>
      </trkpt>
      <trkpt lat="46.32519" lon="3.26251">
        <ele>274.11</ele>
        <time>2021-08-14T03:17:48Z</time>
      </trkpt>
      <trkpt lat="46.32513" lon="3.26227">
        <ele>274.59</ele>
        <time>2021-08-14T03:17:55Z</time>
      </trkpt>
      <trkpt lat="46.32507" lon="3.26203">
        <ele>275.56</ele>
        <time>2021-08-14T03:18:03Z</time>
      </trkpt>
      <trkpt lat="46.32506" lon="3.26199">
        <ele>276.04</ele>
        <time>2021-08-14T03:18:05Z</time>
      </trkpt>
      <trkpt lat="46.32505" lon="3.26197">
        <ele>276.04</ele>
        <time>2021-08-14T03:18:06Z</time>
      </trkpt>
      <trkpt lat="46.32505" lon="3.26195">
        <ele>276.04</ele>
        <time>2021-08-14T03:18:07Z</time>
      </trkpt>
      <trkpt lat="46.32506" lon="3.26194">
        <ele>276.52</ele>
        <time>2021-08-14T03:18:08Z</time>
      </trkpt>
      <trkpt lat="46.32507" lon="3.26194">
        <ele>276.52</ele>
        <time>2021-08-14T03:18:09Z</time>
      </trkpt>
      <trkpt lat="46.32509" lon="3.26195">
        <ele>276.52</ele>
        <time>2021-08-14T03:18:10Z</time>
      </trkpt>
      <trkpt lat="46.3251" lon="3.26197">
        <ele>276.52</ele>
        <time>2021-08-14T03:18:11Z</time>
      </trkpt>
      <trkpt lat="46.32512" lon="3.26201">
        <ele>276.52</ele>
        <time>2021-08-14T03:18:13Z</time>
      </trkpt>
      <trkpt lat="46.32513" lon="3.26203">
        <ele>276.52</ele>
        <time>2021-08-14T03:18:14Z</time>
      </trkpt>
      <trkpt lat="46.32515" lon="3.26205">
        <ele>276.52</ele>
        <time>2021-08-14T03:18:15Z</time>
      </trkpt>
      <trkpt lat="46.32517" lon="3.26206">
        <ele>276.52</ele>
        <time>2021-08-14T03:18:16Z</time>
      </trkpt>
      <trkpt lat="46.32519" lon="3.26207">
        <ele>276.52</ele>
        <time>2021-08-14T03:18:17Z</time>
      </trkpt>
      <trkpt lat="46.32521" lon="3.26209">
        <ele>276.52</ele>
        <time>2021-08-14T03:18:18Z</time>
      </trkpt>
      <trkpt lat="46.32525" lon="3.26212">
        <ele>276.52</ele>
        <time>2021-08-14T03:18:24Z</time>
      </trkpt>
      <trkpt lat="46.32524" lon="3.26211">
        <ele>276.52</ele>
        <time>2021-08-14T03:18:48Z</time>
      </trkpt>
      <trkpt lat="46.32525" lon="3.26209">
        <ele>276.52</ele>
        <time>2021-08-14T03:18:59Z</time>
      </trkpt>
      <trkpt lat="46.32525" lon="3.2621">
        <ele>276.52</ele>
        <time>2021-08-14T03:19:09Z</time>
      </trkpt>
      <trkpt lat="46.32525" lon="3.2621">
        <ele>276.52</ele>
        <time>2021-08-14T03:19:25Z</time>
      </trkpt>
      <trkpt lat="46.32527" lon="3.26208">
        <ele>276.52</ele>
        <time>2021-08-14T03:19:27Z</time>
      </trkpt>
      <trkpt lat="46.32524" lon="3.26201">
        <ele>276.52</ele>
        <time>2021-08-14T03:19:32Z</time>
      </trkpt>
      <trkpt lat="46.32522" lon="3.262">
        <ele>276.52</ele>
        <time>2021-08-14T03:19:33Z</time>
      </trkpt>
      <trkpt lat="46.3252" lon="3.26199">
        <ele>276.52</ele>
        <time>2021-08-14T03:19:34Z</time>
      </trkpt>
      <trkpt lat="46.32501" lon="3.26193">
        <ele>276.52</ele>
        <time>2021-08-14T03:19:42Z</time>
      </trkpt>
      <trkpt lat="46.32477" lon="3.26183">
        <ele>277</ele>
        <time>2021-08-14T03:19:51Z</time>
      </trkpt>
      <trkpt lat="46.32467" lon="3.26179">
        <ele>277</ele>
        <time>2021-08-14T03:19:55Z</time>
      </trkpt>
      <trkpt lat="46.32465" lon="3.2618">
        <ele>277</ele>
        <time>2021-08-14T03:19:56Z</time>
      </trkpt>
      <trkpt lat="46.32462" lon="3.26181">
        <ele>277</ele>
        <time>2021-08-14T03:19:57Z</time>
      </trkpt>
      <trkpt lat="46.32459" lon="3.26181">
        <ele>277</ele>
        <time>2021-08-14T03:19:58Z</time>
      </trkpt>
      <trkpt lat="46.32456" lon="3.26181">
        <ele>277</ele>
        <time>2021-08-14T03:19:59Z</time>
      </trkpt>
      <trkpt lat="46.32452" lon="3.2618">
        <ele>277</ele>
        <time>2021-08-14T03:20:00Z</time>
      </trkpt>
      <trkpt lat="46.3245" lon="3.26179">
        <ele>277</ele>
        <time>2021-08-14T03:20:01Z</time>
      </trkpt>
      <trkpt lat="46.32427" lon="3.2617">
        <ele>277.96</ele>
        <time>2021-08-14T03:20:09Z</time>
      </trkpt>
      <trkpt lat="46.32405" lon="3.26159">
        <ele>278.92</ele>
        <time>2021-08-14T03:20:17Z</time>
      </trkpt>
      <trkpt lat="46.32377" lon="3.26141">
        <ele>280.36</ele>
        <time>2021-08-14T03:20:28Z</time>
      </trkpt>
      <trkpt lat="46.32349" lon="3.26123">
        <ele>281.32</ele>
        <time>2021-08-14T03:20:39Z</time>
      </trkpt>
      <trkpt lat="46.32319" lon="3.26109">
        <ele>281.8</ele>
        <time>2021-08-14T03:20:50Z</time>
      </trkpt>
      <trkpt lat="46.3229" lon="3.26098">
        <ele>281.8</ele>
        <time>2021-08-14T03:20:59Z</time>
      </trkpt>
      <trkpt lat="46.32278" lon="3.26082">
        <ele>281.32</ele>
        <time>2021-08-14T03:21:04Z</time>
      </trkpt>
      <trkpt lat="46.32273" lon="3.26066">
        <ele>281.8</ele>
        <time>2021-08-14T03:21:10Z</time>
      </trkpt>
      <trkpt lat="46.32272" lon="3.26067">
        <ele>281.8</ele>
        <time>2021-08-14T03:21:12Z</time>
      </trkpt>
      <trkpt lat="46.32272" lon="3.26069">
        <ele>281.8</ele>
        <time>2021-08-14T03:21:13Z</time>
      </trkpt>
      <trkpt lat="46.32273" lon="3.26071">
        <ele>281.8</ele>
        <time>2021-08-14T03:21:14Z</time>
      </trkpt>
      <trkpt lat="46.32274" lon="3.26073">
        <ele>281.8</ele>
        <time>2021-08-14T03:21:15Z</time>
      </trkpt>
      <trkpt lat="46.32275" lon="3.26075">
        <ele>281.8</ele>
        <time>2021-08-14T03:21:16Z</time>
      </trkpt>
      <trkpt lat="46.32276" lon="3.26078">
        <ele>281.8</ele>
        <time>2021-08-14T03:21:17Z</time>
      </trkpt>
      <trkpt lat="46.32277" lon="3.26081">
        <ele>281.8</ele>
        <time>2021-08-14T03:21:18Z</time>
      </trkpt>
      <trkpt lat="46.32278" lon="3.26084">
        <ele>281.8</ele>
        <time>2021-08-14T03:21:19Z</time>
      </trkpt>
      <trkpt lat="46.3228" lon="3.26088">
        <ele>281.8</ele>
        <time>2021-08-14T03:21:20Z</time>
      </trkpt>
      <trkpt lat="46.32281" lon="3.26091">
        <ele>281.8</ele>
        <time>2021-08-14T03:21:21Z</time>
      </trkpt>
      <trkpt lat="46.32282" lon="3.26095">
        <ele>281.8</ele>
        <time>2021-08-14T03:21:22Z</time>
      </trkpt>
      <trkpt lat="46.3228" lon="3.261">
        <ele>281.8</ele>
        <time>2021-08-14T03:21:23Z</time>
      </trkpt>
      <trkpt lat="46.32278" lon="3.26103">
        <ele>281.8</ele>
        <time>2021-08-14T03:21:24Z</time>
      </trkpt>
      <trkpt lat="46.32276" lon="3.26107">
        <ele>280.84</ele>
        <time>2021-08-14T03:21:25Z</time>
      </trkpt>
      <trkpt lat="46.32273" lon="3.2611">
        <ele>280.84</ele>
        <time>2021-08-14T03:21:26Z</time>
      </trkpt>
      <trkpt lat="46.32261" lon="3.26121">
        <ele>279.4</ele>
        <time>2021-08-14T03:21:29Z</time>
      </trkpt>
      <trkpt lat="46.32258" lon="3.26123">
        <ele>279.4</ele>
        <time>2021-08-14T03:21:30Z</time>
      </trkpt>
      <trkpt lat="46.32255" lon="3.26125">
        <ele>279.4</ele>
        <time>2021-08-14T03:21:31Z</time>
      </trkpt>
      <trkpt lat="46.32252" lon="3.26126">
        <ele>279.4</ele>
        <time>2021-08-14T03:21:32Z</time>
      </trkpt>
      <trkpt lat="46.3225" lon="3.26126">
        <ele>279.4</ele>
        <time>2021-08-14T03:21:33Z</time>
      </trkpt>
      <trkpt lat="46.32247" lon="3.26125">
        <ele>279.4</ele>
        <time>2021-08-14T03:21:34Z</time>
      </trkpt>
      <trkpt lat="46.32244" lon="3.26124">
        <ele>278.92</ele>
        <time>2021-08-14T03:21:35Z</time>
      </trkpt>
      <trkpt lat="46.32219" lon="3.26118">
        <ele>277</ele>
        <time>2021-08-14T03:21:42Z</time>
      </trkpt>
      <trkpt lat="46.32201" lon="3.26116">
        <ele>276.04</ele>
        <time>2021-08-14T03:21:46Z</time>
      </trkpt>
      <trkpt lat="46.3217" lon="3.26102">
        <ele>273.15</ele>
        <time>2021-08-14T03:21:54Z</time>
      </trkpt>
      <trkpt lat="46.32143" lon="3.26079">
        <ele>272.19</ele>
        <time>2021-08-14T03:22:02Z</time>
      </trkpt>
      <trkpt lat="46.32124" lon="3.26051">
        <ele>271.71</ele>
        <time>2021-08-14T03:22:09Z</time>
      </trkpt>
      <trkpt lat="46.32107" lon="3.26022">
        <ele>270.75</ele>
        <time>2021-08-14T03:22:16Z</time>
      </trkpt>
      <trkpt lat="46.32097" lon="3.26002">
        <ele>269.31</ele>
        <time>2021-08-14T03:22:21Z</time>
      </trkpt>
      <trkpt lat="46.32088" lon="3.25992">
        <ele>267.86</ele>
        <time>2021-08-14T03:22:24Z</time>
      </trkpt>
      <trkpt lat="46.3207" lon="3.25979">
        <ele>266.42</ele>
        <time>2021-08-14T03:22:29Z</time>
      </trkpt>
      <trkpt lat="46.32065" lon="3.25979">
        <ele>265.46</ele>
        <time>2021-08-14T03:22:30Z</time>
      </trkpt>
      <trkpt lat="46.32059" lon="3.2598">
        <ele>264.98</ele>
        <time>2021-08-14T03:22:31Z</time>
      </trkpt>
      <trkpt lat="46.32053" lon="3.25982">
        <ele>264.5</ele>
        <time>2021-08-14T03:22:32Z</time>
      </trkpt>
      <trkpt lat="46.32048" lon="3.25985">
        <ele>263.54</ele>
        <time>2021-08-14T03:22:33Z</time>
      </trkpt>
      <trkpt lat="46.32042" lon="3.2599">
        <ele>263.06</ele>
        <time>2021-08-14T03:22:34Z</time>
      </trkpt>
      <trkpt lat="46.32036" lon="3.25994">
        <ele>262.58</ele>
        <time>2021-08-14T03:22:35Z</time>
      </trkpt>
      <trkpt lat="46.3203" lon="3.25999">
        <ele>262.58</ele>
        <time>2021-08-14T03:22:36Z</time>
      </trkpt>
      <trkpt lat="46.32" lon="3.2603">
        <ele>259.69</ele>
        <time>2021-08-14T03:22:42Z</time>
      </trkpt>
      <trkpt lat="46.31963" lon="3.26072">
        <ele>257.77</ele>
        <time>2021-08-14T03:22:49Z</time>
      </trkpt>
      <trkpt lat="46.31947" lon="3.26088">
        <ele>257.29</ele>
        <time>2021-08-14T03:22:53Z</time>
      </trkpt>
      <trkpt lat="46.31943" lon="3.26091">
        <ele>257.29</ele>
        <time>2021-08-14T03:22:55Z</time>
      </trkpt>
      <trkpt lat="46.31942" lon="3.26093">
        <ele>257.29</ele>
        <time>2021-08-14T03:22:56Z</time>
      </trkpt>
      <trkpt lat="46.3194" lon="3.26096">
        <ele>256.81</ele>
        <time>2021-08-14T03:22:57Z</time>
      </trkpt>
      <trkpt lat="46.31931" lon="3.26107">
        <ele>256.33</ele>
        <time>2021-08-14T03:23:00Z</time>
      </trkpt>
      <trkpt lat="46.31927" lon="3.26109">
        <ele>255.85</ele>
        <time>2021-08-14T03:23:01Z</time>
      </trkpt>
      <trkpt lat="46.31922" lon="3.2611">
        <ele>255.85</ele>
        <time>2021-08-14T03:23:02Z</time>
      </trkpt>
      <trkpt lat="46.31917" lon="3.26108">
        <ele>255.37</ele>
        <time>2021-08-14T03:23:03Z</time>
      </trkpt>
      <trkpt lat="46.31912" lon="3.26105">
        <ele>255.37</ele>
        <time>2021-08-14T03:23:04Z</time>
      </trkpt>
      <trkpt lat="46.31907" lon="3.26102">
        <ele>255.37</ele>
        <time>2021-08-14T03:23:05Z</time>
      </trkpt>
      <trkpt lat="46.31868" lon="3.26089">
        <ele>254.41</ele>
        <time>2021-08-14T03:23:12Z</time>
      </trkpt>
      <trkpt lat="46.31863" lon="3.26089">
        <ele>254.41</ele>
        <time>2021-08-14T03:23:13Z</time>
      </trkpt>
      <trkpt lat="46.31818" lon="3.2609">
        <ele>253.93</ele>
        <time>2021-08-14T03:23:21Z</time>
      </trkpt>
      <trkpt lat="46.31813" lon="3.26092">
        <ele>253.93</ele>
        <time>2021-08-14T03:23:22Z</time>
      </trkpt>
      <trkpt lat="46.31808" lon="3.26095">
        <ele>253.93</ele>
        <time>2021-08-14T03:23:23Z</time>
      </trkpt>
      <trkpt lat="46.31803" lon="3.26099">
        <ele>253.44</ele>
        <time>2021-08-14T03:23:24Z</time>
      </trkpt>
      <trkpt lat="46.31799" lon="3.26103">
        <ele>253.44</ele>
        <time>2021-08-14T03:23:25Z</time>
      </trkpt>
      <trkpt lat="46.31785" lon="3.26115">
        <ele>253.44</ele>
        <time>2021-08-14T03:23:28Z</time>
      </trkpt>
      <trkpt lat="46.3178" lon="3.26118">
        <ele>253.44</ele>
        <time>2021-08-14T03:23:29Z</time>
      </trkpt>
      <trkpt lat="46.31775" lon="3.26121">
        <ele>253.44</ele>
        <time>2021-08-14T03:23:30Z</time>
      </trkpt>
      <trkpt lat="46.3177" lon="3.26122">
        <ele>253.44</ele>
        <time>2021-08-14T03:23:31Z</time>
      </trkpt>
      <trkpt lat="46.31766" lon="3.26123">
        <ele>253.44</ele>
        <time>2021-08-14T03:23:32Z</time>
      </trkpt>
      <trkpt lat="46.31761" lon="3.26124">
        <ele>253.44</ele>
        <time>2021-08-14T03:23:33Z</time>
      </trkpt>
      <trkpt lat="46.31756" lon="3.26124">
        <ele>253.44</ele>
        <time>2021-08-14T03:23:34Z</time>
      </trkpt>
      <trkpt lat="46.31733" lon="3.26122">
        <ele>253.44</ele>
        <time>2021-08-14T03:23:39Z</time>
      </trkpt>
      <trkpt lat="46.31687" lon="3.26101">
        <ele>253.44</ele>
        <time>2021-08-14T03:23:49Z</time>
      </trkpt>
      <trkpt lat="46.31658" lon="3.26083">
        <ele>253.44</ele>
        <time>2021-08-14T03:23:56Z</time>
      </trkpt>
      <trkpt lat="46.31649" lon="3.26079">
        <ele>253.44</ele>
        <time>2021-08-14T03:23:58Z</time>
      </trkpt>
      <trkpt lat="46.31626" lon="3.26069">
        <ele>253.44</ele>
        <time>2021-08-14T03:24:04Z</time>
      </trkpt>
      <trkpt lat="46.31622" lon="3.26067">
        <ele>253.44</ele>
        <time>2021-08-14T03:24:05Z</time>
      </trkpt>
      <trkpt lat="46.31612" lon="3.26063">
        <ele>253.44</ele>
        <time>2021-08-14T03:24:07Z</time>
      </trkpt>
      <trkpt lat="46.31609" lon="3.2606">
        <ele>253.44</ele>
        <time>2021-08-14T03:24:08Z</time>
      </trkpt>
      <trkpt lat="46.31605" lon="3.26054">
        <ele>253.44</ele>
        <time>2021-08-14T03:24:09Z</time>
      </trkpt>
      <trkpt lat="46.31603" lon="3.26046">
        <ele>253.44</ele>
        <time>2021-08-14T03:24:10Z</time>
      </trkpt>
      <trkpt lat="46.31603" lon="3.26041">
        <ele>253.44</ele>
        <time>2021-08-14T03:24:11Z</time>
      </trkpt>
      <trkpt lat="46.31603" lon="3.26036">
        <ele>253.44</ele>
        <time>2021-08-14T03:24:12Z</time>
      </trkpt>
      <trkpt lat="46.31604" lon="3.26031">
        <ele>253.44</ele>
        <time>2021-08-14T03:24:13Z</time>
      </trkpt>
      <trkpt lat="46.31605" lon="3.26028">
        <ele>253.44</ele>
        <time>2021-08-14T03:24:14Z</time>
      </trkpt>
      <trkpt lat="46.31607" lon="3.26021">
        <ele>253.44</ele>
        <time>2021-08-14T03:24:19Z</time>
      </trkpt>
      <trkpt lat="46.31608" lon="3.26016">
        <ele>253.44</ele>
        <time>2021-08-14T03:24:26Z</time>
      </trkpt>
      <trkpt lat="46.31607" lon="3.26014">
        <ele>253.44</ele>
        <time>2021-08-14T03:24:27Z</time>
      </trkpt>
      <trkpt lat="46.31595" lon="3.26003">
        <ele>253.44</ele>
        <time>2021-08-14T03:24:35Z</time>
      </trkpt>
      <trkpt lat="46.3158" lon="3.25993">
        <ele>253.44</ele>
        <time>2021-08-14T03:24:41Z</time>
      </trkpt>
      <trkpt lat="46.31565" lon="3.2598">
        <ele>253.44</ele>
        <time>2021-08-14T03:24:48Z</time>
      </trkpt>
      <trkpt lat="46.31547" lon="3.25966">
        <ele>254.89</ele>
        <time>2021-08-14T03:24:56Z</time>
      </trkpt>
      <trkpt lat="46.31534" lon="3.25956">
        <ele>256.33</ele>
        <time>2021-08-14T03:25:04Z</time>
      </trkpt>
      <trkpt lat="46.31526" lon="3.25957">
        <ele>256.81</ele>
        <time>2021-08-14T03:25:07Z</time>
      </trkpt>
      <trkpt lat="46.31523" lon="3.25956">
        <ele>256.81</ele>
        <time>2021-08-14T03:25:08Z</time>
      </trkpt>
      <trkpt lat="46.3152" lon="3.25955">
        <ele>256.81</ele>
        <time>2021-08-14T03:25:09Z</time>
      </trkpt>
      <trkpt lat="46.31517" lon="3.25954">
        <ele>255.37</ele>
        <time>2021-08-14T03:25:10Z</time>
      </trkpt>
      <trkpt lat="46.31514" lon="3.25952">
        <ele>255.37</ele>
        <time>2021-08-14T03:25:11Z</time>
      </trkpt>
      <trkpt lat="46.31488" lon="3.25937">
        <ele>253.93</ele>
        <time>2021-08-14T03:25:19Z</time>
      </trkpt>
      <trkpt lat="46.31457" lon="3.25916">
        <ele>253.93</ele>
        <time>2021-08-14T03:25:29Z</time>
      </trkpt>
      <trkpt lat="46.31418" lon="3.25889">
        <ele>253.93</ele>
        <time>2021-08-14T03:25:41Z</time>
      </trkpt>
      <trkpt lat="46.31385" lon="3.25866">
        <ele>253.93</ele>
        <time>2021-08-14T03:25:51Z</time>
      </trkpt>
      <trkpt lat="46.3135" lon="3.25841">
        <ele>253.44</ele>
        <time>2021-08-14T03:26:01Z</time>
      </trkpt>
      <trkpt lat="46.31313" lon="3.25816">
        <ele>253.44</ele>
        <time>2021-08-14T03:26:12Z</time>
      </trkpt>
      <trkpt lat="46.31276" lon="3.25796">
        <ele>253.44</ele>
        <time>2021-08-14T03:26:23Z</time>
      </trkpt>
      <trkpt lat="46.31246" lon="3.25794">
        <ele>253.44</ele>
        <time>2021-08-14T03:26:32Z</time>
      </trkpt>
      <trkpt lat="46.31224" lon="3.25787">
        <ele>253.44</ele>
        <time>2021-08-14T03:26:40Z</time>
      </trkpt>
      <trkpt lat="46.31195" lon="3.25775">
        <ele>253.44</ele>
        <time>2021-08-14T03:26:49Z</time>
      </trkpt>
      <trkpt lat="46.31163" lon="3.25765">
        <ele>253.44</ele>
        <time>2021-08-14T03:26:59Z</time>
      </trkpt>
      <trkpt lat="46.31129" lon="3.25755">
        <ele>252.96</ele>
        <time>2021-08-14T03:27:10Z</time>
      </trkpt>
      <trkpt lat="46.31098" lon="3.25746">
        <ele>252.48</ele>
        <time>2021-08-14T03:27:20Z</time>
      </trkpt>
      <trkpt lat="46.31071" lon="3.25736">
        <ele>252.48</ele>
        <time>2021-08-14T03:27:29Z</time>
      </trkpt>
      <trkpt lat="46.31042" lon="3.25724">
        <ele>252.48</ele>
        <time>2021-08-14T03:27:39Z</time>
      </trkpt>
      <trkpt lat="46.31018" lon="3.25712">
        <ele>252.48</ele>
        <time>2021-08-14T03:27:48Z</time>
      </trkpt>
      <trkpt lat="46.30994" lon="3.25694">
        <ele>252.48</ele>
        <time>2021-08-14T03:27:57Z</time>
      </trkpt>
      <trkpt lat="46.30976" lon="3.25674">
        <ele>252.48</ele>
        <time>2021-08-14T03:28:05Z</time>
      </trkpt>
      <trkpt lat="46.30959" lon="3.25651">
        <ele>252.48</ele>
        <time>2021-08-14T03:28:13Z</time>
      </trkpt>
      <trkpt lat="46.30939" lon="3.25615">
        <ele>252.48</ele>
        <time>2021-08-14T03:28:24Z</time>
      </trkpt>
      <trkpt lat="46.30925" lon="3.25584">
        <ele>252.48</ele>
        <time>2021-08-14T03:28:33Z</time>
      </trkpt>
      <trkpt lat="46.30914" lon="3.25551">
        <ele>252.48</ele>
        <time>2021-08-14T03:28:42Z</time>
      </trkpt>
      <trkpt lat="46.30907" lon="3.2553">
        <ele>253.44</ele>
        <time>2021-08-14T03:28:48Z</time>
      </trkpt>
      <trkpt lat="46.30898" lon="3.25508">
        <ele>253.93</ele>
        <time>2021-08-14T03:28:56Z</time>
      </trkpt>
      <trkpt lat="46.30887" lon="3.25496">
        <ele>254.41</ele>
        <time>2021-08-14T03:29:02Z</time>
      </trkpt>
      <trkpt lat="46.30865" lon="3.25478">
        <ele>254.89</ele>
        <time>2021-08-14T03:29:12Z</time>
      </trkpt>
      <trkpt lat="46.30846" lon="3.25461">
        <ele>254.89</ele>
        <time>2021-08-14T03:29:21Z</time>
      </trkpt>
      <trkpt lat="46.30826" lon="3.2544">
        <ele>254.89</ele>
        <time>2021-08-14T03:29:30Z</time>
      </trkpt>
      <trkpt lat="46.30812" lon="3.25417">
        <ele>255.37</ele>
        <time>2021-08-14T03:29:39Z</time>
      </trkpt>
      <trkpt lat="46.30794" lon="3.2539">
        <ele>255.37</ele>
        <time>2021-08-14T03:29:49Z</time>
      </trkpt>
      <trkpt lat="46.30784" lon="3.25375">
        <ele>255.85</ele>
        <time>2021-08-14T03:29:55Z</time>
      </trkpt>
      <trkpt lat="46.30768" lon="3.25348">
        <ele>256.33</ele>
        <time>2021-08-14T03:30:05Z</time>
      </trkpt>
      <trkpt lat="46.30754" lon="3.25325">
        <ele>256.81</ele>
        <time>2021-08-14T03:30:14Z</time>
      </trkpt>
      <trkpt lat="46.30753" lon="3.25318">
        <ele>257.29</ele>
        <time>2021-08-14T03:30:16Z</time>
      </trkpt>
      <trkpt lat="46.30753" lon="3.25316">
        <ele>257.29</ele>
        <time>2021-08-14T03:30:17Z</time>
      </trkpt>
      <trkpt lat="46.30753" lon="3.25313">
        <ele>257.29</ele>
        <time>2021-08-14T03:30:18Z</time>
      </trkpt>
      <trkpt lat="46.30755" lon="3.25286">
        <ele>257.77</ele>
        <time>2021-08-14T03:30:27Z</time>
      </trkpt>
      <trkpt lat="46.30756" lon="3.2526">
        <ele>259.21</ele>
        <time>2021-08-14T03:30:35Z</time>
      </trkpt>
      <trkpt lat="46.30753" lon="3.25239">
        <ele>259.69</ele>
        <time>2021-08-14T03:30:42Z</time>
      </trkpt>
      <trkpt lat="46.30747" lon="3.25214">
        <ele>259.69</ele>
        <time>2021-08-14T03:30:50Z</time>
      </trkpt>
      <trkpt lat="46.30739" lon="3.25187">
        <ele>261.14</ele>
        <time>2021-08-14T03:30:59Z</time>
      </trkpt>
      <trkpt lat="46.30729" lon="3.2516">
        <ele>262.1</ele>
        <time>2021-08-14T03:31:09Z</time>
      </trkpt>
      <trkpt lat="46.30722" lon="3.25139">
        <ele>261.62</ele>
        <time>2021-08-14T03:31:16Z</time>
      </trkpt>
      <trkpt lat="46.30716" lon="3.25115">
        <ele>262.58</ele>
        <time>2021-08-14T03:31:23Z</time>
      </trkpt>
      <trkpt lat="46.30706" lon="3.25076">
        <ele>263.06</ele>
        <time>2021-08-14T03:31:34Z</time>
      </trkpt>
      <trkpt lat="46.307" lon="3.25044">
        <ele>264.02</ele>
        <time>2021-08-14T03:31:43Z</time>
      </trkpt>
      <trkpt lat="46.30691" lon="3.25003">
        <ele>264.98</ele>
        <time>2021-08-14T03:31:54Z</time>
      </trkpt>
      <trkpt lat="46.30681" lon="3.24964">
        <ele>265.46</ele>
        <time>2021-08-14T03:32:05Z</time>
      </trkpt>
      <trkpt lat="46.30667" lon="3.24941">
        <ele>265.94</ele>
        <time>2021-08-14T03:32:13Z</time>
      </trkpt>
      <trkpt lat="46.30652" lon="3.24916">
        <ele>265.94</ele>
        <time>2021-08-14T03:32:21Z</time>
      </trkpt>
      <trkpt lat="46.30645" lon="3.24876">
        <ele>266.42</ele>
        <time>2021-08-14T03:32:31Z</time>
      </trkpt>
      <trkpt lat="46.30646" lon="3.24841">
        <ele>266.9</ele>
        <time>2021-08-14T03:32:40Z</time>
      </trkpt>
      <trkpt lat="46.30656" lon="3.24795">
        <ele>267.86</ele>
        <time>2021-08-14T03:32:53Z</time>
      </trkpt>
      <trkpt lat="46.30662" lon="3.24768">
        <ele>268.83</ele>
        <time>2021-08-14T03:33:01Z</time>
      </trkpt>
      <trkpt lat="46.30666" lon="3.24738">
        <ele>269.31</ele>
        <time>2021-08-14T03:33:10Z</time>
      </trkpt>
      <trkpt lat="46.30666" lon="3.24711">
        <ele>270.75</ele>
        <time>2021-08-14T03:33:18Z</time>
      </trkpt>
      <trkpt lat="46.30666" lon="3.24678">
        <ele>271.71</ele>
        <time>2021-08-14T03:33:28Z</time>
      </trkpt>
      <trkpt lat="46.3067" lon="3.24647">
        <ele>272.67</ele>
        <time>2021-08-14T03:33:37Z</time>
      </trkpt>
      <trkpt lat="46.30682" lon="3.24614">
        <ele>273.15</ele>
        <time>2021-08-14T03:33:47Z</time>
      </trkpt>
      <trkpt lat="46.30689" lon="3.24592">
        <ele>273.63</ele>
        <time>2021-08-14T03:33:53Z</time>
      </trkpt>
      <trkpt lat="46.30695" lon="3.24567">
        <ele>274.59</ele>
        <time>2021-08-14T03:34:01Z</time>
      </trkpt>
      <trkpt lat="46.30693" lon="3.24543">
        <ele>275.07</ele>
        <time>2021-08-14T03:34:08Z</time>
      </trkpt>
      <trkpt lat="46.30678" lon="3.2453">
        <ele>275.07</ele>
        <time>2021-08-14T03:34:13Z</time>
      </trkpt>
      <trkpt lat="46.30675" lon="3.24528">
        <ele>275.07</ele>
        <time>2021-08-14T03:34:14Z</time>
      </trkpt>
      <trkpt lat="46.30671" lon="3.24528">
        <ele>275.07</ele>
        <time>2021-08-14T03:34:15Z</time>
      </trkpt>
      <trkpt lat="46.30662" lon="3.24526">
        <ele>273.63</ele>
        <time>2021-08-14T03:34:17Z</time>
      </trkpt>
      <trkpt lat="46.30652" lon="3.24525">
        <ele>273.15</ele>
        <time>2021-08-14T03:34:19Z</time>
      </trkpt>
      <trkpt lat="46.30613" lon="3.24528">
        <ele>272.19</ele>
        <time>2021-08-14T03:34:27Z</time>
      </trkpt>
      <trkpt lat="46.30608" lon="3.24529">
        <ele>272.19</ele>
        <time>2021-08-14T03:34:28Z</time>
      </trkpt>
      <trkpt lat="46.30603" lon="3.24532">
        <ele>272.19</ele>
        <time>2021-08-14T03:34:29Z</time>
      </trkpt>
      <trkpt lat="46.30599" lon="3.24534">
        <ele>272.19</ele>
        <time>2021-08-14T03:34:30Z</time>
      </trkpt>
      <trkpt lat="46.30594" lon="3.24536">
        <ele>272.19</ele>
        <time>2021-08-14T03:34:31Z</time>
      </trkpt>
      <trkpt lat="46.30591" lon="3.24538">
        <ele>272.19</ele>
        <time>2021-08-14T03:34:32Z</time>
      </trkpt>
      <trkpt lat="46.30586" lon="3.24539">
        <ele>272.19</ele>
        <time>2021-08-14T03:34:33Z</time>
      </trkpt>
      <trkpt lat="46.30581" lon="3.24539">
        <ele>272.19</ele>
        <time>2021-08-14T03:34:34Z</time>
      </trkpt>
      <trkpt lat="46.30563" lon="3.2453">
        <ele>273.15</ele>
        <time>2021-08-14T03:34:39Z</time>
      </trkpt>
      <trkpt lat="46.30531" lon="3.24494">
        <ele>274.59</ele>
        <time>2021-08-14T03:34:51Z</time>
      </trkpt>
      <trkpt lat="46.30501" lon="3.24468">
        <ele>275.56</ele>
        <time>2021-08-14T03:35:02Z</time>
      </trkpt>
      <trkpt lat="46.30479" lon="3.24456">
        <ele>276.52</ele>
        <time>2021-08-14T03:35:10Z</time>
      </trkpt>
      <trkpt lat="46.30447" lon="3.24446">
        <ele>277.48</ele>
        <time>2021-08-14T03:35:21Z</time>
      </trkpt>
      <trkpt lat="46.30412" lon="3.24432">
        <ele>277</ele>
        <time>2021-08-14T03:35:31Z</time>
      </trkpt>
      <trkpt lat="46.30387" lon="3.24411">
        <ele>277</ele>
        <time>2021-08-14T03:35:39Z</time>
      </trkpt>
      <trkpt lat="46.30359" lon="3.24371">
        <ele>277</ele>
        <time>2021-08-14T03:35:51Z</time>
      </trkpt>
      <trkpt lat="46.3034" lon="3.24342">
        <ele>277.48</ele>
        <time>2021-08-14T03:36:00Z</time>
      </trkpt>
      <trkpt lat="46.30317" lon="3.24314">
        <ele>277.96</ele>
        <time>2021-08-14T03:36:09Z</time>
      </trkpt>
      <trkpt lat="46.30281" lon="3.24289">
        <ele>277.96</ele>
        <time>2021-08-14T03:36:19Z</time>
      </trkpt>
      <trkpt lat="46.30249" lon="3.24274">
        <ele>277</ele>
        <time>2021-08-14T03:36:27Z</time>
      </trkpt>
      <trkpt lat="46.30213" lon="3.24255">
        <ele>277</ele>
        <time>2021-08-14T03:36:37Z</time>
      </trkpt>
      <trkpt lat="46.30199" lon="3.24248">
        <ele>278.44</ele>
        <time>2021-08-14T03:36:42Z</time>
      </trkpt>
      <trkpt lat="46.30168" lon="3.24233">
        <ele>278.92</ele>
        <time>2021-08-14T03:36:52Z</time>
      </trkpt>
      <trkpt lat="46.30137" lon="3.24218">
        <ele>279.4</ele>
        <time>2021-08-14T03:37:02Z</time>
      </trkpt>
      <trkpt lat="46.3012" lon="3.24209">
        <ele>279.88</ele>
        <time>2021-08-14T03:37:08Z</time>
      </trkpt>
      <trkpt lat="46.30109" lon="3.24204">
        <ele>279.88</ele>
        <time>2021-08-14T03:37:12Z</time>
      </trkpt>
      <trkpt lat="46.30107" lon="3.24201">
        <ele>279.88</ele>
        <time>2021-08-14T03:37:13Z</time>
      </trkpt>
      <trkpt lat="46.30106" lon="3.24197">
        <ele>279.88</ele>
        <time>2021-08-14T03:37:14Z</time>
      </trkpt>
      <trkpt lat="46.30106" lon="3.24192">
        <ele>279.88</ele>
        <time>2021-08-14T03:37:15Z</time>
      </trkpt>
      <trkpt lat="46.30107" lon="3.24189">
        <ele>279.88</ele>
        <time>2021-08-14T03:37:16Z</time>
      </trkpt>
      <trkpt lat="46.30108" lon="3.24185">
        <ele>279.88</ele>
        <time>2021-08-14T03:37:17Z</time>
      </trkpt>
      <trkpt lat="46.30121" lon="3.24144">
        <ele>281.32</ele>
        <time>2021-08-14T03:37:28Z</time>
      </trkpt>
      <trkpt lat="46.3013" lon="3.24111">
        <ele>281.8</ele>
        <time>2021-08-14T03:37:37Z</time>
      </trkpt>
      <trkpt lat="46.30142" lon="3.24073">
        <ele>283.25</ele>
        <time>2021-08-14T03:37:47Z</time>
      </trkpt>
      <trkpt lat="46.30151" lon="3.24035">
        <ele>284.21</ele>
        <time>2021-08-14T03:37:57Z</time>
      </trkpt>
      <trkpt lat="46.30158" lon="3.24011">
        <ele>285.17</ele>
        <time>2021-08-14T03:38:05Z</time>
      </trkpt>
      <trkpt lat="46.30158" lon="3.24009">
        <ele>285.17</ele>
        <time>2021-08-14T03:38:06Z</time>
      </trkpt>
      <trkpt lat="46.30157" lon="3.24009">
        <ele>285.17</ele>
        <time>2021-08-14T03:38:07Z</time>
      </trkpt>
      <trkpt lat="46.30156" lon="3.24015">
        <ele>285.17</ele>
        <time>2021-08-14T03:38:10Z</time>
      </trkpt>
      <trkpt lat="46.30156" lon="3.24019">
        <ele>285.17</ele>
        <time>2021-08-14T03:38:11Z</time>
      </trkpt>
      <trkpt lat="46.30155" lon="3.24022">
        <ele>285.17</ele>
        <time>2021-08-14T03:38:12Z</time>
      </trkpt>
      <trkpt lat="46.30155" lon="3.24025">
        <ele>285.17</ele>
        <time>2021-08-14T03:38:13Z</time>
      </trkpt>
      <trkpt lat="46.30154" lon="3.24029">
        <ele>285.17</ele>
        <time>2021-08-14T03:38:14Z</time>
      </trkpt>
      <trkpt lat="46.30147" lon="3.24045">
        <ele>284.21</ele>
        <time>2021-08-14T03:38:18Z</time>
      </trkpt>
      <trkpt lat="46.30144" lon="3.24047">
        <ele>284.21</ele>
        <time>2021-08-14T03:38:19Z</time>
      </trkpt>
      <trkpt lat="46.30141" lon="3.24046">
        <ele>284.21</ele>
        <time>2021-08-14T03:38:20Z</time>
      </trkpt>
      <trkpt lat="46.30138" lon="3.24044">
        <ele>284.21</ele>
        <time>2021-08-14T03:38:21Z</time>
      </trkpt>
      <trkpt lat="46.30136" lon="3.24042">
        <ele>284.21</ele>
        <time>2021-08-14T03:38:22Z</time>
      </trkpt>
      <trkpt lat="46.30133" lon="3.2404">
        <ele>284.21</ele>
        <time>2021-08-14T03:38:23Z</time>
      </trkpt>
      <trkpt lat="46.3013" lon="3.24037">
        <ele>284.21</ele>
        <time>2021-08-14T03:38:24Z</time>
      </trkpt>
      <trkpt lat="46.30127" lon="3.24035">
        <ele>284.21</ele>
        <time>2021-08-14T03:38:25Z</time>
      </trkpt>
      <trkpt lat="46.30099" lon="3.24009">
        <ele>285.17</ele>
        <time>2021-08-14T03:38:36Z</time>
      </trkpt>
      <trkpt lat="46.30096" lon="3.2399">
        <ele>285.65</ele>
        <time>2021-08-14T03:38:41Z</time>
      </trkpt>
      <trkpt lat="46.301" lon="3.23968">
        <ele>286.13</ele>
        <time>2021-08-14T03:38:47Z</time>
      </trkpt>
      <trkpt lat="46.30093" lon="3.2395">
        <ele>287.09</ele>
        <time>2021-08-14T03:38:53Z</time>
      </trkpt>
      <trkpt lat="46.30085" lon="3.2393">
        <ele>287.57</ele>
        <time>2021-08-14T03:38:59Z</time>
      </trkpt>
      <trkpt lat="46.30067" lon="3.23905">
        <ele>288.53</ele>
        <time>2021-08-14T03:39:08Z</time>
      </trkpt>
      <trkpt lat="46.30053" lon="3.2389">
        <ele>289.01</ele>
        <time>2021-08-14T03:39:15Z</time>
      </trkpt>
      <trkpt lat="46.30036" lon="3.23867">
        <ele>289.01</ele>
        <time>2021-08-14T03:39:24Z</time>
      </trkpt>
      <trkpt lat="46.30021" lon="3.23839">
        <ele>289.49</ele>
        <time>2021-08-14T03:39:34Z</time>
      </trkpt>
      <trkpt lat="46.30007" lon="3.23813">
        <ele>289.49</ele>
        <time>2021-08-14T03:39:43Z</time>
      </trkpt>
      <trkpt lat="46.29989" lon="3.23785">
        <ele>289.49</ele>
        <time>2021-08-14T03:39:53Z</time>
      </trkpt>
      <trkpt lat="46.29973" lon="3.23766">
        <ele>289.49</ele>
        <time>2021-08-14T03:40:01Z</time>
      </trkpt>
      <trkpt lat="46.29944" lon="3.23742">
        <ele>287.57</ele>
        <time>2021-08-14T03:40:12Z</time>
      </trkpt>
      <trkpt lat="46.29932" lon="3.23725">
        <ele>287.57</ele>
        <time>2021-08-14T03:40:17Z</time>
      </trkpt>
      <trkpt lat="46.29932" lon="3.23722">
        <ele>287.57</ele>
        <time>2021-08-14T03:40:18Z</time>
      </trkpt>
      <trkpt lat="46.29933" lon="3.23718">
        <ele>287.57</ele>
        <time>2021-08-14T03:40:19Z</time>
      </trkpt>
      <trkpt lat="46.29947" lon="3.23689">
        <ele>289.01</ele>
        <time>2021-08-14T03:40:28Z</time>
      </trkpt>
      <trkpt lat="46.29961" lon="3.23661">
        <ele>289.49</ele>
        <time>2021-08-14T03:40:37Z</time>
      </trkpt>
      <trkpt lat="46.29973" lon="3.23636">
        <ele>290.46</ele>
        <time>2021-08-14T03:40:45Z</time>
      </trkpt>
      <trkpt lat="46.29991" lon="3.23599">
        <ele>291.9</ele>
        <time>2021-08-14T03:40:57Z</time>
      </trkpt>
      <trkpt lat="46.30004" lon="3.23567">
        <ele>292.38</ele>
        <time>2021-08-14T03:41:07Z</time>
      </trkpt>
      <trkpt lat="46.30016" lon="3.23536">
        <ele>293.34</ele>
        <time>2021-08-14T03:41:17Z</time>
      </trkpt>
      <trkpt lat="46.3003" lon="3.23506">
        <ele>294.3</ele>
        <time>2021-08-14T03:41:27Z</time>
      </trkpt>
      <trkpt lat="46.30044" lon="3.23477">
        <ele>295.74</ele>
        <time>2021-08-14T03:41:37Z</time>
      </trkpt>
      <trkpt lat="46.30053" lon="3.23455">
        <ele>296.7</ele>
        <time>2021-08-14T03:41:45Z</time>
      </trkpt>
      <trkpt lat="46.30059" lon="3.23435">
        <ele>296.7</ele>
        <time>2021-08-14T03:41:51Z</time>
      </trkpt>
      <trkpt lat="46.30062" lon="3.234">
        <ele>297.67</ele>
        <time>2021-08-14T03:42:01Z</time>
      </trkpt>
      <trkpt lat="46.30063" lon="3.23368">
        <ele>298.63</ele>
        <time>2021-08-14T03:42:10Z</time>
      </trkpt>
      <trkpt lat="46.30064" lon="3.23337">
        <ele>299.59</ele>
        <time>2021-08-14T03:42:19Z</time>
      </trkpt>
      <trkpt lat="46.30065" lon="3.23308">
        <ele>300.55</ele>
        <time>2021-08-14T03:42:28Z</time>
      </trkpt>
      <trkpt lat="46.30065" lon="3.23285">
        <ele>301.99</ele>
        <time>2021-08-14T03:42:36Z</time>
      </trkpt>
      <trkpt lat="46.30064" lon="3.2326">
        <ele>302.95</ele>
        <time>2021-08-14T03:42:45Z</time>
      </trkpt>
      <trkpt lat="46.30062" lon="3.23234">
        <ele>303.91</ele>
        <time>2021-08-14T03:42:54Z</time>
      </trkpt>
      <trkpt lat="46.30058" lon="3.23207">
        <ele>305.36</ele>
        <time>2021-08-14T03:43:04Z</time>
      </trkpt>
      <trkpt lat="46.30057" lon="3.23184">
        <ele>306.32</ele>
        <time>2021-08-14T03:43:13Z</time>
      </trkpt>
      <trkpt lat="46.30056" lon="3.23158">
        <ele>307.76</ele>
        <time>2021-08-14T03:43:23Z</time>
      </trkpt>
      <trkpt lat="46.30055" lon="3.23136">
        <ele>308.24</ele>
        <time>2021-08-14T03:43:32Z</time>
      </trkpt>
      <trkpt lat="46.30056" lon="3.23124">
        <ele>309.2</ele>
        <time>2021-08-14T03:43:37Z</time>
      </trkpt>
      <trkpt lat="46.30056" lon="3.23122">
        <ele>309.68</ele>
        <time>2021-08-14T03:43:38Z</time>
      </trkpt>
      <trkpt lat="46.30056" lon="3.2312">
        <ele>309.68</ele>
        <time>2021-08-14T03:43:39Z</time>
      </trkpt>
      <trkpt lat="46.3006" lon="3.23099">
        <ele>310.64</ele>
        <time>2021-08-14T03:43:48Z</time>
      </trkpt>
      <trkpt lat="46.30059" lon="3.23097">
        <ele>311.12</ele>
        <time>2021-08-14T03:43:49Z</time>
      </trkpt>
      <trkpt lat="46.30059" lon="3.23094">
        <ele>311.12</ele>
        <time>2021-08-14T03:43:50Z</time>
      </trkpt>
      <trkpt lat="46.3006" lon="3.23092">
        <ele>311.12</ele>
        <time>2021-08-14T03:43:51Z</time>
      </trkpt>
      <trkpt lat="46.3006" lon="3.23089">
        <ele>311.12</ele>
        <time>2021-08-14T03:43:52Z</time>
      </trkpt>
      <trkpt lat="46.30063" lon="3.23077">
        <ele>312.09</ele>
        <time>2021-08-14T03:43:58Z</time>
      </trkpt>
      <trkpt lat="46.30067" lon="3.23048">
        <ele>313.05</ele>
        <time>2021-08-14T03:44:09Z</time>
      </trkpt>
      <trkpt lat="46.3007" lon="3.23026">
        <ele>314.01</ele>
        <time>2021-08-14T03:44:18Z</time>
      </trkpt>
      <trkpt lat="46.3007" lon="3.23024">
        <ele>314.01</ele>
        <time>2021-08-14T03:44:19Z</time>
      </trkpt>
      <trkpt lat="46.3007" lon="3.23021">
        <ele>314.01</ele>
        <time>2021-08-14T03:44:20Z</time>
      </trkpt>
      <trkpt lat="46.3007" lon="3.23018">
        <ele>314.01</ele>
        <time>2021-08-14T03:44:21Z</time>
      </trkpt>
      <trkpt lat="46.3007" lon="3.23016">
        <ele>314.01</ele>
        <time>2021-08-14T03:44:22Z</time>
      </trkpt>
      <trkpt lat="46.3007" lon="3.23014">
        <ele>314.49</ele>
        <time>2021-08-14T03:44:23Z</time>
      </trkpt>
      <trkpt lat="46.3007" lon="3.23011">
        <ele>314.49</ele>
        <time>2021-08-14T03:44:24Z</time>
      </trkpt>
      <trkpt lat="46.3007" lon="3.23009">
        <ele>314.49</ele>
        <time>2021-08-14T03:44:25Z</time>
      </trkpt>
      <trkpt lat="46.3007" lon="3.23007">
        <ele>314.49</ele>
        <time>2021-08-14T03:44:26Z</time>
      </trkpt>
      <trkpt lat="46.30071" lon="3.23004">
        <ele>314.49</ele>
        <time>2021-08-14T03:44:27Z</time>
      </trkpt>
      <trkpt lat="46.30073" lon="3.2298">
        <ele>315.45</ele>
        <time>2021-08-14T03:44:37Z</time>
      </trkpt>
      <trkpt lat="46.30074" lon="3.22956">
        <ele>316.41</ele>
        <time>2021-08-14T03:44:47Z</time>
      </trkpt>
      <trkpt lat="46.30076" lon="3.22937">
        <ele>317.85</ele>
        <time>2021-08-14T03:44:55Z</time>
      </trkpt>
      <trkpt lat="46.30078" lon="3.22914">
        <ele>319.3</ele>
        <time>2021-08-14T03:45:05Z</time>
      </trkpt>
      <trkpt lat="46.30078" lon="3.22889">
        <ele>320.74</ele>
        <time>2021-08-14T03:45:16Z</time>
      </trkpt>
      <trkpt lat="46.30079" lon="3.22866">
        <ele>321.22</ele>
        <time>2021-08-14T03:45:26Z</time>
      </trkpt>
      <trkpt lat="46.3008" lon="3.22845">
        <ele>322.18</ele>
        <time>2021-08-14T03:45:35Z</time>
      </trkpt>
      <trkpt lat="46.30081" lon="3.22825">
        <ele>323.14</ele>
        <time>2021-08-14T03:45:44Z</time>
      </trkpt>
      <trkpt lat="46.3008" lon="3.22801">
        <ele>324.1</ele>
        <time>2021-08-14T03:45:54Z</time>
      </trkpt>
      <trkpt lat="46.3008" lon="3.22779">
        <ele>325.06</ele>
        <time>2021-08-14T03:46:04Z</time>
      </trkpt>
      <trkpt lat="46.3008" lon="3.22753">
        <ele>326.5</ele>
        <time>2021-08-14T03:46:15Z</time>
      </trkpt>
      <trkpt lat="46.3008" lon="3.22734">
        <ele>327.47</ele>
        <time>2021-08-14T03:46:24Z</time>
      </trkpt>
      <trkpt lat="46.30081" lon="3.22711">
        <ele>328.43</ele>
        <time>2021-08-14T03:46:34Z</time>
      </trkpt>
      <trkpt lat="46.30083" lon="3.22689">
        <ele>329.39</ele>
        <time>2021-08-14T03:46:44Z</time>
      </trkpt>
      <trkpt lat="46.30086" lon="3.2267">
        <ele>329.87</ele>
        <time>2021-08-14T03:46:53Z</time>
      </trkpt>
      <trkpt lat="46.30086" lon="3.22668">
        <ele>329.87</ele>
        <time>2021-08-14T03:46:54Z</time>
      </trkpt>
      <trkpt lat="46.30086" lon="3.22665">
        <ele>330.35</ele>
        <time>2021-08-14T03:46:55Z</time>
      </trkpt>
      <trkpt lat="46.30087" lon="3.22652">
        <ele>330.35</ele>
        <time>2021-08-14T03:47:01Z</time>
      </trkpt>
      <trkpt lat="46.30088" lon="3.2265">
        <ele>330.83</ele>
        <time>2021-08-14T03:47:02Z</time>
      </trkpt>
      <trkpt lat="46.30091" lon="3.22631">
        <ele>331.79</ele>
        <time>2021-08-14T03:47:11Z</time>
      </trkpt>
      <trkpt lat="46.30093" lon="3.22615">
        <ele>332.27</ele>
        <time>2021-08-14T03:47:18Z</time>
      </trkpt>
      <trkpt lat="46.30096" lon="3.22594">
        <ele>333.71</ele>
        <time>2021-08-14T03:47:30Z</time>
      </trkpt>
      <trkpt lat="46.301" lon="3.22574">
        <ele>334.68</ele>
        <time>2021-08-14T03:47:40Z</time>
      </trkpt>
      <trkpt lat="46.30101" lon="3.22567">
        <ele>335.16</ele>
        <time>2021-08-14T03:47:43Z</time>
      </trkpt>
      <trkpt lat="46.30101" lon="3.22565">
        <ele>335.16</ele>
        <time>2021-08-14T03:47:44Z</time>
      </trkpt>
      <trkpt lat="46.30102" lon="3.22563">
        <ele>335.16</ele>
        <time>2021-08-14T03:47:45Z</time>
      </trkpt>
      <trkpt lat="46.30105" lon="3.22545">
        <ele>335.64</ele>
        <time>2021-08-14T03:47:54Z</time>
      </trkpt>
      <trkpt lat="46.30109" lon="3.22524">
        <ele>336.6</ele>
        <time>2021-08-14T03:48:03Z</time>
      </trkpt>
      <trkpt lat="46.30111" lon="3.22503">
        <ele>337.08</ele>
        <time>2021-08-14T03:48:12Z</time>
      </trkpt>
      <trkpt lat="46.30114" lon="3.22483">
        <ele>338.04</ele>
        <time>2021-08-14T03:48:21Z</time>
      </trkpt>
      <trkpt lat="46.30118" lon="3.22457">
        <ele>338.04</ele>
        <time>2021-08-14T03:48:32Z</time>
      </trkpt>
      <trkpt lat="46.30123" lon="3.22432">
        <ele>338.52</ele>
        <time>2021-08-14T03:48:42Z</time>
      </trkpt>
      <trkpt lat="46.30128" lon="3.22408">
        <ele>339</ele>
        <time>2021-08-14T03:48:50Z</time>
      </trkpt>
      <trkpt lat="46.30133" lon="3.22383">
        <ele>339.48</ele>
        <time>2021-08-14T03:48:59Z</time>
      </trkpt>
      <trkpt lat="46.30135" lon="3.22367">
        <ele>339.96</ele>
        <time>2021-08-14T03:49:05Z</time>
      </trkpt>
      <trkpt lat="46.30141" lon="3.22344">
        <ele>340.44</ele>
        <time>2021-08-14T03:49:14Z</time>
      </trkpt>
      <trkpt lat="46.30147" lon="3.22318">
        <ele>340.44</ele>
        <time>2021-08-14T03:49:23Z</time>
      </trkpt>
      <trkpt lat="46.30154" lon="3.22294">
        <ele>340.92</ele>
        <time>2021-08-14T03:49:32Z</time>
      </trkpt>
      <trkpt lat="46.30162" lon="3.2227">
        <ele>340.92</ele>
        <time>2021-08-14T03:49:40Z</time>
      </trkpt>
      <trkpt lat="46.30169" lon="3.22246">
        <ele>341.41</ele>
        <time>2021-08-14T03:49:48Z</time>
      </trkpt>
      <trkpt lat="46.30176" lon="3.22224">
        <ele>341.41</ele>
        <time>2021-08-14T03:49:55Z</time>
      </trkpt>
      <trkpt lat="46.30182" lon="3.22191">
        <ele>341.41</ele>
        <time>2021-08-14T03:50:05Z</time>
      </trkpt>
      <trkpt lat="46.30186" lon="3.22165">
        <ele>341.41</ele>
        <time>2021-08-14T03:50:13Z</time>
      </trkpt>
      <trkpt lat="46.30189" lon="3.22135">
        <ele>341.89</ele>
        <time>2021-08-14T03:50:22Z</time>
      </trkpt>
      <trkpt lat="46.30192" lon="3.2211">
        <ele>342.37</ele>
        <time>2021-08-14T03:50:30Z</time>
      </trkpt>
      <trkpt lat="46.30196" lon="3.22087">
        <ele>342.37</ele>
        <time>2021-08-14T03:50:37Z</time>
      </trkpt>
      <trkpt lat="46.30199" lon="3.22059">
        <ele>342.85</ele>
        <time>2021-08-14T03:50:45Z</time>
      </trkpt>
      <trkpt lat="46.30203" lon="3.22027">
        <ele>342.85</ele>
        <time>2021-08-14T03:50:54Z</time>
      </trkpt>
      <trkpt lat="46.30207" lon="3.21991">
        <ele>343.33</ele>
        <time>2021-08-14T03:51:04Z</time>
      </trkpt>
      <trkpt lat="46.30208" lon="3.21971">
        <ele>343.81</ele>
        <time>2021-08-14T03:51:10Z</time>
      </trkpt>
      <trkpt lat="46.30207" lon="3.21969">
        <ele>343.81</ele>
        <time>2021-08-14T03:51:11Z</time>
      </trkpt>
      <trkpt lat="46.30205" lon="3.21968">
        <ele>343.81</ele>
        <time>2021-08-14T03:51:12Z</time>
      </trkpt>
      <trkpt lat="46.30203" lon="3.21967">
        <ele>343.81</ele>
        <time>2021-08-14T03:51:13Z</time>
      </trkpt>
      <trkpt lat="46.302" lon="3.21967">
        <ele>343.81</ele>
        <time>2021-08-14T03:51:14Z</time>
      </trkpt>
      <trkpt lat="46.30182" lon="3.2196">
        <ele>343.81</ele>
        <time>2021-08-14T03:51:21Z</time>
      </trkpt>
      <trkpt lat="46.30161" lon="3.21952">
        <ele>343.81</ele>
        <time>2021-08-14T03:51:29Z</time>
      </trkpt>
      <trkpt lat="46.30137" lon="3.21942">
        <ele>343.81</ele>
        <time>2021-08-14T03:51:38Z</time>
      </trkpt>
      <trkpt lat="46.30108" lon="3.21932">
        <ele>343.81</ele>
        <time>2021-08-14T03:51:48Z</time>
      </trkpt>
      <trkpt lat="46.30087" lon="3.21924">
        <ele>342.37</ele>
        <time>2021-08-14T03:51:54Z</time>
      </trkpt>
      <trkpt lat="46.30048" lon="3.21909">
        <ele>341.89</ele>
        <time>2021-08-14T03:52:05Z</time>
      </trkpt>
      <trkpt lat="46.3001" lon="3.21895">
        <ele>339.48</ele>
        <time>2021-08-14T03:52:14Z</time>
      </trkpt>
      <trkpt lat="46.29966" lon="3.21878">
        <ele>337.56</ele>
        <time>2021-08-14T03:52:23Z</time>
      </trkpt>
      <trkpt lat="46.29926" lon="3.21863">
        <ele>336.12</ele>
        <time>2021-08-14T03:52:31Z</time>
      </trkpt>
      <trkpt lat="46.29873" lon="3.2184">
        <ele>332.27</ele>
        <time>2021-08-14T03:52:41Z</time>
      </trkpt>
      <trkpt lat="46.29862" lon="3.21832">
        <ele>331.79</ele>
        <time>2021-08-14T03:52:43Z</time>
      </trkpt>
      <trkpt lat="46.2983" lon="3.21808">
        <ele>328.43</ele>
        <time>2021-08-14T03:52:49Z</time>
      </trkpt>
      <trkpt lat="46.29794" lon="3.21785">
        <ele>325.06</ele>
        <time>2021-08-14T03:52:55Z</time>
      </trkpt>
      <trkpt lat="46.29787" lon="3.21781">
        <ele>325.06</ele>
        <time>2021-08-14T03:52:56Z</time>
      </trkpt>
      <trkpt lat="46.29767" lon="3.21774">
        <ele>323.62</ele>
        <time>2021-08-14T03:52:59Z</time>
      </trkpt>
      <trkpt lat="46.2976" lon="3.21773">
        <ele>323.14</ele>
        <time>2021-08-14T03:53:00Z</time>
      </trkpt>
      <trkpt lat="46.29746" lon="3.21772">
        <ele>322.18</ele>
        <time>2021-08-14T03:53:02Z</time>
      </trkpt>
      <trkpt lat="46.29701" lon="3.21772">
        <ele>318.81</ele>
        <time>2021-08-14T03:53:08Z</time>
      </trkpt>
      <trkpt lat="46.29649" lon="3.21771">
        <ele>315.45</ele>
        <time>2021-08-14T03:53:15Z</time>
      </trkpt>
      <trkpt lat="46.29607" lon="3.21775">
        <ele>313.05</ele>
        <time>2021-08-14T03:53:21Z</time>
      </trkpt>
      <trkpt lat="46.2956" lon="3.21787">
        <ele>311.6</ele>
        <time>2021-08-14T03:53:28Z</time>
      </trkpt>
      <trkpt lat="46.29539" lon="3.21791">
        <ele>310.64</ele>
        <time>2021-08-14T03:53:31Z</time>
      </trkpt>
      <trkpt lat="46.29532" lon="3.21793">
        <ele>310.64</ele>
        <time>2021-08-14T03:53:32Z</time>
      </trkpt>
      <trkpt lat="46.29489" lon="3.21808">
        <ele>310.16</ele>
        <time>2021-08-14T03:53:39Z</time>
      </trkpt>
      <trkpt lat="46.29479" lon="3.21801">
        <ele>309.68</ele>
        <time>2021-08-14T03:53:42Z</time>
      </trkpt>
      <trkpt lat="46.29475" lon="3.21801">
        <ele>309.68</ele>
        <time>2021-08-14T03:53:43Z</time>
      </trkpt>
      <trkpt lat="46.29466" lon="3.21799">
        <ele>308.72</ele>
        <time>2021-08-14T03:53:45Z</time>
      </trkpt>
      <trkpt lat="46.29456" lon="3.21796">
        <ele>308.24</ele>
        <time>2021-08-14T03:53:47Z</time>
      </trkpt>
      <trkpt lat="46.29427" lon="3.2179">
        <ele>307.76</ele>
        <time>2021-08-14T03:53:53Z</time>
      </trkpt>
      <trkpt lat="46.29386" lon="3.21771">
        <ele>307.28</ele>
        <time>2021-08-14T03:54:02Z</time>
      </trkpt>
      <trkpt lat="46.29352" lon="3.21757">
        <ele>306.8</ele>
        <time>2021-08-14T03:54:09Z</time>
      </trkpt>
      <trkpt lat="46.29306" lon="3.21728">
        <ele>304.88</ele>
        <time>2021-08-14T03:54:19Z</time>
      </trkpt>
      <trkpt lat="46.29259" lon="3.217">
        <ele>303.43</ele>
        <time>2021-08-14T03:54:29Z</time>
      </trkpt>
      <trkpt lat="46.29219" lon="3.21676">
        <ele>302.47</ele>
        <time>2021-08-14T03:54:38Z</time>
      </trkpt>
      <trkpt lat="46.29175" lon="3.21652">
        <ele>301.99</ele>
        <time>2021-08-14T03:54:49Z</time>
      </trkpt>
      <trkpt lat="46.29171" lon="3.2165">
        <ele>301.99</ele>
        <time>2021-08-14T03:54:50Z</time>
      </trkpt>
      <trkpt lat="46.29167" lon="3.21648">
        <ele>301.51</ele>
        <time>2021-08-14T03:54:51Z</time>
      </trkpt>
      <trkpt lat="46.29162" lon="3.21646">
        <ele>301.51</ele>
        <time>2021-08-14T03:54:52Z</time>
      </trkpt>
      <trkpt lat="46.29121" lon="3.21625">
        <ele>301.03</ele>
        <time>2021-08-14T03:55:02Z</time>
      </trkpt>
      <trkpt lat="46.29078" lon="3.21606">
        <ele>300.55</ele>
        <time>2021-08-14T03:55:13Z</time>
      </trkpt>
      <trkpt lat="46.29042" lon="3.21591">
        <ele>300.07</ele>
        <time>2021-08-14T03:55:22Z</time>
      </trkpt>
      <trkpt lat="46.29003" lon="3.21575">
        <ele>299.59</ele>
        <time>2021-08-14T03:55:32Z</time>
      </trkpt>
      <trkpt lat="46.28961" lon="3.21551">
        <ele>297.67</ele>
        <time>2021-08-14T03:55:42Z</time>
      </trkpt>
      <trkpt lat="46.28954" lon="3.21547">
        <ele>297.67</ele>
        <time>2021-08-14T03:55:44Z</time>
      </trkpt>
      <trkpt lat="46.2895" lon="3.21544">
        <ele>297.67</ele>
        <time>2021-08-14T03:55:45Z</time>
      </trkpt>
      <trkpt lat="46.28947" lon="3.21542">
        <ele>297.67</ele>
        <time>2021-08-14T03:55:46Z</time>
      </trkpt>
      <trkpt lat="46.28943" lon="3.21539">
        <ele>297.67</ele>
        <time>2021-08-14T03:55:47Z</time>
      </trkpt>
      <trkpt lat="46.28939" lon="3.21537">
        <ele>297.18</ele>
        <time>2021-08-14T03:55:48Z</time>
      </trkpt>
      <trkpt lat="46.28899" lon="3.21508">
        <ele>295.74</ele>
        <time>2021-08-14T03:55:58Z</time>
      </trkpt>
      <trkpt lat="46.28865" lon="3.21484">
        <ele>293.82</ele>
        <time>2021-08-14T03:56:06Z</time>
      </trkpt>
      <trkpt lat="46.28834" lon="3.21462">
        <ele>292.86</ele>
        <time>2021-08-14T03:56:14Z</time>
      </trkpt>
      <trkpt lat="46.28805" lon="3.21446">
        <ele>292.38</ele>
        <time>2021-08-14T03:56:22Z</time>
      </trkpt>
      <trkpt lat="46.28771" lon="3.21431">
        <ele>291.9</ele>
        <time>2021-08-14T03:56:31Z</time>
      </trkpt>
      <trkpt lat="46.28747" lon="3.21418">
        <ele>291.9</ele>
        <time>2021-08-14T03:56:38Z</time>
      </trkpt>
      <trkpt lat="46.28713" lon="3.21395">
        <ele>290.46</ele>
        <time>2021-08-14T03:56:47Z</time>
      </trkpt>
      <trkpt lat="46.28684" lon="3.21375">
        <ele>289.49</ele>
        <time>2021-08-14T03:56:55Z</time>
      </trkpt>
      <trkpt lat="46.28677" lon="3.21371">
        <ele>289.49</ele>
        <time>2021-08-14T03:56:57Z</time>
      </trkpt>
      <trkpt lat="46.28673" lon="3.21369">
        <ele>289.49</ele>
        <time>2021-08-14T03:56:58Z</time>
      </trkpt>
      <trkpt lat="46.28646" lon="3.21352">
        <ele>289.49</ele>
        <time>2021-08-14T03:57:06Z</time>
      </trkpt>
      <trkpt lat="46.2862" lon="3.21335">
        <ele>289.49</ele>
        <time>2021-08-14T03:57:14Z</time>
      </trkpt>
      <trkpt lat="46.28595" lon="3.21316">
        <ele>289.49</ele>
        <time>2021-08-14T03:57:22Z</time>
      </trkpt>
      <trkpt lat="46.28568" lon="3.213">
        <ele>289.49</ele>
        <time>2021-08-14T03:57:29Z</time>
      </trkpt>
      <trkpt lat="46.28527" lon="3.21275">
        <ele>288.53</ele>
        <time>2021-08-14T03:57:39Z</time>
      </trkpt>
      <trkpt lat="46.28503" lon="3.2126">
        <ele>287.57</ele>
        <time>2021-08-14T03:57:46Z</time>
      </trkpt>
      <trkpt lat="46.28478" lon="3.21249">
        <ele>287.57</ele>
        <time>2021-08-14T03:57:53Z</time>
      </trkpt>
      <trkpt lat="46.28449" lon="3.21237">
        <ele>286.61</ele>
        <time>2021-08-14T03:58:01Z</time>
      </trkpt>
      <trkpt lat="46.28412" lon="3.21223">
        <ele>284.69</ele>
        <time>2021-08-14T03:58:10Z</time>
      </trkpt>
      <trkpt lat="46.28375" lon="3.21207">
        <ele>283.25</ele>
        <time>2021-08-14T03:58:19Z</time>
      </trkpt>
      <trkpt lat="46.28355" lon="3.21199">
        <ele>282.28</ele>
        <time>2021-08-14T03:58:24Z</time>
      </trkpt>
      <trkpt lat="46.28351" lon="3.21198">
        <ele>282.28</ele>
        <time>2021-08-14T03:58:25Z</time>
      </trkpt>
      <trkpt lat="46.28326" lon="3.21194">
        <ele>282.28</ele>
        <time>2021-08-14T03:58:32Z</time>
      </trkpt>
      <trkpt lat="46.28301" lon="3.21192">
        <ele>282.28</ele>
        <time>2021-08-14T03:58:39Z</time>
      </trkpt>
      <trkpt lat="46.28273" lon="3.21183">
        <ele>282.28</ele>
        <time>2021-08-14T03:58:47Z</time>
      </trkpt>
      <trkpt lat="46.28257" lon="3.21175">
        <ele>282.28</ele>
        <time>2021-08-14T03:58:52Z</time>
      </trkpt>
      <trkpt lat="46.28254" lon="3.21175">
        <ele>282.28</ele>
        <time>2021-08-14T03:58:53Z</time>
      </trkpt>
      <trkpt lat="46.28253" lon="3.21174">
        <ele>282.28</ele>
        <time>2021-08-14T03:58:57Z</time>
      </trkpt>
      <trkpt lat="46.28253" lon="3.21172">
        <ele>282.77</ele>
        <time>2021-08-14T03:58:59Z</time>
      </trkpt>
      <trkpt lat="46.28251" lon="3.21171">
        <ele>282.28</ele>
        <time>2021-08-14T03:59:00Z</time>
      </trkpt>
      <trkpt lat="46.2825" lon="3.2117">
        <ele>282.28</ele>
        <time>2021-08-14T03:59:01Z</time>
      </trkpt>
      <trkpt lat="46.28248" lon="3.21169">
        <ele>282.28</ele>
        <time>2021-08-14T03:59:02Z</time>
      </trkpt>
      <trkpt lat="46.28247" lon="3.21168">
        <ele>282.28</ele>
        <time>2021-08-14T03:59:03Z</time>
      </trkpt>
      <trkpt lat="46.28244" lon="3.21166">
        <ele>282.77</ele>
        <time>2021-08-14T03:59:04Z</time>
      </trkpt>
      <trkpt lat="46.28222" lon="3.21154">
        <ele>282.28</ele>
        <time>2021-08-14T03:59:10Z</time>
      </trkpt>
      <trkpt lat="46.28202" lon="3.2114">
        <ele>281.8</ele>
        <time>2021-08-14T03:59:16Z</time>
      </trkpt>
      <trkpt lat="46.28172" lon="3.21119">
        <ele>280.84</ele>
        <time>2021-08-14T03:59:24Z</time>
      </trkpt>
      <trkpt lat="46.28137" lon="3.21096">
        <ele>280.36</ele>
        <time>2021-08-14T03:59:33Z</time>
      </trkpt>
      <trkpt lat="46.28102" lon="3.21072">
        <ele>279.88</ele>
        <time>2021-08-14T03:59:42Z</time>
      </trkpt>
      <trkpt lat="46.28061" lon="3.21046">
        <ele>277.96</ele>
        <time>2021-08-14T03:59:51Z</time>
      </trkpt>
      <trkpt lat="46.28016" lon="3.21024">
        <ele>276.52</ele>
        <time>2021-08-14T04:00:00Z</time>
      </trkpt>
      <trkpt lat="46.28006" lon="3.2102">
        <ele>276.04</ele>
        <time>2021-08-14T04:00:02Z</time>
      </trkpt>
      <trkpt lat="46.28001" lon="3.21018">
        <ele>276.04</ele>
        <time>2021-08-14T04:00:03Z</time>
      </trkpt>
      <trkpt lat="46.27986" lon="3.2101">
        <ele>275.56</ele>
        <time>2021-08-14T04:00:06Z</time>
      </trkpt>
      <trkpt lat="46.27982" lon="3.21006">
        <ele>274.59</ele>
        <time>2021-08-14T04:00:07Z</time>
      </trkpt>
      <trkpt lat="46.27978" lon="3.21002">
        <ele>274.59</ele>
        <time>2021-08-14T04:00:08Z</time>
      </trkpt>
      <trkpt lat="46.27977" lon="3.20998">
        <ele>274.11</ele>
        <time>2021-08-14T04:00:09Z</time>
      </trkpt>
      <trkpt lat="46.27976" lon="3.20994">
        <ele>274.11</ele>
        <time>2021-08-14T04:00:10Z</time>
      </trkpt>
      <trkpt lat="46.27976" lon="3.2099">
        <ele>274.11</ele>
        <time>2021-08-14T04:00:11Z</time>
      </trkpt>
      <trkpt lat="46.27977" lon="3.20985">
        <ele>274.11</ele>
        <time>2021-08-14T04:00:12Z</time>
      </trkpt>
      <trkpt lat="46.27978" lon="3.20981">
        <ele>273.63</ele>
        <time>2021-08-14T04:00:13Z</time>
      </trkpt>
      <trkpt lat="46.27979" lon="3.20976">
        <ele>274.11</ele>
        <time>2021-08-14T04:00:14Z</time>
      </trkpt>
      <trkpt lat="46.27989" lon="3.20941">
        <ele>273.63</ele>
        <time>2021-08-14T04:00:22Z</time>
      </trkpt>
      <trkpt lat="46.27994" lon="3.20917">
        <ele>274.11</ele>
        <time>2021-08-14T04:00:27Z</time>
      </trkpt>
      <trkpt lat="46.27993" lon="3.20914">
        <ele>274.11</ele>
        <time>2021-08-14T04:00:28Z</time>
      </trkpt>
      <trkpt lat="46.27994" lon="3.20911">
        <ele>274.11</ele>
        <time>2021-08-14T04:00:29Z</time>
      </trkpt>
      <trkpt lat="46.27994" lon="3.20909">
        <ele>274.11</ele>
        <time>2021-08-14T04:00:30Z</time>
      </trkpt>
      <trkpt lat="46.27995" lon="3.20906">
        <ele>274.11</ele>
        <time>2021-08-14T04:00:31Z</time>
      </trkpt>
      <trkpt lat="46.27996" lon="3.20903">
        <ele>274.11</ele>
        <time>2021-08-14T04:00:32Z</time>
      </trkpt>
      <trkpt lat="46.28002" lon="3.20878">
        <ele>273.63</ele>
        <time>2021-08-14T04:00:39Z</time>
      </trkpt>
      <trkpt lat="46.28005" lon="3.20853">
        <ele>271.71</ele>
        <time>2021-08-14T04:00:45Z</time>
      </trkpt>
      <trkpt lat="46.28006" lon="3.20839">
        <ele>273.15</ele>
        <time>2021-08-14T04:00:50Z</time>
      </trkpt>
      <trkpt lat="46.28003" lon="3.20826">
        <ele>274.59</ele>
        <time>2021-08-14T04:00:57Z</time>
      </trkpt>
      <trkpt lat="46.28" lon="3.20808">
        <ele>276.52</ele>
        <time>2021-08-14T04:01:06Z</time>
      </trkpt>
      <trkpt lat="46.27995" lon="3.20789">
        <ele>277.96</ele>
        <time>2021-08-14T04:01:15Z</time>
      </trkpt>
      <trkpt lat="46.27991" lon="3.20771">
        <ele>279.4</ele>
        <time>2021-08-14T04:01:23Z</time>
      </trkpt>
      <trkpt lat="46.2799" lon="3.20752">
        <ele>280.36</ele>
        <time>2021-08-14T04:01:32Z</time>
      </trkpt>
      <trkpt lat="46.27985" lon="3.20732">
        <ele>281.8</ele>
        <time>2021-08-14T04:01:41Z</time>
      </trkpt>
      <trkpt lat="46.27979" lon="3.20712">
        <ele>282.28</ele>
        <time>2021-08-14T04:01:49Z</time>
      </trkpt>
      <trkpt lat="46.27974" lon="3.20693">
        <ele>283.73</ele>
        <time>2021-08-14T04:01:57Z</time>
      </trkpt>
      <trkpt lat="46.2797" lon="3.20674">
        <ele>284.69</ele>
        <time>2021-08-14T04:02:05Z</time>
      </trkpt>
      <trkpt lat="46.27965" lon="3.20654">
        <ele>285.65</ele>
        <time>2021-08-14T04:02:14Z</time>
      </trkpt>
      <trkpt lat="46.2796" lon="3.20636">
        <ele>286.61</ele>
        <time>2021-08-14T04:02:22Z</time>
      </trkpt>
      <trkpt lat="46.27955" lon="3.20617">
        <ele>287.09</ele>
        <time>2021-08-14T04:02:30Z</time>
      </trkpt>
      <trkpt lat="46.27951" lon="3.20599">
        <ele>287.57</ele>
        <time>2021-08-14T04:02:37Z</time>
      </trkpt>
      <trkpt lat="46.27949" lon="3.20581">
        <ele>288.53</ele>
        <time>2021-08-14T04:02:44Z</time>
      </trkpt>
      <trkpt lat="46.27951" lon="3.20554">
        <ele>288.53</ele>
        <time>2021-08-14T04:02:53Z</time>
      </trkpt>
      <trkpt lat="46.27955" lon="3.2053">
        <ele>289.01</ele>
        <time>2021-08-14T04:03:01Z</time>
      </trkpt>
      <trkpt lat="46.27962" lon="3.20505">
        <ele>289.49</ele>
        <time>2021-08-14T04:03:09Z</time>
      </trkpt>
      <trkpt lat="46.2797" lon="3.2048">
        <ele>289.97</ele>
        <time>2021-08-14T04:03:17Z</time>
      </trkpt>
      <trkpt lat="46.2798" lon="3.20449">
        <ele>289.97</ele>
        <time>2021-08-14T04:03:26Z</time>
      </trkpt>
      <trkpt lat="46.27991" lon="3.20416">
        <ele>290.46</ele>
        <time>2021-08-14T04:03:35Z</time>
      </trkpt>
      <trkpt lat="46.28" lon="3.20387">
        <ele>290.94</ele>
        <time>2021-08-14T04:03:43Z</time>
      </trkpt>
      <trkpt lat="46.2801" lon="3.20358">
        <ele>291.42</ele>
        <time>2021-08-14T04:03:51Z</time>
      </trkpt>
      <trkpt lat="46.28017" lon="3.20332">
        <ele>292.38</ele>
        <time>2021-08-14T04:03:58Z</time>
      </trkpt>
      <trkpt lat="46.28023" lon="3.20302">
        <ele>292.38</ele>
        <time>2021-08-14T04:04:06Z</time>
      </trkpt>
      <trkpt lat="46.28024" lon="3.20278">
        <ele>293.34</ele>
        <time>2021-08-14T04:04:13Z</time>
      </trkpt>
      <trkpt lat="46.28026" lon="3.20259">
        <ele>293.82</ele>
        <time>2021-08-14T04:04:19Z</time>
      </trkpt>
      <trkpt lat="46.2803" lon="3.20236">
        <ele>294.78</ele>
        <time>2021-08-14T04:04:26Z</time>
      </trkpt>
      <trkpt lat="46.28036" lon="3.20202">
        <ele>295.74</ele>
        <time>2021-08-14T04:04:36Z</time>
      </trkpt>
      <trkpt lat="46.2804" lon="3.20173">
        <ele>296.22</ele>
        <time>2021-08-14T04:04:45Z</time>
      </trkpt>
      <trkpt lat="46.28044" lon="3.20146">
        <ele>296.7</ele>
        <time>2021-08-14T04:04:53Z</time>
      </trkpt>
      <trkpt lat="46.28049" lon="3.20113">
        <ele>297.18</ele>
        <time>2021-08-14T04:05:02Z</time>
      </trkpt>
      <trkpt lat="46.28054" lon="3.20084">
        <ele>298.15</ele>
        <time>2021-08-14T04:05:10Z</time>
      </trkpt>
      <trkpt lat="46.28058" lon="3.20057">
        <ele>298.63</ele>
        <time>2021-08-14T04:05:18Z</time>
      </trkpt>
      <trkpt lat="46.2806" lon="3.20038">
        <ele>300.55</ele>
        <time>2021-08-14T04:05:25Z</time>
      </trkpt>
      <trkpt lat="46.28062" lon="3.20019">
        <ele>301.03</ele>
        <time>2021-08-14T04:05:32Z</time>
      </trkpt>
      <trkpt lat="46.28065" lon="3.19983">
        <ele>301.51</ele>
        <time>2021-08-14T04:05:42Z</time>
      </trkpt>
      <trkpt lat="46.28066" lon="3.19958">
        <ele>302.47</ele>
        <time>2021-08-14T04:05:50Z</time>
      </trkpt>
      <trkpt lat="46.28066" lon="3.19926">
        <ele>304.39</ele>
        <time>2021-08-14T04:06:01Z</time>
      </trkpt>
      <trkpt lat="46.28067" lon="3.19896">
        <ele>304.39</ele>
        <time>2021-08-14T04:06:10Z</time>
      </trkpt>
      <trkpt lat="46.28067" lon="3.19864">
        <ele>305.36</ele>
        <time>2021-08-14T04:06:20Z</time>
      </trkpt>
      <trkpt lat="46.28068" lon="3.19844">
        <ele>305.84</ele>
        <time>2021-08-14T04:06:26Z</time>
      </trkpt>
      <trkpt lat="46.28067" lon="3.19797">
        <ele>306.32</ele>
        <time>2021-08-14T04:06:37Z</time>
      </trkpt>
      <trkpt lat="46.28064" lon="3.19758">
        <ele>306.8</ele>
        <time>2021-08-14T04:06:46Z</time>
      </trkpt>
      <trkpt lat="46.28063" lon="3.19728">
        <ele>306.8</ele>
        <time>2021-08-14T04:06:53Z</time>
      </trkpt>
      <trkpt lat="46.28061" lon="3.19691">
        <ele>307.76</ele>
        <time>2021-08-14T04:07:02Z</time>
      </trkpt>
      <trkpt lat="46.28063" lon="3.19656">
        <ele>308.72</ele>
        <time>2021-08-14T04:07:11Z</time>
      </trkpt>
      <trkpt lat="46.28063" lon="3.19616">
        <ele>309.68</ele>
        <time>2021-08-14T04:07:22Z</time>
      </trkpt>
      <trkpt lat="46.28064" lon="3.19585">
        <ele>310.64</ele>
        <time>2021-08-14T04:07:31Z</time>
      </trkpt>
      <trkpt lat="46.28066" lon="3.19553">
        <ele>311.6</ele>
        <time>2021-08-14T04:07:40Z</time>
      </trkpt>
      <trkpt lat="46.28067" lon="3.19522">
        <ele>312.57</ele>
        <time>2021-08-14T04:07:49Z</time>
      </trkpt>
      <trkpt lat="46.28068" lon="3.19487">
        <ele>313.53</ele>
        <time>2021-08-14T04:07:59Z</time>
      </trkpt>
      <trkpt lat="46.28069" lon="3.19459">
        <ele>314.49</ele>
        <time>2021-08-14T04:08:07Z</time>
      </trkpt>
      <trkpt lat="46.28071" lon="3.19426">
        <ele>315.45</ele>
        <time>2021-08-14T04:08:16Z</time>
      </trkpt>
      <trkpt lat="46.28073" lon="3.19383">
        <ele>316.89</ele>
        <time>2021-08-14T04:08:28Z</time>
      </trkpt>
      <trkpt lat="46.28075" lon="3.19348">
        <ele>317.37</ele>
        <time>2021-08-14T04:08:38Z</time>
      </trkpt>
      <trkpt lat="46.28075" lon="3.19317">
        <ele>317.85</ele>
        <time>2021-08-14T04:08:47Z</time>
      </trkpt>
      <trkpt lat="46.28076" lon="3.19282">
        <ele>318.81</ele>
        <time>2021-08-14T04:08:57Z</time>
      </trkpt>
      <trkpt lat="46.28076" lon="3.19253">
        <ele>320.26</ele>
        <time>2021-08-14T04:09:06Z</time>
      </trkpt>
      <trkpt lat="46.28076" lon="3.19224">
        <ele>321.22</ele>
        <time>2021-08-14T04:09:15Z</time>
      </trkpt>
      <trkpt lat="46.28075" lon="3.1919">
        <ele>321.7</ele>
        <time>2021-08-14T04:09:23Z</time>
      </trkpt>
      <trkpt lat="46.28077" lon="3.1916">
        <ele>322.18</ele>
        <time>2021-08-14T04:09:32Z</time>
      </trkpt>
      <trkpt lat="46.28077" lon="3.19134">
        <ele>323.62</ele>
        <time>2021-08-14T04:09:40Z</time>
      </trkpt>
      <trkpt lat="46.28078" lon="3.19104">
        <ele>324.58</ele>
        <time>2021-08-14T04:09:49Z</time>
      </trkpt>
      <trkpt lat="46.28079" lon="3.19077">
        <ele>325.06</ele>
        <time>2021-08-14T04:09:57Z</time>
      </trkpt>
      <trkpt lat="46.28079" lon="3.19038">
        <ele>326.02</ele>
        <time>2021-08-14T04:10:08Z</time>
      </trkpt>
      <trkpt lat="46.28079" lon="3.1901">
        <ele>326.99</ele>
        <time>2021-08-14T04:10:16Z</time>
      </trkpt>
      <trkpt lat="46.2808" lon="3.18973">
        <ele>327.47</ele>
        <time>2021-08-14T04:10:27Z</time>
      </trkpt>
      <trkpt lat="46.2808" lon="3.18943">
        <ele>328.91</ele>
        <time>2021-08-14T04:10:36Z</time>
      </trkpt>
      <trkpt lat="46.2808" lon="3.18913">
        <ele>329.39</ele>
        <time>2021-08-14T04:10:45Z</time>
      </trkpt>
      <trkpt lat="46.28081" lon="3.18888">
        <ele>330.35</ele>
        <time>2021-08-14T04:10:52Z</time>
      </trkpt>
      <trkpt lat="46.28081" lon="3.18859">
        <ele>331.31</ele>
        <time>2021-08-14T04:11:00Z</time>
      </trkpt>
      <trkpt lat="46.28082" lon="3.18827">
        <ele>331.79</ele>
        <time>2021-08-14T04:11:09Z</time>
      </trkpt>
      <trkpt lat="46.28083" lon="3.18795">
        <ele>332.75</ele>
        <time>2021-08-14T04:11:18Z</time>
      </trkpt>
      <trkpt lat="46.28084" lon="3.18764">
        <ele>333.71</ele>
        <time>2021-08-14T04:11:27Z</time>
      </trkpt>
      <trkpt lat="46.28077" lon="3.18727">
        <ele>334.2</ele>
        <time>2021-08-14T04:11:37Z</time>
      </trkpt>
      <trkpt lat="46.28062" lon="3.18681">
        <ele>335.16</ele>
        <time>2021-08-14T04:11:49Z</time>
      </trkpt>
      <trkpt lat="46.28054" lon="3.18651">
        <ele>335.64</ele>
        <time>2021-08-14T04:11:57Z</time>
      </trkpt>
      <trkpt lat="46.28048" lon="3.18623">
        <ele>336.6</ele>
        <time>2021-08-14T04:12:05Z</time>
      </trkpt>
      <trkpt lat="46.28054" lon="3.18588">
        <ele>338.04</ele>
        <time>2021-08-14T04:12:15Z</time>
      </trkpt>
      <trkpt lat="46.28059" lon="3.18558">
        <ele>339</ele>
        <time>2021-08-14T04:12:24Z</time>
      </trkpt>
      <trkpt lat="46.28066" lon="3.18521">
        <ele>341.41</ele>
        <time>2021-08-14T04:12:36Z</time>
      </trkpt>
      <trkpt lat="46.28069" lon="3.18499">
        <ele>342.37</ele>
        <time>2021-08-14T04:12:44Z</time>
      </trkpt>
      <trkpt lat="46.28074" lon="3.18475">
        <ele>343.33</ele>
        <time>2021-08-14T04:12:53Z</time>
      </trkpt>
      <trkpt lat="46.28079" lon="3.18446">
        <ele>344.77</ele>
        <time>2021-08-14T04:13:04Z</time>
      </trkpt>
      <trkpt lat="46.28083" lon="3.1842">
        <ele>346.21</ele>
        <time>2021-08-14T04:13:14Z</time>
      </trkpt>
      <trkpt lat="46.2809" lon="3.18392">
        <ele>347.65</ele>
        <time>2021-08-14T04:13:25Z</time>
      </trkpt>
      <trkpt lat="46.28098" lon="3.18359">
        <ele>349.1</ele>
        <time>2021-08-14T04:13:38Z</time>
      </trkpt>
      <trkpt lat="46.28105" lon="3.18341">
        <ele>349.58</ele>
        <time>2021-08-14T04:13:45Z</time>
      </trkpt>
      <trkpt lat="46.28112" lon="3.18322">
        <ele>351.02</ele>
        <time>2021-08-14T04:13:53Z</time>
      </trkpt>
      <trkpt lat="46.28119" lon="3.18297">
        <ele>351.98</ele>
        <time>2021-08-14T04:14:03Z</time>
      </trkpt>
      <trkpt lat="46.28126" lon="3.18275">
        <ele>352.94</ele>
        <time>2021-08-14T04:14:12Z</time>
      </trkpt>
      <trkpt lat="46.28134" lon="3.18253">
        <ele>353.9</ele>
        <time>2021-08-14T04:14:21Z</time>
      </trkpt>
      <trkpt lat="46.28144" lon="3.18224">
        <ele>355.34</ele>
        <time>2021-08-14T04:14:33Z</time>
      </trkpt>
      <trkpt lat="46.2815" lon="3.18205">
        <ele>356.31</ele>
        <time>2021-08-14T04:14:41Z</time>
      </trkpt>
      <trkpt lat="46.28151" lon="3.18201">
        <ele>356.31</ele>
        <time>2021-08-14T04:14:43Z</time>
      </trkpt>
      <trkpt lat="46.28152" lon="3.18198">
        <ele>356.79</ele>
        <time>2021-08-14T04:14:44Z</time>
      </trkpt>
      <trkpt lat="46.28157" lon="3.18179">
        <ele>357.27</ele>
        <time>2021-08-14T04:14:52Z</time>
      </trkpt>
      <trkpt lat="46.28164" lon="3.18163">
        <ele>358.23</ele>
        <time>2021-08-14T04:14:59Z</time>
      </trkpt>
      <trkpt lat="46.2817" lon="3.18138">
        <ele>359.19</ele>
        <time>2021-08-14T04:15:09Z</time>
      </trkpt>
      <trkpt lat="46.28175" lon="3.18117">
        <ele>360.63</ele>
        <time>2021-08-14T04:15:17Z</time>
      </trkpt>
      <trkpt lat="46.2818" lon="3.181">
        <ele>360.63</ele>
        <time>2021-08-14T04:15:24Z</time>
      </trkpt>
      <trkpt lat="46.28187" lon="3.18077">
        <ele>361.59</ele>
        <time>2021-08-14T04:15:33Z</time>
      </trkpt>
      <trkpt lat="46.28192" lon="3.18052">
        <ele>363.04</ele>
        <time>2021-08-14T04:15:42Z</time>
      </trkpt>
      <trkpt lat="46.28193" lon="3.18029">
        <ele>364</ele>
        <time>2021-08-14T04:15:50Z</time>
      </trkpt>
      <trkpt lat="46.28191" lon="3.1801">
        <ele>364.48</ele>
        <time>2021-08-14T04:15:57Z</time>
      </trkpt>
      <trkpt lat="46.28188" lon="3.17977">
        <ele>365.92</ele>
        <time>2021-08-14T04:16:08Z</time>
      </trkpt>
      <trkpt lat="46.28187" lon="3.17942">
        <ele>367.36</ele>
        <time>2021-08-14T04:16:18Z</time>
      </trkpt>
      <trkpt lat="46.28186" lon="3.17907">
        <ele>368.32</ele>
        <time>2021-08-14T04:16:28Z</time>
      </trkpt>
      <trkpt lat="46.28184" lon="3.17875">
        <ele>369.28</ele>
        <time>2021-08-14T04:16:37Z</time>
      </trkpt>
      <trkpt lat="46.28185" lon="3.17844">
        <ele>370.24</ele>
        <time>2021-08-14T04:16:46Z</time>
      </trkpt>
      <trkpt lat="46.28178" lon="3.1782">
        <ele>370.73</ele>
        <time>2021-08-14T04:16:54Z</time>
      </trkpt>
      <trkpt lat="46.28166" lon="3.17797">
        <ele>370.73</ele>
        <time>2021-08-14T04:17:01Z</time>
      </trkpt>
      <trkpt lat="46.28148" lon="3.17761">
        <ele>371.21</ele>
        <time>2021-08-14T04:17:11Z</time>
      </trkpt>
      <trkpt lat="46.28147" lon="3.17739">
        <ele>371.21</ele>
        <time>2021-08-14T04:17:17Z</time>
      </trkpt>
      <trkpt lat="46.2816" lon="3.17718">
        <ele>371.69</ele>
        <time>2021-08-14T04:17:25Z</time>
      </trkpt>
      <trkpt lat="46.28184" lon="3.17705">
        <ele>371.69</ele>
        <time>2021-08-14T04:17:34Z</time>
      </trkpt>
      <trkpt lat="46.28194" lon="3.17702">
        <ele>372.17</ele>
        <time>2021-08-14T04:17:39Z</time>
      </trkpt>
      <trkpt lat="46.28196" lon="3.17699">
        <ele>372.17</ele>
        <time>2021-08-14T04:17:40Z</time>
      </trkpt>
      <trkpt lat="46.28196" lon="3.17695">
        <ele>372.17</ele>
        <time>2021-08-14T04:17:41Z</time>
      </trkpt>
      <trkpt lat="46.2819" lon="3.17663">
        <ele>372.17</ele>
        <time>2021-08-14T04:17:48Z</time>
      </trkpt>
      <trkpt lat="46.28182" lon="3.17618">
        <ele>371.21</ele>
        <time>2021-08-14T04:17:57Z</time>
      </trkpt>
      <trkpt lat="46.28174" lon="3.17584">
        <ele>371.21</ele>
        <time>2021-08-14T04:18:05Z</time>
      </trkpt>
      <trkpt lat="46.28168" lon="3.17566">
        <ele>371.21</ele>
        <time>2021-08-14T04:18:10Z</time>
      </trkpt>
      <trkpt lat="46.28166" lon="3.17563">
        <ele>371.21</ele>
        <time>2021-08-14T04:18:11Z</time>
      </trkpt>
      <trkpt lat="46.28164" lon="3.17561">
        <ele>371.21</ele>
        <time>2021-08-14T04:18:12Z</time>
      </trkpt>
      <trkpt lat="46.28162" lon="3.17559">
        <ele>371.21</ele>
        <time>2021-08-14T04:18:13Z</time>
      </trkpt>
      <trkpt lat="46.2816" lon="3.17556">
        <ele>371.21</ele>
        <time>2021-08-14T04:18:14Z</time>
      </trkpt>
      <trkpt lat="46.28137" lon="3.17539">
        <ele>371.21</ele>
        <time>2021-08-14T04:18:22Z</time>
      </trkpt>
      <trkpt lat="46.28117" lon="3.17545">
        <ele>371.21</ele>
        <time>2021-08-14T04:18:28Z</time>
      </trkpt>
      <trkpt lat="46.28099" lon="3.17552">
        <ele>371.21</ele>
        <time>2021-08-14T04:18:33Z</time>
      </trkpt>
      <trkpt lat="46.28062" lon="3.17552">
        <ele>369.28</ele>
        <time>2021-08-14T04:18:40Z</time>
      </trkpt>
      <trkpt lat="46.28056" lon="3.17553">
        <ele>369.28</ele>
        <time>2021-08-14T04:18:41Z</time>
      </trkpt>
      <trkpt lat="46.28047" lon="3.17555">
        <ele>368.8</ele>
        <time>2021-08-14T04:18:43Z</time>
      </trkpt>
      <trkpt lat="46.28027" lon="3.17554">
        <ele>366.88</ele>
        <time>2021-08-14T04:18:47Z</time>
      </trkpt>
      <trkpt lat="46.27991" lon="3.17552">
        <ele>363.52</ele>
        <time>2021-08-14T04:18:53Z</time>
      </trkpt>
      <trkpt lat="46.27957" lon="3.17548">
        <ele>360.63</ele>
        <time>2021-08-14T04:18:57Z</time>
      </trkpt>
      <trkpt lat="46.27908" lon="3.1754">
        <ele>356.79</ele>
        <time>2021-08-14T04:19:02Z</time>
      </trkpt>
      <trkpt lat="46.27847" lon="3.17529">
        <ele>353.42</ele>
        <time>2021-08-14T04:19:08Z</time>
      </trkpt>
      <trkpt lat="46.27807" lon="3.1752">
        <ele>351.98</ele>
        <time>2021-08-14T04:19:13Z</time>
      </trkpt>
      <trkpt lat="46.27794" lon="3.17517">
        <ele>351.02</ele>
        <time>2021-08-14T04:19:15Z</time>
      </trkpt>
      <trkpt lat="46.27752" lon="3.17511">
        <ele>347.65</ele>
        <time>2021-08-14T04:19:21Z</time>
      </trkpt>
      <trkpt lat="46.2772" lon="3.17507">
        <ele>343.81</ele>
        <time>2021-08-14T04:19:25Z</time>
      </trkpt>
      <trkpt lat="46.27704" lon="3.17508">
        <ele>341.89</ele>
        <time>2021-08-14T04:19:27Z</time>
      </trkpt>
      <trkpt lat="46.27681" lon="3.17512">
        <ele>339.96</ele>
        <time>2021-08-14T04:19:30Z</time>
      </trkpt>
      <trkpt lat="46.27673" lon="3.17515">
        <ele>339.48</ele>
        <time>2021-08-14T04:19:31Z</time>
      </trkpt>
      <trkpt lat="46.27664" lon="3.17519">
        <ele>339</ele>
        <time>2021-08-14T04:19:32Z</time>
      </trkpt>
      <trkpt lat="46.27657" lon="3.17525">
        <ele>339</ele>
        <time>2021-08-14T04:19:33Z</time>
      </trkpt>
      <trkpt lat="46.27649" lon="3.17532">
        <ele>338.04</ele>
        <time>2021-08-14T04:19:34Z</time>
      </trkpt>
      <trkpt lat="46.27607" lon="3.17569">
        <ele>336.6</ele>
        <time>2021-08-14T04:19:40Z</time>
      </trkpt>
      <trkpt lat="46.27601" lon="3.17574">
        <ele>336.6</ele>
        <time>2021-08-14T04:19:41Z</time>
      </trkpt>
      <trkpt lat="46.27598" lon="3.17579">
        <ele>336.6</ele>
        <time>2021-08-14T04:19:42Z</time>
      </trkpt>
      <trkpt lat="46.27595" lon="3.17585">
        <ele>336.6</ele>
        <time>2021-08-14T04:19:43Z</time>
      </trkpt>
      <trkpt lat="46.27594" lon="3.17593">
        <ele>335.64</ele>
        <time>2021-08-14T04:19:44Z</time>
      </trkpt>
      <trkpt lat="46.27594" lon="3.17601">
        <ele>335.64</ele>
        <time>2021-08-14T04:19:45Z</time>
      </trkpt>
      <trkpt lat="46.27594" lon="3.17607">
        <ele>335.64</ele>
        <time>2021-08-14T04:19:46Z</time>
      </trkpt>
      <trkpt lat="46.27595" lon="3.17615">
        <ele>335.16</ele>
        <time>2021-08-14T04:19:47Z</time>
      </trkpt>
      <trkpt lat="46.27597" lon="3.17624">
        <ele>335.16</ele>
        <time>2021-08-14T04:19:48Z</time>
      </trkpt>
      <trkpt lat="46.27607" lon="3.1769">
        <ele>334.2</ele>
        <time>2021-08-14T04:19:56Z</time>
      </trkpt>
      <trkpt lat="46.27613" lon="3.17763">
        <ele>333.23</ele>
        <time>2021-08-14T04:20:05Z</time>
      </trkpt>
      <trkpt lat="46.27616" lon="3.17792">
        <ele>333.23</ele>
        <time>2021-08-14T04:20:09Z</time>
      </trkpt>
      <trkpt lat="46.27614" lon="3.17798">
        <ele>333.23</ele>
        <time>2021-08-14T04:20:10Z</time>
      </trkpt>
      <trkpt lat="46.27611" lon="3.17801">
        <ele>333.23</ele>
        <time>2021-08-14T04:20:11Z</time>
      </trkpt>
      <trkpt lat="46.27607" lon="3.17803">
        <ele>333.23</ele>
        <time>2021-08-14T04:20:12Z</time>
      </trkpt>
      <trkpt lat="46.27603" lon="3.17803">
        <ele>333.23</ele>
        <time>2021-08-14T04:20:13Z</time>
      </trkpt>
      <trkpt lat="46.27598" lon="3.17803">
        <ele>332.27</ele>
        <time>2021-08-14T04:20:14Z</time>
      </trkpt>
      <trkpt lat="46.27559" lon="3.17803">
        <ele>329.87</ele>
        <time>2021-08-14T04:20:20Z</time>
      </trkpt>
      <trkpt lat="46.27512" lon="3.17803">
        <ele>326.5</ele>
        <time>2021-08-14T04:20:26Z</time>
      </trkpt>
      <trkpt lat="46.2746" lon="3.17803">
        <ele>323.62</ele>
        <time>2021-08-14T04:20:32Z</time>
      </trkpt>
      <trkpt lat="46.27385" lon="3.17803">
        <ele>319.78</ele>
        <time>2021-08-14T04:20:40Z</time>
      </trkpt>
      <trkpt lat="46.27315" lon="3.17803">
        <ele>316.41</ele>
        <time>2021-08-14T04:20:47Z</time>
      </trkpt>
      <trkpt lat="46.27244" lon="3.17803">
        <ele>313.53</ele>
        <time>2021-08-14T04:20:54Z</time>
      </trkpt>
      <trkpt lat="46.27179" lon="3.17802">
        <ele>309.68</ele>
        <time>2021-08-14T04:21:00Z</time>
      </trkpt>
      <trkpt lat="46.27073" lon="3.17802">
        <ele>307.76</ele>
        <time>2021-08-14T04:21:10Z</time>
      </trkpt>
      <trkpt lat="46.27064" lon="3.17801">
        <ele>307.28</ele>
        <time>2021-08-14T04:21:11Z</time>
      </trkpt>
      <trkpt lat="46.27054" lon="3.17797">
        <ele>307.28</ele>
        <time>2021-08-14T04:21:12Z</time>
      </trkpt>
      <trkpt lat="46.27046" lon="3.17792">
        <ele>306.32</ele>
        <time>2021-08-14T04:21:13Z</time>
      </trkpt>
      <trkpt lat="46.27038" lon="3.17784">
        <ele>305.36</ele>
        <time>2021-08-14T04:21:14Z</time>
      </trkpt>
      <trkpt lat="46.2703" lon="3.17772">
        <ele>304.39</ele>
        <time>2021-08-14T04:21:15Z</time>
      </trkpt>
      <trkpt lat="46.27024" lon="3.17761">
        <ele>303.43</ele>
        <time>2021-08-14T04:21:16Z</time>
      </trkpt>
      <trkpt lat="46.27018" lon="3.17747">
        <ele>302.47</ele>
        <time>2021-08-14T04:21:17Z</time>
      </trkpt>
      <trkpt lat="46.27012" lon="3.17735">
        <ele>301.51</ele>
        <time>2021-08-14T04:21:18Z</time>
      </trkpt>
      <trkpt lat="46.26987" lon="3.17683">
        <ele>298.15</ele>
        <time>2021-08-14T04:21:22Z</time>
      </trkpt>
      <trkpt lat="46.26968" lon="3.17647">
        <ele>296.7</ele>
        <time>2021-08-14T04:21:25Z</time>
      </trkpt>
      <trkpt lat="46.26963" lon="3.17635">
        <ele>295.74</ele>
        <time>2021-08-14T04:21:26Z</time>
      </trkpt>
      <trkpt lat="46.26959" lon="3.17623">
        <ele>295.26</ele>
        <time>2021-08-14T04:21:27Z</time>
      </trkpt>
      <trkpt lat="46.26958" lon="3.1761">
        <ele>294.3</ele>
        <time>2021-08-14T04:21:28Z</time>
      </trkpt>
      <trkpt lat="46.26959" lon="3.17598">
        <ele>293.82</ele>
        <time>2021-08-14T04:21:29Z</time>
      </trkpt>
      <trkpt lat="46.26961" lon="3.17586">
        <ele>293.82</ele>
        <time>2021-08-14T04:21:30Z</time>
      </trkpt>
      <trkpt lat="46.26963" lon="3.17574">
        <ele>292.86</ele>
        <time>2021-08-14T04:21:31Z</time>
      </trkpt>
      <trkpt lat="46.26964" lon="3.17562">
        <ele>292.38</ele>
        <time>2021-08-14T04:21:32Z</time>
      </trkpt>
      <trkpt lat="46.26963" lon="3.1755">
        <ele>291.9</ele>
        <time>2021-08-14T04:21:33Z</time>
      </trkpt>
      <trkpt lat="46.26962" lon="3.17537">
        <ele>291.9</ele>
        <time>2021-08-14T04:21:34Z</time>
      </trkpt>
      <trkpt lat="46.2696" lon="3.17526">
        <ele>290.94</ele>
        <time>2021-08-14T04:21:35Z</time>
      </trkpt>
      <trkpt lat="46.26957" lon="3.17514">
        <ele>290.94</ele>
        <time>2021-08-14T04:21:36Z</time>
      </trkpt>
      <trkpt lat="46.26944" lon="3.17462">
        <ele>291.42</ele>
        <time>2021-08-14T04:21:41Z</time>
      </trkpt>
      <trkpt lat="46.26935" lon="3.17426">
        <ele>292.86</ele>
        <time>2021-08-14T04:21:45Z</time>
      </trkpt>
      <trkpt lat="46.2692" lon="3.17386">
        <ele>294.78</ele>
        <time>2021-08-14T04:21:51Z</time>
      </trkpt>
      <trkpt lat="46.26906" lon="3.17375">
        <ele>295.74</ele>
        <time>2021-08-14T04:21:56Z</time>
      </trkpt>
      <trkpt lat="46.26899" lon="3.17375">
        <ele>296.7</ele>
        <time>2021-08-14T04:22:00Z</time>
      </trkpt>
      <trkpt lat="46.2689" lon="3.17382">
        <ele>298.15</ele>
        <time>2021-08-14T04:22:05Z</time>
      </trkpt>
      <trkpt lat="46.26889" lon="3.17384">
        <ele>298.15</ele>
        <time>2021-08-14T04:22:06Z</time>
      </trkpt>
      <trkpt lat="46.26888" lon="3.17386">
        <ele>298.15</ele>
        <time>2021-08-14T04:22:07Z</time>
      </trkpt>
      <trkpt lat="46.26887" lon="3.17388">
        <ele>298.15</ele>
        <time>2021-08-14T04:22:08Z</time>
      </trkpt>
      <trkpt lat="46.26886" lon="3.1739">
        <ele>298.63</ele>
        <time>2021-08-14T04:22:09Z</time>
      </trkpt>
      <trkpt lat="46.26876" lon="3.17406">
        <ele>300.07</ele>
        <time>2021-08-14T04:22:17Z</time>
      </trkpt>
      <trkpt lat="46.26871" lon="3.17414">
        <ele>300.55</ele>
        <time>2021-08-14T04:22:21Z</time>
      </trkpt>
      <trkpt lat="46.2687" lon="3.17416">
        <ele>300.55</ele>
        <time>2021-08-14T04:22:22Z</time>
      </trkpt>
      <trkpt lat="46.26858" lon="3.17431">
        <ele>301.51</ele>
        <time>2021-08-14T04:22:31Z</time>
      </trkpt>
      <trkpt lat="46.26848" lon="3.17445">
        <ele>302.95</ele>
        <time>2021-08-14T04:22:39Z</time>
      </trkpt>
      <trkpt lat="46.26838" lon="3.17459">
        <ele>303.43</ele>
        <time>2021-08-14T04:22:47Z</time>
      </trkpt>
      <trkpt lat="46.26824" lon="3.17478">
        <ele>304.88</ele>
        <time>2021-08-14T04:22:57Z</time>
      </trkpt>
      <trkpt lat="46.26808" lon="3.17499">
        <ele>305.84</ele>
        <time>2021-08-14T04:23:08Z</time>
      </trkpt>
      <trkpt lat="46.26794" lon="3.17515">
        <ele>306.8</ele>
        <time>2021-08-14T04:23:17Z</time>
      </trkpt>
      <trkpt lat="46.26778" lon="3.17534">
        <ele>307.76</ele>
        <time>2021-08-14T04:23:26Z</time>
      </trkpt>
      <trkpt lat="46.26756" lon="3.17553">
        <ele>308.72</ele>
        <time>2021-08-14T04:23:37Z</time>
      </trkpt>
      <trkpt lat="46.26754" lon="3.17554">
        <ele>308.72</ele>
        <time>2021-08-14T04:23:38Z</time>
      </trkpt>
      <trkpt lat="46.26752" lon="3.17554">
        <ele>308.72</ele>
        <time>2021-08-14T04:23:39Z</time>
      </trkpt>
      <trkpt lat="46.2675" lon="3.17554">
        <ele>308.72</ele>
        <time>2021-08-14T04:23:40Z</time>
      </trkpt>
      <trkpt lat="46.26748" lon="3.17552">
        <ele>309.68</ele>
        <time>2021-08-14T04:23:41Z</time>
      </trkpt>
      <trkpt lat="46.26747" lon="3.17548">
        <ele>309.2</ele>
        <time>2021-08-14T04:23:42Z</time>
      </trkpt>
      <trkpt lat="46.26746" lon="3.17546">
        <ele>309.68</ele>
        <time>2021-08-14T04:23:43Z</time>
      </trkpt>
      <trkpt lat="46.26738" lon="3.17521">
        <ele>310.64</ele>
        <time>2021-08-14T04:23:52Z</time>
      </trkpt>
      <trkpt lat="46.26728" lon="3.17491">
        <ele>311.6</ele>
        <time>2021-08-14T04:24:03Z</time>
      </trkpt>
      <trkpt lat="46.26717" lon="3.17461">
        <ele>313.05</ele>
        <time>2021-08-14T04:24:14Z</time>
      </trkpt>
      <trkpt lat="46.26705" lon="3.17426">
        <ele>314.49</ele>
        <time>2021-08-14T04:24:27Z</time>
      </trkpt>
      <trkpt lat="46.26695" lon="3.17397">
        <ele>315.93</ele>
        <time>2021-08-14T04:24:38Z</time>
      </trkpt>
      <trkpt lat="46.26687" lon="3.17376">
        <ele>316.41</ele>
        <time>2021-08-14T04:24:46Z</time>
      </trkpt>
      <trkpt lat="46.26683" lon="3.17366">
        <ele>316.89</ele>
        <time>2021-08-14T04:24:50Z</time>
      </trkpt>
      <trkpt lat="46.26681" lon="3.17365">
        <ele>316.89</ele>
        <time>2021-08-14T04:24:51Z</time>
      </trkpt>
      <trkpt lat="46.2668" lon="3.17362">
        <ele>316.89</ele>
        <time>2021-08-14T04:24:52Z</time>
      </trkpt>
      <trkpt lat="46.26669" lon="3.17342">
        <ele>317.85</ele>
        <time>2021-08-14T04:25:01Z</time>
      </trkpt>
      <trkpt lat="46.26664" lon="3.17333">
        <ele>318.33</ele>
        <time>2021-08-14T04:25:05Z</time>
      </trkpt>
      <trkpt lat="46.26663" lon="3.17331">
        <ele>318.33</ele>
        <time>2021-08-14T04:25:06Z</time>
      </trkpt>
      <trkpt lat="46.26662" lon="3.17328">
        <ele>318.33</ele>
        <time>2021-08-14T04:25:07Z</time>
      </trkpt>
      <trkpt lat="46.26661" lon="3.17326">
        <ele>318.33</ele>
        <time>2021-08-14T04:25:08Z</time>
      </trkpt>
      <trkpt lat="46.2666" lon="3.17324">
        <ele>318.33</ele>
        <time>2021-08-14T04:25:09Z</time>
      </trkpt>
      <trkpt lat="46.26659" lon="3.17322">
        <ele>318.33</ele>
        <time>2021-08-14T04:25:10Z</time>
      </trkpt>
      <trkpt lat="46.26658" lon="3.1732">
        <ele>318.33</ele>
        <time>2021-08-14T04:25:11Z</time>
      </trkpt>
      <trkpt lat="46.26657" lon="3.17318">
        <ele>318.33</ele>
        <time>2021-08-14T04:25:12Z</time>
      </trkpt>
      <trkpt lat="46.26656" lon="3.17316">
        <ele>318.33</ele>
        <time>2021-08-14T04:25:13Z</time>
      </trkpt>
      <trkpt lat="46.26643" lon="3.17296">
        <ele>318.33</ele>
        <time>2021-08-14T04:25:21Z</time>
      </trkpt>
      <trkpt lat="46.26626" lon="3.17291">
        <ele>318.33</ele>
        <time>2021-08-14T04:25:29Z</time>
      </trkpt>
      <trkpt lat="46.26601" lon="3.17289">
        <ele>318.81</ele>
        <time>2021-08-14T04:25:40Z</time>
      </trkpt>
      <trkpt lat="46.26575" lon="3.17287">
        <ele>319.78</ele>
        <time>2021-08-14T04:25:51Z</time>
      </trkpt>
      <trkpt lat="46.26552" lon="3.17282">
        <ele>320.26</ele>
        <time>2021-08-14T04:26:01Z</time>
      </trkpt>
      <trkpt lat="46.26522" lon="3.17275">
        <ele>320.74</ele>
        <time>2021-08-14T04:26:12Z</time>
      </trkpt>
      <trkpt lat="46.26496" lon="3.17268">
        <ele>321.22</ele>
        <time>2021-08-14T04:26:21Z</time>
      </trkpt>
      <trkpt lat="46.26465" lon="3.17261">
        <ele>319.3</ele>
        <time>2021-08-14T04:26:28Z</time>
      </trkpt>
      <trkpt lat="46.26416" lon="3.17248">
        <ele>318.33</ele>
        <time>2021-08-14T04:26:38Z</time>
      </trkpt>
      <trkpt lat="46.26359" lon="3.17233">
        <ele>316.89</ele>
        <time>2021-08-14T04:26:49Z</time>
      </trkpt>
      <trkpt lat="46.26321" lon="3.17221">
        <ele>316.41</ele>
        <time>2021-08-14T04:26:57Z</time>
      </trkpt>
      <trkpt lat="46.2627" lon="3.17193">
        <ele>315.93</ele>
        <time>2021-08-14T04:27:08Z</time>
      </trkpt>
      <trkpt lat="46.26213" lon="3.17162">
        <ele>314.97</ele>
        <time>2021-08-14T04:27:20Z</time>
      </trkpt>
      <trkpt lat="46.26208" lon="3.17158">
        <ele>314.97</ele>
        <time>2021-08-14T04:27:21Z</time>
      </trkpt>
      <trkpt lat="46.26204" lon="3.17154">
        <ele>314.97</ele>
        <time>2021-08-14T04:27:22Z</time>
      </trkpt>
      <trkpt lat="46.26173" lon="3.1712">
        <ele>314.49</ele>
        <time>2021-08-14T04:27:30Z</time>
      </trkpt>
      <trkpt lat="46.26138" lon="3.17084">
        <ele>314.01</ele>
        <time>2021-08-14T04:27:40Z</time>
      </trkpt>
      <trkpt lat="46.26093" lon="3.17039">
        <ele>313.53</ele>
        <time>2021-08-14T04:27:52Z</time>
      </trkpt>
      <trkpt lat="46.26078" lon="3.17026">
        <ele>313.53</ele>
        <time>2021-08-14T04:27:56Z</time>
      </trkpt>
      <trkpt lat="46.2604" lon="3.17004">
        <ele>313.05</ele>
        <time>2021-08-14T04:28:06Z</time>
      </trkpt>
      <trkpt lat="46.26028" lon="3.16996">
        <ele>313.05</ele>
        <time>2021-08-14T04:28:09Z</time>
      </trkpt>
      <trkpt lat="46.26024" lon="3.16994">
        <ele>313.05</ele>
        <time>2021-08-14T04:28:10Z</time>
      </trkpt>
      <trkpt lat="46.26021" lon="3.16991">
        <ele>312.57</ele>
        <time>2021-08-14T04:28:11Z</time>
      </trkpt>
      <trkpt lat="46.26018" lon="3.16988">
        <ele>312.57</ele>
        <time>2021-08-14T04:28:12Z</time>
      </trkpt>
      <trkpt lat="46.26015" lon="3.16985">
        <ele>312.57</ele>
        <time>2021-08-14T04:28:13Z</time>
      </trkpt>
      <trkpt lat="46.26011" lon="3.16981">
        <ele>312.57</ele>
        <time>2021-08-14T04:28:14Z</time>
      </trkpt>
      <trkpt lat="46.25991" lon="3.16964">
        <ele>311.12</ele>
        <time>2021-08-14T04:28:21Z</time>
      </trkpt>
      <trkpt lat="46.2599" lon="3.16963">
        <ele>311.12</ele>
        <time>2021-08-14T04:28:22Z</time>
      </trkpt>
      <trkpt lat="46.25988" lon="3.16959">
        <ele>311.12</ele>
        <time>2021-08-14T04:28:28Z</time>
      </trkpt>
      <trkpt lat="46.25987" lon="3.16954">
        <ele>311.12</ele>
        <time>2021-08-14T04:28:34Z</time>
      </trkpt>
      <trkpt lat="46.25986" lon="3.16953">
        <ele>311.12</ele>
        <time>2021-08-14T04:28:35Z</time>
      </trkpt>
      <trkpt lat="46.25985" lon="3.16952">
        <ele>311.12</ele>
        <time>2021-08-14T04:28:36Z</time>
      </trkpt>
      <trkpt lat="46.25984" lon="3.16951">
        <ele>311.12</ele>
        <time>2021-08-14T04:28:37Z</time>
      </trkpt>
      <trkpt lat="46.25983" lon="3.1695">
        <ele>311.12</ele>
        <time>2021-08-14T04:28:38Z</time>
      </trkpt>
      <trkpt lat="46.25972" lon="3.16939">
        <ele>311.12</ele>
        <time>2021-08-14T04:28:46Z</time>
      </trkpt>
      <trkpt lat="46.25965" lon="3.16934">
        <ele>311.12</ele>
        <time>2021-08-14T04:28:52Z</time>
      </trkpt>
      <trkpt lat="46.25963" lon="3.16932">
        <ele>311.12</ele>
        <time>2021-08-14T04:28:53Z</time>
      </trkpt>
      <trkpt lat="46.25961" lon="3.16931">
        <ele>311.12</ele>
        <time>2021-08-14T04:28:54Z</time>
      </trkpt>
      <trkpt lat="46.25956" lon="3.16928">
        <ele>312.57</ele>
        <time>2021-08-14T04:28:57Z</time>
      </trkpt>
      <trkpt lat="46.2595" lon="3.16924">
        <ele>313.53</ele>
        <time>2021-08-14T04:29:00Z</time>
      </trkpt>
      <trkpt lat="46.25948" lon="3.16923">
        <ele>313.53</ele>
        <time>2021-08-14T04:29:01Z</time>
      </trkpt>
      <trkpt lat="46.25947" lon="3.16921">
        <ele>313.53</ele>
        <time>2021-08-14T04:29:02Z</time>
      </trkpt>
      <trkpt lat="46.25945" lon="3.1692">
        <ele>313.53</ele>
        <time>2021-08-14T04:29:03Z</time>
      </trkpt>
      <trkpt lat="46.25943" lon="3.16919">
        <ele>314.01</ele>
        <time>2021-08-14T04:29:04Z</time>
      </trkpt>
      <trkpt lat="46.25942" lon="3.16917">
        <ele>314.01</ele>
        <time>2021-08-14T04:29:05Z</time>
      </trkpt>
      <trkpt lat="46.25929" lon="3.16908">
        <ele>314.97</ele>
        <time>2021-08-14T04:29:14Z</time>
      </trkpt>
      <trkpt lat="46.2592" lon="3.16901">
        <ele>315.93</ele>
        <time>2021-08-14T04:29:20Z</time>
      </trkpt>
      <trkpt lat="46.25919" lon="3.16899">
        <ele>315.93</ele>
        <time>2021-08-14T04:29:21Z</time>
      </trkpt>
      <trkpt lat="46.25917" lon="3.16898">
        <ele>315.93</ele>
        <time>2021-08-14T04:29:22Z</time>
      </trkpt>
      <trkpt lat="46.25916" lon="3.16897">
        <ele>315.93</ele>
        <time>2021-08-14T04:29:23Z</time>
      </trkpt>
      <trkpt lat="46.25914" lon="3.16896">
        <ele>315.93</ele>
        <time>2021-08-14T04:29:24Z</time>
      </trkpt>
      <trkpt lat="46.25901" lon="3.16884">
        <ele>315.93</ele>
        <time>2021-08-14T04:29:32Z</time>
      </trkpt>
      <trkpt lat="46.259" lon="3.16883">
        <ele>315.93</ele>
        <time>2021-08-14T04:29:33Z</time>
      </trkpt>
      <trkpt lat="46.25899" lon="3.16882">
        <ele>315.93</ele>
        <time>2021-08-14T04:29:34Z</time>
      </trkpt>
      <trkpt lat="46.25884" lon="3.1687">
        <ele>316.41</ele>
        <time>2021-08-14T04:29:42Z</time>
      </trkpt>
      <trkpt lat="46.25871" lon="3.16859">
        <ele>316.89</ele>
        <time>2021-08-14T04:29:50Z</time>
      </trkpt>
      <trkpt lat="46.25859" lon="3.16848">
        <ele>316.89</ele>
        <time>2021-08-14T04:29:57Z</time>
      </trkpt>
      <trkpt lat="46.25855" lon="3.16845">
        <ele>316.89</ele>
        <time>2021-08-14T04:29:59Z</time>
      </trkpt>
      <trkpt lat="46.25854" lon="3.16843">
        <ele>317.37</ele>
        <time>2021-08-14T04:30:00Z</time>
      </trkpt>
      <trkpt lat="46.25852" lon="3.16842">
        <ele>317.37</ele>
        <time>2021-08-14T04:30:01Z</time>
      </trkpt>
      <trkpt lat="46.25851" lon="3.16841">
        <ele>317.37</ele>
        <time>2021-08-14T04:30:02Z</time>
      </trkpt>
      <trkpt lat="46.2585" lon="3.1684">
        <ele>317.37</ele>
        <time>2021-08-14T04:30:03Z</time>
      </trkpt>
      <trkpt lat="46.25834" lon="3.16828">
        <ele>317.85</ele>
        <time>2021-08-14T04:30:11Z</time>
      </trkpt>
      <trkpt lat="46.2582" lon="3.16819">
        <ele>317.85</ele>
        <time>2021-08-14T04:30:18Z</time>
      </trkpt>
      <trkpt lat="46.25812" lon="3.16815">
        <ele>318.33</ele>
        <time>2021-08-14T04:30:22Z</time>
      </trkpt>
      <trkpt lat="46.2581" lon="3.16814">
        <ele>318.33</ele>
        <time>2021-08-14T04:30:23Z</time>
      </trkpt>
      <trkpt lat="46.25809" lon="3.16813">
        <ele>318.33</ele>
        <time>2021-08-14T04:30:24Z</time>
      </trkpt>
      <trkpt lat="46.25793" lon="3.16802">
        <ele>318.33</ele>
        <time>2021-08-14T04:30:32Z</time>
      </trkpt>
      <trkpt lat="46.25776" lon="3.16791">
        <ele>318.81</ele>
        <time>2021-08-14T04:30:41Z</time>
      </trkpt>
      <trkpt lat="46.25759" lon="3.1678">
        <ele>319.3</ele>
        <time>2021-08-14T04:30:49Z</time>
      </trkpt>
      <trkpt lat="46.25742" lon="3.16769">
        <ele>319.78</ele>
        <time>2021-08-14T04:30:56Z</time>
      </trkpt>
      <trkpt lat="46.25722" lon="3.16759">
        <ele>320.26</ele>
        <time>2021-08-14T04:31:03Z</time>
      </trkpt>
      <trkpt lat="46.25702" lon="3.16747">
        <ele>320.26</ele>
        <time>2021-08-14T04:31:10Z</time>
      </trkpt>
      <trkpt lat="46.25691" lon="3.16742">
        <ele>320.74</ele>
        <time>2021-08-14T04:31:15Z</time>
      </trkpt>
      <trkpt lat="46.25689" lon="3.1674">
        <ele>321.22</ele>
        <time>2021-08-14T04:31:16Z</time>
      </trkpt>
      <trkpt lat="46.25687" lon="3.16738">
        <ele>321.22</ele>
        <time>2021-08-14T04:31:17Z</time>
      </trkpt>
      <trkpt lat="46.25673" lon="3.1673">
        <ele>321.7</ele>
        <time>2021-08-14T04:31:24Z</time>
      </trkpt>
      <trkpt lat="46.25659" lon="3.16719">
        <ele>322.18</ele>
        <time>2021-08-14T04:31:31Z</time>
      </trkpt>
      <trkpt lat="46.25647" lon="3.16707">
        <ele>322.66</ele>
        <time>2021-08-14T04:31:38Z</time>
      </trkpt>
      <trkpt lat="46.25627" lon="3.16688">
        <ele>323.62</ele>
        <time>2021-08-14T04:31:47Z</time>
      </trkpt>
      <trkpt lat="46.25603" lon="3.16665">
        <ele>323.62</ele>
        <time>2021-08-14T04:31:57Z</time>
      </trkpt>
      <trkpt lat="46.25584" lon="3.16646">
        <ele>323.62</ele>
        <time>2021-08-14T04:32:05Z</time>
      </trkpt>
      <trkpt lat="46.25563" lon="3.16625">
        <ele>324.1</ele>
        <time>2021-08-14T04:32:14Z</time>
      </trkpt>
      <trkpt lat="46.25537" lon="3.16602">
        <ele>324.1</ele>
        <time>2021-08-14T04:32:24Z</time>
      </trkpt>
      <trkpt lat="46.25521" lon="3.16586">
        <ele>324.1</ele>
        <time>2021-08-14T04:32:31Z</time>
      </trkpt>
      <trkpt lat="46.25501" lon="3.16568">
        <ele>324.1</ele>
        <time>2021-08-14T04:32:40Z</time>
      </trkpt>
      <trkpt lat="46.25494" lon="3.16556">
        <ele>324.1</ele>
        <time>2021-08-14T04:32:45Z</time>
      </trkpt>
      <trkpt lat="46.25479" lon="3.16537">
        <ele>324.1</ele>
        <time>2021-08-14T04:32:54Z</time>
      </trkpt>
      <trkpt lat="46.25459" lon="3.16519">
        <ele>324.1</ele>
        <time>2021-08-14T04:33:03Z</time>
      </trkpt>
      <trkpt lat="46.2544" lon="3.16498">
        <ele>324.58</ele>
        <time>2021-08-14T04:33:11Z</time>
      </trkpt>
      <trkpt lat="46.2543" lon="3.16482">
        <ele>325.06</ele>
        <time>2021-08-14T04:33:17Z</time>
      </trkpt>
      <trkpt lat="46.25418" lon="3.16454">
        <ele>325.54</ele>
        <time>2021-08-14T04:33:26Z</time>
      </trkpt>
      <trkpt lat="46.2541" lon="3.16432">
        <ele>326.02</ele>
        <time>2021-08-14T04:33:33Z</time>
      </trkpt>
      <trkpt lat="46.25403" lon="3.16406">
        <ele>326.5</ele>
        <time>2021-08-14T04:33:41Z</time>
      </trkpt>
      <trkpt lat="46.25395" lon="3.16388">
        <ele>326.5</ele>
        <time>2021-08-14T04:33:46Z</time>
      </trkpt>
      <trkpt lat="46.25385" lon="3.16356">
        <ele>327.95</ele>
        <time>2021-08-14T04:33:55Z</time>
      </trkpt>
      <trkpt lat="46.2537" lon="3.1632">
        <ele>328.43</ele>
        <time>2021-08-14T04:34:05Z</time>
      </trkpt>
      <trkpt lat="46.25354" lon="3.16286">
        <ele>328.91</ele>
        <time>2021-08-14T04:34:15Z</time>
      </trkpt>
      <trkpt lat="46.25334" lon="3.16235">
        <ele>329.87</ele>
        <time>2021-08-14T04:34:28Z</time>
      </trkpt>
      <trkpt lat="46.25316" lon="3.16196">
        <ele>329.87</ele>
        <time>2021-08-14T04:34:38Z</time>
      </trkpt>
      <trkpt lat="46.253" lon="3.16164">
        <ele>330.35</ele>
        <time>2021-08-14T04:34:47Z</time>
      </trkpt>
      <trkpt lat="46.25278" lon="3.16122">
        <ele>329.87</ele>
        <time>2021-08-14T04:34:58Z</time>
      </trkpt>
      <trkpt lat="46.25253" lon="3.16076">
        <ele>330.35</ele>
        <time>2021-08-14T04:35:09Z</time>
      </trkpt>
      <trkpt lat="46.25226" lon="3.16033">
        <ele>330.35</ele>
        <time>2021-08-14T04:35:19Z</time>
      </trkpt>
      <trkpt lat="46.25196" lon="3.15994">
        <ele>330.35</ele>
        <time>2021-08-14T04:35:29Z</time>
      </trkpt>
      <trkpt lat="46.25193" lon="3.1599">
        <ele>330.35</ele>
        <time>2021-08-14T04:35:30Z</time>
      </trkpt>
      <trkpt lat="46.25165" lon="3.15963">
        <ele>327.47</ele>
        <time>2021-08-14T04:35:36Z</time>
      </trkpt>
      <trkpt lat="46.25153" lon="3.15953">
        <ele>326.5</ele>
        <time>2021-08-14T04:35:38Z</time>
      </trkpt>
      <trkpt lat="46.25134" lon="3.15934">
        <ele>325.06</ele>
        <time>2021-08-14T04:35:41Z</time>
      </trkpt>
      <trkpt lat="46.25094" lon="3.15893">
        <ele>321.7</ele>
        <time>2021-08-14T04:35:47Z</time>
      </trkpt>
      <trkpt lat="46.25058" lon="3.15846">
        <ele>321.22</ele>
        <time>2021-08-14T04:35:53Z</time>
      </trkpt>
      <trkpt lat="46.25037" lon="3.15819">
        <ele>321.22</ele>
        <time>2021-08-14T04:35:57Z</time>
      </trkpt>
      <trkpt lat="46.25032" lon="3.15815">
        <ele>321.22</ele>
        <time>2021-08-14T04:35:58Z</time>
      </trkpt>
      <trkpt lat="46.25027" lon="3.15812">
        <ele>321.22</ele>
        <time>2021-08-14T04:35:59Z</time>
      </trkpt>
      <trkpt lat="46.25022" lon="3.15811">
        <ele>321.22</ele>
        <time>2021-08-14T04:36:00Z</time>
      </trkpt>
      <trkpt lat="46.25017" lon="3.1581">
        <ele>321.22</ele>
        <time>2021-08-14T04:36:01Z</time>
      </trkpt>
      <trkpt lat="46.25013" lon="3.1581">
        <ele>321.22</ele>
        <time>2021-08-14T04:36:02Z</time>
      </trkpt>
      <trkpt lat="46.2501" lon="3.1581">
        <ele>322.66</ele>
        <time>2021-08-14T04:36:03Z</time>
      </trkpt>
      <trkpt lat="46.25007" lon="3.15811">
        <ele>323.14</ele>
        <time>2021-08-14T04:36:04Z</time>
      </trkpt>
      <trkpt lat="46.25004" lon="3.15811">
        <ele>323.14</ele>
        <time>2021-08-14T04:36:05Z</time>
      </trkpt>
      <trkpt lat="46.25001" lon="3.15811">
        <ele>324.1</ele>
        <time>2021-08-14T04:36:06Z</time>
      </trkpt>
      <trkpt lat="46.24999" lon="3.15811">
        <ele>324.1</ele>
        <time>2021-08-14T04:36:07Z</time>
      </trkpt>
      <trkpt lat="46.24997" lon="3.15811">
        <ele>324.58</ele>
        <time>2021-08-14T04:36:08Z</time>
      </trkpt>
      <trkpt lat="46.24995" lon="3.1581">
        <ele>324.58</ele>
        <time>2021-08-14T04:36:09Z</time>
      </trkpt>
      <trkpt lat="46.24993" lon="3.15809">
        <ele>325.06</ele>
        <time>2021-08-14T04:36:10Z</time>
      </trkpt>
      <trkpt lat="46.24976" lon="3.158">
        <ele>326.99</ele>
        <time>2021-08-14T04:36:18Z</time>
      </trkpt>
      <trkpt lat="46.24968" lon="3.15792">
        <ele>327.95</ele>
        <time>2021-08-14T04:36:23Z</time>
      </trkpt>
      <trkpt lat="46.24966" lon="3.15791">
        <ele>327.95</ele>
        <time>2021-08-14T04:36:24Z</time>
      </trkpt>
      <trkpt lat="46.24964" lon="3.15789">
        <ele>327.95</ele>
        <time>2021-08-14T04:36:25Z</time>
      </trkpt>
      <trkpt lat="46.24944" lon="3.15773">
        <ele>328.43</ele>
        <time>2021-08-14T04:36:35Z</time>
      </trkpt>
      <trkpt lat="46.24927" lon="3.1576">
        <ele>328.91</ele>
        <time>2021-08-14T04:36:43Z</time>
      </trkpt>
      <trkpt lat="46.24909" lon="3.15743">
        <ele>329.87</ele>
        <time>2021-08-14T04:36:51Z</time>
      </trkpt>
      <trkpt lat="46.24886" lon="3.15724">
        <ele>330.35</ele>
        <time>2021-08-14T04:37:00Z</time>
      </trkpt>
      <trkpt lat="46.24856" lon="3.15694">
        <ele>330.83</ele>
        <time>2021-08-14T04:37:11Z</time>
      </trkpt>
      <trkpt lat="46.24831" lon="3.15667">
        <ele>330.83</ele>
        <time>2021-08-14T04:37:20Z</time>
      </trkpt>
      <trkpt lat="46.24801" lon="3.15634">
        <ele>330.83</ele>
        <time>2021-08-14T04:37:30Z</time>
      </trkpt>
      <trkpt lat="46.24778" lon="3.15605">
        <ele>331.31</ele>
        <time>2021-08-14T04:37:39Z</time>
      </trkpt>
      <trkpt lat="46.24755" lon="3.15573">
        <ele>332.27</ele>
        <time>2021-08-14T04:37:49Z</time>
      </trkpt>
      <trkpt lat="46.24735" lon="3.15542">
        <ele>332.75</ele>
        <time>2021-08-14T04:37:58Z</time>
      </trkpt>
      <trkpt lat="46.24717" lon="3.15503">
        <ele>333.23</ele>
        <time>2021-08-14T04:38:07Z</time>
      </trkpt>
      <trkpt lat="46.24697" lon="3.15475">
        <ele>333.71</ele>
        <time>2021-08-14T04:38:16Z</time>
      </trkpt>
      <trkpt lat="46.24671" lon="3.15446">
        <ele>334.68</ele>
        <time>2021-08-14T04:38:26Z</time>
      </trkpt>
      <trkpt lat="46.24647" lon="3.1543">
        <ele>334.2</ele>
        <time>2021-08-14T04:38:33Z</time>
      </trkpt>
      <trkpt lat="46.24643" lon="3.15427">
        <ele>334.2</ele>
        <time>2021-08-14T04:38:34Z</time>
      </trkpt>
      <trkpt lat="46.24638" lon="3.15425">
        <ele>334.2</ele>
        <time>2021-08-14T04:38:35Z</time>
      </trkpt>
      <trkpt lat="46.24619" lon="3.15411">
        <ele>333.23</ele>
        <time>2021-08-14T04:38:41Z</time>
      </trkpt>
      <trkpt lat="46.2461" lon="3.15387">
        <ele>333.23</ele>
        <time>2021-08-14T04:38:47Z</time>
      </trkpt>
      <trkpt lat="46.24604" lon="3.15367">
        <ele>331.79</ele>
        <time>2021-08-14T04:38:51Z</time>
      </trkpt>
      <trkpt lat="46.24604" lon="3.15361">
        <ele>331.79</ele>
        <time>2021-08-14T04:38:52Z</time>
      </trkpt>
      <trkpt lat="46.24603" lon="3.15354">
        <ele>331.31</ele>
        <time>2021-08-14T04:38:53Z</time>
      </trkpt>
      <trkpt lat="46.24599" lon="3.15334">
        <ele>329.39</ele>
        <time>2021-08-14T04:38:56Z</time>
      </trkpt>
      <trkpt lat="46.24596" lon="3.15327">
        <ele>328.43</ele>
        <time>2021-08-14T04:38:57Z</time>
      </trkpt>
      <trkpt lat="46.24592" lon="3.15321">
        <ele>327.95</ele>
        <time>2021-08-14T04:38:58Z</time>
      </trkpt>
      <trkpt lat="46.2457" lon="3.153">
        <ele>324.1</ele>
        <time>2021-08-14T04:39:02Z</time>
      </trkpt>
      <trkpt lat="46.24552" lon="3.15284">
        <ele>320.26</ele>
        <time>2021-08-14T04:39:05Z</time>
      </trkpt>
      <trkpt lat="46.24533" lon="3.15267">
        <ele>316.89</ele>
        <time>2021-08-14T04:39:08Z</time>
      </trkpt>
      <trkpt lat="46.24511" lon="3.15249">
        <ele>313.05</ele>
        <time>2021-08-14T04:39:11Z</time>
      </trkpt>
      <trkpt lat="46.24491" lon="3.15236">
        <ele>309.68</ele>
        <time>2021-08-14T04:39:14Z</time>
      </trkpt>
      <trkpt lat="46.24476" lon="3.15227">
        <ele>307.28</ele>
        <time>2021-08-14T04:39:18Z</time>
      </trkpt>
      <trkpt lat="46.24459" lon="3.15221">
        <ele>303.43</ele>
        <time>2021-08-14T04:39:23Z</time>
      </trkpt>
      <trkpt lat="46.24442" lon="3.15211">
        <ele>300.07</ele>
        <time>2021-08-14T04:39:28Z</time>
      </trkpt>
      <trkpt lat="46.24431" lon="3.15205">
        <ele>297.18</ele>
        <time>2021-08-14T04:39:33Z</time>
      </trkpt>
      <trkpt lat="46.24427" lon="3.15204">
        <ele>295.74</ele>
        <time>2021-08-14T04:39:35Z</time>
      </trkpt>
      <trkpt lat="46.24425" lon="3.15204">
        <ele>295.74</ele>
        <time>2021-08-14T04:39:36Z</time>
      </trkpt>
      <trkpt lat="46.24423" lon="3.15203">
        <ele>294.78</ele>
        <time>2021-08-14T04:39:37Z</time>
      </trkpt>
      <trkpt lat="46.24421" lon="3.15203">
        <ele>294.3</ele>
        <time>2021-08-14T04:39:38Z</time>
      </trkpt>
      <trkpt lat="46.24419" lon="3.15204">
        <ele>293.82</ele>
        <time>2021-08-14T04:39:39Z</time>
      </trkpt>
      <trkpt lat="46.24417" lon="3.15203">
        <ele>292.86</ele>
        <time>2021-08-14T04:39:40Z</time>
      </trkpt>
      <trkpt lat="46.24414" lon="3.15203">
        <ele>292.38</ele>
        <time>2021-08-14T04:39:41Z</time>
      </trkpt>
      <trkpt lat="46.24403" lon="3.15206">
        <ele>289.49</ele>
        <time>2021-08-14T04:39:47Z</time>
      </trkpt>
      <trkpt lat="46.24393" lon="3.15207">
        <ele>286.61</ele>
        <time>2021-08-14T04:39:53Z</time>
      </trkpt>
      <trkpt lat="46.24392" lon="3.15207">
        <ele>286.13</ele>
        <time>2021-08-14T04:39:54Z</time>
      </trkpt>
      <trkpt lat="46.2439" lon="3.15209">
        <ele>285.65</ele>
        <time>2021-08-14T04:39:55Z</time>
      </trkpt>
      <trkpt lat="46.24389" lon="3.1521">
        <ele>285.65</ele>
        <time>2021-08-14T04:39:56Z</time>
      </trkpt>
      <trkpt lat="46.24388" lon="3.15211">
        <ele>285.17</ele>
        <time>2021-08-14T04:39:57Z</time>
      </trkpt>
      <trkpt lat="46.24387" lon="3.15212">
        <ele>285.17</ele>
        <time>2021-08-14T04:39:58Z</time>
      </trkpt>
      <trkpt lat="46.24385" lon="3.15213">
        <ele>284.69</ele>
        <time>2021-08-14T04:39:59Z</time>
      </trkpt>
      <trkpt lat="46.24384" lon="3.15214">
        <ele>284.21</ele>
        <time>2021-08-14T04:40:00Z</time>
      </trkpt>
      <trkpt lat="46.24382" lon="3.15214">
        <ele>283.73</ele>
        <time>2021-08-14T04:40:01Z</time>
      </trkpt>
      <trkpt lat="46.24381" lon="3.15215">
        <ele>283.25</ele>
        <time>2021-08-14T04:40:02Z</time>
      </trkpt>
      <trkpt lat="46.24378" lon="3.15217">
        <ele>282.77</ele>
        <time>2021-08-14T04:40:03Z</time>
      </trkpt>
      <trkpt lat="46.24376" lon="3.15219">
        <ele>281.8</ele>
        <time>2021-08-14T04:40:04Z</time>
      </trkpt>
      <trkpt lat="46.24374" lon="3.15219">
        <ele>281.32</ele>
        <time>2021-08-14T04:40:05Z</time>
      </trkpt>
      <trkpt lat="46.24363" lon="3.15225">
        <ele>280.84</ele>
        <time>2021-08-14T04:40:12Z</time>
      </trkpt>
      <trkpt lat="46.24355" lon="3.15234">
        <ele>281.32</ele>
        <time>2021-08-14T04:40:19Z</time>
      </trkpt>
      <trkpt lat="46.24348" lon="3.15238">
        <ele>281.32</ele>
        <time>2021-08-14T04:40:23Z</time>
      </trkpt>
      <trkpt lat="46.24347" lon="3.15237">
        <ele>282.28</ele>
        <time>2021-08-14T04:40:24Z</time>
      </trkpt>
      <trkpt lat="46.24339" lon="3.15234">
        <ele>282.77</ele>
        <time>2021-08-14T04:40:30Z</time>
      </trkpt>
      <trkpt lat="46.24335" lon="3.15231">
        <ele>282.77</ele>
        <time>2021-08-14T04:40:35Z</time>
      </trkpt>
      <trkpt lat="46.2433" lon="3.1523">
        <ele>282.77</ele>
        <time>2021-08-14T04:40:48Z</time>
      </trkpt>
      <trkpt lat="46.24327" lon="3.1523">
        <ele>282.77</ele>
        <time>2021-08-14T04:40:59Z</time>
      </trkpt>
      <trkpt lat="46.24325" lon="3.15231">
        <ele>282.77</ele>
        <time>2021-08-14T04:41:14Z</time>
      </trkpt>
      <trkpt lat="46.24329" lon="3.15233">
        <ele>282.77</ele>
        <time>2021-08-14T04:41:27Z</time>
      </trkpt>
      <trkpt lat="46.24328" lon="3.15227">
        <ele>282.77</ele>
        <time>2021-08-14T04:41:34Z</time>
      </trkpt>
      <trkpt lat="46.24325" lon="3.15225">
        <ele>282.77</ele>
        <time>2021-08-14T04:41:36Z</time>
      </trkpt>
      <trkpt lat="46.24324" lon="3.15223">
        <ele>282.77</ele>
        <time>2021-08-14T04:41:37Z</time>
      </trkpt>
      <trkpt lat="46.24323" lon="3.15222">
        <ele>282.77</ele>
        <time>2021-08-14T04:41:38Z</time>
      </trkpt>
      <trkpt lat="46.24316" lon="3.15214">
        <ele>280.84</ele>
        <time>2021-08-14T04:41:43Z</time>
      </trkpt>
      <trkpt lat="46.24304" lon="3.15203">
        <ele>280.36</ele>
        <time>2021-08-14T04:41:49Z</time>
      </trkpt>
      <trkpt lat="46.24301" lon="3.15201">
        <ele>280.36</ele>
        <time>2021-08-14T04:41:52Z</time>
      </trkpt>
      <trkpt lat="46.24291" lon="3.15195">
        <ele>280.36</ele>
        <time>2021-08-14T04:42:00Z</time>
      </trkpt>
      <trkpt lat="46.2429" lon="3.15194">
        <ele>281.8</ele>
        <time>2021-08-14T04:42:01Z</time>
      </trkpt>
      <trkpt lat="46.24288" lon="3.15193">
        <ele>281.8</ele>
        <time>2021-08-14T04:42:02Z</time>
      </trkpt>
      <trkpt lat="46.24287" lon="3.15192">
        <ele>281.8</ele>
        <time>2021-08-14T04:42:03Z</time>
      </trkpt>
      <trkpt lat="46.24285" lon="3.15188">
        <ele>282.28</ele>
        <time>2021-08-14T04:42:06Z</time>
      </trkpt>
      <trkpt lat="46.24284" lon="3.15187">
        <ele>282.28</ele>
        <time>2021-08-14T04:42:07Z</time>
      </trkpt>
      <trkpt lat="46.24284" lon="3.15186">
        <ele>282.28</ele>
        <time>2021-08-14T04:42:08Z</time>
      </trkpt>
      <trkpt lat="46.24284" lon="3.15184">
        <ele>282.28</ele>
        <time>2021-08-14T04:42:09Z</time>
      </trkpt>
      <trkpt lat="46.24283" lon="3.15183">
        <ele>282.28</ele>
        <time>2021-08-14T04:42:10Z</time>
      </trkpt>
      <trkpt lat="46.2428" lon="3.15175">
        <ele>283.25</ele>
        <time>2021-08-14T04:42:16Z</time>
      </trkpt>
      <trkpt lat="46.2428" lon="3.15173">
        <ele>283.25</ele>
        <time>2021-08-14T04:42:17Z</time>
      </trkpt>
      <trkpt lat="46.24279" lon="3.15172">
        <ele>283.73</ele>
        <time>2021-08-14T04:42:18Z</time>
      </trkpt>
      <trkpt lat="46.24272" lon="3.15159">
        <ele>285.65</ele>
        <time>2021-08-14T04:42:29Z</time>
      </trkpt>
      <trkpt lat="46.24265" lon="3.1515">
        <ele>287.09</ele>
        <time>2021-08-14T04:42:37Z</time>
      </trkpt>
      <trkpt lat="46.2426" lon="3.15143">
        <ele>288.05</ele>
        <time>2021-08-14T04:42:44Z</time>
      </trkpt>
      <trkpt lat="46.24253" lon="3.15133">
        <ele>289.97</ele>
        <time>2021-08-14T04:42:53Z</time>
      </trkpt>
      <trkpt lat="46.24252" lon="3.15132">
        <ele>289.97</ele>
        <time>2021-08-14T04:42:54Z</time>
      </trkpt>
      <trkpt lat="46.24251" lon="3.15131">
        <ele>290.46</ele>
        <time>2021-08-14T04:42:55Z</time>
      </trkpt>
      <trkpt lat="46.24246" lon="3.15124">
        <ele>291.9</ele>
        <time>2021-08-14T04:43:02Z</time>
      </trkpt>
      <trkpt lat="46.24242" lon="3.15116">
        <ele>293.34</ele>
        <time>2021-08-14T04:43:09Z</time>
      </trkpt>
      <trkpt lat="46.24239" lon="3.15114">
        <ele>294.3</ele>
        <time>2021-08-14T04:43:12Z</time>
      </trkpt>
      <trkpt lat="46.24233" lon="3.15109">
        <ele>295.26</ele>
        <time>2021-08-14T04:43:20Z</time>
      </trkpt>
      <trkpt lat="46.24228" lon="3.15103">
        <ele>296.22</ele>
        <time>2021-08-14T04:43:27Z</time>
      </trkpt>
      <trkpt lat="46.24227" lon="3.15103">
        <ele>296.22</ele>
        <time>2021-08-14T04:43:28Z</time>
      </trkpt>
      <trkpt lat="46.24223" lon="3.15102">
        <ele>297.18</ele>
        <time>2021-08-14T04:43:32Z</time>
      </trkpt>
      <trkpt lat="46.24221" lon="3.15102">
        <ele>297.18</ele>
        <time>2021-08-14T04:43:33Z</time>
      </trkpt>
      <trkpt lat="46.24222" lon="3.15105">
        <ele>297.67</ele>
        <time>2021-08-14T04:43:37Z</time>
      </trkpt>
      <trkpt lat="46.24223" lon="3.15105">
        <ele>298.15</ele>
        <time>2021-08-14T04:43:38Z</time>
      </trkpt>
      <trkpt lat="46.24224" lon="3.15106">
        <ele>298.15</ele>
        <time>2021-08-14T04:43:39Z</time>
      </trkpt>
      <trkpt lat="46.24226" lon="3.15107">
        <ele>298.63</ele>
        <time>2021-08-14T04:43:41Z</time>
      </trkpt>
      <trkpt lat="46.24227" lon="3.15108">
        <ele>298.63</ele>
        <time>2021-08-14T04:43:42Z</time>
      </trkpt>
      <trkpt lat="46.24228" lon="3.1511">
        <ele>298.63</ele>
        <time>2021-08-14T04:43:43Z</time>
      </trkpt>
      <trkpt lat="46.24229" lon="3.15111">
        <ele>299.11</ele>
        <time>2021-08-14T04:43:44Z</time>
      </trkpt>
      <trkpt lat="46.2423" lon="3.15112">
        <ele>299.11</ele>
        <time>2021-08-14T04:43:45Z</time>
      </trkpt>
      <trkpt lat="46.2423" lon="3.15113">
        <ele>299.11</ele>
        <time>2021-08-14T04:43:46Z</time>
      </trkpt>
      <trkpt lat="46.24234" lon="3.15122">
        <ele>300.55</ele>
        <time>2021-08-14T04:43:54Z</time>
      </trkpt>
      <trkpt lat="46.24236" lon="3.15125">
        <ele>301.03</ele>
        <time>2021-08-14T04:43:57Z</time>
      </trkpt>
      <trkpt lat="46.24239" lon="3.15133">
        <ele>301.99</ele>
        <time>2021-08-14T04:44:04Z</time>
      </trkpt>
      <trkpt lat="46.24243" lon="3.15142">
        <ele>303.43</ele>
        <time>2021-08-14T04:44:12Z</time>
      </trkpt>
      <trkpt lat="46.24244" lon="3.15154">
        <ele>304.88</ele>
        <time>2021-08-14T04:44:21Z</time>
      </trkpt>
      <trkpt lat="46.24243" lon="3.15166">
        <ele>306.8</ele>
        <time>2021-08-14T04:44:28Z</time>
      </trkpt>
      <trkpt lat="46.24243" lon="3.15173">
        <ele>306.8</ele>
        <time>2021-08-14T04:44:32Z</time>
      </trkpt>
      <trkpt lat="46.24241" lon="3.15176">
        <ele>308.24</ele>
        <time>2021-08-14T04:44:36Z</time>
      </trkpt>
      <trkpt lat="46.2424" lon="3.15175">
        <ele>308.24</ele>
        <time>2021-08-14T04:44:37Z</time>
      </trkpt>
      <trkpt lat="46.24235" lon="3.15163">
        <ele>309.2</ele>
        <time>2021-08-14T04:44:46Z</time>
      </trkpt>
      <trkpt lat="46.24234" lon="3.15162">
        <ele>309.68</ele>
        <time>2021-08-14T04:44:47Z</time>
      </trkpt>
      <trkpt lat="46.24234" lon="3.1516">
        <ele>309.68</ele>
        <time>2021-08-14T04:44:48Z</time>
      </trkpt>
      <trkpt lat="46.24234" lon="3.15159">
        <ele>309.68</ele>
        <time>2021-08-14T04:44:49Z</time>
      </trkpt>
      <trkpt lat="46.24233" lon="3.15157">
        <ele>309.68</ele>
        <time>2021-08-14T04:44:50Z</time>
      </trkpt>
      <trkpt lat="46.24233" lon="3.15156">
        <ele>309.68</ele>
        <time>2021-08-14T04:44:51Z</time>
      </trkpt>
      <trkpt lat="46.24232" lon="3.15154">
        <ele>309.68</ele>
        <time>2021-08-14T04:44:52Z</time>
      </trkpt>
      <trkpt lat="46.24231" lon="3.15153">
        <ele>310.16</ele>
        <time>2021-08-14T04:44:53Z</time>
      </trkpt>
      <trkpt lat="46.2423" lon="3.15151">
        <ele>310.16</ele>
        <time>2021-08-14T04:44:54Z</time>
      </trkpt>
      <trkpt lat="46.24221" lon="3.15144">
        <ele>311.12</ele>
        <time>2021-08-14T04:45:01Z</time>
      </trkpt>
      <trkpt lat="46.24215" lon="3.15141">
        <ele>311.6</ele>
        <time>2021-08-14T04:45:05Z</time>
      </trkpt>
      <trkpt lat="46.24214" lon="3.15139">
        <ele>311.6</ele>
        <time>2021-08-14T04:45:06Z</time>
      </trkpt>
      <trkpt lat="46.24213" lon="3.15138">
        <ele>312.09</ele>
        <time>2021-08-14T04:45:07Z</time>
      </trkpt>
      <trkpt lat="46.24211" lon="3.15136">
        <ele>312.09</ele>
        <time>2021-08-14T04:45:08Z</time>
      </trkpt>
      <trkpt lat="46.2421" lon="3.15135">
        <ele>312.09</ele>
        <time>2021-08-14T04:45:09Z</time>
      </trkpt>
      <trkpt lat="46.24209" lon="3.15134">
        <ele>312.57</ele>
        <time>2021-08-14T04:45:10Z</time>
      </trkpt>
      <trkpt lat="46.24207" lon="3.15133">
        <ele>312.57</ele>
        <time>2021-08-14T04:45:11Z</time>
      </trkpt>
      <trkpt lat="46.24198" lon="3.15128">
        <ele>313.53</ele>
        <time>2021-08-14T04:45:17Z</time>
      </trkpt>
      <trkpt lat="46.24189" lon="3.15123">
        <ele>315.45</ele>
        <time>2021-08-14T04:45:24Z</time>
      </trkpt>
      <trkpt lat="46.24186" lon="3.15124">
        <ele>315.45</ele>
        <time>2021-08-14T04:45:27Z</time>
      </trkpt>
      <trkpt lat="46.24177" lon="3.1513">
        <ele>317.37</ele>
        <time>2021-08-14T04:45:35Z</time>
      </trkpt>
      <trkpt lat="46.24172" lon="3.15138">
        <ele>318.81</ele>
        <time>2021-08-14T04:45:41Z</time>
      </trkpt>
      <trkpt lat="46.24171" lon="3.1514">
        <ele>318.81</ele>
        <time>2021-08-14T04:45:42Z</time>
      </trkpt>
      <trkpt lat="46.24171" lon="3.15142">
        <ele>319.78</ele>
        <time>2021-08-14T04:45:43Z</time>
      </trkpt>
      <trkpt lat="46.24169" lon="3.15142">
        <ele>319.78</ele>
        <time>2021-08-14T04:45:44Z</time>
      </trkpt>
      <trkpt lat="46.24168" lon="3.15142">
        <ele>319.78</ele>
        <time>2021-08-14T04:45:45Z</time>
      </trkpt>
      <trkpt lat="46.24167" lon="3.15141">
        <ele>319.78</ele>
        <time>2021-08-14T04:45:46Z</time>
      </trkpt>
      <trkpt lat="46.24166" lon="3.15141">
        <ele>319.78</ele>
        <time>2021-08-14T04:45:47Z</time>
      </trkpt>
      <trkpt lat="46.24156" lon="3.15146">
        <ele>320.26</ele>
        <time>2021-08-14T04:45:55Z</time>
      </trkpt>
      <trkpt lat="46.24155" lon="3.15148">
        <ele>320.26</ele>
        <time>2021-08-14T04:45:56Z</time>
      </trkpt>
      <trkpt lat="46.24154" lon="3.15149">
        <ele>320.74</ele>
        <time>2021-08-14T04:45:57Z</time>
      </trkpt>
      <trkpt lat="46.24152" lon="3.15149">
        <ele>320.74</ele>
        <time>2021-08-14T04:45:58Z</time>
      </trkpt>
      <trkpt lat="46.24151" lon="3.15149">
        <ele>320.74</ele>
        <time>2021-08-14T04:45:59Z</time>
      </trkpt>
      <trkpt lat="46.2415" lon="3.15149">
        <ele>320.74</ele>
        <time>2021-08-14T04:46:00Z</time>
      </trkpt>
      <trkpt lat="46.24148" lon="3.15149">
        <ele>321.22</ele>
        <time>2021-08-14T04:46:01Z</time>
      </trkpt>
      <trkpt lat="46.24147" lon="3.15149">
        <ele>321.22</ele>
        <time>2021-08-14T04:46:02Z</time>
      </trkpt>
      <trkpt lat="46.24145" lon="3.15149">
        <ele>321.22</ele>
        <time>2021-08-14T04:46:03Z</time>
      </trkpt>
      <trkpt lat="46.24144" lon="3.1515">
        <ele>321.22</ele>
        <time>2021-08-14T04:46:04Z</time>
      </trkpt>
      <trkpt lat="46.24142" lon="3.15151">
        <ele>321.22</ele>
        <time>2021-08-14T04:46:05Z</time>
      </trkpt>
      <trkpt lat="46.2414" lon="3.15151">
        <ele>321.7</ele>
        <time>2021-08-14T04:46:06Z</time>
      </trkpt>
      <trkpt lat="46.24126" lon="3.1516">
        <ele>322.18</ele>
        <time>2021-08-14T04:46:15Z</time>
      </trkpt>
      <trkpt lat="46.2411" lon="3.1517">
        <ele>322.66</ele>
        <time>2021-08-14T04:46:25Z</time>
      </trkpt>
      <trkpt lat="46.24102" lon="3.15175">
        <ele>323.14</ele>
        <time>2021-08-14T04:46:30Z</time>
      </trkpt>
      <trkpt lat="46.24098" lon="3.15176">
        <ele>323.14</ele>
        <time>2021-08-14T04:46:36Z</time>
      </trkpt>
      <trkpt lat="46.24096" lon="3.15176">
        <ele>323.14</ele>
        <time>2021-08-14T04:46:52Z</time>
      </trkpt>
      <trkpt lat="46.24095" lon="3.15178">
        <ele>323.14</ele>
        <time>2021-08-14T04:46:58Z</time>
      </trkpt>
      <trkpt lat="46.24094" lon="3.15179">
        <ele>323.14</ele>
        <time>2021-08-14T04:47:04Z</time>
      </trkpt>
      <trkpt lat="46.24094" lon="3.15183">
        <ele>323.14</ele>
        <time>2021-08-14T04:47:14Z</time>
      </trkpt>
      <trkpt lat="46.24093" lon="3.15184">
        <ele>323.14</ele>
        <time>2021-08-14T04:47:15Z</time>
      </trkpt>
      <trkpt lat="46.24092" lon="3.15185">
        <ele>323.14</ele>
        <time>2021-08-14T04:47:16Z</time>
      </trkpt>
      <trkpt lat="46.2409" lon="3.15187">
        <ele>323.14</ele>
        <time>2021-08-14T04:47:17Z</time>
      </trkpt>
      <trkpt lat="46.24088" lon="3.15188">
        <ele>323.14</ele>
        <time>2021-08-14T04:47:18Z</time>
      </trkpt>
      <trkpt lat="46.24069" lon="3.152">
        <ele>324.1</ele>
        <time>2021-08-14T04:47:28Z</time>
      </trkpt>
      <trkpt lat="46.2405" lon="3.15207">
        <ele>325.06</ele>
        <time>2021-08-14T04:47:38Z</time>
      </trkpt>
      <trkpt lat="46.24039" lon="3.15212">
        <ele>326.02</ele>
        <time>2021-08-14T04:47:45Z</time>
      </trkpt>
      <trkpt lat="46.24024" lon="3.15218">
        <ele>327.47</ele>
        <time>2021-08-14T04:47:53Z</time>
      </trkpt>
      <trkpt lat="46.24006" lon="3.15227">
        <ele>328.43</ele>
        <time>2021-08-14T04:48:02Z</time>
      </trkpt>
      <trkpt lat="46.23987" lon="3.15237">
        <ele>329.87</ele>
        <time>2021-08-14T04:48:12Z</time>
      </trkpt>
      <trkpt lat="46.23976" lon="3.15241">
        <ele>330.83</ele>
        <time>2021-08-14T04:48:18Z</time>
      </trkpt>
      <trkpt lat="46.23964" lon="3.15244">
        <ele>332.75</ele>
        <time>2021-08-14T04:48:26Z</time>
      </trkpt>
      <trkpt lat="46.23955" lon="3.1524">
        <ele>333.23</ele>
        <time>2021-08-14T04:48:31Z</time>
      </trkpt>
      <trkpt lat="46.23939" lon="3.15239">
        <ele>333.23</ele>
        <time>2021-08-14T04:48:39Z</time>
      </trkpt>
      <trkpt lat="46.23919" lon="3.15243">
        <ele>333.23</ele>
        <time>2021-08-14T04:48:47Z</time>
      </trkpt>
      <trkpt lat="46.23906" lon="3.15239">
        <ele>333.71</ele>
        <time>2021-08-14T04:48:53Z</time>
      </trkpt>
      <trkpt lat="46.23891" lon="3.15224">
        <ele>333.71</ele>
        <time>2021-08-14T04:48:59Z</time>
      </trkpt>
      <trkpt lat="46.23866" lon="3.15201">
        <ele>332.27</ele>
        <time>2021-08-14T04:49:07Z</time>
      </trkpt>
      <trkpt lat="46.23857" lon="3.15191">
        <ele>332.27</ele>
        <time>2021-08-14T04:49:11Z</time>
      </trkpt>
      <trkpt lat="46.23857" lon="3.15187">
        <ele>331.79</ele>
        <time>2021-08-14T04:49:12Z</time>
      </trkpt>
      <trkpt lat="46.23857" lon="3.15183">
        <ele>331.79</ele>
        <time>2021-08-14T04:49:13Z</time>
      </trkpt>
      <trkpt lat="46.23858" lon="3.15175">
        <ele>331.79</ele>
        <time>2021-08-14T04:49:18Z</time>
      </trkpt>
      <trkpt lat="46.23858" lon="3.15174">
        <ele>331.79</ele>
        <time>2021-08-14T04:49:28Z</time>
      </trkpt>
      <trkpt lat="46.23858" lon="3.15174">
        <ele>331.79</ele>
        <time>2021-08-14T04:49:39Z</time>
      </trkpt>
      <trkpt lat="46.23858" lon="3.15174">
        <ele>331.79</ele>
        <time>2021-08-14T04:49:57Z</time>
      </trkpt>
      <trkpt lat="46.23858" lon="3.15173">
        <ele>332.27</ele>
        <time>2021-08-14T04:50:19Z</time>
      </trkpt>
      <trkpt lat="46.23861" lon="3.15171">
        <ele>332.27</ele>
        <time>2021-08-14T04:50:42Z</time>
      </trkpt>
      <trkpt lat="46.23864" lon="3.15173">
        <ele>332.27</ele>
        <time>2021-08-14T04:50:59Z</time>
      </trkpt>
      <trkpt lat="46.23863" lon="3.15169">
        <ele>332.27</ele>
        <time>2021-08-14T04:51:16Z</time>
      </trkpt>
      <trkpt lat="46.23861" lon="3.15172">
        <ele>332.27</ele>
        <time>2021-08-14T04:51:34Z</time>
      </trkpt>
      <trkpt lat="46.23858" lon="3.15177">
        <ele>332.27</ele>
        <time>2021-08-14T04:51:57Z</time>
      </trkpt>
      <trkpt lat="46.23858" lon="3.15177">
        <ele>332.75</ele>
        <time>2021-08-14T04:52:16Z</time>
      </trkpt>
      <trkpt lat="46.23859" lon="3.15179">
        <ele>332.75</ele>
        <time>2021-08-14T04:52:37Z</time>
      </trkpt>
      <trkpt lat="46.23859" lon="3.15178">
        <ele>332.75</ele>
        <time>2021-08-14T04:52:55Z</time>
      </trkpt>
      <trkpt lat="46.23857" lon="3.15177">
        <ele>332.75</ele>
        <time>2021-08-14T04:53:13Z</time>
      </trkpt>
      <trkpt lat="46.23858" lon="3.15178">
        <ele>332.75</ele>
        <time>2021-08-14T04:53:27Z</time>
      </trkpt>
      <trkpt lat="46.23858" lon="3.1518">
        <ele>332.75</ele>
        <time>2021-08-14T04:53:33Z</time>
      </trkpt>
      <trkpt lat="46.2386" lon="3.1518">
        <ele>332.75</ele>
        <time>2021-08-14T04:53:39Z</time>
      </trkpt>
      <trkpt lat="46.2386" lon="3.15179">
        <ele>332.75</ele>
        <time>2021-08-14T04:53:55Z</time>
      </trkpt>
      <trkpt lat="46.23861" lon="3.15178">
        <ele>332.75</ele>
        <time>2021-08-14T04:54:14Z</time>
      </trkpt>
      <trkpt lat="46.23861" lon="3.15174">
        <ele>333.23</ele>
        <time>2021-08-14T04:54:34Z</time>
      </trkpt>
      <trkpt lat="46.2386" lon="3.15176">
        <ele>333.23</ele>
        <time>2021-08-14T04:54:54Z</time>
      </trkpt>
      <trkpt lat="46.2386" lon="3.15182">
        <ele>333.23</ele>
        <time>2021-08-14T04:55:10Z</time>
      </trkpt>
      <trkpt lat="46.23861" lon="3.15183">
        <ele>333.23</ele>
        <time>2021-08-14T04:55:23Z</time>
      </trkpt>
      <trkpt lat="46.23859" lon="3.15177">
        <ele>333.23</ele>
        <time>2021-08-14T04:55:49Z</time>
      </trkpt>
      <trkpt lat="46.23857" lon="3.15175">
        <ele>333.23</ele>
        <time>2021-08-14T04:56:06Z</time>
      </trkpt>
      <trkpt lat="46.23858" lon="3.15174">
        <ele>333.23</ele>
        <time>2021-08-14T04:56:21Z</time>
      </trkpt>
      <trkpt lat="46.23858" lon="3.15172">
        <ele>333.71</ele>
        <time>2021-08-14T04:56:44Z</time>
      </trkpt>
      <trkpt lat="46.23858" lon="3.15174">
        <ele>333.71</ele>
        <time>2021-08-14T04:57:00Z</time>
      </trkpt>
      <trkpt lat="46.23859" lon="3.15175">
        <ele>333.71</ele>
        <time>2021-08-14T04:57:14Z</time>
      </trkpt>
      <trkpt lat="46.23858" lon="3.15173">
        <ele>333.71</ele>
        <time>2021-08-14T04:57:30Z</time>
      </trkpt>
      <trkpt lat="46.23859" lon="3.15176">
        <ele>333.71</ele>
        <time>2021-08-14T04:57:52Z</time>
      </trkpt>
      <trkpt lat="46.23859" lon="3.15175">
        <ele>333.71</ele>
        <time>2021-08-14T04:58:08Z</time>
      </trkpt>
      <trkpt lat="46.2386" lon="3.15178">
        <ele>333.71</ele>
        <time>2021-08-14T04:58:16Z</time>
      </trkpt>
      <trkpt lat="46.23858" lon="3.15184">
        <ele>333.71</ele>
        <time>2021-08-14T04:58:20Z</time>
      </trkpt>
      <trkpt lat="46.23854" lon="3.15189">
        <ele>333.71</ele>
        <time>2021-08-14T04:58:25Z</time>
      </trkpt>
      <trkpt lat="46.23854" lon="3.15196">
        <ele>333.71</ele>
        <time>2021-08-14T04:58:33Z</time>
      </trkpt>
      <trkpt lat="46.23853" lon="3.15196">
        <ele>333.71</ele>
        <time>2021-08-14T04:58:41Z</time>
      </trkpt>
      <trkpt lat="46.23852" lon="3.15184">
        <ele>333.71</ele>
        <time>2021-08-14T04:59:00Z</time>
      </trkpt>
      <trkpt lat="46.2385" lon="3.15171">
        <ele>334.2</ele>
        <time>2021-08-14T04:59:14Z</time>
      </trkpt>
      <trkpt lat="46.2385" lon="3.15163">
        <ele>334.2</ele>
        <time>2021-08-14T04:59:34Z</time>
      </trkpt>
      <trkpt lat="46.23848" lon="3.15158">
        <ele>334.2</ele>
        <time>2021-08-14T04:59:49Z</time>
      </trkpt>
      <trkpt lat="46.23848" lon="3.15159">
        <ele>334.2</ele>
        <time>2021-08-14T05:00:01Z</time>
      </trkpt>
      <trkpt lat="46.23848" lon="3.1516">
        <ele>334.2</ele>
        <time>2021-08-14T05:00:14Z</time>
      </trkpt>
      <trkpt lat="46.23849" lon="3.1516">
        <ele>334.68</ele>
        <time>2021-08-14T05:00:33Z</time>
      </trkpt>
      <trkpt lat="46.23849" lon="3.15161">
        <ele>334.68</ele>
        <time>2021-08-14T05:00:54Z</time>
      </trkpt>
      <trkpt lat="46.23848" lon="3.15162">
        <ele>334.68</ele>
        <time>2021-08-14T05:01:11Z</time>
      </trkpt>
      <trkpt lat="46.23848" lon="3.15163">
        <ele>335.16</ele>
        <time>2021-08-14T05:01:26Z</time>
      </trkpt>
      <trkpt lat="46.2385" lon="3.15164">
        <ele>335.16</ele>
        <time>2021-08-14T05:01:38Z</time>
      </trkpt>
      <trkpt lat="46.23852" lon="3.15166">
        <ele>335.16</ele>
        <time>2021-08-14T05:01:50Z</time>
      </trkpt>
      <trkpt lat="46.23851" lon="3.15167">
        <ele>335.16</ele>
        <time>2021-08-14T05:02:04Z</time>
      </trkpt>
      <trkpt lat="46.23856" lon="3.15175">
        <ele>335.16</ele>
        <time>2021-08-14T05:02:12Z</time>
      </trkpt>
      <trkpt lat="46.23855" lon="3.15179">
        <ele>335.16</ele>
        <time>2021-08-14T05:02:19Z</time>
      </trkpt>
      <trkpt lat="46.23856" lon="3.15183">
        <ele>335.64</ele>
        <time>2021-08-14T05:02:40Z</time>
      </trkpt>
      <trkpt lat="46.23856" lon="3.15184">
        <ele>335.64</ele>
        <time>2021-08-14T05:02:50Z</time>
      </trkpt>
      <trkpt lat="46.2386" lon="3.15174">
        <ele>336.12</ele>
        <time>2021-08-14T05:03:00Z</time>
      </trkpt>
      <trkpt lat="46.23861" lon="3.15171">
        <ele>336.12</ele>
        <time>2021-08-14T05:03:06Z</time>
      </trkpt>
      <trkpt lat="46.23862" lon="3.15171">
        <ele>336.12</ele>
        <time>2021-08-14T05:03:17Z</time>
      </trkpt>
      <trkpt lat="46.23862" lon="3.1517">
        <ele>336.12</ele>
        <time>2021-08-14T05:03:27Z</time>
      </trkpt>
      <trkpt lat="46.23862" lon="3.15174">
        <ele>336.12</ele>
        <time>2021-08-14T05:03:35Z</time>
      </trkpt>
      <trkpt lat="46.23863" lon="3.15177">
        <ele>336.12</ele>
        <time>2021-08-14T05:03:49Z</time>
      </trkpt>
      <trkpt lat="46.23863" lon="3.15176">
        <ele>336.12</ele>
        <time>2021-08-14T05:04:06Z</time>
      </trkpt>
      <trkpt lat="46.23862" lon="3.15176">
        <ele>336.12</ele>
        <time>2021-08-14T05:04:13Z</time>
      </trkpt>
      <trkpt lat="46.23862" lon="3.15176">
        <ele>336.12</ele>
        <time>2021-08-14T05:04:14Z</time>
      </trkpt>
      <trkpt lat="46.23856" lon="3.15187">
        <ele>336.12</ele>
        <time>2021-08-14T05:04:24Z</time>
      </trkpt>
      <trkpt lat="46.23856" lon="3.15188">
        <ele>336.12</ele>
        <time>2021-08-14T05:04:25Z</time>
      </trkpt>
      <trkpt lat="46.23853" lon="3.15193">
        <ele>336.12</ele>
        <time>2021-08-14T05:04:32Z</time>
      </trkpt>
      <trkpt lat="46.23852" lon="3.15196">
        <ele>336.12</ele>
        <time>2021-08-14T05:04:43Z</time>
      </trkpt>
      <trkpt lat="46.23851" lon="3.15195">
        <ele>336.12</ele>
        <time>2021-08-14T05:04:58Z</time>
      </trkpt>
      <trkpt lat="46.23851" lon="3.15193">
        <ele>336.12</ele>
        <time>2021-08-14T05:05:11Z</time>
      </trkpt>
      <trkpt lat="46.2385" lon="3.15184">
        <ele>336.12</ele>
        <time>2021-08-14T05:05:22Z</time>
      </trkpt>
      <trkpt lat="46.2385" lon="3.1518">
        <ele>336.12</ele>
        <time>2021-08-14T05:05:35Z</time>
      </trkpt>
      <trkpt lat="46.23848" lon="3.15165">
        <ele>336.12</ele>
        <time>2021-08-14T05:05:55Z</time>
      </trkpt>
      <trkpt lat="46.23849" lon="3.15165">
        <ele>336.12</ele>
        <time>2021-08-14T05:06:10Z</time>
      </trkpt>
      <trkpt lat="46.2385" lon="3.15166">
        <ele>336.6</ele>
        <time>2021-08-14T05:06:25Z</time>
      </trkpt>
      <trkpt lat="46.23849" lon="3.15162">
        <ele>336.6</ele>
        <time>2021-08-14T05:06:38Z</time>
      </trkpt>
      <trkpt lat="46.23848" lon="3.15162">
        <ele>336.6</ele>
        <time>2021-08-14T05:06:56Z</time>
      </trkpt>
      <trkpt lat="46.23847" lon="3.15166">
        <ele>336.6</ele>
        <time>2021-08-14T05:07:14Z</time>
      </trkpt>
      <trkpt lat="46.23849" lon="3.15167">
        <ele>336.6</ele>
        <time>2021-08-14T05:07:29Z</time>
      </trkpt>
      <trkpt lat="46.23847" lon="3.15165">
        <ele>337.08</ele>
        <time>2021-08-14T05:07:40Z</time>
      </trkpt>
      <trkpt lat="46.23847" lon="3.15164">
        <ele>337.08</ele>
        <time>2021-08-14T05:08:03Z</time>
      </trkpt>
      <trkpt lat="46.23847" lon="3.15168">
        <ele>337.08</ele>
        <time>2021-08-14T05:08:22Z</time>
      </trkpt>
      <trkpt lat="46.23848" lon="3.15177">
        <ele>337.08</ele>
        <time>2021-08-14T05:08:46Z</time>
      </trkpt>
      <trkpt lat="46.23848" lon="3.15176">
        <ele>337.08</ele>
        <time>2021-08-14T05:08:59Z</time>
      </trkpt>
      <trkpt lat="46.23847" lon="3.15179">
        <ele>337.08</ele>
        <time>2021-08-14T05:09:14Z</time>
      </trkpt>
      <trkpt lat="46.23849" lon="3.15185">
        <ele>337.08</ele>
        <time>2021-08-14T05:09:19Z</time>
      </trkpt>
      <trkpt lat="46.23839" lon="3.15176">
        <ele>337.08</ele>
        <time>2021-08-14T05:09:25Z</time>
      </trkpt>
      <trkpt lat="46.23814" lon="3.1516">
        <ele>336.12</ele>
        <time>2021-08-14T05:09:33Z</time>
      </trkpt>
      <trkpt lat="46.2378" lon="3.15139">
        <ele>334.68</ele>
        <time>2021-08-14T05:09:41Z</time>
      </trkpt>
      <trkpt lat="46.23766" lon="3.15126">
        <ele>334.2</ele>
        <time>2021-08-14T05:09:45Z</time>
      </trkpt>
      <trkpt lat="46.23757" lon="3.15114">
        <ele>334.2</ele>
        <time>2021-08-14T05:09:50Z</time>
      </trkpt>
      <trkpt lat="46.23763" lon="3.15121">
        <ele>334.2</ele>
        <time>2021-08-14T05:09:59Z</time>
      </trkpt>
      <trkpt lat="46.23764" lon="3.15125">
        <ele>334.68</ele>
        <time>2021-08-14T05:10:20Z</time>
      </trkpt>
      <trkpt lat="46.23763" lon="3.15132">
        <ele>334.68</ele>
        <time>2021-08-14T05:10:38Z</time>
      </trkpt>
      <trkpt lat="46.23765" lon="3.15139">
        <ele>334.68</ele>
        <time>2021-08-14T05:11:04Z</time>
      </trkpt>
      <trkpt lat="46.23769" lon="3.15142">
        <ele>335.16</ele>
        <time>2021-08-14T05:11:21Z</time>
      </trkpt>
      <trkpt lat="46.23767" lon="3.15139">
        <ele>335.16</ele>
        <time>2021-08-14T05:11:43Z</time>
      </trkpt>
      <trkpt lat="46.23766" lon="3.1514">
        <ele>335.16</ele>
        <time>2021-08-14T05:12:00Z</time>
      </trkpt>
      <trkpt lat="46.23765" lon="3.15141">
        <ele>335.16</ele>
        <time>2021-08-14T05:12:13Z</time>
      </trkpt>
      <trkpt lat="46.23764" lon="3.15142">
        <ele>335.64</ele>
        <time>2021-08-14T05:12:28Z</time>
      </trkpt>
      <trkpt lat="46.2376" lon="3.15136">
        <ele>335.64</ele>
        <time>2021-08-14T05:12:43Z</time>
      </trkpt>
      <trkpt lat="46.23754" lon="3.15121">
        <ele>335.16</ele>
        <time>2021-08-14T05:12:47Z</time>
      </trkpt>
      <trkpt lat="46.23752" lon="3.15122">
        <ele>335.16</ele>
        <time>2021-08-14T05:12:48Z</time>
      </trkpt>
      <trkpt lat="46.23749" lon="3.15129">
        <ele>335.16</ele>
        <time>2021-08-14T05:12:50Z</time>
      </trkpt>
      <trkpt lat="46.23748" lon="3.15132">
        <ele>335.16</ele>
        <time>2021-08-14T05:12:51Z</time>
      </trkpt>
      <trkpt lat="46.23748" lon="3.15139">
        <ele>336.12</ele>
        <time>2021-08-14T05:12:56Z</time>
      </trkpt>
      <trkpt lat="46.23748" lon="3.15138">
        <ele>336.6</ele>
        <time>2021-08-14T05:13:04Z</time>
      </trkpt>
      <trkpt lat="46.23748" lon="3.15139">
        <ele>337.08</ele>
        <time>2021-08-14T05:13:17Z</time>
      </trkpt>
      <trkpt lat="46.23749" lon="3.15136">
        <ele>337.08</ele>
        <time>2021-08-14T05:13:27Z</time>
      </trkpt>
      <trkpt lat="46.23752" lon="3.15136">
        <ele>337.08</ele>
        <time>2021-08-14T05:13:39Z</time>
      </trkpt>
      <trkpt lat="46.23751" lon="3.15138">
        <ele>337.08</ele>
        <time>2021-08-14T05:13:45Z</time>
      </trkpt>
      <trkpt lat="46.23751" lon="3.15139">
        <ele>337.08</ele>
        <time>2021-08-14T05:13:53Z</time>
      </trkpt>
      <trkpt lat="46.2375" lon="3.15136">
        <ele>337.08</ele>
        <time>2021-08-14T05:13:58Z</time>
      </trkpt>
      <trkpt lat="46.23749" lon="3.15134">
        <ele>337.08</ele>
        <time>2021-08-14T05:14:07Z</time>
      </trkpt>
      <trkpt lat="46.23748" lon="3.15134">
        <ele>337.08</ele>
        <time>2021-08-14T05:14:20Z</time>
      </trkpt>
      <trkpt lat="46.23747" lon="3.15132">
        <ele>337.08</ele>
        <time>2021-08-14T05:14:29Z</time>
      </trkpt>
      <trkpt lat="46.23748" lon="3.1513">
        <ele>337.08</ele>
        <time>2021-08-14T05:14:30Z</time>
      </trkpt>
      <trkpt lat="46.23749" lon="3.1513">
        <ele>337.08</ele>
        <time>2021-08-14T05:14:31Z</time>
      </trkpt>
      <trkpt lat="46.2375" lon="3.15131">
        <ele>337.08</ele>
        <time>2021-08-14T05:14:32Z</time>
      </trkpt>
      <trkpt lat="46.2375" lon="3.15133">
        <ele>337.08</ele>
        <time>2021-08-14T05:14:33Z</time>
      </trkpt>
      <trkpt lat="46.2375" lon="3.15134">
        <ele>337.08</ele>
        <time>2021-08-14T05:14:34Z</time>
      </trkpt>
      <trkpt lat="46.2375" lon="3.15136">
        <ele>337.08</ele>
        <time>2021-08-14T05:14:35Z</time>
      </trkpt>
      <trkpt lat="46.23749" lon="3.15157">
        <ele>338.04</ele>
        <time>2021-08-14T05:14:45Z</time>
      </trkpt>
      <trkpt lat="46.23748" lon="3.15167">
        <ele>339</ele>
        <time>2021-08-14T05:14:50Z</time>
      </trkpt>
      <trkpt lat="46.23747" lon="3.15169">
        <ele>339</ele>
        <time>2021-08-14T05:14:51Z</time>
      </trkpt>
      <trkpt lat="46.23747" lon="3.15171">
        <ele>339</ele>
        <time>2021-08-14T05:14:52Z</time>
      </trkpt>
      <trkpt lat="46.23747" lon="3.15173">
        <ele>339.48</ele>
        <time>2021-08-14T05:14:53Z</time>
      </trkpt>
      <trkpt lat="46.23747" lon="3.15175">
        <ele>339.48</ele>
        <time>2021-08-14T05:14:54Z</time>
      </trkpt>
      <trkpt lat="46.23745" lon="3.15187">
        <ele>340.44</ele>
        <time>2021-08-14T05:15:00Z</time>
      </trkpt>
      <trkpt lat="46.23745" lon="3.15199">
        <ele>340.92</ele>
        <time>2021-08-14T05:15:07Z</time>
      </trkpt>
      <trkpt lat="46.23745" lon="3.15201">
        <ele>341.41</ele>
        <time>2021-08-14T05:15:08Z</time>
      </trkpt>
      <trkpt lat="46.23744" lon="3.15203">
        <ele>341.41</ele>
        <time>2021-08-14T05:15:09Z</time>
      </trkpt>
      <trkpt lat="46.23744" lon="3.15205">
        <ele>341.41</ele>
        <time>2021-08-14T05:15:10Z</time>
      </trkpt>
      <trkpt lat="46.23744" lon="3.15207">
        <ele>341.41</ele>
        <time>2021-08-14T05:15:11Z</time>
      </trkpt>
      <trkpt lat="46.23744" lon="3.15209">
        <ele>341.41</ele>
        <time>2021-08-14T05:15:12Z</time>
      </trkpt>
      <trkpt lat="46.23744" lon="3.15211">
        <ele>341.41</ele>
        <time>2021-08-14T05:15:13Z</time>
      </trkpt>
      <trkpt lat="46.23741" lon="3.15231">
        <ele>342.85</ele>
        <time>2021-08-14T05:15:22Z</time>
      </trkpt>
      <trkpt lat="46.23742" lon="3.15237">
        <ele>343.33</ele>
        <time>2021-08-14T05:15:25Z</time>
      </trkpt>
      <trkpt lat="46.23742" lon="3.15239">
        <ele>343.33</ele>
        <time>2021-08-14T05:15:26Z</time>
      </trkpt>
      <trkpt lat="46.23739" lon="3.15255">
        <ele>344.29</ele>
        <time>2021-08-14T05:15:33Z</time>
      </trkpt>
      <trkpt lat="46.23738" lon="3.15256">
        <ele>344.29</ele>
        <time>2021-08-14T05:15:34Z</time>
      </trkpt>
      <trkpt lat="46.23736" lon="3.15257">
        <ele>344.29</ele>
        <time>2021-08-14T05:15:35Z</time>
      </trkpt>
      <trkpt lat="46.23734" lon="3.15258">
        <ele>344.29</ele>
        <time>2021-08-14T05:15:36Z</time>
      </trkpt>
      <trkpt lat="46.23732" lon="3.15258">
        <ele>344.29</ele>
        <time>2021-08-14T05:15:37Z</time>
      </trkpt>
      <trkpt lat="46.2373" lon="3.15258">
        <ele>344.29</ele>
        <time>2021-08-14T05:15:38Z</time>
      </trkpt>
      <trkpt lat="46.23728" lon="3.15259">
        <ele>344.29</ele>
        <time>2021-08-14T05:15:39Z</time>
      </trkpt>
      <trkpt lat="46.23725" lon="3.1526">
        <ele>344.29</ele>
        <time>2021-08-14T05:15:40Z</time>
      </trkpt>
      <trkpt lat="46.23701" lon="3.15263">
        <ele>344.29</ele>
        <time>2021-08-14T05:15:49Z</time>
      </trkpt>
      <trkpt lat="46.23682" lon="3.15263">
        <ele>344.77</ele>
        <time>2021-08-14T05:15:56Z</time>
      </trkpt>
      <trkpt lat="46.2368" lon="3.15261">
        <ele>344.77</ele>
        <time>2021-08-14T05:15:57Z</time>
      </trkpt>
      <trkpt lat="46.23679" lon="3.15259">
        <ele>344.77</ele>
        <time>2021-08-14T05:15:58Z</time>
      </trkpt>
      <trkpt lat="46.23655" lon="3.15252">
        <ele>344.77</ele>
        <time>2021-08-14T05:16:07Z</time>
      </trkpt>
      <trkpt lat="46.23626" lon="3.15248">
        <ele>343.33</ele>
        <time>2021-08-14T05:16:15Z</time>
      </trkpt>
      <trkpt lat="46.23613" lon="3.15247">
        <ele>342.85</ele>
        <time>2021-08-14T05:16:20Z</time>
      </trkpt>
      <trkpt lat="46.23588" lon="3.15238">
        <ele>342.85</ele>
        <time>2021-08-14T05:16:28Z</time>
      </trkpt>
      <trkpt lat="46.23555" lon="3.15228">
        <ele>342.85</ele>
        <time>2021-08-14T05:16:37Z</time>
      </trkpt>
      <trkpt lat="46.23521" lon="3.15213">
        <ele>343.33</ele>
        <time>2021-08-14T05:16:46Z</time>
      </trkpt>
      <trkpt lat="46.23484" lon="3.15199">
        <ele>343.33</ele>
        <time>2021-08-14T05:16:56Z</time>
      </trkpt>
      <trkpt lat="46.23443" lon="3.15185">
        <ele>342.85</ele>
        <time>2021-08-14T05:17:06Z</time>
      </trkpt>
      <trkpt lat="46.23426" lon="3.15177">
        <ele>342.37</ele>
        <time>2021-08-14T05:17:10Z</time>
      </trkpt>
      <trkpt lat="46.2341" lon="3.15171">
        <ele>342.37</ele>
        <time>2021-08-14T05:17:14Z</time>
      </trkpt>
      <trkpt lat="46.23369" lon="3.15153">
        <ele>340.92</ele>
        <time>2021-08-14T05:17:23Z</time>
      </trkpt>
      <trkpt lat="46.23327" lon="3.15136">
        <ele>339.48</ele>
        <time>2021-08-14T05:17:31Z</time>
      </trkpt>
      <trkpt lat="46.23272" lon="3.15112">
        <ele>337.56</ele>
        <time>2021-08-14T05:17:41Z</time>
      </trkpt>
      <trkpt lat="46.23256" lon="3.15108">
        <ele>337.08</ele>
        <time>2021-08-14T05:17:46Z</time>
      </trkpt>
      <trkpt lat="46.23225" lon="3.15101">
        <ele>336.12</ele>
        <time>2021-08-14T05:17:54Z</time>
      </trkpt>
      <trkpt lat="46.23171" lon="3.15087">
        <ele>335.16</ele>
        <time>2021-08-14T05:18:05Z</time>
      </trkpt>
      <trkpt lat="46.23121" lon="3.1508">
        <ele>333.23</ele>
        <time>2021-08-14T05:18:14Z</time>
      </trkpt>
      <trkpt lat="46.23071" lon="3.1507">
        <ele>331.79</ele>
        <time>2021-08-14T05:18:22Z</time>
      </trkpt>
      <trkpt lat="46.22995" lon="3.15046">
        <ele>329.39</ele>
        <time>2021-08-14T05:18:33Z</time>
      </trkpt>
      <trkpt lat="46.22917" lon="3.15022">
        <ele>326.5</ele>
        <time>2021-08-14T05:18:43Z</time>
      </trkpt>
      <trkpt lat="46.22842" lon="3.14999">
        <ele>325.54</ele>
        <time>2021-08-14T05:18:53Z</time>
      </trkpt>
      <trkpt lat="46.22765" lon="3.14983">
        <ele>325.06</ele>
        <time>2021-08-14T05:19:04Z</time>
      </trkpt>
      <trkpt lat="46.22709" lon="3.14979">
        <ele>325.06</ele>
        <time>2021-08-14T05:19:13Z</time>
      </trkpt>
      <trkpt lat="46.22656" lon="3.14979">
        <ele>322.66</ele>
        <time>2021-08-14T05:19:21Z</time>
      </trkpt>
      <trkpt lat="46.22624" lon="3.14973">
        <ele>320.74</ele>
        <time>2021-08-14T05:19:25Z</time>
      </trkpt>
      <trkpt lat="46.2254" lon="3.1495">
        <ele>317.37</ele>
        <time>2021-08-14T05:19:35Z</time>
      </trkpt>
      <trkpt lat="46.22475" lon="3.14942">
        <ele>314.49</ele>
        <time>2021-08-14T05:19:42Z</time>
      </trkpt>
      <trkpt lat="46.22382" lon="3.14935">
        <ele>311.6</ele>
        <time>2021-08-14T05:19:52Z</time>
      </trkpt>
      <trkpt lat="46.22315" lon="3.14917">
        <ele>311.12</ele>
        <time>2021-08-14T05:20:00Z</time>
      </trkpt>
      <trkpt lat="46.22264" lon="3.14917">
        <ele>310.64</ele>
        <time>2021-08-14T05:20:07Z</time>
      </trkpt>
      <trkpt lat="46.22213" lon="3.14926">
        <ele>311.12</ele>
        <time>2021-08-14T05:20:15Z</time>
      </trkpt>
      <trkpt lat="46.22207" lon="3.14926">
        <ele>311.12</ele>
        <time>2021-08-14T05:20:16Z</time>
      </trkpt>
      <trkpt lat="46.22203" lon="3.14926">
        <ele>311.12</ele>
        <time>2021-08-14T05:20:17Z</time>
      </trkpt>
      <trkpt lat="46.22183" lon="3.14924">
        <ele>312.57</ele>
        <time>2021-08-14T05:20:21Z</time>
      </trkpt>
      <trkpt lat="46.22179" lon="3.14922">
        <ele>312.57</ele>
        <time>2021-08-14T05:20:22Z</time>
      </trkpt>
      <trkpt lat="46.22151" lon="3.14903">
        <ele>313.05</ele>
        <time>2021-08-14T05:20:30Z</time>
      </trkpt>
      <trkpt lat="46.22122" lon="3.14882">
        <ele>313.53</ele>
        <time>2021-08-14T05:20:39Z</time>
      </trkpt>
      <trkpt lat="46.22087" lon="3.14867">
        <ele>314.49</ele>
        <time>2021-08-14T05:20:49Z</time>
      </trkpt>
      <trkpt lat="46.22055" lon="3.14859">
        <ele>314.97</ele>
        <time>2021-08-14T05:20:58Z</time>
      </trkpt>
      <trkpt lat="46.22025" lon="3.14851">
        <ele>315.93</ele>
        <time>2021-08-14T05:21:07Z</time>
      </trkpt>
      <trkpt lat="46.22004" lon="3.14853">
        <ele>316.41</ele>
        <time>2021-08-14T05:21:14Z</time>
      </trkpt>
      <trkpt lat="46.21985" lon="3.14883">
        <ele>317.37</ele>
        <time>2021-08-14T05:21:23Z</time>
      </trkpt>
      <trkpt lat="46.21973" lon="3.14903">
        <ele>318.33</ele>
        <time>2021-08-14T05:21:30Z</time>
      </trkpt>
      <trkpt lat="46.21955" lon="3.14936">
        <ele>319.3</ele>
        <time>2021-08-14T05:21:40Z</time>
      </trkpt>
      <trkpt lat="46.21941" lon="3.14966">
        <ele>319.3</ele>
        <time>2021-08-14T05:21:48Z</time>
      </trkpt>
      <trkpt lat="46.21921" lon="3.15009">
        <ele>319.78</ele>
        <time>2021-08-14T05:21:59Z</time>
      </trkpt>
      <trkpt lat="46.21901" lon="3.15056">
        <ele>319.78</ele>
        <time>2021-08-14T05:22:08Z</time>
      </trkpt>
      <trkpt lat="46.21896" lon="3.15069">
        <ele>318.33</ele>
        <time>2021-08-14T05:22:10Z</time>
      </trkpt>
      <trkpt lat="46.21872" lon="3.15138">
        <ele>316.89</ele>
        <time>2021-08-14T05:22:20Z</time>
      </trkpt>
      <trkpt lat="46.21847" lon="3.15202">
        <ele>316.41</ele>
        <time>2021-08-14T05:22:30Z</time>
      </trkpt>
      <trkpt lat="46.21817" lon="3.15266">
        <ele>315.93</ele>
        <time>2021-08-14T05:22:41Z</time>
      </trkpt>
      <trkpt lat="46.21777" lon="3.15329">
        <ele>314.01</ele>
        <time>2021-08-14T05:22:53Z</time>
      </trkpt>
      <trkpt lat="46.21749" lon="3.15374">
        <ele>312.09</ele>
        <time>2021-08-14T05:23:01Z</time>
      </trkpt>
      <trkpt lat="46.21744" lon="3.1538">
        <ele>312.09</ele>
        <time>2021-08-14T05:23:03Z</time>
      </trkpt>
      <trkpt lat="46.21742" lon="3.15379">
        <ele>312.09</ele>
        <time>2021-08-14T05:23:04Z</time>
      </trkpt>
      <trkpt lat="46.2174" lon="3.15376">
        <ele>312.09</ele>
        <time>2021-08-14T05:23:05Z</time>
      </trkpt>
      <trkpt lat="46.2174" lon="3.15373">
        <ele>312.09</ele>
        <time>2021-08-14T05:23:06Z</time>
      </trkpt>
      <trkpt lat="46.21738" lon="3.15371">
        <ele>312.09</ele>
        <time>2021-08-14T05:23:07Z</time>
      </trkpt>
      <trkpt lat="46.21736" lon="3.15368">
        <ele>312.09</ele>
        <time>2021-08-14T05:23:08Z</time>
      </trkpt>
      <trkpt lat="46.21735" lon="3.15363">
        <ele>312.57</ele>
        <time>2021-08-14T05:23:09Z</time>
      </trkpt>
      <trkpt lat="46.21733" lon="3.15359">
        <ele>312.57</ele>
        <time>2021-08-14T05:23:10Z</time>
      </trkpt>
      <trkpt lat="46.21722" lon="3.1533">
        <ele>312.09</ele>
        <time>2021-08-14T05:23:17Z</time>
      </trkpt>
      <trkpt lat="46.21701" lon="3.15282">
        <ele>310.16</ele>
        <time>2021-08-14T05:23:25Z</time>
      </trkpt>
      <trkpt lat="46.21678" lon="3.15235">
        <ele>308.72</ele>
        <time>2021-08-14T05:23:33Z</time>
      </trkpt>
      <trkpt lat="46.21651" lon="3.15194">
        <ele>305.36</ele>
        <time>2021-08-14T05:23:39Z</time>
      </trkpt>
      <trkpt lat="46.21604" lon="3.15127">
        <ele>301.99</ele>
        <time>2021-08-14T05:23:48Z</time>
      </trkpt>
      <trkpt lat="46.2157" lon="3.15081">
        <ele>299.59</ele>
        <time>2021-08-14T05:23:55Z</time>
      </trkpt>
      <trkpt lat="46.21566" lon="3.15078">
        <ele>299.59</ele>
        <time>2021-08-14T05:23:56Z</time>
      </trkpt>
      <trkpt lat="46.21562" lon="3.15077">
        <ele>299.59</ele>
        <time>2021-08-14T05:23:57Z</time>
      </trkpt>
      <trkpt lat="46.21558" lon="3.15079">
        <ele>299.59</ele>
        <time>2021-08-14T05:23:58Z</time>
      </trkpt>
      <trkpt lat="46.21554" lon="3.15081">
        <ele>298.63</ele>
        <time>2021-08-14T05:23:59Z</time>
      </trkpt>
      <trkpt lat="46.21549" lon="3.15083">
        <ele>298.15</ele>
        <time>2021-08-14T05:24:00Z</time>
      </trkpt>
      <trkpt lat="46.21513" lon="3.15097">
        <ele>294.78</ele>
        <time>2021-08-14T05:24:07Z</time>
      </trkpt>
      <trkpt lat="46.21497" lon="3.15102">
        <ele>293.34</ele>
        <time>2021-08-14T05:24:10Z</time>
      </trkpt>
      <trkpt lat="46.21458" lon="3.15101">
        <ele>290.46</ele>
        <time>2021-08-14T05:24:16Z</time>
      </trkpt>
      <trkpt lat="46.21417" lon="3.15099">
        <ele>287.57</ele>
        <time>2021-08-14T05:24:22Z</time>
      </trkpt>
      <trkpt lat="46.21402" lon="3.15099">
        <ele>288.05</ele>
        <time>2021-08-14T05:24:26Z</time>
      </trkpt>
      <trkpt lat="46.21379" lon="3.15102">
        <ele>287.57</ele>
        <time>2021-08-14T05:24:32Z</time>
      </trkpt>
      <trkpt lat="46.21344" lon="3.15106">
        <ele>287.09</ele>
        <time>2021-08-14T05:24:40Z</time>
      </trkpt>
      <trkpt lat="46.21309" lon="3.15109">
        <ele>287.09</ele>
        <time>2021-08-14T05:24:48Z</time>
      </trkpt>
      <trkpt lat="46.2129" lon="3.15107">
        <ele>288.53</ele>
        <time>2021-08-14T05:24:53Z</time>
      </trkpt>
      <trkpt lat="46.2127" lon="3.15104">
        <ele>289.97</ele>
        <time>2021-08-14T05:25:00Z</time>
      </trkpt>
      <trkpt lat="46.21257" lon="3.15103">
        <ele>290.94</ele>
        <time>2021-08-14T05:25:07Z</time>
      </trkpt>
      <trkpt lat="46.21243" lon="3.15102">
        <ele>292.38</ele>
        <time>2021-08-14T05:25:15Z</time>
      </trkpt>
      <trkpt lat="46.21233" lon="3.15103">
        <ele>293.34</ele>
        <time>2021-08-14T05:25:21Z</time>
      </trkpt>
      <trkpt lat="46.21232" lon="3.15104">
        <ele>293.34</ele>
        <time>2021-08-14T05:25:22Z</time>
      </trkpt>
      <trkpt lat="46.2123" lon="3.15104">
        <ele>293.82</ele>
        <time>2021-08-14T05:25:23Z</time>
      </trkpt>
      <trkpt lat="46.21228" lon="3.15104">
        <ele>293.82</ele>
        <time>2021-08-14T05:25:24Z</time>
      </trkpt>
      <trkpt lat="46.21227" lon="3.15105">
        <ele>294.3</ele>
        <time>2021-08-14T05:25:25Z</time>
      </trkpt>
      <trkpt lat="46.21225" lon="3.15105">
        <ele>294.3</ele>
        <time>2021-08-14T05:25:26Z</time>
      </trkpt>
      <trkpt lat="46.2121" lon="3.15112">
        <ele>294.78</ele>
        <time>2021-08-14T05:25:34Z</time>
      </trkpt>
      <trkpt lat="46.21196" lon="3.1512">
        <ele>294.78</ele>
        <time>2021-08-14T05:25:41Z</time>
      </trkpt>
      <trkpt lat="46.21168" lon="3.1514">
        <ele>294.78</ele>
        <time>2021-08-14T05:25:49Z</time>
      </trkpt>
      <trkpt lat="46.21155" lon="3.15149">
        <ele>293.34</ele>
        <time>2021-08-14T05:25:52Z</time>
      </trkpt>
      <trkpt lat="46.21118" lon="3.15176">
        <ele>289.97</ele>
        <time>2021-08-14T05:25:59Z</time>
      </trkpt>
      <trkpt lat="46.21112" lon="3.15181">
        <ele>289.97</ele>
        <time>2021-08-14T05:26:00Z</time>
      </trkpt>
      <trkpt lat="46.2107" lon="3.15212">
        <ele>288.05</ele>
        <time>2021-08-14T05:26:07Z</time>
      </trkpt>
      <trkpt lat="46.21024" lon="3.15246">
        <ele>286.61</ele>
        <time>2021-08-14T05:26:15Z</time>
      </trkpt>
      <trkpt lat="46.2099" lon="3.1527">
        <ele>286.61</ele>
        <time>2021-08-14T05:26:22Z</time>
      </trkpt>
      <trkpt lat="46.20937" lon="3.15308">
        <ele>285.65</ele>
        <time>2021-08-14T05:26:34Z</time>
      </trkpt>
      <trkpt lat="46.20901" lon="3.15338">
        <ele>285.65</ele>
        <time>2021-08-14T05:26:43Z</time>
      </trkpt>
      <trkpt lat="46.20863" lon="3.15374">
        <ele>285.65</ele>
        <time>2021-08-14T05:26:53Z</time>
      </trkpt>
      <trkpt lat="46.20855" lon="3.15381">
        <ele>285.65</ele>
        <time>2021-08-14T05:26:55Z</time>
      </trkpt>
      <trkpt lat="46.20844" lon="3.15392">
        <ele>285.65</ele>
        <time>2021-08-14T05:26:58Z</time>
      </trkpt>
      <trkpt lat="46.20837" lon="3.15399">
        <ele>285.65</ele>
        <time>2021-08-14T05:27:00Z</time>
      </trkpt>
      <trkpt lat="46.2083" lon="3.15406">
        <ele>286.61</ele>
        <time>2021-08-14T05:27:02Z</time>
      </trkpt>
      <trkpt lat="46.20827" lon="3.15409">
        <ele>286.61</ele>
        <time>2021-08-14T05:27:03Z</time>
      </trkpt>
      <trkpt lat="46.20797" lon="3.15436">
        <ele>287.57</ele>
        <time>2021-08-14T05:27:12Z</time>
      </trkpt>
      <trkpt lat="46.2077" lon="3.15463">
        <ele>288.53</ele>
        <time>2021-08-14T05:27:21Z</time>
      </trkpt>
      <trkpt lat="46.20734" lon="3.15497">
        <ele>289.97</ele>
        <time>2021-08-14T05:27:33Z</time>
      </trkpt>
      <trkpt lat="46.20706" lon="3.15517">
        <ele>290.46</ele>
        <time>2021-08-14T05:27:43Z</time>
      </trkpt>
      <trkpt lat="46.20686" lon="3.15514">
        <ele>291.9</ele>
        <time>2021-08-14T05:27:51Z</time>
      </trkpt>
      <trkpt lat="46.20668" lon="3.15515">
        <ele>291.9</ele>
        <time>2021-08-14T05:27:58Z</time>
      </trkpt>
      <trkpt lat="46.20643" lon="3.15516">
        <ele>292.86</ele>
        <time>2021-08-14T05:28:07Z</time>
      </trkpt>
      <trkpt lat="46.20624" lon="3.15516">
        <ele>292.86</ele>
        <time>2021-08-14T05:28:14Z</time>
      </trkpt>
      <trkpt lat="46.20596" lon="3.15516">
        <ele>294.3</ele>
        <time>2021-08-14T05:28:25Z</time>
      </trkpt>
      <trkpt lat="46.20577" lon="3.1552">
        <ele>295.26</ele>
        <time>2021-08-14T05:28:34Z</time>
      </trkpt>
      <trkpt lat="46.2056" lon="3.15527">
        <ele>296.22</ele>
        <time>2021-08-14T05:28:44Z</time>
      </trkpt>
      <trkpt lat="46.2054" lon="3.15535">
        <ele>297.67</ele>
        <time>2021-08-14T05:28:56Z</time>
      </trkpt>
      <trkpt lat="46.20528" lon="3.15532">
        <ele>299.11</ele>
        <time>2021-08-14T05:29:04Z</time>
      </trkpt>
      <trkpt lat="46.20527" lon="3.1553">
        <ele>299.11</ele>
        <time>2021-08-14T05:29:05Z</time>
      </trkpt>
      <trkpt lat="46.20526" lon="3.15529">
        <ele>299.11</ele>
        <time>2021-08-14T05:29:06Z</time>
      </trkpt>
      <trkpt lat="46.20525" lon="3.15528">
        <ele>299.59</ele>
        <time>2021-08-14T05:29:07Z</time>
      </trkpt>
      <trkpt lat="46.20523" lon="3.15527">
        <ele>299.59</ele>
        <time>2021-08-14T05:29:08Z</time>
      </trkpt>
      <trkpt lat="46.20522" lon="3.15526">
        <ele>299.59</ele>
        <time>2021-08-14T05:29:09Z</time>
      </trkpt>
      <trkpt lat="46.20521" lon="3.15525">
        <ele>300.07</ele>
        <time>2021-08-14T05:29:10Z</time>
      </trkpt>
      <trkpt lat="46.2052" lon="3.15524">
        <ele>300.07</ele>
        <time>2021-08-14T05:29:11Z</time>
      </trkpt>
      <trkpt lat="46.20518" lon="3.15523">
        <ele>300.07</ele>
        <time>2021-08-14T05:29:12Z</time>
      </trkpt>
      <trkpt lat="46.20517" lon="3.15522">
        <ele>300.55</ele>
        <time>2021-08-14T05:29:13Z</time>
      </trkpt>
      <trkpt lat="46.20515" lon="3.15521">
        <ele>300.55</ele>
        <time>2021-08-14T05:29:14Z</time>
      </trkpt>
      <trkpt lat="46.20514" lon="3.15521">
        <ele>300.55</ele>
        <time>2021-08-14T05:29:15Z</time>
      </trkpt>
      <trkpt lat="46.20512" lon="3.1552">
        <ele>301.03</ele>
        <time>2021-08-14T05:29:16Z</time>
      </trkpt>
      <trkpt lat="46.2051" lon="3.1552">
        <ele>301.03</ele>
        <time>2021-08-14T05:29:17Z</time>
      </trkpt>
      <trkpt lat="46.20509" lon="3.1552">
        <ele>301.03</ele>
        <time>2021-08-14T05:29:18Z</time>
      </trkpt>
      <trkpt lat="46.20507" lon="3.15519">
        <ele>301.51</ele>
        <time>2021-08-14T05:29:19Z</time>
      </trkpt>
      <trkpt lat="46.20505" lon="3.15519">
        <ele>301.51</ele>
        <time>2021-08-14T05:29:20Z</time>
      </trkpt>
      <trkpt lat="46.20494" lon="3.15516">
        <ele>301.99</ele>
        <time>2021-08-14T05:29:26Z</time>
      </trkpt>
      <trkpt lat="46.20492" lon="3.15515">
        <ele>301.99</ele>
        <time>2021-08-14T05:29:27Z</time>
      </trkpt>
      <trkpt lat="46.2049" lon="3.15515">
        <ele>301.99</ele>
        <time>2021-08-14T05:29:28Z</time>
      </trkpt>
      <trkpt lat="46.20476" lon="3.15511">
        <ele>302.95</ele>
        <time>2021-08-14T05:29:36Z</time>
      </trkpt>
      <trkpt lat="46.20461" lon="3.15507">
        <ele>303.91</ele>
        <time>2021-08-14T05:29:44Z</time>
      </trkpt>
      <trkpt lat="46.20444" lon="3.15501">
        <ele>304.88</ele>
        <time>2021-08-14T05:29:54Z</time>
      </trkpt>
      <trkpt lat="46.20427" lon="3.15493">
        <ele>306.8</ele>
        <time>2021-08-14T05:30:05Z</time>
      </trkpt>
      <trkpt lat="46.20411" lon="3.15488">
        <ele>307.76</ele>
        <time>2021-08-14T05:30:15Z</time>
      </trkpt>
      <trkpt lat="46.20398" lon="3.15483">
        <ele>309.2</ele>
        <time>2021-08-14T05:30:24Z</time>
      </trkpt>
      <trkpt lat="46.20383" lon="3.15476">
        <ele>310.64</ele>
        <time>2021-08-14T05:30:35Z</time>
      </trkpt>
      <trkpt lat="46.2037" lon="3.15472">
        <ele>312.57</ele>
        <time>2021-08-14T05:30:44Z</time>
      </trkpt>
      <trkpt lat="46.20364" lon="3.15469">
        <ele>313.53</ele>
        <time>2021-08-14T05:30:49Z</time>
      </trkpt>
      <trkpt lat="46.20353" lon="3.15466">
        <ele>314.49</ele>
        <time>2021-08-14T05:30:58Z</time>
      </trkpt>
      <trkpt lat="46.20352" lon="3.15466">
        <ele>314.49</ele>
        <time>2021-08-14T05:30:59Z</time>
      </trkpt>
      <trkpt lat="46.2035" lon="3.15465">
        <ele>314.49</ele>
        <time>2021-08-14T05:31:00Z</time>
      </trkpt>
      <trkpt lat="46.20349" lon="3.15465">
        <ele>314.97</ele>
        <time>2021-08-14T05:31:01Z</time>
      </trkpt>
      <trkpt lat="46.20348" lon="3.15465">
        <ele>314.97</ele>
        <time>2021-08-14T05:31:02Z</time>
      </trkpt>
      <trkpt lat="46.20346" lon="3.15464">
        <ele>314.97</ele>
        <time>2021-08-14T05:31:03Z</time>
      </trkpt>
      <trkpt lat="46.20345" lon="3.15463">
        <ele>315.45</ele>
        <time>2021-08-14T05:31:04Z</time>
      </trkpt>
      <trkpt lat="46.20343" lon="3.15463">
        <ele>315.45</ele>
        <time>2021-08-14T05:31:05Z</time>
      </trkpt>
      <trkpt lat="46.20342" lon="3.15463">
        <ele>315.45</ele>
        <time>2021-08-14T05:31:06Z</time>
      </trkpt>
      <trkpt lat="46.20329" lon="3.15457">
        <ele>316.89</ele>
        <time>2021-08-14T05:31:16Z</time>
      </trkpt>
      <trkpt lat="46.20318" lon="3.15453">
        <ele>318.33</ele>
        <time>2021-08-14T05:31:25Z</time>
      </trkpt>
      <trkpt lat="46.20309" lon="3.1545">
        <ele>319.3</ele>
        <time>2021-08-14T05:31:32Z</time>
      </trkpt>
      <trkpt lat="46.20301" lon="3.15449">
        <ele>320.26</ele>
        <time>2021-08-14T05:31:39Z</time>
      </trkpt>
      <trkpt lat="46.20292" lon="3.15445">
        <ele>321.22</ele>
        <time>2021-08-14T05:31:47Z</time>
      </trkpt>
      <trkpt lat="46.20285" lon="3.15441">
        <ele>322.18</ele>
        <time>2021-08-14T05:31:53Z</time>
      </trkpt>
      <trkpt lat="46.20279" lon="3.15439">
        <ele>322.66</ele>
        <time>2021-08-14T05:31:58Z</time>
      </trkpt>
      <trkpt lat="46.20278" lon="3.15438">
        <ele>322.66</ele>
        <time>2021-08-14T05:31:59Z</time>
      </trkpt>
      <trkpt lat="46.20265" lon="3.15436">
        <ele>324.1</ele>
        <time>2021-08-14T05:32:08Z</time>
      </trkpt>
      <trkpt lat="46.20254" lon="3.15431">
        <ele>325.06</ele>
        <time>2021-08-14T05:32:17Z</time>
      </trkpt>
      <trkpt lat="46.20252" lon="3.15431">
        <ele>325.54</ele>
        <time>2021-08-14T05:32:18Z</time>
      </trkpt>
      <trkpt lat="46.20251" lon="3.1543">
        <ele>325.54</ele>
        <time>2021-08-14T05:32:19Z</time>
      </trkpt>
      <trkpt lat="46.2025" lon="3.1543">
        <ele>325.54</ele>
        <time>2021-08-14T05:32:20Z</time>
      </trkpt>
      <trkpt lat="46.20249" lon="3.15429">
        <ele>326.02</ele>
        <time>2021-08-14T05:32:21Z</time>
      </trkpt>
      <trkpt lat="46.20248" lon="3.15428">
        <ele>326.02</ele>
        <time>2021-08-14T05:32:22Z</time>
      </trkpt>
      <trkpt lat="46.20246" lon="3.15428">
        <ele>326.02</ele>
        <time>2021-08-14T05:32:23Z</time>
      </trkpt>
      <trkpt lat="46.20245" lon="3.15428">
        <ele>326.5</ele>
        <time>2021-08-14T05:32:24Z</time>
      </trkpt>
      <trkpt lat="46.20244" lon="3.15427">
        <ele>326.5</ele>
        <time>2021-08-14T05:32:25Z</time>
      </trkpt>
      <trkpt lat="46.20232" lon="3.15424">
        <ele>327.95</ele>
        <time>2021-08-14T05:32:35Z</time>
      </trkpt>
      <trkpt lat="46.20219" lon="3.15418">
        <ele>329.39</ele>
        <time>2021-08-14T05:32:45Z</time>
      </trkpt>
      <trkpt lat="46.20206" lon="3.15414">
        <ele>330.83</ele>
        <time>2021-08-14T05:32:55Z</time>
      </trkpt>
      <trkpt lat="46.20195" lon="3.15409">
        <ele>331.79</ele>
        <time>2021-08-14T05:33:03Z</time>
      </trkpt>
      <trkpt lat="46.20183" lon="3.15404">
        <ele>333.23</ele>
        <time>2021-08-14T05:33:12Z</time>
      </trkpt>
      <trkpt lat="46.20179" lon="3.15402">
        <ele>334.2</ele>
        <time>2021-08-14T05:33:16Z</time>
      </trkpt>
      <trkpt lat="46.20177" lon="3.15402">
        <ele>334.2</ele>
        <time>2021-08-14T05:33:17Z</time>
      </trkpt>
      <trkpt lat="46.20173" lon="3.15401">
        <ele>334.68</ele>
        <time>2021-08-14T05:33:20Z</time>
      </trkpt>
      <trkpt lat="46.20172" lon="3.154">
        <ele>334.68</ele>
        <time>2021-08-14T05:33:21Z</time>
      </trkpt>
      <trkpt lat="46.20171" lon="3.15399">
        <ele>335.16</ele>
        <time>2021-08-14T05:33:22Z</time>
      </trkpt>
      <trkpt lat="46.20158" lon="3.15395">
        <ele>336.12</ele>
        <time>2021-08-14T05:33:32Z</time>
      </trkpt>
      <trkpt lat="46.20155" lon="3.15394">
        <ele>337.08</ele>
        <time>2021-08-14T05:33:34Z</time>
      </trkpt>
      <trkpt lat="46.20154" lon="3.15394">
        <ele>337.08</ele>
        <time>2021-08-14T05:33:35Z</time>
      </trkpt>
      <trkpt lat="46.20153" lon="3.15393">
        <ele>337.08</ele>
        <time>2021-08-14T05:33:36Z</time>
      </trkpt>
      <trkpt lat="46.20152" lon="3.15393">
        <ele>337.08</ele>
        <time>2021-08-14T05:33:37Z</time>
      </trkpt>
      <trkpt lat="46.2015" lon="3.15392">
        <ele>337.56</ele>
        <time>2021-08-14T05:33:38Z</time>
      </trkpt>
      <trkpt lat="46.20149" lon="3.15392">
        <ele>337.56</ele>
        <time>2021-08-14T05:33:39Z</time>
      </trkpt>
      <trkpt lat="46.20148" lon="3.15391">
        <ele>337.56</ele>
        <time>2021-08-14T05:33:40Z</time>
      </trkpt>
      <trkpt lat="46.20147" lon="3.15391">
        <ele>338.04</ele>
        <time>2021-08-14T05:33:41Z</time>
      </trkpt>
      <trkpt lat="46.20145" lon="3.1539">
        <ele>338.04</ele>
        <time>2021-08-14T05:33:42Z</time>
      </trkpt>
      <trkpt lat="46.20144" lon="3.1539">
        <ele>338.04</ele>
        <time>2021-08-14T05:33:43Z</time>
      </trkpt>
      <trkpt lat="46.2014" lon="3.15388">
        <ele>339</ele>
        <time>2021-08-14T05:33:46Z</time>
      </trkpt>
      <trkpt lat="46.20139" lon="3.15388">
        <ele>339</ele>
        <time>2021-08-14T05:33:47Z</time>
      </trkpt>
      <trkpt lat="46.20137" lon="3.15387">
        <ele>339</ele>
        <time>2021-08-14T05:33:48Z</time>
      </trkpt>
      <trkpt lat="46.20124" lon="3.15382">
        <ele>340.44</ele>
        <time>2021-08-14T05:33:58Z</time>
      </trkpt>
      <trkpt lat="46.20113" lon="3.15377">
        <ele>341.89</ele>
        <time>2021-08-14T05:34:07Z</time>
      </trkpt>
      <trkpt lat="46.20098" lon="3.15371">
        <ele>343.81</ele>
        <time>2021-08-14T05:34:18Z</time>
      </trkpt>
      <trkpt lat="46.20083" lon="3.15365">
        <ele>345.73</ele>
        <time>2021-08-14T05:34:29Z</time>
      </trkpt>
      <trkpt lat="46.20073" lon="3.15362">
        <ele>346.69</ele>
        <time>2021-08-14T05:34:37Z</time>
      </trkpt>
      <trkpt lat="46.20067" lon="3.1536">
        <ele>347.17</ele>
        <time>2021-08-14T05:34:41Z</time>
      </trkpt>
      <trkpt lat="46.20066" lon="3.1536">
        <ele>347.65</ele>
        <time>2021-08-14T05:34:42Z</time>
      </trkpt>
      <trkpt lat="46.20064" lon="3.15359">
        <ele>347.65</ele>
        <time>2021-08-14T05:34:43Z</time>
      </trkpt>
      <trkpt lat="46.20063" lon="3.15359">
        <ele>347.65</ele>
        <time>2021-08-14T05:34:44Z</time>
      </trkpt>
      <trkpt lat="46.20061" lon="3.15359">
        <ele>348.13</ele>
        <time>2021-08-14T05:34:45Z</time>
      </trkpt>
      <trkpt lat="46.20059" lon="3.15358">
        <ele>348.13</ele>
        <time>2021-08-14T05:34:46Z</time>
      </trkpt>
      <trkpt lat="46.20058" lon="3.15357">
        <ele>348.13</ele>
        <time>2021-08-14T05:34:47Z</time>
      </trkpt>
      <trkpt lat="46.20056" lon="3.15356">
        <ele>348.62</ele>
        <time>2021-08-14T05:34:48Z</time>
      </trkpt>
      <trkpt lat="46.20054" lon="3.15355">
        <ele>348.62</ele>
        <time>2021-08-14T05:34:49Z</time>
      </trkpt>
      <trkpt lat="46.20052" lon="3.15355">
        <ele>348.62</ele>
        <time>2021-08-14T05:34:50Z</time>
      </trkpt>
      <trkpt lat="46.20051" lon="3.15354">
        <ele>349.1</ele>
        <time>2021-08-14T05:34:51Z</time>
      </trkpt>
      <trkpt lat="46.20049" lon="3.15353">
        <ele>349.1</ele>
        <time>2021-08-14T05:34:52Z</time>
      </trkpt>
      <trkpt lat="46.20048" lon="3.15353">
        <ele>349.1</ele>
        <time>2021-08-14T05:34:53Z</time>
      </trkpt>
      <trkpt lat="46.20046" lon="3.15353">
        <ele>349.58</ele>
        <time>2021-08-14T05:34:54Z</time>
      </trkpt>
      <trkpt lat="46.20035" lon="3.1535">
        <ele>351.02</ele>
        <time>2021-08-14T05:35:02Z</time>
      </trkpt>
      <trkpt lat="46.20028" lon="3.1534">
        <ele>351.98</ele>
        <time>2021-08-14T05:35:09Z</time>
      </trkpt>
      <trkpt lat="46.20025" lon="3.15317">
        <ele>351.98</ele>
        <time>2021-08-14T05:35:17Z</time>
      </trkpt>
      <trkpt lat="46.20024" lon="3.15314">
        <ele>351.98</ele>
        <time>2021-08-14T05:35:22Z</time>
      </trkpt>
      <trkpt lat="46.20024" lon="3.15315">
        <ele>351.98</ele>
        <time>2021-08-14T05:35:32Z</time>
      </trkpt>
      <trkpt lat="46.20024" lon="3.15311">
        <ele>351.98</ele>
        <time>2021-08-14T05:35:45Z</time>
      </trkpt>
      <trkpt lat="46.20019" lon="3.15289">
        <ele>351.98</ele>
        <time>2021-08-14T05:35:52Z</time>
      </trkpt>
      <trkpt lat="46.20011" lon="3.15246">
        <ele>350.06</ele>
        <time>2021-08-14T05:36:01Z</time>
      </trkpt>
      <trkpt lat="46.20002" lon="3.15197">
        <ele>349.1</ele>
        <time>2021-08-14T05:36:10Z</time>
      </trkpt>
      <trkpt lat="46.19998" lon="3.15172">
        <ele>349.1</ele>
        <time>2021-08-14T05:36:17Z</time>
      </trkpt>
      <trkpt lat="46.19995" lon="3.15135">
        <ele>349.1</ele>
        <time>2021-08-14T05:36:25Z</time>
      </trkpt>
      <trkpt lat="46.19994" lon="3.15129">
        <ele>348.62</ele>
        <time>2021-08-14T05:36:26Z</time>
      </trkpt>
      <trkpt lat="46.19991" lon="3.15118">
        <ele>348.62</ele>
        <time>2021-08-14T05:36:28Z</time>
      </trkpt>
      <trkpt lat="46.19991" lon="3.1511">
        <ele>347.17</ele>
        <time>2021-08-14T05:36:29Z</time>
      </trkpt>
      <trkpt lat="46.19991" lon="3.15103">
        <ele>347.17</ele>
        <time>2021-08-14T05:36:30Z</time>
      </trkpt>
      <trkpt lat="46.19992" lon="3.15043">
        <ele>343.81</ele>
        <time>2021-08-14T05:36:36Z</time>
      </trkpt>
      <trkpt lat="46.19993" lon="3.15009">
        <ele>342.37</ele>
        <time>2021-08-14T05:36:40Z</time>
      </trkpt>
      <trkpt lat="46.19992" lon="3.14965">
        <ele>339.96</ele>
        <time>2021-08-14T05:36:47Z</time>
      </trkpt>
      <trkpt lat="46.19992" lon="3.1495">
        <ele>339</ele>
        <time>2021-08-14T05:36:49Z</time>
      </trkpt>
      <trkpt lat="46.19992" lon="3.14942">
        <ele>338.52</ele>
        <time>2021-08-14T05:36:50Z</time>
      </trkpt>
      <trkpt lat="46.19994" lon="3.14924">
        <ele>337.56</ele>
        <time>2021-08-14T05:36:52Z</time>
      </trkpt>
      <trkpt lat="46.19995" lon="3.14916">
        <ele>336.6</ele>
        <time>2021-08-14T05:36:53Z</time>
      </trkpt>
      <trkpt lat="46.19998" lon="3.14908">
        <ele>335.64</ele>
        <time>2021-08-14T05:36:54Z</time>
      </trkpt>
      <trkpt lat="46.2" lon="3.14901">
        <ele>335.16</ele>
        <time>2021-08-14T05:36:55Z</time>
      </trkpt>
      <trkpt lat="46.20004" lon="3.14895">
        <ele>334.68</ele>
        <time>2021-08-14T05:36:56Z</time>
      </trkpt>
      <trkpt lat="46.20008" lon="3.1489">
        <ele>334.68</ele>
        <time>2021-08-14T05:36:57Z</time>
      </trkpt>
      <trkpt lat="46.20013" lon="3.14885">
        <ele>333.23</ele>
        <time>2021-08-14T05:36:58Z</time>
      </trkpt>
      <trkpt lat="46.20017" lon="3.14882">
        <ele>333.23</ele>
        <time>2021-08-14T05:36:59Z</time>
      </trkpt>
      <trkpt lat="46.20022" lon="3.14878">
        <ele>332.75</ele>
        <time>2021-08-14T05:37:00Z</time>
      </trkpt>
      <trkpt lat="46.20025" lon="3.14873">
        <ele>331.79</ele>
        <time>2021-08-14T05:37:01Z</time>
      </trkpt>
      <trkpt lat="46.20025" lon="3.14866">
        <ele>331.79</ele>
        <time>2021-08-14T05:37:02Z</time>
      </trkpt>
      <trkpt lat="46.20025" lon="3.14859">
        <ele>330.83</ele>
        <time>2021-08-14T05:37:03Z</time>
      </trkpt>
      <trkpt lat="46.20025" lon="3.14851">
        <ele>330.35</ele>
        <time>2021-08-14T05:37:04Z</time>
      </trkpt>
      <trkpt lat="46.20024" lon="3.14842">
        <ele>330.35</ele>
        <time>2021-08-14T05:37:05Z</time>
      </trkpt>
      <trkpt lat="46.20015" lon="3.14784">
        <ele>327.47</ele>
        <time>2021-08-14T05:37:11Z</time>
      </trkpt>
      <trkpt lat="46.20009" lon="3.14738">
        <ele>323.62</ele>
        <time>2021-08-14T05:37:15Z</time>
      </trkpt>
      <trkpt lat="46.20006" lon="3.14712">
        <ele>323.14</ele>
        <time>2021-08-14T05:37:17Z</time>
      </trkpt>
      <trkpt lat="46.20005" lon="3.14677">
        <ele>321.7</ele>
        <time>2021-08-14T05:37:21Z</time>
      </trkpt>
      <trkpt lat="46.20006" lon="3.14677">
        <ele>321.7</ele>
        <time>2021-08-14T05:37:23Z</time>
      </trkpt>
      <trkpt lat="46.20007" lon="3.14688">
        <ele>321.7</ele>
        <time>2021-08-14T05:37:28Z</time>
      </trkpt>
      <trkpt lat="46.20007" lon="3.14691">
        <ele>321.7</ele>
        <time>2021-08-14T05:37:29Z</time>
      </trkpt>
      <trkpt lat="46.20007" lon="3.14694">
        <ele>321.7</ele>
        <time>2021-08-14T05:37:30Z</time>
      </trkpt>
      <trkpt lat="46.20006" lon="3.14697">
        <ele>321.7</ele>
        <time>2021-08-14T05:37:31Z</time>
      </trkpt>
      <trkpt lat="46.20006" lon="3.14701">
        <ele>321.7</ele>
        <time>2021-08-14T05:37:32Z</time>
      </trkpt>
      <trkpt lat="46.20006" lon="3.14716">
        <ele>323.14</ele>
        <time>2021-08-14T05:37:38Z</time>
      </trkpt>
      <trkpt lat="46.20002" lon="3.1473">
        <ele>324.1</ele>
        <time>2021-08-14T05:37:46Z</time>
      </trkpt>
      <trkpt lat="46.19996" lon="3.14737">
        <ele>325.54</ele>
        <time>2021-08-14T05:37:53Z</time>
      </trkpt>
      <trkpt lat="46.19995" lon="3.14738">
        <ele>325.54</ele>
        <time>2021-08-14T05:37:54Z</time>
      </trkpt>
      <trkpt lat="46.19994" lon="3.14739">
        <ele>326.02</ele>
        <time>2021-08-14T05:37:55Z</time>
      </trkpt>
      <trkpt lat="46.19993" lon="3.1474">
        <ele>326.02</ele>
        <time>2021-08-14T05:37:56Z</time>
      </trkpt>
      <trkpt lat="46.19992" lon="3.14741">
        <ele>326.02</ele>
        <time>2021-08-14T05:37:57Z</time>
      </trkpt>
      <trkpt lat="46.19991" lon="3.14742">
        <ele>326.5</ele>
        <time>2021-08-14T05:37:58Z</time>
      </trkpt>
      <trkpt lat="46.19991" lon="3.14744">
        <ele>326.5</ele>
        <time>2021-08-14T05:37:59Z</time>
      </trkpt>
      <trkpt lat="46.19985" lon="3.14749">
        <ele>327.95</ele>
        <time>2021-08-14T05:38:06Z</time>
      </trkpt>
      <trkpt lat="46.19985" lon="3.14751">
        <ele>327.95</ele>
        <time>2021-08-14T05:38:07Z</time>
      </trkpt>
      <trkpt lat="46.19984" lon="3.14752">
        <ele>327.95</ele>
        <time>2021-08-14T05:38:08Z</time>
      </trkpt>
      <trkpt lat="46.19981" lon="3.14757">
        <ele>328.91</ele>
        <time>2021-08-14T05:38:12Z</time>
      </trkpt>
      <trkpt lat="46.1998" lon="3.14758">
        <ele>328.91</ele>
        <time>2021-08-14T05:38:13Z</time>
      </trkpt>
      <trkpt lat="46.1998" lon="3.14759">
        <ele>328.91</ele>
        <time>2021-08-14T05:38:14Z</time>
      </trkpt>
      <trkpt lat="46.19979" lon="3.1476">
        <ele>329.39</ele>
        <time>2021-08-14T05:38:15Z</time>
      </trkpt>
      <trkpt lat="46.19978" lon="3.14762">
        <ele>329.39</ele>
        <time>2021-08-14T05:38:16Z</time>
      </trkpt>
      <trkpt lat="46.19977" lon="3.14763">
        <ele>329.39</ele>
        <time>2021-08-14T05:38:17Z</time>
      </trkpt>
      <trkpt lat="46.1997" lon="3.14773">
        <ele>330.83</ele>
        <time>2021-08-14T05:38:26Z</time>
      </trkpt>
      <trkpt lat="46.19959" lon="3.1478">
        <ele>332.75</ele>
        <time>2021-08-14T05:38:36Z</time>
      </trkpt>
      <trkpt lat="46.19957" lon="3.14781">
        <ele>332.75</ele>
        <time>2021-08-14T05:38:37Z</time>
      </trkpt>
      <trkpt lat="46.19956" lon="3.1478">
        <ele>332.75</ele>
        <time>2021-08-14T05:38:38Z</time>
      </trkpt>
      <trkpt lat="46.19955" lon="3.1478">
        <ele>332.75</ele>
        <time>2021-08-14T05:38:39Z</time>
      </trkpt>
      <trkpt lat="46.19953" lon="3.14779">
        <ele>332.75</ele>
        <time>2021-08-14T05:38:40Z</time>
      </trkpt>
      <trkpt lat="46.19952" lon="3.14779">
        <ele>332.75</ele>
        <time>2021-08-14T05:38:41Z</time>
      </trkpt>
      <trkpt lat="46.1995" lon="3.14778">
        <ele>332.75</ele>
        <time>2021-08-14T05:38:42Z</time>
      </trkpt>
      <trkpt lat="46.19932" lon="3.14772">
        <ele>333.71</ele>
        <time>2021-08-14T05:38:51Z</time>
      </trkpt>
      <trkpt lat="46.19908" lon="3.14766">
        <ele>334.2</ele>
        <time>2021-08-14T05:39:02Z</time>
      </trkpt>
      <trkpt lat="46.19883" lon="3.1476">
        <ele>335.64</ele>
        <time>2021-08-14T05:39:13Z</time>
      </trkpt>
      <trkpt lat="46.19859" lon="3.14753">
        <ele>335.64</ele>
        <time>2021-08-14T05:39:22Z</time>
      </trkpt>
      <trkpt lat="46.19838" lon="3.14742">
        <ele>335.64</ele>
        <time>2021-08-14T05:39:29Z</time>
      </trkpt>
      <trkpt lat="46.19821" lon="3.14733">
        <ele>335.64</ele>
        <time>2021-08-14T05:39:36Z</time>
      </trkpt>
      <trkpt lat="46.19798" lon="3.14727">
        <ele>335.64</ele>
        <time>2021-08-14T05:39:45Z</time>
      </trkpt>
      <trkpt lat="46.19783" lon="3.14723">
        <ele>335.64</ele>
        <time>2021-08-14T05:39:52Z</time>
      </trkpt>
      <trkpt lat="46.19762" lon="3.14719">
        <ele>336.6</ele>
        <time>2021-08-14T05:40:01Z</time>
      </trkpt>
      <trkpt lat="46.19748" lon="3.14718">
        <ele>337.56</ele>
        <time>2021-08-14T05:40:08Z</time>
      </trkpt>
      <trkpt lat="46.19734" lon="3.14717">
        <ele>338.04</ele>
        <time>2021-08-14T05:40:15Z</time>
      </trkpt>
      <trkpt lat="46.19714" lon="3.14717">
        <ele>338.04</ele>
        <time>2021-08-14T05:40:24Z</time>
      </trkpt>
      <trkpt lat="46.19703" lon="3.14716">
        <ele>339</ele>
        <time>2021-08-14T05:40:31Z</time>
      </trkpt>
      <trkpt lat="46.19684" lon="3.14716">
        <ele>339.96</ele>
        <time>2021-08-14T05:40:42Z</time>
      </trkpt>
      <trkpt lat="46.19671" lon="3.14716">
        <ele>340.92</ele>
        <time>2021-08-14T05:40:50Z</time>
      </trkpt>
      <trkpt lat="46.19653" lon="3.14715">
        <ele>342.37</ele>
        <time>2021-08-14T05:41:01Z</time>
      </trkpt>
      <trkpt lat="46.19634" lon="3.14713">
        <ele>342.85</ele>
        <time>2021-08-14T05:41:12Z</time>
      </trkpt>
      <trkpt lat="46.19618" lon="3.14711">
        <ele>343.33</ele>
        <time>2021-08-14T05:41:21Z</time>
      </trkpt>
      <trkpt lat="46.19595" lon="3.14709">
        <ele>343.81</ele>
        <time>2021-08-14T05:41:33Z</time>
      </trkpt>
      <trkpt lat="46.19586" lon="3.14709">
        <ele>344.29</ele>
        <time>2021-08-14T05:41:38Z</time>
      </trkpt>
      <trkpt lat="46.19585" lon="3.1471">
        <ele>344.29</ele>
        <time>2021-08-14T05:41:39Z</time>
      </trkpt>
      <trkpt lat="46.19578" lon="3.14724">
        <ele>345.73</ele>
        <time>2021-08-14T05:41:49Z</time>
      </trkpt>
      <trkpt lat="46.19577" lon="3.14725">
        <ele>346.21</ele>
        <time>2021-08-14T05:41:50Z</time>
      </trkpt>
      <trkpt lat="46.19572" lon="3.14737">
        <ele>347.65</ele>
        <time>2021-08-14T05:41:58Z</time>
      </trkpt>
      <trkpt lat="46.1957" lon="3.14741">
        <ele>348.13</ele>
        <time>2021-08-14T05:42:01Z</time>
      </trkpt>
      <trkpt lat="46.1957" lon="3.14743">
        <ele>348.13</ele>
        <time>2021-08-14T05:42:02Z</time>
      </trkpt>
      <trkpt lat="46.19566" lon="3.14754">
        <ele>349.58</ele>
        <time>2021-08-14T05:42:10Z</time>
      </trkpt>
      <trkpt lat="46.19566" lon="3.14756">
        <ele>349.58</ele>
        <time>2021-08-14T05:42:11Z</time>
      </trkpt>
      <trkpt lat="46.19565" lon="3.14757">
        <ele>349.1</ele>
        <time>2021-08-14T05:42:12Z</time>
      </trkpt>
      <trkpt lat="46.19565" lon="3.14759">
        <ele>350.06</ele>
        <time>2021-08-14T05:42:13Z</time>
      </trkpt>
      <trkpt lat="46.19564" lon="3.1476">
        <ele>350.06</ele>
        <time>2021-08-14T05:42:14Z</time>
      </trkpt>
      <trkpt lat="46.19564" lon="3.14762">
        <ele>350.06</ele>
        <time>2021-08-14T05:42:15Z</time>
      </trkpt>
      <trkpt lat="46.19564" lon="3.14763">
        <ele>350.06</ele>
        <time>2021-08-14T05:42:16Z</time>
      </trkpt>
      <trkpt lat="46.19563" lon="3.14765">
        <ele>350.54</ele>
        <time>2021-08-14T05:42:17Z</time>
      </trkpt>
      <trkpt lat="46.19563" lon="3.14766">
        <ele>350.54</ele>
        <time>2021-08-14T05:42:18Z</time>
      </trkpt>
      <trkpt lat="46.19562" lon="3.14768">
        <ele>350.54</ele>
        <time>2021-08-14T05:42:19Z</time>
      </trkpt>
      <trkpt lat="46.19562" lon="3.1477">
        <ele>351.02</ele>
        <time>2021-08-14T05:42:20Z</time>
      </trkpt>
      <trkpt lat="46.19561" lon="3.14774">
        <ele>351.5</ele>
        <time>2021-08-14T05:42:23Z</time>
      </trkpt>
      <trkpt lat="46.19561" lon="3.14776">
        <ele>351.5</ele>
        <time>2021-08-14T05:42:24Z</time>
      </trkpt>
      <trkpt lat="46.1956" lon="3.14777">
        <ele>351.5</ele>
        <time>2021-08-14T05:42:25Z</time>
      </trkpt>
      <trkpt lat="46.1956" lon="3.14779">
        <ele>351.98</ele>
        <time>2021-08-14T05:42:26Z</time>
      </trkpt>
      <trkpt lat="46.19559" lon="3.1478">
        <ele>351.98</ele>
        <time>2021-08-14T05:42:27Z</time>
      </trkpt>
      <trkpt lat="46.19559" lon="3.14781">
        <ele>351.98</ele>
        <time>2021-08-14T05:42:28Z</time>
      </trkpt>
      <trkpt lat="46.19559" lon="3.14783">
        <ele>351.98</ele>
        <time>2021-08-14T05:42:29Z</time>
      </trkpt>
      <trkpt lat="46.19558" lon="3.14785">
        <ele>351.98</ele>
        <time>2021-08-14T05:42:30Z</time>
      </trkpt>
      <trkpt lat="46.19557" lon="3.14786">
        <ele>352.46</ele>
        <time>2021-08-14T05:42:31Z</time>
      </trkpt>
      <trkpt lat="46.19557" lon="3.14787">
        <ele>352.46</ele>
        <time>2021-08-14T05:42:32Z</time>
      </trkpt>
      <trkpt lat="46.19553" lon="3.14798">
        <ele>354.38</ele>
        <time>2021-08-14T05:42:40Z</time>
      </trkpt>
      <trkpt lat="46.1955" lon="3.1481">
        <ele>355.83</ele>
        <time>2021-08-14T05:42:48Z</time>
      </trkpt>
      <trkpt lat="46.19546" lon="3.14822">
        <ele>357.75</ele>
        <time>2021-08-14T05:42:56Z</time>
      </trkpt>
      <trkpt lat="46.19546" lon="3.14823">
        <ele>357.75</ele>
        <time>2021-08-14T05:42:57Z</time>
      </trkpt>
      <trkpt lat="46.19544" lon="3.14826">
        <ele>358.23</ele>
        <time>2021-08-14T05:42:59Z</time>
      </trkpt>
      <trkpt lat="46.19544" lon="3.14827">
        <ele>358.23</ele>
        <time>2021-08-14T05:43:00Z</time>
      </trkpt>
      <trkpt lat="46.19539" lon="3.14839">
        <ele>359.19</ele>
        <time>2021-08-14T05:43:08Z</time>
      </trkpt>
      <trkpt lat="46.19538" lon="3.1484">
        <ele>360.15</ele>
        <time>2021-08-14T05:43:09Z</time>
      </trkpt>
      <trkpt lat="46.19537" lon="3.14846">
        <ele>360.15</ele>
        <time>2021-08-14T05:43:13Z</time>
      </trkpt>
      <trkpt lat="46.19532" lon="3.14861">
        <ele>361.11</ele>
        <time>2021-08-14T05:43:23Z</time>
      </trkpt>
      <trkpt lat="46.19531" lon="3.14862">
        <ele>361.11</ele>
        <time>2021-08-14T05:43:24Z</time>
      </trkpt>
      <trkpt lat="46.19531" lon="3.14864">
        <ele>362.07</ele>
        <time>2021-08-14T05:43:25Z</time>
      </trkpt>
      <trkpt lat="46.1953" lon="3.14866">
        <ele>362.07</ele>
        <time>2021-08-14T05:43:26Z</time>
      </trkpt>
      <trkpt lat="46.1953" lon="3.14867">
        <ele>362.07</ele>
        <time>2021-08-14T05:43:27Z</time>
      </trkpt>
      <trkpt lat="46.19529" lon="3.14869">
        <ele>362.07</ele>
        <time>2021-08-14T05:43:28Z</time>
      </trkpt>
      <trkpt lat="46.19527" lon="3.14878">
        <ele>363.04</ele>
        <time>2021-08-14T05:43:34Z</time>
      </trkpt>
      <trkpt lat="46.19526" lon="3.14879">
        <ele>363.04</ele>
        <time>2021-08-14T05:43:35Z</time>
      </trkpt>
      <trkpt lat="46.19525" lon="3.14881">
        <ele>363.52</ele>
        <time>2021-08-14T05:43:36Z</time>
      </trkpt>
      <trkpt lat="46.19522" lon="3.14891">
        <ele>364.48</ele>
        <time>2021-08-14T05:43:43Z</time>
      </trkpt>
      <trkpt lat="46.19521" lon="3.14896">
        <ele>364.96</ele>
        <time>2021-08-14T05:43:46Z</time>
      </trkpt>
      <trkpt lat="46.1952" lon="3.14897">
        <ele>364.96</ele>
        <time>2021-08-14T05:43:47Z</time>
      </trkpt>
      <trkpt lat="46.1952" lon="3.14898">
        <ele>365.44</ele>
        <time>2021-08-14T05:43:48Z</time>
      </trkpt>
      <trkpt lat="46.19519" lon="3.149">
        <ele>365.44</ele>
        <time>2021-08-14T05:43:49Z</time>
      </trkpt>
      <trkpt lat="46.19519" lon="3.14901">
        <ele>365.92</ele>
        <time>2021-08-14T05:43:50Z</time>
      </trkpt>
      <trkpt lat="46.19514" lon="3.14915">
        <ele>367.36</ele>
        <time>2021-08-14T05:44:00Z</time>
      </trkpt>
      <trkpt lat="46.19513" lon="3.14916">
        <ele>367.84</ele>
        <time>2021-08-14T05:44:01Z</time>
      </trkpt>
      <trkpt lat="46.19512" lon="3.14917">
        <ele>367.84</ele>
        <time>2021-08-14T05:44:02Z</time>
      </trkpt>
      <trkpt lat="46.19512" lon="3.14918">
        <ele>368.32</ele>
        <time>2021-08-14T05:44:03Z</time>
      </trkpt>
      <trkpt lat="46.19511" lon="3.1492">
        <ele>368.32</ele>
        <time>2021-08-14T05:44:04Z</time>
      </trkpt>
      <trkpt lat="46.19511" lon="3.14921">
        <ele>368.32</ele>
        <time>2021-08-14T05:44:05Z</time>
      </trkpt>
      <trkpt lat="46.19504" lon="3.14933">
        <ele>369.76</ele>
        <time>2021-08-14T05:44:15Z</time>
      </trkpt>
      <trkpt lat="46.19496" lon="3.14943">
        <ele>371.21</ele>
        <time>2021-08-14T05:44:24Z</time>
      </trkpt>
      <trkpt lat="46.19489" lon="3.14952">
        <ele>372.65</ele>
        <time>2021-08-14T05:44:33Z</time>
      </trkpt>
      <trkpt lat="46.19488" lon="3.14953">
        <ele>372.65</ele>
        <time>2021-08-14T05:44:34Z</time>
      </trkpt>
      <trkpt lat="46.19487" lon="3.14954">
        <ele>373.61</ele>
        <time>2021-08-14T05:44:35Z</time>
      </trkpt>
      <trkpt lat="46.19486" lon="3.14955">
        <ele>373.61</ele>
        <time>2021-08-14T05:44:36Z</time>
      </trkpt>
      <trkpt lat="46.19485" lon="3.14956">
        <ele>373.61</ele>
        <time>2021-08-14T05:44:37Z</time>
      </trkpt>
      <trkpt lat="46.19484" lon="3.14957">
        <ele>374.09</ele>
        <time>2021-08-14T05:44:38Z</time>
      </trkpt>
      <trkpt lat="46.1948" lon="3.14962">
        <ele>374.57</ele>
        <time>2021-08-14T05:44:42Z</time>
      </trkpt>
      <trkpt lat="46.19479" lon="3.14963">
        <ele>374.57</ele>
        <time>2021-08-14T05:44:43Z</time>
      </trkpt>
      <trkpt lat="46.19478" lon="3.14964">
        <ele>375.05</ele>
        <time>2021-08-14T05:44:44Z</time>
      </trkpt>
      <trkpt lat="46.19478" lon="3.14965">
        <ele>375.05</ele>
        <time>2021-08-14T05:44:45Z</time>
      </trkpt>
      <trkpt lat="46.19477" lon="3.14966">
        <ele>375.53</ele>
        <time>2021-08-14T05:44:46Z</time>
      </trkpt>
      <trkpt lat="46.19476" lon="3.14968">
        <ele>375.53</ele>
        <time>2021-08-14T05:44:47Z</time>
      </trkpt>
      <trkpt lat="46.19475" lon="3.14969">
        <ele>375.53</ele>
        <time>2021-08-14T05:44:48Z</time>
      </trkpt>
      <trkpt lat="46.19474" lon="3.1497">
        <ele>375.53</ele>
        <time>2021-08-14T05:44:49Z</time>
      </trkpt>
      <trkpt lat="46.19473" lon="3.14971">
        <ele>376.01</ele>
        <time>2021-08-14T05:44:50Z</time>
      </trkpt>
      <trkpt lat="46.19472" lon="3.14972">
        <ele>376.01</ele>
        <time>2021-08-14T05:44:51Z</time>
      </trkpt>
      <trkpt lat="46.19472" lon="3.14973">
        <ele>376.49</ele>
        <time>2021-08-14T05:44:52Z</time>
      </trkpt>
      <trkpt lat="46.19471" lon="3.14973">
        <ele>376.49</ele>
        <time>2021-08-14T05:44:53Z</time>
      </trkpt>
      <trkpt lat="46.19466" lon="3.1498">
        <ele>377.45</ele>
        <time>2021-08-14T05:44:59Z</time>
      </trkpt>
      <trkpt lat="46.19459" lon="3.14987">
        <ele>378.42</ele>
        <time>2021-08-14T05:45:07Z</time>
      </trkpt>
      <trkpt lat="46.19458" lon="3.14988">
        <ele>378.42</ele>
        <time>2021-08-14T05:45:08Z</time>
      </trkpt>
      <trkpt lat="46.19455" lon="3.14991">
        <ele>379.38</ele>
        <time>2021-08-14T05:45:11Z</time>
      </trkpt>
      <trkpt lat="46.19454" lon="3.14992">
        <ele>379.38</ele>
        <time>2021-08-14T05:45:12Z</time>
      </trkpt>
      <trkpt lat="46.19453" lon="3.14992">
        <ele>379.86</ele>
        <time>2021-08-14T05:45:13Z</time>
      </trkpt>
      <trkpt lat="46.19452" lon="3.14993">
        <ele>379.86</ele>
        <time>2021-08-14T05:45:14Z</time>
      </trkpt>
      <trkpt lat="46.19452" lon="3.14994">
        <ele>379.86</ele>
        <time>2021-08-14T05:45:15Z</time>
      </trkpt>
      <trkpt lat="46.19451" lon="3.14995">
        <ele>380.34</ele>
        <time>2021-08-14T05:45:16Z</time>
      </trkpt>
      <trkpt lat="46.1945" lon="3.14996">
        <ele>380.34</ele>
        <time>2021-08-14T05:45:17Z</time>
      </trkpt>
      <trkpt lat="46.19449" lon="3.14997">
        <ele>380.82</ele>
        <time>2021-08-14T05:45:18Z</time>
      </trkpt>
      <trkpt lat="46.19441" lon="3.15004">
        <ele>382.26</ele>
        <time>2021-08-14T05:45:26Z</time>
      </trkpt>
      <trkpt lat="46.19433" lon="3.1501">
        <ele>383.22</ele>
        <time>2021-08-14T05:45:33Z</time>
      </trkpt>
      <trkpt lat="46.19432" lon="3.15011">
        <ele>383.7</ele>
        <time>2021-08-14T05:45:34Z</time>
      </trkpt>
      <trkpt lat="46.19431" lon="3.15012">
        <ele>383.7</ele>
        <time>2021-08-14T05:45:35Z</time>
      </trkpt>
      <trkpt lat="46.1943" lon="3.15013">
        <ele>384.18</ele>
        <time>2021-08-14T05:45:36Z</time>
      </trkpt>
      <trkpt lat="46.19429" lon="3.15014">
        <ele>384.18</ele>
        <time>2021-08-14T05:45:37Z</time>
      </trkpt>
      <trkpt lat="46.19422" lon="3.1502">
        <ele>385.63</ele>
        <time>2021-08-14T05:45:44Z</time>
      </trkpt>
      <trkpt lat="46.19422" lon="3.15022">
        <ele>385.63</ele>
        <time>2021-08-14T05:45:45Z</time>
      </trkpt>
      <trkpt lat="46.19421" lon="3.15022">
        <ele>385.63</ele>
        <time>2021-08-14T05:45:46Z</time>
      </trkpt>
      <trkpt lat="46.1942" lon="3.15023">
        <ele>386.11</ele>
        <time>2021-08-14T05:45:47Z</time>
      </trkpt>
      <trkpt lat="46.19419" lon="3.15024">
        <ele>386.11</ele>
        <time>2021-08-14T05:45:48Z</time>
      </trkpt>
      <trkpt lat="46.19414" lon="3.15027">
        <ele>386.59</ele>
        <time>2021-08-14T05:45:52Z</time>
      </trkpt>
      <trkpt lat="46.19413" lon="3.15028">
        <ele>386.59</ele>
        <time>2021-08-14T05:45:53Z</time>
      </trkpt>
      <trkpt lat="46.19413" lon="3.15029">
        <ele>387.07</ele>
        <time>2021-08-14T05:45:54Z</time>
      </trkpt>
      <trkpt lat="46.19412" lon="3.1503">
        <ele>387.07</ele>
        <time>2021-08-14T05:45:55Z</time>
      </trkpt>
      <trkpt lat="46.1941" lon="3.15031">
        <ele>387.55</ele>
        <time>2021-08-14T05:45:56Z</time>
      </trkpt>
      <trkpt lat="46.19409" lon="3.15032">
        <ele>387.55</ele>
        <time>2021-08-14T05:45:57Z</time>
      </trkpt>
      <trkpt lat="46.19408" lon="3.15033">
        <ele>387.55</ele>
        <time>2021-08-14T05:45:58Z</time>
      </trkpt>
      <trkpt lat="46.19407" lon="3.15034">
        <ele>388.03</ele>
        <time>2021-08-14T05:45:59Z</time>
      </trkpt>
      <trkpt lat="46.19399" lon="3.1504">
        <ele>388.99</ele>
        <time>2021-08-14T05:46:07Z</time>
      </trkpt>
      <trkpt lat="46.19393" lon="3.15044">
        <ele>389.95</ele>
        <time>2021-08-14T05:46:13Z</time>
      </trkpt>
      <trkpt lat="46.19392" lon="3.15046">
        <ele>389.95</ele>
        <time>2021-08-14T05:46:14Z</time>
      </trkpt>
      <trkpt lat="46.19391" lon="3.15047">
        <ele>389.95</ele>
        <time>2021-08-14T05:46:15Z</time>
      </trkpt>
      <trkpt lat="46.1939" lon="3.15048">
        <ele>390.43</ele>
        <time>2021-08-14T05:46:16Z</time>
      </trkpt>
      <trkpt lat="46.19383" lon="3.15052">
        <ele>391.39</ele>
        <time>2021-08-14T05:46:22Z</time>
      </trkpt>
      <trkpt lat="46.19376" lon="3.15062">
        <ele>392.84</ele>
        <time>2021-08-14T05:46:30Z</time>
      </trkpt>
      <trkpt lat="46.19364" lon="3.15074">
        <ele>394.76</ele>
        <time>2021-08-14T05:46:40Z</time>
      </trkpt>
      <trkpt lat="46.19354" lon="3.15085">
        <ele>395.72</ele>
        <time>2021-08-14T05:46:49Z</time>
      </trkpt>
      <trkpt lat="46.19344" lon="3.15102">
        <ele>396.2</ele>
        <time>2021-08-14T05:46:58Z</time>
      </trkpt>
      <trkpt lat="46.19332" lon="3.15126">
        <ele>396.2</ele>
        <time>2021-08-14T05:47:07Z</time>
      </trkpt>
      <trkpt lat="46.19314" lon="3.15145">
        <ele>397.16</ele>
        <time>2021-08-14T05:47:16Z</time>
      </trkpt>
      <trkpt lat="46.19296" lon="3.15154">
        <ele>397.64</ele>
        <time>2021-08-14T05:47:24Z</time>
      </trkpt>
      <trkpt lat="46.19281" lon="3.15173">
        <ele>397.64</ele>
        <time>2021-08-14T05:47:32Z</time>
      </trkpt>
      <trkpt lat="46.1927" lon="3.15201">
        <ele>397.64</ele>
        <time>2021-08-14T05:47:40Z</time>
      </trkpt>
      <trkpt lat="46.19259" lon="3.15229">
        <ele>397.64</ele>
        <time>2021-08-14T05:47:48Z</time>
      </trkpt>
      <trkpt lat="46.19244" lon="3.15263">
        <ele>397.64</ele>
        <time>2021-08-14T05:47:58Z</time>
      </trkpt>
      <trkpt lat="46.19224" lon="3.15288">
        <ele>398.12</ele>
        <time>2021-08-14T05:48:07Z</time>
      </trkpt>
      <trkpt lat="46.19207" lon="3.15304">
        <ele>398.12</ele>
        <time>2021-08-14T05:48:14Z</time>
      </trkpt>
      <trkpt lat="46.19191" lon="3.1532">
        <ele>398.12</ele>
        <time>2021-08-14T05:48:20Z</time>
      </trkpt>
      <trkpt lat="46.19171" lon="3.1534">
        <ele>398.12</ele>
        <time>2021-08-14T05:48:28Z</time>
      </trkpt>
      <trkpt lat="46.19151" lon="3.15364">
        <ele>398.12</ele>
        <time>2021-08-14T05:48:36Z</time>
      </trkpt>
      <trkpt lat="46.19129" lon="3.15402">
        <ele>396.2</ele>
        <time>2021-08-14T05:48:44Z</time>
      </trkpt>
      <trkpt lat="46.19111" lon="3.15431">
        <ele>392.84</ele>
        <time>2021-08-14T05:48:50Z</time>
      </trkpt>
      <trkpt lat="46.19107" lon="3.15435">
        <ele>392.36</ele>
        <time>2021-08-14T05:48:51Z</time>
      </trkpt>
      <trkpt lat="46.19093" lon="3.15449">
        <ele>390.91</ele>
        <time>2021-08-14T05:48:54Z</time>
      </trkpt>
      <trkpt lat="46.19072" lon="3.15468">
        <ele>387.55</ele>
        <time>2021-08-14T05:48:58Z</time>
      </trkpt>
      <trkpt lat="46.19061" lon="3.15482">
        <ele>386.11</ele>
        <time>2021-08-14T05:49:00Z</time>
      </trkpt>
      <trkpt lat="46.19057" lon="3.1549">
        <ele>385.15</ele>
        <time>2021-08-14T05:49:01Z</time>
      </trkpt>
      <trkpt lat="46.19053" lon="3.15499">
        <ele>384.18</ele>
        <time>2021-08-14T05:49:02Z</time>
      </trkpt>
      <trkpt lat="46.19048" lon="3.15508">
        <ele>383.22</ele>
        <time>2021-08-14T05:49:03Z</time>
      </trkpt>
      <trkpt lat="46.19044" lon="3.15518">
        <ele>382.26</ele>
        <time>2021-08-14T05:49:04Z</time>
      </trkpt>
      <trkpt lat="46.19028" lon="3.15554">
        <ele>378.9</ele>
        <time>2021-08-14T05:49:08Z</time>
      </trkpt>
      <trkpt lat="46.19013" lon="3.15585">
        <ele>376.01</ele>
        <time>2021-08-14T05:49:12Z</time>
      </trkpt>
      <trkpt lat="46.18997" lon="3.15616">
        <ele>372.17</ele>
        <time>2021-08-14T05:49:16Z</time>
      </trkpt>
      <trkpt lat="46.18992" lon="3.15624">
        <ele>371.69</ele>
        <time>2021-08-14T05:49:17Z</time>
      </trkpt>
      <trkpt lat="46.18976" lon="3.15648">
        <ele>368.32</ele>
        <time>2021-08-14T05:49:20Z</time>
      </trkpt>
      <trkpt lat="46.18958" lon="3.15674">
        <ele>366.88</ele>
        <time>2021-08-14T05:49:23Z</time>
      </trkpt>
      <trkpt lat="46.18952" lon="3.15682">
        <ele>365.92</ele>
        <time>2021-08-14T05:49:24Z</time>
      </trkpt>
      <trkpt lat="46.18946" lon="3.15689">
        <ele>365.92</ele>
        <time>2021-08-14T05:49:25Z</time>
      </trkpt>
      <trkpt lat="46.18939" lon="3.15695">
        <ele>365.44</ele>
        <time>2021-08-14T05:49:26Z</time>
      </trkpt>
      <trkpt lat="46.18933" lon="3.15699">
        <ele>365.44</ele>
        <time>2021-08-14T05:49:27Z</time>
      </trkpt>
      <trkpt lat="46.18926" lon="3.15703">
        <ele>365.44</ele>
        <time>2021-08-14T05:49:28Z</time>
      </trkpt>
      <trkpt lat="46.1892" lon="3.15706">
        <ele>365.92</ele>
        <time>2021-08-14T05:49:29Z</time>
      </trkpt>
      <trkpt lat="46.18915" lon="3.15709">
        <ele>365.44</ele>
        <time>2021-08-14T05:49:30Z</time>
      </trkpt>
      <trkpt lat="46.18897" lon="3.15721">
        <ele>366.88</ele>
        <time>2021-08-14T05:49:34Z</time>
      </trkpt>
      <trkpt lat="46.1888" lon="3.15736">
        <ele>368.8</ele>
        <time>2021-08-14T05:49:41Z</time>
      </trkpt>
      <trkpt lat="46.18868" lon="3.15748">
        <ele>369.76</ele>
        <time>2021-08-14T05:49:49Z</time>
      </trkpt>
      <trkpt lat="46.18855" lon="3.15759">
        <ele>371.69</ele>
        <time>2021-08-14T05:49:58Z</time>
      </trkpt>
      <trkpt lat="46.18842" lon="3.15772">
        <ele>373.13</ele>
        <time>2021-08-14T05:50:09Z</time>
      </trkpt>
      <trkpt lat="46.18831" lon="3.15787">
        <ele>374.57</ele>
        <time>2021-08-14T05:50:20Z</time>
      </trkpt>
      <trkpt lat="46.18826" lon="3.15794">
        <ele>375.53</ele>
        <time>2021-08-14T05:50:26Z</time>
      </trkpt>
      <trkpt lat="46.18826" lon="3.15796">
        <ele>376.01</ele>
        <time>2021-08-14T05:50:27Z</time>
      </trkpt>
      <trkpt lat="46.18825" lon="3.15797">
        <ele>376.01</ele>
        <time>2021-08-14T05:50:28Z</time>
      </trkpt>
      <trkpt lat="46.18825" lon="3.15798">
        <ele>376.01</ele>
        <time>2021-08-14T05:50:29Z</time>
      </trkpt>
      <trkpt lat="46.18824" lon="3.158">
        <ele>376.49</ele>
        <time>2021-08-14T05:50:30Z</time>
      </trkpt>
      <trkpt lat="46.18823" lon="3.15801">
        <ele>376.49</ele>
        <time>2021-08-14T05:50:31Z</time>
      </trkpt>
      <trkpt lat="46.18822" lon="3.15802">
        <ele>376.49</ele>
        <time>2021-08-14T05:50:32Z</time>
      </trkpt>
      <trkpt lat="46.18821" lon="3.15804">
        <ele>376.97</ele>
        <time>2021-08-14T05:50:33Z</time>
      </trkpt>
      <trkpt lat="46.18818" lon="3.1581">
        <ele>377.45</ele>
        <time>2021-08-14T05:50:37Z</time>
      </trkpt>
      <trkpt lat="46.18817" lon="3.15812">
        <ele>377.94</ele>
        <time>2021-08-14T05:50:38Z</time>
      </trkpt>
      <trkpt lat="46.18817" lon="3.15813">
        <ele>377.94</ele>
        <time>2021-08-14T05:50:39Z</time>
      </trkpt>
      <trkpt lat="46.18815" lon="3.15814">
        <ele>377.94</ele>
        <time>2021-08-14T05:50:40Z</time>
      </trkpt>
      <trkpt lat="46.18814" lon="3.15815">
        <ele>378.42</ele>
        <time>2021-08-14T05:50:41Z</time>
      </trkpt>
      <trkpt lat="46.18813" lon="3.15816">
        <ele>378.42</ele>
        <time>2021-08-14T05:50:42Z</time>
      </trkpt>
      <trkpt lat="46.18812" lon="3.15817">
        <ele>378.42</ele>
        <time>2021-08-14T05:50:43Z</time>
      </trkpt>
      <trkpt lat="46.18811" lon="3.15818">
        <ele>378.9</ele>
        <time>2021-08-14T05:50:44Z</time>
      </trkpt>
      <trkpt lat="46.18797" lon="3.15817">
        <ele>379.86</ele>
        <time>2021-08-14T05:50:54Z</time>
      </trkpt>
      <trkpt lat="46.18786" lon="3.15816">
        <ele>381.3</ele>
        <time>2021-08-14T05:51:03Z</time>
      </trkpt>
      <trkpt lat="46.18774" lon="3.15823">
        <ele>383.22</ele>
        <time>2021-08-14T05:51:13Z</time>
      </trkpt>
      <trkpt lat="46.18766" lon="3.15835">
        <ele>384.18</ele>
        <time>2021-08-14T05:51:22Z</time>
      </trkpt>
      <trkpt lat="46.18763" lon="3.15842">
        <ele>385.15</ele>
        <time>2021-08-14T05:51:27Z</time>
      </trkpt>
      <trkpt lat="46.18762" lon="3.15843">
        <ele>385.15</ele>
        <time>2021-08-14T05:51:28Z</time>
      </trkpt>
      <trkpt lat="46.18757" lon="3.15859">
        <ele>387.07</ele>
        <time>2021-08-14T05:51:38Z</time>
      </trkpt>
      <trkpt lat="46.18757" lon="3.1586">
        <ele>387.07</ele>
        <time>2021-08-14T05:51:39Z</time>
      </trkpt>
      <trkpt lat="46.18751" lon="3.1588">
        <ele>388.51</ele>
        <time>2021-08-14T05:51:50Z</time>
      </trkpt>
      <trkpt lat="46.18747" lon="3.15901">
        <ele>389.95</ele>
        <time>2021-08-14T05:52:01Z</time>
      </trkpt>
      <trkpt lat="46.18744" lon="3.15923">
        <ele>391.87</ele>
        <time>2021-08-14T05:52:11Z</time>
      </trkpt>
      <trkpt lat="46.18744" lon="3.15927">
        <ele>391.87</ele>
        <time>2021-08-14T05:52:13Z</time>
      </trkpt>
      <trkpt lat="46.18743" lon="3.15934">
        <ele>392.36</ele>
        <time>2021-08-14T05:52:16Z</time>
      </trkpt>
      <trkpt lat="46.18743" lon="3.15936">
        <ele>392.36</ele>
        <time>2021-08-14T05:52:17Z</time>
      </trkpt>
      <trkpt lat="46.18743" lon="3.15938">
        <ele>392.36</ele>
        <time>2021-08-14T05:52:18Z</time>
      </trkpt>
      <trkpt lat="46.18745" lon="3.15957">
        <ele>393.8</ele>
        <time>2021-08-14T05:52:27Z</time>
      </trkpt>
      <trkpt lat="46.18747" lon="3.15974">
        <ele>394.76</ele>
        <time>2021-08-14T05:52:36Z</time>
      </trkpt>
      <trkpt lat="46.18749" lon="3.15997">
        <ele>395.72</ele>
        <time>2021-08-14T05:52:46Z</time>
      </trkpt>
      <trkpt lat="46.1875" lon="3.1601">
        <ele>396.68</ele>
        <time>2021-08-14T05:52:52Z</time>
      </trkpt>
      <trkpt lat="46.1875" lon="3.16012">
        <ele>396.68</ele>
        <time>2021-08-14T05:52:53Z</time>
      </trkpt>
      <trkpt lat="46.1875" lon="3.16014">
        <ele>396.68</ele>
        <time>2021-08-14T05:52:54Z</time>
      </trkpt>
      <trkpt lat="46.18749" lon="3.16016">
        <ele>397.16</ele>
        <time>2021-08-14T05:52:55Z</time>
      </trkpt>
      <trkpt lat="46.18749" lon="3.16019">
        <ele>397.16</ele>
        <time>2021-08-14T05:52:56Z</time>
      </trkpt>
      <trkpt lat="46.18749" lon="3.16021">
        <ele>397.16</ele>
        <time>2021-08-14T05:52:57Z</time>
      </trkpt>
      <trkpt lat="46.1875" lon="3.16023">
        <ele>397.64</ele>
        <time>2021-08-14T05:52:58Z</time>
      </trkpt>
      <trkpt lat="46.1875" lon="3.16026">
        <ele>397.64</ele>
        <time>2021-08-14T05:52:59Z</time>
      </trkpt>
      <trkpt lat="46.18752" lon="3.16042">
        <ele>398.12</ele>
        <time>2021-08-14T05:53:05Z</time>
      </trkpt>
      <trkpt lat="46.18754" lon="3.16057">
        <ele>399.57</ele>
        <time>2021-08-14T05:53:11Z</time>
      </trkpt>
      <trkpt lat="46.18757" lon="3.1609">
        <ele>401.49</ele>
        <time>2021-08-14T05:53:24Z</time>
      </trkpt>
      <trkpt lat="46.18755" lon="3.16112">
        <ele>402.93</ele>
        <time>2021-08-14T05:53:32Z</time>
      </trkpt>
      <trkpt lat="46.18748" lon="3.16123">
        <ele>403.41</ele>
        <time>2021-08-14T05:53:38Z</time>
      </trkpt>
      <trkpt lat="46.18733" lon="3.16133">
        <ele>404.37</ele>
        <time>2021-08-14T05:53:46Z</time>
      </trkpt>
      <trkpt lat="46.1871" lon="3.16145">
        <ele>405.81</ele>
        <time>2021-08-14T05:53:56Z</time>
      </trkpt>
      <trkpt lat="46.18696" lon="3.16154">
        <ele>406.29</ele>
        <time>2021-08-14T05:54:03Z</time>
      </trkpt>
      <trkpt lat="46.18673" lon="3.16167">
        <ele>407.26</ele>
        <time>2021-08-14T05:54:12Z</time>
      </trkpt>
      <trkpt lat="46.18655" lon="3.16176">
        <ele>407.74</ele>
        <time>2021-08-14T05:54:18Z</time>
      </trkpt>
      <trkpt lat="46.18629" lon="3.16192">
        <ele>408.22</ele>
        <time>2021-08-14T05:54:26Z</time>
      </trkpt>
      <trkpt lat="46.18609" lon="3.16204">
        <ele>408.7</ele>
        <time>2021-08-14T05:54:33Z</time>
      </trkpt>
      <trkpt lat="46.18608" lon="3.16203">
        <ele>408.7</ele>
        <time>2021-08-14T05:54:34Z</time>
      </trkpt>
      <trkpt lat="46.18608" lon="3.16193">
        <ele>409.18</ele>
        <time>2021-08-14T05:54:39Z</time>
      </trkpt>
      <trkpt lat="46.18608" lon="3.1619">
        <ele>409.18</ele>
        <time>2021-08-14T05:54:40Z</time>
      </trkpt>
      <trkpt lat="46.18606" lon="3.1619">
        <ele>409.18</ele>
        <time>2021-08-14T05:54:41Z</time>
      </trkpt>
      <trkpt lat="46.18605" lon="3.16191">
        <ele>409.18</ele>
        <time>2021-08-14T05:54:42Z</time>
      </trkpt>
      <trkpt lat="46.18605" lon="3.16194">
        <ele>409.18</ele>
        <time>2021-08-14T05:54:43Z</time>
      </trkpt>
      <trkpt lat="46.18606" lon="3.16197">
        <ele>409.18</ele>
        <time>2021-08-14T05:54:44Z</time>
      </trkpt>
      <trkpt lat="46.18607" lon="3.16199">
        <ele>409.18</ele>
        <time>2021-08-14T05:54:45Z</time>
      </trkpt>
      <trkpt lat="46.18608" lon="3.16203">
        <ele>409.18</ele>
        <time>2021-08-14T05:54:46Z</time>
      </trkpt>
      <trkpt lat="46.18607" lon="3.16207">
        <ele>409.18</ele>
        <time>2021-08-14T05:54:47Z</time>
      </trkpt>
      <trkpt lat="46.18605" lon="3.16211">
        <ele>409.18</ele>
        <time>2021-08-14T05:54:48Z</time>
      </trkpt>
      <trkpt lat="46.18602" lon="3.16214">
        <ele>409.18</ele>
        <time>2021-08-14T05:54:49Z</time>
      </trkpt>
      <trkpt lat="46.186" lon="3.16216">
        <ele>409.18</ele>
        <time>2021-08-14T05:54:50Z</time>
      </trkpt>
      <trkpt lat="46.18597" lon="3.16218">
        <ele>409.18</ele>
        <time>2021-08-14T05:54:51Z</time>
      </trkpt>
      <trkpt lat="46.18594" lon="3.1622">
        <ele>409.18</ele>
        <time>2021-08-14T05:54:52Z</time>
      </trkpt>
      <trkpt lat="46.18568" lon="3.16236">
        <ele>409.18</ele>
        <time>2021-08-14T05:55:00Z</time>
      </trkpt>
      <trkpt lat="46.18567" lon="3.16238">
        <ele>409.18</ele>
        <time>2021-08-14T05:55:01Z</time>
      </trkpt>
      <trkpt lat="46.18568" lon="3.16239">
        <ele>409.18</ele>
        <time>2021-08-14T05:55:02Z</time>
      </trkpt>
      <trkpt lat="46.1857" lon="3.16238">
        <ele>409.18</ele>
        <time>2021-08-14T05:55:03Z</time>
      </trkpt>
      <trkpt lat="46.18591" lon="3.16225">
        <ele>409.18</ele>
        <time>2021-08-14T05:55:08Z</time>
      </trkpt>
      <trkpt lat="46.18628" lon="3.16193">
        <ele>409.18</ele>
        <time>2021-08-14T05:55:16Z</time>
      </trkpt>
      <trkpt lat="46.18643" lon="3.16181">
        <ele>409.18</ele>
        <time>2021-08-14T05:55:20Z</time>
      </trkpt>
      <trkpt lat="46.18643" lon="3.16177">
        <ele>409.18</ele>
        <time>2021-08-14T05:55:21Z</time>
      </trkpt>
      <trkpt lat="46.18642" lon="3.16173">
        <ele>409.18</ele>
        <time>2021-08-14T05:55:22Z</time>
      </trkpt>
      <trkpt lat="46.18629" lon="3.16145">
        <ele>409.18</ele>
        <time>2021-08-14T05:55:30Z</time>
      </trkpt>
      <trkpt lat="46.18617" lon="3.16124">
        <ele>410.14</ele>
        <time>2021-08-14T05:55:38Z</time>
      </trkpt>
      <trkpt lat="46.18616" lon="3.1612">
        <ele>410.14</ele>
        <time>2021-08-14T05:55:40Z</time>
      </trkpt>
      <trkpt lat="46.18615" lon="3.16118">
        <ele>410.14</ele>
        <time>2021-08-14T05:55:41Z</time>
      </trkpt>
      <trkpt lat="46.18613" lon="3.16119">
        <ele>410.14</ele>
        <time>2021-08-14T05:55:43Z</time>
      </trkpt>
      <trkpt lat="46.18614" lon="3.16121">
        <ele>410.14</ele>
        <time>2021-08-14T05:55:44Z</time>
      </trkpt>
      <trkpt lat="46.18614" lon="3.1613">
        <ele>410.14</ele>
        <time>2021-08-14T05:55:47Z</time>
      </trkpt>
      <trkpt lat="46.18613" lon="3.16132">
        <ele>410.14</ele>
        <time>2021-08-14T05:55:48Z</time>
      </trkpt>
      <trkpt lat="46.18611" lon="3.16135">
        <ele>410.14</ele>
        <time>2021-08-14T05:55:49Z</time>
      </trkpt>
      <trkpt lat="46.18608" lon="3.16139">
        <ele>410.14</ele>
        <time>2021-08-14T05:55:50Z</time>
      </trkpt>
      <trkpt lat="46.18607" lon="3.16142">
        <ele>410.14</ele>
        <time>2021-08-14T05:55:51Z</time>
      </trkpt>
      <trkpt lat="46.18597" lon="3.16157">
        <ele>410.62</ele>
        <time>2021-08-14T05:55:56Z</time>
      </trkpt>
      <trkpt lat="46.18572" lon="3.16179">
        <ele>410.62</ele>
        <time>2021-08-14T05:56:05Z</time>
      </trkpt>
      <trkpt lat="46.1855" lon="3.16195">
        <ele>411.1</ele>
        <time>2021-08-14T05:56:13Z</time>
      </trkpt>
      <trkpt lat="46.18532" lon="3.16205">
        <ele>411.1</ele>
        <time>2021-08-14T05:56:19Z</time>
      </trkpt>
      <trkpt lat="46.18529" lon="3.16203">
        <ele>411.1</ele>
        <time>2021-08-14T05:56:20Z</time>
      </trkpt>
      <trkpt lat="46.18526" lon="3.162">
        <ele>411.1</ele>
        <time>2021-08-14T05:56:21Z</time>
      </trkpt>
      <trkpt lat="46.18524" lon="3.16197">
        <ele>411.1</ele>
        <time>2021-08-14T05:56:22Z</time>
      </trkpt>
      <trkpt lat="46.18523" lon="3.16194">
        <ele>411.1</ele>
        <time>2021-08-14T05:56:23Z</time>
      </trkpt>
      <trkpt lat="46.18521" lon="3.16189">
        <ele>411.1</ele>
        <time>2021-08-14T05:56:24Z</time>
      </trkpt>
      <trkpt lat="46.18506" lon="3.16148">
        <ele>411.58</ele>
        <time>2021-08-14T05:56:34Z</time>
      </trkpt>
      <trkpt lat="46.18491" lon="3.16111">
        <ele>412.06</ele>
        <time>2021-08-14T05:56:42Z</time>
      </trkpt>
      <trkpt lat="46.18473" lon="3.16078">
        <ele>413.02</ele>
        <time>2021-08-14T05:56:50Z</time>
      </trkpt>
      <trkpt lat="46.18456" lon="3.16052">
        <ele>413.02</ele>
        <time>2021-08-14T05:56:58Z</time>
      </trkpt>
      <trkpt lat="46.1845" lon="3.16046">
        <ele>413.02</ele>
        <time>2021-08-14T05:57:04Z</time>
      </trkpt>
      <trkpt lat="46.1845" lon="3.16049">
        <ele>413.02</ele>
        <time>2021-08-14T05:57:05Z</time>
      </trkpt>
      <trkpt lat="46.18452" lon="3.1605">
        <ele>413.02</ele>
        <time>2021-08-14T05:57:06Z</time>
      </trkpt>
      <trkpt lat="46.18453" lon="3.16053">
        <ele>413.02</ele>
        <time>2021-08-14T05:57:07Z</time>
      </trkpt>
      <trkpt lat="46.18455" lon="3.16056">
        <ele>413.02</ele>
        <time>2021-08-14T05:57:08Z</time>
      </trkpt>
      <trkpt lat="46.18456" lon="3.16062">
        <ele>413.02</ele>
        <time>2021-08-14T05:57:09Z</time>
      </trkpt>
      <trkpt lat="46.18456" lon="3.16066">
        <ele>413.02</ele>
        <time>2021-08-14T05:57:10Z</time>
      </trkpt>
      <trkpt lat="46.18456" lon="3.1607">
        <ele>413.02</ele>
        <time>2021-08-14T05:57:11Z</time>
      </trkpt>
      <trkpt lat="46.18453" lon="3.16099">
        <ele>413.02</ele>
        <time>2021-08-14T05:57:17Z</time>
      </trkpt>
      <trkpt lat="46.18453" lon="3.16118">
        <ele>413.02</ele>
        <time>2021-08-14T05:57:23Z</time>
      </trkpt>
      <trkpt lat="46.18453" lon="3.1612">
        <ele>413.02</ele>
        <time>2021-08-14T05:57:24Z</time>
      </trkpt>
      <trkpt lat="46.18454" lon="3.16121">
        <ele>413.02</ele>
        <time>2021-08-14T05:57:25Z</time>
      </trkpt>
      <trkpt lat="46.18455" lon="3.16124">
        <ele>413.02</ele>
        <time>2021-08-14T05:57:26Z</time>
      </trkpt>
      <trkpt lat="46.18456" lon="3.16127">
        <ele>413.02</ele>
        <time>2021-08-14T05:57:27Z</time>
      </trkpt>
      <trkpt lat="46.18457" lon="3.16131">
        <ele>413.02</ele>
        <time>2021-08-14T05:57:28Z</time>
      </trkpt>
      <trkpt lat="46.18457" lon="3.16135">
        <ele>413.02</ele>
        <time>2021-08-14T05:57:29Z</time>
      </trkpt>
      <trkpt lat="46.18458" lon="3.1614">
        <ele>413.02</ele>
        <time>2021-08-14T05:57:30Z</time>
      </trkpt>
      <trkpt lat="46.18459" lon="3.16144">
        <ele>413.02</ele>
        <time>2021-08-14T05:57:31Z</time>
      </trkpt>
      <trkpt lat="46.1846" lon="3.16148">
        <ele>413.02</ele>
        <time>2021-08-14T05:57:32Z</time>
      </trkpt>
      <trkpt lat="46.18461" lon="3.16152">
        <ele>413.02</ele>
        <time>2021-08-14T05:57:33Z</time>
      </trkpt>
      <trkpt lat="46.18469" lon="3.16192">
        <ele>412.06</ele>
        <time>2021-08-14T05:57:41Z</time>
      </trkpt>
      <trkpt lat="46.18477" lon="3.16225">
        <ele>411.58</ele>
        <time>2021-08-14T05:57:48Z</time>
      </trkpt>
      <trkpt lat="46.18478" lon="3.16228">
        <ele>411.1</ele>
        <time>2021-08-14T05:57:54Z</time>
      </trkpt>
      <trkpt lat="46.18475" lon="3.16227">
        <ele>411.1</ele>
        <time>2021-08-14T05:58:03Z</time>
      </trkpt>
      <trkpt lat="46.18475" lon="3.16224">
        <ele>411.1</ele>
        <time>2021-08-14T05:58:15Z</time>
      </trkpt>
      <trkpt lat="46.18476" lon="3.16223">
        <ele>411.1</ele>
        <time>2021-08-14T05:58:33Z</time>
      </trkpt>
      <trkpt lat="46.18476" lon="3.16223">
        <ele>411.1</ele>
        <time>2021-08-14T05:58:45Z</time>
      </trkpt>
      <trkpt lat="46.18473" lon="3.16223">
        <ele>411.1</ele>
        <time>2021-08-14T05:59:08Z</time>
      </trkpt>
      <trkpt lat="46.18473" lon="3.16222">
        <ele>411.1</ele>
        <time>2021-08-14T05:59:23Z</time>
      </trkpt>
      <trkpt lat="46.18476" lon="3.16221">
        <ele>411.1</ele>
        <time>2021-08-14T05:59:39Z</time>
      </trkpt>
      <trkpt lat="46.18476" lon="3.1622">
        <ele>411.1</ele>
        <time>2021-08-14T05:59:57Z</time>
      </trkpt>
      <trkpt lat="46.18475" lon="3.1622">
        <ele>411.1</ele>
        <time>2021-08-14T06:00:12Z</time>
      </trkpt>
      <trkpt lat="46.18475" lon="3.16216">
        <ele>411.1</ele>
        <time>2021-08-14T06:00:31Z</time>
      </trkpt>
      <trkpt lat="46.18476" lon="3.16214">
        <ele>411.1</ele>
        <time>2021-08-14T06:00:49Z</time>
      </trkpt>
      <trkpt lat="46.18477" lon="3.16211">
        <ele>411.58</ele>
        <time>2021-08-14T06:01:12Z</time>
      </trkpt>
      <trkpt lat="46.18476" lon="3.16212">
        <ele>411.58</ele>
        <time>2021-08-14T06:01:31Z</time>
      </trkpt>
      <trkpt lat="46.18477" lon="3.16213">
        <ele>411.58</ele>
        <time>2021-08-14T06:01:57Z</time>
      </trkpt>
      <trkpt lat="46.18476" lon="3.16209">
        <ele>412.06</ele>
        <time>2021-08-14T06:02:17Z</time>
      </trkpt>
      <trkpt lat="46.18476" lon="3.1621">
        <ele>412.06</ele>
        <time>2021-08-14T06:02:24Z</time>
      </trkpt>
      <trkpt lat="46.18476" lon="3.16212">
        <ele>412.06</ele>
        <time>2021-08-14T06:02:31Z</time>
      </trkpt>
      <trkpt lat="46.18475" lon="3.16209">
        <ele>412.06</ele>
        <time>2021-08-14T06:02:33Z</time>
      </trkpt>
      <trkpt lat="46.18475" lon="3.162">
        <ele>412.06</ele>
        <time>2021-08-14T06:02:40Z</time>
      </trkpt>
      <trkpt lat="46.18477" lon="3.16202">
        <ele>412.06</ele>
        <time>2021-08-14T06:02:51Z</time>
      </trkpt>
      <trkpt lat="46.18478" lon="3.16203">
        <ele>412.06</ele>
        <time>2021-08-14T06:03:05Z</time>
      </trkpt>
      <trkpt lat="46.18477" lon="3.16205">
        <ele>412.06</ele>
        <time>2021-08-14T06:03:25Z</time>
      </trkpt>
      <trkpt lat="46.18475" lon="3.16204">
        <ele>412.06</ele>
        <time>2021-08-14T06:03:44Z</time>
      </trkpt>
      <trkpt lat="46.18475" lon="3.16201">
        <ele>412.06</ele>
        <time>2021-08-14T06:04:00Z</time>
      </trkpt>
      <trkpt lat="46.18475" lon="3.162">
        <ele>412.06</ele>
        <time>2021-08-14T06:04:15Z</time>
      </trkpt>
      <trkpt lat="46.18474" lon="3.162">
        <ele>412.06</ele>
        <time>2021-08-14T06:04:30Z</time>
      </trkpt>
      <trkpt lat="46.18472" lon="3.16201">
        <ele>412.06</ele>
        <time>2021-08-14T06:04:48Z</time>
      </trkpt>
      <trkpt lat="46.18474" lon="3.16202">
        <ele>412.06</ele>
        <time>2021-08-14T06:05:05Z</time>
      </trkpt>
      <trkpt lat="46.18476" lon="3.16202">
        <ele>412.06</ele>
        <time>2021-08-14T06:05:22Z</time>
      </trkpt>
      <trkpt lat="46.18475" lon="3.162">
        <ele>412.06</ele>
        <time>2021-08-14T06:05:40Z</time>
      </trkpt>
      <trkpt lat="46.18473" lon="3.16201">
        <ele>412.06</ele>
        <time>2021-08-14T06:05:54Z</time>
      </trkpt>
      <trkpt lat="46.18472" lon="3.16203">
        <ele>412.06</ele>
        <time>2021-08-14T06:06:12Z</time>
      </trkpt>
      <trkpt lat="46.18471" lon="3.16203">
        <ele>412.06</ele>
        <time>2021-08-14T06:06:29Z</time>
      </trkpt>
      <trkpt lat="46.18474" lon="3.16205">
        <ele>412.06</ele>
        <time>2021-08-14T06:06:45Z</time>
      </trkpt>
      <trkpt lat="46.18475" lon="3.16206">
        <ele>411.58</ele>
        <time>2021-08-14T06:07:01Z</time>
      </trkpt>
      <trkpt lat="46.18474" lon="3.16204">
        <ele>412.06</ele>
        <time>2021-08-14T06:07:18Z</time>
      </trkpt>
      <trkpt lat="46.18472" lon="3.16202">
        <ele>412.06</ele>
        <time>2021-08-14T06:07:31Z</time>
      </trkpt>
      <trkpt lat="46.18472" lon="3.162">
        <ele>412.06</ele>
        <time>2021-08-14T06:07:50Z</time>
      </trkpt>
      <trkpt lat="46.18474" lon="3.162">
        <ele>412.06</ele>
        <time>2021-08-14T06:08:09Z</time>
      </trkpt>
      <trkpt lat="46.18475" lon="3.16201">
        <ele>412.06</ele>
        <time>2021-08-14T06:08:21Z</time>
      </trkpt>
      <trkpt lat="46.18475" lon="3.16201">
        <ele>412.06</ele>
        <time>2021-08-14T06:08:30Z</time>
      </trkpt>
      <trkpt lat="46.18476" lon="3.162">
        <ele>412.06</ele>
        <time>2021-08-14T06:08:50Z</time>
      </trkpt>
      <trkpt lat="46.18476" lon="3.162">
        <ele>412.06</ele>
        <time>2021-08-14T06:09:10Z</time>
      </trkpt>
      <trkpt lat="46.18475" lon="3.16202">
        <ele>412.06</ele>
        <time>2021-08-14T06:09:26Z</time>
      </trkpt>
      <trkpt lat="46.18476" lon="3.16202">
        <ele>412.06</ele>
        <time>2021-08-14T06:09:39Z</time>
      </trkpt>
      <trkpt lat="46.18478" lon="3.16202">
        <ele>412.06</ele>
        <time>2021-08-14T06:09:50Z</time>
      </trkpt>
      <trkpt lat="46.18478" lon="3.16203">
        <ele>412.06</ele>
        <time>2021-08-14T06:10:08Z</time>
      </trkpt>
      <trkpt lat="46.18478" lon="3.16202">
        <ele>412.06</ele>
        <time>2021-08-14T06:10:25Z</time>
      </trkpt>
      <trkpt lat="46.18479" lon="3.16202">
        <ele>412.06</ele>
        <time>2021-08-14T06:10:40Z</time>
      </trkpt>
      <trkpt lat="46.18478" lon="3.16203">
        <ele>412.06</ele>
        <time>2021-08-14T06:10:54Z</time>
      </trkpt>
      <trkpt lat="46.18479" lon="3.16204">
        <ele>412.06</ele>
        <time>2021-08-14T06:11:13Z</time>
      </trkpt>
      <trkpt lat="46.18477" lon="3.16206">
        <ele>412.54</ele>
        <time>2021-08-14T06:11:29Z</time>
      </trkpt>
      <trkpt lat="46.18475" lon="3.16205">
        <ele>412.54</ele>
        <time>2021-08-14T06:11:52Z</time>
      </trkpt>
      <trkpt lat="46.18475" lon="3.16203">
        <ele>413.5</ele>
        <time>2021-08-14T06:12:06Z</time>
      </trkpt>
      <trkpt lat="46.18474" lon="3.16205">
        <ele>413.5</ele>
        <time>2021-08-14T06:12:21Z</time>
      </trkpt>
      <trkpt lat="46.18474" lon="3.16205">
        <ele>413.5</ele>
        <time>2021-08-14T06:12:40Z</time>
      </trkpt>
      <trkpt lat="46.18474" lon="3.16203">
        <ele>413.5</ele>
        <time>2021-08-14T06:12:51Z</time>
      </trkpt>
      <trkpt lat="46.18472" lon="3.16203">
        <ele>413.5</ele>
        <time>2021-08-14T06:12:58Z</time>
      </trkpt>
      <trkpt lat="46.18473" lon="3.16203">
        <ele>413.5</ele>
        <time>2021-08-14T06:13:10Z</time>
      </trkpt>
      <trkpt lat="46.18474" lon="3.16201">
        <ele>413.5</ele>
        <time>2021-08-14T06:13:18Z</time>
      </trkpt>
      <trkpt lat="46.18469" lon="3.16198">
        <ele>413.5</ele>
        <time>2021-08-14T06:13:23Z</time>
      </trkpt>
      <trkpt lat="46.18465" lon="3.16168">
        <ele>413.5</ele>
        <time>2021-08-14T06:13:32Z</time>
      </trkpt>
      <trkpt lat="46.18464" lon="3.16153">
        <ele>413.5</ele>
        <time>2021-08-14T06:13:36Z</time>
      </trkpt>
      <trkpt lat="46.18465" lon="3.1615">
        <ele>413.5</ele>
        <time>2021-08-14T06:13:37Z</time>
      </trkpt>
      <trkpt lat="46.18465" lon="3.16147">
        <ele>414.47</ele>
        <time>2021-08-14T06:13:38Z</time>
      </trkpt>
      <trkpt lat="46.18465" lon="3.16146">
        <ele>414.47</ele>
        <time>2021-08-14T06:13:42Z</time>
      </trkpt>
      <trkpt lat="46.18463" lon="3.16146">
        <ele>414.47</ele>
        <time>2021-08-14T06:13:43Z</time>
      </trkpt>
      <trkpt lat="46.18462" lon="3.16146">
        <ele>414.47</ele>
        <time>2021-08-14T06:13:44Z</time>
      </trkpt>
      <trkpt lat="46.1846" lon="3.16144">
        <ele>414.47</ele>
        <time>2021-08-14T06:13:45Z</time>
      </trkpt>
      <trkpt lat="46.18459" lon="3.16141">
        <ele>414.47</ele>
        <time>2021-08-14T06:13:46Z</time>
      </trkpt>
      <trkpt lat="46.18459" lon="3.16138">
        <ele>414.47</ele>
        <time>2021-08-14T06:13:47Z</time>
      </trkpt>
      <trkpt lat="46.18458" lon="3.16134">
        <ele>414.47</ele>
        <time>2021-08-14T06:13:48Z</time>
      </trkpt>
      <trkpt lat="46.18454" lon="3.16107">
        <ele>414.47</ele>
        <time>2021-08-14T06:13:55Z</time>
      </trkpt>
      <trkpt lat="46.18455" lon="3.16073">
        <ele>414.47</ele>
        <time>2021-08-14T06:14:02Z</time>
      </trkpt>
      <trkpt lat="46.18449" lon="3.1604">
        <ele>414.95</ele>
        <time>2021-08-14T06:14:08Z</time>
      </trkpt>
      <trkpt lat="46.18428" lon="3.15996">
        <ele>414.95</ele>
        <time>2021-08-14T06:14:16Z</time>
      </trkpt>
      <trkpt lat="46.184" lon="3.15941">
        <ele>414.95</ele>
        <time>2021-08-14T06:14:26Z</time>
      </trkpt>
      <trkpt lat="46.18388" lon="3.1592">
        <ele>414.95</ele>
        <time>2021-08-14T06:14:30Z</time>
      </trkpt>
      <trkpt lat="46.18386" lon="3.15916">
        <ele>414.95</ele>
        <time>2021-08-14T06:14:31Z</time>
      </trkpt>
      <trkpt lat="46.18384" lon="3.15915">
        <ele>414.95</ele>
        <time>2021-08-14T06:14:32Z</time>
      </trkpt>
      <trkpt lat="46.18383" lon="3.15917">
        <ele>414.95</ele>
        <time>2021-08-14T06:14:33Z</time>
      </trkpt>
      <trkpt lat="46.18384" lon="3.1592">
        <ele>414.95</ele>
        <time>2021-08-14T06:14:34Z</time>
      </trkpt>
      <trkpt lat="46.18385" lon="3.15924">
        <ele>414.95</ele>
        <time>2021-08-14T06:14:35Z</time>
      </trkpt>
      <trkpt lat="46.18385" lon="3.15928">
        <ele>414.95</ele>
        <time>2021-08-14T06:14:36Z</time>
      </trkpt>
      <trkpt lat="46.18384" lon="3.15932">
        <ele>414.95</ele>
        <time>2021-08-14T06:14:37Z</time>
      </trkpt>
      <trkpt lat="46.18381" lon="3.15935">
        <ele>414.95</ele>
        <time>2021-08-14T06:14:38Z</time>
      </trkpt>
      <trkpt lat="46.1835" lon="3.15971">
        <ele>414.95</ele>
        <time>2021-08-14T06:14:48Z</time>
      </trkpt>
      <trkpt lat="46.18314" lon="3.1601">
        <ele>414.95</ele>
        <time>2021-08-14T06:14:58Z</time>
      </trkpt>
      <trkpt lat="46.18275" lon="3.1605">
        <ele>414.95</ele>
        <time>2021-08-14T06:15:08Z</time>
      </trkpt>
      <trkpt lat="46.18267" lon="3.16057">
        <ele>413.5</ele>
        <time>2021-08-14T06:15:10Z</time>
      </trkpt>
      <trkpt lat="46.18264" lon="3.1606">
        <ele>413.5</ele>
        <time>2021-08-14T06:15:11Z</time>
      </trkpt>
      <trkpt lat="46.18261" lon="3.16064">
        <ele>413.5</ele>
        <time>2021-08-14T06:15:12Z</time>
      </trkpt>
      <trkpt lat="46.1826" lon="3.16068">
        <ele>413.5</ele>
        <time>2021-08-14T06:15:13Z</time>
      </trkpt>
      <trkpt lat="46.18259" lon="3.16073">
        <ele>413.02</ele>
        <time>2021-08-14T06:15:14Z</time>
      </trkpt>
      <trkpt lat="46.18257" lon="3.16077">
        <ele>413.02</ele>
        <time>2021-08-14T06:15:15Z</time>
      </trkpt>
      <trkpt lat="46.18255" lon="3.16081">
        <ele>413.02</ele>
        <time>2021-08-14T06:15:16Z</time>
      </trkpt>
      <trkpt lat="46.18251" lon="3.16089">
        <ele>412.54</ele>
        <time>2021-08-14T06:15:18Z</time>
      </trkpt>
      <trkpt lat="46.18247" lon="3.1609">
        <ele>412.54</ele>
        <time>2021-08-14T06:15:19Z</time>
      </trkpt>
      <trkpt lat="46.18244" lon="3.16088">
        <ele>412.54</ele>
        <time>2021-08-14T06:15:20Z</time>
      </trkpt>
      <trkpt lat="46.18242" lon="3.16085">
        <ele>412.54</ele>
        <time>2021-08-14T06:15:21Z</time>
      </trkpt>
      <trkpt lat="46.18241" lon="3.16081">
        <ele>412.54</ele>
        <time>2021-08-14T06:15:22Z</time>
      </trkpt>
      <trkpt lat="46.1824" lon="3.16077">
        <ele>412.54</ele>
        <time>2021-08-14T06:15:23Z</time>
      </trkpt>
      <trkpt lat="46.18238" lon="3.16072">
        <ele>412.54</ele>
        <time>2021-08-14T06:15:24Z</time>
      </trkpt>
      <trkpt lat="46.18237" lon="3.16068">
        <ele>412.54</ele>
        <time>2021-08-14T06:15:25Z</time>
      </trkpt>
      <trkpt lat="46.18224" lon="3.16027">
        <ele>413.5</ele>
        <time>2021-08-14T06:15:33Z</time>
      </trkpt>
      <trkpt lat="46.18204" lon="3.15984">
        <ele>413.98</ele>
        <time>2021-08-14T06:15:42Z</time>
      </trkpt>
      <trkpt lat="46.18181" lon="3.15935">
        <ele>413.98</ele>
        <time>2021-08-14T06:15:52Z</time>
      </trkpt>
      <trkpt lat="46.18178" lon="3.15933">
        <ele>413.98</ele>
        <time>2021-08-14T06:15:53Z</time>
      </trkpt>
      <trkpt lat="46.18175" lon="3.15932">
        <ele>413.98</ele>
        <time>2021-08-14T06:15:54Z</time>
      </trkpt>
      <trkpt lat="46.18171" lon="3.15934">
        <ele>413.98</ele>
        <time>2021-08-14T06:15:55Z</time>
      </trkpt>
      <trkpt lat="46.18168" lon="3.15937">
        <ele>413.98</ele>
        <time>2021-08-14T06:15:56Z</time>
      </trkpt>
      <trkpt lat="46.18165" lon="3.1594">
        <ele>413.02</ele>
        <time>2021-08-14T06:15:57Z</time>
      </trkpt>
      <trkpt lat="46.18141" lon="3.15965">
        <ele>411.58</ele>
        <time>2021-08-14T06:16:03Z</time>
      </trkpt>
      <trkpt lat="46.18131" lon="3.15975">
        <ele>411.1</ele>
        <time>2021-08-14T06:16:05Z</time>
      </trkpt>
      <trkpt lat="46.18126" lon="3.15978">
        <ele>410.14</ele>
        <time>2021-08-14T06:16:06Z</time>
      </trkpt>
      <trkpt lat="46.1812" lon="3.15977">
        <ele>410.14</ele>
        <time>2021-08-14T06:16:07Z</time>
      </trkpt>
      <trkpt lat="46.18115" lon="3.15973">
        <ele>410.14</ele>
        <time>2021-08-14T06:16:08Z</time>
      </trkpt>
      <trkpt lat="46.18112" lon="3.15969">
        <ele>409.66</ele>
        <time>2021-08-14T06:16:09Z</time>
      </trkpt>
      <trkpt lat="46.18109" lon="3.15963">
        <ele>409.66</ele>
        <time>2021-08-14T06:16:10Z</time>
      </trkpt>
      <trkpt lat="46.18105" lon="3.15958">
        <ele>409.18</ele>
        <time>2021-08-14T06:16:11Z</time>
      </trkpt>
      <trkpt lat="46.18102" lon="3.15951">
        <ele>409.18</ele>
        <time>2021-08-14T06:16:12Z</time>
      </trkpt>
      <trkpt lat="46.18076" lon="3.15909">
        <ele>407.26</ele>
        <time>2021-08-14T06:16:19Z</time>
      </trkpt>
      <trkpt lat="46.1804" lon="3.15848">
        <ele>403.89</ele>
        <time>2021-08-14T06:16:28Z</time>
      </trkpt>
      <trkpt lat="46.18004" lon="3.15798">
        <ele>401.01</ele>
        <time>2021-08-14T06:16:35Z</time>
      </trkpt>
      <trkpt lat="46.1798" lon="3.15769">
        <ele>398.6</ele>
        <time>2021-08-14T06:16:39Z</time>
      </trkpt>
      <trkpt lat="46.17947" lon="3.15735">
        <ele>395.72</ele>
        <time>2021-08-14T06:16:44Z</time>
      </trkpt>
      <trkpt lat="46.1791" lon="3.15706">
        <ele>391.87</ele>
        <time>2021-08-14T06:16:49Z</time>
      </trkpt>
      <trkpt lat="46.17888" lon="3.15689">
        <ele>388.99</ele>
        <time>2021-08-14T06:16:52Z</time>
      </trkpt>
      <trkpt lat="46.17858" lon="3.15666">
        <ele>385.63</ele>
        <time>2021-08-14T06:16:56Z</time>
      </trkpt>
      <trkpt lat="46.17831" lon="3.15636">
        <ele>382.26</ele>
        <time>2021-08-14T06:17:00Z</time>
      </trkpt>
      <trkpt lat="46.1781" lon="3.15613">
        <ele>379.38</ele>
        <time>2021-08-14T06:17:03Z</time>
      </trkpt>
      <trkpt lat="46.17774" lon="3.1558">
        <ele>376.01</ele>
        <time>2021-08-14T06:17:08Z</time>
      </trkpt>
      <trkpt lat="46.1773" lon="3.15546">
        <ele>372.65</ele>
        <time>2021-08-14T06:17:14Z</time>
      </trkpt>
      <trkpt lat="46.17692" lon="3.15522">
        <ele>369.28</ele>
        <time>2021-08-14T06:17:19Z</time>
      </trkpt>
      <trkpt lat="46.17653" lon="3.15497">
        <ele>366.4</ele>
        <time>2021-08-14T06:17:24Z</time>
      </trkpt>
      <trkpt lat="46.1762" lon="3.15475">
        <ele>364</ele>
        <time>2021-08-14T06:17:28Z</time>
      </trkpt>
      <trkpt lat="46.17572" lon="3.15433">
        <ele>361.11</ele>
        <time>2021-08-14T06:17:35Z</time>
      </trkpt>
      <trkpt lat="46.1755" lon="3.15414">
        <ele>360.15</ele>
        <time>2021-08-14T06:17:39Z</time>
      </trkpt>
      <trkpt lat="46.17546" lon="3.15409">
        <ele>359.67</ele>
        <time>2021-08-14T06:17:40Z</time>
      </trkpt>
      <trkpt lat="46.17539" lon="3.15399">
        <ele>359.67</ele>
        <time>2021-08-14T06:17:42Z</time>
      </trkpt>
      <trkpt lat="46.17535" lon="3.15396">
        <ele>359.19</ele>
        <time>2021-08-14T06:17:43Z</time>
      </trkpt>
      <trkpt lat="46.17529" lon="3.15395">
        <ele>358.71</ele>
        <time>2021-08-14T06:17:44Z</time>
      </trkpt>
      <trkpt lat="46.17524" lon="3.15396">
        <ele>358.23</ele>
        <time>2021-08-14T06:17:45Z</time>
      </trkpt>
      <trkpt lat="46.17518" lon="3.15397">
        <ele>357.27</ele>
        <time>2021-08-14T06:17:46Z</time>
      </trkpt>
      <trkpt lat="46.17512" lon="3.15399">
        <ele>356.79</ele>
        <time>2021-08-14T06:17:47Z</time>
      </trkpt>
      <trkpt lat="46.17506" lon="3.154">
        <ele>356.79</ele>
        <time>2021-08-14T06:17:48Z</time>
      </trkpt>
      <trkpt lat="46.175" lon="3.15403">
        <ele>355.83</ele>
        <time>2021-08-14T06:17:49Z</time>
      </trkpt>
      <trkpt lat="46.17456" lon="3.15416">
        <ele>353.42</ele>
        <time>2021-08-14T06:17:56Z</time>
      </trkpt>
      <trkpt lat="46.17397" lon="3.15433">
        <ele>350.54</ele>
        <time>2021-08-14T06:18:05Z</time>
      </trkpt>
      <trkpt lat="46.17348" lon="3.15449">
        <ele>346.69</ele>
        <time>2021-08-14T06:18:12Z</time>
      </trkpt>
      <trkpt lat="46.17309" lon="3.15467">
        <ele>342.85</ele>
        <time>2021-08-14T06:18:17Z</time>
      </trkpt>
      <trkpt lat="46.17274" lon="3.15483">
        <ele>339.48</ele>
        <time>2021-08-14T06:18:21Z</time>
      </trkpt>
      <trkpt lat="46.17265" lon="3.15486">
        <ele>339</ele>
        <time>2021-08-14T06:18:22Z</time>
      </trkpt>
      <trkpt lat="46.17255" lon="3.15487">
        <ele>338.04</ele>
        <time>2021-08-14T06:18:23Z</time>
      </trkpt>
      <trkpt lat="46.17246" lon="3.15488">
        <ele>337.56</ele>
        <time>2021-08-14T06:18:24Z</time>
      </trkpt>
      <trkpt lat="46.17203" lon="3.15488">
        <ele>335.16</ele>
        <time>2021-08-14T06:18:29Z</time>
      </trkpt>
      <trkpt lat="46.17196" lon="3.15491">
        <ele>335.16</ele>
        <time>2021-08-14T06:18:30Z</time>
      </trkpt>
      <trkpt lat="46.1719" lon="3.15494">
        <ele>334.68</ele>
        <time>2021-08-14T06:18:31Z</time>
      </trkpt>
      <trkpt lat="46.17184" lon="3.15497">
        <ele>334.68</ele>
        <time>2021-08-14T06:18:32Z</time>
      </trkpt>
      <trkpt lat="46.17178" lon="3.15499">
        <ele>334.68</ele>
        <time>2021-08-14T06:18:33Z</time>
      </trkpt>
      <trkpt lat="46.17173" lon="3.155">
        <ele>334.68</ele>
        <time>2021-08-14T06:18:34Z</time>
      </trkpt>
      <trkpt lat="46.17167" lon="3.155">
        <ele>333.71</ele>
        <time>2021-08-14T06:18:35Z</time>
      </trkpt>
      <trkpt lat="46.1716" lon="3.155">
        <ele>333.71</ele>
        <time>2021-08-14T06:18:36Z</time>
      </trkpt>
      <trkpt lat="46.17154" lon="3.155">
        <ele>333.71</ele>
        <time>2021-08-14T06:18:37Z</time>
      </trkpt>
      <trkpt lat="46.17141" lon="3.15502">
        <ele>333.23</ele>
        <time>2021-08-14T06:18:39Z</time>
      </trkpt>
      <trkpt lat="46.17086" lon="3.15518">
        <ele>331.31</ele>
        <time>2021-08-14T06:18:47Z</time>
      </trkpt>
      <trkpt lat="46.17033" lon="3.1553">
        <ele>330.35</ele>
        <time>2021-08-14T06:18:54Z</time>
      </trkpt>
      <trkpt lat="46.17026" lon="3.1553">
        <ele>329.87</ele>
        <time>2021-08-14T06:18:55Z</time>
      </trkpt>
      <trkpt lat="46.16998" lon="3.15528">
        <ele>329.87</ele>
        <time>2021-08-14T06:18:59Z</time>
      </trkpt>
      <trkpt lat="46.16992" lon="3.1553">
        <ele>329.87</ele>
        <time>2021-08-14T06:19:00Z</time>
      </trkpt>
      <trkpt lat="46.16988" lon="3.15534">
        <ele>329.87</ele>
        <time>2021-08-14T06:19:01Z</time>
      </trkpt>
      <trkpt lat="46.16984" lon="3.1554">
        <ele>329.87</ele>
        <time>2021-08-14T06:19:02Z</time>
      </trkpt>
      <trkpt lat="46.16981" lon="3.15547">
        <ele>329.87</ele>
        <time>2021-08-14T06:19:03Z</time>
      </trkpt>
      <trkpt lat="46.16979" lon="3.15554">
        <ele>329.87</ele>
        <time>2021-08-14T06:19:04Z</time>
      </trkpt>
      <trkpt lat="46.16976" lon="3.15561">
        <ele>329.87</ele>
        <time>2021-08-14T06:19:05Z</time>
      </trkpt>
      <trkpt lat="46.16957" lon="3.1563">
        <ele>329.87</ele>
        <time>2021-08-14T06:19:15Z</time>
      </trkpt>
      <trkpt lat="46.16938" lon="3.15695">
        <ele>329.87</ele>
        <time>2021-08-14T06:19:25Z</time>
      </trkpt>
      <trkpt lat="46.16934" lon="3.15707">
        <ele>330.83</ele>
        <time>2021-08-14T06:19:27Z</time>
      </trkpt>
      <trkpt lat="46.16919" lon="3.15756">
        <ele>331.31</ele>
        <time>2021-08-14T06:19:36Z</time>
      </trkpt>
      <trkpt lat="46.16908" lon="3.15795">
        <ele>332.27</ele>
        <time>2021-08-14T06:19:44Z</time>
      </trkpt>
      <trkpt lat="46.169" lon="3.15824">
        <ele>332.75</ele>
        <time>2021-08-14T06:19:51Z</time>
      </trkpt>
      <trkpt lat="46.16891" lon="3.15846">
        <ele>333.23</ele>
        <time>2021-08-14T06:19:57Z</time>
      </trkpt>
      <trkpt lat="46.16879" lon="3.15887">
        <ele>334.68</ele>
        <time>2021-08-14T06:20:07Z</time>
      </trkpt>
      <trkpt lat="46.16872" lon="3.15914">
        <ele>335.16</ele>
        <time>2021-08-14T06:20:14Z</time>
      </trkpt>
      <trkpt lat="46.16863" lon="3.1595">
        <ele>336.12</ele>
        <time>2021-08-14T06:20:23Z</time>
      </trkpt>
      <trkpt lat="46.1686" lon="3.1598">
        <ele>337.08</ele>
        <time>2021-08-14T06:20:31Z</time>
      </trkpt>
      <trkpt lat="46.16857" lon="3.16003">
        <ele>338.52</ele>
        <time>2021-08-14T06:20:38Z</time>
      </trkpt>
      <trkpt lat="46.16856" lon="3.16025">
        <ele>339.48</ele>
        <time>2021-08-14T06:20:46Z</time>
      </trkpt>
      <trkpt lat="46.16855" lon="3.16029">
        <ele>339.48</ele>
        <time>2021-08-14T06:20:48Z</time>
      </trkpt>
      <trkpt lat="46.16846" lon="3.16037">
        <ele>340.44</ele>
        <time>2021-08-14T06:20:55Z</time>
      </trkpt>
      <trkpt lat="46.16836" lon="3.16048">
        <ele>341.41</ele>
        <time>2021-08-14T06:21:04Z</time>
      </trkpt>
      <trkpt lat="46.1683" lon="3.16055">
        <ele>342.37</ele>
        <time>2021-08-14T06:21:11Z</time>
      </trkpt>
      <trkpt lat="46.16822" lon="3.16064">
        <ele>344.29</ele>
        <time>2021-08-14T06:21:19Z</time>
      </trkpt>
      <trkpt lat="46.16813" lon="3.16072">
        <ele>345.25</ele>
        <time>2021-08-14T06:21:28Z</time>
      </trkpt>
      <trkpt lat="46.16809" lon="3.16075">
        <ele>345.73</ele>
        <time>2021-08-14T06:21:31Z</time>
      </trkpt>
      <trkpt lat="46.16808" lon="3.16077">
        <ele>346.21</ele>
        <time>2021-08-14T06:21:32Z</time>
      </trkpt>
      <trkpt lat="46.16807" lon="3.16078">
        <ele>346.69</ele>
        <time>2021-08-14T06:21:33Z</time>
      </trkpt>
      <trkpt lat="46.16799" lon="3.16086">
        <ele>347.65</ele>
        <time>2021-08-14T06:21:41Z</time>
      </trkpt>
      <trkpt lat="46.16798" lon="3.16087">
        <ele>348.13</ele>
        <time>2021-08-14T06:21:42Z</time>
      </trkpt>
      <trkpt lat="46.16797" lon="3.16088">
        <ele>348.13</ele>
        <time>2021-08-14T06:21:43Z</time>
      </trkpt>
      <trkpt lat="46.16789" lon="3.161">
        <ele>349.1</ele>
        <time>2021-08-14T06:21:52Z</time>
      </trkpt>
      <trkpt lat="46.16783" lon="3.16108">
        <ele>349.58</ele>
        <time>2021-08-14T06:21:58Z</time>
      </trkpt>
      <trkpt lat="46.16783" lon="3.16109">
        <ele>350.54</ele>
        <time>2021-08-14T06:21:59Z</time>
      </trkpt>
      <trkpt lat="46.16782" lon="3.1611">
        <ele>350.06</ele>
        <time>2021-08-14T06:22:00Z</time>
      </trkpt>
      <trkpt lat="46.16774" lon="3.16126">
        <ele>351.5</ele>
        <time>2021-08-14T06:22:11Z</time>
      </trkpt>
      <trkpt lat="46.16769" lon="3.16135">
        <ele>352.94</ele>
        <time>2021-08-14T06:22:17Z</time>
      </trkpt>
      <trkpt lat="46.16769" lon="3.16137">
        <ele>352.94</ele>
        <time>2021-08-14T06:22:18Z</time>
      </trkpt>
      <trkpt lat="46.16768" lon="3.16139">
        <ele>352.94</ele>
        <time>2021-08-14T06:22:19Z</time>
      </trkpt>
      <trkpt lat="46.16768" lon="3.1614">
        <ele>353.42</ele>
        <time>2021-08-14T06:22:20Z</time>
      </trkpt>
      <trkpt lat="46.16767" lon="3.16142">
        <ele>353.42</ele>
        <time>2021-08-14T06:22:21Z</time>
      </trkpt>
      <trkpt lat="46.16765" lon="3.16143">
        <ele>353.42</ele>
        <time>2021-08-14T06:22:26Z</time>
      </trkpt>
      <trkpt lat="46.16765" lon="3.16141">
        <ele>353.9</ele>
        <time>2021-08-14T06:22:27Z</time>
      </trkpt>
      <trkpt lat="46.16766" lon="3.16139">
        <ele>353.9</ele>
        <time>2021-08-14T06:22:28Z</time>
      </trkpt>
      <trkpt lat="46.16766" lon="3.16136">
        <ele>353.9</ele>
        <time>2021-08-14T06:22:29Z</time>
      </trkpt>
      <trkpt lat="46.16766" lon="3.16133">
        <ele>353.9</ele>
        <time>2021-08-14T06:22:30Z</time>
      </trkpt>
      <trkpt lat="46.16764" lon="3.16128">
        <ele>353.9</ele>
        <time>2021-08-14T06:22:31Z</time>
      </trkpt>
      <trkpt lat="46.16762" lon="3.16125">
        <ele>352.46</ele>
        <time>2021-08-14T06:22:32Z</time>
      </trkpt>
      <trkpt lat="46.16759" lon="3.16122">
        <ele>352.46</ele>
        <time>2021-08-14T06:22:33Z</time>
      </trkpt>
      <trkpt lat="46.16757" lon="3.16118">
        <ele>352.46</ele>
        <time>2021-08-14T06:22:34Z</time>
      </trkpt>
      <trkpt lat="46.16728" lon="3.16086">
        <ele>351.02</ele>
        <time>2021-08-14T06:22:43Z</time>
      </trkpt>
      <trkpt lat="46.16692" lon="3.16047">
        <ele>349.58</ele>
        <time>2021-08-14T06:22:52Z</time>
      </trkpt>
      <trkpt lat="46.16685" lon="3.16038">
        <ele>349.58</ele>
        <time>2021-08-14T06:22:54Z</time>
      </trkpt>
      <trkpt lat="46.16672" lon="3.16025">
        <ele>349.1</ele>
        <time>2021-08-14T06:22:57Z</time>
      </trkpt>
      <trkpt lat="46.16638" lon="3.15989">
        <ele>345.25</ele>
        <time>2021-08-14T06:23:04Z</time>
      </trkpt>
      <trkpt lat="46.16609" lon="3.15957">
        <ele>342.85</ele>
        <time>2021-08-14T06:23:09Z</time>
      </trkpt>
      <trkpt lat="46.16585" lon="3.15931">
        <ele>339.96</ele>
        <time>2021-08-14T06:23:13Z</time>
      </trkpt>
      <trkpt lat="46.16535" lon="3.15876">
        <ele>337.08</ele>
        <time>2021-08-14T06:23:21Z</time>
      </trkpt>
      <trkpt lat="46.16483" lon="3.15818">
        <ele>334.68</ele>
        <time>2021-08-14T06:23:30Z</time>
      </trkpt>
      <trkpt lat="46.16461" lon="3.15794">
        <ele>333.23</ele>
        <time>2021-08-14T06:23:34Z</time>
      </trkpt>
      <trkpt lat="46.16445" lon="3.15778">
        <ele>332.27</ele>
        <time>2021-08-14T06:23:37Z</time>
      </trkpt>
      <trkpt lat="46.16439" lon="3.15776">
        <ele>332.27</ele>
        <time>2021-08-14T06:23:38Z</time>
      </trkpt>
      <trkpt lat="46.16434" lon="3.15777">
        <ele>331.79</ele>
        <time>2021-08-14T06:23:39Z</time>
      </trkpt>
      <trkpt lat="46.16428" lon="3.15781">
        <ele>331.79</ele>
        <time>2021-08-14T06:23:40Z</time>
      </trkpt>
      <trkpt lat="46.16423" lon="3.15786">
        <ele>331.31</ele>
        <time>2021-08-14T06:23:41Z</time>
      </trkpt>
      <trkpt lat="46.16399" lon="3.15807">
        <ele>327.95</ele>
        <time>2021-08-14T06:23:45Z</time>
      </trkpt>
      <trkpt lat="46.16392" lon="3.15813">
        <ele>327.95</ele>
        <time>2021-08-14T06:23:46Z</time>
      </trkpt>
      <trkpt lat="46.1637" lon="3.15831">
        <ele>325.54</ele>
        <time>2021-08-14T06:23:49Z</time>
      </trkpt>
      <trkpt lat="46.16362" lon="3.15835">
        <ele>324.58</ele>
        <time>2021-08-14T06:23:50Z</time>
      </trkpt>
      <trkpt lat="46.16353" lon="3.15839">
        <ele>323.14</ele>
        <time>2021-08-14T06:23:51Z</time>
      </trkpt>
      <trkpt lat="46.16344" lon="3.15843">
        <ele>323.14</ele>
        <time>2021-08-14T06:23:52Z</time>
      </trkpt>
      <trkpt lat="46.16335" lon="3.15844">
        <ele>322.18</ele>
        <time>2021-08-14T06:23:53Z</time>
      </trkpt>
      <trkpt lat="46.16326" lon="3.15844">
        <ele>320.74</ele>
        <time>2021-08-14T06:23:54Z</time>
      </trkpt>
      <trkpt lat="46.16317" lon="3.15843">
        <ele>320.26</ele>
        <time>2021-08-14T06:23:55Z</time>
      </trkpt>
      <trkpt lat="46.163" lon="3.1584">
        <ele>318.33</ele>
        <time>2021-08-14T06:23:57Z</time>
      </trkpt>
      <trkpt lat="46.16293" lon="3.15837">
        <ele>317.85</ele>
        <time>2021-08-14T06:23:58Z</time>
      </trkpt>
      <trkpt lat="46.16286" lon="3.15835">
        <ele>316.89</ele>
        <time>2021-08-14T06:23:59Z</time>
      </trkpt>
      <trkpt lat="46.16279" lon="3.15835">
        <ele>316.89</ele>
        <time>2021-08-14T06:24:00Z</time>
      </trkpt>
      <trkpt lat="46.16272" lon="3.15836">
        <ele>315.45</ele>
        <time>2021-08-14T06:24:01Z</time>
      </trkpt>
      <trkpt lat="46.16266" lon="3.15835">
        <ele>314.49</ele>
        <time>2021-08-14T06:24:02Z</time>
      </trkpt>
      <trkpt lat="46.16261" lon="3.15831">
        <ele>314.01</ele>
        <time>2021-08-14T06:24:03Z</time>
      </trkpt>
      <trkpt lat="46.16258" lon="3.15823">
        <ele>313.53</ele>
        <time>2021-08-14T06:24:04Z</time>
      </trkpt>
      <trkpt lat="46.16256" lon="3.15813">
        <ele>312.57</ele>
        <time>2021-08-14T06:24:05Z</time>
      </trkpt>
      <trkpt lat="46.16256" lon="3.15803">
        <ele>312.09</ele>
        <time>2021-08-14T06:24:06Z</time>
      </trkpt>
      <trkpt lat="46.16255" lon="3.15793">
        <ele>311.6</ele>
        <time>2021-08-14T06:24:07Z</time>
      </trkpt>
      <trkpt lat="46.16247" lon="3.15725">
        <ele>310.16</ele>
        <time>2021-08-14T06:24:14Z</time>
      </trkpt>
      <trkpt lat="46.16238" lon="3.15672">
        <ele>310.16</ele>
        <time>2021-08-14T06:24:21Z</time>
      </trkpt>
      <trkpt lat="46.1623" lon="3.15631">
        <ele>310.64</ele>
        <time>2021-08-14T06:24:28Z</time>
      </trkpt>
      <trkpt lat="46.16224" lon="3.15611">
        <ele>310.16</ele>
        <time>2021-08-14T06:24:34Z</time>
      </trkpt>
      <trkpt lat="46.16209" lon="3.15591">
        <ele>310.16</ele>
        <time>2021-08-14T06:24:41Z</time>
      </trkpt>
      <trkpt lat="46.16191" lon="3.15585">
        <ele>310.16</ele>
        <time>2021-08-14T06:24:47Z</time>
      </trkpt>
      <trkpt lat="46.16175" lon="3.15579">
        <ele>311.6</ele>
        <time>2021-08-14T06:24:54Z</time>
      </trkpt>
      <trkpt lat="46.1617" lon="3.15578">
        <ele>312.57</ele>
        <time>2021-08-14T06:24:57Z</time>
      </trkpt>
      <trkpt lat="46.16168" lon="3.15578">
        <ele>312.57</ele>
        <time>2021-08-14T06:24:58Z</time>
      </trkpt>
      <trkpt lat="46.16167" lon="3.15578">
        <ele>312.57</ele>
        <time>2021-08-14T06:24:59Z</time>
      </trkpt>
      <trkpt lat="46.16158" lon="3.15578">
        <ele>313.53</ele>
        <time>2021-08-14T06:25:08Z</time>
      </trkpt>
      <trkpt lat="46.1615" lon="3.15577">
        <ele>314.97</ele>
        <time>2021-08-14T06:25:17Z</time>
      </trkpt>
      <trkpt lat="46.16141" lon="3.15576">
        <ele>316.41</ele>
        <time>2021-08-14T06:25:26Z</time>
      </trkpt>
      <trkpt lat="46.16133" lon="3.15574">
        <ele>317.85</ele>
        <time>2021-08-14T06:25:34Z</time>
      </trkpt>
      <trkpt lat="46.16132" lon="3.15573">
        <ele>317.85</ele>
        <time>2021-08-14T06:25:35Z</time>
      </trkpt>
      <trkpt lat="46.16125" lon="3.15569">
        <ele>319.3</ele>
        <time>2021-08-14T06:25:44Z</time>
      </trkpt>
      <trkpt lat="46.16116" lon="3.15566">
        <ele>321.7</ele>
        <time>2021-08-14T06:25:55Z</time>
      </trkpt>
      <trkpt lat="46.16107" lon="3.15564">
        <ele>323.14</ele>
        <time>2021-08-14T06:26:05Z</time>
      </trkpt>
      <trkpt lat="46.16097" lon="3.15567">
        <ele>325.06</ele>
        <time>2021-08-14T06:26:17Z</time>
      </trkpt>
      <trkpt lat="46.1609" lon="3.15573">
        <ele>326.5</ele>
        <time>2021-08-14T06:26:27Z</time>
      </trkpt>
      <trkpt lat="46.16081" lon="3.15578">
        <ele>327.95</ele>
        <time>2021-08-14T06:26:36Z</time>
      </trkpt>
      <trkpt lat="46.1608" lon="3.15579">
        <ele>327.95</ele>
        <time>2021-08-14T06:26:37Z</time>
      </trkpt>
      <trkpt lat="46.16079" lon="3.1558">
        <ele>328.43</ele>
        <time>2021-08-14T06:26:38Z</time>
      </trkpt>
      <trkpt lat="46.1607" lon="3.15585">
        <ele>329.39</ele>
        <time>2021-08-14T06:26:46Z</time>
      </trkpt>
      <trkpt lat="46.16067" lon="3.15586">
        <ele>329.87</ele>
        <time>2021-08-14T06:26:53Z</time>
      </trkpt>
      <trkpt lat="46.1606" lon="3.15589">
        <ele>330.35</ele>
        <time>2021-08-14T06:26:59Z</time>
      </trkpt>
      <trkpt lat="46.16047" lon="3.15593">
        <ele>331.79</ele>
        <time>2021-08-14T06:27:07Z</time>
      </trkpt>
      <trkpt lat="46.16036" lon="3.15594">
        <ele>332.75</ele>
        <time>2021-08-14T06:27:15Z</time>
      </trkpt>
      <trkpt lat="46.16017" lon="3.15595">
        <ele>334.68</ele>
        <time>2021-08-14T06:27:25Z</time>
      </trkpt>
      <trkpt lat="46.15999" lon="3.15597">
        <ele>336.12</ele>
        <time>2021-08-14T06:27:34Z</time>
      </trkpt>
      <trkpt lat="46.1598" lon="3.15597">
        <ele>337.08</ele>
        <time>2021-08-14T06:27:43Z</time>
      </trkpt>
      <trkpt lat="46.15976" lon="3.15596">
        <ele>337.56</ele>
        <time>2021-08-14T06:27:45Z</time>
      </trkpt>
      <trkpt lat="46.15959" lon="3.15599">
        <ele>338.04</ele>
        <time>2021-08-14T06:27:53Z</time>
      </trkpt>
      <trkpt lat="46.15941" lon="3.15601">
        <ele>338.52</ele>
        <time>2021-08-14T06:28:00Z</time>
      </trkpt>
      <trkpt lat="46.15916" lon="3.15602">
        <ele>339.96</ele>
        <time>2021-08-14T06:28:10Z</time>
      </trkpt>
      <trkpt lat="46.1589" lon="3.15602">
        <ele>340.44</ele>
        <time>2021-08-14T06:28:19Z</time>
      </trkpt>
      <trkpt lat="46.15863" lon="3.15602">
        <ele>340.44</ele>
        <time>2021-08-14T06:28:26Z</time>
      </trkpt>
      <trkpt lat="46.15841" lon="3.156">
        <ele>340.92</ele>
        <time>2021-08-14T06:28:31Z</time>
      </trkpt>
      <trkpt lat="46.15837" lon="3.156">
        <ele>340.92</ele>
        <time>2021-08-14T06:28:32Z</time>
      </trkpt>
      <trkpt lat="46.15799" lon="3.15595">
        <ele>340.92</ele>
        <time>2021-08-14T06:28:42Z</time>
      </trkpt>
      <trkpt lat="46.15776" lon="3.15595">
        <ele>342.37</ele>
        <time>2021-08-14T06:28:50Z</time>
      </trkpt>
      <trkpt lat="46.15755" lon="3.15594">
        <ele>343.81</ele>
        <time>2021-08-14T06:29:00Z</time>
      </trkpt>
      <trkpt lat="46.15737" lon="3.15591">
        <ele>345.25</ele>
        <time>2021-08-14T06:29:09Z</time>
      </trkpt>
      <trkpt lat="46.15715" lon="3.15589">
        <ele>346.69</ele>
        <time>2021-08-14T06:29:20Z</time>
      </trkpt>
      <trkpt lat="46.15694" lon="3.15587">
        <ele>348.62</ele>
        <time>2021-08-14T06:29:30Z</time>
      </trkpt>
      <trkpt lat="46.1567" lon="3.15586">
        <ele>350.54</ele>
        <time>2021-08-14T06:29:42Z</time>
      </trkpt>
      <trkpt lat="46.15651" lon="3.15584">
        <ele>352.46</ele>
        <time>2021-08-14T06:29:52Z</time>
      </trkpt>
      <trkpt lat="46.15631" lon="3.15582">
        <ele>353.9</ele>
        <time>2021-08-14T06:30:02Z</time>
      </trkpt>
      <trkpt lat="46.15614" lon="3.15581">
        <ele>354.86</ele>
        <time>2021-08-14T06:30:10Z</time>
      </trkpt>
      <trkpt lat="46.15596" lon="3.15581">
        <ele>356.31</ele>
        <time>2021-08-14T06:30:19Z</time>
      </trkpt>
      <trkpt lat="46.15576" lon="3.15583">
        <ele>357.75</ele>
        <time>2021-08-14T06:30:27Z</time>
      </trkpt>
      <trkpt lat="46.15554" lon="3.15585">
        <ele>358.23</ele>
        <time>2021-08-14T06:30:36Z</time>
      </trkpt>
      <trkpt lat="46.15523" lon="3.15587">
        <ele>359.19</ele>
        <time>2021-08-14T06:30:48Z</time>
      </trkpt>
      <trkpt lat="46.155" lon="3.15585">
        <ele>360.15</ele>
        <time>2021-08-14T06:30:57Z</time>
      </trkpt>
      <trkpt lat="46.15484" lon="3.15577">
        <ele>361.11</ele>
        <time>2021-08-14T06:31:04Z</time>
      </trkpt>
      <trkpt lat="46.15466" lon="3.15564">
        <ele>362.07</ele>
        <time>2021-08-14T06:31:12Z</time>
      </trkpt>
      <trkpt lat="46.1545" lon="3.15547">
        <ele>363.04</ele>
        <time>2021-08-14T06:31:19Z</time>
      </trkpt>
      <trkpt lat="46.1543" lon="3.15523">
        <ele>364.48</ele>
        <time>2021-08-14T06:31:28Z</time>
      </trkpt>
      <trkpt lat="46.15417" lon="3.15503">
        <ele>364.48</ele>
        <time>2021-08-14T06:31:35Z</time>
      </trkpt>
      <trkpt lat="46.15404" lon="3.15508">
        <ele>365.44</ele>
        <time>2021-08-14T06:31:40Z</time>
      </trkpt>
      <trkpt lat="46.15392" lon="3.15534">
        <ele>365.92</ele>
        <time>2021-08-14T06:31:49Z</time>
      </trkpt>
      <trkpt lat="46.15384" lon="3.15559">
        <ele>367.36</ele>
        <time>2021-08-14T06:31:57Z</time>
      </trkpt>
      <trkpt lat="46.15376" lon="3.15585">
        <ele>368.8</ele>
        <time>2021-08-14T06:32:05Z</time>
      </trkpt>
      <trkpt lat="46.15362" lon="3.15617">
        <ele>369.76</ele>
        <time>2021-08-14T06:32:15Z</time>
      </trkpt>
      <trkpt lat="46.15346" lon="3.1563">
        <ele>370.73</ele>
        <time>2021-08-14T06:32:22Z</time>
      </trkpt>
      <trkpt lat="46.15318" lon="3.15641">
        <ele>371.69</ele>
        <time>2021-08-14T06:32:33Z</time>
      </trkpt>
      <trkpt lat="46.15293" lon="3.15648">
        <ele>373.13</ele>
        <time>2021-08-14T06:32:43Z</time>
      </trkpt>
      <trkpt lat="46.15275" lon="3.15649">
        <ele>374.57</ele>
        <time>2021-08-14T06:32:50Z</time>
      </trkpt>
      <trkpt lat="46.15247" lon="3.15653">
        <ele>375.05</ele>
        <time>2021-08-14T06:33:00Z</time>
      </trkpt>
      <trkpt lat="46.15217" lon="3.15653">
        <ele>376.49</ele>
        <time>2021-08-14T06:33:11Z</time>
      </trkpt>
      <trkpt lat="46.15192" lon="3.1565">
        <ele>377.94</ele>
        <time>2021-08-14T06:33:20Z</time>
      </trkpt>
      <trkpt lat="46.15165" lon="3.15645">
        <ele>379.86</ele>
        <time>2021-08-14T06:33:30Z</time>
      </trkpt>
      <trkpt lat="46.15145" lon="3.15638">
        <ele>380.34</ele>
        <time>2021-08-14T06:33:38Z</time>
      </trkpt>
      <trkpt lat="46.15124" lon="3.1563">
        <ele>381.78</ele>
        <time>2021-08-14T06:33:46Z</time>
      </trkpt>
      <trkpt lat="46.151" lon="3.15623">
        <ele>382.74</ele>
        <time>2021-08-14T06:33:55Z</time>
      </trkpt>
      <trkpt lat="46.15078" lon="3.15615">
        <ele>383.7</ele>
        <time>2021-08-14T06:34:03Z</time>
      </trkpt>
      <trkpt lat="46.15056" lon="3.15606">
        <ele>384.66</ele>
        <time>2021-08-14T06:34:10Z</time>
      </trkpt>
      <trkpt lat="46.15026" lon="3.15591">
        <ele>385.15</ele>
        <time>2021-08-14T06:34:19Z</time>
      </trkpt>
      <trkpt lat="46.15008" lon="3.1558">
        <ele>386.11</ele>
        <time>2021-08-14T06:34:24Z</time>
      </trkpt>
      <trkpt lat="46.14975" lon="3.15563">
        <ele>387.07</ele>
        <time>2021-08-14T06:34:33Z</time>
      </trkpt>
      <trkpt lat="46.14934" lon="3.15549">
        <ele>387.55</ele>
        <time>2021-08-14T06:34:43Z</time>
      </trkpt>
      <trkpt lat="46.14918" lon="3.15541">
        <ele>387.55</ele>
        <time>2021-08-14T06:34:47Z</time>
      </trkpt>
      <trkpt lat="46.1491" lon="3.15535">
        <ele>387.55</ele>
        <time>2021-08-14T06:34:49Z</time>
      </trkpt>
      <trkpt lat="46.14907" lon="3.15531">
        <ele>387.55</ele>
        <time>2021-08-14T06:34:50Z</time>
      </trkpt>
      <trkpt lat="46.14896" lon="3.15518">
        <ele>387.55</ele>
        <time>2021-08-14T06:34:53Z</time>
      </trkpt>
      <trkpt lat="46.14892" lon="3.15514">
        <ele>387.55</ele>
        <time>2021-08-14T06:34:54Z</time>
      </trkpt>
      <trkpt lat="46.14856" lon="3.15482">
        <ele>387.55</ele>
        <time>2021-08-14T06:35:03Z</time>
      </trkpt>
      <trkpt lat="46.14817" lon="3.15447">
        <ele>387.55</ele>
        <time>2021-08-14T06:35:12Z</time>
      </trkpt>
      <trkpt lat="46.14773" lon="3.15407">
        <ele>386.11</ele>
        <time>2021-08-14T06:35:21Z</time>
      </trkpt>
      <trkpt lat="46.14712" lon="3.15356">
        <ele>385.15</ele>
        <time>2021-08-14T06:35:32Z</time>
      </trkpt>
      <trkpt lat="46.14664" lon="3.15298">
        <ele>384.18</ele>
        <time>2021-08-14T06:35:42Z</time>
      </trkpt>
      <trkpt lat="46.14624" lon="3.15242">
        <ele>383.22</ele>
        <time>2021-08-14T06:35:51Z</time>
      </trkpt>
      <trkpt lat="46.14575" lon="3.15182">
        <ele>381.3</ele>
        <time>2021-08-14T06:36:01Z</time>
      </trkpt>
      <trkpt lat="46.14516" lon="3.1511">
        <ele>379.86</ele>
        <time>2021-08-14T06:36:13Z</time>
      </trkpt>
      <trkpt lat="46.14478" lon="3.15058">
        <ele>377.94</ele>
        <time>2021-08-14T06:36:21Z</time>
      </trkpt>
      <trkpt lat="46.14434" lon="3.1499">
        <ele>376.49</ele>
        <time>2021-08-14T06:36:31Z</time>
      </trkpt>
      <trkpt lat="46.14429" lon="3.14982">
        <ele>376.01</ele>
        <time>2021-08-14T06:36:32Z</time>
      </trkpt>
      <trkpt lat="46.14405" lon="3.1494">
        <ele>376.01</ele>
        <time>2021-08-14T06:36:39Z</time>
      </trkpt>
      <trkpt lat="46.14393" lon="3.14912">
        <ele>375.53</ele>
        <time>2021-08-14T06:36:45Z</time>
      </trkpt>
      <trkpt lat="46.1438" lon="3.14871">
        <ele>375.53</ele>
        <time>2021-08-14T06:36:52Z</time>
      </trkpt>
      <trkpt lat="46.14356" lon="3.14823">
        <ele>374.09</ele>
        <time>2021-08-14T06:37:00Z</time>
      </trkpt>
      <trkpt lat="46.14325" lon="3.14762">
        <ele>371.21</ele>
        <time>2021-08-14T06:37:08Z</time>
      </trkpt>
      <trkpt lat="46.14297" lon="3.14694">
        <ele>368.8</ele>
        <time>2021-08-14T06:37:16Z</time>
      </trkpt>
      <trkpt lat="46.14271" lon="3.14621">
        <ele>365.92</ele>
        <time>2021-08-14T06:37:24Z</time>
      </trkpt>
      <trkpt lat="46.14265" lon="3.14601">
        <ele>364.96</ele>
        <time>2021-08-14T06:37:26Z</time>
      </trkpt>
      <trkpt lat="46.14236" lon="3.14526">
        <ele>362.55</ele>
        <time>2021-08-14T06:37:34Z</time>
      </trkpt>
      <trkpt lat="46.14226" lon="3.14501">
        <ele>361.11</ele>
        <time>2021-08-14T06:37:37Z</time>
      </trkpt>
      <trkpt lat="46.14224" lon="3.14493">
        <ele>361.11</ele>
        <time>2021-08-14T06:37:38Z</time>
      </trkpt>
      <trkpt lat="46.14225" lon="3.14486">
        <ele>361.11</ele>
        <time>2021-08-14T06:37:39Z</time>
      </trkpt>
      <trkpt lat="46.14227" lon="3.1448">
        <ele>361.59</ele>
        <time>2021-08-14T06:37:40Z</time>
      </trkpt>
      <trkpt lat="46.14229" lon="3.14475">
        <ele>361.11</ele>
        <time>2021-08-14T06:37:41Z</time>
      </trkpt>
      <trkpt lat="46.14232" lon="3.14469">
        <ele>361.11</ele>
        <time>2021-08-14T06:37:42Z</time>
      </trkpt>
      <trkpt lat="46.14235" lon="3.14463">
        <ele>361.11</ele>
        <time>2021-08-14T06:37:43Z</time>
      </trkpt>
      <trkpt lat="46.14256" lon="3.14422">
        <ele>360.15</ele>
        <time>2021-08-14T06:37:50Z</time>
      </trkpt>
      <trkpt lat="46.1426" lon="3.14417">
        <ele>360.15</ele>
        <time>2021-08-14T06:37:51Z</time>
      </trkpt>
      <trkpt lat="46.14263" lon="3.14412">
        <ele>359.67</ele>
        <time>2021-08-14T06:37:52Z</time>
      </trkpt>
      <trkpt lat="46.14299" lon="3.14363">
        <ele>357.27</ele>
        <time>2021-08-14T06:38:01Z</time>
      </trkpt>
      <trkpt lat="46.1434" lon="3.14324">
        <ele>355.34</ele>
        <time>2021-08-14T06:38:09Z</time>
      </trkpt>
      <trkpt lat="46.14379" lon="3.14294">
        <ele>352.46</ele>
        <time>2021-08-14T06:38:15Z</time>
      </trkpt>
      <trkpt lat="46.14414" lon="3.14266">
        <ele>349.1</ele>
        <time>2021-08-14T06:38:20Z</time>
      </trkpt>
      <trkpt lat="46.14438" lon="3.14246">
        <ele>347.17</ele>
        <time>2021-08-14T06:38:24Z</time>
      </trkpt>
      <trkpt lat="46.14448" lon="3.14236">
        <ele>346.21</ele>
        <time>2021-08-14T06:38:27Z</time>
      </trkpt>
      <trkpt lat="46.14449" lon="3.14231">
        <ele>345.73</ele>
        <time>2021-08-14T06:38:28Z</time>
      </trkpt>
      <trkpt lat="46.14449" lon="3.14225">
        <ele>345.73</ele>
        <time>2021-08-14T06:38:29Z</time>
      </trkpt>
      <trkpt lat="46.14449" lon="3.14221">
        <ele>345.73</ele>
        <time>2021-08-14T06:38:30Z</time>
      </trkpt>
      <trkpt lat="46.14447" lon="3.14215">
        <ele>345.73</ele>
        <time>2021-08-14T06:38:31Z</time>
      </trkpt>
      <trkpt lat="46.14444" lon="3.14212">
        <ele>345.73</ele>
        <time>2021-08-14T06:38:32Z</time>
      </trkpt>
      <trkpt lat="46.14441" lon="3.14211">
        <ele>345.73</ele>
        <time>2021-08-14T06:38:33Z</time>
      </trkpt>
      <trkpt lat="46.14438" lon="3.14212">
        <ele>345.73</ele>
        <time>2021-08-14T06:38:34Z</time>
      </trkpt>
      <trkpt lat="46.14436" lon="3.14214">
        <ele>345.73</ele>
        <time>2021-08-14T06:38:35Z</time>
      </trkpt>
      <trkpt lat="46.14423" lon="3.14219">
        <ele>347.65</ele>
        <time>2021-08-14T06:38:41Z</time>
      </trkpt>
      <trkpt lat="46.14407" lon="3.14219">
        <ele>348.62</ele>
        <time>2021-08-14T06:38:49Z</time>
      </trkpt>
      <trkpt lat="46.14393" lon="3.1423">
        <ele>349.58</ele>
        <time>2021-08-14T06:38:56Z</time>
      </trkpt>
      <trkpt lat="46.14377" lon="3.14248">
        <ele>350.54</ele>
        <time>2021-08-14T06:39:05Z</time>
      </trkpt>
      <trkpt lat="46.14364" lon="3.1426">
        <ele>351.5</ele>
        <time>2021-08-14T06:39:12Z</time>
      </trkpt>
      <trkpt lat="46.1434" lon="3.14276">
        <ele>352.94</ele>
        <time>2021-08-14T06:39:24Z</time>
      </trkpt>
      <trkpt lat="46.14322" lon="3.14286">
        <ele>354.38</ele>
        <time>2021-08-14T06:39:33Z</time>
      </trkpt>
      <trkpt lat="46.14305" lon="3.14296">
        <ele>355.34</ele>
        <time>2021-08-14T06:39:41Z</time>
      </trkpt>
      <trkpt lat="46.14285" lon="3.14314">
        <ele>356.31</ele>
        <time>2021-08-14T06:39:49Z</time>
      </trkpt>
      <trkpt lat="46.14261" lon="3.14339">
        <ele>357.27</ele>
        <time>2021-08-14T06:39:59Z</time>
      </trkpt>
      <trkpt lat="46.14239" lon="3.14367">
        <ele>358.71</ele>
        <time>2021-08-14T06:40:09Z</time>
      </trkpt>
      <trkpt lat="46.14223" lon="3.14393">
        <ele>359.19</ele>
        <time>2021-08-14T06:40:17Z</time>
      </trkpt>
      <trkpt lat="46.14203" lon="3.1443">
        <ele>359.67</ele>
        <time>2021-08-14T06:40:27Z</time>
      </trkpt>
      <trkpt lat="46.14191" lon="3.14439">
        <ele>360.15</ele>
        <time>2021-08-14T06:40:31Z</time>
      </trkpt>
      <trkpt lat="46.14187" lon="3.14437">
        <ele>360.15</ele>
        <time>2021-08-14T06:40:32Z</time>
      </trkpt>
      <trkpt lat="46.14185" lon="3.14433">
        <ele>360.15</ele>
        <time>2021-08-14T06:40:33Z</time>
      </trkpt>
      <trkpt lat="46.14182" lon="3.14429">
        <ele>360.15</ele>
        <time>2021-08-14T06:40:34Z</time>
      </trkpt>
      <trkpt lat="46.1418" lon="3.14425">
        <ele>360.15</ele>
        <time>2021-08-14T06:40:35Z</time>
      </trkpt>
      <trkpt lat="46.14177" lon="3.14421">
        <ele>360.15</ele>
        <time>2021-08-14T06:40:36Z</time>
      </trkpt>
      <trkpt lat="46.14155" lon="3.14383">
        <ele>360.15</ele>
        <time>2021-08-14T06:40:44Z</time>
      </trkpt>
      <trkpt lat="46.14139" lon="3.1436">
        <ele>360.15</ele>
        <time>2021-08-14T06:40:49Z</time>
      </trkpt>
      <trkpt lat="46.14136" lon="3.14356">
        <ele>360.15</ele>
        <time>2021-08-14T06:40:50Z</time>
      </trkpt>
      <trkpt lat="46.14112" lon="3.14319">
        <ele>360.63</ele>
        <time>2021-08-14T06:40:58Z</time>
      </trkpt>
      <trkpt lat="46.14086" lon="3.14267">
        <ele>360.63</ele>
        <time>2021-08-14T06:41:08Z</time>
      </trkpt>
      <trkpt lat="46.14059" lon="3.1422">
        <ele>360.63</ele>
        <time>2021-08-14T06:41:17Z</time>
      </trkpt>
      <trkpt lat="46.1405" lon="3.14203">
        <ele>360.63</ele>
        <time>2021-08-14T06:41:20Z</time>
      </trkpt>
      <trkpt lat="46.14022" lon="3.14155">
        <ele>360.63</ele>
        <time>2021-08-14T06:41:29Z</time>
      </trkpt>
      <trkpt lat="46.14009" lon="3.14133">
        <ele>360.63</ele>
        <time>2021-08-14T06:41:33Z</time>
      </trkpt>
      <trkpt lat="46.13984" lon="3.1409">
        <ele>360.63</ele>
        <time>2021-08-14T06:41:41Z</time>
      </trkpt>
      <trkpt lat="46.13963" lon="3.14034">
        <ele>360.63</ele>
        <time>2021-08-14T06:41:50Z</time>
      </trkpt>
      <trkpt lat="46.13951" lon="3.13997">
        <ele>359.19</ele>
        <time>2021-08-14T06:41:56Z</time>
      </trkpt>
      <trkpt lat="46.13927" lon="3.1393">
        <ele>357.27</ele>
        <time>2021-08-14T06:42:06Z</time>
      </trkpt>
      <trkpt lat="46.1392" lon="3.13908">
        <ele>356.79</ele>
        <time>2021-08-14T06:42:09Z</time>
      </trkpt>
      <trkpt lat="46.13919" lon="3.139">
        <ele>356.31</ele>
        <time>2021-08-14T06:42:10Z</time>
      </trkpt>
      <trkpt lat="46.1392" lon="3.13848">
        <ele>352.94</ele>
        <time>2021-08-14T06:42:15Z</time>
      </trkpt>
      <trkpt lat="46.13919" lon="3.13836">
        <ele>352.94</ele>
        <time>2021-08-14T06:42:16Z</time>
      </trkpt>
      <trkpt lat="46.13916" lon="3.1379">
        <ele>350.06</ele>
        <time>2021-08-14T06:42:20Z</time>
      </trkpt>
      <trkpt lat="46.13912" lon="3.13781">
        <ele>350.06</ele>
        <time>2021-08-14T06:42:21Z</time>
      </trkpt>
      <trkpt lat="46.13908" lon="3.13773">
        <ele>349.58</ele>
        <time>2021-08-14T06:42:22Z</time>
      </trkpt>
      <trkpt lat="46.13873" lon="3.13718">
        <ele>347.65</ele>
        <time>2021-08-14T06:42:30Z</time>
      </trkpt>
      <trkpt lat="46.13863" lon="3.13693">
        <ele>346.21</ele>
        <time>2021-08-14T06:42:35Z</time>
      </trkpt>
      <trkpt lat="46.13851" lon="3.13659">
        <ele>346.21</ele>
        <time>2021-08-14T06:42:41Z</time>
      </trkpt>
      <trkpt lat="46.13848" lon="3.13652">
        <ele>346.21</ele>
        <time>2021-08-14T06:42:42Z</time>
      </trkpt>
      <trkpt lat="46.13845" lon="3.13646">
        <ele>346.21</ele>
        <time>2021-08-14T06:42:43Z</time>
      </trkpt>
      <trkpt lat="46.13843" lon="3.13639">
        <ele>345.73</ele>
        <time>2021-08-14T06:42:44Z</time>
      </trkpt>
      <trkpt lat="46.13835" lon="3.1362">
        <ele>345.73</ele>
        <time>2021-08-14T06:42:47Z</time>
      </trkpt>
      <trkpt lat="46.13829" lon="3.13608">
        <ele>345.73</ele>
        <time>2021-08-14T06:42:49Z</time>
      </trkpt>
      <trkpt lat="46.13826" lon="3.13603">
        <ele>345.25</ele>
        <time>2021-08-14T06:42:50Z</time>
      </trkpt>
      <trkpt lat="46.13791" lon="3.13562">
        <ele>344.77</ele>
        <time>2021-08-14T06:42:58Z</time>
      </trkpt>
      <trkpt lat="46.13771" lon="3.13542">
        <ele>344.77</ele>
        <time>2021-08-14T06:43:03Z</time>
      </trkpt>
      <trkpt lat="46.1377" lon="3.13536">
        <ele>344.77</ele>
        <time>2021-08-14T06:43:04Z</time>
      </trkpt>
      <trkpt lat="46.13771" lon="3.13531">
        <ele>344.77</ele>
        <time>2021-08-14T06:43:05Z</time>
      </trkpt>
      <trkpt lat="46.13773" lon="3.13526">
        <ele>343.81</ele>
        <time>2021-08-14T06:43:06Z</time>
      </trkpt>
      <trkpt lat="46.13775" lon="3.13521">
        <ele>342.85</ele>
        <time>2021-08-14T06:43:07Z</time>
      </trkpt>
      <trkpt lat="46.13783" lon="3.13503">
        <ele>339.48</ele>
        <time>2021-08-14T06:43:11Z</time>
      </trkpt>
      <trkpt lat="46.13785" lon="3.13479">
        <ele>336.12</ele>
        <time>2021-08-14T06:43:16Z</time>
      </trkpt>
      <trkpt lat="46.13783" lon="3.13467">
        <ele>335.64</ele>
        <time>2021-08-14T06:43:18Z</time>
      </trkpt>
      <trkpt lat="46.13776" lon="3.13437">
        <ele>332.27</ele>
        <time>2021-08-14T06:43:23Z</time>
      </trkpt>
      <trkpt lat="46.13774" lon="3.1343">
        <ele>332.27</ele>
        <time>2021-08-14T06:43:24Z</time>
      </trkpt>
      <trkpt lat="46.13765" lon="3.13403">
        <ele>328.91</ele>
        <time>2021-08-14T06:43:28Z</time>
      </trkpt>
      <trkpt lat="46.13758" lon="3.13375">
        <ele>325.06</ele>
        <time>2021-08-14T06:43:32Z</time>
      </trkpt>
      <trkpt lat="46.13753" lon="3.13352">
        <ele>321.7</ele>
        <time>2021-08-14T06:43:35Z</time>
      </trkpt>
      <trkpt lat="46.13737" lon="3.13311">
        <ele>318.81</ele>
        <time>2021-08-14T06:43:40Z</time>
      </trkpt>
      <trkpt lat="46.13732" lon="3.13306">
        <ele>317.85</ele>
        <time>2021-08-14T06:43:41Z</time>
      </trkpt>
      <trkpt lat="46.13727" lon="3.13301">
        <ele>317.37</ele>
        <time>2021-08-14T06:43:42Z</time>
      </trkpt>
      <trkpt lat="46.13722" lon="3.13296">
        <ele>316.89</ele>
        <time>2021-08-14T06:43:43Z</time>
      </trkpt>
      <trkpt lat="46.13717" lon="3.1329">
        <ele>315.93</ele>
        <time>2021-08-14T06:43:44Z</time>
      </trkpt>
      <trkpt lat="46.13713" lon="3.13282">
        <ele>315.45</ele>
        <time>2021-08-14T06:43:45Z</time>
      </trkpt>
      <trkpt lat="46.1371" lon="3.13272">
        <ele>314.97</ele>
        <time>2021-08-14T06:43:46Z</time>
      </trkpt>
      <trkpt lat="46.1371" lon="3.13264">
        <ele>314.97</ele>
        <time>2021-08-14T06:43:47Z</time>
      </trkpt>
      <trkpt lat="46.13711" lon="3.13257">
        <ele>314.97</ele>
        <time>2021-08-14T06:43:48Z</time>
      </trkpt>
      <trkpt lat="46.13712" lon="3.1325">
        <ele>314.97</ele>
        <time>2021-08-14T06:43:49Z</time>
      </trkpt>
      <trkpt lat="46.13712" lon="3.13239">
        <ele>316.41</ele>
        <time>2021-08-14T06:43:52Z</time>
      </trkpt>
      <trkpt lat="46.13711" lon="3.13226">
        <ele>318.33</ele>
        <time>2021-08-14T06:44:01Z</time>
      </trkpt>
      <trkpt lat="46.13708" lon="3.13217">
        <ele>319.78</ele>
        <time>2021-08-14T06:44:10Z</time>
      </trkpt>
      <trkpt lat="46.13706" lon="3.1321">
        <ele>321.22</ele>
        <time>2021-08-14T06:44:18Z</time>
      </trkpt>
      <trkpt lat="46.13706" lon="3.13202">
        <ele>322.18</ele>
        <time>2021-08-14T06:44:27Z</time>
      </trkpt>
      <trkpt lat="46.13711" lon="3.13201">
        <ele>323.14</ele>
        <time>2021-08-14T06:44:36Z</time>
      </trkpt>
      <trkpt lat="46.13712" lon="3.132">
        <ele>323.14</ele>
        <time>2021-08-14T06:44:42Z</time>
      </trkpt>
      <trkpt lat="46.13719" lon="3.132">
        <ele>324.1</ele>
        <time>2021-08-14T06:44:51Z</time>
      </trkpt>
      <trkpt lat="46.13724" lon="3.13199">
        <ele>325.06</ele>
        <time>2021-08-14T06:44:58Z</time>
      </trkpt>
      <trkpt lat="46.13728" lon="3.13198">
        <ele>325.06</ele>
        <time>2021-08-14T06:45:05Z</time>
      </trkpt>
      <trkpt lat="46.13735" lon="3.13196">
        <ele>326.5</ele>
        <time>2021-08-14T06:45:15Z</time>
      </trkpt>
      <trkpt lat="46.13744" lon="3.13195">
        <ele>327.95</ele>
        <time>2021-08-14T06:45:25Z</time>
      </trkpt>
      <trkpt lat="46.13748" lon="3.13194">
        <ele>328.43</ele>
        <time>2021-08-14T06:45:30Z</time>
      </trkpt>
      <trkpt lat="46.13751" lon="3.13188">
        <ele>329.39</ele>
        <time>2021-08-14T06:45:37Z</time>
      </trkpt>
      <trkpt lat="46.1375" lon="3.13185">
        <ele>329.87</ele>
        <time>2021-08-14T06:45:41Z</time>
      </trkpt>
      <trkpt lat="46.13743" lon="3.13181">
        <ele>330.83</ele>
        <time>2021-08-14T06:45:50Z</time>
      </trkpt>
      <trkpt lat="46.13741" lon="3.1318">
        <ele>331.79</ele>
        <time>2021-08-14T06:45:57Z</time>
      </trkpt>
      <trkpt lat="46.13741" lon="3.1318">
        <ele>331.79</ele>
        <time>2021-08-14T06:46:06Z</time>
      </trkpt>
      <trkpt lat="46.13741" lon="3.13181">
        <ele>331.79</ele>
        <time>2021-08-14T06:46:14Z</time>
      </trkpt>
      <trkpt lat="46.13739" lon="3.13178">
        <ele>331.79</ele>
        <time>2021-08-14T06:46:20Z</time>
      </trkpt>
      <trkpt lat="46.13732" lon="3.13173">
        <ele>332.75</ele>
        <time>2021-08-14T06:46:27Z</time>
      </trkpt>
      <trkpt lat="46.13727" lon="3.13168">
        <ele>333.23</ele>
        <time>2021-08-14T06:46:33Z</time>
      </trkpt>
      <trkpt lat="46.13721" lon="3.13161">
        <ele>335.16</ele>
        <time>2021-08-14T06:46:40Z</time>
      </trkpt>
      <trkpt lat="46.13713" lon="3.13151">
        <ele>335.64</ele>
        <time>2021-08-14T06:46:48Z</time>
      </trkpt>
      <trkpt lat="46.13704" lon="3.13141">
        <ele>336.6</ele>
        <time>2021-08-14T06:46:56Z</time>
      </trkpt>
      <trkpt lat="46.13696" lon="3.13131">
        <ele>338.52</ele>
        <time>2021-08-14T06:47:04Z</time>
      </trkpt>
      <trkpt lat="46.13695" lon="3.1313">
        <ele>338.52</ele>
        <time>2021-08-14T06:47:05Z</time>
      </trkpt>
      <trkpt lat="46.13693" lon="3.13128">
        <ele>338.52</ele>
        <time>2021-08-14T06:47:07Z</time>
      </trkpt>
      <trkpt lat="46.13692" lon="3.13127">
        <ele>339</ele>
        <time>2021-08-14T06:47:08Z</time>
      </trkpt>
      <trkpt lat="46.13681" lon="3.13115">
        <ele>339.96</ele>
        <time>2021-08-14T06:47:17Z</time>
      </trkpt>
      <trkpt lat="46.13666" lon="3.13102">
        <ele>340.44</ele>
        <time>2021-08-14T06:47:25Z</time>
      </trkpt>
      <trkpt lat="46.13645" lon="3.13086">
        <ele>340.92</ele>
        <time>2021-08-14T06:47:34Z</time>
      </trkpt>
      <trkpt lat="46.13626" lon="3.1307">
        <ele>341.89</ele>
        <time>2021-08-14T06:47:42Z</time>
      </trkpt>
      <trkpt lat="46.13608" lon="3.13055">
        <ele>342.85</ele>
        <time>2021-08-14T06:47:50Z</time>
      </trkpt>
      <trkpt lat="46.13597" lon="3.13033">
        <ele>343.33</ele>
        <time>2021-08-14T06:47:57Z</time>
      </trkpt>
      <trkpt lat="46.13602" lon="3.13008">
        <ele>343.81</ele>
        <time>2021-08-14T06:48:03Z</time>
      </trkpt>
      <trkpt lat="46.13617" lon="3.12977">
        <ele>344.77</ele>
        <time>2021-08-14T06:48:12Z</time>
      </trkpt>
      <trkpt lat="46.13632" lon="3.12947">
        <ele>345.73</ele>
        <time>2021-08-14T06:48:20Z</time>
      </trkpt>
      <trkpt lat="46.1365" lon="3.12916">
        <ele>345.73</ele>
        <time>2021-08-14T06:48:28Z</time>
      </trkpt>
      <trkpt lat="46.13664" lon="3.12878">
        <ele>345.73</ele>
        <time>2021-08-14T06:48:36Z</time>
      </trkpt>
      <trkpt lat="46.13666" lon="3.12869">
        <ele>345.73</ele>
        <time>2021-08-14T06:48:38Z</time>
      </trkpt>
      <trkpt lat="46.13665" lon="3.12864">
        <ele>346.21</ele>
        <time>2021-08-14T06:48:39Z</time>
      </trkpt>
      <trkpt lat="46.13663" lon="3.1286">
        <ele>346.21</ele>
        <time>2021-08-14T06:48:40Z</time>
      </trkpt>
      <trkpt lat="46.1366" lon="3.12856">
        <ele>346.21</ele>
        <time>2021-08-14T06:48:41Z</time>
      </trkpt>
      <trkpt lat="46.13657" lon="3.12852">
        <ele>346.21</ele>
        <time>2021-08-14T06:48:42Z</time>
      </trkpt>
      <trkpt lat="46.13655" lon="3.12847">
        <ele>344.77</ele>
        <time>2021-08-14T06:48:43Z</time>
      </trkpt>
      <trkpt lat="46.13652" lon="3.12841">
        <ele>344.77</ele>
        <time>2021-08-14T06:48:44Z</time>
      </trkpt>
      <trkpt lat="46.13649" lon="3.12836">
        <ele>344.77</ele>
        <time>2021-08-14T06:48:45Z</time>
      </trkpt>
      <trkpt lat="46.13627" lon="3.12794">
        <ele>342.37</ele>
        <time>2021-08-14T06:48:52Z</time>
      </trkpt>
      <trkpt lat="46.13595" lon="3.12743">
        <ele>339</ele>
        <time>2021-08-14T06:49:00Z</time>
      </trkpt>
      <trkpt lat="46.13568" lon="3.12696">
        <ele>337.08</ele>
        <time>2021-08-14T06:49:06Z</time>
      </trkpt>
      <trkpt lat="46.13565" lon="3.12687">
        <ele>336.6</ele>
        <time>2021-08-14T06:49:07Z</time>
      </trkpt>
      <trkpt lat="46.13563" lon="3.12678">
        <ele>337.08</ele>
        <time>2021-08-14T06:49:08Z</time>
      </trkpt>
      <trkpt lat="46.13561" lon="3.12668">
        <ele>336.12</ele>
        <time>2021-08-14T06:49:09Z</time>
      </trkpt>
      <trkpt lat="46.13561" lon="3.12658">
        <ele>336.12</ele>
        <time>2021-08-14T06:49:10Z</time>
      </trkpt>
      <trkpt lat="46.13561" lon="3.12648">
        <ele>335.64</ele>
        <time>2021-08-14T06:49:11Z</time>
      </trkpt>
      <trkpt lat="46.13561" lon="3.12638">
        <ele>335.64</ele>
        <time>2021-08-14T06:49:12Z</time>
      </trkpt>
      <trkpt lat="46.13559" lon="3.1263">
        <ele>335.64</ele>
        <time>2021-08-14T06:49:13Z</time>
      </trkpt>
      <trkpt lat="46.13556" lon="3.12624">
        <ele>335.16</ele>
        <time>2021-08-14T06:49:14Z</time>
      </trkpt>
      <trkpt lat="46.13551" lon="3.12622">
        <ele>334.68</ele>
        <time>2021-08-14T06:49:15Z</time>
      </trkpt>
      <trkpt lat="46.13545" lon="3.12622">
        <ele>334.68</ele>
        <time>2021-08-14T06:49:16Z</time>
      </trkpt>
      <trkpt lat="46.1354" lon="3.12627">
        <ele>334.68</ele>
        <time>2021-08-14T06:49:17Z</time>
      </trkpt>
      <trkpt lat="46.13537" lon="3.12634">
        <ele>334.2</ele>
        <time>2021-08-14T06:49:18Z</time>
      </trkpt>
      <trkpt lat="46.13537" lon="3.12642">
        <ele>333.71</ele>
        <time>2021-08-14T06:49:19Z</time>
      </trkpt>
      <trkpt lat="46.13538" lon="3.12649">
        <ele>333.23</ele>
        <time>2021-08-14T06:49:20Z</time>
      </trkpt>
      <trkpt lat="46.1354" lon="3.12657">
        <ele>333.23</ele>
        <time>2021-08-14T06:49:21Z</time>
      </trkpt>
      <trkpt lat="46.13542" lon="3.12664">
        <ele>333.23</ele>
        <time>2021-08-14T06:49:22Z</time>
      </trkpt>
      <trkpt lat="46.13544" lon="3.12672">
        <ele>333.23</ele>
        <time>2021-08-14T06:49:23Z</time>
      </trkpt>
      <trkpt lat="46.13561" lon="3.12727">
        <ele>330.35</ele>
        <time>2021-08-14T06:49:30Z</time>
      </trkpt>
      <trkpt lat="46.13563" lon="3.12735">
        <ele>330.35</ele>
        <time>2021-08-14T06:49:31Z</time>
      </trkpt>
      <trkpt lat="46.13576" lon="3.1278">
        <ele>327.95</ele>
        <time>2021-08-14T06:49:36Z</time>
      </trkpt>
      <trkpt lat="46.13578" lon="3.12789">
        <ele>326.99</ele>
        <time>2021-08-14T06:49:37Z</time>
      </trkpt>
      <trkpt lat="46.13582" lon="3.12809">
        <ele>326.02</ele>
        <time>2021-08-14T06:49:39Z</time>
      </trkpt>
      <trkpt lat="46.13584" lon="3.12818">
        <ele>326.02</ele>
        <time>2021-08-14T06:49:40Z</time>
      </trkpt>
      <trkpt lat="46.13585" lon="3.12837">
        <ele>325.06</ele>
        <time>2021-08-14T06:49:42Z</time>
      </trkpt>
      <trkpt lat="46.13584" lon="3.12847">
        <ele>324.1</ele>
        <time>2021-08-14T06:49:43Z</time>
      </trkpt>
      <trkpt lat="46.13582" lon="3.12856">
        <ele>323.14</ele>
        <time>2021-08-14T06:49:44Z</time>
      </trkpt>
      <trkpt lat="46.1358" lon="3.12865">
        <ele>322.66</ele>
        <time>2021-08-14T06:49:45Z</time>
      </trkpt>
      <trkpt lat="46.13575" lon="3.12874">
        <ele>322.18</ele>
        <time>2021-08-14T06:49:46Z</time>
      </trkpt>
      <trkpt lat="46.1357" lon="3.12881">
        <ele>322.18</ele>
        <time>2021-08-14T06:49:47Z</time>
      </trkpt>
      <trkpt lat="46.13564" lon="3.12887">
        <ele>320.74</ele>
        <time>2021-08-14T06:49:48Z</time>
      </trkpt>
      <trkpt lat="46.13558" lon="3.12892">
        <ele>320.74</ele>
        <time>2021-08-14T06:49:49Z</time>
      </trkpt>
      <trkpt lat="46.13552" lon="3.12896">
        <ele>320.26</ele>
        <time>2021-08-14T06:49:50Z</time>
      </trkpt>
      <trkpt lat="46.13548" lon="3.12896">
        <ele>320.26</ele>
        <time>2021-08-14T06:49:51Z</time>
      </trkpt>
      <trkpt lat="46.13544" lon="3.12894">
        <ele>319.78</ele>
        <time>2021-08-14T06:49:52Z</time>
      </trkpt>
      <trkpt lat="46.13543" lon="3.12891">
        <ele>319.78</ele>
        <time>2021-08-14T06:49:53Z</time>
      </trkpt>
      <trkpt lat="46.13541" lon="3.12888">
        <ele>319.78</ele>
        <time>2021-08-14T06:49:54Z</time>
      </trkpt>
      <trkpt lat="46.1354" lon="3.12878">
        <ele>321.22</ele>
        <time>2021-08-14T06:50:00Z</time>
      </trkpt>
      <trkpt lat="46.1354" lon="3.12877">
        <ele>321.22</ele>
        <time>2021-08-14T06:50:01Z</time>
      </trkpt>
      <trkpt lat="46.13538" lon="3.12871">
        <ele>321.7</ele>
        <time>2021-08-14T06:50:06Z</time>
      </trkpt>
      <trkpt lat="46.13537" lon="3.12869">
        <ele>322.18</ele>
        <time>2021-08-14T06:50:08Z</time>
      </trkpt>
      <trkpt lat="46.13532" lon="3.12853">
        <ele>324.58</ele>
        <time>2021-08-14T06:50:18Z</time>
      </trkpt>
      <trkpt lat="46.13528" lon="3.12842">
        <ele>326.02</ele>
        <time>2021-08-14T06:50:25Z</time>
      </trkpt>
      <trkpt lat="46.13524" lon="3.12834">
        <ele>326.5</ele>
        <time>2021-08-14T06:50:31Z</time>
      </trkpt>
      <trkpt lat="46.13521" lon="3.12829">
        <ele>327.47</ele>
        <time>2021-08-14T06:50:37Z</time>
      </trkpt>
      <trkpt lat="46.13517" lon="3.1282">
        <ele>328.91</ele>
        <time>2021-08-14T06:50:46Z</time>
      </trkpt>
      <trkpt lat="46.13512" lon="3.12811">
        <ele>330.35</ele>
        <time>2021-08-14T06:50:55Z</time>
      </trkpt>
      <trkpt lat="46.13509" lon="3.12806">
        <ele>331.31</ele>
        <time>2021-08-14T06:51:02Z</time>
      </trkpt>
      <trkpt lat="46.13505" lon="3.12797">
        <ele>333.23</ele>
        <time>2021-08-14T06:51:12Z</time>
      </trkpt>
      <trkpt lat="46.13502" lon="3.12787">
        <ele>334.2</ele>
        <time>2021-08-14T06:51:20Z</time>
      </trkpt>
      <trkpt lat="46.13499" lon="3.12781">
        <ele>334.68</ele>
        <time>2021-08-14T06:51:29Z</time>
      </trkpt>
      <trkpt lat="46.13495" lon="3.12776">
        <ele>335.64</ele>
        <time>2021-08-14T06:51:35Z</time>
      </trkpt>
      <trkpt lat="46.13486" lon="3.12766">
        <ele>337.08</ele>
        <time>2021-08-14T06:51:44Z</time>
      </trkpt>
      <trkpt lat="46.13476" lon="3.12759">
        <ele>339</ele>
        <time>2021-08-14T06:51:51Z</time>
      </trkpt>
      <trkpt lat="46.13467" lon="3.12745">
        <ele>339.96</ele>
        <time>2021-08-14T06:51:58Z</time>
      </trkpt>
      <trkpt lat="46.13453" lon="3.12723">
        <ele>341.41</ele>
        <time>2021-08-14T06:52:08Z</time>
      </trkpt>
      <trkpt lat="46.13444" lon="3.12708">
        <ele>342.37</ele>
        <time>2021-08-14T06:52:17Z</time>
      </trkpt>
      <trkpt lat="46.13441" lon="3.12705">
        <ele>342.85</ele>
        <time>2021-08-14T06:52:23Z</time>
      </trkpt>
      <trkpt lat="46.13441" lon="3.12704">
        <ele>342.85</ele>
        <time>2021-08-14T06:52:38Z</time>
      </trkpt>
      <trkpt lat="46.1344" lon="3.12703">
        <ele>342.85</ele>
        <time>2021-08-14T06:52:44Z</time>
      </trkpt>
      <trkpt lat="46.1344" lon="3.12703">
        <ele>342.85</ele>
        <time>2021-08-14T06:52:50Z</time>
      </trkpt>
      <trkpt lat="46.1344" lon="3.12702">
        <ele>342.85</ele>
        <time>2021-08-14T06:52:53Z</time>
      </trkpt>
      <trkpt lat="46.13433" lon="3.12694">
        <ele>343.33</ele>
        <time>2021-08-14T06:53:00Z</time>
      </trkpt>
      <trkpt lat="46.13417" lon="3.12677">
        <ele>344.29</ele>
        <time>2021-08-14T06:53:08Z</time>
      </trkpt>
      <trkpt lat="46.13393" lon="3.12654">
        <ele>345.25</ele>
        <time>2021-08-14T06:53:18Z</time>
      </trkpt>
      <trkpt lat="46.13369" lon="3.1263">
        <ele>346.21</ele>
        <time>2021-08-14T06:53:28Z</time>
      </trkpt>
      <trkpt lat="46.1335" lon="3.12605">
        <ele>347.17</ele>
        <time>2021-08-14T06:53:37Z</time>
      </trkpt>
      <trkpt lat="46.13339" lon="3.12585">
        <ele>347.65</ele>
        <time>2021-08-14T06:53:43Z</time>
      </trkpt>
      <trkpt lat="46.1333" lon="3.12559">
        <ele>348.13</ele>
        <time>2021-08-14T06:53:50Z</time>
      </trkpt>
      <trkpt lat="46.1332" lon="3.12536">
        <ele>348.62</ele>
        <time>2021-08-14T06:53:56Z</time>
      </trkpt>
      <trkpt lat="46.13317" lon="3.12535">
        <ele>348.62</ele>
        <time>2021-08-14T06:53:57Z</time>
      </trkpt>
      <trkpt lat="46.13314" lon="3.12536">
        <ele>348.62</ele>
        <time>2021-08-14T06:53:58Z</time>
      </trkpt>
      <trkpt lat="46.13289" lon="3.12552">
        <ele>348.62</ele>
        <time>2021-08-14T06:54:07Z</time>
      </trkpt>
      <trkpt lat="46.1327" lon="3.12569">
        <ele>347.17</ele>
        <time>2021-08-14T06:54:13Z</time>
      </trkpt>
      <trkpt lat="46.13266" lon="3.12572">
        <ele>347.17</ele>
        <time>2021-08-14T06:54:14Z</time>
      </trkpt>
      <trkpt lat="46.13262" lon="3.12576">
        <ele>347.17</ele>
        <time>2021-08-14T06:54:15Z</time>
      </trkpt>
      <trkpt lat="46.13253" lon="3.12585">
        <ele>345.73</ele>
        <time>2021-08-14T06:54:17Z</time>
      </trkpt>
      <trkpt lat="46.13245" lon="3.12593">
        <ele>344.77</ele>
        <time>2021-08-14T06:54:19Z</time>
      </trkpt>
      <trkpt lat="46.13241" lon="3.12597">
        <ele>344.29</ele>
        <time>2021-08-14T06:54:20Z</time>
      </trkpt>
      <trkpt lat="46.13238" lon="3.12601">
        <ele>343.81</ele>
        <time>2021-08-14T06:54:21Z</time>
      </trkpt>
      <trkpt lat="46.13235" lon="3.12606">
        <ele>343.81</ele>
        <time>2021-08-14T06:54:22Z</time>
      </trkpt>
      <trkpt lat="46.13226" lon="3.12629">
        <ele>340.44</ele>
        <time>2021-08-14T06:54:27Z</time>
      </trkpt>
      <trkpt lat="46.13218" lon="3.1265">
        <ele>337.08</ele>
        <time>2021-08-14T06:54:32Z</time>
      </trkpt>
      <trkpt lat="46.13215" lon="3.12663">
        <ele>333.71</ele>
        <time>2021-08-14T06:54:36Z</time>
      </trkpt>
      <trkpt lat="46.13213" lon="3.12665">
        <ele>333.23</ele>
        <time>2021-08-14T06:54:37Z</time>
      </trkpt>
      <trkpt lat="46.13212" lon="3.12669">
        <ele>332.27</ele>
        <time>2021-08-14T06:54:38Z</time>
      </trkpt>
      <trkpt lat="46.13211" lon="3.12672">
        <ele>331.31</ele>
        <time>2021-08-14T06:54:39Z</time>
      </trkpt>
      <trkpt lat="46.1321" lon="3.12677">
        <ele>330.35</ele>
        <time>2021-08-14T06:54:40Z</time>
      </trkpt>
      <trkpt lat="46.13208" lon="3.12681">
        <ele>329.39</ele>
        <time>2021-08-14T06:54:41Z</time>
      </trkpt>
      <trkpt lat="46.13205" lon="3.12685">
        <ele>328.43</ele>
        <time>2021-08-14T06:54:42Z</time>
      </trkpt>
      <trkpt lat="46.13203" lon="3.12688">
        <ele>326.99</ele>
        <time>2021-08-14T06:54:43Z</time>
      </trkpt>
      <trkpt lat="46.13198" lon="3.12691">
        <ele>325.54</ele>
        <time>2021-08-14T06:54:44Z</time>
      </trkpt>
      <trkpt lat="46.13193" lon="3.12693">
        <ele>324.58</ele>
        <time>2021-08-14T06:54:45Z</time>
      </trkpt>
      <trkpt lat="46.13179" lon="3.12699">
        <ele>321.22</ele>
        <time>2021-08-14T06:54:47Z</time>
      </trkpt>
      <trkpt lat="46.13165" lon="3.12705">
        <ele>318.81</ele>
        <time>2021-08-14T06:54:49Z</time>
      </trkpt>
      <trkpt lat="46.13158" lon="3.12704">
        <ele>318.33</ele>
        <time>2021-08-14T06:54:50Z</time>
      </trkpt>
      <trkpt lat="46.13151" lon="3.12702">
        <ele>318.33</ele>
        <time>2021-08-14T06:54:51Z</time>
      </trkpt>
      <trkpt lat="46.13132" lon="3.12695">
        <ele>317.37</ele>
        <time>2021-08-14T06:54:54Z</time>
      </trkpt>
      <trkpt lat="46.13122" lon="3.12694">
        <ele>317.37</ele>
        <time>2021-08-14T06:54:56Z</time>
      </trkpt>
      <trkpt lat="46.13107" lon="3.12695">
        <ele>317.85</ele>
        <time>2021-08-14T06:54:59Z</time>
      </trkpt>
      <trkpt lat="46.13096" lon="3.12694">
        <ele>317.37</ele>
        <time>2021-08-14T06:55:01Z</time>
      </trkpt>
      <trkpt lat="46.1309" lon="3.12693">
        <ele>317.37</ele>
        <time>2021-08-14T06:55:02Z</time>
      </trkpt>
      <trkpt lat="46.13054" lon="3.12681">
        <ele>316.89</ele>
        <time>2021-08-14T06:55:09Z</time>
      </trkpt>
      <trkpt lat="46.13044" lon="3.12679">
        <ele>316.41</ele>
        <time>2021-08-14T06:55:11Z</time>
      </trkpt>
      <trkpt lat="46.13" lon="3.12674">
        <ele>315.93</ele>
        <time>2021-08-14T06:55:19Z</time>
      </trkpt>
      <trkpt lat="46.1296" lon="3.12668">
        <ele>314.97</ele>
        <time>2021-08-14T06:55:26Z</time>
      </trkpt>
      <trkpt lat="46.12923" lon="3.12663">
        <ele>314.49</ele>
        <time>2021-08-14T06:55:33Z</time>
      </trkpt>
      <trkpt lat="46.12918" lon="3.12662">
        <ele>314.01</ele>
        <time>2021-08-14T06:55:34Z</time>
      </trkpt>
      <trkpt lat="46.12879" lon="3.12639">
        <ele>314.01</ele>
        <time>2021-08-14T06:55:42Z</time>
      </trkpt>
      <trkpt lat="46.12856" lon="3.1262">
        <ele>315.45</ele>
        <time>2021-08-14T06:55:49Z</time>
      </trkpt>
      <trkpt lat="46.12841" lon="3.12611">
        <ele>316.89</ele>
        <time>2021-08-14T06:55:57Z</time>
      </trkpt>
      <trkpt lat="46.12827" lon="3.12601">
        <ele>318.33</ele>
        <time>2021-08-14T06:56:05Z</time>
      </trkpt>
      <trkpt lat="46.12816" lon="3.12583">
        <ele>319.3</ele>
        <time>2021-08-14T06:56:13Z</time>
      </trkpt>
      <trkpt lat="46.12802" lon="3.12559">
        <ele>320.26</ele>
        <time>2021-08-14T06:56:24Z</time>
      </trkpt>
      <trkpt lat="46.12794" lon="3.12539">
        <ele>321.7</ele>
        <time>2021-08-14T06:56:32Z</time>
      </trkpt>
      <trkpt lat="46.12785" lon="3.1252">
        <ele>322.66</ele>
        <time>2021-08-14T06:56:40Z</time>
      </trkpt>
      <trkpt lat="46.12774" lon="3.125">
        <ele>324.1</ele>
        <time>2021-08-14T06:56:49Z</time>
      </trkpt>
      <trkpt lat="46.12759" lon="3.12469">
        <ele>325.06</ele>
        <time>2021-08-14T06:57:02Z</time>
      </trkpt>
      <trkpt lat="46.12754" lon="3.12459">
        <ele>326.5</ele>
        <time>2021-08-14T06:57:07Z</time>
      </trkpt>
      <trkpt lat="46.12753" lon="3.12457">
        <ele>326.5</ele>
        <time>2021-08-14T06:57:08Z</time>
      </trkpt>
      <trkpt lat="46.12753" lon="3.12454">
        <ele>326.5</ele>
        <time>2021-08-14T06:57:09Z</time>
      </trkpt>
      <trkpt lat="46.12753" lon="3.12452">
        <ele>326.99</ele>
        <time>2021-08-14T06:57:10Z</time>
      </trkpt>
      <trkpt lat="46.12752" lon="3.1245">
        <ele>326.99</ele>
        <time>2021-08-14T06:57:11Z</time>
      </trkpt>
      <trkpt lat="46.12751" lon="3.1243">
        <ele>328.43</ele>
        <time>2021-08-14T06:57:21Z</time>
      </trkpt>
      <trkpt lat="46.12751" lon="3.12416">
        <ele>330.35</ele>
        <time>2021-08-14T06:57:29Z</time>
      </trkpt>
      <trkpt lat="46.12751" lon="3.12402">
        <ele>331.79</ele>
        <time>2021-08-14T06:57:37Z</time>
      </trkpt>
      <trkpt lat="46.12752" lon="3.12395">
        <ele>332.27</ele>
        <time>2021-08-14T06:57:41Z</time>
      </trkpt>
      <trkpt lat="46.12751" lon="3.12392">
        <ele>332.75</ele>
        <time>2021-08-14T06:57:42Z</time>
      </trkpt>
      <trkpt lat="46.1275" lon="3.12384">
        <ele>333.23</ele>
        <time>2021-08-14T06:57:47Z</time>
      </trkpt>
      <trkpt lat="46.1275" lon="3.12382">
        <ele>334.2</ele>
        <time>2021-08-14T06:57:48Z</time>
      </trkpt>
      <trkpt lat="46.12749" lon="3.12368">
        <ele>335.64</ele>
        <time>2021-08-14T06:57:57Z</time>
      </trkpt>
      <trkpt lat="46.1275" lon="3.12366">
        <ele>335.64</ele>
        <time>2021-08-14T06:57:58Z</time>
      </trkpt>
      <trkpt lat="46.1275" lon="3.12351">
        <ele>337.56</ele>
        <time>2021-08-14T06:58:07Z</time>
      </trkpt>
      <trkpt lat="46.12749" lon="3.12339">
        <ele>339</ele>
        <time>2021-08-14T06:58:14Z</time>
      </trkpt>
      <trkpt lat="46.12749" lon="3.12337">
        <ele>339</ele>
        <time>2021-08-14T06:58:15Z</time>
      </trkpt>
      <trkpt lat="46.12748" lon="3.12321">
        <ele>340.92</ele>
        <time>2021-08-14T06:58:24Z</time>
      </trkpt>
      <trkpt lat="46.12748" lon="3.12319">
        <ele>341.41</ele>
        <time>2021-08-14T06:58:25Z</time>
      </trkpt>
      <trkpt lat="46.12747" lon="3.12304">
        <ele>342.37</ele>
        <time>2021-08-14T06:58:32Z</time>
      </trkpt>
      <trkpt lat="46.12749" lon="3.12285">
        <ele>343.81</ele>
        <time>2021-08-14T06:58:41Z</time>
      </trkpt>
      <trkpt lat="46.1276" lon="3.12263">
        <ele>345.25</ele>
        <time>2021-08-14T06:58:51Z</time>
      </trkpt>
      <trkpt lat="46.1277" lon="3.12248">
        <ele>346.69</ele>
        <time>2021-08-14T06:59:00Z</time>
      </trkpt>
      <trkpt lat="46.1278" lon="3.12228">
        <ele>348.62</ele>
        <time>2021-08-14T06:59:08Z</time>
      </trkpt>
      <trkpt lat="46.1279" lon="3.12212">
        <ele>349.58</ele>
        <time>2021-08-14T06:59:15Z</time>
      </trkpt>
      <trkpt lat="46.128" lon="3.12193">
        <ele>350.06</ele>
        <time>2021-08-14T06:59:21Z</time>
      </trkpt>
      <trkpt lat="46.12813" lon="3.12167">
        <ele>350.06</ele>
        <time>2021-08-14T06:59:28Z</time>
      </trkpt>
      <trkpt lat="46.12826" lon="3.1214">
        <ele>350.06</ele>
        <time>2021-08-14T06:59:36Z</time>
      </trkpt>
      <trkpt lat="46.12834" lon="3.12123">
        <ele>350.54</ele>
        <time>2021-08-14T06:59:41Z</time>
      </trkpt>
      <trkpt lat="46.12834" lon="3.12118">
        <ele>350.54</ele>
        <time>2021-08-14T06:59:42Z</time>
      </trkpt>
      <trkpt lat="46.12833" lon="3.12114">
        <ele>350.54</ele>
        <time>2021-08-14T06:59:43Z</time>
      </trkpt>
      <trkpt lat="46.1283" lon="3.12111">
        <ele>350.54</ele>
        <time>2021-08-14T06:59:44Z</time>
      </trkpt>
      <trkpt lat="46.12827" lon="3.12108">
        <ele>350.54</ele>
        <time>2021-08-14T06:59:45Z</time>
      </trkpt>
      <trkpt lat="46.12824" lon="3.12107">
        <ele>350.54</ele>
        <time>2021-08-14T06:59:46Z</time>
      </trkpt>
      <trkpt lat="46.12821" lon="3.12106">
        <ele>350.54</ele>
        <time>2021-08-14T06:59:47Z</time>
      </trkpt>
      <trkpt lat="46.12792" lon="3.12097">
        <ele>347.65</ele>
        <time>2021-08-14T06:59:55Z</time>
      </trkpt>
      <trkpt lat="46.12778" lon="3.12092">
        <ele>344.77</ele>
        <time>2021-08-14T06:59:58Z</time>
      </trkpt>
      <trkpt lat="46.12766" lon="3.12089">
        <ele>342.37</ele>
        <time>2021-08-14T07:00:01Z</time>
      </trkpt>
      <trkpt lat="46.12761" lon="3.12087">
        <ele>340.44</ele>
        <time>2021-08-14T07:00:02Z</time>
      </trkpt>
      <trkpt lat="46.12757" lon="3.12085">
        <ele>339.96</ele>
        <time>2021-08-14T07:00:03Z</time>
      </trkpt>
      <trkpt lat="46.12752" lon="3.12083">
        <ele>338.04</ele>
        <time>2021-08-14T07:00:04Z</time>
      </trkpt>
      <trkpt lat="46.12748" lon="3.1208">
        <ele>337.08</ele>
        <time>2021-08-14T07:00:05Z</time>
      </trkpt>
      <trkpt lat="46.12743" lon="3.12076">
        <ele>336.12</ele>
        <time>2021-08-14T07:00:06Z</time>
      </trkpt>
      <trkpt lat="46.12738" lon="3.12073">
        <ele>334.68</ele>
        <time>2021-08-14T07:00:07Z</time>
      </trkpt>
      <trkpt lat="46.12724" lon="3.12064">
        <ele>331.31</ele>
        <time>2021-08-14T07:00:09Z</time>
      </trkpt>
      <trkpt lat="46.12708" lon="3.12056">
        <ele>327.95</ele>
        <time>2021-08-14T07:00:11Z</time>
      </trkpt>
      <trkpt lat="46.12691" lon="3.12049">
        <ele>323.62</ele>
        <time>2021-08-14T07:00:13Z</time>
      </trkpt>
      <trkpt lat="46.12674" lon="3.12041">
        <ele>320.26</ele>
        <time>2021-08-14T07:00:15Z</time>
      </trkpt>
      <trkpt lat="46.12658" lon="3.12031">
        <ele>316.41</ele>
        <time>2021-08-14T07:00:17Z</time>
      </trkpt>
      <trkpt lat="46.12653" lon="3.12025">
        <ele>315.93</ele>
        <time>2021-08-14T07:00:18Z</time>
      </trkpt>
      <trkpt lat="46.12648" lon="3.12017">
        <ele>314.97</ele>
        <time>2021-08-14T07:00:19Z</time>
      </trkpt>
      <trkpt lat="46.12644" lon="3.12008">
        <ele>313.53</ele>
        <time>2021-08-14T07:00:20Z</time>
      </trkpt>
      <trkpt lat="46.1264" lon="3.11999">
        <ele>312.57</ele>
        <time>2021-08-14T07:00:21Z</time>
      </trkpt>
      <trkpt lat="46.1262" lon="3.11959">
        <ele>309.2</ele>
        <time>2021-08-14T07:00:25Z</time>
      </trkpt>
      <trkpt lat="46.12588" lon="3.11906">
        <ele>308.72</ele>
        <time>2021-08-14T07:00:31Z</time>
      </trkpt>
      <trkpt lat="46.12567" lon="3.11882">
        <ele>310.16</ele>
        <time>2021-08-14T07:00:35Z</time>
      </trkpt>
      <trkpt lat="46.12551" lon="3.11865">
        <ele>311.6</ele>
        <time>2021-08-14T07:00:40Z</time>
      </trkpt>
      <trkpt lat="46.12533" lon="3.1185">
        <ele>312.57</ele>
        <time>2021-08-14T07:00:48Z</time>
      </trkpt>
      <trkpt lat="46.12517" lon="3.11842">
        <ele>313.53</ele>
        <time>2021-08-14T07:00:55Z</time>
      </trkpt>
      <trkpt lat="46.12494" lon="3.1183">
        <ele>314.97</ele>
        <time>2021-08-14T07:01:04Z</time>
      </trkpt>
      <trkpt lat="46.12474" lon="3.11817">
        <ele>314.97</ele>
        <time>2021-08-14T07:01:12Z</time>
      </trkpt>
      <trkpt lat="46.12458" lon="3.11795">
        <ele>314.97</ele>
        <time>2021-08-14T07:01:19Z</time>
      </trkpt>
      <trkpt lat="46.1244" lon="3.11772">
        <ele>313.53</ele>
        <time>2021-08-14T07:01:24Z</time>
      </trkpt>
      <trkpt lat="46.12425" lon="3.11752">
        <ele>313.05</ele>
        <time>2021-08-14T07:01:28Z</time>
      </trkpt>
      <trkpt lat="46.12415" lon="3.11731">
        <ele>313.05</ele>
        <time>2021-08-14T07:01:33Z</time>
      </trkpt>
      <trkpt lat="46.12415" lon="3.11724">
        <ele>313.05</ele>
        <time>2021-08-14T07:01:35Z</time>
      </trkpt>
      <trkpt lat="46.12415" lon="3.11721">
        <ele>313.05</ele>
        <time>2021-08-14T07:01:36Z</time>
      </trkpt>
      <trkpt lat="46.12416" lon="3.11719">
        <ele>313.05</ele>
        <time>2021-08-14T07:01:37Z</time>
      </trkpt>
      <trkpt lat="46.12416" lon="3.11716">
        <ele>314.49</ele>
        <time>2021-08-14T07:01:38Z</time>
      </trkpt>
      <trkpt lat="46.12416" lon="3.11714">
        <ele>314.49</ele>
        <time>2021-08-14T07:01:39Z</time>
      </trkpt>
      <trkpt lat="46.12416" lon="3.11711">
        <ele>314.49</ele>
        <time>2021-08-14T07:01:40Z</time>
      </trkpt>
      <trkpt lat="46.12416" lon="3.11708">
        <ele>314.97</ele>
        <time>2021-08-14T07:01:41Z</time>
      </trkpt>
      <trkpt lat="46.12416" lon="3.11706">
        <ele>315.45</ele>
        <time>2021-08-14T07:01:42Z</time>
      </trkpt>
      <trkpt lat="46.12417" lon="3.11703">
        <ele>315.45</ele>
        <time>2021-08-14T07:01:43Z</time>
      </trkpt>
      <trkpt lat="46.12417" lon="3.11701">
        <ele>315.45</ele>
        <time>2021-08-14T07:01:44Z</time>
      </trkpt>
      <trkpt lat="46.12418" lon="3.11699">
        <ele>315.45</ele>
        <time>2021-08-14T07:01:45Z</time>
      </trkpt>
      <trkpt lat="46.12419" lon="3.11696">
        <ele>316.41</ele>
        <time>2021-08-14T07:01:46Z</time>
      </trkpt>
      <trkpt lat="46.12419" lon="3.11694">
        <ele>316.41</ele>
        <time>2021-08-14T07:01:47Z</time>
      </trkpt>
      <trkpt lat="46.1242" lon="3.11692">
        <ele>316.89</ele>
        <time>2021-08-14T07:01:48Z</time>
      </trkpt>
      <trkpt lat="46.1242" lon="3.11691">
        <ele>316.89</ele>
        <time>2021-08-14T07:01:49Z</time>
      </trkpt>
      <trkpt lat="46.12421" lon="3.11689">
        <ele>316.89</ele>
        <time>2021-08-14T07:01:50Z</time>
      </trkpt>
      <trkpt lat="46.12421" lon="3.11687">
        <ele>316.89</ele>
        <time>2021-08-14T07:01:51Z</time>
      </trkpt>
      <trkpt lat="46.12423" lon="3.11681">
        <ele>317.85</ele>
        <time>2021-08-14T07:01:55Z</time>
      </trkpt>
      <trkpt lat="46.12433" lon="3.11666">
        <ele>319.3</ele>
        <time>2021-08-14T07:02:05Z</time>
      </trkpt>
      <trkpt lat="46.12444" lon="3.11651">
        <ele>320.74</ele>
        <time>2021-08-14T07:02:15Z</time>
      </trkpt>
      <trkpt lat="46.12454" lon="3.11643">
        <ele>321.7</ele>
        <time>2021-08-14T07:02:23Z</time>
      </trkpt>
      <trkpt lat="46.12458" lon="3.1164">
        <ele>321.7</ele>
        <time>2021-08-14T07:02:26Z</time>
      </trkpt>
      <trkpt lat="46.12459" lon="3.11639">
        <ele>322.18</ele>
        <time>2021-08-14T07:02:27Z</time>
      </trkpt>
      <trkpt lat="46.12461" lon="3.11638">
        <ele>322.18</ele>
        <time>2021-08-14T07:02:28Z</time>
      </trkpt>
      <trkpt lat="46.12463" lon="3.11636">
        <ele>322.66</ele>
        <time>2021-08-14T07:02:30Z</time>
      </trkpt>
      <trkpt lat="46.12464" lon="3.11634">
        <ele>322.66</ele>
        <time>2021-08-14T07:02:31Z</time>
      </trkpt>
      <trkpt lat="46.12466" lon="3.11633">
        <ele>322.66</ele>
        <time>2021-08-14T07:02:32Z</time>
      </trkpt>
      <trkpt lat="46.12467" lon="3.11632">
        <ele>323.14</ele>
        <time>2021-08-14T07:02:33Z</time>
      </trkpt>
      <trkpt lat="46.12473" lon="3.11628">
        <ele>324.1</ele>
        <time>2021-08-14T07:02:38Z</time>
      </trkpt>
      <trkpt lat="46.12474" lon="3.11627">
        <ele>324.1</ele>
        <time>2021-08-14T07:02:39Z</time>
      </trkpt>
      <trkpt lat="46.12475" lon="3.11625">
        <ele>324.1</ele>
        <time>2021-08-14T07:02:40Z</time>
      </trkpt>
      <trkpt lat="46.12478" lon="3.11619">
        <ele>325.06</ele>
        <time>2021-08-14T07:02:44Z</time>
      </trkpt>
      <trkpt lat="46.12479" lon="3.11618">
        <ele>325.06</ele>
        <time>2021-08-14T07:02:45Z</time>
      </trkpt>
      <trkpt lat="46.1248" lon="3.11617">
        <ele>325.54</ele>
        <time>2021-08-14T07:02:46Z</time>
      </trkpt>
      <trkpt lat="46.12481" lon="3.11615">
        <ele>325.54</ele>
        <time>2021-08-14T07:02:47Z</time>
      </trkpt>
      <trkpt lat="46.12481" lon="3.11613">
        <ele>325.54</ele>
        <time>2021-08-14T07:02:48Z</time>
      </trkpt>
      <trkpt lat="46.12482" lon="3.11612">
        <ele>326.02</ele>
        <time>2021-08-14T07:02:49Z</time>
      </trkpt>
      <trkpt lat="46.12483" lon="3.11611">
        <ele>326.5</ele>
        <time>2021-08-14T07:02:50Z</time>
      </trkpt>
      <trkpt lat="46.12484" lon="3.11609">
        <ele>326.02</ele>
        <time>2021-08-14T07:02:51Z</time>
      </trkpt>
      <trkpt lat="46.12489" lon="3.11596">
        <ele>328.43</ele>
        <time>2021-08-14T07:03:00Z</time>
      </trkpt>
      <trkpt lat="46.12495" lon="3.11584">
        <ele>330.35</ele>
        <time>2021-08-14T07:03:09Z</time>
      </trkpt>
      <trkpt lat="46.12496" lon="3.11582">
        <ele>330.83</ele>
        <time>2021-08-14T07:03:10Z</time>
      </trkpt>
      <trkpt lat="46.12497" lon="3.11581">
        <ele>330.83</ele>
        <time>2021-08-14T07:03:11Z</time>
      </trkpt>
      <trkpt lat="46.12498" lon="3.11579">
        <ele>331.31</ele>
        <time>2021-08-14T07:03:12Z</time>
      </trkpt>
      <trkpt lat="46.12498" lon="3.11578">
        <ele>331.31</ele>
        <time>2021-08-14T07:03:13Z</time>
      </trkpt>
      <trkpt lat="46.12499" lon="3.11577">
        <ele>331.79</ele>
        <time>2021-08-14T07:03:14Z</time>
      </trkpt>
      <trkpt lat="46.12501" lon="3.11573">
        <ele>332.27</ele>
        <time>2021-08-14T07:03:17Z</time>
      </trkpt>
      <trkpt lat="46.12502" lon="3.11572">
        <ele>332.27</ele>
        <time>2021-08-14T07:03:18Z</time>
      </trkpt>
      <trkpt lat="46.12503" lon="3.1157">
        <ele>332.75</ele>
        <time>2021-08-14T07:03:19Z</time>
      </trkpt>
      <trkpt lat="46.12508" lon="3.11562">
        <ele>333.71</ele>
        <time>2021-08-14T07:03:25Z</time>
      </trkpt>
      <trkpt lat="46.12508" lon="3.11561">
        <ele>333.71</ele>
        <time>2021-08-14T07:03:26Z</time>
      </trkpt>
      <trkpt lat="46.12509" lon="3.11559">
        <ele>334.2</ele>
        <time>2021-08-14T07:03:27Z</time>
      </trkpt>
      <trkpt lat="46.12515" lon="3.11549">
        <ele>335.64</ele>
        <time>2021-08-14T07:03:35Z</time>
      </trkpt>
      <trkpt lat="46.1252" lon="3.11533">
        <ele>337.56</ele>
        <time>2021-08-14T07:03:44Z</time>
      </trkpt>
      <trkpt lat="46.12519" lon="3.11525">
        <ele>337.56</ele>
        <time>2021-08-14T07:03:48Z</time>
      </trkpt>
      <trkpt lat="46.1251" lon="3.11511">
        <ele>336.6</ele>
        <time>2021-08-14T07:03:53Z</time>
      </trkpt>
      <trkpt lat="46.12505" lon="3.115">
        <ele>335.16</ele>
        <time>2021-08-14T07:03:55Z</time>
      </trkpt>
      <trkpt lat="46.12502" lon="3.11494">
        <ele>335.16</ele>
        <time>2021-08-14T07:03:56Z</time>
      </trkpt>
      <trkpt lat="46.12487" lon="3.11461">
        <ele>331.79</ele>
        <time>2021-08-14T07:04:01Z</time>
      </trkpt>
      <trkpt lat="46.12483" lon="3.11455">
        <ele>330.83</ele>
        <time>2021-08-14T07:04:02Z</time>
      </trkpt>
      <trkpt lat="46.12473" lon="3.11443">
        <ele>328.91</ele>
        <time>2021-08-14T07:04:04Z</time>
      </trkpt>
      <trkpt lat="46.12451" lon="3.11422">
        <ele>325.06</ele>
        <time>2021-08-14T07:04:08Z</time>
      </trkpt>
      <trkpt lat="46.12433" lon="3.11409">
        <ele>322.18</ele>
        <time>2021-08-14T07:04:11Z</time>
      </trkpt>
      <trkpt lat="46.12415" lon="3.11391">
        <ele>319.78</ele>
        <time>2021-08-14T07:04:14Z</time>
      </trkpt>
      <trkpt lat="46.12409" lon="3.11383">
        <ele>318.33</ele>
        <time>2021-08-14T07:04:15Z</time>
      </trkpt>
      <trkpt lat="46.12393" lon="3.11358">
        <ele>314.97</ele>
        <time>2021-08-14T07:04:18Z</time>
      </trkpt>
      <trkpt lat="46.12371" lon="3.11321">
        <ele>312.09</ele>
        <time>2021-08-14T07:04:22Z</time>
      </trkpt>
      <trkpt lat="46.12358" lon="3.11303">
        <ele>311.6</ele>
        <time>2021-08-14T07:04:25Z</time>
      </trkpt>
      <trkpt lat="46.12356" lon="3.11299">
        <ele>311.12</ele>
        <time>2021-08-14T07:04:27Z</time>
      </trkpt>
      <trkpt lat="46.12355" lon="3.11297">
        <ele>311.6</ele>
        <time>2021-08-14T07:04:28Z</time>
      </trkpt>
      <trkpt lat="46.12353" lon="3.11296">
        <ele>311.6</ele>
        <time>2021-08-14T07:04:29Z</time>
      </trkpt>
      <trkpt lat="46.12351" lon="3.11294">
        <ele>311.12</ele>
        <time>2021-08-14T07:04:30Z</time>
      </trkpt>
      <trkpt lat="46.12349" lon="3.1129">
        <ele>311.12</ele>
        <time>2021-08-14T07:04:31Z</time>
      </trkpt>
      <trkpt lat="46.12347" lon="3.11285">
        <ele>310.64</ele>
        <time>2021-08-14T07:04:32Z</time>
      </trkpt>
      <trkpt lat="46.12345" lon="3.1128">
        <ele>310.64</ele>
        <time>2021-08-14T07:04:33Z</time>
      </trkpt>
      <trkpt lat="46.12344" lon="3.11274">
        <ele>310.64</ele>
        <time>2021-08-14T07:04:34Z</time>
      </trkpt>
      <trkpt lat="46.12344" lon="3.11268">
        <ele>310.16</ele>
        <time>2021-08-14T07:04:35Z</time>
      </trkpt>
      <trkpt lat="46.12345" lon="3.11262">
        <ele>310.16</ele>
        <time>2021-08-14T07:04:36Z</time>
      </trkpt>
      <trkpt lat="46.12346" lon="3.11257">
        <ele>310.16</ele>
        <time>2021-08-14T07:04:37Z</time>
      </trkpt>
      <trkpt lat="46.12348" lon="3.11252">
        <ele>310.16</ele>
        <time>2021-08-14T07:04:38Z</time>
      </trkpt>
      <trkpt lat="46.1235" lon="3.11248">
        <ele>310.16</ele>
        <time>2021-08-14T07:04:39Z</time>
      </trkpt>
      <trkpt lat="46.12351" lon="3.11244">
        <ele>310.16</ele>
        <time>2021-08-14T07:04:40Z</time>
      </trkpt>
      <trkpt lat="46.12353" lon="3.1124">
        <ele>310.16</ele>
        <time>2021-08-14T07:04:41Z</time>
      </trkpt>
      <trkpt lat="46.12355" lon="3.11236">
        <ele>310.16</ele>
        <time>2021-08-14T07:04:42Z</time>
      </trkpt>
      <trkpt lat="46.12358" lon="3.11232">
        <ele>310.16</ele>
        <time>2021-08-14T07:04:43Z</time>
      </trkpt>
      <trkpt lat="46.12374" lon="3.11202">
        <ele>310.16</ele>
        <time>2021-08-14T07:04:50Z</time>
      </trkpt>
      <trkpt lat="46.12382" lon="3.11188">
        <ele>310.16</ele>
        <time>2021-08-14T07:04:53Z</time>
      </trkpt>
      <trkpt lat="46.12403" lon="3.11148">
        <ele>310.16</ele>
        <time>2021-08-14T07:05:01Z</time>
      </trkpt>
      <trkpt lat="46.12422" lon="3.11121">
        <ele>310.16</ele>
        <time>2021-08-14T07:05:08Z</time>
      </trkpt>
      <trkpt lat="46.12455" lon="3.11079">
        <ele>310.16</ele>
        <time>2021-08-14T07:05:18Z</time>
      </trkpt>
      <trkpt lat="46.12481" lon="3.11028">
        <ele>310.16</ele>
        <time>2021-08-14T07:05:27Z</time>
      </trkpt>
      <trkpt lat="46.12489" lon="3.11011">
        <ele>310.16</ele>
        <time>2021-08-14T07:05:30Z</time>
      </trkpt>
      <trkpt lat="46.12494" lon="3.11006">
        <ele>310.16</ele>
        <time>2021-08-14T07:05:31Z</time>
      </trkpt>
      <trkpt lat="46.12498" lon="3.11002">
        <ele>310.16</ele>
        <time>2021-08-14T07:05:32Z</time>
      </trkpt>
      <trkpt lat="46.12502" lon="3.10999">
        <ele>310.16</ele>
        <time>2021-08-14T07:05:33Z</time>
      </trkpt>
      <trkpt lat="46.12507" lon="3.10998">
        <ele>311.12</ele>
        <time>2021-08-14T07:05:34Z</time>
      </trkpt>
      <trkpt lat="46.12511" lon="3.10997">
        <ele>311.12</ele>
        <time>2021-08-14T07:05:35Z</time>
      </trkpt>
      <trkpt lat="46.12515" lon="3.10998">
        <ele>311.12</ele>
        <time>2021-08-14T07:05:36Z</time>
      </trkpt>
      <trkpt lat="46.12569" lon="3.10996">
        <ele>312.09</ele>
        <time>2021-08-14T07:05:49Z</time>
      </trkpt>
      <trkpt lat="46.12601" lon="3.10992">
        <ele>313.53</ele>
        <time>2021-08-14T07:05:58Z</time>
      </trkpt>
      <trkpt lat="46.12627" lon="3.10991">
        <ele>314.01</ele>
        <time>2021-08-14T07:06:06Z</time>
      </trkpt>
      <trkpt lat="46.12658" lon="3.10987">
        <ele>315.45</ele>
        <time>2021-08-14T07:06:17Z</time>
      </trkpt>
      <trkpt lat="46.12678" lon="3.10983">
        <ele>316.41</ele>
        <time>2021-08-14T07:06:25Z</time>
      </trkpt>
      <trkpt lat="46.12696" lon="3.10979">
        <ele>317.37</ele>
        <time>2021-08-14T07:06:32Z</time>
      </trkpt>
      <trkpt lat="46.12717" lon="3.10974">
        <ele>319.3</ele>
        <time>2021-08-14T07:06:41Z</time>
      </trkpt>
      <trkpt lat="46.12733" lon="3.10971">
        <ele>321.22</ele>
        <time>2021-08-14T07:06:50Z</time>
      </trkpt>
      <trkpt lat="46.12748" lon="3.10968">
        <ele>322.66</ele>
        <time>2021-08-14T07:07:00Z</time>
      </trkpt>
      <trkpt lat="46.1275" lon="3.10967">
        <ele>323.62</ele>
        <time>2021-08-14T07:07:02Z</time>
      </trkpt>
      <trkpt lat="46.12751" lon="3.10966">
        <ele>323.62</ele>
        <time>2021-08-14T07:07:03Z</time>
      </trkpt>
      <trkpt lat="46.12752" lon="3.10966">
        <ele>324.1</ele>
        <time>2021-08-14T07:07:04Z</time>
      </trkpt>
      <trkpt lat="46.12754" lon="3.10965">
        <ele>323.62</ele>
        <time>2021-08-14T07:07:05Z</time>
      </trkpt>
      <trkpt lat="46.12756" lon="3.10965">
        <ele>324.1</ele>
        <time>2021-08-14T07:07:06Z</time>
      </trkpt>
      <trkpt lat="46.12758" lon="3.10965">
        <ele>324.58</ele>
        <time>2021-08-14T07:07:08Z</time>
      </trkpt>
      <trkpt lat="46.1276" lon="3.10965">
        <ele>325.06</ele>
        <time>2021-08-14T07:07:09Z</time>
      </trkpt>
      <trkpt lat="46.12761" lon="3.10966">
        <ele>325.06</ele>
        <time>2021-08-14T07:07:10Z</time>
      </trkpt>
      <trkpt lat="46.12763" lon="3.10966">
        <ele>325.06</ele>
        <time>2021-08-14T07:07:11Z</time>
      </trkpt>
      <trkpt lat="46.12764" lon="3.10966">
        <ele>325.06</ele>
        <time>2021-08-14T07:07:12Z</time>
      </trkpt>
      <trkpt lat="46.12766" lon="3.10966">
        <ele>325.54</ele>
        <time>2021-08-14T07:07:13Z</time>
      </trkpt>
      <trkpt lat="46.12767" lon="3.10967">
        <ele>325.54</ele>
        <time>2021-08-14T07:07:14Z</time>
      </trkpt>
      <trkpt lat="46.12769" lon="3.10967">
        <ele>326.02</ele>
        <time>2021-08-14T07:07:15Z</time>
      </trkpt>
      <trkpt lat="46.1277" lon="3.10967">
        <ele>326.02</ele>
        <time>2021-08-14T07:07:16Z</time>
      </trkpt>
      <trkpt lat="46.12772" lon="3.10968">
        <ele>326.5</ele>
        <time>2021-08-14T07:07:17Z</time>
      </trkpt>
      <trkpt lat="46.12784" lon="3.10974">
        <ele>328.43</ele>
        <time>2021-08-14T07:07:26Z</time>
      </trkpt>
      <trkpt lat="46.12784" lon="3.10976">
        <ele>328.43</ele>
        <time>2021-08-14T07:07:27Z</time>
      </trkpt>
      <trkpt lat="46.12784" lon="3.10977">
        <ele>328.43</ele>
        <time>2021-08-14T07:07:28Z</time>
      </trkpt>
      <trkpt lat="46.12784" lon="3.10979">
        <ele>328.43</ele>
        <time>2021-08-14T07:07:29Z</time>
      </trkpt>
      <trkpt lat="46.12784" lon="3.10981">
        <ele>329.87</ele>
        <time>2021-08-14T07:07:30Z</time>
      </trkpt>
      <trkpt lat="46.12784" lon="3.10983">
        <ele>329.87</ele>
        <time>2021-08-14T07:07:31Z</time>
      </trkpt>
      <trkpt lat="46.12786" lon="3.10985">
        <ele>329.87</ele>
        <time>2021-08-14T07:07:32Z</time>
      </trkpt>
      <trkpt lat="46.12788" lon="3.10986">
        <ele>329.87</ele>
        <time>2021-08-14T07:07:33Z</time>
      </trkpt>
      <trkpt lat="46.1279" lon="3.10986">
        <ele>329.87</ele>
        <time>2021-08-14T07:07:34Z</time>
      </trkpt>
      <trkpt lat="46.12792" lon="3.10986">
        <ele>329.87</ele>
        <time>2021-08-14T07:07:35Z</time>
      </trkpt>
      <trkpt lat="46.12794" lon="3.10985">
        <ele>329.87</ele>
        <time>2021-08-14T07:07:36Z</time>
      </trkpt>
      <trkpt lat="46.12796" lon="3.10984">
        <ele>329.87</ele>
        <time>2021-08-14T07:07:37Z</time>
      </trkpt>
      <trkpt lat="46.12798" lon="3.10982">
        <ele>329.87</ele>
        <time>2021-08-14T07:07:38Z</time>
      </trkpt>
      <trkpt lat="46.12799" lon="3.10981">
        <ele>329.87</ele>
        <time>2021-08-14T07:07:39Z</time>
      </trkpt>
      <trkpt lat="46.128" lon="3.10979">
        <ele>329.87</ele>
        <time>2021-08-14T07:07:40Z</time>
      </trkpt>
      <trkpt lat="46.12802" lon="3.10977">
        <ele>330.35</ele>
        <time>2021-08-14T07:07:41Z</time>
      </trkpt>
      <trkpt lat="46.12803" lon="3.10975">
        <ele>330.35</ele>
        <time>2021-08-14T07:07:42Z</time>
      </trkpt>
      <trkpt lat="46.12815" lon="3.10957">
        <ele>331.79</ele>
        <time>2021-08-14T07:07:51Z</time>
      </trkpt>
      <trkpt lat="46.12829" lon="3.10933">
        <ele>332.75</ele>
        <time>2021-08-14T07:08:01Z</time>
      </trkpt>
      <trkpt lat="46.12841" lon="3.10917">
        <ele>333.71</ele>
        <time>2021-08-14T07:08:09Z</time>
      </trkpt>
      <trkpt lat="46.12856" lon="3.10903">
        <ele>333.71</ele>
        <time>2021-08-14T07:08:15Z</time>
      </trkpt>
      <trkpt lat="46.12876" lon="3.1089">
        <ele>333.71</ele>
        <time>2021-08-14T07:08:22Z</time>
      </trkpt>
      <trkpt lat="46.12892" lon="3.10886">
        <ele>334.68</ele>
        <time>2021-08-14T07:08:28Z</time>
      </trkpt>
      <trkpt lat="46.12917" lon="3.10893">
        <ele>335.64</ele>
        <time>2021-08-14T07:08:37Z</time>
      </trkpt>
      <trkpt lat="46.12942" lon="3.10907">
        <ele>337.08</ele>
        <time>2021-08-14T07:08:47Z</time>
      </trkpt>
      <trkpt lat="46.12953" lon="3.10914">
        <ele>338.52</ele>
        <time>2021-08-14T07:08:55Z</time>
      </trkpt>
      <trkpt lat="46.12966" lon="3.10919">
        <ele>339.96</ele>
        <time>2021-08-14T07:09:05Z</time>
      </trkpt>
      <trkpt lat="46.12977" lon="3.1092">
        <ele>341.89</ele>
        <time>2021-08-14T07:09:14Z</time>
      </trkpt>
      <trkpt lat="46.12982" lon="3.10919">
        <ele>342.37</ele>
        <time>2021-08-14T07:09:18Z</time>
      </trkpt>
      <trkpt lat="46.12986" lon="3.10916">
        <ele>342.85</ele>
        <time>2021-08-14T07:09:22Z</time>
      </trkpt>
      <trkpt lat="46.12994" lon="3.10911">
        <ele>343.81</ele>
        <time>2021-08-14T07:09:28Z</time>
      </trkpt>
      <trkpt lat="46.12995" lon="3.10909">
        <ele>344.77</ele>
        <time>2021-08-14T07:09:29Z</time>
      </trkpt>
      <trkpt lat="46.12996" lon="3.10907">
        <ele>344.77</ele>
        <time>2021-08-14T07:09:30Z</time>
      </trkpt>
      <trkpt lat="46.13006" lon="3.10891">
        <ele>346.21</ele>
        <time>2021-08-14T07:09:39Z</time>
      </trkpt>
      <trkpt lat="46.13019" lon="3.10864">
        <ele>348.13</ele>
        <time>2021-08-14T07:09:51Z</time>
      </trkpt>
      <trkpt lat="46.13027" lon="3.10841">
        <ele>350.06</ele>
        <time>2021-08-14T07:10:01Z</time>
      </trkpt>
      <trkpt lat="46.13034" lon="3.10814">
        <ele>351.02</ele>
        <time>2021-08-14T07:10:10Z</time>
      </trkpt>
      <trkpt lat="46.13043" lon="3.10781">
        <ele>351.5</ele>
        <time>2021-08-14T07:10:19Z</time>
      </trkpt>
      <trkpt lat="46.13056" lon="3.10757">
        <ele>351.02</ele>
        <time>2021-08-14T07:10:26Z</time>
      </trkpt>
      <trkpt lat="46.13074" lon="3.10736">
        <ele>351.5</ele>
        <time>2021-08-14T07:10:33Z</time>
      </trkpt>
      <trkpt lat="46.13086" lon="3.1071">
        <ele>351.98</ele>
        <time>2021-08-14T07:10:39Z</time>
      </trkpt>
      <trkpt lat="46.1309" lon="3.10687">
        <ele>351.98</ele>
        <time>2021-08-14T07:10:43Z</time>
      </trkpt>
      <trkpt lat="46.1309" lon="3.1068">
        <ele>351.98</ele>
        <time>2021-08-14T07:10:44Z</time>
      </trkpt>
      <trkpt lat="46.13091" lon="3.10674">
        <ele>351.98</ele>
        <time>2021-08-14T07:10:45Z</time>
      </trkpt>
      <trkpt lat="46.13086" lon="3.10624">
        <ele>351.98</ele>
        <time>2021-08-14T07:10:53Z</time>
      </trkpt>
      <trkpt lat="46.13074" lon="3.10573">
        <ele>351.02</ele>
        <time>2021-08-14T07:11:01Z</time>
      </trkpt>
      <trkpt lat="46.1307" lon="3.10561">
        <ele>351.02</ele>
        <time>2021-08-14T07:11:03Z</time>
      </trkpt>
      <trkpt lat="46.13068" lon="3.10555">
        <ele>350.06</ele>
        <time>2021-08-14T07:11:04Z</time>
      </trkpt>
      <trkpt lat="46.13066" lon="3.10548">
        <ele>349.58</ele>
        <time>2021-08-14T07:11:05Z</time>
      </trkpt>
      <trkpt lat="46.13057" lon="3.10511">
        <ele>346.21</ele>
        <time>2021-08-14T07:11:09Z</time>
      </trkpt>
      <trkpt lat="46.13046" lon="3.10473">
        <ele>341.89</ele>
        <time>2021-08-14T07:11:13Z</time>
      </trkpt>
      <trkpt lat="46.13042" lon="3.10453">
        <ele>338.04</ele>
        <time>2021-08-14T07:11:15Z</time>
      </trkpt>
      <trkpt lat="46.13035" lon="3.10424">
        <ele>334.2</ele>
        <time>2021-08-14T07:11:18Z</time>
      </trkpt>
      <trkpt lat="46.1303" lon="3.10399">
        <ele>331.31</ele>
        <time>2021-08-14T07:11:20Z</time>
      </trkpt>
      <trkpt lat="46.13023" lon="3.10361">
        <ele>327.47</ele>
        <time>2021-08-14T07:11:23Z</time>
      </trkpt>
      <trkpt lat="46.13015" lon="3.10321">
        <ele>324.1</ele>
        <time>2021-08-14T07:11:26Z</time>
      </trkpt>
      <trkpt lat="46.13004" lon="3.10267">
        <ele>320.26</ele>
        <time>2021-08-14T07:11:30Z</time>
      </trkpt>
      <trkpt lat="46.13002" lon="3.10253">
        <ele>320.26</ele>
        <time>2021-08-14T07:11:31Z</time>
      </trkpt>
      <trkpt lat="46.12986" lon="3.10166">
        <ele>318.33</ele>
        <time>2021-08-14T07:11:38Z</time>
      </trkpt>
      <trkpt lat="46.12984" lon="3.10144">
        <ele>317.85</ele>
        <time>2021-08-14T07:11:40Z</time>
      </trkpt>
      <trkpt lat="46.12976" lon="3.10062">
        <ele>316.41</ele>
        <time>2021-08-14T07:11:48Z</time>
      </trkpt>
      <trkpt lat="46.12974" lon="3.1003">
        <ele>316.41</ele>
        <time>2021-08-14T07:11:52Z</time>
      </trkpt>
      <trkpt lat="46.12974" lon="3.10023">
        <ele>316.41</ele>
        <time>2021-08-14T07:11:53Z</time>
      </trkpt>
      <trkpt lat="46.1297" lon="3.09979">
        <ele>316.41</ele>
        <time>2021-08-14T07:12:01Z</time>
      </trkpt>
      <trkpt lat="46.12965" lon="3.09933">
        <ele>316.41</ele>
        <time>2021-08-14T07:12:10Z</time>
      </trkpt>
      <trkpt lat="46.12958" lon="3.09909">
        <ele>316.41</ele>
        <time>2021-08-14T07:12:16Z</time>
      </trkpt>
      <trkpt lat="46.12944" lon="3.09903">
        <ele>315.93</ele>
        <time>2021-08-14T07:12:21Z</time>
      </trkpt>
      <trkpt lat="46.12928" lon="3.09906">
        <ele>315.45</ele>
        <time>2021-08-14T07:12:25Z</time>
      </trkpt>
      <trkpt lat="46.12924" lon="3.09905">
        <ele>315.45</ele>
        <time>2021-08-14T07:12:26Z</time>
      </trkpt>
      <trkpt lat="46.12919" lon="3.09904">
        <ele>315.45</ele>
        <time>2021-08-14T07:12:27Z</time>
      </trkpt>
      <trkpt lat="46.12917" lon="3.09901">
        <ele>315.45</ele>
        <time>2021-08-14T07:12:28Z</time>
      </trkpt>
      <trkpt lat="46.12915" lon="3.09898">
        <ele>315.45</ele>
        <time>2021-08-14T07:12:29Z</time>
      </trkpt>
      <trkpt lat="46.12913" lon="3.09896">
        <ele>315.45</ele>
        <time>2021-08-14T07:12:30Z</time>
      </trkpt>
      <trkpt lat="46.12913" lon="3.09895">
        <ele>315.45</ele>
        <time>2021-08-14T07:12:34Z</time>
      </trkpt>
      <trkpt lat="46.12914" lon="3.09892">
        <ele>315.45</ele>
        <time>2021-08-14T07:12:40Z</time>
      </trkpt>
      <trkpt lat="46.12917" lon="3.09889">
        <ele>315.45</ele>
        <time>2021-08-14T07:12:47Z</time>
      </trkpt>
      <trkpt lat="46.12915" lon="3.09883">
        <ele>315.45</ele>
        <time>2021-08-14T07:12:52Z</time>
      </trkpt>
      <trkpt lat="46.12913" lon="3.09871">
        <ele>315.45</ele>
        <time>2021-08-14T07:12:59Z</time>
      </trkpt>
      <trkpt lat="46.12913" lon="3.09858">
        <ele>316.41</ele>
        <time>2021-08-14T07:13:08Z</time>
      </trkpt>
      <trkpt lat="46.12912" lon="3.09859">
        <ele>316.41</ele>
        <time>2021-08-14T07:13:16Z</time>
      </trkpt>
      <trkpt lat="46.12912" lon="3.0986">
        <ele>316.41</ele>
        <time>2021-08-14T07:13:38Z</time>
      </trkpt>
      <trkpt lat="46.12913" lon="3.09855">
        <ele>316.89</ele>
        <time>2021-08-14T07:14:05Z</time>
      </trkpt>
      <trkpt lat="46.12912" lon="3.09854">
        <ele>316.89</ele>
        <time>2021-08-14T07:14:12Z</time>
      </trkpt>
      <trkpt lat="46.12911" lon="3.09856">
        <ele>316.89</ele>
        <time>2021-08-14T07:14:29Z</time>
      </trkpt>
      <trkpt lat="46.1291" lon="3.09855">
        <ele>316.89</ele>
        <time>2021-08-14T07:14:48Z</time>
      </trkpt>
      <trkpt lat="46.12912" lon="3.09852">
        <ele>316.89</ele>
        <time>2021-08-14T07:15:06Z</time>
      </trkpt>
      <trkpt lat="46.12913" lon="3.09852">
        <ele>316.89</ele>
        <time>2021-08-14T07:15:33Z</time>
      </trkpt>
      <trkpt lat="46.12914" lon="3.09851">
        <ele>316.89</ele>
        <time>2021-08-14T07:16:04Z</time>
      </trkpt>
      <trkpt lat="46.12914" lon="3.0985">
        <ele>316.89</ele>
        <time>2021-08-14T07:16:18Z</time>
      </trkpt>
      <trkpt lat="46.12914" lon="3.09852">
        <ele>316.89</ele>
        <time>2021-08-14T07:16:33Z</time>
      </trkpt>
      <trkpt lat="46.12914" lon="3.09852">
        <ele>316.89</ele>
        <time>2021-08-14T07:16:41Z</time>
      </trkpt>
      <trkpt lat="46.12915" lon="3.09851">
        <ele>316.89</ele>
        <time>2021-08-14T07:16:42Z</time>
      </trkpt>
      <trkpt lat="46.12915" lon="3.09849">
        <ele>316.89</ele>
        <time>2021-08-14T07:16:43Z</time>
      </trkpt>
      <trkpt lat="46.12916" lon="3.09847">
        <ele>316.89</ele>
        <time>2021-08-14T07:16:44Z</time>
      </trkpt>
      <trkpt lat="46.12917" lon="3.09845">
        <ele>316.89</ele>
        <time>2021-08-14T07:16:45Z</time>
      </trkpt>
      <trkpt lat="46.12918" lon="3.09842">
        <ele>316.89</ele>
        <time>2021-08-14T07:16:46Z</time>
      </trkpt>
      <trkpt lat="46.12919" lon="3.09839">
        <ele>316.89</ele>
        <time>2021-08-14T07:16:47Z</time>
      </trkpt>
      <trkpt lat="46.1292" lon="3.09836">
        <ele>316.89</ele>
        <time>2021-08-14T07:16:48Z</time>
      </trkpt>
      <trkpt lat="46.1292" lon="3.09833">
        <ele>317.37</ele>
        <time>2021-08-14T07:16:49Z</time>
      </trkpt>
      <trkpt lat="46.12924" lon="3.09817">
        <ele>318.33</ele>
        <time>2021-08-14T07:16:56Z</time>
      </trkpt>
      <trkpt lat="46.12927" lon="3.09807">
        <ele>319.3</ele>
        <time>2021-08-14T07:17:01Z</time>
      </trkpt>
      <trkpt lat="46.12928" lon="3.09806">
        <ele>319.3</ele>
        <time>2021-08-14T07:17:02Z</time>
      </trkpt>
      <trkpt lat="46.12929" lon="3.09804">
        <ele>319.3</ele>
        <time>2021-08-14T07:17:04Z</time>
      </trkpt>
      <trkpt lat="46.12927" lon="3.09802">
        <ele>319.78</ele>
        <time>2021-08-14T07:17:09Z</time>
      </trkpt>
      <trkpt lat="46.12927" lon="3.09805">
        <ele>319.78</ele>
        <time>2021-08-14T07:17:11Z</time>
      </trkpt>
      <trkpt lat="46.12926" lon="3.09808">
        <ele>319.78</ele>
        <time>2021-08-14T07:17:12Z</time>
      </trkpt>
      <trkpt lat="46.12926" lon="3.09811">
        <ele>319.78</ele>
        <time>2021-08-14T07:17:13Z</time>
      </trkpt>
      <trkpt lat="46.12925" lon="3.09815">
        <ele>318.33</ele>
        <time>2021-08-14T07:17:14Z</time>
      </trkpt>
      <trkpt lat="46.12924" lon="3.09819">
        <ele>318.33</ele>
        <time>2021-08-14T07:17:15Z</time>
      </trkpt>
      <trkpt lat="46.12922" lon="3.0983">
        <ele>317.37</ele>
        <time>2021-08-14T07:17:17Z</time>
      </trkpt>
      <trkpt lat="46.1292" lon="3.09836">
        <ele>317.37</ele>
        <time>2021-08-14T07:17:18Z</time>
      </trkpt>
      <trkpt lat="46.12917" lon="3.09842">
        <ele>316.89</ele>
        <time>2021-08-14T07:17:19Z</time>
      </trkpt>
      <trkpt lat="46.12912" lon="3.09853">
        <ele>316.89</ele>
        <time>2021-08-14T07:17:21Z</time>
      </trkpt>
      <trkpt lat="46.12909" lon="3.09857">
        <ele>316.89</ele>
        <time>2021-08-14T07:17:22Z</time>
      </trkpt>
      <trkpt lat="46.12906" lon="3.0986">
        <ele>316.89</ele>
        <time>2021-08-14T07:17:23Z</time>
      </trkpt>
      <trkpt lat="46.12902" lon="3.09864">
        <ele>316.89</ele>
        <time>2021-08-14T07:17:24Z</time>
      </trkpt>
      <trkpt lat="46.12898" lon="3.09867">
        <ele>316.89</ele>
        <time>2021-08-14T07:17:25Z</time>
      </trkpt>
      <trkpt lat="46.12895" lon="3.0987">
        <ele>316.89</ele>
        <time>2021-08-14T07:17:26Z</time>
      </trkpt>
      <trkpt lat="46.12876" lon="3.09891">
        <ele>316.41</ele>
        <time>2021-08-14T07:17:33Z</time>
      </trkpt>
      <trkpt lat="46.12867" lon="3.09894">
        <ele>316.41</ele>
        <time>2021-08-14T07:17:35Z</time>
      </trkpt>
      <trkpt lat="46.12863" lon="3.09895">
        <ele>316.41</ele>
        <time>2021-08-14T07:17:36Z</time>
      </trkpt>
      <trkpt lat="46.12842" lon="3.09899">
        <ele>315.93</ele>
        <time>2021-08-14T07:17:41Z</time>
      </trkpt>
      <trkpt lat="46.12837" lon="3.09899">
        <ele>315.93</ele>
        <time>2021-08-14T07:17:42Z</time>
      </trkpt>
      <trkpt lat="46.12808" lon="3.09904">
        <ele>315.93</ele>
        <time>2021-08-14T07:17:49Z</time>
      </trkpt>
      <trkpt lat="46.128" lon="3.09907">
        <ele>315.93</ele>
        <time>2021-08-14T07:17:51Z</time>
      </trkpt>
      <trkpt lat="46.12786" lon="3.09912">
        <ele>315.93</ele>
        <time>2021-08-14T07:17:54Z</time>
      </trkpt>
      <trkpt lat="46.12782" lon="3.09912">
        <ele>315.93</ele>
        <time>2021-08-14T07:17:55Z</time>
      </trkpt>
      <trkpt lat="46.12778" lon="3.0991">
        <ele>315.93</ele>
        <time>2021-08-14T07:17:56Z</time>
      </trkpt>
      <trkpt lat="46.12775" lon="3.09907">
        <ele>315.93</ele>
        <time>2021-08-14T07:17:57Z</time>
      </trkpt>
      <trkpt lat="46.12773" lon="3.09905">
        <ele>315.93</ele>
        <time>2021-08-14T07:17:58Z</time>
      </trkpt>
      <trkpt lat="46.1277" lon="3.09902">
        <ele>315.93</ele>
        <time>2021-08-14T07:17:59Z</time>
      </trkpt>
      <trkpt lat="46.12744" lon="3.09871">
        <ele>315.93</ele>
        <time>2021-08-14T07:18:07Z</time>
      </trkpt>
      <trkpt lat="46.1274" lon="3.09867">
        <ele>315.93</ele>
        <time>2021-08-14T07:18:08Z</time>
      </trkpt>
      <trkpt lat="46.12699" lon="3.09837">
        <ele>314.97</ele>
        <time>2021-08-14T07:18:17Z</time>
      </trkpt>
      <trkpt lat="46.12653" lon="3.09811">
        <ele>314.49</ele>
        <time>2021-08-14T07:18:26Z</time>
      </trkpt>
      <trkpt lat="46.12606" lon="3.09783">
        <ele>314.01</ele>
        <time>2021-08-14T07:18:35Z</time>
      </trkpt>
      <trkpt lat="46.12563" lon="3.09757">
        <ele>314.01</ele>
        <time>2021-08-14T07:18:44Z</time>
      </trkpt>
      <trkpt lat="46.12539" lon="3.09743">
        <ele>314.01</ele>
        <time>2021-08-14T07:18:50Z</time>
      </trkpt>
      <trkpt lat="46.12506" lon="3.09724">
        <ele>313.53</ele>
        <time>2021-08-14T07:18:58Z</time>
      </trkpt>
      <trkpt lat="46.12469" lon="3.09704">
        <ele>313.53</ele>
        <time>2021-08-14T07:19:07Z</time>
      </trkpt>
      <trkpt lat="46.12426" lon="3.09677">
        <ele>313.53</ele>
        <time>2021-08-14T07:19:17Z</time>
      </trkpt>
      <trkpt lat="46.12384" lon="3.09654">
        <ele>313.53</ele>
        <time>2021-08-14T07:19:26Z</time>
      </trkpt>
      <trkpt lat="46.12336" lon="3.09625">
        <ele>313.53</ele>
        <time>2021-08-14T07:19:36Z</time>
      </trkpt>
      <trkpt lat="46.12288" lon="3.09596">
        <ele>313.53</ele>
        <time>2021-08-14T07:19:46Z</time>
      </trkpt>
      <trkpt lat="46.12237" lon="3.09565">
        <ele>313.53</ele>
        <time>2021-08-14T07:19:56Z</time>
      </trkpt>
      <trkpt lat="46.12187" lon="3.09536">
        <ele>313.53</ele>
        <time>2021-08-14T07:20:06Z</time>
      </trkpt>
      <trkpt lat="46.12146" lon="3.0951">
        <ele>313.53</ele>
        <time>2021-08-14T07:20:14Z</time>
      </trkpt>
      <trkpt lat="46.12097" lon="3.09481">
        <ele>313.53</ele>
        <time>2021-08-14T07:20:24Z</time>
      </trkpt>
      <trkpt lat="46.12063" lon="3.09462">
        <ele>313.53</ele>
        <time>2021-08-14T07:20:32Z</time>
      </trkpt>
      <trkpt lat="46.12059" lon="3.0946">
        <ele>313.53</ele>
        <time>2021-08-14T07:20:33Z</time>
      </trkpt>
      <trkpt lat="46.1203" lon="3.09443">
        <ele>313.53</ele>
        <time>2021-08-14T07:20:41Z</time>
      </trkpt>
      <trkpt lat="46.12022" lon="3.09438">
        <ele>313.53</ele>
        <time>2021-08-14T07:20:43Z</time>
      </trkpt>
      <trkpt lat="46.12018" lon="3.09435">
        <ele>313.53</ele>
        <time>2021-08-14T07:20:44Z</time>
      </trkpt>
      <trkpt lat="46.11983" lon="3.09403">
        <ele>313.53</ele>
        <time>2021-08-14T07:20:53Z</time>
      </trkpt>
      <trkpt lat="46.11947" lon="3.09365">
        <ele>313.05</ele>
        <time>2021-08-14T07:21:02Z</time>
      </trkpt>
      <trkpt lat="46.11911" lon="3.0933">
        <ele>313.05</ele>
        <time>2021-08-14T07:21:11Z</time>
      </trkpt>
      <trkpt lat="46.11884" lon="3.093">
        <ele>313.05</ele>
        <time>2021-08-14T07:21:18Z</time>
      </trkpt>
      <trkpt lat="46.11859" lon="3.09274">
        <ele>313.05</ele>
        <time>2021-08-14T07:21:24Z</time>
      </trkpt>
      <trkpt lat="46.11852" lon="3.09264">
        <ele>313.05</ele>
        <time>2021-08-14T07:21:26Z</time>
      </trkpt>
      <trkpt lat="46.11849" lon="3.09258">
        <ele>313.05</ele>
        <time>2021-08-14T07:21:27Z</time>
      </trkpt>
      <trkpt lat="46.11824" lon="3.09208">
        <ele>313.05</ele>
        <time>2021-08-14T07:21:36Z</time>
      </trkpt>
      <trkpt lat="46.11822" lon="3.09203">
        <ele>313.05</ele>
        <time>2021-08-14T07:21:37Z</time>
      </trkpt>
      <trkpt lat="46.11819" lon="3.09198">
        <ele>314.49</ele>
        <time>2021-08-14T07:21:38Z</time>
      </trkpt>
      <trkpt lat="46.11817" lon="3.09193">
        <ele>314.49</ele>
        <time>2021-08-14T07:21:39Z</time>
      </trkpt>
      <trkpt lat="46.11814" lon="3.09182">
        <ele>314.49</ele>
        <time>2021-08-14T07:21:41Z</time>
      </trkpt>
      <trkpt lat="46.11802" lon="3.09123">
        <ele>314.49</ele>
        <time>2021-08-14T07:21:50Z</time>
      </trkpt>
      <trkpt lat="46.11799" lon="3.09109">
        <ele>314.49</ele>
        <time>2021-08-14T07:21:52Z</time>
      </trkpt>
      <trkpt lat="46.11798" lon="3.09104">
        <ele>314.49</ele>
        <time>2021-08-14T07:21:53Z</time>
      </trkpt>
      <trkpt lat="46.11797" lon="3.09097">
        <ele>314.49</ele>
        <time>2021-08-14T07:21:54Z</time>
      </trkpt>
      <trkpt lat="46.11796" lon="3.09091">
        <ele>314.49</ele>
        <time>2021-08-14T07:21:55Z</time>
      </trkpt>
      <trkpt lat="46.11794" lon="3.09086">
        <ele>314.49</ele>
        <time>2021-08-14T07:21:56Z</time>
      </trkpt>
      <trkpt lat="46.11794" lon="3.09077">
        <ele>314.49</ele>
        <time>2021-08-14T07:21:58Z</time>
      </trkpt>
      <trkpt lat="46.11795" lon="3.09075">
        <ele>314.49</ele>
        <time>2021-08-14T07:21:59Z</time>
      </trkpt>
      <trkpt lat="46.11796" lon="3.09073">
        <ele>314.49</ele>
        <time>2021-08-14T07:22:00Z</time>
      </trkpt>
      <trkpt lat="46.11798" lon="3.09072">
        <ele>314.97</ele>
        <time>2021-08-14T07:22:05Z</time>
      </trkpt>
      <trkpt lat="46.11799" lon="3.09073">
        <ele>314.97</ele>
        <time>2021-08-14T07:22:06Z</time>
      </trkpt>
      <trkpt lat="46.11799" lon="3.09075">
        <ele>314.97</ele>
        <time>2021-08-14T07:22:07Z</time>
      </trkpt>
      <trkpt lat="46.11795" lon="3.09079">
        <ele>314.97</ele>
        <time>2021-08-14T07:22:10Z</time>
      </trkpt>
      <trkpt lat="46.11793" lon="3.09077">
        <ele>314.49</ele>
        <time>2021-08-14T07:22:11Z</time>
      </trkpt>
      <trkpt lat="46.11791" lon="3.09075">
        <ele>314.49</ele>
        <time>2021-08-14T07:22:12Z</time>
      </trkpt>
      <trkpt lat="46.1179" lon="3.09073">
        <ele>314.49</ele>
        <time>2021-08-14T07:22:13Z</time>
      </trkpt>
      <trkpt lat="46.11788" lon="3.09069">
        <ele>314.49</ele>
        <time>2021-08-14T07:22:14Z</time>
      </trkpt>
      <trkpt lat="46.11787" lon="3.09064">
        <ele>314.49</ele>
        <time>2021-08-14T07:22:15Z</time>
      </trkpt>
      <trkpt lat="46.11787" lon="3.09059">
        <ele>314.49</ele>
        <time>2021-08-14T07:22:16Z</time>
      </trkpt>
      <trkpt lat="46.11786" lon="3.09054">
        <ele>314.49</ele>
        <time>2021-08-14T07:22:17Z</time>
      </trkpt>
      <trkpt lat="46.11785" lon="3.09049">
        <ele>314.49</ele>
        <time>2021-08-14T07:22:18Z</time>
      </trkpt>
      <trkpt lat="46.11784" lon="3.09044">
        <ele>314.49</ele>
        <time>2021-08-14T07:22:19Z</time>
      </trkpt>
      <trkpt lat="46.11781" lon="3.09028">
        <ele>314.49</ele>
        <time>2021-08-14T07:22:22Z</time>
      </trkpt>
      <trkpt lat="46.11774" lon="3.09005">
        <ele>314.49</ele>
        <time>2021-08-14T07:22:26Z</time>
      </trkpt>
      <trkpt lat="46.11766" lon="3.08967">
        <ele>314.49</ele>
        <time>2021-08-14T07:22:32Z</time>
      </trkpt>
      <trkpt lat="46.11756" lon="3.08909">
        <ele>314.49</ele>
        <time>2021-08-14T07:22:41Z</time>
      </trkpt>
      <trkpt lat="46.11748" lon="3.08867">
        <ele>314.49</ele>
        <time>2021-08-14T07:22:48Z</time>
      </trkpt>
      <trkpt lat="46.11745" lon="3.08862">
        <ele>314.49</ele>
        <time>2021-08-14T07:22:49Z</time>
      </trkpt>
      <trkpt lat="46.11743" lon="3.08861">
        <ele>314.49</ele>
        <time>2021-08-14T07:22:50Z</time>
      </trkpt>
      <trkpt lat="46.11743" lon="3.08861">
        <ele>314.49</ele>
        <time>2021-08-14T07:22:55Z</time>
      </trkpt>
      <trkpt lat="46.11744" lon="3.08858">
        <ele>314.49</ele>
        <time>2021-08-14T07:23:00Z</time>
      </trkpt>
      <trkpt lat="46.11744" lon="3.08841">
        <ele>314.49</ele>
        <time>2021-08-14T07:23:07Z</time>
      </trkpt>
      <trkpt lat="46.11734" lon="3.08823">
        <ele>314.49</ele>
        <time>2021-08-14T07:23:15Z</time>
      </trkpt>
      <trkpt lat="46.11715" lon="3.08819">
        <ele>314.49</ele>
        <time>2021-08-14T07:23:21Z</time>
      </trkpt>
      <trkpt lat="46.11681" lon="3.08814">
        <ele>314.49</ele>
        <time>2021-08-14T07:23:29Z</time>
      </trkpt>
      <trkpt lat="46.11663" lon="3.08812">
        <ele>314.49</ele>
        <time>2021-08-14T07:23:33Z</time>
      </trkpt>
      <trkpt lat="46.11627" lon="3.08809">
        <ele>314.49</ele>
        <time>2021-08-14T07:23:42Z</time>
      </trkpt>
      <trkpt lat="46.11614" lon="3.08812">
        <ele>314.49</ele>
        <time>2021-08-14T07:23:46Z</time>
      </trkpt>
      <trkpt lat="46.11596" lon="3.08844">
        <ele>314.49</ele>
        <time>2021-08-14T07:23:54Z</time>
      </trkpt>
      <trkpt lat="46.11563" lon="3.08896">
        <ele>314.49</ele>
        <time>2021-08-14T07:24:04Z</time>
      </trkpt>
      <trkpt lat="46.11532" lon="3.08947">
        <ele>314.49</ele>
        <time>2021-08-14T07:24:14Z</time>
      </trkpt>
      <trkpt lat="46.1152" lon="3.08968">
        <ele>315.93</ele>
        <time>2021-08-14T07:24:21Z</time>
      </trkpt>
      <trkpt lat="46.11504" lon="3.08998">
        <ele>317.37</ele>
        <time>2021-08-14T07:24:30Z</time>
      </trkpt>
      <trkpt lat="46.11487" lon="3.09026">
        <ele>317.85</ele>
        <time>2021-08-14T07:24:37Z</time>
      </trkpt>
      <trkpt lat="46.11468" lon="3.0906">
        <ele>317.85</ele>
        <time>2021-08-14T07:24:44Z</time>
      </trkpt>
      <trkpt lat="46.11443" lon="3.09102">
        <ele>315.93</ele>
        <time>2021-08-14T07:24:52Z</time>
      </trkpt>
      <trkpt lat="46.11439" lon="3.09105">
        <ele>315.93</ele>
        <time>2021-08-14T07:24:53Z</time>
      </trkpt>
      <trkpt lat="46.11435" lon="3.09107">
        <ele>315.45</ele>
        <time>2021-08-14T07:24:54Z</time>
      </trkpt>
      <trkpt lat="46.1143" lon="3.09106">
        <ele>315.45</ele>
        <time>2021-08-14T07:24:55Z</time>
      </trkpt>
      <trkpt lat="46.11427" lon="3.09104">
        <ele>314.97</ele>
        <time>2021-08-14T07:24:56Z</time>
      </trkpt>
      <trkpt lat="46.11424" lon="3.09098">
        <ele>314.97</ele>
        <time>2021-08-14T07:24:57Z</time>
      </trkpt>
      <trkpt lat="46.11423" lon="3.09093">
        <ele>314.01</ele>
        <time>2021-08-14T07:24:58Z</time>
      </trkpt>
      <trkpt lat="46.11421" lon="3.09086">
        <ele>314.01</ele>
        <time>2021-08-14T07:24:59Z</time>
      </trkpt>
      <trkpt lat="46.1142" lon="3.09079">
        <ele>313.53</ele>
        <time>2021-08-14T07:25:00Z</time>
      </trkpt>
      <trkpt lat="46.11413" lon="3.09052">
        <ele>313.53</ele>
        <time>2021-08-14T07:25:04Z</time>
      </trkpt>
      <trkpt lat="46.11411" lon="3.09046">
        <ele>313.53</ele>
        <time>2021-08-14T07:25:05Z</time>
      </trkpt>
      <trkpt lat="46.11389" lon="3.08999">
        <ele>313.53</ele>
        <time>2021-08-14T07:25:13Z</time>
      </trkpt>
      <trkpt lat="46.11363" lon="3.08939">
        <ele>313.53</ele>
        <time>2021-08-14T07:25:22Z</time>
      </trkpt>
      <trkpt lat="46.11339" lon="3.08875">
        <ele>313.53</ele>
        <time>2021-08-14T07:25:32Z</time>
      </trkpt>
      <trkpt lat="46.11336" lon="3.08864">
        <ele>313.53</ele>
        <time>2021-08-14T07:25:34Z</time>
      </trkpt>
      <trkpt lat="46.11322" lon="3.08813">
        <ele>313.53</ele>
        <time>2021-08-14T07:25:42Z</time>
      </trkpt>
      <trkpt lat="46.11313" lon="3.0879">
        <ele>313.53</ele>
        <time>2021-08-14T07:25:47Z</time>
      </trkpt>
      <trkpt lat="46.1131" lon="3.08789">
        <ele>313.53</ele>
        <time>2021-08-14T07:25:48Z</time>
      </trkpt>
      <trkpt lat="46.11307" lon="3.08789">
        <ele>313.53</ele>
        <time>2021-08-14T07:25:49Z</time>
      </trkpt>
      <trkpt lat="46.11303" lon="3.08791">
        <ele>313.53</ele>
        <time>2021-08-14T07:25:50Z</time>
      </trkpt>
      <trkpt lat="46.11301" lon="3.08793">
        <ele>313.53</ele>
        <time>2021-08-14T07:25:51Z</time>
      </trkpt>
      <trkpt lat="46.11298" lon="3.08796">
        <ele>313.53</ele>
        <time>2021-08-14T07:25:52Z</time>
      </trkpt>
      <trkpt lat="46.11295" lon="3.08798">
        <ele>313.53</ele>
        <time>2021-08-14T07:25:53Z</time>
      </trkpt>
      <trkpt lat="46.11277" lon="3.08811">
        <ele>314.97</ele>
        <time>2021-08-14T07:25:59Z</time>
      </trkpt>
      <trkpt lat="46.11271" lon="3.08815">
        <ele>314.97</ele>
        <time>2021-08-14T07:26:01Z</time>
      </trkpt>
      <trkpt lat="46.11268" lon="3.08813">
        <ele>314.97</ele>
        <time>2021-08-14T07:26:02Z</time>
      </trkpt>
      <trkpt lat="46.11265" lon="3.08811">
        <ele>314.97</ele>
        <time>2021-08-14T07:26:03Z</time>
      </trkpt>
      <trkpt lat="46.11263" lon="3.08808">
        <ele>314.97</ele>
        <time>2021-08-14T07:26:04Z</time>
      </trkpt>
      <trkpt lat="46.11261" lon="3.08804">
        <ele>314.97</ele>
        <time>2021-08-14T07:26:05Z</time>
      </trkpt>
      <trkpt lat="46.11259" lon="3.088">
        <ele>314.97</ele>
        <time>2021-08-14T07:26:06Z</time>
      </trkpt>
      <trkpt lat="46.11244" lon="3.08772">
        <ele>314.97</ele>
        <time>2021-08-14T07:26:12Z</time>
      </trkpt>
      <trkpt lat="46.11241" lon="3.08767">
        <ele>314.97</ele>
        <time>2021-08-14T07:26:13Z</time>
      </trkpt>
      <trkpt lat="46.11236" lon="3.08757">
        <ele>314.97</ele>
        <time>2021-08-14T07:26:15Z</time>
      </trkpt>
      <trkpt lat="46.11233" lon="3.08752">
        <ele>314.97</ele>
        <time>2021-08-14T07:26:16Z</time>
      </trkpt>
      <trkpt lat="46.11211" lon="3.08704">
        <ele>315.45</ele>
        <time>2021-08-14T07:26:25Z</time>
      </trkpt>
      <trkpt lat="46.11188" lon="3.08661">
        <ele>315.45</ele>
        <time>2021-08-14T07:26:33Z</time>
      </trkpt>
      <trkpt lat="46.11159" lon="3.08612">
        <ele>315.45</ele>
        <time>2021-08-14T07:26:43Z</time>
      </trkpt>
      <trkpt lat="46.11156" lon="3.08607">
        <ele>315.45</ele>
        <time>2021-08-14T07:26:44Z</time>
      </trkpt>
      <trkpt lat="46.11153" lon="3.08603">
        <ele>315.45</ele>
        <time>2021-08-14T07:26:45Z</time>
      </trkpt>
      <trkpt lat="46.11149" lon="3.08601">
        <ele>315.45</ele>
        <time>2021-08-14T07:26:46Z</time>
      </trkpt>
      <trkpt lat="46.11145" lon="3.08601">
        <ele>315.45</ele>
        <time>2021-08-14T07:26:47Z</time>
      </trkpt>
      <trkpt lat="46.11141" lon="3.08603">
        <ele>315.45</ele>
        <time>2021-08-14T07:26:48Z</time>
      </trkpt>
      <trkpt lat="46.11137" lon="3.08607">
        <ele>315.45</ele>
        <time>2021-08-14T07:26:49Z</time>
      </trkpt>
      <trkpt lat="46.11133" lon="3.0861">
        <ele>315.45</ele>
        <time>2021-08-14T07:26:50Z</time>
      </trkpt>
      <trkpt lat="46.11129" lon="3.08614">
        <ele>315.45</ele>
        <time>2021-08-14T07:26:51Z</time>
      </trkpt>
      <trkpt lat="46.11125" lon="3.08616">
        <ele>315.45</ele>
        <time>2021-08-14T07:26:52Z</time>
      </trkpt>
      <trkpt lat="46.11095" lon="3.08635">
        <ele>315.45</ele>
        <time>2021-08-14T07:26:59Z</time>
      </trkpt>
      <trkpt lat="46.11091" lon="3.08637">
        <ele>315.45</ele>
        <time>2021-08-14T07:27:00Z</time>
      </trkpt>
      <trkpt lat="46.11087" lon="3.0864">
        <ele>315.45</ele>
        <time>2021-08-14T07:27:01Z</time>
      </trkpt>
      <trkpt lat="46.11043" lon="3.08662">
        <ele>315.45</ele>
        <time>2021-08-14T07:27:10Z</time>
      </trkpt>
      <trkpt lat="46.11005" lon="3.08682">
        <ele>315.45</ele>
        <time>2021-08-14T07:27:18Z</time>
      </trkpt>
      <trkpt lat="46.10985" lon="3.0869">
        <ele>315.45</ele>
        <time>2021-08-14T07:27:22Z</time>
      </trkpt>
      <trkpt lat="46.1096" lon="3.08702">
        <ele>316.41</ele>
        <time>2021-08-14T07:27:28Z</time>
      </trkpt>
      <trkpt lat="46.10939" lon="3.08713">
        <ele>317.85</ele>
        <time>2021-08-14T07:27:35Z</time>
      </trkpt>
      <trkpt lat="46.10913" lon="3.08727">
        <ele>319.3</ele>
        <time>2021-08-14T07:27:45Z</time>
      </trkpt>
      <trkpt lat="46.10893" lon="3.08738">
        <ele>319.78</ele>
        <time>2021-08-14T07:27:52Z</time>
      </trkpt>
      <trkpt lat="46.10872" lon="3.08744">
        <ele>320.26</ele>
        <time>2021-08-14T07:27:59Z</time>
      </trkpt>
      <trkpt lat="46.10852" lon="3.08734">
        <ele>320.26</ele>
        <time>2021-08-14T07:28:05Z</time>
      </trkpt>
      <trkpt lat="46.1081" lon="3.08716">
        <ele>321.22</ele>
        <time>2021-08-14T07:28:17Z</time>
      </trkpt>
      <trkpt lat="46.10785" lon="3.08705">
        <ele>321.22</ele>
        <time>2021-08-14T07:28:24Z</time>
      </trkpt>
      <trkpt lat="46.10752" lon="3.0869">
        <ele>321.7</ele>
        <time>2021-08-14T07:28:33Z</time>
      </trkpt>
      <trkpt lat="46.10725" lon="3.08676">
        <ele>322.18</ele>
        <time>2021-08-14T07:28:41Z</time>
      </trkpt>
      <trkpt lat="46.10691" lon="3.08656">
        <ele>322.66</ele>
        <time>2021-08-14T07:28:51Z</time>
      </trkpt>
      <trkpt lat="46.10667" lon="3.0864">
        <ele>322.66</ele>
        <time>2021-08-14T07:28:58Z</time>
      </trkpt>
      <trkpt lat="46.10645" lon="3.08627">
        <ele>322.66</ele>
        <time>2021-08-14T07:29:05Z</time>
      </trkpt>
      <trkpt lat="46.10614" lon="3.08607">
        <ele>323.14</ele>
        <time>2021-08-14T07:29:14Z</time>
      </trkpt>
      <trkpt lat="46.10577" lon="3.08584">
        <ele>323.62</ele>
        <time>2021-08-14T07:29:25Z</time>
      </trkpt>
      <trkpt lat="46.10506" lon="3.0854">
        <ele>324.58</ele>
        <time>2021-08-14T07:29:46Z</time>
      </trkpt>
      <trkpt lat="46.10477" lon="3.08523">
        <ele>325.06</ele>
        <time>2021-08-14T07:29:54Z</time>
      </trkpt>
      <trkpt lat="46.10454" lon="3.08508">
        <ele>325.06</ele>
        <time>2021-08-14T07:30:01Z</time>
      </trkpt>
      <trkpt lat="46.10419" lon="3.08492">
        <ele>325.54</ele>
        <time>2021-08-14T07:30:11Z</time>
      </trkpt>
      <trkpt lat="46.10388" lon="3.08479">
        <ele>326.02</ele>
        <time>2021-08-14T07:30:20Z</time>
      </trkpt>
      <trkpt lat="46.10349" lon="3.0847">
        <ele>326.99</ele>
        <time>2021-08-14T07:30:30Z</time>
      </trkpt>
      <trkpt lat="46.10317" lon="3.08463">
        <ele>327.47</ele>
        <time>2021-08-14T07:30:39Z</time>
      </trkpt>
      <trkpt lat="46.10285" lon="3.08454">
        <ele>327.95</ele>
        <time>2021-08-14T07:30:48Z</time>
      </trkpt>
      <trkpt lat="46.10247" lon="3.08444">
        <ele>328.91</ele>
        <time>2021-08-14T07:30:59Z</time>
      </trkpt>
      <trkpt lat="46.10229" lon="3.08449">
        <ele>329.39</ele>
        <time>2021-08-14T07:31:06Z</time>
      </trkpt>
      <trkpt lat="46.10204" lon="3.08462">
        <ele>330.35</ele>
        <time>2021-08-14T07:31:14Z</time>
      </trkpt>
      <trkpt lat="46.10184" lon="3.08475">
        <ele>331.31</ele>
        <time>2021-08-14T07:31:22Z</time>
      </trkpt>
      <trkpt lat="46.10171" lon="3.08483">
        <ele>332.27</ele>
        <time>2021-08-14T07:31:29Z</time>
      </trkpt>
      <trkpt lat="46.10153" lon="3.08491">
        <ele>333.23</ele>
        <time>2021-08-14T07:31:39Z</time>
      </trkpt>
      <trkpt lat="46.10139" lon="3.08497">
        <ele>335.16</ele>
        <time>2021-08-14T07:31:47Z</time>
      </trkpt>
      <trkpt lat="46.10137" lon="3.08497">
        <ele>335.16</ele>
        <time>2021-08-14T07:31:48Z</time>
      </trkpt>
      <trkpt lat="46.10136" lon="3.08496">
        <ele>335.16</ele>
        <time>2021-08-14T07:31:49Z</time>
      </trkpt>
      <trkpt lat="46.10134" lon="3.08494">
        <ele>335.64</ele>
        <time>2021-08-14T07:31:50Z</time>
      </trkpt>
      <trkpt lat="46.10133" lon="3.08491">
        <ele>335.64</ele>
        <time>2021-08-14T07:31:51Z</time>
      </trkpt>
      <trkpt lat="46.10132" lon="3.08488">
        <ele>335.64</ele>
        <time>2021-08-14T07:31:52Z</time>
      </trkpt>
      <trkpt lat="46.10132" lon="3.08485">
        <ele>335.64</ele>
        <time>2021-08-14T07:31:53Z</time>
      </trkpt>
      <trkpt lat="46.10132" lon="3.08482">
        <ele>335.16</ele>
        <time>2021-08-14T07:31:54Z</time>
      </trkpt>
      <trkpt lat="46.10131" lon="3.08478">
        <ele>335.16</ele>
        <time>2021-08-14T07:31:55Z</time>
      </trkpt>
      <trkpt lat="46.1013" lon="3.08475">
        <ele>335.16</ele>
        <time>2021-08-14T07:31:56Z</time>
      </trkpt>
      <trkpt lat="46.10122" lon="3.08445">
        <ele>335.64</ele>
        <time>2021-08-14T07:32:03Z</time>
      </trkpt>
      <trkpt lat="46.1011" lon="3.08399">
        <ele>336.12</ele>
        <time>2021-08-14T07:32:13Z</time>
      </trkpt>
      <trkpt lat="46.10102" lon="3.0837">
        <ele>336.6</ele>
        <time>2021-08-14T07:32:19Z</time>
      </trkpt>
      <trkpt lat="46.10097" lon="3.08355">
        <ele>336.6</ele>
        <time>2021-08-14T07:32:22Z</time>
      </trkpt>
      <trkpt lat="46.10095" lon="3.0835">
        <ele>336.6</ele>
        <time>2021-08-14T07:32:23Z</time>
      </trkpt>
      <trkpt lat="46.10093" lon="3.08345">
        <ele>336.6</ele>
        <time>2021-08-14T07:32:24Z</time>
      </trkpt>
      <trkpt lat="46.10084" lon="3.08305">
        <ele>337.08</ele>
        <time>2021-08-14T07:32:32Z</time>
      </trkpt>
      <trkpt lat="46.10069" lon="3.08252">
        <ele>337.08</ele>
        <time>2021-08-14T07:32:42Z</time>
      </trkpt>
      <trkpt lat="46.10052" lon="3.08188">
        <ele>337.08</ele>
        <time>2021-08-14T07:32:54Z</time>
      </trkpt>
      <trkpt lat="46.10044" lon="3.08157">
        <ele>337.08</ele>
        <time>2021-08-14T07:33:00Z</time>
      </trkpt>
      <trkpt lat="46.10031" lon="3.08112">
        <ele>337.08</ele>
        <time>2021-08-14T07:33:09Z</time>
      </trkpt>
      <trkpt lat="46.10017" lon="3.08062">
        <ele>337.08</ele>
        <time>2021-08-14T07:33:19Z</time>
      </trkpt>
      <trkpt lat="46.10001" lon="3.08006">
        <ele>337.56</ele>
        <time>2021-08-14T07:33:31Z</time>
      </trkpt>
      <trkpt lat="46.09993" lon="3.07973">
        <ele>338.04</ele>
        <time>2021-08-14T07:33:38Z</time>
      </trkpt>
      <trkpt lat="46.09983" lon="3.07939">
        <ele>338.52</ele>
        <time>2021-08-14T07:33:46Z</time>
      </trkpt>
      <trkpt lat="46.09975" lon="3.07908">
        <ele>339</ele>
        <time>2021-08-14T07:33:53Z</time>
      </trkpt>
      <trkpt lat="46.09965" lon="3.0787">
        <ele>339.48</ele>
        <time>2021-08-14T07:34:02Z</time>
      </trkpt>
      <trkpt lat="46.09955" lon="3.07834">
        <ele>339.96</ele>
        <time>2021-08-14T07:34:10Z</time>
      </trkpt>
      <trkpt lat="46.09948" lon="3.07809">
        <ele>340.44</ele>
        <time>2021-08-14T07:34:16Z</time>
      </trkpt>
      <trkpt lat="46.09938" lon="3.07779">
        <ele>340.44</ele>
        <time>2021-08-14T07:34:23Z</time>
      </trkpt>
      <trkpt lat="46.09929" lon="3.07756">
        <ele>340.92</ele>
        <time>2021-08-14T07:34:28Z</time>
      </trkpt>
      <trkpt lat="46.09926" lon="3.07755">
        <ele>340.92</ele>
        <time>2021-08-14T07:34:29Z</time>
      </trkpt>
      <trkpt lat="46.09923" lon="3.07755">
        <ele>340.92</ele>
        <time>2021-08-14T07:34:30Z</time>
      </trkpt>
      <trkpt lat="46.09921" lon="3.07758">
        <ele>340.92</ele>
        <time>2021-08-14T07:34:31Z</time>
      </trkpt>
      <trkpt lat="46.09918" lon="3.07761">
        <ele>341.41</ele>
        <time>2021-08-14T07:34:32Z</time>
      </trkpt>
      <trkpt lat="46.09916" lon="3.07764">
        <ele>341.41</ele>
        <time>2021-08-14T07:34:33Z</time>
      </trkpt>
      <trkpt lat="46.09892" lon="3.0779">
        <ele>342.37</ele>
        <time>2021-08-14T07:34:43Z</time>
      </trkpt>
      <trkpt lat="46.09881" lon="3.07805">
        <ele>343.33</ele>
        <time>2021-08-14T07:34:50Z</time>
      </trkpt>
      <trkpt lat="46.0987" lon="3.07815">
        <ele>344.29</ele>
        <time>2021-08-14T07:34:56Z</time>
      </trkpt>
      <trkpt lat="46.09856" lon="3.07828">
        <ele>345.25</ele>
        <time>2021-08-14T07:35:05Z</time>
      </trkpt>
      <trkpt lat="46.09844" lon="3.07839">
        <ele>345.73</ele>
        <time>2021-08-14T07:35:13Z</time>
      </trkpt>
      <trkpt lat="46.09835" lon="3.07846">
        <ele>347.17</ele>
        <time>2021-08-14T07:35:19Z</time>
      </trkpt>
      <trkpt lat="46.09824" lon="3.07857">
        <ele>347.65</ele>
        <time>2021-08-14T07:35:27Z</time>
      </trkpt>
      <trkpt lat="46.09811" lon="3.07867">
        <ele>348.62</ele>
        <time>2021-08-14T07:35:36Z</time>
      </trkpt>
      <trkpt lat="46.098" lon="3.07876">
        <ele>349.1</ele>
        <time>2021-08-14T07:35:43Z</time>
      </trkpt>
      <trkpt lat="46.09799" lon="3.07877">
        <ele>350.06</ele>
        <time>2021-08-14T07:35:44Z</time>
      </trkpt>
      <trkpt lat="46.09797" lon="3.07879">
        <ele>350.06</ele>
        <time>2021-08-14T07:35:45Z</time>
      </trkpt>
      <trkpt lat="46.09796" lon="3.0788">
        <ele>350.06</ele>
        <time>2021-08-14T07:35:46Z</time>
      </trkpt>
      <trkpt lat="46.09794" lon="3.07882">
        <ele>350.06</ele>
        <time>2021-08-14T07:35:47Z</time>
      </trkpt>
      <trkpt lat="46.09793" lon="3.07883">
        <ele>350.54</ele>
        <time>2021-08-14T07:35:48Z</time>
      </trkpt>
      <trkpt lat="46.09791" lon="3.07884">
        <ele>350.54</ele>
        <time>2021-08-14T07:35:49Z</time>
      </trkpt>
      <trkpt lat="46.09782" lon="3.07893">
        <ele>351.02</ele>
        <time>2021-08-14T07:35:56Z</time>
      </trkpt>
      <trkpt lat="46.0977" lon="3.07902">
        <ele>352.46</ele>
        <time>2021-08-14T07:36:04Z</time>
      </trkpt>
      <trkpt lat="46.09758" lon="3.07913">
        <ele>353.9</ele>
        <time>2021-08-14T07:36:13Z</time>
      </trkpt>
      <trkpt lat="46.09754" lon="3.07916">
        <ele>354.38</ele>
        <time>2021-08-14T07:36:16Z</time>
      </trkpt>
      <trkpt lat="46.09753" lon="3.07918">
        <ele>354.38</ele>
        <time>2021-08-14T07:36:17Z</time>
      </trkpt>
      <trkpt lat="46.09751" lon="3.0792">
        <ele>354.38</ele>
        <time>2021-08-14T07:36:18Z</time>
      </trkpt>
      <trkpt lat="46.09738" lon="3.07932">
        <ele>355.83</ele>
        <time>2021-08-14T07:36:27Z</time>
      </trkpt>
      <trkpt lat="46.09727" lon="3.07941">
        <ele>356.31</ele>
        <time>2021-08-14T07:36:34Z</time>
      </trkpt>
      <trkpt lat="46.09715" lon="3.07952">
        <ele>357.27</ele>
        <time>2021-08-14T07:36:42Z</time>
      </trkpt>
      <trkpt lat="46.09701" lon="3.07963">
        <ele>358.71</ele>
        <time>2021-08-14T07:36:51Z</time>
      </trkpt>
      <trkpt lat="46.09687" lon="3.07974">
        <ele>360.15</ele>
        <time>2021-08-14T07:37:00Z</time>
      </trkpt>
      <trkpt lat="46.09675" lon="3.07987">
        <ele>360.63</ele>
        <time>2021-08-14T07:37:08Z</time>
      </trkpt>
      <trkpt lat="46.09668" lon="3.08002">
        <ele>361.59</ele>
        <time>2021-08-14T07:37:15Z</time>
      </trkpt>
      <trkpt lat="46.09665" lon="3.08013">
        <ele>362.07</ele>
        <time>2021-08-14T07:37:19Z</time>
      </trkpt>
      <trkpt lat="46.09663" lon="3.08016">
        <ele>362.55</ele>
        <time>2021-08-14T07:37:20Z</time>
      </trkpt>
      <trkpt lat="46.09655" lon="3.08025">
        <ele>363.04</ele>
        <time>2021-08-14T07:37:25Z</time>
      </trkpt>
      <trkpt lat="46.09654" lon="3.08027">
        <ele>363.04</ele>
        <time>2021-08-14T07:37:26Z</time>
      </trkpt>
      <trkpt lat="46.09642" lon="3.08043">
        <ele>364</ele>
        <time>2021-08-14T07:37:34Z</time>
      </trkpt>
      <trkpt lat="46.09629" lon="3.0806">
        <ele>364.48</ele>
        <time>2021-08-14T07:37:42Z</time>
      </trkpt>
      <trkpt lat="46.09616" lon="3.08077">
        <ele>364.96</ele>
        <time>2021-08-14T07:37:49Z</time>
      </trkpt>
      <trkpt lat="46.096" lon="3.08095">
        <ele>365.44</ele>
        <time>2021-08-14T07:37:56Z</time>
      </trkpt>
      <trkpt lat="46.09584" lon="3.08112">
        <ele>365.92</ele>
        <time>2021-08-14T07:38:03Z</time>
      </trkpt>
      <trkpt lat="46.09561" lon="3.08137">
        <ele>366.4</ele>
        <time>2021-08-14T07:38:11Z</time>
      </trkpt>
      <trkpt lat="46.09535" lon="3.08167">
        <ele>367.36</ele>
        <time>2021-08-14T07:38:20Z</time>
      </trkpt>
      <trkpt lat="46.09508" lon="3.08198">
        <ele>367.36</ele>
        <time>2021-08-14T07:38:29Z</time>
      </trkpt>
      <trkpt lat="46.09478" lon="3.08231">
        <ele>367.84</ele>
        <time>2021-08-14T07:38:39Z</time>
      </trkpt>
      <trkpt lat="46.09448" lon="3.08265">
        <ele>367.84</ele>
        <time>2021-08-14T07:38:48Z</time>
      </trkpt>
      <trkpt lat="46.09441" lon="3.08272">
        <ele>367.84</ele>
        <time>2021-08-14T07:38:50Z</time>
      </trkpt>
      <trkpt lat="46.09437" lon="3.08277">
        <ele>367.84</ele>
        <time>2021-08-14T07:38:51Z</time>
      </trkpt>
      <trkpt lat="46.09434" lon="3.08281">
        <ele>367.84</ele>
        <time>2021-08-14T07:38:52Z</time>
      </trkpt>
      <trkpt lat="46.09431" lon="3.08285">
        <ele>367.84</ele>
        <time>2021-08-14T07:38:53Z</time>
      </trkpt>
      <trkpt lat="46.09428" lon="3.08289">
        <ele>367.84</ele>
        <time>2021-08-14T07:38:54Z</time>
      </trkpt>
      <trkpt lat="46.09424" lon="3.08293">
        <ele>367.84</ele>
        <time>2021-08-14T07:38:55Z</time>
      </trkpt>
      <trkpt lat="46.09419" lon="3.08295">
        <ele>367.84</ele>
        <time>2021-08-14T07:38:56Z</time>
      </trkpt>
      <trkpt lat="46.09415" lon="3.08294">
        <ele>367.84</ele>
        <time>2021-08-14T07:38:57Z</time>
      </trkpt>
      <trkpt lat="46.09411" lon="3.08291">
        <ele>367.84</ele>
        <time>2021-08-14T07:38:58Z</time>
      </trkpt>
      <trkpt lat="46.09407" lon="3.08287">
        <ele>367.84</ele>
        <time>2021-08-14T07:38:59Z</time>
      </trkpt>
      <trkpt lat="46.09368" lon="3.08255">
        <ele>366.4</ele>
        <time>2021-08-14T07:39:08Z</time>
      </trkpt>
      <trkpt lat="46.09325" lon="3.08219">
        <ele>366.4</ele>
        <time>2021-08-14T07:39:17Z</time>
      </trkpt>
      <trkpt lat="46.09281" lon="3.08183">
        <ele>366.4</ele>
        <time>2021-08-14T07:39:27Z</time>
      </trkpt>
      <trkpt lat="46.09269" lon="3.08174">
        <ele>367.84</ele>
        <time>2021-08-14T07:39:30Z</time>
      </trkpt>
      <trkpt lat="46.09265" lon="3.08171">
        <ele>367.84</ele>
        <time>2021-08-14T07:39:31Z</time>
      </trkpt>
      <trkpt lat="46.09257" lon="3.08163">
        <ele>368.32</ele>
        <time>2021-08-14T07:39:33Z</time>
      </trkpt>
      <trkpt lat="46.09225" lon="3.08139">
        <ele>369.28</ele>
        <time>2021-08-14T07:39:42Z</time>
      </trkpt>
      <trkpt lat="46.09207" lon="3.08123">
        <ele>370.24</ele>
        <time>2021-08-14T07:39:50Z</time>
      </trkpt>
      <trkpt lat="46.0919" lon="3.08107">
        <ele>371.69</ele>
        <time>2021-08-14T07:39:58Z</time>
      </trkpt>
      <trkpt lat="46.09175" lon="3.08093">
        <ele>372.17</ele>
        <time>2021-08-14T07:40:05Z</time>
      </trkpt>
      <trkpt lat="46.09153" lon="3.08073">
        <ele>373.61</ele>
        <time>2021-08-14T07:40:15Z</time>
      </trkpt>
      <trkpt lat="46.09134" lon="3.08055">
        <ele>374.57</ele>
        <time>2021-08-14T07:40:24Z</time>
      </trkpt>
      <trkpt lat="46.09115" lon="3.08037">
        <ele>376.01</ele>
        <time>2021-08-14T07:40:33Z</time>
      </trkpt>
      <trkpt lat="46.091" lon="3.08023">
        <ele>376.49</ele>
        <time>2021-08-14T07:40:41Z</time>
      </trkpt>
      <trkpt lat="46.09084" lon="3.08009">
        <ele>377.45</ele>
        <time>2021-08-14T07:40:49Z</time>
      </trkpt>
      <trkpt lat="46.09066" lon="3.07993">
        <ele>378.42</ele>
        <time>2021-08-14T07:40:59Z</time>
      </trkpt>
      <trkpt lat="46.09047" lon="3.07976">
        <ele>379.86</ele>
        <time>2021-08-14T07:41:09Z</time>
      </trkpt>
      <trkpt lat="46.09022" lon="3.0796">
        <ele>380.82</ele>
        <time>2021-08-14T07:41:20Z</time>
      </trkpt>
      <trkpt lat="46.09001" lon="3.07949">
        <ele>382.26</ele>
        <time>2021-08-14T07:41:29Z</time>
      </trkpt>
      <trkpt lat="46.08978" lon="3.07935">
        <ele>383.22</ele>
        <time>2021-08-14T07:41:38Z</time>
      </trkpt>
      <trkpt lat="46.08952" lon="3.0792">
        <ele>384.18</ele>
        <time>2021-08-14T07:41:46Z</time>
      </trkpt>
      <trkpt lat="46.08922" lon="3.07907">
        <ele>385.63</ele>
        <time>2021-08-14T07:41:56Z</time>
      </trkpt>
      <trkpt lat="46.08894" lon="3.07896">
        <ele>387.07</ele>
        <time>2021-08-14T07:42:05Z</time>
      </trkpt>
      <trkpt lat="46.08862" lon="3.07885">
        <ele>388.51</ele>
        <time>2021-08-14T07:42:15Z</time>
      </trkpt>
      <trkpt lat="46.0884" lon="3.07881">
        <ele>389.47</ele>
        <time>2021-08-14T07:42:22Z</time>
      </trkpt>
      <trkpt lat="46.08804" lon="3.07872">
        <ele>390.43</ele>
        <time>2021-08-14T07:42:33Z</time>
      </trkpt>
      <trkpt lat="46.08782" lon="3.07861">
        <ele>390.43</ele>
        <time>2021-08-14T07:42:39Z</time>
      </trkpt>
      <trkpt lat="46.08757" lon="3.07846">
        <ele>387.55</ele>
        <time>2021-08-14T07:42:44Z</time>
      </trkpt>
      <trkpt lat="46.08725" lon="3.0782">
        <ele>384.18</ele>
        <time>2021-08-14T07:42:49Z</time>
      </trkpt>
      <trkpt lat="46.08691" lon="3.07797">
        <ele>380.82</ele>
        <time>2021-08-14T07:42:53Z</time>
      </trkpt>
      <trkpt lat="46.08644" lon="3.07773">
        <ele>377.94</ele>
        <time>2021-08-14T07:42:58Z</time>
      </trkpt>
      <trkpt lat="46.08634" lon="3.07771">
        <ele>377.45</ele>
        <time>2021-08-14T07:42:59Z</time>
      </trkpt>
      <trkpt lat="46.08624" lon="3.0777">
        <ele>377.45</ele>
        <time>2021-08-14T07:43:00Z</time>
      </trkpt>
      <trkpt lat="46.08614" lon="3.07771">
        <ele>376.49</ele>
        <time>2021-08-14T07:43:01Z</time>
      </trkpt>
      <trkpt lat="46.08605" lon="3.07774">
        <ele>376.49</ele>
        <time>2021-08-14T07:43:02Z</time>
      </trkpt>
      <trkpt lat="46.08562" lon="3.07794">
        <ele>376.01</ele>
        <time>2021-08-14T07:43:07Z</time>
      </trkpt>
      <trkpt lat="46.08539" lon="3.07809">
        <ele>378.9</ele>
        <time>2021-08-14T07:43:11Z</time>
      </trkpt>
      <trkpt lat="46.08535" lon="3.0781">
        <ele>379.86</ele>
        <time>2021-08-14T07:43:12Z</time>
      </trkpt>
      <trkpt lat="46.08533" lon="3.07809">
        <ele>379.86</ele>
        <time>2021-08-14T07:43:13Z</time>
      </trkpt>
      <trkpt lat="46.0853" lon="3.07809">
        <ele>380.82</ele>
        <time>2021-08-14T07:43:15Z</time>
      </trkpt>
      <trkpt lat="46.08529" lon="3.0781">
        <ele>380.82</ele>
        <time>2021-08-14T07:43:16Z</time>
      </trkpt>
      <trkpt lat="46.08527" lon="3.07809">
        <ele>380.82</ele>
        <time>2021-08-14T07:43:18Z</time>
      </trkpt>
      <trkpt lat="46.08526" lon="3.07809">
        <ele>381.3</ele>
        <time>2021-08-14T07:43:19Z</time>
      </trkpt>
      <trkpt lat="46.08525" lon="3.07808">
        <ele>381.78</ele>
        <time>2021-08-14T07:43:20Z</time>
      </trkpt>
      <trkpt lat="46.08523" lon="3.07808">
        <ele>381.78</ele>
        <time>2021-08-14T07:43:21Z</time>
      </trkpt>
      <trkpt lat="46.08522" lon="3.07807">
        <ele>382.26</ele>
        <time>2021-08-14T07:43:22Z</time>
      </trkpt>
      <trkpt lat="46.08516" lon="3.07804">
        <ele>382.74</ele>
        <time>2021-08-14T07:43:28Z</time>
      </trkpt>
      <trkpt lat="46.08515" lon="3.07804">
        <ele>382.74</ele>
        <time>2021-08-14T07:43:29Z</time>
      </trkpt>
      <trkpt lat="46.08505" lon="3.07801">
        <ele>384.18</ele>
        <time>2021-08-14T07:43:37Z</time>
      </trkpt>
      <trkpt lat="46.08504" lon="3.078">
        <ele>384.18</ele>
        <time>2021-08-14T07:43:38Z</time>
      </trkpt>
      <trkpt lat="46.08502" lon="3.078">
        <ele>384.18</ele>
        <time>2021-08-14T07:43:39Z</time>
      </trkpt>
      <trkpt lat="46.08501" lon="3.07799">
        <ele>384.18</ele>
        <time>2021-08-14T07:43:40Z</time>
      </trkpt>
      <trkpt lat="46.085" lon="3.07799">
        <ele>385.15</ele>
        <time>2021-08-14T07:43:41Z</time>
      </trkpt>
      <trkpt lat="46.0849" lon="3.07795">
        <ele>386.11</ele>
        <time>2021-08-14T07:43:48Z</time>
      </trkpt>
      <trkpt lat="46.08489" lon="3.07795">
        <ele>386.11</ele>
        <time>2021-08-14T07:43:49Z</time>
      </trkpt>
      <trkpt lat="46.08488" lon="3.07795">
        <ele>386.11</ele>
        <time>2021-08-14T07:43:50Z</time>
      </trkpt>
      <trkpt lat="46.08486" lon="3.07795">
        <ele>386.59</ele>
        <time>2021-08-14T07:43:51Z</time>
      </trkpt>
      <trkpt lat="46.08485" lon="3.07794">
        <ele>386.59</ele>
        <time>2021-08-14T07:43:52Z</time>
      </trkpt>
      <trkpt lat="46.08483" lon="3.07793">
        <ele>387.07</ele>
        <time>2021-08-14T07:43:53Z</time>
      </trkpt>
      <trkpt lat="46.08482" lon="3.07792">
        <ele>387.07</ele>
        <time>2021-08-14T07:43:54Z</time>
      </trkpt>
      <trkpt lat="46.08481" lon="3.07791">
        <ele>387.07</ele>
        <time>2021-08-14T07:43:55Z</time>
      </trkpt>
      <trkpt lat="46.0847" lon="3.07786">
        <ele>388.51</ele>
        <time>2021-08-14T07:44:04Z</time>
      </trkpt>
      <trkpt lat="46.08466" lon="3.07783">
        <ele>388.99</ele>
        <time>2021-08-14T07:44:07Z</time>
      </trkpt>
      <trkpt lat="46.08465" lon="3.07782">
        <ele>388.99</ele>
        <time>2021-08-14T07:44:08Z</time>
      </trkpt>
      <trkpt lat="46.08464" lon="3.07781">
        <ele>389.47</ele>
        <time>2021-08-14T07:44:09Z</time>
      </trkpt>
      <trkpt lat="46.08463" lon="3.07781">
        <ele>389.47</ele>
        <time>2021-08-14T07:44:10Z</time>
      </trkpt>
      <trkpt lat="46.08462" lon="3.07781">
        <ele>389.95</ele>
        <time>2021-08-14T07:44:11Z</time>
      </trkpt>
      <trkpt lat="46.0846" lon="3.0778">
        <ele>390.43</ele>
        <time>2021-08-14T07:44:12Z</time>
      </trkpt>
      <trkpt lat="46.08449" lon="3.07773">
        <ele>391.39</ele>
        <time>2021-08-14T07:44:21Z</time>
      </trkpt>
      <trkpt lat="46.08437" lon="3.07765">
        <ele>393.32</ele>
        <time>2021-08-14T07:44:31Z</time>
      </trkpt>
      <trkpt lat="46.08425" lon="3.07759">
        <ele>394.76</ele>
        <time>2021-08-14T07:44:41Z</time>
      </trkpt>
      <trkpt lat="46.08424" lon="3.07758">
        <ele>394.76</ele>
        <time>2021-08-14T07:44:42Z</time>
      </trkpt>
      <trkpt lat="46.08423" lon="3.07757">
        <ele>395.24</ele>
        <time>2021-08-14T07:44:43Z</time>
      </trkpt>
      <trkpt lat="46.0841" lon="3.07751">
        <ele>396.68</ele>
        <time>2021-08-14T07:44:52Z</time>
      </trkpt>
      <trkpt lat="46.08397" lon="3.07745">
        <ele>398.6</ele>
        <time>2021-08-14T07:45:00Z</time>
      </trkpt>
      <trkpt lat="46.0838" lon="3.07734">
        <ele>401.01</ele>
        <time>2021-08-14T07:45:10Z</time>
      </trkpt>
      <trkpt lat="46.08364" lon="3.07726">
        <ele>402.93</ele>
        <time>2021-08-14T07:45:18Z</time>
      </trkpt>
      <trkpt lat="46.08349" lon="3.07716">
        <ele>404.37</ele>
        <time>2021-08-14T07:45:27Z</time>
      </trkpt>
      <trkpt lat="46.08335" lon="3.077">
        <ele>405.81</ele>
        <time>2021-08-14T07:45:36Z</time>
      </trkpt>
      <trkpt lat="46.08321" lon="3.07683">
        <ele>406.77</ele>
        <time>2021-08-14T07:45:46Z</time>
      </trkpt>
      <trkpt lat="46.08306" lon="3.07663">
        <ele>408.22</ele>
        <time>2021-08-14T07:45:56Z</time>
      </trkpt>
      <trkpt lat="46.08292" lon="3.07651">
        <ele>409.18</ele>
        <time>2021-08-14T07:46:04Z</time>
      </trkpt>
      <trkpt lat="46.08275" lon="3.07646">
        <ele>410.62</ele>
        <time>2021-08-14T07:46:13Z</time>
      </trkpt>
      <trkpt lat="46.08254" lon="3.07647">
        <ele>412.06</ele>
        <time>2021-08-14T07:46:22Z</time>
      </trkpt>
      <trkpt lat="46.08231" lon="3.07648">
        <ele>413.02</ele>
        <time>2021-08-14T07:46:31Z</time>
      </trkpt>
      <trkpt lat="46.08211" lon="3.0765">
        <ele>413.5</ele>
        <time>2021-08-14T07:46:38Z</time>
      </trkpt>
      <trkpt lat="46.08183" lon="3.07651">
        <ele>414.95</ele>
        <time>2021-08-14T07:46:48Z</time>
      </trkpt>
      <trkpt lat="46.08154" lon="3.07653">
        <ele>415.91</ele>
        <time>2021-08-14T07:46:58Z</time>
      </trkpt>
      <trkpt lat="46.08127" lon="3.07655">
        <ele>416.87</ele>
        <time>2021-08-14T07:47:07Z</time>
      </trkpt>
      <trkpt lat="46.08115" lon="3.07657">
        <ele>417.83</ele>
        <time>2021-08-14T07:47:12Z</time>
      </trkpt>
      <trkpt lat="46.08096" lon="3.07656">
        <ele>418.79</ele>
        <time>2021-08-14T07:47:19Z</time>
      </trkpt>
      <trkpt lat="46.08077" lon="3.07646">
        <ele>420.23</ele>
        <time>2021-08-14T07:47:27Z</time>
      </trkpt>
      <trkpt lat="46.08061" lon="3.07637">
        <ele>421.19</ele>
        <time>2021-08-14T07:47:35Z</time>
      </trkpt>
      <trkpt lat="46.08046" lon="3.07627">
        <ele>422.16</ele>
        <time>2021-08-14T07:47:43Z</time>
      </trkpt>
      <trkpt lat="46.08027" lon="3.07626">
        <ele>423.12</ele>
        <time>2021-08-14T07:47:52Z</time>
      </trkpt>
      <trkpt lat="46.07999" lon="3.0763">
        <ele>424.56</ele>
        <time>2021-08-14T07:48:04Z</time>
      </trkpt>
      <trkpt lat="46.07981" lon="3.07633">
        <ele>425.52</ele>
        <time>2021-08-14T07:48:11Z</time>
      </trkpt>
      <trkpt lat="46.07951" lon="3.0764">
        <ele>426.48</ele>
        <time>2021-08-14T07:48:21Z</time>
      </trkpt>
      <trkpt lat="46.07934" lon="3.07643">
        <ele>426.96</ele>
        <time>2021-08-14T07:48:27Z</time>
      </trkpt>
      <trkpt lat="46.07916" lon="3.07648">
        <ele>427.92</ele>
        <time>2021-08-14T07:48:33Z</time>
      </trkpt>
      <trkpt lat="46.07897" lon="3.07658">
        <ele>428.4</ele>
        <time>2021-08-14T07:48:40Z</time>
      </trkpt>
      <trkpt lat="46.07873" lon="3.07677">
        <ele>429.37</ele>
        <time>2021-08-14T07:48:49Z</time>
      </trkpt>
      <trkpt lat="46.07852" lon="3.077">
        <ele>429.37</ele>
        <time>2021-08-14T07:48:56Z</time>
      </trkpt>
      <trkpt lat="46.07839" lon="3.0771">
        <ele>427.92</ele>
        <time>2021-08-14T07:48:59Z</time>
      </trkpt>
      <trkpt lat="46.07815" lon="3.07729">
        <ele>426.48</ele>
        <time>2021-08-14T07:49:04Z</time>
      </trkpt>
      <trkpt lat="46.07811" lon="3.07734">
        <ele>426.48</ele>
        <time>2021-08-14T07:49:05Z</time>
      </trkpt>
      <trkpt lat="46.07794" lon="3.07759">
        <ele>425.52</ele>
        <time>2021-08-14T07:49:09Z</time>
      </trkpt>
      <trkpt lat="46.07791" lon="3.07766">
        <ele>425.52</ele>
        <time>2021-08-14T07:49:10Z</time>
      </trkpt>
      <trkpt lat="46.07789" lon="3.07772">
        <ele>425.52</ele>
        <time>2021-08-14T07:49:11Z</time>
      </trkpt>
      <trkpt lat="46.07787" lon="3.07778">
        <ele>425.52</ele>
        <time>2021-08-14T07:49:12Z</time>
      </trkpt>
      <trkpt lat="46.07786" lon="3.07782">
        <ele>425.52</ele>
        <time>2021-08-14T07:49:13Z</time>
      </trkpt>
      <trkpt lat="46.07782" lon="3.07792">
        <ele>425.04</ele>
        <time>2021-08-14T07:49:15Z</time>
      </trkpt>
      <trkpt lat="46.07778" lon="3.07796">
        <ele>424.08</ele>
        <time>2021-08-14T07:49:16Z</time>
      </trkpt>
      <trkpt lat="46.07769" lon="3.07804">
        <ele>422.64</ele>
        <time>2021-08-14T07:49:18Z</time>
      </trkpt>
      <trkpt lat="46.07762" lon="3.07808">
        <ele>422.16</ele>
        <time>2021-08-14T07:49:19Z</time>
      </trkpt>
      <trkpt lat="46.07755" lon="3.07811">
        <ele>421.19</ele>
        <time>2021-08-14T07:49:20Z</time>
      </trkpt>
      <trkpt lat="46.07748" lon="3.07813">
        <ele>420.71</ele>
        <time>2021-08-14T07:49:21Z</time>
      </trkpt>
      <trkpt lat="46.07741" lon="3.07814">
        <ele>420.23</ele>
        <time>2021-08-14T07:49:22Z</time>
      </trkpt>
      <trkpt lat="46.07725" lon="3.07818">
        <ele>419.27</ele>
        <time>2021-08-14T07:49:24Z</time>
      </trkpt>
      <trkpt lat="46.07693" lon="3.0783">
        <ele>415.91</ele>
        <time>2021-08-14T07:49:28Z</time>
      </trkpt>
      <trkpt lat="46.07649" lon="3.07855">
        <ele>412.54</ele>
        <time>2021-08-14T07:49:33Z</time>
      </trkpt>
      <trkpt lat="46.0764" lon="3.07856">
        <ele>411.58</ele>
        <time>2021-08-14T07:49:34Z</time>
      </trkpt>
      <trkpt lat="46.07631" lon="3.07856">
        <ele>410.62</ele>
        <time>2021-08-14T07:49:35Z</time>
      </trkpt>
      <trkpt lat="46.07622" lon="3.07855">
        <ele>410.14</ele>
        <time>2021-08-14T07:49:36Z</time>
      </trkpt>
      <trkpt lat="46.07614" lon="3.07854">
        <ele>409.18</ele>
        <time>2021-08-14T07:49:37Z</time>
      </trkpt>
      <trkpt lat="46.07605" lon="3.07851">
        <ele>408.22</ele>
        <time>2021-08-14T07:49:38Z</time>
      </trkpt>
      <trkpt lat="46.07596" lon="3.07847">
        <ele>408.22</ele>
        <time>2021-08-14T07:49:39Z</time>
      </trkpt>
      <trkpt lat="46.07588" lon="3.07842">
        <ele>406.77</ele>
        <time>2021-08-14T07:49:40Z</time>
      </trkpt>
      <trkpt lat="46.07572" lon="3.07832">
        <ele>405.81</ele>
        <time>2021-08-14T07:49:42Z</time>
      </trkpt>
      <trkpt lat="46.07562" lon="3.07823">
        <ele>404.37</ele>
        <time>2021-08-14T07:49:44Z</time>
      </trkpt>
      <trkpt lat="46.07555" lon="3.07819">
        <ele>403.41</ele>
        <time>2021-08-14T07:49:45Z</time>
      </trkpt>
      <trkpt lat="46.07548" lon="3.07816">
        <ele>402.45</ele>
        <time>2021-08-14T07:49:46Z</time>
      </trkpt>
      <trkpt lat="46.07541" lon="3.07813">
        <ele>401.01</ele>
        <time>2021-08-14T07:49:47Z</time>
      </trkpt>
      <trkpt lat="46.07534" lon="3.0781">
        <ele>400.53</ele>
        <time>2021-08-14T07:49:48Z</time>
      </trkpt>
      <trkpt lat="46.07526" lon="3.07807">
        <ele>399.08</ele>
        <time>2021-08-14T07:49:49Z</time>
      </trkpt>
      <trkpt lat="46.07503" lon="3.07795">
        <ele>396.2</ele>
        <time>2021-08-14T07:49:52Z</time>
      </trkpt>
      <trkpt lat="46.07496" lon="3.07789">
        <ele>395.72</ele>
        <time>2021-08-14T07:49:53Z</time>
      </trkpt>
      <trkpt lat="46.07467" lon="3.07764">
        <ele>392.36</ele>
        <time>2021-08-14T07:49:57Z</time>
      </trkpt>
      <trkpt lat="46.07434" lon="3.07746">
        <ele>389.47</ele>
        <time>2021-08-14T07:50:01Z</time>
      </trkpt>
      <trkpt lat="46.07423" lon="3.07738">
        <ele>390.43</ele>
        <time>2021-08-14T07:50:04Z</time>
      </trkpt>
      <trkpt lat="46.07422" lon="3.07737">
        <ele>390.43</ele>
        <time>2021-08-14T07:50:10Z</time>
      </trkpt>
      <trkpt lat="46.07421" lon="3.0774">
        <ele>390.43</ele>
        <time>2021-08-14T07:50:16Z</time>
      </trkpt>
      <trkpt lat="46.0742" lon="3.07741">
        <ele>390.43</ele>
        <time>2021-08-14T07:50:17Z</time>
      </trkpt>
      <trkpt lat="46.07419" lon="3.07741">
        <ele>390.43</ele>
        <time>2021-08-14T07:50:18Z</time>
      </trkpt>
      <trkpt lat="46.07417" lon="3.07741">
        <ele>390.43</ele>
        <time>2021-08-14T07:50:19Z</time>
      </trkpt>
      <trkpt lat="46.07415" lon="3.0774">
        <ele>390.43</ele>
        <time>2021-08-14T07:50:20Z</time>
      </trkpt>
      <trkpt lat="46.07409" lon="3.07736">
        <ele>390.43</ele>
        <time>2021-08-14T07:50:26Z</time>
      </trkpt>
      <trkpt lat="46.07397" lon="3.07742">
        <ele>391.87</ele>
        <time>2021-08-14T07:50:35Z</time>
      </trkpt>
      <trkpt lat="46.07395" lon="3.07743">
        <ele>391.87</ele>
        <time>2021-08-14T07:50:37Z</time>
      </trkpt>
      <trkpt lat="46.07391" lon="3.07744">
        <ele>392.36</ele>
        <time>2021-08-14T07:50:41Z</time>
      </trkpt>
      <trkpt lat="46.07392" lon="3.07746">
        <ele>392.36</ele>
        <time>2021-08-14T07:50:42Z</time>
      </trkpt>
      <trkpt lat="46.07393" lon="3.07748">
        <ele>392.36</ele>
        <time>2021-08-14T07:50:43Z</time>
      </trkpt>
      <trkpt lat="46.07391" lon="3.07759">
        <ele>392.36</ele>
        <time>2021-08-14T07:50:47Z</time>
      </trkpt>
      <trkpt lat="46.07389" lon="3.07761">
        <ele>392.36</ele>
        <time>2021-08-14T07:50:48Z</time>
      </trkpt>
      <trkpt lat="46.07387" lon="3.07762">
        <ele>392.36</ele>
        <time>2021-08-14T07:50:49Z</time>
      </trkpt>
      <trkpt lat="46.07385" lon="3.07763">
        <ele>392.36</ele>
        <time>2021-08-14T07:50:50Z</time>
      </trkpt>
      <trkpt lat="46.07384" lon="3.07763">
        <ele>392.36</ele>
        <time>2021-08-14T07:50:51Z</time>
      </trkpt>
      <trkpt lat="46.07382" lon="3.07763">
        <ele>392.36</ele>
        <time>2021-08-14T07:50:52Z</time>
      </trkpt>
      <trkpt lat="46.07381" lon="3.07764">
        <ele>392.36</ele>
        <time>2021-08-14T07:50:53Z</time>
      </trkpt>
      <trkpt lat="46.07379" lon="3.07765">
        <ele>392.36</ele>
        <time>2021-08-14T07:50:54Z</time>
      </trkpt>
      <trkpt lat="46.07378" lon="3.07765">
        <ele>392.36</ele>
        <time>2021-08-14T07:50:55Z</time>
      </trkpt>
      <trkpt lat="46.07369" lon="3.07764">
        <ele>393.32</ele>
        <time>2021-08-14T07:51:02Z</time>
      </trkpt>
      <trkpt lat="46.07358" lon="3.07765">
        <ele>393.8</ele>
        <time>2021-08-14T07:51:09Z</time>
      </trkpt>
      <trkpt lat="46.0735" lon="3.07764">
        <ele>394.28</ele>
        <time>2021-08-14T07:51:14Z</time>
      </trkpt>
      <trkpt lat="46.07347" lon="3.07763">
        <ele>394.76</ele>
        <time>2021-08-14T07:51:16Z</time>
      </trkpt>
      <trkpt lat="46.07337" lon="3.07765">
        <ele>395.72</ele>
        <time>2021-08-14T07:51:23Z</time>
      </trkpt>
      <trkpt lat="46.07329" lon="3.07769">
        <ele>396.2</ele>
        <time>2021-08-14T07:51:29Z</time>
      </trkpt>
      <trkpt lat="46.07328" lon="3.0777">
        <ele>396.2</ele>
        <time>2021-08-14T07:51:30Z</time>
      </trkpt>
      <trkpt lat="46.07326" lon="3.07771">
        <ele>396.2</ele>
        <time>2021-08-14T07:51:31Z</time>
      </trkpt>
      <trkpt lat="46.07325" lon="3.07772">
        <ele>396.2</ele>
        <time>2021-08-14T07:51:32Z</time>
      </trkpt>
      <trkpt lat="46.07316" lon="3.07779">
        <ele>396.68</ele>
        <time>2021-08-14T07:51:38Z</time>
      </trkpt>
      <trkpt lat="46.07315" lon="3.07781">
        <ele>396.68</ele>
        <time>2021-08-14T07:51:39Z</time>
      </trkpt>
      <trkpt lat="46.07314" lon="3.07783">
        <ele>397.16</ele>
        <time>2021-08-14T07:51:40Z</time>
      </trkpt>
      <trkpt lat="46.07306" lon="3.07796">
        <ele>398.12</ele>
        <time>2021-08-14T07:51:47Z</time>
      </trkpt>
      <trkpt lat="46.07305" lon="3.07797">
        <ele>398.12</ele>
        <time>2021-08-14T07:51:48Z</time>
      </trkpt>
      <trkpt lat="46.073" lon="3.07802">
        <ele>398.6</ele>
        <time>2021-08-14T07:51:51Z</time>
      </trkpt>
      <trkpt lat="46.07299" lon="3.07804">
        <ele>398.6</ele>
        <time>2021-08-14T07:51:52Z</time>
      </trkpt>
      <trkpt lat="46.07298" lon="3.07806">
        <ele>398.6</ele>
        <time>2021-08-14T07:51:53Z</time>
      </trkpt>
      <trkpt lat="46.0729" lon="3.07818">
        <ele>399.57</ele>
        <time>2021-08-14T07:52:00Z</time>
      </trkpt>
      <trkpt lat="46.07279" lon="3.07833">
        <ele>400.05</ele>
        <time>2021-08-14T07:52:07Z</time>
      </trkpt>
      <trkpt lat="46.07265" lon="3.07846">
        <ele>401.49</ele>
        <time>2021-08-14T07:52:16Z</time>
      </trkpt>
      <trkpt lat="46.07253" lon="3.07858">
        <ele>401.97</ele>
        <time>2021-08-14T07:52:23Z</time>
      </trkpt>
      <trkpt lat="46.07247" lon="3.07862">
        <ele>402.45</ele>
        <time>2021-08-14T07:52:26Z</time>
      </trkpt>
      <trkpt lat="46.07245" lon="3.07863">
        <ele>402.45</ele>
        <time>2021-08-14T07:52:27Z</time>
      </trkpt>
      <trkpt lat="46.07243" lon="3.07864">
        <ele>402.45</ele>
        <time>2021-08-14T07:52:28Z</time>
      </trkpt>
      <trkpt lat="46.07242" lon="3.07866">
        <ele>402.45</ele>
        <time>2021-08-14T07:52:29Z</time>
      </trkpt>
      <trkpt lat="46.0724" lon="3.07868">
        <ele>402.93</ele>
        <time>2021-08-14T07:52:30Z</time>
      </trkpt>
      <trkpt lat="46.07239" lon="3.07869">
        <ele>402.93</ele>
        <time>2021-08-14T07:52:31Z</time>
      </trkpt>
      <trkpt lat="46.07238" lon="3.07871">
        <ele>402.93</ele>
        <time>2021-08-14T07:52:32Z</time>
      </trkpt>
      <trkpt lat="46.0723" lon="3.07878">
        <ele>403.89</ele>
        <time>2021-08-14T07:52:38Z</time>
      </trkpt>
      <trkpt lat="46.07224" lon="3.07884">
        <ele>404.37</ele>
        <time>2021-08-14T07:52:42Z</time>
      </trkpt>
      <trkpt lat="46.07223" lon="3.07886">
        <ele>404.85</ele>
        <time>2021-08-14T07:52:43Z</time>
      </trkpt>
      <trkpt lat="46.0722" lon="3.07893">
        <ele>404.85</ele>
        <time>2021-08-14T07:52:46Z</time>
      </trkpt>
      <trkpt lat="46.07217" lon="3.079">
        <ele>405.81</ele>
        <time>2021-08-14T07:52:52Z</time>
      </trkpt>
      <trkpt lat="46.0721" lon="3.0791">
        <ele>407.26</ele>
        <time>2021-08-14T07:52:59Z</time>
      </trkpt>
      <trkpt lat="46.07202" lon="3.07919">
        <ele>408.22</ele>
        <time>2021-08-14T07:53:07Z</time>
      </trkpt>
      <trkpt lat="46.07201" lon="3.0792">
        <ele>408.22</ele>
        <time>2021-08-14T07:53:08Z</time>
      </trkpt>
      <trkpt lat="46.07196" lon="3.07929">
        <ele>408.7</ele>
        <time>2021-08-14T07:53:13Z</time>
      </trkpt>
      <trkpt lat="46.07195" lon="3.0793">
        <ele>409.18</ele>
        <time>2021-08-14T07:53:14Z</time>
      </trkpt>
      <trkpt lat="46.07194" lon="3.07932">
        <ele>409.18</ele>
        <time>2021-08-14T07:53:15Z</time>
      </trkpt>
      <trkpt lat="46.07193" lon="3.07936">
        <ele>409.18</ele>
        <time>2021-08-14T07:53:17Z</time>
      </trkpt>
      <trkpt lat="46.07191" lon="3.07942">
        <ele>409.66</ele>
        <time>2021-08-14T07:53:21Z</time>
      </trkpt>
      <trkpt lat="46.07189" lon="3.07944">
        <ele>409.66</ele>
        <time>2021-08-14T07:53:22Z</time>
      </trkpt>
      <trkpt lat="46.07188" lon="3.07946">
        <ele>409.66</ele>
        <time>2021-08-14T07:53:23Z</time>
      </trkpt>
      <trkpt lat="46.07187" lon="3.07948">
        <ele>410.14</ele>
        <time>2021-08-14T07:53:24Z</time>
      </trkpt>
      <trkpt lat="46.07186" lon="3.0795">
        <ele>410.14</ele>
        <time>2021-08-14T07:53:25Z</time>
      </trkpt>
      <trkpt lat="46.07185" lon="3.07952">
        <ele>410.14</ele>
        <time>2021-08-14T07:53:26Z</time>
      </trkpt>
      <trkpt lat="46.07184" lon="3.07955">
        <ele>410.14</ele>
        <time>2021-08-14T07:53:27Z</time>
      </trkpt>
      <trkpt lat="46.07184" lon="3.07957">
        <ele>410.14</ele>
        <time>2021-08-14T07:53:28Z</time>
      </trkpt>
      <trkpt lat="46.07183" lon="3.0796">
        <ele>410.62</ele>
        <time>2021-08-14T07:53:29Z</time>
      </trkpt>
      <trkpt lat="46.07183" lon="3.07962">
        <ele>410.62</ele>
        <time>2021-08-14T07:53:30Z</time>
      </trkpt>
      <trkpt lat="46.07182" lon="3.07965">
        <ele>410.62</ele>
        <time>2021-08-14T07:53:31Z</time>
      </trkpt>
      <trkpt lat="46.07182" lon="3.07967">
        <ele>410.62</ele>
        <time>2021-08-14T07:53:32Z</time>
      </trkpt>
      <trkpt lat="46.07181" lon="3.0797">
        <ele>411.1</ele>
        <time>2021-08-14T07:53:33Z</time>
      </trkpt>
      <trkpt lat="46.07181" lon="3.07972">
        <ele>411.1</ele>
        <time>2021-08-14T07:53:34Z</time>
      </trkpt>
      <trkpt lat="46.07175" lon="3.0799">
        <ele>412.06</ele>
        <time>2021-08-14T07:53:42Z</time>
      </trkpt>
      <trkpt lat="46.07174" lon="3.07991">
        <ele>412.06</ele>
        <time>2021-08-14T07:53:43Z</time>
      </trkpt>
      <trkpt lat="46.07166" lon="3.08011">
        <ele>413.5</ele>
        <time>2021-08-14T07:53:53Z</time>
      </trkpt>
      <trkpt lat="46.07162" lon="3.08025">
        <ele>413.98</ele>
        <time>2021-08-14T07:53:59Z</time>
      </trkpt>
      <trkpt lat="46.07154" lon="3.08043">
        <ele>414.95</ele>
        <time>2021-08-14T07:54:07Z</time>
      </trkpt>
      <trkpt lat="46.07142" lon="3.08058">
        <ele>414.95</ele>
        <time>2021-08-14T07:54:15Z</time>
      </trkpt>
      <trkpt lat="46.07129" lon="3.08072">
        <ele>415.91</ele>
        <time>2021-08-14T07:54:23Z</time>
      </trkpt>
      <trkpt lat="46.07121" lon="3.08081">
        <ele>417.83</ele>
        <time>2021-08-14T07:54:30Z</time>
      </trkpt>
      <trkpt lat="46.07112" lon="3.0809">
        <ele>418.79</ele>
        <time>2021-08-14T07:54:38Z</time>
      </trkpt>
      <trkpt lat="46.07102" lon="3.08097">
        <ele>419.75</ele>
        <time>2021-08-14T07:54:46Z</time>
      </trkpt>
      <trkpt lat="46.07091" lon="3.08103">
        <ele>420.71</ele>
        <time>2021-08-14T07:54:54Z</time>
      </trkpt>
      <trkpt lat="46.07084" lon="3.08111">
        <ele>421.68</ele>
        <time>2021-08-14T07:55:01Z</time>
      </trkpt>
      <trkpt lat="46.07074" lon="3.08117">
        <ele>422.16</ele>
        <time>2021-08-14T07:55:08Z</time>
      </trkpt>
      <trkpt lat="46.07062" lon="3.08124">
        <ele>422.64</ele>
        <time>2021-08-14T07:55:15Z</time>
      </trkpt>
      <trkpt lat="46.07049" lon="3.08132">
        <ele>423.12</ele>
        <time>2021-08-14T07:55:23Z</time>
      </trkpt>
      <trkpt lat="46.07048" lon="3.08132">
        <ele>423.12</ele>
        <time>2021-08-14T07:55:24Z</time>
      </trkpt>
      <trkpt lat="46.07046" lon="3.08133">
        <ele>423.6</ele>
        <time>2021-08-14T07:55:25Z</time>
      </trkpt>
      <trkpt lat="46.07045" lon="3.08133">
        <ele>423.6</ele>
        <time>2021-08-14T07:55:26Z</time>
      </trkpt>
      <trkpt lat="46.07043" lon="3.08134">
        <ele>423.6</ele>
        <time>2021-08-14T07:55:27Z</time>
      </trkpt>
      <trkpt lat="46.07042" lon="3.08134">
        <ele>423.6</ele>
        <time>2021-08-14T07:55:28Z</time>
      </trkpt>
      <trkpt lat="46.07036" lon="3.08137">
        <ele>424.08</ele>
        <time>2021-08-14T07:55:33Z</time>
      </trkpt>
      <trkpt lat="46.07023" lon="3.08138">
        <ele>424.56</ele>
        <time>2021-08-14T07:55:41Z</time>
      </trkpt>
      <trkpt lat="46.07013" lon="3.08142">
        <ele>426</ele>
        <time>2021-08-14T07:55:49Z</time>
      </trkpt>
      <trkpt lat="46.07012" lon="3.08144">
        <ele>426.48</ele>
        <time>2021-08-14T07:55:59Z</time>
      </trkpt>
      <trkpt lat="46.07007" lon="3.08146">
        <ele>426.96</ele>
        <time>2021-08-14T07:56:08Z</time>
      </trkpt>
      <trkpt lat="46.06999" lon="3.08147">
        <ele>428.89</ele>
        <time>2021-08-14T07:56:16Z</time>
      </trkpt>
      <trkpt lat="46.06992" lon="3.08146">
        <ele>429.85</ele>
        <time>2021-08-14T07:56:24Z</time>
      </trkpt>
      <trkpt lat="46.06988" lon="3.08147">
        <ele>430.81</ele>
        <time>2021-08-14T07:56:31Z</time>
      </trkpt>
      <trkpt lat="46.06982" lon="3.0815">
        <ele>431.77</ele>
        <time>2021-08-14T07:56:39Z</time>
      </trkpt>
      <trkpt lat="46.06976" lon="3.0815">
        <ele>432.73</ele>
        <time>2021-08-14T07:56:47Z</time>
      </trkpt>
      <trkpt lat="46.06971" lon="3.08149">
        <ele>433.69</ele>
        <time>2021-08-14T07:56:55Z</time>
      </trkpt>
      <trkpt lat="46.06966" lon="3.08147">
        <ele>434.17</ele>
        <time>2021-08-14T07:57:02Z</time>
      </trkpt>
      <trkpt lat="46.06953" lon="3.08145">
        <ele>435.13</ele>
        <time>2021-08-14T07:57:10Z</time>
      </trkpt>
      <trkpt lat="46.06941" lon="3.08144">
        <ele>435.13</ele>
        <time>2021-08-14T07:57:18Z</time>
      </trkpt>
      <trkpt lat="46.06939" lon="3.08145">
        <ele>435.13</ele>
        <time>2021-08-14T07:57:29Z</time>
      </trkpt>
      <trkpt lat="46.06931" lon="3.08146">
        <ele>435.13</ele>
        <time>2021-08-14T07:57:35Z</time>
      </trkpt>
      <trkpt lat="46.0692" lon="3.0815">
        <ele>436.1</ele>
        <time>2021-08-14T07:57:41Z</time>
      </trkpt>
      <trkpt lat="46.06916" lon="3.08153">
        <ele>436.58</ele>
        <time>2021-08-14T07:57:45Z</time>
      </trkpt>
      <trkpt lat="46.06915" lon="3.08155">
        <ele>436.58</ele>
        <time>2021-08-14T07:57:46Z</time>
      </trkpt>
      <trkpt lat="46.06913" lon="3.08155">
        <ele>436.58</ele>
        <time>2021-08-14T07:57:47Z</time>
      </trkpt>
      <trkpt lat="46.06911" lon="3.08157">
        <ele>436.58</ele>
        <time>2021-08-14T07:57:48Z</time>
      </trkpt>
      <trkpt lat="46.06909" lon="3.08158">
        <ele>437.06</ele>
        <time>2021-08-14T07:57:49Z</time>
      </trkpt>
      <trkpt lat="46.06907" lon="3.08159">
        <ele>437.06</ele>
        <time>2021-08-14T07:57:50Z</time>
      </trkpt>
      <trkpt lat="46.06895" lon="3.08165">
        <ele>438.02</ele>
        <time>2021-08-14T07:57:57Z</time>
      </trkpt>
      <trkpt lat="46.06881" lon="3.0817">
        <ele>438.98</ele>
        <time>2021-08-14T07:58:04Z</time>
      </trkpt>
      <trkpt lat="46.06866" lon="3.08173">
        <ele>439.46</ele>
        <time>2021-08-14T07:58:10Z</time>
      </trkpt>
      <trkpt lat="46.06863" lon="3.08172">
        <ele>439.46</ele>
        <time>2021-08-14T07:58:11Z</time>
      </trkpt>
      <trkpt lat="46.06861" lon="3.0817">
        <ele>439.46</ele>
        <time>2021-08-14T07:58:12Z</time>
      </trkpt>
      <trkpt lat="46.06859" lon="3.08168">
        <ele>439.46</ele>
        <time>2021-08-14T07:58:13Z</time>
      </trkpt>
      <trkpt lat="46.06858" lon="3.08165">
        <ele>439.46</ele>
        <time>2021-08-14T07:58:14Z</time>
      </trkpt>
      <trkpt lat="46.06857" lon="3.08163">
        <ele>439.46</ele>
        <time>2021-08-14T07:58:15Z</time>
      </trkpt>
      <trkpt lat="46.06853" lon="3.08151">
        <ele>440.9</ele>
        <time>2021-08-14T07:58:22Z</time>
      </trkpt>
      <trkpt lat="46.06855" lon="3.08146">
        <ele>441.86</ele>
        <time>2021-08-14T07:58:29Z</time>
      </trkpt>
      <trkpt lat="46.06856" lon="3.08139">
        <ele>442.82</ele>
        <time>2021-08-14T07:58:37Z</time>
      </trkpt>
      <trkpt lat="46.0686" lon="3.08126">
        <ele>444.27</ele>
        <time>2021-08-14T07:58:47Z</time>
      </trkpt>
      <trkpt lat="46.06861" lon="3.0812">
        <ele>444.75</ele>
        <time>2021-08-14T07:58:51Z</time>
      </trkpt>
      <trkpt lat="46.06864" lon="3.08115">
        <ele>445.71</ele>
        <time>2021-08-14T07:58:59Z</time>
      </trkpt>
      <trkpt lat="46.06868" lon="3.08106">
        <ele>447.15</ele>
        <time>2021-08-14T07:59:08Z</time>
      </trkpt>
      <trkpt lat="46.06874" lon="3.08093">
        <ele>449.07</ele>
        <time>2021-08-14T07:59:20Z</time>
      </trkpt>
      <trkpt lat="46.06878" lon="3.08083">
        <ele>450.52</ele>
        <time>2021-08-14T07:59:29Z</time>
      </trkpt>
      <trkpt lat="46.06882" lon="3.08072">
        <ele>451.96</ele>
        <time>2021-08-14T07:59:38Z</time>
      </trkpt>
      <trkpt lat="46.06884" lon="3.08059">
        <ele>453.88</ele>
        <time>2021-08-14T07:59:47Z</time>
      </trkpt>
      <trkpt lat="46.06885" lon="3.08047">
        <ele>454.84</ele>
        <time>2021-08-14T07:59:55Z</time>
      </trkpt>
      <trkpt lat="46.06884" lon="3.08046">
        <ele>454.84</ele>
        <time>2021-08-14T07:59:56Z</time>
      </trkpt>
      <trkpt lat="46.06885" lon="3.08044">
        <ele>454.36</ele>
        <time>2021-08-14T07:59:57Z</time>
      </trkpt>
      <trkpt lat="46.06886" lon="3.08042">
        <ele>454.36</ele>
        <time>2021-08-14T07:59:58Z</time>
      </trkpt>
      <trkpt lat="46.06887" lon="3.08039">
        <ele>454.36</ele>
        <time>2021-08-14T07:59:59Z</time>
      </trkpt>
      <trkpt lat="46.06888" lon="3.08037">
        <ele>454.84</ele>
        <time>2021-08-14T08:00:00Z</time>
      </trkpt>
      <trkpt lat="46.06889" lon="3.08034">
        <ele>454.84</ele>
        <time>2021-08-14T08:00:01Z</time>
      </trkpt>
      <trkpt lat="46.06889" lon="3.08031">
        <ele>454.84</ele>
        <time>2021-08-14T08:00:02Z</time>
      </trkpt>
      <trkpt lat="46.06889" lon="3.08029">
        <ele>455.8</ele>
        <time>2021-08-14T08:00:03Z</time>
      </trkpt>
      <trkpt lat="46.0689" lon="3.08026">
        <ele>455.8</ele>
        <time>2021-08-14T08:00:04Z</time>
      </trkpt>
      <trkpt lat="46.0689" lon="3.08023">
        <ele>455.8</ele>
        <time>2021-08-14T08:00:05Z</time>
      </trkpt>
      <trkpt lat="46.06889" lon="3.0802">
        <ele>456.28</ele>
        <time>2021-08-14T08:00:06Z</time>
      </trkpt>
      <trkpt lat="46.06889" lon="3.08017">
        <ele>456.28</ele>
        <time>2021-08-14T08:00:07Z</time>
      </trkpt>
      <trkpt lat="46.06887" lon="3.0801">
        <ele>456.76</ele>
        <time>2021-08-14T08:00:13Z</time>
      </trkpt>
      <trkpt lat="46.0689" lon="3.08004">
        <ele>456.76</ele>
        <time>2021-08-14T08:00:27Z</time>
      </trkpt>
      <trkpt lat="46.0689" lon="3.08">
        <ele>456.76</ele>
        <time>2021-08-14T08:00:37Z</time>
      </trkpt>
      <trkpt lat="46.06889" lon="3.08">
        <ele>456.76</ele>
        <time>2021-08-14T08:00:45Z</time>
      </trkpt>
      <trkpt lat="46.06889" lon="3.08001">
        <ele>456.76</ele>
        <time>2021-08-14T08:00:51Z</time>
      </trkpt>
      <trkpt lat="46.06888" lon="3.08">
        <ele>456.76</ele>
        <time>2021-08-14T08:01:03Z</time>
      </trkpt>
      <trkpt lat="46.06886" lon="3.08">
        <ele>456.76</ele>
        <time>2021-08-14T08:01:20Z</time>
      </trkpt>
      <trkpt lat="46.06888" lon="3.07999">
        <ele>456.76</ele>
        <time>2021-08-14T08:01:34Z</time>
      </trkpt>
      <trkpt lat="46.06888" lon="3.07999">
        <ele>456.76</ele>
        <time>2021-08-14T08:01:56Z</time>
      </trkpt>
      <trkpt lat="46.06888" lon="3.07998">
        <ele>456.76</ele>
        <time>2021-08-14T08:02:14Z</time>
      </trkpt>
      <trkpt lat="46.06887" lon="3.07996">
        <ele>456.76</ele>
        <time>2021-08-14T08:02:41Z</time>
      </trkpt>
      <trkpt lat="46.06886" lon="3.07999">
        <ele>456.76</ele>
        <time>2021-08-14T08:03:04Z</time>
      </trkpt>
      <trkpt lat="46.06887" lon="3.07997">
        <ele>456.76</ele>
        <time>2021-08-14T08:03:25Z</time>
      </trkpt>
      <trkpt lat="46.06887" lon="3.07995">
        <ele>456.76</ele>
        <time>2021-08-14T08:03:49Z</time>
      </trkpt>
      <trkpt lat="46.06885" lon="3.07995">
        <ele>456.76</ele>
        <time>2021-08-14T08:04:09Z</time>
      </trkpt>
      <trkpt lat="46.06888" lon="3.07995">
        <ele>456.76</ele>
        <time>2021-08-14T08:04:44Z</time>
      </trkpt>
      <trkpt lat="46.06885" lon="3.07993">
        <ele>456.76</ele>
        <time>2021-08-14T08:05:07Z</time>
      </trkpt>
      <trkpt lat="46.06886" lon="3.07993">
        <ele>456.76</ele>
        <time>2021-08-14T08:05:29Z</time>
      </trkpt>
      <trkpt lat="46.0689" lon="3.07998">
        <ele>456.76</ele>
        <time>2021-08-14T08:05:55Z</time>
      </trkpt>
      <trkpt lat="46.0689" lon="3.07999">
        <ele>456.76</ele>
        <time>2021-08-14T08:06:12Z</time>
      </trkpt>
      <trkpt lat="46.0689" lon="3.07999">
        <ele>456.76</ele>
        <time>2021-08-14T08:06:26Z</time>
      </trkpt>
      <trkpt lat="46.0689" lon="3.07998">
        <ele>456.76</ele>
        <time>2021-08-14T08:06:44Z</time>
      </trkpt>
      <trkpt lat="46.06888" lon="3.07993">
        <ele>456.76</ele>
        <time>2021-08-14T08:07:10Z</time>
      </trkpt>
      <trkpt lat="46.06885" lon="3.07992">
        <ele>456.76</ele>
        <time>2021-08-14T08:07:29Z</time>
      </trkpt>
      <trkpt lat="46.06884" lon="3.07991">
        <ele>456.76</ele>
        <time>2021-08-14T08:07:38Z</time>
      </trkpt>
      <trkpt lat="46.06882" lon="3.07989">
        <ele>456.76</ele>
        <time>2021-08-14T08:07:39Z</time>
      </trkpt>
      <trkpt lat="46.06883" lon="3.07992">
        <ele>456.76</ele>
        <time>2021-08-14T08:07:44Z</time>
      </trkpt>
      <trkpt lat="46.06884" lon="3.07995">
        <ele>456.76</ele>
        <time>2021-08-14T08:08:04Z</time>
      </trkpt>
      <trkpt lat="46.06884" lon="3.07996">
        <ele>456.76</ele>
        <time>2021-08-14T08:08:14Z</time>
      </trkpt>
      <trkpt lat="46.06886" lon="3.07999">
        <ele>457.24</ele>
        <time>2021-08-14T08:08:25Z</time>
      </trkpt>
      <trkpt lat="46.06887" lon="3.07996">
        <ele>457.24</ele>
        <time>2021-08-14T08:08:32Z</time>
      </trkpt>
      <trkpt lat="46.06888" lon="3.07999">
        <ele>457.24</ele>
        <time>2021-08-14T08:08:40Z</time>
      </trkpt>
      <trkpt lat="46.06888" lon="3.08001">
        <ele>457.24</ele>
        <time>2021-08-14T08:08:47Z</time>
      </trkpt>
      <trkpt lat="46.06888" lon="3.08003">
        <ele>457.24</ele>
        <time>2021-08-14T08:08:58Z</time>
      </trkpt>
      <trkpt lat="46.06889" lon="3.08">
        <ele>457.72</ele>
        <time>2021-08-14T08:09:12Z</time>
      </trkpt>
      <trkpt lat="46.06889" lon="3.08001">
        <ele>457.72</ele>
        <time>2021-08-14T08:09:32Z</time>
      </trkpt>
      <trkpt lat="46.06889" lon="3.08002">
        <ele>457.72</ele>
        <time>2021-08-14T08:09:43Z</time>
      </trkpt>
      <trkpt lat="46.06888" lon="3.08001">
        <ele>457.72</ele>
        <time>2021-08-14T08:09:50Z</time>
      </trkpt>
      <trkpt lat="46.06888" lon="3.08">
        <ele>457.72</ele>
        <time>2021-08-14T08:10:04Z</time>
      </trkpt>
      <trkpt lat="46.06888" lon="3.08">
        <ele>457.72</ele>
        <time>2021-08-14T08:10:14Z</time>
      </trkpt>
      <trkpt lat="46.06888" lon="3.08001">
        <ele>457.24</ele>
        <time>2021-08-14T08:10:23Z</time>
      </trkpt>
      <trkpt lat="46.06888" lon="3.08">
        <ele>457.24</ele>
        <time>2021-08-14T08:10:32Z</time>
      </trkpt>
      <trkpt lat="46.06888" lon="3.07999">
        <ele>457.24</ele>
        <time>2021-08-14T08:10:48Z</time>
      </trkpt>
      <trkpt lat="46.06889" lon="3.07998">
        <ele>457.72</ele>
        <time>2021-08-14T08:11:03Z</time>
      </trkpt>
      <trkpt lat="46.06889" lon="3.08">
        <ele>457.72</ele>
        <time>2021-08-14T08:11:14Z</time>
      </trkpt>
      <trkpt lat="46.06887" lon="3.08">
        <ele>457.72</ele>
        <time>2021-08-14T08:11:29Z</time>
      </trkpt>
      <trkpt lat="46.06887" lon="3.08001">
        <ele>457.72</ele>
        <time>2021-08-14T08:11:45Z</time>
      </trkpt>
      <trkpt lat="46.06891" lon="3.08004">
        <ele>457.72</ele>
        <time>2021-08-14T08:11:58Z</time>
      </trkpt>
      <trkpt lat="46.06892" lon="3.08004">
        <ele>457.72</ele>
        <time>2021-08-14T08:12:03Z</time>
      </trkpt>
      <trkpt lat="46.0689" lon="3.08002">
        <ele>457.72</ele>
        <time>2021-08-14T08:12:08Z</time>
      </trkpt>
      <trkpt lat="46.06888" lon="3.08">
        <ele>457.72</ele>
        <time>2021-08-14T08:12:28Z</time>
      </trkpt>
      <trkpt lat="46.06888" lon="3.08002">
        <ele>457.72</ele>
        <time>2021-08-14T08:12:42Z</time>
      </trkpt>
      <trkpt lat="46.06888" lon="3.08001">
        <ele>457.72</ele>
        <time>2021-08-14T08:12:51Z</time>
      </trkpt>
      <trkpt lat="46.06889" lon="3.08002">
        <ele>457.72</ele>
        <time>2021-08-14T08:13:10Z</time>
      </trkpt>
      <trkpt lat="46.06887" lon="3.07998">
        <ele>457.72</ele>
        <time>2021-08-14T08:13:15Z</time>
      </trkpt>
      <trkpt lat="46.06886" lon="3.07996">
        <ele>457.72</ele>
        <time>2021-08-14T08:13:16Z</time>
      </trkpt>
      <trkpt lat="46.06885" lon="3.07994">
        <ele>457.72</ele>
        <time>2021-08-14T08:13:17Z</time>
      </trkpt>
      <trkpt lat="46.0688" lon="3.07968">
        <ele>455.8</ele>
        <time>2021-08-14T08:13:24Z</time>
      </trkpt>
      <trkpt lat="46.06872" lon="3.07936">
        <ele>452.44</ele>
        <time>2021-08-14T08:13:30Z</time>
      </trkpt>
      <trkpt lat="46.06871" lon="3.07932">
        <ele>452.44</ele>
        <time>2021-08-14T08:13:31Z</time>
      </trkpt>
      <trkpt lat="46.06869" lon="3.0792">
        <ele>451</ele>
        <time>2021-08-14T08:13:33Z</time>
      </trkpt>
      <trkpt lat="46.06867" lon="3.07914">
        <ele>451</ele>
        <time>2021-08-14T08:13:34Z</time>
      </trkpt>
      <trkpt lat="46.06857" lon="3.07878">
        <ele>447.63</ele>
        <time>2021-08-14T08:13:39Z</time>
      </trkpt>
      <trkpt lat="46.06843" lon="3.07843">
        <ele>444.75</ele>
        <time>2021-08-14T08:13:43Z</time>
      </trkpt>
      <trkpt lat="46.06829" lon="3.07807">
        <ele>447.15</ele>
        <time>2021-08-14T08:13:48Z</time>
      </trkpt>
      <trkpt lat="46.06826" lon="3.07797">
        <ele>448.11</ele>
        <time>2021-08-14T08:13:53Z</time>
      </trkpt>
      <trkpt lat="46.06825" lon="3.07795">
        <ele>448.59</ele>
        <time>2021-08-14T08:13:54Z</time>
      </trkpt>
      <trkpt lat="46.06824" lon="3.07792">
        <ele>448.59</ele>
        <time>2021-08-14T08:13:55Z</time>
      </trkpt>
      <trkpt lat="46.06823" lon="3.07789">
        <ele>448.59</ele>
        <time>2021-08-14T08:13:56Z</time>
      </trkpt>
      <trkpt lat="46.06813" lon="3.07767">
        <ele>447.15</ele>
        <time>2021-08-14T08:14:01Z</time>
      </trkpt>
      <trkpt lat="46.06809" lon="3.07763">
        <ele>446.67</ele>
        <time>2021-08-14T08:14:02Z</time>
      </trkpt>
      <trkpt lat="46.06804" lon="3.0776">
        <ele>445.71</ele>
        <time>2021-08-14T08:14:03Z</time>
      </trkpt>
      <trkpt lat="46.06799" lon="3.0776">
        <ele>445.71</ele>
        <time>2021-08-14T08:14:04Z</time>
      </trkpt>
      <trkpt lat="46.06794" lon="3.0776">
        <ele>445.71</ele>
        <time>2021-08-14T08:14:05Z</time>
      </trkpt>
      <trkpt lat="46.0679" lon="3.07761">
        <ele>445.71</ele>
        <time>2021-08-14T08:14:06Z</time>
      </trkpt>
      <trkpt lat="46.06784" lon="3.07763">
        <ele>447.15</ele>
        <time>2021-08-14T08:14:09Z</time>
      </trkpt>
      <trkpt lat="46.06777" lon="3.07763">
        <ele>448.11</ele>
        <time>2021-08-14T08:14:14Z</time>
      </trkpt>
      <trkpt lat="46.06776" lon="3.07762">
        <ele>448.11</ele>
        <time>2021-08-14T08:14:15Z</time>
      </trkpt>
      <trkpt lat="46.06774" lon="3.07761">
        <ele>448.59</ele>
        <time>2021-08-14T08:14:16Z</time>
      </trkpt>
      <trkpt lat="46.06773" lon="3.0776">
        <ele>448.59</ele>
        <time>2021-08-14T08:14:17Z</time>
      </trkpt>
      <trkpt lat="46.06771" lon="3.07759">
        <ele>448.59</ele>
        <time>2021-08-14T08:14:18Z</time>
      </trkpt>
      <trkpt lat="46.0677" lon="3.07758">
        <ele>449.07</ele>
        <time>2021-08-14T08:14:19Z</time>
      </trkpt>
      <trkpt lat="46.06768" lon="3.07757">
        <ele>449.55</ele>
        <time>2021-08-14T08:14:20Z</time>
      </trkpt>
      <trkpt lat="46.06762" lon="3.07753">
        <ele>450.03</ele>
        <time>2021-08-14T08:14:25Z</time>
      </trkpt>
      <trkpt lat="46.06761" lon="3.07752">
        <ele>450.03</ele>
        <time>2021-08-14T08:14:26Z</time>
      </trkpt>
      <trkpt lat="46.06761" lon="3.07751">
        <ele>449.55</ele>
        <time>2021-08-14T08:14:27Z</time>
      </trkpt>
      <trkpt lat="46.0676" lon="3.0775">
        <ele>449.55</ele>
        <time>2021-08-14T08:14:28Z</time>
      </trkpt>
      <trkpt lat="46.06759" lon="3.07749">
        <ele>450.52</ele>
        <time>2021-08-14T08:14:29Z</time>
      </trkpt>
      <trkpt lat="46.06758" lon="3.07748">
        <ele>450.52</ele>
        <time>2021-08-14T08:14:30Z</time>
      </trkpt>
      <trkpt lat="46.06757" lon="3.07748">
        <ele>450.52</ele>
        <time>2021-08-14T08:14:31Z</time>
      </trkpt>
      <trkpt lat="46.06756" lon="3.07747">
        <ele>450.52</ele>
        <time>2021-08-14T08:14:32Z</time>
      </trkpt>
      <trkpt lat="46.06747" lon="3.07739">
        <ele>451</ele>
        <time>2021-08-14T08:14:40Z</time>
      </trkpt>
      <trkpt lat="46.06745" lon="3.07736">
        <ele>451.48</ele>
        <time>2021-08-14T08:14:43Z</time>
      </trkpt>
      <trkpt lat="46.06742" lon="3.07733">
        <ele>451.96</ele>
        <time>2021-08-14T08:14:46Z</time>
      </trkpt>
      <trkpt lat="46.06741" lon="3.07732">
        <ele>451.96</ele>
        <time>2021-08-14T08:14:47Z</time>
      </trkpt>
      <trkpt lat="46.06737" lon="3.0773">
        <ele>452.92</ele>
        <time>2021-08-14T08:14:51Z</time>
      </trkpt>
      <trkpt lat="46.06735" lon="3.07726">
        <ele>453.4</ele>
        <time>2021-08-14T08:14:57Z</time>
      </trkpt>
      <trkpt lat="46.06734" lon="3.07727">
        <ele>453.4</ele>
        <time>2021-08-14T08:15:03Z</time>
      </trkpt>
      <trkpt lat="46.06733" lon="3.07727">
        <ele>453.4</ele>
        <time>2021-08-14T08:15:07Z</time>
      </trkpt>
      <trkpt lat="46.06732" lon="3.07727">
        <ele>453.4</ele>
        <time>2021-08-14T08:15:08Z</time>
      </trkpt>
      <trkpt lat="46.06731" lon="3.07726">
        <ele>453.4</ele>
        <time>2021-08-14T08:15:09Z</time>
      </trkpt>
      <trkpt lat="46.0673" lon="3.07726">
        <ele>453.88</ele>
        <time>2021-08-14T08:15:10Z</time>
      </trkpt>
      <trkpt lat="46.06729" lon="3.07725">
        <ele>453.88</ele>
        <time>2021-08-14T08:15:11Z</time>
      </trkpt>
      <trkpt lat="46.06727" lon="3.07724">
        <ele>454.36</ele>
        <time>2021-08-14T08:15:13Z</time>
      </trkpt>
      <trkpt lat="46.06724" lon="3.07722">
        <ele>454.84</ele>
        <time>2021-08-14T08:15:16Z</time>
      </trkpt>
      <trkpt lat="46.06723" lon="3.07721">
        <ele>454.84</ele>
        <time>2021-08-14T08:15:17Z</time>
      </trkpt>
      <trkpt lat="46.06721" lon="3.0772">
        <ele>455.32</ele>
        <time>2021-08-14T08:15:19Z</time>
      </trkpt>
      <trkpt lat="46.06716" lon="3.07717">
        <ele>456.28</ele>
        <time>2021-08-14T08:15:24Z</time>
      </trkpt>
      <trkpt lat="46.06716" lon="3.07716">
        <ele>456.28</ele>
        <time>2021-08-14T08:15:25Z</time>
      </trkpt>
      <trkpt lat="46.06715" lon="3.07715">
        <ele>456.28</ele>
        <time>2021-08-14T08:15:26Z</time>
      </trkpt>
      <trkpt lat="46.06714" lon="3.07714">
        <ele>456.28</ele>
        <time>2021-08-14T08:15:27Z</time>
      </trkpt>
      <trkpt lat="46.06712" lon="3.07713">
        <ele>456.28</ele>
        <time>2021-08-14T08:15:28Z</time>
      </trkpt>
      <trkpt lat="46.06712" lon="3.07711">
        <ele>456.76</ele>
        <time>2021-08-14T08:15:29Z</time>
      </trkpt>
      <trkpt lat="46.06711" lon="3.0771">
        <ele>456.76</ele>
        <time>2021-08-14T08:15:30Z</time>
      </trkpt>
      <trkpt lat="46.0671" lon="3.07709">
        <ele>456.76</ele>
        <time>2021-08-14T08:15:31Z</time>
      </trkpt>
      <trkpt lat="46.06708" lon="3.07705">
        <ele>456.76</ele>
        <time>2021-08-14T08:15:33Z</time>
      </trkpt>
      <trkpt lat="46.06706" lon="3.07694">
        <ele>456.76</ele>
        <time>2021-08-14T08:15:38Z</time>
      </trkpt>
      <trkpt lat="46.06707" lon="3.07692">
        <ele>456.76</ele>
        <time>2021-08-14T08:15:39Z</time>
      </trkpt>
      <trkpt lat="46.06706" lon="3.07689">
        <ele>457.24</ele>
        <time>2021-08-14T08:15:41Z</time>
      </trkpt>
      <trkpt lat="46.06706" lon="3.07687">
        <ele>457.24</ele>
        <time>2021-08-14T08:15:42Z</time>
      </trkpt>
      <trkpt lat="46.06706" lon="3.07685">
        <ele>457.24</ele>
        <time>2021-08-14T08:15:43Z</time>
      </trkpt>
      <trkpt lat="46.06704" lon="3.07657">
        <ele>457.24</ele>
        <time>2021-08-14T08:15:51Z</time>
      </trkpt>
      <trkpt lat="46.06707" lon="3.07646">
        <ele>455.32</ele>
        <time>2021-08-14T08:15:53Z</time>
      </trkpt>
      <trkpt lat="46.06712" lon="3.07634">
        <ele>454.36</ele>
        <time>2021-08-14T08:15:55Z</time>
      </trkpt>
      <trkpt lat="46.06717" lon="3.0762">
        <ele>453.4</ele>
        <time>2021-08-14T08:15:57Z</time>
      </trkpt>
      <trkpt lat="46.06719" lon="3.07613">
        <ele>453.4</ele>
        <time>2021-08-14T08:15:58Z</time>
      </trkpt>
      <trkpt lat="46.0672" lon="3.07607">
        <ele>452.44</ele>
        <time>2021-08-14T08:15:59Z</time>
      </trkpt>
      <trkpt lat="46.0672" lon="3.076">
        <ele>452.44</ele>
        <time>2021-08-14T08:16:00Z</time>
      </trkpt>
      <trkpt lat="46.06719" lon="3.07594">
        <ele>452.44</ele>
        <time>2021-08-14T08:16:01Z</time>
      </trkpt>
      <trkpt lat="46.06718" lon="3.07589">
        <ele>452.44</ele>
        <time>2021-08-14T08:16:02Z</time>
      </trkpt>
      <trkpt lat="46.06711" lon="3.0757">
        <ele>452.44</ele>
        <time>2021-08-14T08:16:08Z</time>
      </trkpt>
      <trkpt lat="46.06708" lon="3.07561">
        <ele>453.88</ele>
        <time>2021-08-14T08:16:11Z</time>
      </trkpt>
      <trkpt lat="46.067" lon="3.07543">
        <ele>454.84</ele>
        <time>2021-08-14T08:16:18Z</time>
      </trkpt>
      <trkpt lat="46.06689" lon="3.07523">
        <ele>455.8</ele>
        <time>2021-08-14T08:16:26Z</time>
      </trkpt>
      <trkpt lat="46.06683" lon="3.07511">
        <ele>456.76</ele>
        <time>2021-08-14T08:16:32Z</time>
      </trkpt>
      <trkpt lat="46.06682" lon="3.07508">
        <ele>456.76</ele>
        <time>2021-08-14T08:16:33Z</time>
      </trkpt>
      <trkpt lat="46.06679" lon="3.07502">
        <ele>457.24</ele>
        <time>2021-08-14T08:16:36Z</time>
      </trkpt>
      <trkpt lat="46.06678" lon="3.075">
        <ele>457.72</ele>
        <time>2021-08-14T08:16:37Z</time>
      </trkpt>
      <trkpt lat="46.06678" lon="3.07498">
        <ele>457.72</ele>
        <time>2021-08-14T08:16:38Z</time>
      </trkpt>
      <trkpt lat="46.06677" lon="3.07496">
        <ele>457.72</ele>
        <time>2021-08-14T08:16:39Z</time>
      </trkpt>
      <trkpt lat="46.06675" lon="3.07494">
        <ele>458.21</ele>
        <time>2021-08-14T08:16:40Z</time>
      </trkpt>
      <trkpt lat="46.06668" lon="3.07476">
        <ele>459.17</ele>
        <time>2021-08-14T08:16:48Z</time>
      </trkpt>
      <trkpt lat="46.06659" lon="3.07457">
        <ele>460.61</ele>
        <time>2021-08-14T08:16:57Z</time>
      </trkpt>
      <trkpt lat="46.06656" lon="3.07448">
        <ele>460.61</ele>
        <time>2021-08-14T08:17:01Z</time>
      </trkpt>
      <trkpt lat="46.06654" lon="3.07446">
        <ele>461.09</ele>
        <time>2021-08-14T08:17:02Z</time>
      </trkpt>
      <trkpt lat="46.06645" lon="3.07421">
        <ele>462.05</ele>
        <time>2021-08-14T08:17:12Z</time>
      </trkpt>
      <trkpt lat="46.06638" lon="3.07403">
        <ele>463.01</ele>
        <time>2021-08-14T08:17:20Z</time>
      </trkpt>
      <trkpt lat="46.06633" lon="3.07388">
        <ele>464.93</ele>
        <time>2021-08-14T08:17:28Z</time>
      </trkpt>
      <trkpt lat="46.06627" lon="3.07374">
        <ele>465.9</ele>
        <time>2021-08-14T08:17:35Z</time>
      </trkpt>
      <trkpt lat="46.06618" lon="3.07352">
        <ele>466.86</ele>
        <time>2021-08-14T08:17:45Z</time>
      </trkpt>
      <trkpt lat="46.06611" lon="3.07338">
        <ele>467.82</ele>
        <time>2021-08-14T08:17:52Z</time>
      </trkpt>
      <trkpt lat="46.06602" lon="3.07319">
        <ele>468.78</ele>
        <time>2021-08-14T08:18:01Z</time>
      </trkpt>
      <trkpt lat="46.06592" lon="3.07298">
        <ele>470.7</ele>
        <time>2021-08-14T08:18:11Z</time>
      </trkpt>
      <trkpt lat="46.06585" lon="3.07279">
        <ele>472.14</ele>
        <time>2021-08-14T08:18:20Z</time>
      </trkpt>
      <trkpt lat="46.0658" lon="3.07263">
        <ele>473.11</ele>
        <time>2021-08-14T08:18:27Z</time>
      </trkpt>
      <trkpt lat="46.06574" lon="3.07246">
        <ele>474.55</ele>
        <time>2021-08-14T08:18:34Z</time>
      </trkpt>
      <trkpt lat="46.06562" lon="3.07215">
        <ele>475.51</ele>
        <time>2021-08-14T08:18:46Z</time>
      </trkpt>
      <trkpt lat="46.06558" lon="3.07209">
        <ele>475.99</ele>
        <time>2021-08-14T08:18:49Z</time>
      </trkpt>
      <trkpt lat="46.06556" lon="3.07209">
        <ele>475.99</ele>
        <time>2021-08-14T08:18:50Z</time>
      </trkpt>
      <trkpt lat="46.06555" lon="3.07209">
        <ele>475.99</ele>
        <time>2021-08-14T08:18:51Z</time>
      </trkpt>
      <trkpt lat="46.06553" lon="3.0721">
        <ele>475.99</ele>
        <time>2021-08-14T08:18:52Z</time>
      </trkpt>
      <trkpt lat="46.06551" lon="3.07212">
        <ele>476.47</ele>
        <time>2021-08-14T08:18:53Z</time>
      </trkpt>
      <trkpt lat="46.06544" lon="3.07224">
        <ele>477.43</ele>
        <time>2021-08-14T08:19:01Z</time>
      </trkpt>
      <trkpt lat="46.06542" lon="3.07227">
        <ele>477.91</ele>
        <time>2021-08-14T08:19:04Z</time>
      </trkpt>
      <trkpt lat="46.0654" lon="3.07229">
        <ele>477.91</ele>
        <time>2021-08-14T08:19:05Z</time>
      </trkpt>
      <trkpt lat="46.06539" lon="3.0723">
        <ele>478.39</ele>
        <time>2021-08-14T08:19:06Z</time>
      </trkpt>
      <trkpt lat="46.06528" lon="3.07247">
        <ele>479.35</ele>
        <time>2021-08-14T08:19:17Z</time>
      </trkpt>
      <trkpt lat="46.06516" lon="3.07259">
        <ele>481.28</ele>
        <time>2021-08-14T08:19:27Z</time>
      </trkpt>
      <trkpt lat="46.06507" lon="3.07269">
        <ele>482.24</ele>
        <time>2021-08-14T08:19:35Z</time>
      </trkpt>
      <trkpt lat="46.06498" lon="3.07278">
        <ele>484.16</ele>
        <time>2021-08-14T08:19:43Z</time>
      </trkpt>
      <trkpt lat="46.06497" lon="3.0728">
        <ele>484.64</ele>
        <time>2021-08-14T08:19:46Z</time>
      </trkpt>
      <trkpt lat="46.06498" lon="3.07281">
        <ele>484.16</ele>
        <time>2021-08-14T08:19:47Z</time>
      </trkpt>
      <trkpt lat="46.065" lon="3.0728">
        <ele>484.16</ele>
        <time>2021-08-14T08:19:48Z</time>
      </trkpt>
      <trkpt lat="46.06501" lon="3.07279">
        <ele>484.16</ele>
        <time>2021-08-14T08:19:49Z</time>
      </trkpt>
      <trkpt lat="46.06502" lon="3.07277">
        <ele>484.16</ele>
        <time>2021-08-14T08:19:50Z</time>
      </trkpt>
      <trkpt lat="46.06503" lon="3.07275">
        <ele>484.16</ele>
        <time>2021-08-14T08:19:51Z</time>
      </trkpt>
      <trkpt lat="46.06504" lon="3.07273">
        <ele>484.16</ele>
        <time>2021-08-14T08:19:52Z</time>
      </trkpt>
      <trkpt lat="46.06519" lon="3.07255">
        <ele>480.8</ele>
        <time>2021-08-14T08:19:58Z</time>
      </trkpt>
      <trkpt lat="46.06523" lon="3.07251">
        <ele>480.8</ele>
        <time>2021-08-14T08:19:59Z</time>
      </trkpt>
      <trkpt lat="46.06536" lon="3.07233">
        <ele>478.39</ele>
        <time>2021-08-14T08:20:02Z</time>
      </trkpt>
      <trkpt lat="46.06544" lon="3.07221">
        <ele>477.91</ele>
        <time>2021-08-14T08:20:04Z</time>
      </trkpt>
      <trkpt lat="46.06551" lon="3.0721">
        <ele>476.95</ele>
        <time>2021-08-14T08:20:06Z</time>
      </trkpt>
      <trkpt lat="46.06555" lon="3.07206">
        <ele>475.99</ele>
        <time>2021-08-14T08:20:07Z</time>
      </trkpt>
      <trkpt lat="46.06565" lon="3.07195">
        <ele>475.51</ele>
        <time>2021-08-14T08:20:10Z</time>
      </trkpt>
      <trkpt lat="46.06572" lon="3.07185">
        <ele>473.59</ele>
        <time>2021-08-14T08:20:12Z</time>
      </trkpt>
      <trkpt lat="46.06576" lon="3.0718">
        <ele>473.59</ele>
        <time>2021-08-14T08:20:13Z</time>
      </trkpt>
      <trkpt lat="46.06585" lon="3.0717">
        <ele>471.66</ele>
        <time>2021-08-14T08:20:15Z</time>
      </trkpt>
      <trkpt lat="46.06588" lon="3.07163">
        <ele>471.18</ele>
        <time>2021-08-14T08:20:16Z</time>
      </trkpt>
      <trkpt lat="46.06591" lon="3.07156">
        <ele>470.7</ele>
        <time>2021-08-14T08:20:17Z</time>
      </trkpt>
      <trkpt lat="46.06593" lon="3.07147">
        <ele>470.22</ele>
        <time>2021-08-14T08:20:18Z</time>
      </trkpt>
      <trkpt lat="46.06594" lon="3.07138">
        <ele>469.26</ele>
        <time>2021-08-14T08:20:19Z</time>
      </trkpt>
      <trkpt lat="46.06601" lon="3.07101">
        <ele>466.86</ele>
        <time>2021-08-14T08:20:23Z</time>
      </trkpt>
      <trkpt lat="46.06601" lon="3.07093">
        <ele>466.38</ele>
        <time>2021-08-14T08:20:24Z</time>
      </trkpt>
      <trkpt lat="46.06601" lon="3.07086">
        <ele>465.9</ele>
        <time>2021-08-14T08:20:25Z</time>
      </trkpt>
      <trkpt lat="46.066" lon="3.0708">
        <ele>464.93</ele>
        <time>2021-08-14T08:20:26Z</time>
      </trkpt>
      <trkpt lat="46.06599" lon="3.07074">
        <ele>464.45</ele>
        <time>2021-08-14T08:20:27Z</time>
      </trkpt>
      <trkpt lat="46.06597" lon="3.07067">
        <ele>463.49</ele>
        <time>2021-08-14T08:20:28Z</time>
      </trkpt>
      <trkpt lat="46.06595" lon="3.07061">
        <ele>463.01</ele>
        <time>2021-08-14T08:20:29Z</time>
      </trkpt>
      <trkpt lat="46.06589" lon="3.07049">
        <ele>462.05</ele>
        <time>2021-08-14T08:20:31Z</time>
      </trkpt>
      <trkpt lat="46.06574" lon="3.07014">
        <ele>457.72</ele>
        <time>2021-08-14T08:20:36Z</time>
      </trkpt>
      <trkpt lat="46.06565" lon="3.06987">
        <ele>455.8</ele>
        <time>2021-08-14T08:20:40Z</time>
      </trkpt>
      <trkpt lat="46.06557" lon="3.06959">
        <ele>452.92</ele>
        <time>2021-08-14T08:20:44Z</time>
      </trkpt>
      <trkpt lat="46.06555" lon="3.06952">
        <ele>451.96</ele>
        <time>2021-08-14T08:20:45Z</time>
      </trkpt>
      <trkpt lat="46.06554" lon="3.06945">
        <ele>451</ele>
        <time>2021-08-14T08:20:46Z</time>
      </trkpt>
      <trkpt lat="46.06553" lon="3.06939">
        <ele>450.52</ele>
        <time>2021-08-14T08:20:47Z</time>
      </trkpt>
      <trkpt lat="46.06546" lon="3.06913">
        <ele>446.67</ele>
        <time>2021-08-14T08:20:51Z</time>
      </trkpt>
      <trkpt lat="46.06543" lon="3.06908">
        <ele>446.19</ele>
        <time>2021-08-14T08:20:52Z</time>
      </trkpt>
      <trkpt lat="46.0654" lon="3.06904">
        <ele>445.71</ele>
        <time>2021-08-14T08:20:53Z</time>
      </trkpt>
      <trkpt lat="46.06537" lon="3.069">
        <ele>444.75</ele>
        <time>2021-08-14T08:20:54Z</time>
      </trkpt>
      <trkpt lat="46.06534" lon="3.06895">
        <ele>444.27</ele>
        <time>2021-08-14T08:20:55Z</time>
      </trkpt>
      <trkpt lat="46.06533" lon="3.0689">
        <ele>442.82</ele>
        <time>2021-08-14T08:20:56Z</time>
      </trkpt>
      <trkpt lat="46.06533" lon="3.06885">
        <ele>442.34</ele>
        <time>2021-08-14T08:20:57Z</time>
      </trkpt>
      <trkpt lat="46.06534" lon="3.0688">
        <ele>441.86</ele>
        <time>2021-08-14T08:20:58Z</time>
      </trkpt>
      <trkpt lat="46.06536" lon="3.06876">
        <ele>441.38</ele>
        <time>2021-08-14T08:20:59Z</time>
      </trkpt>
      <trkpt lat="46.06539" lon="3.06874">
        <ele>440.9</ele>
        <time>2021-08-14T08:21:00Z</time>
      </trkpt>
      <trkpt lat="46.06544" lon="3.06863">
        <ele>438.98</ele>
        <time>2021-08-14T08:21:03Z</time>
      </trkpt>
      <trkpt lat="46.06543" lon="3.06859">
        <ele>438.98</ele>
        <time>2021-08-14T08:21:04Z</time>
      </trkpt>
      <trkpt lat="46.06542" lon="3.06856">
        <ele>438.5</ele>
        <time>2021-08-14T08:21:05Z</time>
      </trkpt>
      <trkpt lat="46.06533" lon="3.06836">
        <ele>437.06</ele>
        <time>2021-08-14T08:21:09Z</time>
      </trkpt>
      <trkpt lat="46.06528" lon="3.06826">
        <ele>437.06</ele>
        <time>2021-08-14T08:21:11Z</time>
      </trkpt>
      <trkpt lat="46.06519" lon="3.06806">
        <ele>437.06</ele>
        <time>2021-08-14T08:21:17Z</time>
      </trkpt>
      <trkpt lat="46.06513" lon="3.06791">
        <ele>438.5</ele>
        <time>2021-08-14T08:21:24Z</time>
      </trkpt>
      <trkpt lat="46.06505" lon="3.06779">
        <ele>439.46</ele>
        <time>2021-08-14T08:21:31Z</time>
      </trkpt>
      <trkpt lat="46.06502" lon="3.06773">
        <ele>439.94</ele>
        <time>2021-08-14T08:21:34Z</time>
      </trkpt>
      <trkpt lat="46.06501" lon="3.06771">
        <ele>439.94</ele>
        <time>2021-08-14T08:21:35Z</time>
      </trkpt>
      <trkpt lat="46.065" lon="3.06769">
        <ele>440.42</ele>
        <time>2021-08-14T08:21:36Z</time>
      </trkpt>
      <trkpt lat="46.06499" lon="3.06767">
        <ele>440.42</ele>
        <time>2021-08-14T08:21:37Z</time>
      </trkpt>
      <trkpt lat="46.06499" lon="3.06765">
        <ele>440.42</ele>
        <time>2021-08-14T08:21:38Z</time>
      </trkpt>
      <trkpt lat="46.06498" lon="3.06763">
        <ele>440.9</ele>
        <time>2021-08-14T08:21:39Z</time>
      </trkpt>
      <trkpt lat="46.06497" lon="3.06761">
        <ele>440.9</ele>
        <time>2021-08-14T08:21:40Z</time>
      </trkpt>
      <trkpt lat="46.06496" lon="3.06759">
        <ele>440.9</ele>
        <time>2021-08-14T08:21:41Z</time>
      </trkpt>
      <trkpt lat="46.06495" lon="3.06758">
        <ele>441.38</ele>
        <time>2021-08-14T08:21:42Z</time>
      </trkpt>
      <trkpt lat="46.06489" lon="3.06744">
        <ele>442.34</ele>
        <time>2021-08-14T08:21:49Z</time>
      </trkpt>
      <trkpt lat="46.06486" lon="3.06736">
        <ele>442.34</ele>
        <time>2021-08-14T08:21:53Z</time>
      </trkpt>
      <trkpt lat="46.06478" lon="3.06719">
        <ele>443.31</ele>
        <time>2021-08-14T08:22:02Z</time>
      </trkpt>
      <trkpt lat="46.0647" lon="3.06703">
        <ele>444.27</ele>
        <time>2021-08-14T08:22:10Z</time>
      </trkpt>
      <trkpt lat="46.06462" lon="3.06683">
        <ele>444.75</ele>
        <time>2021-08-14T08:22:19Z</time>
      </trkpt>
      <trkpt lat="46.06454" lon="3.06665">
        <ele>445.23</ele>
        <time>2021-08-14T08:22:27Z</time>
      </trkpt>
      <trkpt lat="46.06449" lon="3.06645">
        <ele>445.71</ele>
        <time>2021-08-14T08:22:35Z</time>
      </trkpt>
      <trkpt lat="46.06445" lon="3.06623">
        <ele>446.67</ele>
        <time>2021-08-14T08:22:44Z</time>
      </trkpt>
      <trkpt lat="46.06437" lon="3.06602">
        <ele>448.11</ele>
        <time>2021-08-14T08:22:53Z</time>
      </trkpt>
      <trkpt lat="46.06427" lon="3.0659">
        <ele>449.07</ele>
        <time>2021-08-14T08:23:00Z</time>
      </trkpt>
      <trkpt lat="46.06415" lon="3.06578">
        <ele>449.55</ele>
        <time>2021-08-14T08:23:09Z</time>
      </trkpt>
      <trkpt lat="46.06401" lon="3.06571">
        <ele>451.48</ele>
        <time>2021-08-14T08:23:18Z</time>
      </trkpt>
      <trkpt lat="46.06394" lon="3.06567">
        <ele>451.96</ele>
        <time>2021-08-14T08:23:23Z</time>
      </trkpt>
      <trkpt lat="46.0639" lon="3.06566">
        <ele>452.44</ele>
        <time>2021-08-14T08:23:26Z</time>
      </trkpt>
      <trkpt lat="46.06389" lon="3.06565">
        <ele>452.44</ele>
        <time>2021-08-14T08:23:27Z</time>
      </trkpt>
      <trkpt lat="46.06387" lon="3.06564">
        <ele>452.92</ele>
        <time>2021-08-14T08:23:28Z</time>
      </trkpt>
      <trkpt lat="46.06386" lon="3.06564">
        <ele>452.92</ele>
        <time>2021-08-14T08:23:29Z</time>
      </trkpt>
      <trkpt lat="46.06384" lon="3.06563">
        <ele>452.92</ele>
        <time>2021-08-14T08:23:30Z</time>
      </trkpt>
      <trkpt lat="46.06383" lon="3.06562">
        <ele>453.4</ele>
        <time>2021-08-14T08:23:31Z</time>
      </trkpt>
      <trkpt lat="46.06382" lon="3.06562">
        <ele>453.4</ele>
        <time>2021-08-14T08:23:32Z</time>
      </trkpt>
      <trkpt lat="46.0638" lon="3.06562">
        <ele>453.4</ele>
        <time>2021-08-14T08:23:33Z</time>
      </trkpt>
      <trkpt lat="46.06379" lon="3.06562">
        <ele>453.88</ele>
        <time>2021-08-14T08:23:34Z</time>
      </trkpt>
      <trkpt lat="46.06378" lon="3.06561">
        <ele>453.88</ele>
        <time>2021-08-14T08:23:35Z</time>
      </trkpt>
      <trkpt lat="46.06377" lon="3.06561">
        <ele>454.36</ele>
        <time>2021-08-14T08:23:36Z</time>
      </trkpt>
      <trkpt lat="46.06374" lon="3.0656">
        <ele>454.36</ele>
        <time>2021-08-14T08:23:38Z</time>
      </trkpt>
      <trkpt lat="46.06363" lon="3.06558">
        <ele>455.8</ele>
        <time>2021-08-14T08:23:47Z</time>
      </trkpt>
      <trkpt lat="46.06352" lon="3.06555">
        <ele>456.76</ele>
        <time>2021-08-14T08:23:56Z</time>
      </trkpt>
      <trkpt lat="46.06339" lon="3.06552">
        <ele>457.72</ele>
        <time>2021-08-14T08:24:06Z</time>
      </trkpt>
      <trkpt lat="46.06337" lon="3.06551">
        <ele>458.21</ele>
        <time>2021-08-14T08:24:08Z</time>
      </trkpt>
      <trkpt lat="46.06336" lon="3.06551">
        <ele>458.21</ele>
        <time>2021-08-14T08:24:09Z</time>
      </trkpt>
      <trkpt lat="46.06334" lon="3.0655">
        <ele>458.21</ele>
        <time>2021-08-14T08:24:10Z</time>
      </trkpt>
      <trkpt lat="46.06322" lon="3.06543">
        <ele>459.65</ele>
        <time>2021-08-14T08:24:20Z</time>
      </trkpt>
      <trkpt lat="46.06318" lon="3.0654">
        <ele>459.65</ele>
        <time>2021-08-14T08:24:24Z</time>
      </trkpt>
      <trkpt lat="46.06317" lon="3.0654">
        <ele>460.13</ele>
        <time>2021-08-14T08:24:25Z</time>
      </trkpt>
      <trkpt lat="46.06316" lon="3.06539">
        <ele>460.13</ele>
        <time>2021-08-14T08:24:26Z</time>
      </trkpt>
      <trkpt lat="46.06315" lon="3.06538">
        <ele>460.13</ele>
        <time>2021-08-14T08:24:27Z</time>
      </trkpt>
      <trkpt lat="46.06314" lon="3.06537">
        <ele>460.13</ele>
        <time>2021-08-14T08:24:28Z</time>
      </trkpt>
      <trkpt lat="46.06313" lon="3.06536">
        <ele>460.61</ele>
        <time>2021-08-14T08:24:29Z</time>
      </trkpt>
      <trkpt lat="46.06311" lon="3.06535">
        <ele>460.61</ele>
        <time>2021-08-14T08:24:30Z</time>
      </trkpt>
      <trkpt lat="46.0631" lon="3.06534">
        <ele>460.61</ele>
        <time>2021-08-14T08:24:31Z</time>
      </trkpt>
      <trkpt lat="46.06309" lon="3.06534">
        <ele>460.61</ele>
        <time>2021-08-14T08:24:32Z</time>
      </trkpt>
      <trkpt lat="46.06308" lon="3.06534">
        <ele>460.61</ele>
        <time>2021-08-14T08:24:33Z</time>
      </trkpt>
      <trkpt lat="46.06307" lon="3.06533">
        <ele>461.09</ele>
        <time>2021-08-14T08:24:34Z</time>
      </trkpt>
      <trkpt lat="46.06305" lon="3.06532">
        <ele>461.09</ele>
        <time>2021-08-14T08:24:35Z</time>
      </trkpt>
      <trkpt lat="46.06304" lon="3.06531">
        <ele>461.09</ele>
        <time>2021-08-14T08:24:36Z</time>
      </trkpt>
      <trkpt lat="46.063" lon="3.06528">
        <ele>462.05</ele>
        <time>2021-08-14T08:24:40Z</time>
      </trkpt>
      <trkpt lat="46.06298" lon="3.06527">
        <ele>462.05</ele>
        <time>2021-08-14T08:24:41Z</time>
      </trkpt>
      <trkpt lat="46.06297" lon="3.06527">
        <ele>462.05</ele>
        <time>2021-08-14T08:24:42Z</time>
      </trkpt>
      <trkpt lat="46.06284" lon="3.06519">
        <ele>463.01</ele>
        <time>2021-08-14T08:24:52Z</time>
      </trkpt>
      <trkpt lat="46.06271" lon="3.06511">
        <ele>463.97</ele>
        <time>2021-08-14T08:25:00Z</time>
      </trkpt>
      <trkpt lat="46.06259" lon="3.06504">
        <ele>465.42</ele>
        <time>2021-08-14T08:25:08Z</time>
      </trkpt>
      <trkpt lat="46.06253" lon="3.06488">
        <ele>466.86</ele>
        <time>2021-08-14T08:25:16Z</time>
      </trkpt>
      <trkpt lat="46.06249" lon="3.06468">
        <ele>468.3</ele>
        <time>2021-08-14T08:25:25Z</time>
      </trkpt>
      <trkpt lat="46.06245" lon="3.06449">
        <ele>469.74</ele>
        <time>2021-08-14T08:25:33Z</time>
      </trkpt>
      <trkpt lat="46.06238" lon="3.06426">
        <ele>470.7</ele>
        <time>2021-08-14T08:25:43Z</time>
      </trkpt>
      <trkpt lat="46.06231" lon="3.0641">
        <ele>471.66</ele>
        <time>2021-08-14T08:25:51Z</time>
      </trkpt>
      <trkpt lat="46.06223" lon="3.06392">
        <ele>472.63</ele>
        <time>2021-08-14T08:26:00Z</time>
      </trkpt>
      <trkpt lat="46.06218" lon="3.06381">
        <ele>473.11</ele>
        <time>2021-08-14T08:26:05Z</time>
      </trkpt>
      <trkpt lat="46.06217" lon="3.0638">
        <ele>473.11</ele>
        <time>2021-08-14T08:26:06Z</time>
      </trkpt>
      <trkpt lat="46.06208" lon="3.06359">
        <ele>474.07</ele>
        <time>2021-08-14T08:26:15Z</time>
      </trkpt>
      <trkpt lat="46.06201" lon="3.06345">
        <ele>475.03</ele>
        <time>2021-08-14T08:26:22Z</time>
      </trkpt>
      <trkpt lat="46.06193" lon="3.06326">
        <ele>476.47</ele>
        <time>2021-08-14T08:26:31Z</time>
      </trkpt>
      <trkpt lat="46.06184" lon="3.06306">
        <ele>476.95</ele>
        <time>2021-08-14T08:26:41Z</time>
      </trkpt>
      <trkpt lat="46.06176" lon="3.0629">
        <ele>478.87</ele>
        <time>2021-08-14T08:26:50Z</time>
      </trkpt>
      <trkpt lat="46.06173" lon="3.06285">
        <ele>479.35</ele>
        <time>2021-08-14T08:26:53Z</time>
      </trkpt>
      <trkpt lat="46.06172" lon="3.06283">
        <ele>479.35</ele>
        <time>2021-08-14T08:26:54Z</time>
      </trkpt>
      <trkpt lat="46.06171" lon="3.06282">
        <ele>479.84</ele>
        <time>2021-08-14T08:26:55Z</time>
      </trkpt>
      <trkpt lat="46.0617" lon="3.0628">
        <ele>479.84</ele>
        <time>2021-08-14T08:26:56Z</time>
      </trkpt>
      <trkpt lat="46.06169" lon="3.06279">
        <ele>480.32</ele>
        <time>2021-08-14T08:26:57Z</time>
      </trkpt>
      <trkpt lat="46.06168" lon="3.06277">
        <ele>480.32</ele>
        <time>2021-08-14T08:26:58Z</time>
      </trkpt>
      <trkpt lat="46.06167" lon="3.06276">
        <ele>480.8</ele>
        <time>2021-08-14T08:26:59Z</time>
      </trkpt>
      <trkpt lat="46.06166" lon="3.06275">
        <ele>480.8</ele>
        <time>2021-08-14T08:27:00Z</time>
      </trkpt>
      <trkpt lat="46.0616" lon="3.06271">
        <ele>481.76</ele>
        <time>2021-08-14T08:27:05Z</time>
      </trkpt>
      <trkpt lat="46.06157" lon="3.06267">
        <ele>481.76</ele>
        <time>2021-08-14T08:27:08Z</time>
      </trkpt>
      <trkpt lat="46.06156" lon="3.06266">
        <ele>482.24</ele>
        <time>2021-08-14T08:27:09Z</time>
      </trkpt>
      <trkpt lat="46.06155" lon="3.06265">
        <ele>482.72</ele>
        <time>2021-08-14T08:27:10Z</time>
      </trkpt>
      <trkpt lat="46.06154" lon="3.06264">
        <ele>482.72</ele>
        <time>2021-08-14T08:27:11Z</time>
      </trkpt>
      <trkpt lat="46.06153" lon="3.06263">
        <ele>482.72</ele>
        <time>2021-08-14T08:27:12Z</time>
      </trkpt>
      <trkpt lat="46.06145" lon="3.06254">
        <ele>484.16</ele>
        <time>2021-08-14T08:27:20Z</time>
      </trkpt>
      <trkpt lat="46.06136" lon="3.06245">
        <ele>486.08</ele>
        <time>2021-08-14T08:27:29Z</time>
      </trkpt>
      <trkpt lat="46.06124" lon="3.06231">
        <ele>487.53</ele>
        <time>2021-08-14T08:27:40Z</time>
      </trkpt>
      <trkpt lat="46.0611" lon="3.06222">
        <ele>488.49</ele>
        <time>2021-08-14T08:27:49Z</time>
      </trkpt>
      <trkpt lat="46.06091" lon="3.06218">
        <ele>488.49</ele>
        <time>2021-08-14T08:27:57Z</time>
      </trkpt>
      <trkpt lat="46.06072" lon="3.0621">
        <ele>489.45</ele>
        <time>2021-08-14T08:28:05Z</time>
      </trkpt>
      <trkpt lat="46.0605" lon="3.06205">
        <ele>490.89</ele>
        <time>2021-08-14T08:28:14Z</time>
      </trkpt>
      <trkpt lat="46.06024" lon="3.06193">
        <ele>491.85</ele>
        <time>2021-08-14T08:28:25Z</time>
      </trkpt>
      <trkpt lat="46.06" lon="3.0618">
        <ele>492.81</ele>
        <time>2021-08-14T08:28:35Z</time>
      </trkpt>
      <trkpt lat="46.05982" lon="3.06169">
        <ele>494.74</ele>
        <time>2021-08-14T08:28:43Z</time>
      </trkpt>
      <trkpt lat="46.05962" lon="3.06159">
        <ele>496.18</ele>
        <time>2021-08-14T08:28:53Z</time>
      </trkpt>
      <trkpt lat="46.05943" lon="3.06149">
        <ele>497.62</ele>
        <time>2021-08-14T08:29:02Z</time>
      </trkpt>
      <trkpt lat="46.05923" lon="3.06139">
        <ele>498.58</ele>
        <time>2021-08-14T08:29:11Z</time>
      </trkpt>
      <trkpt lat="46.05904" lon="3.06134">
        <ele>500.5</ele>
        <time>2021-08-14T08:29:19Z</time>
      </trkpt>
      <trkpt lat="46.05879" lon="3.06125">
        <ele>500.98</ele>
        <time>2021-08-14T08:29:28Z</time>
      </trkpt>
      <trkpt lat="46.05854" lon="3.06115">
        <ele>501.95</ele>
        <time>2021-08-14T08:29:38Z</time>
      </trkpt>
      <trkpt lat="46.05831" lon="3.0611">
        <ele>502.43</ele>
        <time>2021-08-14T08:29:47Z</time>
      </trkpt>
      <trkpt lat="46.05817" lon="3.06127">
        <ele>501.46</ele>
        <time>2021-08-14T08:29:53Z</time>
      </trkpt>
      <trkpt lat="46.05789" lon="3.06159">
        <ele>499.54</ele>
        <time>2021-08-14T08:30:00Z</time>
      </trkpt>
      <trkpt lat="46.05766" lon="3.06186">
        <ele>497.14</ele>
        <time>2021-08-14T08:30:05Z</time>
      </trkpt>
      <trkpt lat="46.05761" lon="3.06191">
        <ele>497.14</ele>
        <time>2021-08-14T08:30:06Z</time>
      </trkpt>
      <trkpt lat="46.05756" lon="3.06195">
        <ele>497.14</ele>
        <time>2021-08-14T08:30:07Z</time>
      </trkpt>
      <trkpt lat="46.05751" lon="3.06198">
        <ele>496.66</ele>
        <time>2021-08-14T08:30:08Z</time>
      </trkpt>
      <trkpt lat="46.05746" lon="3.06201">
        <ele>496.66</ele>
        <time>2021-08-14T08:30:09Z</time>
      </trkpt>
      <trkpt lat="46.05731" lon="3.06209">
        <ele>496.66</ele>
        <time>2021-08-14T08:30:12Z</time>
      </trkpt>
      <trkpt lat="46.05727" lon="3.06212">
        <ele>496.66</ele>
        <time>2021-08-14T08:30:13Z</time>
      </trkpt>
      <trkpt lat="46.05721" lon="3.06213">
        <ele>496.18</ele>
        <time>2021-08-14T08:30:14Z</time>
      </trkpt>
      <trkpt lat="46.05717" lon="3.06212">
        <ele>496.18</ele>
        <time>2021-08-14T08:30:15Z</time>
      </trkpt>
      <trkpt lat="46.05713" lon="3.0621">
        <ele>496.18</ele>
        <time>2021-08-14T08:30:16Z</time>
      </trkpt>
      <trkpt lat="46.0571" lon="3.06208">
        <ele>496.18</ele>
        <time>2021-08-14T08:30:17Z</time>
      </trkpt>
      <trkpt lat="46.05707" lon="3.06207">
        <ele>496.18</ele>
        <time>2021-08-14T08:30:18Z</time>
      </trkpt>
      <trkpt lat="46.05704" lon="3.06206">
        <ele>497.62</ele>
        <time>2021-08-14T08:30:19Z</time>
      </trkpt>
      <trkpt lat="46.05702" lon="3.06205">
        <ele>497.62</ele>
        <time>2021-08-14T08:30:20Z</time>
      </trkpt>
      <trkpt lat="46.05689" lon="3.06209">
        <ele>497.62</ele>
        <time>2021-08-14T08:30:26Z</time>
      </trkpt>
      <trkpt lat="46.05683" lon="3.06213">
        <ele>497.62</ele>
        <time>2021-08-14T08:30:29Z</time>
      </trkpt>
      <trkpt lat="46.05683" lon="3.06215">
        <ele>497.62</ele>
        <time>2021-08-14T08:30:30Z</time>
      </trkpt>
      <trkpt lat="46.05684" lon="3.06217">
        <ele>498.1</ele>
        <time>2021-08-14T08:30:31Z</time>
      </trkpt>
      <trkpt lat="46.05685" lon="3.06217">
        <ele>498.1</ele>
        <time>2021-08-14T08:30:32Z</time>
      </trkpt>
      <trkpt lat="46.05686" lon="3.06215">
        <ele>498.1</ele>
        <time>2021-08-14T08:30:33Z</time>
      </trkpt>
      <trkpt lat="46.05687" lon="3.06212">
        <ele>498.1</ele>
        <time>2021-08-14T08:30:34Z</time>
      </trkpt>
      <trkpt lat="46.05688" lon="3.0621">
        <ele>498.1</ele>
        <time>2021-08-14T08:30:35Z</time>
      </trkpt>
      <trkpt lat="46.05689" lon="3.06208">
        <ele>498.1</ele>
        <time>2021-08-14T08:30:36Z</time>
      </trkpt>
      <trkpt lat="46.0569" lon="3.06207">
        <ele>498.1</ele>
        <time>2021-08-14T08:30:37Z</time>
      </trkpt>
      <trkpt lat="46.05692" lon="3.06205">
        <ele>498.1</ele>
        <time>2021-08-14T08:30:38Z</time>
      </trkpt>
      <trkpt lat="46.05693" lon="3.06204">
        <ele>498.1</ele>
        <time>2021-08-14T08:30:39Z</time>
      </trkpt>
      <trkpt lat="46.05692" lon="3.06201">
        <ele>498.1</ele>
        <time>2021-08-14T08:30:43Z</time>
      </trkpt>
      <trkpt lat="46.05692" lon="3.06202">
        <ele>498.1</ele>
        <time>2021-08-14T08:30:59Z</time>
      </trkpt>
      <trkpt lat="46.05694" lon="3.06201">
        <ele>498.1</ele>
        <time>2021-08-14T08:31:21Z</time>
      </trkpt>
      <trkpt lat="46.05693" lon="3.06201">
        <ele>498.1</ele>
        <time>2021-08-14T08:31:39Z</time>
      </trkpt>
      <trkpt lat="46.05692" lon="3.06202">
        <ele>498.1</ele>
        <time>2021-08-14T08:31:56Z</time>
      </trkpt>
      <trkpt lat="46.05693" lon="3.06203">
        <ele>498.1</ele>
        <time>2021-08-14T08:32:02Z</time>
      </trkpt>
      <trkpt lat="46.05693" lon="3.06201">
        <ele>498.1</ele>
        <time>2021-08-14T08:32:23Z</time>
      </trkpt>
      <trkpt lat="46.05692" lon="3.06203">
        <ele>498.1</ele>
        <time>2021-08-14T08:32:44Z</time>
      </trkpt>
      <trkpt lat="46.05692" lon="3.06206">
        <ele>498.1</ele>
        <time>2021-08-14T08:32:53Z</time>
      </trkpt>
      <trkpt lat="46.05693" lon="3.06206">
        <ele>498.1</ele>
        <time>2021-08-14T08:32:54Z</time>
      </trkpt>
      <trkpt lat="46.05697" lon="3.06205">
        <ele>498.1</ele>
        <time>2021-08-14T08:33:00Z</time>
      </trkpt>
      <trkpt lat="46.05698" lon="3.06204">
        <ele>498.1</ele>
        <time>2021-08-14T08:33:01Z</time>
      </trkpt>
      <trkpt lat="46.05699" lon="3.06204">
        <ele>498.1</ele>
        <time>2021-08-14T08:33:02Z</time>
      </trkpt>
      <trkpt lat="46.05701" lon="3.06204">
        <ele>498.1</ele>
        <time>2021-08-14T08:33:03Z</time>
      </trkpt>
      <trkpt lat="46.05704" lon="3.06204">
        <ele>498.1</ele>
        <time>2021-08-14T08:33:04Z</time>
      </trkpt>
      <trkpt lat="46.05706" lon="3.06206">
        <ele>498.1</ele>
        <time>2021-08-14T08:33:05Z</time>
      </trkpt>
      <trkpt lat="46.05724" lon="3.0621">
        <ele>498.1</ele>
        <time>2021-08-14T08:33:10Z</time>
      </trkpt>
      <trkpt lat="46.05728" lon="3.06209">
        <ele>498.1</ele>
        <time>2021-08-14T08:33:11Z</time>
      </trkpt>
      <trkpt lat="46.05731" lon="3.06206">
        <ele>498.1</ele>
        <time>2021-08-14T08:33:12Z</time>
      </trkpt>
      <trkpt lat="46.05734" lon="3.06204">
        <ele>498.1</ele>
        <time>2021-08-14T08:33:13Z</time>
      </trkpt>
      <trkpt lat="46.05738" lon="3.06202">
        <ele>498.1</ele>
        <time>2021-08-14T08:33:14Z</time>
      </trkpt>
      <trkpt lat="46.05742" lon="3.062">
        <ele>498.1</ele>
        <time>2021-08-14T08:33:15Z</time>
      </trkpt>
      <trkpt lat="46.05746" lon="3.06199">
        <ele>498.1</ele>
        <time>2021-08-14T08:33:16Z</time>
      </trkpt>
      <trkpt lat="46.05769" lon="3.0618">
        <ele>498.1</ele>
        <time>2021-08-14T08:33:23Z</time>
      </trkpt>
      <trkpt lat="46.05787" lon="3.0616">
        <ele>499.54</ele>
        <time>2021-08-14T08:33:31Z</time>
      </trkpt>
      <trkpt lat="46.05804" lon="3.06139">
        <ele>500.98</ele>
        <time>2021-08-14T08:33:39Z</time>
      </trkpt>
      <trkpt lat="46.05821" lon="3.06119">
        <ele>501.95</ele>
        <time>2021-08-14T08:33:47Z</time>
      </trkpt>
      <trkpt lat="46.05832" lon="3.06096">
        <ele>502.91</ele>
        <time>2021-08-14T08:33:55Z</time>
      </trkpt>
      <trkpt lat="46.05833" lon="3.06082">
        <ele>500.02</ele>
        <time>2021-08-14T08:33:57Z</time>
      </trkpt>
      <trkpt lat="46.05834" lon="3.06074">
        <ele>498.58</ele>
        <time>2021-08-14T08:33:58Z</time>
      </trkpt>
      <trkpt lat="46.05833" lon="3.06064">
        <ele>497.62</ele>
        <time>2021-08-14T08:33:59Z</time>
      </trkpt>
      <trkpt lat="46.05832" lon="3.06054">
        <ele>496.18</ele>
        <time>2021-08-14T08:34:00Z</time>
      </trkpt>
      <trkpt lat="46.0583" lon="3.06043">
        <ele>494.74</ele>
        <time>2021-08-14T08:34:01Z</time>
      </trkpt>
      <trkpt lat="46.05827" lon="3.06033">
        <ele>493.77</ele>
        <time>2021-08-14T08:34:02Z</time>
      </trkpt>
      <trkpt lat="46.05823" lon="3.06024">
        <ele>492.33</ele>
        <time>2021-08-14T08:34:03Z</time>
      </trkpt>
      <trkpt lat="46.0582" lon="3.06018">
        <ele>491.85</ele>
        <time>2021-08-14T08:34:04Z</time>
      </trkpt>
      <trkpt lat="46.05817" lon="3.06013">
        <ele>491.37</ele>
        <time>2021-08-14T08:34:05Z</time>
      </trkpt>
      <trkpt lat="46.05815" lon="3.06009">
        <ele>490.89</ele>
        <time>2021-08-14T08:34:06Z</time>
      </trkpt>
      <trkpt lat="46.05812" lon="3.06005">
        <ele>489.93</ele>
        <time>2021-08-14T08:34:10Z</time>
      </trkpt>
      <trkpt lat="46.05812" lon="3.06004">
        <ele>489.93</ele>
        <time>2021-08-14T08:34:16Z</time>
      </trkpt>
      <trkpt lat="46.05811" lon="3.06005">
        <ele>489.93</ele>
        <time>2021-08-14T08:34:31Z</time>
      </trkpt>
      <trkpt lat="46.05804" lon="3.05997">
        <ele>488.49</ele>
        <time>2021-08-14T08:34:35Z</time>
      </trkpt>
      <trkpt lat="46.05786" lon="3.05975">
        <ele>485.6</ele>
        <time>2021-08-14T08:34:40Z</time>
      </trkpt>
      <trkpt lat="46.05779" lon="3.05964">
        <ele>484.16</ele>
        <time>2021-08-14T08:34:42Z</time>
      </trkpt>
      <trkpt lat="46.05773" lon="3.05952">
        <ele>482.24</ele>
        <time>2021-08-14T08:34:44Z</time>
      </trkpt>
      <trkpt lat="46.05771" lon="3.05945">
        <ele>481.76</ele>
        <time>2021-08-14T08:34:45Z</time>
      </trkpt>
      <trkpt lat="46.05768" lon="3.05931">
        <ele>481.28</ele>
        <time>2021-08-14T08:34:47Z</time>
      </trkpt>
      <trkpt lat="46.05768" lon="3.05923">
        <ele>480.8</ele>
        <time>2021-08-14T08:34:48Z</time>
      </trkpt>
      <trkpt lat="46.05768" lon="3.05915">
        <ele>480.32</ele>
        <time>2021-08-14T08:34:49Z</time>
      </trkpt>
      <trkpt lat="46.05772" lon="3.05884">
        <ele>480.32</ele>
        <time>2021-08-14T08:34:53Z</time>
      </trkpt>
      <trkpt lat="46.05772" lon="3.05877">
        <ele>479.84</ele>
        <time>2021-08-14T08:34:54Z</time>
      </trkpt>
      <trkpt lat="46.05771" lon="3.05871">
        <ele>480.32</ele>
        <time>2021-08-14T08:34:55Z</time>
      </trkpt>
      <trkpt lat="46.0577" lon="3.05867">
        <ele>481.28</ele>
        <time>2021-08-14T08:34:56Z</time>
      </trkpt>
      <trkpt lat="46.05769" lon="3.05863">
        <ele>481.76</ele>
        <time>2021-08-14T08:34:57Z</time>
      </trkpt>
      <trkpt lat="46.05766" lon="3.05849">
        <ele>482.72</ele>
        <time>2021-08-14T08:35:04Z</time>
      </trkpt>
      <trkpt lat="46.05764" lon="3.05842">
        <ele>483.68</ele>
        <time>2021-08-14T08:35:08Z</time>
      </trkpt>
      <trkpt lat="46.05763" lon="3.0584">
        <ele>483.68</ele>
        <time>2021-08-14T08:35:09Z</time>
      </trkpt>
      <trkpt lat="46.05763" lon="3.05838">
        <ele>483.68</ele>
        <time>2021-08-14T08:35:10Z</time>
      </trkpt>
      <trkpt lat="46.05762" lon="3.05836">
        <ele>484.16</ele>
        <time>2021-08-14T08:35:11Z</time>
      </trkpt>
      <trkpt lat="46.05762" lon="3.05834">
        <ele>484.16</ele>
        <time>2021-08-14T08:35:12Z</time>
      </trkpt>
      <trkpt lat="46.05762" lon="3.05833">
        <ele>484.64</ele>
        <time>2021-08-14T08:35:13Z</time>
      </trkpt>
      <trkpt lat="46.05762" lon="3.05831">
        <ele>484.64</ele>
        <time>2021-08-14T08:35:14Z</time>
      </trkpt>
      <trkpt lat="46.05762" lon="3.05814">
        <ele>485.6</ele>
        <time>2021-08-14T08:35:22Z</time>
      </trkpt>
      <trkpt lat="46.05768" lon="3.05799">
        <ele>487.05</ele>
        <time>2021-08-14T08:35:30Z</time>
      </trkpt>
      <trkpt lat="46.05778" lon="3.05784">
        <ele>488.01</ele>
        <time>2021-08-14T08:35:38Z</time>
      </trkpt>
      <trkpt lat="46.05783" lon="3.05764">
        <ele>489.45</ele>
        <time>2021-08-14T08:35:47Z</time>
      </trkpt>
      <trkpt lat="46.05774" lon="3.05743">
        <ele>490.41</ele>
        <time>2021-08-14T08:35:57Z</time>
      </trkpt>
      <trkpt lat="46.05767" lon="3.05727">
        <ele>490.89</ele>
        <time>2021-08-14T08:36:05Z</time>
      </trkpt>
      <trkpt lat="46.05769" lon="3.05705">
        <ele>491.85</ele>
        <time>2021-08-14T08:36:14Z</time>
      </trkpt>
      <trkpt lat="46.05774" lon="3.05685">
        <ele>492.81</ele>
        <time>2021-08-14T08:36:22Z</time>
      </trkpt>
      <trkpt lat="46.0578" lon="3.05665">
        <ele>494.74</ele>
        <time>2021-08-14T08:36:32Z</time>
      </trkpt>
      <trkpt lat="46.05786" lon="3.05643">
        <ele>496.18</ele>
        <time>2021-08-14T08:36:43Z</time>
      </trkpt>
      <trkpt lat="46.05787" lon="3.05642">
        <ele>496.18</ele>
        <time>2021-08-14T08:36:44Z</time>
      </trkpt>
      <trkpt lat="46.05787" lon="3.0564">
        <ele>496.66</ele>
        <time>2021-08-14T08:36:45Z</time>
      </trkpt>
      <trkpt lat="46.05788" lon="3.05639">
        <ele>496.66</ele>
        <time>2021-08-14T08:36:46Z</time>
      </trkpt>
      <trkpt lat="46.05791" lon="3.05628">
        <ele>497.62</ele>
        <time>2021-08-14T08:36:53Z</time>
      </trkpt>
      <trkpt lat="46.05792" lon="3.05626">
        <ele>497.62</ele>
        <time>2021-08-14T08:36:54Z</time>
      </trkpt>
      <trkpt lat="46.05793" lon="3.05622">
        <ele>498.1</ele>
        <time>2021-08-14T08:36:58Z</time>
      </trkpt>
      <trkpt lat="46.05796" lon="3.05611">
        <ele>499.54</ele>
        <time>2021-08-14T08:37:06Z</time>
      </trkpt>
      <trkpt lat="46.05799" lon="3.05598">
        <ele>500.98</ele>
        <time>2021-08-14T08:37:16Z</time>
      </trkpt>
      <trkpt lat="46.05802" lon="3.05584">
        <ele>502.43</ele>
        <time>2021-08-14T08:37:28Z</time>
      </trkpt>
      <trkpt lat="46.05806" lon="3.05574">
        <ele>504.35</ele>
        <time>2021-08-14T08:37:38Z</time>
      </trkpt>
      <trkpt lat="46.05809" lon="3.05568">
        <ele>504.83</ele>
        <time>2021-08-14T08:37:44Z</time>
      </trkpt>
      <trkpt lat="46.05814" lon="3.05561">
        <ele>506.27</ele>
        <time>2021-08-14T08:37:52Z</time>
      </trkpt>
      <trkpt lat="46.05819" lon="3.05556">
        <ele>507.23</ele>
        <time>2021-08-14T08:38:00Z</time>
      </trkpt>
      <trkpt lat="46.05826" lon="3.05553">
        <ele>508.19</ele>
        <time>2021-08-14T08:38:08Z</time>
      </trkpt>
      <trkpt lat="46.05828" lon="3.05552">
        <ele>508.67</ele>
        <time>2021-08-14T08:38:10Z</time>
      </trkpt>
      <trkpt lat="46.05833" lon="3.05551">
        <ele>509.16</ele>
        <time>2021-08-14T08:38:15Z</time>
      </trkpt>
      <trkpt lat="46.05843" lon="3.05554">
        <ele>510.6</ele>
        <time>2021-08-14T08:38:25Z</time>
      </trkpt>
      <trkpt lat="46.05851" lon="3.05555">
        <ele>511.56</ele>
        <time>2021-08-14T08:38:33Z</time>
      </trkpt>
      <trkpt lat="46.05863" lon="3.05552">
        <ele>513</ele>
        <time>2021-08-14T08:38:44Z</time>
      </trkpt>
      <trkpt lat="46.05873" lon="3.05545">
        <ele>514.44</ele>
        <time>2021-08-14T08:38:55Z</time>
      </trkpt>
      <trkpt lat="46.05879" lon="3.05538">
        <ele>515.4</ele>
        <time>2021-08-14T08:39:03Z</time>
      </trkpt>
      <trkpt lat="46.05881" lon="3.05535">
        <ele>515.4</ele>
        <time>2021-08-14T08:39:10Z</time>
      </trkpt>
      <trkpt lat="46.05887" lon="3.05526">
        <ele>516.37</ele>
        <time>2021-08-14T08:39:17Z</time>
      </trkpt>
      <trkpt lat="46.05891" lon="3.0552">
        <ele>516.85</ele>
        <time>2021-08-14T08:39:21Z</time>
      </trkpt>
      <trkpt lat="46.05892" lon="3.05519">
        <ele>516.85</ele>
        <time>2021-08-14T08:39:22Z</time>
      </trkpt>
      <trkpt lat="46.05893" lon="3.05517">
        <ele>517.33</ele>
        <time>2021-08-14T08:39:23Z</time>
      </trkpt>
      <trkpt lat="46.05899" lon="3.05505">
        <ele>518.29</ele>
        <time>2021-08-14T08:39:31Z</time>
      </trkpt>
      <trkpt lat="46.059" lon="3.05504">
        <ele>518.29</ele>
        <time>2021-08-14T08:39:32Z</time>
      </trkpt>
      <trkpt lat="46.05901" lon="3.05502">
        <ele>518.29</ele>
        <time>2021-08-14T08:39:33Z</time>
      </trkpt>
      <trkpt lat="46.05902" lon="3.05501">
        <ele>518.29</ele>
        <time>2021-08-14T08:39:34Z</time>
      </trkpt>
      <trkpt lat="46.05903" lon="3.055">
        <ele>518.77</ele>
        <time>2021-08-14T08:39:35Z</time>
      </trkpt>
      <trkpt lat="46.05904" lon="3.05498">
        <ele>518.77</ele>
        <time>2021-08-14T08:39:36Z</time>
      </trkpt>
      <trkpt lat="46.05904" lon="3.05497">
        <ele>518.77</ele>
        <time>2021-08-14T08:39:37Z</time>
      </trkpt>
      <trkpt lat="46.05905" lon="3.05495">
        <ele>519.25</ele>
        <time>2021-08-14T08:39:38Z</time>
      </trkpt>
      <trkpt lat="46.05905" lon="3.05493">
        <ele>519.25</ele>
        <time>2021-08-14T08:39:39Z</time>
      </trkpt>
      <trkpt lat="46.05905" lon="3.05492">
        <ele>519.25</ele>
        <time>2021-08-14T08:39:40Z</time>
      </trkpt>
      <trkpt lat="46.05906" lon="3.0549">
        <ele>519.25</ele>
        <time>2021-08-14T08:39:41Z</time>
      </trkpt>
      <trkpt lat="46.05906" lon="3.05488">
        <ele>519.25</ele>
        <time>2021-08-14T08:39:42Z</time>
      </trkpt>
      <trkpt lat="46.05906" lon="3.05487">
        <ele>519.73</ele>
        <time>2021-08-14T08:39:43Z</time>
      </trkpt>
      <trkpt lat="46.05907" lon="3.05485">
        <ele>519.73</ele>
        <time>2021-08-14T08:39:44Z</time>
      </trkpt>
      <trkpt lat="46.05908" lon="3.05468">
        <ele>521.17</ele>
        <time>2021-08-14T08:39:53Z</time>
      </trkpt>
      <trkpt lat="46.05908" lon="3.05465">
        <ele>521.65</ele>
        <time>2021-08-14T08:39:55Z</time>
      </trkpt>
      <trkpt lat="46.05908" lon="3.05463">
        <ele>521.65</ele>
        <time>2021-08-14T08:39:56Z</time>
      </trkpt>
      <trkpt lat="46.05908" lon="3.05462">
        <ele>522.13</ele>
        <time>2021-08-14T08:39:57Z</time>
      </trkpt>
      <trkpt lat="46.05909" lon="3.0546">
        <ele>522.13</ele>
        <time>2021-08-14T08:39:58Z</time>
      </trkpt>
      <trkpt lat="46.05909" lon="3.05458">
        <ele>522.61</ele>
        <time>2021-08-14T08:39:59Z</time>
      </trkpt>
      <trkpt lat="46.05909" lon="3.05456">
        <ele>522.61</ele>
        <time>2021-08-14T08:40:00Z</time>
      </trkpt>
      <trkpt lat="46.05909" lon="3.05454">
        <ele>522.61</ele>
        <time>2021-08-14T08:40:01Z</time>
      </trkpt>
      <trkpt lat="46.05909" lon="3.05452">
        <ele>523.09</ele>
        <time>2021-08-14T08:40:02Z</time>
      </trkpt>
      <trkpt lat="46.0591" lon="3.05451">
        <ele>523.09</ele>
        <time>2021-08-14T08:40:03Z</time>
      </trkpt>
      <trkpt lat="46.0591" lon="3.05449">
        <ele>523.09</ele>
        <time>2021-08-14T08:40:04Z</time>
      </trkpt>
      <trkpt lat="46.0591" lon="3.05447">
        <ele>523.09</ele>
        <time>2021-08-14T08:40:05Z</time>
      </trkpt>
      <trkpt lat="46.05911" lon="3.05445">
        <ele>523.09</ele>
        <time>2021-08-14T08:40:06Z</time>
      </trkpt>
      <trkpt lat="46.05911" lon="3.05443">
        <ele>523.58</ele>
        <time>2021-08-14T08:40:07Z</time>
      </trkpt>
      <trkpt lat="46.05912" lon="3.05432">
        <ele>525.02</ele>
        <time>2021-08-14T08:40:15Z</time>
      </trkpt>
      <trkpt lat="46.05913" lon="3.05425">
        <ele>525.98</ele>
        <time>2021-08-14T08:40:21Z</time>
      </trkpt>
      <trkpt lat="46.05913" lon="3.05416">
        <ele>526.94</ele>
        <time>2021-08-14T08:40:31Z</time>
      </trkpt>
      <trkpt lat="46.05914" lon="3.05407">
        <ele>528.38</ele>
        <time>2021-08-14T08:40:39Z</time>
      </trkpt>
      <trkpt lat="46.05915" lon="3.05406">
        <ele>528.86</ele>
        <time>2021-08-14T08:40:47Z</time>
      </trkpt>
      <trkpt lat="46.05916" lon="3.05399">
        <ele>529.34</ele>
        <time>2021-08-14T08:40:55Z</time>
      </trkpt>
      <trkpt lat="46.05918" lon="3.05389">
        <ele>530.79</ele>
        <time>2021-08-14T08:41:05Z</time>
      </trkpt>
      <trkpt lat="46.05921" lon="3.0538">
        <ele>531.75</ele>
        <time>2021-08-14T08:41:13Z</time>
      </trkpt>
      <trkpt lat="46.05923" lon="3.05369">
        <ele>533.19</ele>
        <time>2021-08-14T08:41:23Z</time>
      </trkpt>
      <trkpt lat="46.05929" lon="3.05358">
        <ele>534.63</ele>
        <time>2021-08-14T08:41:33Z</time>
      </trkpt>
      <trkpt lat="46.05932" lon="3.05349">
        <ele>536.07</ele>
        <time>2021-08-14T08:41:41Z</time>
      </trkpt>
      <trkpt lat="46.05935" lon="3.05342">
        <ele>536.07</ele>
        <time>2021-08-14T08:41:48Z</time>
      </trkpt>
      <trkpt lat="46.0594" lon="3.05324">
        <ele>537.03</ele>
        <time>2021-08-14T08:41:55Z</time>
      </trkpt>
      <trkpt lat="46.05941" lon="3.05321">
        <ele>537.03</ele>
        <time>2021-08-14T08:41:56Z</time>
      </trkpt>
      <trkpt lat="46.05941" lon="3.05318">
        <ele>537.51</ele>
        <time>2021-08-14T08:41:57Z</time>
      </trkpt>
      <trkpt lat="46.05942" lon="3.05316">
        <ele>537.51</ele>
        <time>2021-08-14T08:41:58Z</time>
      </trkpt>
      <trkpt lat="46.05943" lon="3.05314">
        <ele>537.51</ele>
        <time>2021-08-14T08:41:59Z</time>
      </trkpt>
      <trkpt lat="46.05943" lon="3.05312">
        <ele>537.51</ele>
        <time>2021-08-14T08:42:00Z</time>
      </trkpt>
      <trkpt lat="46.05944" lon="3.05309">
        <ele>537.99</ele>
        <time>2021-08-14T08:42:01Z</time>
      </trkpt>
      <trkpt lat="46.05947" lon="3.05293">
        <ele>538.48</ele>
        <time>2021-08-14T08:42:07Z</time>
      </trkpt>
      <trkpt lat="46.05949" lon="3.05273">
        <ele>539.44</ele>
        <time>2021-08-14T08:42:15Z</time>
      </trkpt>
      <trkpt lat="46.05934" lon="3.05259">
        <ele>539.92</ele>
        <time>2021-08-14T08:42:24Z</time>
      </trkpt>
      <trkpt lat="46.05912" lon="3.05244">
        <ele>540.4</ele>
        <time>2021-08-14T08:42:33Z</time>
      </trkpt>
      <trkpt lat="46.05893" lon="3.05232">
        <ele>540.88</ele>
        <time>2021-08-14T08:42:40Z</time>
      </trkpt>
      <trkpt lat="46.05855" lon="3.05212">
        <ele>541.36</ele>
        <time>2021-08-14T08:42:52Z</time>
      </trkpt>
      <trkpt lat="46.05826" lon="3.05194">
        <ele>542.32</ele>
        <time>2021-08-14T08:43:02Z</time>
      </trkpt>
      <trkpt lat="46.05809" lon="3.05166">
        <ele>542.32</ele>
        <time>2021-08-14T08:43:09Z</time>
      </trkpt>
      <trkpt lat="46.05798" lon="3.05149">
        <ele>542.32</ele>
        <time>2021-08-14T08:43:13Z</time>
      </trkpt>
      <trkpt lat="46.0578" lon="3.05118">
        <ele>542.8</ele>
        <time>2021-08-14T08:43:21Z</time>
      </trkpt>
      <trkpt lat="46.05758" lon="3.05092">
        <ele>542.8</ele>
        <time>2021-08-14T08:43:29Z</time>
      </trkpt>
      <trkpt lat="46.0574" lon="3.05079">
        <ele>541.84</ele>
        <time>2021-08-14T08:43:33Z</time>
      </trkpt>
      <trkpt lat="46.05729" lon="3.05072">
        <ele>541.84</ele>
        <time>2021-08-14T08:43:35Z</time>
      </trkpt>
      <trkpt lat="46.05711" lon="3.05057">
        <ele>541.36</ele>
        <time>2021-08-14T08:43:39Z</time>
      </trkpt>
      <trkpt lat="46.05697" lon="3.05045">
        <ele>541.36</ele>
        <time>2021-08-14T08:43:42Z</time>
      </trkpt>
      <trkpt lat="46.05693" lon="3.05042">
        <ele>541.36</ele>
        <time>2021-08-14T08:43:43Z</time>
      </trkpt>
      <trkpt lat="46.05689" lon="3.05038">
        <ele>541.36</ele>
        <time>2021-08-14T08:43:44Z</time>
      </trkpt>
      <trkpt lat="46.05673" lon="3.05023">
        <ele>542.32</ele>
        <time>2021-08-14T08:43:48Z</time>
      </trkpt>
      <trkpt lat="46.05665" lon="3.05017">
        <ele>542.8</ele>
        <time>2021-08-14T08:43:50Z</time>
      </trkpt>
      <trkpt lat="46.05629" lon="3.04981">
        <ele>542.8</ele>
        <time>2021-08-14T08:43:59Z</time>
      </trkpt>
      <trkpt lat="46.05625" lon="3.04977">
        <ele>542.8</ele>
        <time>2021-08-14T08:44:00Z</time>
      </trkpt>
      <trkpt lat="46.05613" lon="3.04965">
        <ele>542.8</ele>
        <time>2021-08-14T08:44:03Z</time>
      </trkpt>
      <trkpt lat="46.05608" lon="3.04961">
        <ele>542.8</ele>
        <time>2021-08-14T08:44:04Z</time>
      </trkpt>
      <trkpt lat="46.05604" lon="3.04957">
        <ele>542.8</ele>
        <time>2021-08-14T08:44:05Z</time>
      </trkpt>
      <trkpt lat="46.05597" lon="3.04948">
        <ele>543.28</ele>
        <time>2021-08-14T08:44:07Z</time>
      </trkpt>
      <trkpt lat="46.0559" lon="3.04939">
        <ele>543.28</ele>
        <time>2021-08-14T08:44:09Z</time>
      </trkpt>
      <trkpt lat="46.05587" lon="3.04935">
        <ele>543.28</ele>
        <time>2021-08-14T08:44:10Z</time>
      </trkpt>
      <trkpt lat="46.0558" lon="3.04927">
        <ele>543.76</ele>
        <time>2021-08-14T08:44:12Z</time>
      </trkpt>
      <trkpt lat="46.05561" lon="3.04895">
        <ele>545.2</ele>
        <time>2021-08-14T08:44:20Z</time>
      </trkpt>
      <trkpt lat="46.05547" lon="3.04866">
        <ele>548.09</ele>
        <time>2021-08-14T08:44:30Z</time>
      </trkpt>
      <trkpt lat="46.05533" lon="3.04837">
        <ele>550.01</ele>
        <time>2021-08-14T08:44:40Z</time>
      </trkpt>
      <trkpt lat="46.05513" lon="3.04799">
        <ele>551.45</ele>
        <time>2021-08-14T08:44:52Z</time>
      </trkpt>
      <trkpt lat="46.05501" lon="3.0478">
        <ele>551.45</ele>
        <time>2021-08-14T08:44:58Z</time>
      </trkpt>
      <trkpt lat="46.05479" lon="3.04756">
        <ele>551.45</ele>
        <time>2021-08-14T08:45:05Z</time>
      </trkpt>
      <trkpt lat="46.05476" lon="3.04753">
        <ele>551.93</ele>
        <time>2021-08-14T08:45:06Z</time>
      </trkpt>
      <trkpt lat="46.05473" lon="3.0475">
        <ele>551.45</ele>
        <time>2021-08-14T08:45:07Z</time>
      </trkpt>
      <trkpt lat="46.05455" lon="3.04731">
        <ele>551.45</ele>
        <time>2021-08-14T08:45:13Z</time>
      </trkpt>
      <trkpt lat="46.05452" lon="3.04728">
        <ele>551.45</ele>
        <time>2021-08-14T08:45:14Z</time>
      </trkpt>
      <trkpt lat="46.05448" lon="3.04725">
        <ele>551.45</ele>
        <time>2021-08-14T08:45:15Z</time>
      </trkpt>
      <trkpt lat="46.05436" lon="3.04717">
        <ele>551.45</ele>
        <time>2021-08-14T08:45:18Z</time>
      </trkpt>
      <trkpt lat="46.05422" lon="3.04705">
        <ele>551.45</ele>
        <time>2021-08-14T08:45:22Z</time>
      </trkpt>
      <trkpt lat="46.05418" lon="3.04702">
        <ele>551.45</ele>
        <time>2021-08-14T08:45:23Z</time>
      </trkpt>
      <trkpt lat="46.05397" lon="3.04697">
        <ele>551.45</ele>
        <time>2021-08-14T08:45:29Z</time>
      </trkpt>
      <trkpt lat="46.05374" lon="3.04693">
        <ele>553.38</ele>
        <time>2021-08-14T08:45:37Z</time>
      </trkpt>
      <trkpt lat="46.05354" lon="3.04684">
        <ele>554.82</ele>
        <time>2021-08-14T08:45:45Z</time>
      </trkpt>
      <trkpt lat="46.05336" lon="3.04676">
        <ele>555.3</ele>
        <time>2021-08-14T08:45:52Z</time>
      </trkpt>
      <trkpt lat="46.05308" lon="3.04664">
        <ele>556.74</ele>
        <time>2021-08-14T08:46:03Z</time>
      </trkpt>
      <trkpt lat="46.05294" lon="3.04656">
        <ele>558.18</ele>
        <time>2021-08-14T08:46:09Z</time>
      </trkpt>
      <trkpt lat="46.05278" lon="3.04646">
        <ele>559.14</ele>
        <time>2021-08-14T08:46:17Z</time>
      </trkpt>
      <trkpt lat="46.05261" lon="3.04635">
        <ele>561.07</ele>
        <time>2021-08-14T08:46:26Z</time>
      </trkpt>
      <trkpt lat="46.05246" lon="3.04625">
        <ele>562.99</ele>
        <time>2021-08-14T08:46:36Z</time>
      </trkpt>
      <trkpt lat="46.05236" lon="3.04614">
        <ele>564.43</ele>
        <time>2021-08-14T08:46:45Z</time>
      </trkpt>
      <trkpt lat="46.05234" lon="3.04611">
        <ele>564.91</ele>
        <time>2021-08-14T08:46:48Z</time>
      </trkpt>
      <trkpt lat="46.05233" lon="3.04609">
        <ele>564.91</ele>
        <time>2021-08-14T08:46:49Z</time>
      </trkpt>
      <trkpt lat="46.05232" lon="3.04607">
        <ele>565.39</ele>
        <time>2021-08-14T08:46:50Z</time>
      </trkpt>
      <trkpt lat="46.05231" lon="3.04606">
        <ele>565.39</ele>
        <time>2021-08-14T08:46:51Z</time>
      </trkpt>
      <trkpt lat="46.0523" lon="3.04604">
        <ele>565.87</ele>
        <time>2021-08-14T08:46:52Z</time>
      </trkpt>
      <trkpt lat="46.05229" lon="3.04602">
        <ele>565.87</ele>
        <time>2021-08-14T08:46:53Z</time>
      </trkpt>
      <trkpt lat="46.0522" lon="3.0459">
        <ele>567.32</ele>
        <time>2021-08-14T08:47:01Z</time>
      </trkpt>
      <trkpt lat="46.05212" lon="3.04575">
        <ele>568.76</ele>
        <time>2021-08-14T08:47:10Z</time>
      </trkpt>
      <trkpt lat="46.052" lon="3.04561">
        <ele>569.72</ele>
        <time>2021-08-14T08:47:20Z</time>
      </trkpt>
      <trkpt lat="46.05185" lon="3.04551">
        <ele>571.16</ele>
        <time>2021-08-14T08:47:29Z</time>
      </trkpt>
      <trkpt lat="46.0517" lon="3.04543">
        <ele>572.6</ele>
        <time>2021-08-14T08:47:38Z</time>
      </trkpt>
      <trkpt lat="46.05153" lon="3.04534">
        <ele>573.08</ele>
        <time>2021-08-14T08:47:46Z</time>
      </trkpt>
      <trkpt lat="46.05131" lon="3.0452">
        <ele>574.04</ele>
        <time>2021-08-14T08:47:54Z</time>
      </trkpt>
      <trkpt lat="46.05109" lon="3.04511">
        <ele>574.04</ele>
        <time>2021-08-14T08:48:02Z</time>
      </trkpt>
      <trkpt lat="46.05086" lon="3.04499">
        <ele>574.04</ele>
        <time>2021-08-14T08:48:10Z</time>
      </trkpt>
      <trkpt lat="46.05076" lon="3.04494">
        <ele>574.04</ele>
        <time>2021-08-14T08:48:16Z</time>
      </trkpt>
      <trkpt lat="46.05075" lon="3.04494">
        <ele>574.04</ele>
        <time>2021-08-14T08:48:28Z</time>
      </trkpt>
      <trkpt lat="46.05068" lon="3.04492">
        <ele>574.04</ele>
        <time>2021-08-14T08:48:34Z</time>
      </trkpt>
      <trkpt lat="46.05068" lon="3.04492">
        <ele>574.04</ele>
        <time>2021-08-14T08:48:48Z</time>
      </trkpt>
      <trkpt lat="46.05068" lon="3.04492">
        <ele>574.04</ele>
        <time>2021-08-14T08:49:05Z</time>
      </trkpt>
      <trkpt lat="46.05069" lon="3.0449">
        <ele>574.04</ele>
        <time>2021-08-14T08:49:08Z</time>
      </trkpt>
      <trkpt lat="46.05069" lon="3.04488">
        <ele>574.04</ele>
        <time>2021-08-14T08:49:09Z</time>
      </trkpt>
      <trkpt lat="46.0507" lon="3.04486">
        <ele>574.04</ele>
        <time>2021-08-14T08:49:10Z</time>
      </trkpt>
      <trkpt lat="46.05071" lon="3.04485">
        <ele>574.04</ele>
        <time>2021-08-14T08:49:11Z</time>
      </trkpt>
      <trkpt lat="46.05072" lon="3.04483">
        <ele>574.04</ele>
        <time>2021-08-14T08:49:12Z</time>
      </trkpt>
      <trkpt lat="46.05073" lon="3.0448">
        <ele>574.04</ele>
        <time>2021-08-14T08:49:13Z</time>
      </trkpt>
      <trkpt lat="46.05074" lon="3.04477">
        <ele>574.04</ele>
        <time>2021-08-14T08:49:14Z</time>
      </trkpt>
      <trkpt lat="46.05083" lon="3.04445">
        <ele>574.04</ele>
        <time>2021-08-14T08:49:21Z</time>
      </trkpt>
      <trkpt lat="46.05085" lon="3.04412">
        <ele>574.04</ele>
        <time>2021-08-14T08:49:28Z</time>
      </trkpt>
      <trkpt lat="46.05082" lon="3.04379">
        <ele>574.04</ele>
        <time>2021-08-14T08:49:35Z</time>
      </trkpt>
      <trkpt lat="46.05076" lon="3.0434">
        <ele>574.04</ele>
        <time>2021-08-14T08:49:43Z</time>
      </trkpt>
      <trkpt lat="46.05073" lon="3.04334">
        <ele>574.04</ele>
        <time>2021-08-14T08:49:45Z</time>
      </trkpt>
      <trkpt lat="46.0507" lon="3.04334">
        <ele>574.04</ele>
        <time>2021-08-14T08:49:46Z</time>
      </trkpt>
      <trkpt lat="46.05067" lon="3.04337">
        <ele>574.04</ele>
        <time>2021-08-14T08:49:47Z</time>
      </trkpt>
      <trkpt lat="46.05066" lon="3.04342">
        <ele>574.04</ele>
        <time>2021-08-14T08:49:48Z</time>
      </trkpt>
      <trkpt lat="46.05066" lon="3.04347">
        <ele>574.04</ele>
        <time>2021-08-14T08:49:49Z</time>
      </trkpt>
      <trkpt lat="46.05067" lon="3.04354">
        <ele>574.04</ele>
        <time>2021-08-14T08:49:50Z</time>
      </trkpt>
      <trkpt lat="46.05068" lon="3.04385">
        <ele>574.04</ele>
        <time>2021-08-14T08:49:55Z</time>
      </trkpt>
      <trkpt lat="46.05066" lon="3.04412">
        <ele>574.04</ele>
        <time>2021-08-14T08:49:59Z</time>
      </trkpt>
      <trkpt lat="46.05059" lon="3.04453">
        <ele>574.04</ele>
        <time>2021-08-14T08:50:06Z</time>
      </trkpt>
      <trkpt lat="46.05058" lon="3.04459">
        <ele>574.04</ele>
        <time>2021-08-14T08:50:07Z</time>
      </trkpt>
      <trkpt lat="46.05056" lon="3.0447">
        <ele>574.04</ele>
        <time>2021-08-14T08:50:09Z</time>
      </trkpt>
      <trkpt lat="46.05051" lon="3.04487">
        <ele>574.04</ele>
        <time>2021-08-14T08:50:12Z</time>
      </trkpt>
      <trkpt lat="46.05048" lon="3.04492">
        <ele>574.04</ele>
        <time>2021-08-14T08:50:13Z</time>
      </trkpt>
      <trkpt lat="46.05045" lon="3.04497">
        <ele>574.04</ele>
        <time>2021-08-14T08:50:14Z</time>
      </trkpt>
      <trkpt lat="46.05042" lon="3.04503">
        <ele>574.04</ele>
        <time>2021-08-14T08:50:15Z</time>
      </trkpt>
      <trkpt lat="46.0504" lon="3.04508">
        <ele>574.04</ele>
        <time>2021-08-14T08:50:16Z</time>
      </trkpt>
      <trkpt lat="46.05035" lon="3.04519">
        <ele>574.53</ele>
        <time>2021-08-14T08:50:18Z</time>
      </trkpt>
      <trkpt lat="46.05032" lon="3.04523">
        <ele>574.53</ele>
        <time>2021-08-14T08:50:19Z</time>
      </trkpt>
      <trkpt lat="46.05028" lon="3.04525">
        <ele>574.53</ele>
        <time>2021-08-14T08:50:20Z</time>
      </trkpt>
      <trkpt lat="46.05024" lon="3.04528">
        <ele>574.53</ele>
        <time>2021-08-14T08:50:21Z</time>
      </trkpt>
      <trkpt lat="46.05019" lon="3.04529">
        <ele>572.6</ele>
        <time>2021-08-14T08:50:22Z</time>
      </trkpt>
      <trkpt lat="46.05014" lon="3.0453">
        <ele>574.04</ele>
        <time>2021-08-14T08:50:23Z</time>
      </trkpt>
      <trkpt lat="46.0501" lon="3.04529">
        <ele>574.04</ele>
        <time>2021-08-14T08:50:24Z</time>
      </trkpt>
      <trkpt lat="46.05005" lon="3.04528">
        <ele>574.04</ele>
        <time>2021-08-14T08:50:25Z</time>
      </trkpt>
      <trkpt lat="46.0498" lon="3.04525">
        <ele>572.12</ele>
        <time>2021-08-14T08:50:29Z</time>
      </trkpt>
      <trkpt lat="46.04927" lon="3.04517">
        <ele>571.16</ele>
        <time>2021-08-14T08:50:38Z</time>
      </trkpt>
      <trkpt lat="46.04871" lon="3.0451">
        <ele>570.2</ele>
        <time>2021-08-14T08:50:48Z</time>
      </trkpt>
      <trkpt lat="46.04824" lon="3.04507">
        <ele>566.35</ele>
        <time>2021-08-14T08:50:55Z</time>
      </trkpt>
      <trkpt lat="46.04783" lon="3.04506">
        <ele>563.47</ele>
        <time>2021-08-14T08:51:00Z</time>
      </trkpt>
      <trkpt lat="46.04738" lon="3.04499">
        <ele>560.11</ele>
        <time>2021-08-14T08:51:05Z</time>
      </trkpt>
      <trkpt lat="46.04691" lon="3.0449">
        <ele>558.18</ele>
        <time>2021-08-14T08:51:11Z</time>
      </trkpt>
      <trkpt lat="46.04668" lon="3.04484">
        <ele>556.26</ele>
        <time>2021-08-14T08:51:16Z</time>
      </trkpt>
      <trkpt lat="46.04666" lon="3.04482">
        <ele>556.26</ele>
        <time>2021-08-14T08:51:17Z</time>
      </trkpt>
      <trkpt lat="46.04666" lon="3.04479">
        <ele>555.78</ele>
        <time>2021-08-14T08:51:18Z</time>
      </trkpt>
      <trkpt lat="46.04667" lon="3.04474">
        <ele>555.78</ele>
        <time>2021-08-14T08:51:19Z</time>
      </trkpt>
      <trkpt lat="46.04668" lon="3.04469">
        <ele>555.78</ele>
        <time>2021-08-14T08:51:20Z</time>
      </trkpt>
      <trkpt lat="46.0467" lon="3.04464">
        <ele>555.3</ele>
        <time>2021-08-14T08:51:21Z</time>
      </trkpt>
      <trkpt lat="46.04672" lon="3.04458">
        <ele>555.3</ele>
        <time>2021-08-14T08:51:22Z</time>
      </trkpt>
      <trkpt lat="46.04689" lon="3.04412">
        <ele>553.86</ele>
        <time>2021-08-14T08:51:28Z</time>
      </trkpt>
      <trkpt lat="46.04704" lon="3.04356">
        <ele>553.38</ele>
        <time>2021-08-14T08:51:35Z</time>
      </trkpt>
      <trkpt lat="46.04706" lon="3.04349">
        <ele>553.38</ele>
        <time>2021-08-14T08:51:36Z</time>
      </trkpt>
      <trkpt lat="46.04723" lon="3.04304">
        <ele>552.9</ele>
        <time>2021-08-14T08:51:43Z</time>
      </trkpt>
      <trkpt lat="46.04724" lon="3.04296">
        <ele>552.41</ele>
        <time>2021-08-14T08:51:44Z</time>
      </trkpt>
      <trkpt lat="46.04725" lon="3.04289">
        <ele>552.41</ele>
        <time>2021-08-14T08:51:45Z</time>
      </trkpt>
      <trkpt lat="46.04727" lon="3.04259">
        <ele>552.41</ele>
        <time>2021-08-14T08:51:49Z</time>
      </trkpt>
      <trkpt lat="46.04728" lon="3.04207">
        <ele>552.41</ele>
        <time>2021-08-14T08:51:57Z</time>
      </trkpt>
      <trkpt lat="46.04725" lon="3.0417">
        <ele>553.86</ele>
        <time>2021-08-14T08:52:04Z</time>
      </trkpt>
      <trkpt lat="46.04722" lon="3.04153">
        <ele>553.86</ele>
        <time>2021-08-14T08:52:07Z</time>
      </trkpt>
      <trkpt lat="46.04712" lon="3.04125">
        <ele>553.86</ele>
        <time>2021-08-14T08:52:12Z</time>
      </trkpt>
      <trkpt lat="46.04709" lon="3.0412">
        <ele>553.86</ele>
        <time>2021-08-14T08:52:13Z</time>
      </trkpt>
      <trkpt lat="46.04692" lon="3.04096">
        <ele>553.86</ele>
        <time>2021-08-14T08:52:18Z</time>
      </trkpt>
      <trkpt lat="46.04664" lon="3.04058">
        <ele>552.41</ele>
        <time>2021-08-14T08:52:25Z</time>
      </trkpt>
      <trkpt lat="46.04627" lon="3.04008">
        <ele>552.41</ele>
        <time>2021-08-14T08:52:34Z</time>
      </trkpt>
      <trkpt lat="46.04599" lon="3.03974">
        <ele>552.41</ele>
        <time>2021-08-14T08:52:41Z</time>
      </trkpt>
      <trkpt lat="46.04596" lon="3.03969">
        <ele>552.41</ele>
        <time>2021-08-14T08:52:42Z</time>
      </trkpt>
      <trkpt lat="46.04589" lon="3.03959">
        <ele>553.86</ele>
        <time>2021-08-14T08:52:44Z</time>
      </trkpt>
      <trkpt lat="46.04557" lon="3.03913">
        <ele>554.34</ele>
        <time>2021-08-14T08:52:53Z</time>
      </trkpt>
      <trkpt lat="46.04529" lon="3.0388">
        <ele>552.9</ele>
        <time>2021-08-14T08:52:59Z</time>
      </trkpt>
      <trkpt lat="46.04497" lon="3.03845">
        <ele>551.93</ele>
        <time>2021-08-14T08:53:05Z</time>
      </trkpt>
      <trkpt lat="46.0445" lon="3.03796">
        <ele>551.45</ele>
        <time>2021-08-14T08:53:14Z</time>
      </trkpt>
      <trkpt lat="46.04425" lon="3.03772">
        <ele>551.45</ele>
        <time>2021-08-14T08:53:19Z</time>
      </trkpt>
      <trkpt lat="46.04381" lon="3.03729">
        <ele>551.45</ele>
        <time>2021-08-14T08:53:28Z</time>
      </trkpt>
      <trkpt lat="46.04343" lon="3.0369">
        <ele>552.9</ele>
        <time>2021-08-14T08:53:37Z</time>
      </trkpt>
      <trkpt lat="46.04331" lon="3.03678">
        <ele>553.38</ele>
        <time>2021-08-14T08:53:40Z</time>
      </trkpt>
      <trkpt lat="46.04327" lon="3.03673">
        <ele>553.38</ele>
        <time>2021-08-14T08:53:41Z</time>
      </trkpt>
      <trkpt lat="46.04324" lon="3.03668">
        <ele>553.38</ele>
        <time>2021-08-14T08:53:42Z</time>
      </trkpt>
      <trkpt lat="46.04308" lon="3.03651">
        <ele>553.86</ele>
        <time>2021-08-14T08:53:46Z</time>
      </trkpt>
      <trkpt lat="46.04304" lon="3.03646">
        <ele>553.86</ele>
        <time>2021-08-14T08:53:47Z</time>
      </trkpt>
      <trkpt lat="46.04273" lon="3.03599">
        <ele>553.86</ele>
        <time>2021-08-14T08:53:55Z</time>
      </trkpt>
      <trkpt lat="46.04266" lon="3.03585">
        <ele>552.41</ele>
        <time>2021-08-14T08:53:57Z</time>
      </trkpt>
      <trkpt lat="46.04228" lon="3.03521">
        <ele>551.93</ele>
        <time>2021-08-14T08:54:07Z</time>
      </trkpt>
      <trkpt lat="46.04206" lon="3.03484">
        <ele>553.38</ele>
        <time>2021-08-14T08:54:14Z</time>
      </trkpt>
      <trkpt lat="46.04203" lon="3.03479">
        <ele>553.86</ele>
        <time>2021-08-14T08:54:15Z</time>
      </trkpt>
      <trkpt lat="46.04201" lon="3.03474">
        <ele>553.86</ele>
        <time>2021-08-14T08:54:16Z</time>
      </trkpt>
      <trkpt lat="46.04198" lon="3.0347">
        <ele>553.86</ele>
        <time>2021-08-14T08:54:17Z</time>
      </trkpt>
      <trkpt lat="46.04195" lon="3.03466">
        <ele>554.34</ele>
        <time>2021-08-14T08:54:18Z</time>
      </trkpt>
      <trkpt lat="46.04177" lon="3.03437">
        <ele>554.82</ele>
        <time>2021-08-14T08:54:26Z</time>
      </trkpt>
      <trkpt lat="46.04163" lon="3.03416">
        <ele>555.78</ele>
        <time>2021-08-14T08:54:32Z</time>
      </trkpt>
      <trkpt lat="46.04145" lon="3.0339">
        <ele>556.74</ele>
        <time>2021-08-14T08:54:40Z</time>
      </trkpt>
      <trkpt lat="46.04126" lon="3.03365">
        <ele>557.7</ele>
        <time>2021-08-14T08:54:49Z</time>
      </trkpt>
      <trkpt lat="46.04108" lon="3.03344">
        <ele>559.14</ele>
        <time>2021-08-14T08:54:58Z</time>
      </trkpt>
      <trkpt lat="46.04093" lon="3.03325">
        <ele>560.59</ele>
        <time>2021-08-14T08:55:06Z</time>
      </trkpt>
      <trkpt lat="46.04073" lon="3.03302">
        <ele>561.55</ele>
        <time>2021-08-14T08:55:17Z</time>
      </trkpt>
      <trkpt lat="46.04058" lon="3.03287">
        <ele>562.99</ele>
        <time>2021-08-14T08:55:24Z</time>
      </trkpt>
      <trkpt lat="46.04039" lon="3.03264">
        <ele>564.43</ele>
        <time>2021-08-14T08:55:34Z</time>
      </trkpt>
      <trkpt lat="46.04015" lon="3.03244">
        <ele>565.39</ele>
        <time>2021-08-14T08:55:45Z</time>
      </trkpt>
      <trkpt lat="46.04008" lon="3.03237">
        <ele>565.87</ele>
        <time>2021-08-14T08:55:48Z</time>
      </trkpt>
      <trkpt lat="46.04006" lon="3.03215">
        <ele>566.83</ele>
        <time>2021-08-14T08:55:55Z</time>
      </trkpt>
      <trkpt lat="46.04003" lon="3.03179">
        <ele>568.28</ele>
        <time>2021-08-14T08:56:06Z</time>
      </trkpt>
      <trkpt lat="46.03997" lon="3.03153">
        <ele>568.76</ele>
        <time>2021-08-14T08:56:15Z</time>
      </trkpt>
      <trkpt lat="46.03989" lon="3.0313">
        <ele>569.24</ele>
        <time>2021-08-14T08:56:22Z</time>
      </trkpt>
      <trkpt lat="46.03983" lon="3.03104">
        <ele>569.72</ele>
        <time>2021-08-14T08:56:30Z</time>
      </trkpt>
      <trkpt lat="46.03974" lon="3.03066">
        <ele>571.16</ele>
        <time>2021-08-14T08:56:42Z</time>
      </trkpt>
      <trkpt lat="46.03971" lon="3.0305">
        <ele>571.64</ele>
        <time>2021-08-14T08:56:47Z</time>
      </trkpt>
      <trkpt lat="46.03962" lon="3.03017">
        <ele>572.6</ele>
        <time>2021-08-14T08:56:56Z</time>
      </trkpt>
      <trkpt lat="46.03945" lon="3.02976">
        <ele>573.56</ele>
        <time>2021-08-14T08:57:08Z</time>
      </trkpt>
      <trkpt lat="46.03931" lon="3.02949">
        <ele>574.53</ele>
        <time>2021-08-14T08:57:16Z</time>
      </trkpt>
      <trkpt lat="46.03917" lon="3.02933">
        <ele>574.53</ele>
        <time>2021-08-14T08:57:22Z</time>
      </trkpt>
      <trkpt lat="46.03903" lon="3.02915">
        <ele>575.01</ele>
        <time>2021-08-14T08:57:28Z</time>
      </trkpt>
      <trkpt lat="46.03882" lon="3.02884">
        <ele>575.97</ele>
        <time>2021-08-14T08:57:36Z</time>
      </trkpt>
      <trkpt lat="46.03863" lon="3.02845">
        <ele>576.93</ele>
        <time>2021-08-14T08:57:45Z</time>
      </trkpt>
      <trkpt lat="46.03848" lon="3.02802">
        <ele>577.41</ele>
        <time>2021-08-14T08:57:54Z</time>
      </trkpt>
      <trkpt lat="46.03832" lon="3.02759">
        <ele>578.85</ele>
        <time>2021-08-14T08:58:03Z</time>
      </trkpt>
      <trkpt lat="46.03824" lon="3.02731">
        <ele>579.81</ele>
        <time>2021-08-14T08:58:09Z</time>
      </trkpt>
      <trkpt lat="46.03823" lon="3.02726">
        <ele>579.81</ele>
        <time>2021-08-14T08:58:10Z</time>
      </trkpt>
      <trkpt lat="46.03822" lon="3.02721">
        <ele>580.77</ele>
        <time>2021-08-14T08:58:11Z</time>
      </trkpt>
      <trkpt lat="46.03814" lon="3.02676">
        <ele>580.77</ele>
        <time>2021-08-14T08:58:20Z</time>
      </trkpt>
      <trkpt lat="46.0381" lon="3.02658">
        <ele>580.29</ele>
        <time>2021-08-14T08:58:23Z</time>
      </trkpt>
      <trkpt lat="46.03807" lon="3.02645">
        <ele>578.85</ele>
        <time>2021-08-14T08:58:25Z</time>
      </trkpt>
      <trkpt lat="46.03805" lon="3.02638">
        <ele>577.89</ele>
        <time>2021-08-14T08:58:26Z</time>
      </trkpt>
      <trkpt lat="46.03804" lon="3.0263">
        <ele>577.41</ele>
        <time>2021-08-14T08:58:27Z</time>
      </trkpt>
      <trkpt lat="46.03792" lon="3.02587">
        <ele>574.53</ele>
        <time>2021-08-14T08:58:32Z</time>
      </trkpt>
      <trkpt lat="46.03776" lon="3.02551">
        <ele>571.16</ele>
        <time>2021-08-14T08:58:36Z</time>
      </trkpt>
      <trkpt lat="46.03768" lon="3.02537">
        <ele>569.72</ele>
        <time>2021-08-14T08:58:38Z</time>
      </trkpt>
      <trkpt lat="46.03762" lon="3.0252">
        <ele>568.28</ele>
        <time>2021-08-14T08:58:40Z</time>
      </trkpt>
      <trkpt lat="46.03761" lon="3.02513">
        <ele>567.32</ele>
        <time>2021-08-14T08:58:41Z</time>
      </trkpt>
      <trkpt lat="46.0376" lon="3.02505">
        <ele>566.35</ele>
        <time>2021-08-14T08:58:42Z</time>
      </trkpt>
      <trkpt lat="46.03759" lon="3.02496">
        <ele>565.39</ele>
        <time>2021-08-14T08:58:43Z</time>
      </trkpt>
      <trkpt lat="46.03759" lon="3.02489">
        <ele>564.91</ele>
        <time>2021-08-14T08:58:44Z</time>
      </trkpt>
      <trkpt lat="46.0376" lon="3.02481">
        <ele>563.47</ele>
        <time>2021-08-14T08:58:45Z</time>
      </trkpt>
      <trkpt lat="46.0376" lon="3.02474">
        <ele>563.47</ele>
        <time>2021-08-14T08:58:46Z</time>
      </trkpt>
      <trkpt lat="46.0376" lon="3.02466">
        <ele>562.51</ele>
        <time>2021-08-14T08:58:47Z</time>
      </trkpt>
      <trkpt lat="46.03759" lon="3.02459">
        <ele>561.07</ele>
        <time>2021-08-14T08:58:48Z</time>
      </trkpt>
      <trkpt lat="46.03757" lon="3.02452">
        <ele>560.59</ele>
        <time>2021-08-14T08:58:49Z</time>
      </trkpt>
      <trkpt lat="46.03754" lon="3.02444">
        <ele>559.62</ele>
        <time>2021-08-14T08:58:50Z</time>
      </trkpt>
      <trkpt lat="46.03744" lon="3.02419">
        <ele>556.74</ele>
        <time>2021-08-14T08:58:53Z</time>
      </trkpt>
      <trkpt lat="46.0373" lon="3.02393">
        <ele>553.38</ele>
        <time>2021-08-14T08:58:56Z</time>
      </trkpt>
      <trkpt lat="46.03713" lon="3.02363">
        <ele>550.01</ele>
        <time>2021-08-14T08:58:59Z</time>
      </trkpt>
      <trkpt lat="46.03695" lon="3.02335">
        <ele>546.65</ele>
        <time>2021-08-14T08:59:02Z</time>
      </trkpt>
      <trkpt lat="46.03676" lon="3.0231">
        <ele>543.28</ele>
        <time>2021-08-14T08:59:05Z</time>
      </trkpt>
      <trkpt lat="46.03659" lon="3.02285">
        <ele>538.48</ele>
        <time>2021-08-14T08:59:08Z</time>
      </trkpt>
      <trkpt lat="46.03649" lon="3.02267">
        <ele>536.07</ele>
        <time>2021-08-14T08:59:10Z</time>
      </trkpt>
      <trkpt lat="46.03646" lon="3.02257">
        <ele>535.11</ele>
        <time>2021-08-14T08:59:11Z</time>
      </trkpt>
      <trkpt lat="46.03643" lon="3.02246">
        <ele>533.67</ele>
        <time>2021-08-14T08:59:12Z</time>
      </trkpt>
      <trkpt lat="46.03641" lon="3.02235">
        <ele>533.67</ele>
        <time>2021-08-14T08:59:13Z</time>
      </trkpt>
      <trkpt lat="46.03639" lon="3.02225">
        <ele>531.75</ele>
        <time>2021-08-14T08:59:14Z</time>
      </trkpt>
      <trkpt lat="46.03636" lon="3.02212">
        <ele>531.27</ele>
        <time>2021-08-14T08:59:15Z</time>
      </trkpt>
      <trkpt lat="46.03632" lon="3.02203">
        <ele>530.79</ele>
        <time>2021-08-14T08:59:16Z</time>
      </trkpt>
      <trkpt lat="46.03628" lon="3.02195">
        <ele>529.82</ele>
        <time>2021-08-14T08:59:17Z</time>
      </trkpt>
      <trkpt lat="46.03622" lon="3.02187">
        <ele>529.34</ele>
        <time>2021-08-14T08:59:18Z</time>
      </trkpt>
      <trkpt lat="46.03616" lon="3.0218">
        <ele>528.38</ele>
        <time>2021-08-14T08:59:19Z</time>
      </trkpt>
      <trkpt lat="46.0361" lon="3.02174">
        <ele>527.42</ele>
        <time>2021-08-14T08:59:20Z</time>
      </trkpt>
      <trkpt lat="46.03599" lon="3.02162">
        <ele>525.5</ele>
        <time>2021-08-14T08:59:22Z</time>
      </trkpt>
      <trkpt lat="46.03594" lon="3.02154">
        <ele>524.54</ele>
        <time>2021-08-14T08:59:23Z</time>
      </trkpt>
      <trkpt lat="46.0359" lon="3.02145">
        <ele>524.06</ele>
        <time>2021-08-14T08:59:24Z</time>
      </trkpt>
      <trkpt lat="46.03583" lon="3.02128">
        <ele>521.65</ele>
        <time>2021-08-14T08:59:26Z</time>
      </trkpt>
      <trkpt lat="46.03578" lon="3.02121">
        <ele>520.69</ele>
        <time>2021-08-14T08:59:27Z</time>
      </trkpt>
      <trkpt lat="46.03572" lon="3.02115">
        <ele>520.21</ele>
        <time>2021-08-14T08:59:28Z</time>
      </trkpt>
      <trkpt lat="46.03565" lon="3.0211">
        <ele>518.77</ele>
        <time>2021-08-14T08:59:29Z</time>
      </trkpt>
      <trkpt lat="46.03557" lon="3.02105">
        <ele>517.81</ele>
        <time>2021-08-14T08:59:30Z</time>
      </trkpt>
      <trkpt lat="46.03533" lon="3.02092">
        <ele>514.44</ele>
        <time>2021-08-14T08:59:33Z</time>
      </trkpt>
      <trkpt lat="46.03526" lon="3.02086">
        <ele>514.44</ele>
        <time>2021-08-14T08:59:34Z</time>
      </trkpt>
      <trkpt lat="46.03514" lon="3.02078">
        <ele>513.96</ele>
        <time>2021-08-14T08:59:36Z</time>
      </trkpt>
      <trkpt lat="46.03508" lon="3.02076">
        <ele>513</ele>
        <time>2021-08-14T08:59:37Z</time>
      </trkpt>
      <trkpt lat="46.03501" lon="3.02077">
        <ele>513</ele>
        <time>2021-08-14T08:59:38Z</time>
      </trkpt>
      <trkpt lat="46.03495" lon="3.02079">
        <ele>512.04</ele>
        <time>2021-08-14T08:59:39Z</time>
      </trkpt>
      <trkpt lat="46.03488" lon="3.02083">
        <ele>511.08</ele>
        <time>2021-08-14T08:59:40Z</time>
      </trkpt>
      <trkpt lat="46.03482" lon="3.02088">
        <ele>510.6</ele>
        <time>2021-08-14T08:59:41Z</time>
      </trkpt>
      <trkpt lat="46.03475" lon="3.02094">
        <ele>510.6</ele>
        <time>2021-08-14T08:59:42Z</time>
      </trkpt>
      <trkpt lat="46.03468" lon="3.021">
        <ele>509.16</ele>
        <time>2021-08-14T08:59:43Z</time>
      </trkpt>
      <trkpt lat="46.0346" lon="3.02105">
        <ele>508.67</ele>
        <time>2021-08-14T08:59:44Z</time>
      </trkpt>
      <trkpt lat="46.03452" lon="3.02108">
        <ele>508.67</ele>
        <time>2021-08-14T08:59:45Z</time>
      </trkpt>
      <trkpt lat="46.03445" lon="3.02111">
        <ele>508.67</ele>
        <time>2021-08-14T08:59:46Z</time>
      </trkpt>
      <trkpt lat="46.03437" lon="3.02113">
        <ele>508.19</ele>
        <time>2021-08-14T08:59:47Z</time>
      </trkpt>
      <trkpt lat="46.03429" lon="3.02114">
        <ele>508.19</ele>
        <time>2021-08-14T08:59:48Z</time>
      </trkpt>
      <trkpt lat="46.03422" lon="3.02114">
        <ele>507.71</ele>
        <time>2021-08-14T08:59:49Z</time>
      </trkpt>
      <trkpt lat="46.03414" lon="3.02114">
        <ele>507.71</ele>
        <time>2021-08-14T08:59:50Z</time>
      </trkpt>
      <trkpt lat="46.03408" lon="3.02115">
        <ele>507.71</ele>
        <time>2021-08-14T08:59:51Z</time>
      </trkpt>
      <trkpt lat="46.03373" lon="3.02117">
        <ele>507.71</ele>
        <time>2021-08-14T08:59:57Z</time>
      </trkpt>
      <trkpt lat="46.03368" lon="3.02118">
        <ele>507.71</ele>
        <time>2021-08-14T08:59:58Z</time>
      </trkpt>
      <trkpt lat="46.03363" lon="3.02119">
        <ele>507.71</ele>
        <time>2021-08-14T08:59:59Z</time>
      </trkpt>
      <trkpt lat="46.03358" lon="3.02119">
        <ele>507.71</ele>
        <time>2021-08-14T09:00:00Z</time>
      </trkpt>
      <trkpt lat="46.03353" lon="3.0212">
        <ele>507.71</ele>
        <time>2021-08-14T09:00:01Z</time>
      </trkpt>
      <trkpt lat="46.03349" lon="3.0212">
        <ele>507.71</ele>
        <time>2021-08-14T09:00:02Z</time>
      </trkpt>
      <trkpt lat="46.03344" lon="3.02119">
        <ele>507.71</ele>
        <time>2021-08-14T09:00:03Z</time>
      </trkpt>
      <trkpt lat="46.03336" lon="3.02118">
        <ele>507.71</ele>
        <time>2021-08-14T09:00:05Z</time>
      </trkpt>
      <trkpt lat="46.03313" lon="3.02115">
        <ele>507.71</ele>
        <time>2021-08-14T09:00:11Z</time>
      </trkpt>
      <trkpt lat="46.03309" lon="3.02115">
        <ele>507.71</ele>
        <time>2021-08-14T09:00:12Z</time>
      </trkpt>
      <trkpt lat="46.03305" lon="3.02115">
        <ele>507.71</ele>
        <time>2021-08-14T09:00:13Z</time>
      </trkpt>
      <trkpt lat="46.03275" lon="3.02119">
        <ele>507.71</ele>
        <time>2021-08-14T09:00:20Z</time>
      </trkpt>
      <trkpt lat="46.03258" lon="3.02135">
        <ele>509.16</ele>
        <time>2021-08-14T09:00:27Z</time>
      </trkpt>
      <trkpt lat="46.03242" lon="3.02149">
        <ele>510.6</ele>
        <time>2021-08-14T09:00:35Z</time>
      </trkpt>
      <trkpt lat="46.03225" lon="3.02165">
        <ele>511.08</ele>
        <time>2021-08-14T09:00:44Z</time>
      </trkpt>
      <trkpt lat="46.03209" lon="3.02173">
        <ele>512.04</ele>
        <time>2021-08-14T09:00:52Z</time>
      </trkpt>
      <trkpt lat="46.03198" lon="3.02182">
        <ele>512.52</ele>
        <time>2021-08-14T09:00:58Z</time>
      </trkpt>
      <trkpt lat="46.03196" lon="3.02185">
        <ele>512.52</ele>
        <time>2021-08-14T09:00:59Z</time>
      </trkpt>
      <trkpt lat="46.03195" lon="3.02188">
        <ele>513</ele>
        <time>2021-08-14T09:01:00Z</time>
      </trkpt>
      <trkpt lat="46.03194" lon="3.02192">
        <ele>513</ele>
        <time>2021-08-14T09:01:01Z</time>
      </trkpt>
      <trkpt lat="46.03194" lon="3.02197">
        <ele>513</ele>
        <time>2021-08-14T09:01:02Z</time>
      </trkpt>
      <trkpt lat="46.03194" lon="3.02201">
        <ele>513</ele>
        <time>2021-08-14T09:01:03Z</time>
      </trkpt>
      <trkpt lat="46.03201" lon="3.02227">
        <ele>513</ele>
        <time>2021-08-14T09:01:09Z</time>
      </trkpt>
      <trkpt lat="46.03207" lon="3.02243">
        <ele>513</ele>
        <time>2021-08-14T09:01:12Z</time>
      </trkpt>
      <trkpt lat="46.03208" lon="3.02249">
        <ele>511.56</ele>
        <time>2021-08-14T09:01:13Z</time>
      </trkpt>
      <trkpt lat="46.03207" lon="3.02256">
        <ele>511.56</ele>
        <time>2021-08-14T09:01:14Z</time>
      </trkpt>
      <trkpt lat="46.03206" lon="3.02263">
        <ele>511.08</ele>
        <time>2021-08-14T09:01:15Z</time>
      </trkpt>
      <trkpt lat="46.03203" lon="3.02269">
        <ele>510.6</ele>
        <time>2021-08-14T09:01:16Z</time>
      </trkpt>
      <trkpt lat="46.03199" lon="3.02274">
        <ele>510.6</ele>
        <time>2021-08-14T09:01:17Z</time>
      </trkpt>
      <trkpt lat="46.03195" lon="3.02276">
        <ele>510.6</ele>
        <time>2021-08-14T09:01:18Z</time>
      </trkpt>
      <trkpt lat="46.0319" lon="3.02278">
        <ele>510.6</ele>
        <time>2021-08-14T09:01:19Z</time>
      </trkpt>
      <trkpt lat="46.03185" lon="3.02279">
        <ele>510.6</ele>
        <time>2021-08-14T09:01:20Z</time>
      </trkpt>
      <trkpt lat="46.03181" lon="3.0228">
        <ele>510.6</ele>
        <time>2021-08-14T09:01:21Z</time>
      </trkpt>
      <trkpt lat="46.03176" lon="3.0228">
        <ele>510.6</ele>
        <time>2021-08-14T09:01:22Z</time>
      </trkpt>
      <trkpt lat="46.03171" lon="3.0228">
        <ele>510.6</ele>
        <time>2021-08-14T09:01:23Z</time>
      </trkpt>
      <trkpt lat="46.03166" lon="3.02282">
        <ele>510.6</ele>
        <time>2021-08-14T09:01:24Z</time>
      </trkpt>
      <trkpt lat="46.03161" lon="3.02285">
        <ele>510.12</ele>
        <time>2021-08-14T09:01:25Z</time>
      </trkpt>
      <trkpt lat="46.03157" lon="3.02286">
        <ele>510.12</ele>
        <time>2021-08-14T09:01:26Z</time>
      </trkpt>
      <trkpt lat="46.03152" lon="3.02286">
        <ele>510.12</ele>
        <time>2021-08-14T09:01:27Z</time>
      </trkpt>
      <trkpt lat="46.03147" lon="3.02286">
        <ele>510.12</ele>
        <time>2021-08-14T09:01:28Z</time>
      </trkpt>
      <trkpt lat="46.03143" lon="3.02287">
        <ele>510.12</ele>
        <time>2021-08-14T09:01:29Z</time>
      </trkpt>
      <trkpt lat="46.03114" lon="3.02298">
        <ele>509.16</ele>
        <time>2021-08-14T09:01:35Z</time>
      </trkpt>
      <trkpt lat="46.03109" lon="3.023">
        <ele>509.16</ele>
        <time>2021-08-14T09:01:36Z</time>
      </trkpt>
      <trkpt lat="46.03105" lon="3.02304">
        <ele>509.16</ele>
        <time>2021-08-14T09:01:37Z</time>
      </trkpt>
      <trkpt lat="46.03101" lon="3.02307">
        <ele>508.67</ele>
        <time>2021-08-14T09:01:38Z</time>
      </trkpt>
      <trkpt lat="46.03096" lon="3.0231">
        <ele>508.67</ele>
        <time>2021-08-14T09:01:39Z</time>
      </trkpt>
      <trkpt lat="46.03092" lon="3.02311">
        <ele>508.67</ele>
        <time>2021-08-14T09:01:40Z</time>
      </trkpt>
      <trkpt lat="46.03086" lon="3.02312">
        <ele>508.67</ele>
        <time>2021-08-14T09:01:41Z</time>
      </trkpt>
      <trkpt lat="46.03082" lon="3.02313">
        <ele>508.67</ele>
        <time>2021-08-14T09:01:42Z</time>
      </trkpt>
      <trkpt lat="46.03077" lon="3.02316">
        <ele>508.19</ele>
        <time>2021-08-14T09:01:43Z</time>
      </trkpt>
      <trkpt lat="46.03073" lon="3.0232">
        <ele>508.19</ele>
        <time>2021-08-14T09:01:44Z</time>
      </trkpt>
      <trkpt lat="46.03071" lon="3.02325">
        <ele>508.19</ele>
        <time>2021-08-14T09:01:45Z</time>
      </trkpt>
      <trkpt lat="46.03068" lon="3.0233">
        <ele>508.19</ele>
        <time>2021-08-14T09:01:46Z</time>
      </trkpt>
      <trkpt lat="46.03065" lon="3.02334">
        <ele>508.19</ele>
        <time>2021-08-14T09:01:47Z</time>
      </trkpt>
      <trkpt lat="46.03061" lon="3.02339">
        <ele>508.19</ele>
        <time>2021-08-14T09:01:48Z</time>
      </trkpt>
      <trkpt lat="46.03055" lon="3.02347">
        <ele>508.19</ele>
        <time>2021-08-14T09:01:50Z</time>
      </trkpt>
      <trkpt lat="46.03051" lon="3.02349">
        <ele>508.19</ele>
        <time>2021-08-14T09:01:51Z</time>
      </trkpt>
      <trkpt lat="46.03025" lon="3.02362">
        <ele>508.19</ele>
        <time>2021-08-14T09:01:59Z</time>
      </trkpt>
      <trkpt lat="46.03009" lon="3.02369">
        <ele>508.19</ele>
        <time>2021-08-14T09:02:06Z</time>
      </trkpt>
      <trkpt lat="46.03008" lon="3.02369">
        <ele>508.19</ele>
        <time>2021-08-14T09:02:12Z</time>
      </trkpt>
      <trkpt lat="46.03008" lon="3.02369">
        <ele>508.19</ele>
        <time>2021-08-14T09:02:36Z</time>
      </trkpt>
      <trkpt lat="46.03008" lon="3.0237">
        <ele>508.19</ele>
        <time>2021-08-14T09:02:54Z</time>
      </trkpt>
      <trkpt lat="46.03002" lon="3.02371">
        <ele>508.19</ele>
        <time>2021-08-14T09:03:00Z</time>
      </trkpt>
      <trkpt lat="46.02987" lon="3.02378">
        <ele>508.19</ele>
        <time>2021-08-14T09:03:06Z</time>
      </trkpt>
      <trkpt lat="46.02963" lon="3.02388">
        <ele>507.71</ele>
        <time>2021-08-14T09:03:14Z</time>
      </trkpt>
      <trkpt lat="46.02947" lon="3.02402">
        <ele>507.71</ele>
        <time>2021-08-14T09:03:20Z</time>
      </trkpt>
      <trkpt lat="46.02943" lon="3.02407">
        <ele>507.71</ele>
        <time>2021-08-14T09:03:22Z</time>
      </trkpt>
      <trkpt lat="46.02943" lon="3.0241">
        <ele>507.71</ele>
        <time>2021-08-14T09:03:23Z</time>
      </trkpt>
      <trkpt lat="46.02943" lon="3.02412">
        <ele>507.71</ele>
        <time>2021-08-14T09:03:24Z</time>
      </trkpt>
      <trkpt lat="46.02944" lon="3.02413">
        <ele>507.71</ele>
        <time>2021-08-14T09:03:25Z</time>
      </trkpt>
      <trkpt lat="46.02944" lon="3.02417">
        <ele>507.71</ele>
        <time>2021-08-14T09:03:30Z</time>
      </trkpt>
      <trkpt lat="46.02944" lon="3.0242">
        <ele>507.23</ele>
        <time>2021-08-14T09:03:35Z</time>
      </trkpt>
      <trkpt lat="46.02946" lon="3.02419">
        <ele>507.23</ele>
        <time>2021-08-14T09:03:41Z</time>
      </trkpt>
      <trkpt lat="46.02948" lon="3.02419">
        <ele>507.23</ele>
        <time>2021-08-14T09:03:46Z</time>
      </trkpt>
      <trkpt lat="46.0295" lon="3.0242">
        <ele>507.23</ele>
        <time>2021-08-14T09:03:47Z</time>
      </trkpt>
      <trkpt lat="46.02951" lon="3.02423">
        <ele>507.23</ele>
        <time>2021-08-14T09:03:48Z</time>
      </trkpt>
      <trkpt lat="46.02956" lon="3.02445">
        <ele>504.35</ele>
        <time>2021-08-14T09:03:54Z</time>
      </trkpt>
      <trkpt lat="46.02959" lon="3.02456">
        <ele>502.91</ele>
        <time>2021-08-14T09:03:56Z</time>
      </trkpt>
      <trkpt lat="46.0296" lon="3.02462">
        <ele>501.46</ele>
        <time>2021-08-14T09:03:57Z</time>
      </trkpt>
      <trkpt lat="46.02962" lon="3.02467">
        <ele>500.98</ele>
        <time>2021-08-14T09:03:58Z</time>
      </trkpt>
      <trkpt lat="46.02968" lon="3.02479">
        <ele>498.58</ele>
        <time>2021-08-14T09:04:00Z</time>
      </trkpt>
      <trkpt lat="46.0297" lon="3.02486">
        <ele>497.14</ele>
        <time>2021-08-14T09:04:01Z</time>
      </trkpt>
      <trkpt lat="46.02972" lon="3.02493">
        <ele>496.18</ele>
        <time>2021-08-14T09:04:02Z</time>
      </trkpt>
      <trkpt lat="46.02973" lon="3.025">
        <ele>494.74</ele>
        <time>2021-08-14T09:04:03Z</time>
      </trkpt>
      <trkpt lat="46.02974" lon="3.02508">
        <ele>493.77</ele>
        <time>2021-08-14T09:04:04Z</time>
      </trkpt>
      <trkpt lat="46.02976" lon="3.02529">
        <ele>490.41</ele>
        <time>2021-08-14T09:04:07Z</time>
      </trkpt>
      <trkpt lat="46.02976" lon="3.02537">
        <ele>488.97</ele>
        <time>2021-08-14T09:04:08Z</time>
      </trkpt>
      <trkpt lat="46.02975" lon="3.02565">
        <ele>485.12</ele>
        <time>2021-08-14T09:04:11Z</time>
      </trkpt>
      <trkpt lat="46.02975" lon="3.02583">
        <ele>482.24</ele>
        <time>2021-08-14T09:04:13Z</time>
      </trkpt>
      <trkpt lat="46.02975" lon="3.02601">
        <ele>479.84</ele>
        <time>2021-08-14T09:04:15Z</time>
      </trkpt>
      <trkpt lat="46.02977" lon="3.02612">
        <ele>478.39</ele>
        <time>2021-08-14T09:04:16Z</time>
      </trkpt>
      <trkpt lat="46.02979" lon="3.02619">
        <ele>477.43</ele>
        <time>2021-08-14T09:04:17Z</time>
      </trkpt>
      <trkpt lat="46.02981" lon="3.02626">
        <ele>476.47</ele>
        <time>2021-08-14T09:04:18Z</time>
      </trkpt>
      <trkpt lat="46.02984" lon="3.02633">
        <ele>475.03</ele>
        <time>2021-08-14T09:04:19Z</time>
      </trkpt>
      <trkpt lat="46.0299" lon="3.02647">
        <ele>472.14</ele>
        <time>2021-08-14T09:04:21Z</time>
      </trkpt>
      <trkpt lat="46.02994" lon="3.02652">
        <ele>471.18</ele>
        <time>2021-08-14T09:04:22Z</time>
      </trkpt>
      <trkpt lat="46.02998" lon="3.02656">
        <ele>470.22</ele>
        <time>2021-08-14T09:04:23Z</time>
      </trkpt>
      <trkpt lat="46.03008" lon="3.02661">
        <ele>468.3</ele>
        <time>2021-08-14T09:04:25Z</time>
      </trkpt>
      <trkpt lat="46.03012" lon="3.02665">
        <ele>466.86</ele>
        <time>2021-08-14T09:04:26Z</time>
      </trkpt>
      <trkpt lat="46.0302" lon="3.02672">
        <ele>466.38</ele>
        <time>2021-08-14T09:04:28Z</time>
      </trkpt>
      <trkpt lat="46.03022" lon="3.02677">
        <ele>465.9</ele>
        <time>2021-08-14T09:04:30Z</time>
      </trkpt>
      <trkpt lat="46.03021" lon="3.02679">
        <ele>464.93</ele>
        <time>2021-08-14T09:04:31Z</time>
      </trkpt>
      <trkpt lat="46.03022" lon="3.02681">
        <ele>465.9</ele>
        <time>2021-08-14T09:04:36Z</time>
      </trkpt>
      <trkpt lat="46.03022" lon="3.02685">
        <ele>465.42</ele>
        <time>2021-08-14T09:04:43Z</time>
      </trkpt>
      <trkpt lat="46.03019" lon="3.0269">
        <ele>465.42</ele>
        <time>2021-08-14T09:04:49Z</time>
      </trkpt>
      <trkpt lat="46.03011" lon="3.02702">
        <ele>465.42</ele>
        <time>2021-08-14T09:04:56Z</time>
      </trkpt>
      <trkpt lat="46.02999" lon="3.02719">
        <ele>465.42</ele>
        <time>2021-08-14T09:05:04Z</time>
      </trkpt>
      <trkpt lat="46.02992" lon="3.0273">
        <ele>466.86</ele>
        <time>2021-08-14T09:05:08Z</time>
      </trkpt>
      <trkpt lat="46.02989" lon="3.02753">
        <ele>467.34</ele>
        <time>2021-08-14T09:05:15Z</time>
      </trkpt>
      <trkpt lat="46.02977" lon="3.02774">
        <ele>467.34</ele>
        <time>2021-08-14T09:05:22Z</time>
      </trkpt>
      <trkpt lat="46.0295" lon="3.02787">
        <ele>467.34</ele>
        <time>2021-08-14T09:05:30Z</time>
      </trkpt>
      <trkpt lat="46.02934" lon="3.02792">
        <ele>467.34</ele>
        <time>2021-08-14T09:05:35Z</time>
      </trkpt>
      <trkpt lat="46.02913" lon="3.02804">
        <ele>467.34</ele>
        <time>2021-08-14T09:05:41Z</time>
      </trkpt>
      <trkpt lat="46.02891" lon="3.02818">
        <ele>467.34</ele>
        <time>2021-08-14T09:05:48Z</time>
      </trkpt>
      <trkpt lat="46.02869" lon="3.02836">
        <ele>467.34</ele>
        <time>2021-08-14T09:05:55Z</time>
      </trkpt>
      <trkpt lat="46.02854" lon="3.02859">
        <ele>465.42</ele>
        <time>2021-08-14T09:06:00Z</time>
      </trkpt>
      <trkpt lat="46.02852" lon="3.02866">
        <ele>464.93</ele>
        <time>2021-08-14T09:06:01Z</time>
      </trkpt>
      <trkpt lat="46.02833" lon="3.02921">
        <ele>462.05</ele>
        <time>2021-08-14T09:06:08Z</time>
      </trkpt>
      <trkpt lat="46.02827" lon="3.02935">
        <ele>462.05</ele>
        <time>2021-08-14T09:06:10Z</time>
      </trkpt>
      <trkpt lat="46.02824" lon="3.02942">
        <ele>462.05</ele>
        <time>2021-08-14T09:06:11Z</time>
      </trkpt>
      <trkpt lat="46.02823" lon="3.02948">
        <ele>462.05</ele>
        <time>2021-08-14T09:06:12Z</time>
      </trkpt>
      <trkpt lat="46.02822" lon="3.02953">
        <ele>462.05</ele>
        <time>2021-08-14T09:06:13Z</time>
      </trkpt>
      <trkpt lat="46.0282" lon="3.02958">
        <ele>462.53</ele>
        <time>2021-08-14T09:06:14Z</time>
      </trkpt>
      <trkpt lat="46.02819" lon="3.02963">
        <ele>462.53</ele>
        <time>2021-08-14T09:06:15Z</time>
      </trkpt>
      <trkpt lat="46.02818" lon="3.02967">
        <ele>462.53</ele>
        <time>2021-08-14T09:06:16Z</time>
      </trkpt>
      <trkpt lat="46.0281" lon="3.02994">
        <ele>462.05</ele>
        <time>2021-08-14T09:06:21Z</time>
      </trkpt>
      <trkpt lat="46.02804" lon="3.03037">
        <ele>461.09</ele>
        <time>2021-08-14T09:06:27Z</time>
      </trkpt>
      <trkpt lat="46.02801" lon="3.03111">
        <ele>458.21</ele>
        <time>2021-08-14T09:06:35Z</time>
      </trkpt>
      <trkpt lat="46.02803" lon="3.03132">
        <ele>457.72</ele>
        <time>2021-08-14T09:06:37Z</time>
      </trkpt>
      <trkpt lat="46.02804" lon="3.03141">
        <ele>457.24</ele>
        <time>2021-08-14T09:06:38Z</time>
      </trkpt>
      <trkpt lat="46.02807" lon="3.0315">
        <ele>457.24</ele>
        <time>2021-08-14T09:06:39Z</time>
      </trkpt>
      <trkpt lat="46.02808" lon="3.03167">
        <ele>457.24</ele>
        <time>2021-08-14T09:06:41Z</time>
      </trkpt>
      <trkpt lat="46.02807" lon="3.03174">
        <ele>456.76</ele>
        <time>2021-08-14T09:06:42Z</time>
      </trkpt>
      <trkpt lat="46.02808" lon="3.03185">
        <ele>456.76</ele>
        <time>2021-08-14T09:06:43Z</time>
      </trkpt>
      <trkpt lat="46.02808" lon="3.03194">
        <ele>456.76</ele>
        <time>2021-08-14T09:06:44Z</time>
      </trkpt>
      <trkpt lat="46.02808" lon="3.03204">
        <ele>456.28</ele>
        <time>2021-08-14T09:06:45Z</time>
      </trkpt>
      <trkpt lat="46.02813" lon="3.0325">
        <ele>456.28</ele>
        <time>2021-08-14T09:06:51Z</time>
      </trkpt>
      <trkpt lat="46.02814" lon="3.03256">
        <ele>456.28</ele>
        <time>2021-08-14T09:06:52Z</time>
      </trkpt>
      <trkpt lat="46.02821" lon="3.03284">
        <ele>455.8</ele>
        <time>2021-08-14T09:06:56Z</time>
      </trkpt>
      <trkpt lat="46.02822" lon="3.03291">
        <ele>455.8</ele>
        <time>2021-08-14T09:06:57Z</time>
      </trkpt>
      <trkpt lat="46.02822" lon="3.03297">
        <ele>455.8</ele>
        <time>2021-08-14T09:06:58Z</time>
      </trkpt>
      <trkpt lat="46.02822" lon="3.03304">
        <ele>455.8</ele>
        <time>2021-08-14T09:06:59Z</time>
      </trkpt>
      <trkpt lat="46.02821" lon="3.03309">
        <ele>455.8</ele>
        <time>2021-08-14T09:07:00Z</time>
      </trkpt>
      <trkpt lat="46.02818" lon="3.03314">
        <ele>455.8</ele>
        <time>2021-08-14T09:07:01Z</time>
      </trkpt>
      <trkpt lat="46.02814" lon="3.03317">
        <ele>455.8</ele>
        <time>2021-08-14T09:07:02Z</time>
      </trkpt>
      <trkpt lat="46.02812" lon="3.03319">
        <ele>455.8</ele>
        <time>2021-08-14T09:07:03Z</time>
      </trkpt>
      <trkpt lat="46.02801" lon="3.03326">
        <ele>455.8</ele>
        <time>2021-08-14T09:07:06Z</time>
      </trkpt>
      <trkpt lat="46.02797" lon="3.03326">
        <ele>455.8</ele>
        <time>2021-08-14T09:07:07Z</time>
      </trkpt>
      <trkpt lat="46.02769" lon="3.03328">
        <ele>456.28</ele>
        <time>2021-08-14T09:07:14Z</time>
      </trkpt>
      <trkpt lat="46.02761" lon="3.03329">
        <ele>458.21</ele>
        <time>2021-08-14T09:07:19Z</time>
      </trkpt>
      <trkpt lat="46.02759" lon="3.03329">
        <ele>458.21</ele>
        <time>2021-08-14T09:07:20Z</time>
      </trkpt>
      <trkpt lat="46.02757" lon="3.03331">
        <ele>458.21</ele>
        <time>2021-08-14T09:07:21Z</time>
      </trkpt>
      <trkpt lat="46.02756" lon="3.03332">
        <ele>458.69</ele>
        <time>2021-08-14T09:07:22Z</time>
      </trkpt>
      <trkpt lat="46.0274" lon="3.03341">
        <ele>459.17</ele>
        <time>2021-08-14T09:07:31Z</time>
      </trkpt>
      <trkpt lat="46.02733" lon="3.03347">
        <ele>459.65</ele>
        <time>2021-08-14T09:07:36Z</time>
      </trkpt>
      <trkpt lat="46.02721" lon="3.03359">
        <ele>459.65</ele>
        <time>2021-08-14T09:07:42Z</time>
      </trkpt>
      <trkpt lat="46.02712" lon="3.03364">
        <ele>460.13</ele>
        <time>2021-08-14T09:07:48Z</time>
      </trkpt>
      <trkpt lat="46.02701" lon="3.0337">
        <ele>461.09</ele>
        <time>2021-08-14T09:07:55Z</time>
      </trkpt>
      <trkpt lat="46.02687" lon="3.03379">
        <ele>462.05</ele>
        <time>2021-08-14T09:08:04Z</time>
      </trkpt>
      <trkpt lat="46.02675" lon="3.03386">
        <ele>463.01</ele>
        <time>2021-08-14T09:08:12Z</time>
      </trkpt>
      <trkpt lat="46.02669" lon="3.03391">
        <ele>463.01</ele>
        <time>2021-08-14T09:08:20Z</time>
      </trkpt>
      <trkpt lat="46.02668" lon="3.03391">
        <ele>463.01</ele>
        <time>2021-08-14T09:08:28Z</time>
      </trkpt>
      <trkpt lat="46.02667" lon="3.03394">
        <ele>463.01</ele>
        <time>2021-08-14T09:08:48Z</time>
      </trkpt>
      <trkpt lat="46.02666" lon="3.03392">
        <ele>463.01</ele>
        <time>2021-08-14T09:09:10Z</time>
      </trkpt>
      <trkpt lat="46.02667" lon="3.03389">
        <ele>463.01</ele>
        <time>2021-08-14T09:09:32Z</time>
      </trkpt>
      <trkpt lat="46.02668" lon="3.03389">
        <ele>463.01</ele>
        <time>2021-08-14T09:09:59Z</time>
      </trkpt>
      <trkpt lat="46.0267" lon="3.03387">
        <ele>463.01</ele>
        <time>2021-08-14T09:10:28Z</time>
      </trkpt>
      <trkpt lat="46.02669" lon="3.03391">
        <ele>463.01</ele>
        <time>2021-08-14T09:10:52Z</time>
      </trkpt>
      <trkpt lat="46.02665" lon="3.03389">
        <ele>463.01</ele>
        <time>2021-08-14T09:11:20Z</time>
      </trkpt>
      <trkpt lat="46.02667" lon="3.03388">
        <ele>463.49</ele>
        <time>2021-08-14T09:11:41Z</time>
      </trkpt>
      <trkpt lat="46.02667" lon="3.03389">
        <ele>463.49</ele>
        <time>2021-08-14T09:11:45Z</time>
      </trkpt>
      <trkpt lat="46.02667" lon="3.03392">
        <ele>463.49</ele>
        <time>2021-08-14T09:11:46Z</time>
      </trkpt>
      <trkpt lat="46.02667" lon="3.03391">
        <ele>463.49</ele>
        <time>2021-08-14T09:11:50Z</time>
      </trkpt>
      <trkpt lat="46.02666" lon="3.0339">
        <ele>463.49</ele>
        <time>2021-08-14T09:12:16Z</time>
      </trkpt>
      <trkpt lat="46.02666" lon="3.0339">
        <ele>463.49</ele>
        <time>2021-08-14T09:12:42Z</time>
      </trkpt>
      <trkpt lat="46.02664" lon="3.03388">
        <ele>463.49</ele>
        <time>2021-08-14T09:13:08Z</time>
      </trkpt>
      <trkpt lat="46.02664" lon="3.03384">
        <ele>463.49</ele>
        <time>2021-08-14T09:13:31Z</time>
      </trkpt>
      <trkpt lat="46.02666" lon="3.03392">
        <ele>463.49</ele>
        <time>2021-08-14T09:13:51Z</time>
      </trkpt>
      <trkpt lat="46.02671" lon="3.0339">
        <ele>463.49</ele>
        <time>2021-08-14T09:14:19Z</time>
      </trkpt>
      <trkpt lat="46.02668" lon="3.03389">
        <ele>463.49</ele>
        <time>2021-08-14T09:14:38Z</time>
      </trkpt>
      <trkpt lat="46.02664" lon="3.0339">
        <ele>463.49</ele>
        <time>2021-08-14T09:14:57Z</time>
      </trkpt>
      <trkpt lat="46.02662" lon="3.03389">
        <ele>463.49</ele>
        <time>2021-08-14T09:15:19Z</time>
      </trkpt>
      <trkpt lat="46.02662" lon="3.0339">
        <ele>463.49</ele>
        <time>2021-08-14T09:15:39Z</time>
      </trkpt>
      <trkpt lat="46.02666" lon="3.03395">
        <ele>463.49</ele>
        <time>2021-08-14T09:16:02Z</time>
      </trkpt>
      <trkpt lat="46.02668" lon="3.03394">
        <ele>463.49</ele>
        <time>2021-08-14T09:16:14Z</time>
      </trkpt>
      <trkpt lat="46.02668" lon="3.03393">
        <ele>463.49</ele>
        <time>2021-08-14T09:16:31Z</time>
      </trkpt>
      <trkpt lat="46.02668" lon="3.03395">
        <ele>463.49</ele>
        <time>2021-08-14T09:16:43Z</time>
      </trkpt>
      <trkpt lat="46.02667" lon="3.03396">
        <ele>463.49</ele>
        <time>2021-08-14T09:16:44Z</time>
      </trkpt>
      <trkpt lat="46.02663" lon="3.03398">
        <ele>463.49</ele>
        <time>2021-08-14T09:16:49Z</time>
      </trkpt>
      <trkpt lat="46.02666" lon="3.03399">
        <ele>463.01</ele>
        <time>2021-08-14T09:17:05Z</time>
      </trkpt>
      <trkpt lat="46.02665" lon="3.034">
        <ele>463.01</ele>
        <time>2021-08-14T09:17:14Z</time>
      </trkpt>
      <trkpt lat="46.02657" lon="3.03407">
        <ele>462.05</ele>
        <time>2021-08-14T09:17:20Z</time>
      </trkpt>
      <trkpt lat="46.02655" lon="3.03409">
        <ele>462.05</ele>
        <time>2021-08-14T09:17:21Z</time>
      </trkpt>
      <trkpt lat="46.02644" lon="3.03412">
        <ele>459.65</ele>
        <time>2021-08-14T09:17:26Z</time>
      </trkpt>
      <trkpt lat="46.0264" lon="3.03411">
        <ele>459.65</ele>
        <time>2021-08-14T09:17:27Z</time>
      </trkpt>
      <trkpt lat="46.02623" lon="3.03405">
        <ele>459.17</ele>
        <time>2021-08-14T09:17:32Z</time>
      </trkpt>
      <trkpt lat="46.02613" lon="3.03409">
        <ele>458.69</ele>
        <time>2021-08-14T09:17:37Z</time>
      </trkpt>
      <trkpt lat="46.02606" lon="3.0341">
        <ele>458.69</ele>
        <time>2021-08-14T09:17:46Z</time>
      </trkpt>
      <trkpt lat="46.026" lon="3.03407">
        <ele>458.69</ele>
        <time>2021-08-14T09:17:54Z</time>
      </trkpt>
      <trkpt lat="46.02597" lon="3.03407">
        <ele>458.69</ele>
        <time>2021-08-14T09:18:01Z</time>
      </trkpt>
      <trkpt lat="46.02592" lon="3.03404">
        <ele>458.69</ele>
        <time>2021-08-14T09:18:10Z</time>
      </trkpt>
      <trkpt lat="46.02585" lon="3.03403">
        <ele>458.69</ele>
        <time>2021-08-14T09:18:16Z</time>
      </trkpt>
      <trkpt lat="46.0258" lon="3.03402">
        <ele>459.65</ele>
        <time>2021-08-14T09:18:21Z</time>
      </trkpt>
      <trkpt lat="46.02574" lon="3.03401">
        <ele>460.61</ele>
        <time>2021-08-14T09:18:28Z</time>
      </trkpt>
      <trkpt lat="46.02572" lon="3.03396">
        <ele>461.09</ele>
        <time>2021-08-14T09:18:33Z</time>
      </trkpt>
      <trkpt lat="46.02569" lon="3.0339">
        <ele>461.57</ele>
        <time>2021-08-14T09:18:39Z</time>
      </trkpt>
      <trkpt lat="46.02566" lon="3.03385">
        <ele>461.57</ele>
        <time>2021-08-14T09:18:46Z</time>
      </trkpt>
      <trkpt lat="46.02563" lon="3.03381">
        <ele>463.01</ele>
        <time>2021-08-14T09:18:54Z</time>
      </trkpt>
      <trkpt lat="46.02561" lon="3.03374">
        <ele>463.49</ele>
        <time>2021-08-14T09:19:03Z</time>
      </trkpt>
      <trkpt lat="46.02558" lon="3.03372">
        <ele>464.45</ele>
        <time>2021-08-14T09:19:10Z</time>
      </trkpt>
      <trkpt lat="46.02556" lon="3.03367">
        <ele>465.42</ele>
        <time>2021-08-14T09:19:16Z</time>
      </trkpt>
      <trkpt lat="46.02556" lon="3.0336">
        <ele>465.9</ele>
        <time>2021-08-14T09:19:25Z</time>
      </trkpt>
      <trkpt lat="46.02554" lon="3.03352">
        <ele>466.86</ele>
        <time>2021-08-14T09:19:32Z</time>
      </trkpt>
      <trkpt lat="46.02553" lon="3.03344">
        <ele>467.82</ele>
        <time>2021-08-14T09:19:39Z</time>
      </trkpt>
      <trkpt lat="46.02551" lon="3.03335">
        <ele>468.78</ele>
        <time>2021-08-14T09:19:47Z</time>
      </trkpt>
      <trkpt lat="46.02552" lon="3.03328">
        <ele>469.26</ele>
        <time>2021-08-14T09:19:52Z</time>
      </trkpt>
      <trkpt lat="46.02552" lon="3.03317">
        <ele>469.74</ele>
        <time>2021-08-14T09:19:59Z</time>
      </trkpt>
      <trkpt lat="46.0255" lon="3.03306">
        <ele>470.7</ele>
        <time>2021-08-14T09:20:08Z</time>
      </trkpt>
      <trkpt lat="46.02547" lon="3.03296">
        <ele>471.66</ele>
        <time>2021-08-14T09:20:15Z</time>
      </trkpt>
      <trkpt lat="46.02541" lon="3.03285">
        <ele>472.14</ele>
        <time>2021-08-14T09:20:23Z</time>
      </trkpt>
      <trkpt lat="46.0254" lon="3.03274">
        <ele>473.11</ele>
        <time>2021-08-14T09:20:30Z</time>
      </trkpt>
      <trkpt lat="46.02539" lon="3.03269">
        <ele>473.59</ele>
        <time>2021-08-14T09:20:37Z</time>
      </trkpt>
      <trkpt lat="46.02538" lon="3.03263">
        <ele>474.07</ele>
        <time>2021-08-14T09:20:44Z</time>
      </trkpt>
      <trkpt lat="46.02537" lon="3.03254">
        <ele>475.51</ele>
        <time>2021-08-14T09:20:51Z</time>
      </trkpt>
      <trkpt lat="46.02534" lon="3.03245">
        <ele>475.99</ele>
        <time>2021-08-14T09:20:59Z</time>
      </trkpt>
      <trkpt lat="46.02529" lon="3.03235">
        <ele>476.95</ele>
        <time>2021-08-14T09:21:07Z</time>
      </trkpt>
      <trkpt lat="46.02528" lon="3.03231">
        <ele>477.91</ele>
        <time>2021-08-14T09:21:14Z</time>
      </trkpt>
      <trkpt lat="46.02526" lon="3.03227">
        <ele>478.87</ele>
        <time>2021-08-14T09:21:21Z</time>
      </trkpt>
      <trkpt lat="46.02523" lon="3.03221">
        <ele>479.35</ele>
        <time>2021-08-14T09:21:28Z</time>
      </trkpt>
      <trkpt lat="46.0252" lon="3.03211">
        <ele>480.32</ele>
        <time>2021-08-14T09:21:35Z</time>
      </trkpt>
      <trkpt lat="46.02518" lon="3.03209">
        <ele>481.28</ele>
        <time>2021-08-14T09:21:40Z</time>
      </trkpt>
      <trkpt lat="46.02517" lon="3.03209">
        <ele>481.76</ele>
        <time>2021-08-14T09:21:43Z</time>
      </trkpt>
      <trkpt lat="46.02517" lon="3.0321">
        <ele>481.76</ele>
        <time>2021-08-14T09:21:44Z</time>
      </trkpt>
      <trkpt lat="46.02516" lon="3.03207">
        <ele>482.24</ele>
        <time>2021-08-14T09:21:48Z</time>
      </trkpt>
      <trkpt lat="46.02516" lon="3.032">
        <ele>483.2</ele>
        <time>2021-08-14T09:21:54Z</time>
      </trkpt>
      <trkpt lat="46.02515" lon="3.03197">
        <ele>483.68</ele>
        <time>2021-08-14T09:22:01Z</time>
      </trkpt>
      <trkpt lat="46.0251" lon="3.03194">
        <ele>485.12</ele>
        <time>2021-08-14T09:22:10Z</time>
      </trkpt>
      <trkpt lat="46.02507" lon="3.03186">
        <ele>486.08</ele>
        <time>2021-08-14T09:22:17Z</time>
      </trkpt>
      <trkpt lat="46.02505" lon="3.03184">
        <ele>487.05</ele>
        <time>2021-08-14T09:22:24Z</time>
      </trkpt>
      <trkpt lat="46.02504" lon="3.03182">
        <ele>487.05</ele>
        <time>2021-08-14T09:22:33Z</time>
      </trkpt>
      <trkpt lat="46.02501" lon="3.03179">
        <ele>488.01</ele>
        <time>2021-08-14T09:22:39Z</time>
      </trkpt>
      <trkpt lat="46.02499" lon="3.03178">
        <ele>488.49</ele>
        <time>2021-08-14T09:22:44Z</time>
      </trkpt>
      <trkpt lat="46.02496" lon="3.03176">
        <ele>489.45</ele>
        <time>2021-08-14T09:22:46Z</time>
      </trkpt>
      <trkpt lat="46.02493" lon="3.03175">
        <ele>489.93</ele>
        <time>2021-08-14T09:22:52Z</time>
      </trkpt>
      <trkpt lat="46.02489" lon="3.03172">
        <ele>490.41</ele>
        <time>2021-08-14T09:23:00Z</time>
      </trkpt>
      <trkpt lat="46.02485" lon="3.03171">
        <ele>491.37</ele>
        <time>2021-08-14T09:23:07Z</time>
      </trkpt>
      <trkpt lat="46.02482" lon="3.03171">
        <ele>492.33</ele>
        <time>2021-08-14T09:23:15Z</time>
      </trkpt>
      <trkpt lat="46.02479" lon="3.0317">
        <ele>493.77</ele>
        <time>2021-08-14T09:23:22Z</time>
      </trkpt>
      <trkpt lat="46.02475" lon="3.03169">
        <ele>495.22</ele>
        <time>2021-08-14T09:23:29Z</time>
      </trkpt>
      <trkpt lat="46.02469" lon="3.03169">
        <ele>495.7</ele>
        <time>2021-08-14T09:23:36Z</time>
      </trkpt>
      <trkpt lat="46.02465" lon="3.03167">
        <ele>497.14</ele>
        <time>2021-08-14T09:23:43Z</time>
      </trkpt>
      <trkpt lat="46.0246" lon="3.03165">
        <ele>498.1</ele>
        <time>2021-08-14T09:23:50Z</time>
      </trkpt>
      <trkpt lat="46.02452" lon="3.03162">
        <ele>499.06</ele>
        <time>2021-08-14T09:23:57Z</time>
      </trkpt>
      <trkpt lat="46.02447" lon="3.03161">
        <ele>500.02</ele>
        <time>2021-08-14T09:24:03Z</time>
      </trkpt>
      <trkpt lat="46.02439" lon="3.03161">
        <ele>500.98</ele>
        <time>2021-08-14T09:24:11Z</time>
      </trkpt>
      <trkpt lat="46.02434" lon="3.0316">
        <ele>502.43</ele>
        <time>2021-08-14T09:24:18Z</time>
      </trkpt>
      <trkpt lat="46.02429" lon="3.03161">
        <ele>503.39</ele>
        <time>2021-08-14T09:24:24Z</time>
      </trkpt>
      <trkpt lat="46.02423" lon="3.03161">
        <ele>504.35</ele>
        <time>2021-08-14T09:24:31Z</time>
      </trkpt>
      <trkpt lat="46.02411" lon="3.03155">
        <ele>504.83</ele>
        <time>2021-08-14T09:24:38Z</time>
      </trkpt>
      <trkpt lat="46.02406" lon="3.03157">
        <ele>506.27</ele>
        <time>2021-08-14T09:24:48Z</time>
      </trkpt>
      <trkpt lat="46.02402" lon="3.03159">
        <ele>506.75</ele>
        <time>2021-08-14T09:24:54Z</time>
      </trkpt>
      <trkpt lat="46.02401" lon="3.03163">
        <ele>508.19</ele>
        <time>2021-08-14T09:25:02Z</time>
      </trkpt>
      <trkpt lat="46.024" lon="3.03174">
        <ele>509.64</ele>
        <time>2021-08-14T09:25:12Z</time>
      </trkpt>
      <trkpt lat="46.024" lon="3.03179">
        <ele>510.6</ele>
        <time>2021-08-14T09:25:20Z</time>
      </trkpt>
      <trkpt lat="46.02403" lon="3.03186">
        <ele>511.56</ele>
        <time>2021-08-14T09:25:30Z</time>
      </trkpt>
      <trkpt lat="46.02405" lon="3.03191">
        <ele>513</ele>
        <time>2021-08-14T09:25:36Z</time>
      </trkpt>
      <trkpt lat="46.02408" lon="3.03196">
        <ele>513.48</ele>
        <time>2021-08-14T09:25:42Z</time>
      </trkpt>
      <trkpt lat="46.02412" lon="3.03206">
        <ele>514.44</ele>
        <time>2021-08-14T09:25:52Z</time>
      </trkpt>
      <trkpt lat="46.02414" lon="3.03215">
        <ele>515.4</ele>
        <time>2021-08-14T09:25:59Z</time>
      </trkpt>
      <trkpt lat="46.02417" lon="3.03226">
        <ele>515.88</ele>
        <time>2021-08-14T09:26:08Z</time>
      </trkpt>
      <trkpt lat="46.02417" lon="3.03234">
        <ele>516.85</ele>
        <time>2021-08-14T09:26:15Z</time>
      </trkpt>
      <trkpt lat="46.0242" lon="3.03243">
        <ele>517.33</ele>
        <time>2021-08-14T09:26:23Z</time>
      </trkpt>
      <trkpt lat="46.02421" lon="3.03251">
        <ele>518.77</ele>
        <time>2021-08-14T09:26:31Z</time>
      </trkpt>
      <trkpt lat="46.02421" lon="3.03258">
        <ele>519.73</ele>
        <time>2021-08-14T09:26:40Z</time>
      </trkpt>
      <trkpt lat="46.02419" lon="3.03256">
        <ele>520.69</ele>
        <time>2021-08-14T09:26:46Z</time>
      </trkpt>
      <trkpt lat="46.02415" lon="3.03252">
        <ele>521.17</ele>
        <time>2021-08-14T09:26:53Z</time>
      </trkpt>
      <trkpt lat="46.0241" lon="3.0325">
        <ele>522.13</ele>
        <time>2021-08-14T09:27:00Z</time>
      </trkpt>
      <trkpt lat="46.02404" lon="3.03247">
        <ele>523.09</ele>
        <time>2021-08-14T09:27:09Z</time>
      </trkpt>
      <trkpt lat="46.02399" lon="3.03245">
        <ele>524.54</ele>
        <time>2021-08-14T09:27:17Z</time>
      </trkpt>
      <trkpt lat="46.02397" lon="3.0324">
        <ele>524.54</ele>
        <time>2021-08-14T09:27:28Z</time>
      </trkpt>
      <trkpt lat="46.02397" lon="3.0324">
        <ele>524.54</ele>
        <time>2021-08-14T09:27:45Z</time>
      </trkpt>
      <trkpt lat="46.02395" lon="3.03238">
        <ele>525.02</ele>
        <time>2021-08-14T09:28:10Z</time>
      </trkpt>
      <trkpt lat="46.02394" lon="3.03238">
        <ele>525.02</ele>
        <time>2021-08-14T09:28:31Z</time>
      </trkpt>
      <trkpt lat="46.02393" lon="3.03227">
        <ele>499.06</ele>
        <time>2021-08-14T09:28:58Z</time>
      </trkpt>
      <trkpt lat="46.02394" lon="3.03239">
        <ele>500.02</ele>
        <time>2021-08-14T09:29:10Z</time>
      </trkpt>
      <trkpt lat="46.02389" lon="3.03237">
        <ele>503.87</ele>
        <time>2021-08-14T09:29:16Z</time>
      </trkpt>
      <trkpt lat="46.02387" lon="3.03237">
        <ele>506.75</ele>
        <time>2021-08-14T09:29:19Z</time>
      </trkpt>
      <trkpt lat="46.02384" lon="3.03236">
        <ele>511.08</ele>
        <time>2021-08-14T09:29:24Z</time>
      </trkpt>
      <trkpt lat="46.02383" lon="3.03235">
        <ele>512.52</ele>
        <time>2021-08-14T09:29:27Z</time>
      </trkpt>
      <trkpt lat="46.02381" lon="3.03231">
        <ele>515.88</ele>
        <time>2021-08-14T09:29:32Z</time>
      </trkpt>
      <trkpt lat="46.02377" lon="3.03229">
        <ele>517.81</ele>
        <time>2021-08-14T09:29:36Z</time>
      </trkpt>
      <trkpt lat="46.02371" lon="3.03227">
        <ele>521.65</ele>
        <time>2021-08-14T09:29:43Z</time>
      </trkpt>
      <trkpt lat="46.02366" lon="3.03223">
        <ele>525.5</ele>
        <time>2021-08-14T09:29:51Z</time>
      </trkpt>
      <trkpt lat="46.02359" lon="3.03222">
        <ele>527.9</ele>
        <time>2021-08-14T09:29:58Z</time>
      </trkpt>
      <trkpt lat="46.0235" lon="3.03222">
        <ele>530.3</ele>
        <time>2021-08-14T09:30:07Z</time>
      </trkpt>
      <trkpt lat="46.02345" lon="3.03224">
        <ele>532.71</ele>
        <time>2021-08-14T09:30:15Z</time>
      </trkpt>
      <trkpt lat="46.02344" lon="3.03228">
        <ele>534.15</ele>
        <time>2021-08-14T09:30:23Z</time>
      </trkpt>
      <trkpt lat="46.02347" lon="3.03234">
        <ele>535.59</ele>
        <time>2021-08-14T09:30:30Z</time>
      </trkpt>
      <trkpt lat="46.0235" lon="3.03242">
        <ele>537.03</ele>
        <time>2021-08-14T09:30:39Z</time>
      </trkpt>
      <trkpt lat="46.02352" lon="3.03249">
        <ele>538.96</ele>
        <time>2021-08-14T09:30:47Z</time>
      </trkpt>
      <trkpt lat="46.02354" lon="3.03258">
        <ele>539.92</ele>
        <time>2021-08-14T09:30:55Z</time>
      </trkpt>
      <trkpt lat="46.02354" lon="3.03267">
        <ele>541.84</ele>
        <time>2021-08-14T09:31:03Z</time>
      </trkpt>
      <trkpt lat="46.02356" lon="3.03274">
        <ele>542.8</ele>
        <time>2021-08-14T09:31:10Z</time>
      </trkpt>
      <trkpt lat="46.02357" lon="3.03279">
        <ele>543.76</ele>
        <time>2021-08-14T09:31:16Z</time>
      </trkpt>
      <trkpt lat="46.0236" lon="3.03288">
        <ele>545.2</ele>
        <time>2021-08-14T09:31:26Z</time>
      </trkpt>
      <trkpt lat="46.02362" lon="3.03295">
        <ele>545.69</ele>
        <time>2021-08-14T09:31:34Z</time>
      </trkpt>
      <trkpt lat="46.02361" lon="3.03305">
        <ele>547.13</ele>
        <time>2021-08-14T09:31:42Z</time>
      </trkpt>
      <trkpt lat="46.02364" lon="3.03317">
        <ele>548.09</ele>
        <time>2021-08-14T09:31:53Z</time>
      </trkpt>
      <trkpt lat="46.02366" lon="3.03329">
        <ele>549.53</ele>
        <time>2021-08-14T09:32:02Z</time>
      </trkpt>
      <trkpt lat="46.02367" lon="3.03337">
        <ele>550.01</ele>
        <time>2021-08-14T09:32:10Z</time>
      </trkpt>
      <trkpt lat="46.02368" lon="3.03344">
        <ele>551.45</ele>
        <time>2021-08-14T09:32:18Z</time>
      </trkpt>
      <trkpt lat="46.02367" lon="3.03351">
        <ele>552.41</ele>
        <time>2021-08-14T09:32:26Z</time>
      </trkpt>
      <trkpt lat="46.02363" lon="3.03362">
        <ele>553.38</ele>
        <time>2021-08-14T09:32:34Z</time>
      </trkpt>
      <trkpt lat="46.02362" lon="3.03368">
        <ele>554.34</ele>
        <time>2021-08-14T09:32:43Z</time>
      </trkpt>
      <trkpt lat="46.02359" lon="3.03375">
        <ele>555.3</ele>
        <time>2021-08-14T09:32:52Z</time>
      </trkpt>
      <trkpt lat="46.02354" lon="3.03379">
        <ele>556.74</ele>
        <time>2021-08-14T09:33:02Z</time>
      </trkpt>
      <trkpt lat="46.02349" lon="3.03383">
        <ele>557.7</ele>
        <time>2021-08-14T09:33:10Z</time>
      </trkpt>
      <trkpt lat="46.02347" lon="3.03384">
        <ele>558.18</ele>
        <time>2021-08-14T09:33:16Z</time>
      </trkpt>
      <trkpt lat="46.02344" lon="3.03386">
        <ele>559.14</ele>
        <time>2021-08-14T09:33:23Z</time>
      </trkpt>
      <trkpt lat="46.02337" lon="3.03387">
        <ele>560.11</ele>
        <time>2021-08-14T09:33:32Z</time>
      </trkpt>
      <trkpt lat="46.02332" lon="3.03388">
        <ele>561.07</ele>
        <time>2021-08-14T09:33:40Z</time>
      </trkpt>
      <trkpt lat="46.02327" lon="3.03388">
        <ele>562.03</ele>
        <time>2021-08-14T09:33:48Z</time>
      </trkpt>
      <trkpt lat="46.0232" lon="3.0339">
        <ele>562.99</ele>
        <time>2021-08-14T09:33:57Z</time>
      </trkpt>
      <trkpt lat="46.02315" lon="3.03392">
        <ele>563.95</ele>
        <time>2021-08-14T09:34:06Z</time>
      </trkpt>
      <trkpt lat="46.0231" lon="3.03392">
        <ele>565.39</ele>
        <time>2021-08-14T09:34:14Z</time>
      </trkpt>
      <trkpt lat="46.02306" lon="3.03394">
        <ele>565.87</ele>
        <time>2021-08-14T09:34:21Z</time>
      </trkpt>
      <trkpt lat="46.02302" lon="3.03394">
        <ele>566.35</ele>
        <time>2021-08-14T09:34:28Z</time>
      </trkpt>
      <trkpt lat="46.02295" lon="3.03395">
        <ele>567.8</ele>
        <time>2021-08-14T09:34:36Z</time>
      </trkpt>
      <trkpt lat="46.02288" lon="3.03397">
        <ele>568.76</ele>
        <time>2021-08-14T09:34:44Z</time>
      </trkpt>
      <trkpt lat="46.02284" lon="3.03402">
        <ele>569.72</ele>
        <time>2021-08-14T09:34:52Z</time>
      </trkpt>
      <trkpt lat="46.0228" lon="3.03404">
        <ele>570.2</ele>
        <time>2021-08-14T09:35:06Z</time>
      </trkpt>
      <trkpt lat="46.02273" lon="3.03402">
        <ele>570.68</ele>
        <time>2021-08-14T09:35:14Z</time>
      </trkpt>
      <trkpt lat="46.02266" lon="3.03403">
        <ele>571.64</ele>
        <time>2021-08-14T09:35:22Z</time>
      </trkpt>
      <trkpt lat="46.02258" lon="3.03407">
        <ele>572.6</ele>
        <time>2021-08-14T09:35:31Z</time>
      </trkpt>
      <trkpt lat="46.02251" lon="3.03411">
        <ele>573.56</ele>
        <time>2021-08-14T09:35:40Z</time>
      </trkpt>
      <trkpt lat="46.02244" lon="3.03416">
        <ele>574.53</ele>
        <time>2021-08-14T09:35:49Z</time>
      </trkpt>
      <trkpt lat="46.0224" lon="3.03416">
        <ele>575.01</ele>
        <time>2021-08-14T09:35:57Z</time>
      </trkpt>
      <trkpt lat="46.02238" lon="3.03419">
        <ele>575.01</ele>
        <time>2021-08-14T09:36:13Z</time>
      </trkpt>
      <trkpt lat="46.02238" lon="3.03419">
        <ele>575.01</ele>
        <time>2021-08-14T09:36:14Z</time>
      </trkpt>
      <trkpt lat="46.02231" lon="3.03426">
        <ele>575.97</ele>
        <time>2021-08-14T09:36:23Z</time>
      </trkpt>
      <trkpt lat="46.02224" lon="3.03432">
        <ele>576.45</ele>
        <time>2021-08-14T09:36:31Z</time>
      </trkpt>
      <trkpt lat="46.02218" lon="3.03437">
        <ele>577.41</ele>
        <time>2021-08-14T09:36:37Z</time>
      </trkpt>
      <trkpt lat="46.02214" lon="3.03437">
        <ele>577.41</ele>
        <time>2021-08-14T09:36:45Z</time>
      </trkpt>
      <trkpt lat="46.02213" lon="3.03438">
        <ele>577.41</ele>
        <time>2021-08-14T09:36:53Z</time>
      </trkpt>
      <trkpt lat="46.02211" lon="3.03438">
        <ele>577.41</ele>
        <time>2021-08-14T09:36:56Z</time>
      </trkpt>
      <trkpt lat="46.02201" lon="3.03443">
        <ele>577.89</ele>
        <time>2021-08-14T09:37:05Z</time>
      </trkpt>
      <trkpt lat="46.02192" lon="3.03448">
        <ele>577.89</ele>
        <time>2021-08-14T09:37:12Z</time>
      </trkpt>
      <trkpt lat="46.0218" lon="3.03455">
        <ele>578.37</ele>
        <time>2021-08-14T09:37:20Z</time>
      </trkpt>
      <trkpt lat="46.02166" lon="3.03464">
        <ele>579.33</ele>
        <time>2021-08-14T09:37:29Z</time>
      </trkpt>
      <trkpt lat="46.02152" lon="3.03476">
        <ele>579.81</ele>
        <time>2021-08-14T09:37:37Z</time>
      </trkpt>
      <trkpt lat="46.02136" lon="3.0349">
        <ele>579.81</ele>
        <time>2021-08-14T09:37:45Z</time>
      </trkpt>
      <trkpt lat="46.02125" lon="3.035">
        <ele>580.29</ele>
        <time>2021-08-14T09:37:51Z</time>
      </trkpt>
      <trkpt lat="46.02109" lon="3.03515">
        <ele>581.73</ele>
        <time>2021-08-14T09:37:59Z</time>
      </trkpt>
      <trkpt lat="46.0209" lon="3.03523">
        <ele>581.73</ele>
        <time>2021-08-14T09:38:06Z</time>
      </trkpt>
      <trkpt lat="46.02071" lon="3.03533">
        <ele>582.7</ele>
        <time>2021-08-14T09:38:14Z</time>
      </trkpt>
      <trkpt lat="46.02061" lon="3.03537">
        <ele>583.18</ele>
        <time>2021-08-14T09:38:20Z</time>
      </trkpt>
      <trkpt lat="46.02052" lon="3.03542">
        <ele>584.62</ele>
        <time>2021-08-14T09:38:26Z</time>
      </trkpt>
      <trkpt lat="46.0204" lon="3.03549">
        <ele>585.58</ele>
        <time>2021-08-14T09:38:35Z</time>
      </trkpt>
      <trkpt lat="46.02028" lon="3.03553">
        <ele>586.54</ele>
        <time>2021-08-14T09:38:42Z</time>
      </trkpt>
      <trkpt lat="46.02014" lon="3.03554">
        <ele>587.5</ele>
        <time>2021-08-14T09:38:49Z</time>
      </trkpt>
      <trkpt lat="46.02" lon="3.03557">
        <ele>587.98</ele>
        <time>2021-08-14T09:38:56Z</time>
      </trkpt>
      <trkpt lat="46.01985" lon="3.0356">
        <ele>588.95</ele>
        <time>2021-08-14T09:39:03Z</time>
      </trkpt>
      <trkpt lat="46.01966" lon="3.03568">
        <ele>589.91</ele>
        <time>2021-08-14T09:39:12Z</time>
      </trkpt>
      <trkpt lat="46.01943" lon="3.03578">
        <ele>591.35</ele>
        <time>2021-08-14T09:39:23Z</time>
      </trkpt>
      <trkpt lat="46.01927" lon="3.03586">
        <ele>592.31</ele>
        <time>2021-08-14T09:39:32Z</time>
      </trkpt>
      <trkpt lat="46.01916" lon="3.03594">
        <ele>593.27</ele>
        <time>2021-08-14T09:39:39Z</time>
      </trkpt>
      <trkpt lat="46.01903" lon="3.03602">
        <ele>594.23</ele>
        <time>2021-08-14T09:39:47Z</time>
      </trkpt>
      <trkpt lat="46.01892" lon="3.03609">
        <ele>594.23</ele>
        <time>2021-08-14T09:39:53Z</time>
      </trkpt>
      <trkpt lat="46.01886" lon="3.03614">
        <ele>594.71</ele>
        <time>2021-08-14T09:39:57Z</time>
      </trkpt>
      <trkpt lat="46.01884" lon="3.03615">
        <ele>595.67</ele>
        <time>2021-08-14T09:39:58Z</time>
      </trkpt>
      <trkpt lat="46.01867" lon="3.03627">
        <ele>596.64</ele>
        <time>2021-08-14T09:40:07Z</time>
      </trkpt>
      <trkpt lat="46.0185" lon="3.03642">
        <ele>597.6</ele>
        <time>2021-08-14T09:40:16Z</time>
      </trkpt>
      <trkpt lat="46.01835" lon="3.0366">
        <ele>598.56</ele>
        <time>2021-08-14T09:40:24Z</time>
      </trkpt>
      <trkpt lat="46.01811" lon="3.03689">
        <ele>598.56</ele>
        <time>2021-08-14T09:40:34Z</time>
      </trkpt>
      <trkpt lat="46.01786" lon="3.03704">
        <ele>598.56</ele>
        <time>2021-08-14T09:40:42Z</time>
      </trkpt>
      <trkpt lat="46.01767" lon="3.03707">
        <ele>599.04</ele>
        <time>2021-08-14T09:40:48Z</time>
      </trkpt>
      <trkpt lat="46.01726" lon="3.03712">
        <ele>599.52</ele>
        <time>2021-08-14T09:41:00Z</time>
      </trkpt>
      <trkpt lat="46.0169" lon="3.03705">
        <ele>600</ele>
        <time>2021-08-14T09:41:10Z</time>
      </trkpt>
      <trkpt lat="46.01659" lon="3.0369">
        <ele>600.96</ele>
        <time>2021-08-14T09:41:19Z</time>
      </trkpt>
      <trkpt lat="46.01628" lon="3.03683">
        <ele>602.4</ele>
        <time>2021-08-14T09:41:28Z</time>
      </trkpt>
      <trkpt lat="46.01594" lon="3.0368">
        <ele>603.85</ele>
        <time>2021-08-14T09:41:38Z</time>
      </trkpt>
      <trkpt lat="46.01572" lon="3.03672">
        <ele>604.81</ele>
        <time>2021-08-14T09:41:45Z</time>
      </trkpt>
      <trkpt lat="46.01547" lon="3.0367">
        <ele>604.81</ele>
        <time>2021-08-14T09:41:53Z</time>
      </trkpt>
      <trkpt lat="46.01523" lon="3.0368">
        <ele>604.81</ele>
        <time>2021-08-14T09:42:00Z</time>
      </trkpt>
      <trkpt lat="46.01494" lon="3.03694">
        <ele>605.77</ele>
        <time>2021-08-14T09:42:09Z</time>
      </trkpt>
      <trkpt lat="46.01473" lon="3.03703">
        <ele>605.77</ele>
        <time>2021-08-14T09:42:15Z</time>
      </trkpt>
      <trkpt lat="46.01438" lon="3.03716">
        <ele>605.77</ele>
        <time>2021-08-14T09:42:24Z</time>
      </trkpt>
      <trkpt lat="46.01416" lon="3.03733">
        <ele>605.77</ele>
        <time>2021-08-14T09:42:31Z</time>
      </trkpt>
      <trkpt lat="46.01396" lon="3.03754">
        <ele>606.73</ele>
        <time>2021-08-14T09:42:39Z</time>
      </trkpt>
      <trkpt lat="46.01376" lon="3.03774">
        <ele>607.21</ele>
        <time>2021-08-14T09:42:46Z</time>
      </trkpt>
      <trkpt lat="46.01349" lon="3.03798">
        <ele>607.21</ele>
        <time>2021-08-14T09:42:54Z</time>
      </trkpt>
      <trkpt lat="46.01319" lon="3.03838">
        <ele>607.69</ele>
        <time>2021-08-14T09:43:04Z</time>
      </trkpt>
      <trkpt lat="46.01301" lon="3.03871">
        <ele>608.17</ele>
        <time>2021-08-14T09:43:13Z</time>
      </trkpt>
      <trkpt lat="46.01281" lon="3.03904">
        <ele>608.65</ele>
        <time>2021-08-14T09:43:21Z</time>
      </trkpt>
      <trkpt lat="46.01256" lon="3.03935">
        <ele>609.61</ele>
        <time>2021-08-14T09:43:30Z</time>
      </trkpt>
      <trkpt lat="46.01233" lon="3.0396">
        <ele>610.09</ele>
        <time>2021-08-14T09:43:38Z</time>
      </trkpt>
      <trkpt lat="46.01211" lon="3.03991">
        <ele>611.06</ele>
        <time>2021-08-14T09:43:46Z</time>
      </trkpt>
      <trkpt lat="46.01184" lon="3.04021">
        <ele>611.54</ele>
        <time>2021-08-14T09:43:55Z</time>
      </trkpt>
      <trkpt lat="46.01163" lon="3.04036">
        <ele>611.54</ele>
        <time>2021-08-14T09:44:02Z</time>
      </trkpt>
      <trkpt lat="46.01151" lon="3.04035">
        <ele>612.02</ele>
        <time>2021-08-14T09:44:06Z</time>
      </trkpt>
      <trkpt lat="46.01149" lon="3.04031">
        <ele>612.02</ele>
        <time>2021-08-14T09:44:07Z</time>
      </trkpt>
      <trkpt lat="46.01148" lon="3.04028">
        <ele>612.02</ele>
        <time>2021-08-14T09:44:08Z</time>
      </trkpt>
      <trkpt lat="46.01148" lon="3.04025">
        <ele>612.02</ele>
        <time>2021-08-14T09:44:09Z</time>
      </trkpt>
      <trkpt lat="46.01149" lon="3.0402">
        <ele>612.02</ele>
        <time>2021-08-14T09:44:10Z</time>
      </trkpt>
      <trkpt lat="46.01149" lon="3.04016">
        <ele>612.02</ele>
        <time>2021-08-14T09:44:11Z</time>
      </trkpt>
      <trkpt lat="46.01155" lon="3.03974">
        <ele>612.02</ele>
        <time>2021-08-14T09:44:19Z</time>
      </trkpt>
      <trkpt lat="46.01155" lon="3.03969">
        <ele>610.57</ele>
        <time>2021-08-14T09:44:20Z</time>
      </trkpt>
      <trkpt lat="46.01155" lon="3.03918">
        <ele>609.13</ele>
        <time>2021-08-14T09:44:27Z</time>
      </trkpt>
      <trkpt lat="46.01148" lon="3.03845">
        <ele>607.21</ele>
        <time>2021-08-14T09:44:35Z</time>
      </trkpt>
      <trkpt lat="46.01126" lon="3.03749">
        <ele>605.29</ele>
        <time>2021-08-14T09:44:45Z</time>
      </trkpt>
      <trkpt lat="46.01103" lon="3.03663">
        <ele>605.29</ele>
        <time>2021-08-14T09:44:55Z</time>
      </trkpt>
      <trkpt lat="46.01096" lon="3.03634">
        <ele>605.29</ele>
        <time>2021-08-14T09:44:59Z</time>
      </trkpt>
      <trkpt lat="46.01094" lon="3.03628">
        <ele>605.29</ele>
        <time>2021-08-14T09:45:00Z</time>
      </trkpt>
      <trkpt lat="46.01085" lon="3.03605">
        <ele>605.29</ele>
        <time>2021-08-14T09:45:04Z</time>
      </trkpt>
      <trkpt lat="46.0107" lon="3.03577">
        <ele>606.73</ele>
        <time>2021-08-14T09:45:11Z</time>
      </trkpt>
      <trkpt lat="46.01054" lon="3.03549">
        <ele>606.73</ele>
        <time>2021-08-14T09:45:18Z</time>
      </trkpt>
      <trkpt lat="46.01034" lon="3.0352">
        <ele>606.73</ele>
        <time>2021-08-14T09:45:25Z</time>
      </trkpt>
      <trkpt lat="46.01029" lon="3.03511">
        <ele>607.21</ele>
        <time>2021-08-14T09:45:27Z</time>
      </trkpt>
      <trkpt lat="46.01026" lon="3.03505">
        <ele>607.21</ele>
        <time>2021-08-14T09:45:28Z</time>
      </trkpt>
      <trkpt lat="46.01024" lon="3.035">
        <ele>607.21</ele>
        <time>2021-08-14T09:45:29Z</time>
      </trkpt>
      <trkpt lat="46.00999" lon="3.03457">
        <ele>607.21</ele>
        <time>2021-08-14T09:45:37Z</time>
      </trkpt>
      <trkpt lat="46.00984" lon="3.03421">
        <ele>607.21</ele>
        <time>2021-08-14T09:45:43Z</time>
      </trkpt>
      <trkpt lat="46.00976" lon="3.0338">
        <ele>607.21</ele>
        <time>2021-08-14T09:45:49Z</time>
      </trkpt>
      <trkpt lat="46.00975" lon="3.03373">
        <ele>606.73</ele>
        <time>2021-08-14T09:45:50Z</time>
      </trkpt>
      <trkpt lat="46.00974" lon="3.03366">
        <ele>606.73</ele>
        <time>2021-08-14T09:45:51Z</time>
      </trkpt>
      <trkpt lat="46.00965" lon="3.03291">
        <ele>604.81</ele>
        <time>2021-08-14T09:46:00Z</time>
      </trkpt>
      <trkpt lat="46.00964" lon="3.03227">
        <ele>603.85</ele>
        <time>2021-08-14T09:46:07Z</time>
      </trkpt>
      <trkpt lat="46.00962" lon="3.03168">
        <ele>603.36</ele>
        <time>2021-08-14T09:46:14Z</time>
      </trkpt>
      <trkpt lat="46.00961" lon="3.0316">
        <ele>603.36</ele>
        <time>2021-08-14T09:46:15Z</time>
      </trkpt>
      <trkpt lat="46.00957" lon="3.03144">
        <ele>603.36</ele>
        <time>2021-08-14T09:46:17Z</time>
      </trkpt>
      <trkpt lat="46.00933" lon="3.03087">
        <ele>603.36</ele>
        <time>2021-08-14T09:46:25Z</time>
      </trkpt>
      <trkpt lat="46.00918" lon="3.03064">
        <ele>603.36</ele>
        <time>2021-08-14T09:46:29Z</time>
      </trkpt>
      <trkpt lat="46.00914" lon="3.03059">
        <ele>603.36</ele>
        <time>2021-08-14T09:46:30Z</time>
      </trkpt>
      <trkpt lat="46.00902" lon="3.03046">
        <ele>604.33</ele>
        <time>2021-08-14T09:46:33Z</time>
      </trkpt>
      <trkpt lat="46.0089" lon="3.03033">
        <ele>605.29</ele>
        <time>2021-08-14T09:46:36Z</time>
      </trkpt>
      <trkpt lat="46.00868" lon="3.03009">
        <ele>606.25</ele>
        <time>2021-08-14T09:46:43Z</time>
      </trkpt>
      <trkpt lat="46.00843" lon="3.02983">
        <ele>606.73</ele>
        <time>2021-08-14T09:46:51Z</time>
      </trkpt>
      <trkpt lat="46.00819" lon="3.02957">
        <ele>607.21</ele>
        <time>2021-08-14T09:46:59Z</time>
      </trkpt>
      <trkpt lat="46.00813" lon="3.02951">
        <ele>607.21</ele>
        <time>2021-08-14T09:47:01Z</time>
      </trkpt>
      <trkpt lat="46.00809" lon="3.02947">
        <ele>607.21</ele>
        <time>2021-08-14T09:47:02Z</time>
      </trkpt>
      <trkpt lat="46.00805" lon="3.02943">
        <ele>607.21</ele>
        <time>2021-08-14T09:47:03Z</time>
      </trkpt>
      <trkpt lat="46.00763" lon="3.02901">
        <ele>605.29</ele>
        <time>2021-08-14T09:47:13Z</time>
      </trkpt>
      <trkpt lat="46.00731" lon="3.02862">
        <ele>604.81</ele>
        <time>2021-08-14T09:47:21Z</time>
      </trkpt>
      <trkpt lat="46.00727" lon="3.02857">
        <ele>604.33</ele>
        <time>2021-08-14T09:47:22Z</time>
      </trkpt>
      <trkpt lat="46.00718" lon="3.02848">
        <ele>604.33</ele>
        <time>2021-08-14T09:47:24Z</time>
      </trkpt>
      <trkpt lat="46.00683" lon="3.02811">
        <ele>603.85</ele>
        <time>2021-08-14T09:47:32Z</time>
      </trkpt>
      <trkpt lat="46.00674" lon="3.02803">
        <ele>603.85</ele>
        <time>2021-08-14T09:47:34Z</time>
      </trkpt>
      <trkpt lat="46.0067" lon="3.02801">
        <ele>603.85</ele>
        <time>2021-08-14T09:47:35Z</time>
      </trkpt>
      <trkpt lat="46.00664" lon="3.02801">
        <ele>603.85</ele>
        <time>2021-08-14T09:47:36Z</time>
      </trkpt>
      <trkpt lat="46.0066" lon="3.02802">
        <ele>603.85</ele>
        <time>2021-08-14T09:47:37Z</time>
      </trkpt>
      <trkpt lat="46.00655" lon="3.02804">
        <ele>603.85</ele>
        <time>2021-08-14T09:47:38Z</time>
      </trkpt>
      <trkpt lat="46.00651" lon="3.02807">
        <ele>603.85</ele>
        <time>2021-08-14T09:47:39Z</time>
      </trkpt>
      <trkpt lat="46.00634" lon="3.0282">
        <ele>603.85</ele>
        <time>2021-08-14T09:47:43Z</time>
      </trkpt>
      <trkpt lat="46.0063" lon="3.02824">
        <ele>603.85</ele>
        <time>2021-08-14T09:47:44Z</time>
      </trkpt>
      <trkpt lat="46.00612" lon="3.02851">
        <ele>603.85</ele>
        <time>2021-08-14T09:47:50Z</time>
      </trkpt>
      <trkpt lat="46.00609" lon="3.02854">
        <ele>603.85</ele>
        <time>2021-08-14T09:47:51Z</time>
      </trkpt>
      <trkpt lat="46.00605" lon="3.02856">
        <ele>603.85</ele>
        <time>2021-08-14T09:47:52Z</time>
      </trkpt>
      <trkpt lat="46.00602" lon="3.02857">
        <ele>603.85</ele>
        <time>2021-08-14T09:47:53Z</time>
      </trkpt>
      <trkpt lat="46.00599" lon="3.02858">
        <ele>603.85</ele>
        <time>2021-08-14T09:47:54Z</time>
      </trkpt>
      <trkpt lat="46.00596" lon="3.02859">
        <ele>603.85</ele>
        <time>2021-08-14T09:47:55Z</time>
      </trkpt>
      <trkpt lat="46.00593" lon="3.0286">
        <ele>603.85</ele>
        <time>2021-08-14T09:47:56Z</time>
      </trkpt>
      <trkpt lat="46.0059" lon="3.02862">
        <ele>603.85</ele>
        <time>2021-08-14T09:47:57Z</time>
      </trkpt>
      <trkpt lat="46.00587" lon="3.02863">
        <ele>603.85</ele>
        <time>2021-08-14T09:47:58Z</time>
      </trkpt>
      <trkpt lat="46.00584" lon="3.02864">
        <ele>603.85</ele>
        <time>2021-08-14T09:47:59Z</time>
      </trkpt>
      <trkpt lat="46.00581" lon="3.02865">
        <ele>603.85</ele>
        <time>2021-08-14T09:48:00Z</time>
      </trkpt>
      <trkpt lat="46.00577" lon="3.02866">
        <ele>603.85</ele>
        <time>2021-08-14T09:48:01Z</time>
      </trkpt>
      <trkpt lat="46.00548" lon="3.02869">
        <ele>602.4</ele>
        <time>2021-08-14T09:48:07Z</time>
      </trkpt>
      <trkpt lat="46.00511" lon="3.02873">
        <ele>600</ele>
        <time>2021-08-14T09:48:13Z</time>
      </trkpt>
      <trkpt lat="46.00504" lon="3.02875">
        <ele>600</ele>
        <time>2021-08-14T09:48:14Z</time>
      </trkpt>
      <trkpt lat="46.0047" lon="3.02892">
        <ele>597.6</ele>
        <time>2021-08-14T09:48:19Z</time>
      </trkpt>
      <trkpt lat="46.00424" lon="3.02906">
        <ele>595.19</ele>
        <time>2021-08-14T09:48:25Z</time>
      </trkpt>
      <trkpt lat="46.00417" lon="3.02908">
        <ele>595.19</ele>
        <time>2021-08-14T09:48:26Z</time>
      </trkpt>
      <trkpt lat="46.00409" lon="3.02912">
        <ele>594.23</ele>
        <time>2021-08-14T09:48:27Z</time>
      </trkpt>
      <trkpt lat="46.00402" lon="3.02917">
        <ele>594.23</ele>
        <time>2021-08-14T09:48:28Z</time>
      </trkpt>
      <trkpt lat="46.00395" lon="3.02922">
        <ele>593.75</ele>
        <time>2021-08-14T09:48:29Z</time>
      </trkpt>
      <trkpt lat="46.00389" lon="3.02928">
        <ele>593.27</ele>
        <time>2021-08-14T09:48:30Z</time>
      </trkpt>
      <trkpt lat="46.00383" lon="3.02935">
        <ele>593.27</ele>
        <time>2021-08-14T09:48:31Z</time>
      </trkpt>
      <trkpt lat="46.00378" lon="3.02943">
        <ele>591.83</ele>
        <time>2021-08-14T09:48:32Z</time>
      </trkpt>
      <trkpt lat="46.00373" lon="3.02953">
        <ele>590.87</ele>
        <time>2021-08-14T09:48:33Z</time>
      </trkpt>
      <trkpt lat="46.00369" lon="3.02963">
        <ele>589.43</ele>
        <time>2021-08-14T09:48:34Z</time>
      </trkpt>
      <trkpt lat="46.00365" lon="3.02975">
        <ele>588.46</ele>
        <time>2021-08-14T09:48:35Z</time>
      </trkpt>
      <trkpt lat="46.00352" lon="3.03019">
        <ele>584.62</ele>
        <time>2021-08-14T09:48:39Z</time>
      </trkpt>
      <trkpt lat="46.00346" lon="3.03052">
        <ele>582.22</ele>
        <time>2021-08-14T09:48:42Z</time>
      </trkpt>
      <trkpt lat="46.00342" lon="3.03063">
        <ele>581.25</ele>
        <time>2021-08-14T09:48:43Z</time>
      </trkpt>
      <trkpt lat="46.00306" lon="3.03145">
        <ele>578.37</ele>
        <time>2021-08-14T09:48:51Z</time>
      </trkpt>
      <trkpt lat="46.00281" lon="3.03193">
        <ele>575.01</ele>
        <time>2021-08-14T09:48:56Z</time>
      </trkpt>
      <trkpt lat="46.00273" lon="3.03208">
        <ele>574.04</ele>
        <time>2021-08-14T09:48:58Z</time>
      </trkpt>
      <trkpt lat="46.00271" lon="3.03215">
        <ele>573.56</ele>
        <time>2021-08-14T09:48:59Z</time>
      </trkpt>
      <trkpt lat="46.0027" lon="3.03222">
        <ele>573.08</ele>
        <time>2021-08-14T09:49:00Z</time>
      </trkpt>
      <trkpt lat="46.00269" lon="3.0323">
        <ele>572.6</ele>
        <time>2021-08-14T09:49:01Z</time>
      </trkpt>
      <trkpt lat="46.00268" lon="3.03234">
        <ele>572.6</ele>
        <time>2021-08-14T09:49:02Z</time>
      </trkpt>
      <trkpt lat="46.00265" lon="3.03237">
        <ele>572.6</ele>
        <time>2021-08-14T09:49:03Z</time>
      </trkpt>
      <trkpt lat="46.00262" lon="3.03237">
        <ele>572.12</ele>
        <time>2021-08-14T09:49:04Z</time>
      </trkpt>
      <trkpt lat="46.00259" lon="3.03235">
        <ele>572.12</ele>
        <time>2021-08-14T09:49:05Z</time>
      </trkpt>
      <trkpt lat="46.00256" lon="3.03233">
        <ele>572.12</ele>
        <time>2021-08-14T09:49:06Z</time>
      </trkpt>
      <trkpt lat="46.00253" lon="3.03231">
        <ele>572.12</ele>
        <time>2021-08-14T09:49:07Z</time>
      </trkpt>
      <trkpt lat="46.00251" lon="3.03229">
        <ele>572.12</ele>
        <time>2021-08-14T09:49:08Z</time>
      </trkpt>
      <trkpt lat="46.00239" lon="3.03232">
        <ele>572.12</ele>
        <time>2021-08-14T09:49:14Z</time>
      </trkpt>
      <trkpt lat="46.00225" lon="3.03247">
        <ele>574.04</ele>
        <time>2021-08-14T09:49:23Z</time>
      </trkpt>
      <trkpt lat="46.00222" lon="3.03251">
        <ele>574.53</ele>
        <time>2021-08-14T09:49:30Z</time>
      </trkpt>
      <trkpt lat="46.00221" lon="3.0325">
        <ele>574.53</ele>
        <time>2021-08-14T09:49:42Z</time>
      </trkpt>
      <trkpt lat="46.00221" lon="3.03246">
        <ele>574.53</ele>
        <time>2021-08-14T09:49:45Z</time>
      </trkpt>
      <trkpt lat="46.00221" lon="3.03245">
        <ele>574.53</ele>
        <time>2021-08-14T09:49:46Z</time>
      </trkpt>
      <trkpt lat="46.0022" lon="3.03237">
        <ele>574.53</ele>
        <time>2021-08-14T09:49:54Z</time>
      </trkpt>
      <trkpt lat="46.00219" lon="3.03233">
        <ele>575.01</ele>
        <time>2021-08-14T09:50:02Z</time>
      </trkpt>
      <trkpt lat="46.00219" lon="3.03235">
        <ele>575.01</ele>
        <time>2021-08-14T09:50:15Z</time>
      </trkpt>
      <trkpt lat="46.00222" lon="3.03235">
        <ele>575.01</ele>
        <time>2021-08-14T09:50:45Z</time>
      </trkpt>
      <trkpt lat="46.0022" lon="3.03234">
        <ele>575.01</ele>
        <time>2021-08-14T09:51:16Z</time>
      </trkpt>
      <trkpt lat="46.00221" lon="3.03234">
        <ele>575.01</ele>
        <time>2021-08-14T09:51:36Z</time>
      </trkpt>
      <trkpt lat="46.00217" lon="3.03239">
        <ele>575.01</ele>
        <time>2021-08-14T09:52:02Z</time>
      </trkpt>
      <trkpt lat="46.00215" lon="3.03241">
        <ele>575.49</ele>
        <time>2021-08-14T09:52:21Z</time>
      </trkpt>
      <trkpt lat="46.00216" lon="3.03237">
        <ele>575.01</ele>
        <time>2021-08-14T09:52:34Z</time>
      </trkpt>
      <trkpt lat="46.00215" lon="3.03238">
        <ele>575.01</ele>
        <time>2021-08-14T09:53:00Z</time>
      </trkpt>
      <trkpt lat="46.00215" lon="3.03236">
        <ele>575.01</ele>
        <time>2021-08-14T09:53:23Z</time>
      </trkpt>
      <trkpt lat="46.00216" lon="3.03235">
        <ele>575.01</ele>
        <time>2021-08-14T09:53:45Z</time>
      </trkpt>
      <trkpt lat="46.00217" lon="3.03235">
        <ele>575.01</ele>
        <time>2021-08-14T09:53:53Z</time>
      </trkpt>
      <trkpt lat="46.00217" lon="3.03236">
        <ele>575.01</ele>
        <time>2021-08-14T09:53:54Z</time>
      </trkpt>
      <trkpt lat="46.00219" lon="3.03239">
        <ele>575.01</ele>
        <time>2021-08-14T09:53:56Z</time>
      </trkpt>
      <trkpt lat="46.00219" lon="3.03242">
        <ele>573.56</ele>
        <time>2021-08-14T09:53:57Z</time>
      </trkpt>
      <trkpt lat="46.0022" lon="3.03245">
        <ele>573.56</ele>
        <time>2021-08-14T09:53:58Z</time>
      </trkpt>
      <trkpt lat="46.0022" lon="3.03248">
        <ele>573.56</ele>
        <time>2021-08-14T09:53:59Z</time>
      </trkpt>
      <trkpt lat="46.0022" lon="3.0325">
        <ele>573.56</ele>
        <time>2021-08-14T09:54:00Z</time>
      </trkpt>
      <trkpt lat="46.00219" lon="3.03252">
        <ele>573.56</ele>
        <time>2021-08-14T09:54:01Z</time>
      </trkpt>
      <trkpt lat="46.00218" lon="3.03252">
        <ele>573.56</ele>
        <time>2021-08-14T09:54:02Z</time>
      </trkpt>
      <trkpt lat="46.00217" lon="3.03253">
        <ele>573.56</ele>
        <time>2021-08-14T09:54:03Z</time>
      </trkpt>
      <trkpt lat="46.00216" lon="3.03254">
        <ele>573.56</ele>
        <time>2021-08-14T09:54:04Z</time>
      </trkpt>
      <trkpt lat="46.00215" lon="3.03255">
        <ele>573.56</ele>
        <time>2021-08-14T09:54:05Z</time>
      </trkpt>
      <trkpt lat="46.00211" lon="3.03257">
        <ele>574.53</ele>
        <time>2021-08-14T09:54:09Z</time>
      </trkpt>
      <trkpt lat="46.002" lon="3.03264">
        <ele>576.45</ele>
        <time>2021-08-14T09:54:19Z</time>
      </trkpt>
      <trkpt lat="46.00192" lon="3.03273">
        <ele>577.41</ele>
        <time>2021-08-14T09:54:27Z</time>
      </trkpt>
      <trkpt lat="46.00186" lon="3.03285">
        <ele>578.85</ele>
        <time>2021-08-14T09:54:36Z</time>
      </trkpt>
      <trkpt lat="46.00182" lon="3.03293">
        <ele>580.29</ele>
        <time>2021-08-14T09:54:43Z</time>
      </trkpt>
      <trkpt lat="46.0018" lon="3.03303">
        <ele>581.25</ele>
        <time>2021-08-14T09:54:50Z</time>
      </trkpt>
      <trkpt lat="46.0018" lon="3.03305">
        <ele>581.25</ele>
        <time>2021-08-14T09:54:51Z</time>
      </trkpt>
      <trkpt lat="46.00178" lon="3.03309">
        <ele>581.73</ele>
        <time>2021-08-14T09:54:54Z</time>
      </trkpt>
      <trkpt lat="46.00178" lon="3.03311">
        <ele>582.22</ele>
        <time>2021-08-14T09:54:55Z</time>
      </trkpt>
      <trkpt lat="46.00178" lon="3.03313">
        <ele>582.22</ele>
        <time>2021-08-14T09:54:56Z</time>
      </trkpt>
      <trkpt lat="46.00177" lon="3.03314">
        <ele>582.22</ele>
        <time>2021-08-14T09:54:57Z</time>
      </trkpt>
      <trkpt lat="46.00177" lon="3.03316">
        <ele>582.7</ele>
        <time>2021-08-14T09:54:58Z</time>
      </trkpt>
      <trkpt lat="46.00176" lon="3.03329">
        <ele>583.66</ele>
        <time>2021-08-14T09:55:06Z</time>
      </trkpt>
      <trkpt lat="46.00176" lon="3.03331">
        <ele>583.66</ele>
        <time>2021-08-14T09:55:07Z</time>
      </trkpt>
      <trkpt lat="46.00176" lon="3.03333">
        <ele>583.66</ele>
        <time>2021-08-14T09:55:08Z</time>
      </trkpt>
      <trkpt lat="46.00176" lon="3.03335">
        <ele>583.66</ele>
        <time>2021-08-14T09:55:09Z</time>
      </trkpt>
      <trkpt lat="46.00176" lon="3.03337">
        <ele>583.66</ele>
        <time>2021-08-14T09:55:10Z</time>
      </trkpt>
      <trkpt lat="46.00176" lon="3.03338">
        <ele>583.66</ele>
        <time>2021-08-14T09:55:11Z</time>
      </trkpt>
      <trkpt lat="46.00176" lon="3.03344">
        <ele>584.14</ele>
        <time>2021-08-14T09:55:14Z</time>
      </trkpt>
      <trkpt lat="46.00176" lon="3.03346">
        <ele>584.14</ele>
        <time>2021-08-14T09:55:15Z</time>
      </trkpt>
      <trkpt lat="46.00176" lon="3.03348">
        <ele>584.62</ele>
        <time>2021-08-14T09:55:16Z</time>
      </trkpt>
      <trkpt lat="46.00176" lon="3.0335">
        <ele>584.62</ele>
        <time>2021-08-14T09:55:17Z</time>
      </trkpt>
      <trkpt lat="46.00176" lon="3.03352">
        <ele>584.62</ele>
        <time>2021-08-14T09:55:18Z</time>
      </trkpt>
      <trkpt lat="46.00175" lon="3.03354">
        <ele>584.62</ele>
        <time>2021-08-14T09:55:19Z</time>
      </trkpt>
      <trkpt lat="46.00172" lon="3.03374">
        <ele>586.06</ele>
        <time>2021-08-14T09:55:29Z</time>
      </trkpt>
      <trkpt lat="46.00164" lon="3.03389">
        <ele>587.5</ele>
        <time>2021-08-14T09:55:38Z</time>
      </trkpt>
      <trkpt lat="46.0015" lon="3.03408">
        <ele>587.98</ele>
        <time>2021-08-14T09:55:48Z</time>
      </trkpt>
      <trkpt lat="46.00133" lon="3.03435">
        <ele>589.43</ele>
        <time>2021-08-14T09:56:00Z</time>
      </trkpt>
      <trkpt lat="46.00125" lon="3.03457">
        <ele>589.91</ele>
        <time>2021-08-14T09:56:08Z</time>
      </trkpt>
      <trkpt lat="46.00129" lon="3.03485">
        <ele>592.31</ele>
        <time>2021-08-14T09:56:18Z</time>
      </trkpt>
      <trkpt lat="46.00136" lon="3.03504">
        <ele>593.27</ele>
        <time>2021-08-14T09:56:25Z</time>
      </trkpt>
      <trkpt lat="46.00145" lon="3.03533">
        <ele>593.27</ele>
        <time>2021-08-14T09:56:33Z</time>
      </trkpt>
      <trkpt lat="46.00151" lon="3.03578">
        <ele>593.27</ele>
        <time>2021-08-14T09:56:42Z</time>
      </trkpt>
      <trkpt lat="46.00149" lon="3.0362">
        <ele>593.75</ele>
        <time>2021-08-14T09:56:50Z</time>
      </trkpt>
      <trkpt lat="46.00142" lon="3.03646">
        <ele>593.75</ele>
        <time>2021-08-14T09:56:56Z</time>
      </trkpt>
      <trkpt lat="46.00134" lon="3.03664">
        <ele>595.67</ele>
        <time>2021-08-14T09:57:01Z</time>
      </trkpt>
      <trkpt lat="46.00117" lon="3.03677">
        <ele>597.12</ele>
        <time>2021-08-14T09:57:09Z</time>
      </trkpt>
      <trkpt lat="46.00102" lon="3.03676">
        <ele>598.08</ele>
        <time>2021-08-14T09:57:16Z</time>
      </trkpt>
      <trkpt lat="46.00085" lon="3.03673">
        <ele>600</ele>
        <time>2021-08-14T09:57:24Z</time>
      </trkpt>
      <trkpt lat="46.00071" lon="3.03665">
        <ele>600.48</ele>
        <time>2021-08-14T09:57:32Z</time>
      </trkpt>
      <trkpt lat="46.00054" lon="3.03652">
        <ele>601.92</ele>
        <time>2021-08-14T09:57:41Z</time>
      </trkpt>
      <trkpt lat="46.00039" lon="3.03641">
        <ele>602.88</ele>
        <time>2021-08-14T09:57:49Z</time>
      </trkpt>
      <trkpt lat="46.00024" lon="3.03634">
        <ele>603.85</ele>
        <time>2021-08-14T09:57:58Z</time>
      </trkpt>
      <trkpt lat="46.00008" lon="3.03627">
        <ele>605.29</ele>
        <time>2021-08-14T09:58:08Z</time>
      </trkpt>
      <trkpt lat="45.99992" lon="3.03617">
        <ele>606.73</ele>
        <time>2021-08-14T09:58:17Z</time>
      </trkpt>
      <trkpt lat="45.99974" lon="3.03603">
        <ele>607.69</ele>
        <time>2021-08-14T09:58:26Z</time>
      </trkpt>
      <trkpt lat="45.99958" lon="3.0359">
        <ele>608.65</ele>
        <time>2021-08-14T09:58:34Z</time>
      </trkpt>
      <trkpt lat="45.99935" lon="3.03572">
        <ele>609.13</ele>
        <time>2021-08-14T09:58:43Z</time>
      </trkpt>
      <trkpt lat="45.99909" lon="3.03551">
        <ele>609.13</ele>
        <time>2021-08-14T09:58:51Z</time>
      </trkpt>
      <trkpt lat="45.99879" lon="3.03519">
        <ele>609.13</ele>
        <time>2021-08-14T09:59:01Z</time>
      </trkpt>
      <trkpt lat="45.99855" lon="3.03503">
        <ele>609.61</ele>
        <time>2021-08-14T09:59:09Z</time>
      </trkpt>
      <trkpt lat="45.99837" lon="3.03499">
        <ele>609.61</ele>
        <time>2021-08-14T09:59:15Z</time>
      </trkpt>
      <trkpt lat="45.99814" lon="3.03486">
        <ele>608.17</ele>
        <time>2021-08-14T09:59:21Z</time>
      </trkpt>
      <trkpt lat="45.99809" lon="3.03484">
        <ele>608.17</ele>
        <time>2021-08-14T09:59:22Z</time>
      </trkpt>
      <trkpt lat="45.99773" lon="3.03458">
        <ele>606.25</ele>
        <time>2021-08-14T09:59:29Z</time>
      </trkpt>
      <trkpt lat="45.99737" lon="3.03427">
        <ele>605.29</ele>
        <time>2021-08-14T09:59:36Z</time>
      </trkpt>
      <trkpt lat="45.99712" lon="3.03403">
        <ele>604.81</ele>
        <time>2021-08-14T09:59:41Z</time>
      </trkpt>
      <trkpt lat="45.99683" lon="3.03373">
        <ele>604.81</ele>
        <time>2021-08-14T09:59:47Z</time>
      </trkpt>
      <trkpt lat="45.99667" lon="3.03354">
        <ele>606.25</ele>
        <time>2021-08-14T09:59:51Z</time>
      </trkpt>
      <trkpt lat="45.9966" lon="3.03345">
        <ele>606.73</ele>
        <time>2021-08-14T09:59:53Z</time>
      </trkpt>
      <trkpt lat="45.99638" lon="3.03314">
        <ele>607.69</ele>
        <time>2021-08-14T10:00:00Z</time>
      </trkpt>
      <trkpt lat="45.99632" lon="3.03305">
        <ele>607.69</ele>
        <time>2021-08-14T10:00:02Z</time>
      </trkpt>
      <trkpt lat="45.99611" lon="3.03273">
        <ele>608.65</ele>
        <time>2021-08-14T10:00:10Z</time>
      </trkpt>
      <trkpt lat="45.99586" lon="3.03234">
        <ele>610.09</ele>
        <time>2021-08-14T10:00:21Z</time>
      </trkpt>
      <trkpt lat="45.99563" lon="3.03207">
        <ele>611.54</ele>
        <time>2021-08-14T10:00:31Z</time>
      </trkpt>
      <trkpt lat="45.99543" lon="3.03189">
        <ele>612.5</ele>
        <time>2021-08-14T10:00:39Z</time>
      </trkpt>
      <trkpt lat="45.99523" lon="3.0318">
        <ele>613.46</ele>
        <time>2021-08-14T10:00:46Z</time>
      </trkpt>
      <trkpt lat="45.99499" lon="3.0317">
        <ele>614.9</ele>
        <time>2021-08-14T10:00:56Z</time>
      </trkpt>
      <trkpt lat="45.99479" lon="3.0317">
        <ele>616.34</ele>
        <time>2021-08-14T10:01:04Z</time>
      </trkpt>
      <trkpt lat="45.9946" lon="3.03173">
        <ele>616.34</ele>
        <time>2021-08-14T10:01:11Z</time>
      </trkpt>
      <trkpt lat="45.99427" lon="3.03175">
        <ele>616.34</ele>
        <time>2021-08-14T10:01:21Z</time>
      </trkpt>
      <trkpt lat="45.99409" lon="3.03179">
        <ele>616.34</ele>
        <time>2021-08-14T10:01:26Z</time>
      </trkpt>
      <trkpt lat="45.99394" lon="3.0319">
        <ele>616.82</ele>
        <time>2021-08-14T10:01:29Z</time>
      </trkpt>
      <trkpt lat="45.99364" lon="3.03187">
        <ele>617.78</ele>
        <time>2021-08-14T10:01:38Z</time>
      </trkpt>
      <trkpt lat="45.99336" lon="3.03199">
        <ele>617.78</ele>
        <time>2021-08-14T10:01:46Z</time>
      </trkpt>
      <trkpt lat="45.9931" lon="3.03215">
        <ele>618.26</ele>
        <time>2021-08-14T10:01:53Z</time>
      </trkpt>
      <trkpt lat="45.99276" lon="3.03241">
        <ele>619.23</ele>
        <time>2021-08-14T10:02:02Z</time>
      </trkpt>
      <trkpt lat="45.99243" lon="3.03274">
        <ele>621.63</ele>
        <time>2021-08-14T10:02:12Z</time>
      </trkpt>
      <trkpt lat="45.99217" lon="3.0331">
        <ele>622.11</ele>
        <time>2021-08-14T10:02:21Z</time>
      </trkpt>
      <trkpt lat="45.99198" lon="3.03344">
        <ele>623.07</ele>
        <time>2021-08-14T10:02:29Z</time>
      </trkpt>
      <trkpt lat="45.99196" lon="3.03349">
        <ele>623.07</ele>
        <time>2021-08-14T10:02:30Z</time>
      </trkpt>
      <trkpt lat="45.99179" lon="3.03401">
        <ele>622.59</ele>
        <time>2021-08-14T10:02:40Z</time>
      </trkpt>
      <trkpt lat="45.9917" lon="3.03429">
        <ele>622.59</ele>
        <time>2021-08-14T10:02:45Z</time>
      </trkpt>
      <trkpt lat="45.99167" lon="3.03435">
        <ele>621.63</ele>
        <time>2021-08-14T10:02:46Z</time>
      </trkpt>
      <trkpt lat="45.99151" lon="3.03489">
        <ele>621.15</ele>
        <time>2021-08-14T10:02:54Z</time>
      </trkpt>
      <trkpt lat="45.99144" lon="3.03508">
        <ele>621.15</ele>
        <time>2021-08-14T10:02:57Z</time>
      </trkpt>
      <trkpt lat="45.99133" lon="3.03549">
        <ele>621.15</ele>
        <time>2021-08-14T10:03:04Z</time>
      </trkpt>
      <trkpt lat="45.99132" lon="3.03555">
        <ele>620.67</ele>
        <time>2021-08-14T10:03:05Z</time>
      </trkpt>
      <trkpt lat="45.99124" lon="3.03578">
        <ele>620.67</ele>
        <time>2021-08-14T10:03:09Z</time>
      </trkpt>
      <trkpt lat="45.99122" lon="3.0359">
        <ele>620.67</ele>
        <time>2021-08-14T10:03:11Z</time>
      </trkpt>
      <trkpt lat="45.99108" lon="3.03645">
        <ele>619.71</ele>
        <time>2021-08-14T10:03:19Z</time>
      </trkpt>
      <trkpt lat="45.99088" lon="3.03727">
        <ele>619.71</ele>
        <time>2021-08-14T10:03:29Z</time>
      </trkpt>
      <trkpt lat="45.99069" lon="3.03802">
        <ele>620.19</ele>
        <time>2021-08-14T10:03:39Z</time>
      </trkpt>
      <trkpt lat="45.99064" lon="3.03821">
        <ele>621.15</ele>
        <time>2021-08-14T10:03:42Z</time>
      </trkpt>
      <trkpt lat="45.99058" lon="3.03838">
        <ele>621.63</ele>
        <time>2021-08-14T10:03:45Z</time>
      </trkpt>
      <trkpt lat="45.99041" lon="3.03889">
        <ele>623.07</ele>
        <time>2021-08-14T10:03:54Z</time>
      </trkpt>
      <trkpt lat="45.99031" lon="3.03942">
        <ele>623.07</ele>
        <time>2021-08-14T10:04:02Z</time>
      </trkpt>
      <trkpt lat="45.9903" lon="3.03999">
        <ele>621.15</ele>
        <time>2021-08-14T10:04:09Z</time>
      </trkpt>
      <trkpt lat="45.99024" lon="3.04052">
        <ele>620.67</ele>
        <time>2021-08-14T10:04:15Z</time>
      </trkpt>
      <trkpt lat="45.99021" lon="3.04061">
        <ele>619.71</ele>
        <time>2021-08-14T10:04:16Z</time>
      </trkpt>
      <trkpt lat="45.99015" lon="3.04077">
        <ele>619.71</ele>
        <time>2021-08-14T10:04:18Z</time>
      </trkpt>
      <trkpt lat="45.98998" lon="3.04109">
        <ele>618.26</ele>
        <time>2021-08-14T10:04:22Z</time>
      </trkpt>
      <trkpt lat="45.98991" lon="3.04116">
        <ele>617.3</ele>
        <time>2021-08-14T10:04:23Z</time>
      </trkpt>
      <trkpt lat="45.98986" lon="3.04122">
        <ele>617.3</ele>
        <time>2021-08-14T10:04:24Z</time>
      </trkpt>
      <trkpt lat="45.98972" lon="3.04135">
        <ele>616.34</ele>
        <time>2021-08-14T10:04:26Z</time>
      </trkpt>
      <trkpt lat="45.98965" lon="3.04139">
        <ele>616.34</ele>
        <time>2021-08-14T10:04:27Z</time>
      </trkpt>
      <trkpt lat="45.98957" lon="3.04143">
        <ele>615.86</ele>
        <time>2021-08-14T10:04:28Z</time>
      </trkpt>
      <trkpt lat="45.98949" lon="3.04145">
        <ele>616.34</ele>
        <time>2021-08-14T10:04:29Z</time>
      </trkpt>
      <trkpt lat="45.98941" lon="3.04147">
        <ele>615.38</ele>
        <time>2021-08-14T10:04:30Z</time>
      </trkpt>
      <trkpt lat="45.98932" lon="3.04148">
        <ele>615.38</ele>
        <time>2021-08-14T10:04:31Z</time>
      </trkpt>
      <trkpt lat="45.98882" lon="3.04154">
        <ele>614.42</ele>
        <time>2021-08-14T10:04:37Z</time>
      </trkpt>
      <trkpt lat="45.98874" lon="3.04157">
        <ele>614.42</ele>
        <time>2021-08-14T10:04:38Z</time>
      </trkpt>
      <trkpt lat="45.98867" lon="3.04162">
        <ele>613.46</ele>
        <time>2021-08-14T10:04:39Z</time>
      </trkpt>
      <trkpt lat="45.98861" lon="3.04169">
        <ele>613.46</ele>
        <time>2021-08-14T10:04:40Z</time>
      </trkpt>
      <trkpt lat="45.98857" lon="3.04178">
        <ele>612.98</ele>
        <time>2021-08-14T10:04:41Z</time>
      </trkpt>
      <trkpt lat="45.98853" lon="3.04187">
        <ele>612.98</ele>
        <time>2021-08-14T10:04:42Z</time>
      </trkpt>
      <trkpt lat="45.98849" lon="3.04194">
        <ele>612.98</ele>
        <time>2021-08-14T10:04:43Z</time>
      </trkpt>
      <trkpt lat="45.98843" lon="3.042">
        <ele>612.98</ele>
        <time>2021-08-14T10:04:44Z</time>
      </trkpt>
      <trkpt lat="45.98836" lon="3.04202">
        <ele>612.98</ele>
        <time>2021-08-14T10:04:45Z</time>
      </trkpt>
      <trkpt lat="45.9883" lon="3.04201">
        <ele>612.98</ele>
        <time>2021-08-14T10:04:46Z</time>
      </trkpt>
      <trkpt lat="45.98825" lon="3.04199">
        <ele>612.98</ele>
        <time>2021-08-14T10:04:47Z</time>
      </trkpt>
      <trkpt lat="45.98798" lon="3.04188">
        <ele>614.42</ele>
        <time>2021-08-14T10:04:52Z</time>
      </trkpt>
      <trkpt lat="45.98766" lon="3.04174">
        <ele>615.38</ele>
        <time>2021-08-14T10:04:59Z</time>
      </trkpt>
      <trkpt lat="45.98739" lon="3.04161">
        <ele>616.34</ele>
        <time>2021-08-14T10:05:06Z</time>
      </trkpt>
      <trkpt lat="45.98702" lon="3.04144">
        <ele>617.3</ele>
        <time>2021-08-14T10:05:15Z</time>
      </trkpt>
      <trkpt lat="45.98681" lon="3.04136">
        <ele>617.78</ele>
        <time>2021-08-14T10:05:21Z</time>
      </trkpt>
      <trkpt lat="45.98648" lon="3.04134">
        <ele>619.23</ele>
        <time>2021-08-14T10:05:30Z</time>
      </trkpt>
      <trkpt lat="45.98617" lon="3.04143">
        <ele>621.15</ele>
        <time>2021-08-14T10:05:40Z</time>
      </trkpt>
      <trkpt lat="45.98594" lon="3.0415">
        <ele>622.11</ele>
        <time>2021-08-14T10:05:49Z</time>
      </trkpt>
      <trkpt lat="45.98575" lon="3.04156">
        <ele>623.07</ele>
        <time>2021-08-14T10:05:57Z</time>
      </trkpt>
      <trkpt lat="45.98552" lon="3.04163">
        <ele>624.03</ele>
        <time>2021-08-14T10:06:07Z</time>
      </trkpt>
      <trkpt lat="45.98531" lon="3.04168">
        <ele>625.47</ele>
        <time>2021-08-14T10:06:17Z</time>
      </trkpt>
      <trkpt lat="45.98518" lon="3.04172">
        <ele>625.96</ele>
        <time>2021-08-14T10:06:24Z</time>
      </trkpt>
      <trkpt lat="45.98499" lon="3.04177">
        <ele>626.92</ele>
        <time>2021-08-14T10:06:32Z</time>
      </trkpt>
      <trkpt lat="45.98479" lon="3.0418">
        <ele>627.88</ele>
        <time>2021-08-14T10:06:39Z</time>
      </trkpt>
      <trkpt lat="45.98465" lon="3.04181">
        <ele>628.36</ele>
        <time>2021-08-14T10:06:45Z</time>
      </trkpt>
      <trkpt lat="45.98442" lon="3.04187">
        <ele>629.8</ele>
        <time>2021-08-14T10:06:54Z</time>
      </trkpt>
      <trkpt lat="45.98423" lon="3.04193">
        <ele>630.28</ele>
        <time>2021-08-14T10:07:02Z</time>
      </trkpt>
      <trkpt lat="45.98401" lon="3.04201">
        <ele>631.24</ele>
        <time>2021-08-14T10:07:11Z</time>
      </trkpt>
      <trkpt lat="45.98384" lon="3.0421">
        <ele>631.72</ele>
        <time>2021-08-14T10:07:18Z</time>
      </trkpt>
      <trkpt lat="45.98373" lon="3.04206">
        <ele>632.2</ele>
        <time>2021-08-14T10:07:22Z</time>
      </trkpt>
      <trkpt lat="45.98371" lon="3.04203">
        <ele>632.2</ele>
        <time>2021-08-14T10:07:23Z</time>
      </trkpt>
      <trkpt lat="45.9837" lon="3.042">
        <ele>632.68</ele>
        <time>2021-08-14T10:07:24Z</time>
      </trkpt>
      <trkpt lat="45.9837" lon="3.04197">
        <ele>632.68</ele>
        <time>2021-08-14T10:07:25Z</time>
      </trkpt>
      <trkpt lat="45.98371" lon="3.04194">
        <ele>633.17</ele>
        <time>2021-08-14T10:07:26Z</time>
      </trkpt>
      <trkpt lat="45.98371" lon="3.0419">
        <ele>633.17</ele>
        <time>2021-08-14T10:07:27Z</time>
      </trkpt>
      <trkpt lat="45.9838" lon="3.0416">
        <ele>633.17</ele>
        <time>2021-08-14T10:07:35Z</time>
      </trkpt>
      <trkpt lat="45.98396" lon="3.04117">
        <ele>633.17</ele>
        <time>2021-08-14T10:07:46Z</time>
      </trkpt>
      <trkpt lat="45.98408" lon="3.04085">
        <ele>633.65</ele>
        <time>2021-08-14T10:07:54Z</time>
      </trkpt>
      <trkpt lat="45.98414" lon="3.04046">
        <ele>634.13</ele>
        <time>2021-08-14T10:08:02Z</time>
      </trkpt>
      <trkpt lat="45.9842" lon="3.04019">
        <ele>635.09</ele>
        <time>2021-08-14T10:08:09Z</time>
      </trkpt>
      <trkpt lat="45.9843" lon="3.03991">
        <ele>636.53</ele>
        <time>2021-08-14T10:08:18Z</time>
      </trkpt>
      <trkpt lat="45.98433" lon="3.03968">
        <ele>637.01</ele>
        <time>2021-08-14T10:08:24Z</time>
      </trkpt>
      <trkpt lat="45.98424" lon="3.0394">
        <ele>637.97</ele>
        <time>2021-08-14T10:08:32Z</time>
      </trkpt>
      <trkpt lat="45.98408" lon="3.03907">
        <ele>638.93</ele>
        <time>2021-08-14T10:08:42Z</time>
      </trkpt>
      <trkpt lat="45.98404" lon="3.03866">
        <ele>639.41</ele>
        <time>2021-08-14T10:08:51Z</time>
      </trkpt>
      <trkpt lat="45.98405" lon="3.03833">
        <ele>639.41</ele>
        <time>2021-08-14T10:08:57Z</time>
      </trkpt>
      <trkpt lat="45.98407" lon="3.03777">
        <ele>639.89</ele>
        <time>2021-08-14T10:09:07Z</time>
      </trkpt>
      <trkpt lat="45.98406" lon="3.03738">
        <ele>640.38</ele>
        <time>2021-08-14T10:09:15Z</time>
      </trkpt>
      <trkpt lat="45.98404" lon="3.03694">
        <ele>641.34</ele>
        <time>2021-08-14T10:09:25Z</time>
      </trkpt>
      <trkpt lat="45.98399" lon="3.03663">
        <ele>642.3</ele>
        <time>2021-08-14T10:09:34Z</time>
      </trkpt>
      <trkpt lat="45.98395" lon="3.0364">
        <ele>643.74</ele>
        <time>2021-08-14T10:09:42Z</time>
      </trkpt>
      <trkpt lat="45.9839" lon="3.03623">
        <ele>644.7</ele>
        <time>2021-08-14T10:09:49Z</time>
      </trkpt>
      <trkpt lat="45.98388" lon="3.03613">
        <ele>645.18</ele>
        <time>2021-08-14T10:09:53Z</time>
      </trkpt>
      <trkpt lat="45.98387" lon="3.03611">
        <ele>645.18</ele>
        <time>2021-08-14T10:09:54Z</time>
      </trkpt>
      <trkpt lat="45.98387" lon="3.03609">
        <ele>645.18</ele>
        <time>2021-08-14T10:09:55Z</time>
      </trkpt>
      <trkpt lat="45.98386" lon="3.03606">
        <ele>645.66</ele>
        <time>2021-08-14T10:09:56Z</time>
      </trkpt>
      <trkpt lat="45.98386" lon="3.03604">
        <ele>645.66</ele>
        <time>2021-08-14T10:09:57Z</time>
      </trkpt>
      <trkpt lat="45.98385" lon="3.03602">
        <ele>645.66</ele>
        <time>2021-08-14T10:09:58Z</time>
      </trkpt>
      <trkpt lat="45.98385" lon="3.036">
        <ele>645.66</ele>
        <time>2021-08-14T10:09:59Z</time>
      </trkpt>
      <trkpt lat="45.98384" lon="3.03598">
        <ele>645.66</ele>
        <time>2021-08-14T10:10:00Z</time>
      </trkpt>
      <trkpt lat="45.98384" lon="3.03595">
        <ele>646.14</ele>
        <time>2021-08-14T10:10:02Z</time>
      </trkpt>
      <trkpt lat="45.98381" lon="3.03581">
        <ele>647.1</ele>
        <time>2021-08-14T10:10:10Z</time>
      </trkpt>
      <trkpt lat="45.98379" lon="3.03571">
        <ele>647.59</ele>
        <time>2021-08-14T10:10:16Z</time>
      </trkpt>
      <trkpt lat="45.98373" lon="3.0355">
        <ele>649.03</ele>
        <time>2021-08-14T10:10:27Z</time>
      </trkpt>
      <trkpt lat="45.98368" lon="3.03532">
        <ele>649.99</ele>
        <time>2021-08-14T10:10:36Z</time>
      </trkpt>
      <trkpt lat="45.98362" lon="3.0351">
        <ele>651.43</ele>
        <time>2021-08-14T10:10:47Z</time>
      </trkpt>
      <trkpt lat="45.98358" lon="3.0349">
        <ele>652.39</ele>
        <time>2021-08-14T10:10:56Z</time>
      </trkpt>
      <trkpt lat="45.98357" lon="3.03485">
        <ele>652.39</ele>
        <time>2021-08-14T10:10:58Z</time>
      </trkpt>
      <trkpt lat="45.98356" lon="3.03482">
        <ele>652.39</ele>
        <time>2021-08-14T10:10:59Z</time>
      </trkpt>
      <trkpt lat="45.9835" lon="3.03451">
        <ele>653.35</ele>
        <time>2021-08-14T10:11:09Z</time>
      </trkpt>
      <trkpt lat="45.98342" lon="3.03418">
        <ele>653.83</ele>
        <time>2021-08-14T10:11:17Z</time>
      </trkpt>
      <trkpt lat="45.98337" lon="3.03398">
        <ele>653.83</ele>
        <time>2021-08-14T10:11:21Z</time>
      </trkpt>
      <trkpt lat="45.98334" lon="3.03381">
        <ele>654.31</ele>
        <time>2021-08-14T10:11:26Z</time>
      </trkpt>
      <trkpt lat="45.9833" lon="3.03345">
        <ele>654.8</ele>
        <time>2021-08-14T10:11:34Z</time>
      </trkpt>
      <trkpt lat="45.98327" lon="3.033">
        <ele>654.8</ele>
        <time>2021-08-14T10:11:44Z</time>
      </trkpt>
      <trkpt lat="45.98324" lon="3.03253">
        <ele>656.24</ele>
        <time>2021-08-14T10:11:55Z</time>
      </trkpt>
      <trkpt lat="45.98321" lon="3.03219">
        <ele>657.2</ele>
        <time>2021-08-14T10:12:05Z</time>
      </trkpt>
      <trkpt lat="45.98318" lon="3.03197">
        <ele>658.16</ele>
        <time>2021-08-14T10:12:13Z</time>
      </trkpt>
      <trkpt lat="45.98315" lon="3.03174">
        <ele>659.12</ele>
        <time>2021-08-14T10:12:23Z</time>
      </trkpt>
      <trkpt lat="45.98311" lon="3.03148">
        <ele>661.04</ele>
        <time>2021-08-14T10:12:35Z</time>
      </trkpt>
      <trkpt lat="45.98303" lon="3.0313">
        <ele>662.01</ele>
        <time>2021-08-14T10:12:44Z</time>
      </trkpt>
      <trkpt lat="45.98302" lon="3.03129">
        <ele>662.01</ele>
        <time>2021-08-14T10:12:45Z</time>
      </trkpt>
      <trkpt lat="45.98301" lon="3.03128">
        <ele>662.01</ele>
        <time>2021-08-14T10:12:46Z</time>
      </trkpt>
      <trkpt lat="45.983" lon="3.03127">
        <ele>662.01</ele>
        <time>2021-08-14T10:12:47Z</time>
      </trkpt>
      <trkpt lat="45.98299" lon="3.03125">
        <ele>662.01</ele>
        <time>2021-08-14T10:12:48Z</time>
      </trkpt>
      <trkpt lat="45.98298" lon="3.03124">
        <ele>662.01</ele>
        <time>2021-08-14T10:12:49Z</time>
      </trkpt>
      <trkpt lat="45.98297" lon="3.03122">
        <ele>662.01</ele>
        <time>2021-08-14T10:12:50Z</time>
      </trkpt>
      <trkpt lat="45.98296" lon="3.0312">
        <ele>662.01</ele>
        <time>2021-08-14T10:12:51Z</time>
      </trkpt>
      <trkpt lat="45.98295" lon="3.03119">
        <ele>662.49</ele>
        <time>2021-08-14T10:12:52Z</time>
      </trkpt>
      <trkpt lat="45.98293" lon="3.03117">
        <ele>662.49</ele>
        <time>2021-08-14T10:12:54Z</time>
      </trkpt>
      <trkpt lat="45.98288" lon="3.03109">
        <ele>662.97</ele>
        <time>2021-08-14T10:12:59Z</time>
      </trkpt>
      <trkpt lat="45.98286" lon="3.03108">
        <ele>662.97</ele>
        <time>2021-08-14T10:13:00Z</time>
      </trkpt>
      <trkpt lat="45.98285" lon="3.03106">
        <ele>663.45</ele>
        <time>2021-08-14T10:13:01Z</time>
      </trkpt>
      <trkpt lat="45.98283" lon="3.03105">
        <ele>663.45</ele>
        <time>2021-08-14T10:13:02Z</time>
      </trkpt>
      <trkpt lat="45.98282" lon="3.03103">
        <ele>663.45</ele>
        <time>2021-08-14T10:13:03Z</time>
      </trkpt>
      <trkpt lat="45.98281" lon="3.03101">
        <ele>663.45</ele>
        <time>2021-08-14T10:13:04Z</time>
      </trkpt>
      <trkpt lat="45.98266" lon="3.03087">
        <ele>664.41</ele>
        <time>2021-08-14T10:13:13Z</time>
      </trkpt>
      <trkpt lat="45.98253" lon="3.03071">
        <ele>664.89</ele>
        <time>2021-08-14T10:13:20Z</time>
      </trkpt>
      <trkpt lat="45.98234" lon="3.03051">
        <ele>665.85</ele>
        <time>2021-08-14T10:13:29Z</time>
      </trkpt>
      <trkpt lat="45.98219" lon="3.03032">
        <ele>665.85</ele>
        <time>2021-08-14T10:13:37Z</time>
      </trkpt>
      <trkpt lat="45.98202" lon="3.03018">
        <ele>666.81</ele>
        <time>2021-08-14T10:13:45Z</time>
      </trkpt>
      <trkpt lat="45.98179" lon="3.03012">
        <ele>667.29</ele>
        <time>2021-08-14T10:13:53Z</time>
      </trkpt>
      <trkpt lat="45.98148" lon="3.03011">
        <ele>667.29</ele>
        <time>2021-08-14T10:14:02Z</time>
      </trkpt>
      <trkpt lat="45.98112" lon="3.03008">
        <ele>667.29</ele>
        <time>2021-08-14T10:14:12Z</time>
      </trkpt>
      <trkpt lat="45.98081" lon="3.03002">
        <ele>667.77</ele>
        <time>2021-08-14T10:14:21Z</time>
      </trkpt>
      <trkpt lat="45.98063" lon="3.02999">
        <ele>668.73</ele>
        <time>2021-08-14T10:14:27Z</time>
      </trkpt>
      <trkpt lat="45.98027" lon="3.02989">
        <ele>669.22</ele>
        <time>2021-08-14T10:14:38Z</time>
      </trkpt>
      <trkpt lat="45.97995" lon="3.02985">
        <ele>669.22</ele>
        <time>2021-08-14T10:14:46Z</time>
      </trkpt>
      <trkpt lat="45.97983" lon="3.02984">
        <ele>669.22</ele>
        <time>2021-08-14T10:14:49Z</time>
      </trkpt>
      <trkpt lat="45.97978" lon="3.02984">
        <ele>669.22</ele>
        <time>2021-08-14T10:14:50Z</time>
      </trkpt>
      <trkpt lat="45.97974" lon="3.02983">
        <ele>667.77</ele>
        <time>2021-08-14T10:14:51Z</time>
      </trkpt>
      <trkpt lat="45.97969" lon="3.02983">
        <ele>667.77</ele>
        <time>2021-08-14T10:14:52Z</time>
      </trkpt>
      <trkpt lat="45.97928" lon="3.02982">
        <ele>667.29</ele>
        <time>2021-08-14T10:15:01Z</time>
      </trkpt>
      <trkpt lat="45.97905" lon="3.0298">
        <ele>667.77</ele>
        <time>2021-08-14T10:15:07Z</time>
      </trkpt>
      <trkpt lat="45.979" lon="3.02979">
        <ele>667.77</ele>
        <time>2021-08-14T10:15:08Z</time>
      </trkpt>
      <trkpt lat="45.97858" lon="3.02973">
        <ele>666.81</ele>
        <time>2021-08-14T10:15:18Z</time>
      </trkpt>
      <trkpt lat="45.97845" lon="3.02972">
        <ele>666.33</ele>
        <time>2021-08-14T10:15:21Z</time>
      </trkpt>
      <trkpt lat="45.97817" lon="3.0297">
        <ele>664.89</ele>
        <time>2021-08-14T10:15:27Z</time>
      </trkpt>
      <trkpt lat="45.97796" lon="3.02964">
        <ele>664.41</ele>
        <time>2021-08-14T10:15:31Z</time>
      </trkpt>
      <trkpt lat="45.97756" lon="3.02934">
        <ele>663.45</ele>
        <time>2021-08-14T10:15:39Z</time>
      </trkpt>
      <trkpt lat="45.97727" lon="3.02905">
        <ele>662.97</ele>
        <time>2021-08-14T10:15:46Z</time>
      </trkpt>
      <trkpt lat="45.97711" lon="3.02882">
        <ele>662.97</ele>
        <time>2021-08-14T10:15:51Z</time>
      </trkpt>
      <trkpt lat="45.97708" lon="3.02877">
        <ele>662.49</ele>
        <time>2021-08-14T10:15:52Z</time>
      </trkpt>
      <trkpt lat="45.97704" lon="3.02872">
        <ele>662.49</ele>
        <time>2021-08-14T10:15:53Z</time>
      </trkpt>
      <trkpt lat="45.97696" lon="3.02864">
        <ele>662.49</ele>
        <time>2021-08-14T10:15:55Z</time>
      </trkpt>
      <trkpt lat="45.97691" lon="3.0286">
        <ele>662.49</ele>
        <time>2021-08-14T10:15:56Z</time>
      </trkpt>
      <trkpt lat="45.97646" lon="3.02838">
        <ele>661.04</ele>
        <time>2021-08-14T10:16:04Z</time>
      </trkpt>
      <trkpt lat="45.97581" lon="3.02818">
        <ele>660.08</ele>
        <time>2021-08-14T10:16:15Z</time>
      </trkpt>
      <trkpt lat="45.97576" lon="3.02816">
        <ele>660.56</ele>
        <time>2021-08-14T10:16:16Z</time>
      </trkpt>
      <trkpt lat="45.97542" lon="3.02793">
        <ele>660.56</ele>
        <time>2021-08-14T10:16:23Z</time>
      </trkpt>
      <trkpt lat="45.97513" lon="3.02764">
        <ele>660.56</ele>
        <time>2021-08-14T10:16:30Z</time>
      </trkpt>
      <trkpt lat="45.97474" lon="3.02724">
        <ele>661.52</ele>
        <time>2021-08-14T10:16:40Z</time>
      </trkpt>
      <trkpt lat="45.97449" lon="3.02698">
        <ele>662.01</ele>
        <time>2021-08-14T10:16:47Z</time>
      </trkpt>
      <trkpt lat="45.97427" lon="3.02676">
        <ele>662.01</ele>
        <time>2021-08-14T10:16:53Z</time>
      </trkpt>
      <trkpt lat="45.97403" lon="3.02649">
        <ele>662.01</ele>
        <time>2021-08-14T10:17:00Z</time>
      </trkpt>
      <trkpt lat="45.97399" lon="3.02643">
        <ele>662.01</ele>
        <time>2021-08-14T10:17:01Z</time>
      </trkpt>
      <trkpt lat="45.97397" lon="3.02638">
        <ele>662.01</ele>
        <time>2021-08-14T10:17:02Z</time>
      </trkpt>
      <trkpt lat="45.97394" lon="3.02633">
        <ele>662.01</ele>
        <time>2021-08-14T10:17:03Z</time>
      </trkpt>
      <trkpt lat="45.97392" lon="3.02627">
        <ele>662.01</ele>
        <time>2021-08-14T10:17:04Z</time>
      </trkpt>
      <trkpt lat="45.97365" lon="3.0257">
        <ele>662.01</ele>
        <time>2021-08-14T10:17:14Z</time>
      </trkpt>
      <trkpt lat="45.97338" lon="3.02527">
        <ele>662.01</ele>
        <time>2021-08-14T10:17:22Z</time>
      </trkpt>
      <trkpt lat="45.97311" lon="3.02493">
        <ele>662.01</ele>
        <time>2021-08-14T10:17:30Z</time>
      </trkpt>
      <trkpt lat="45.97303" lon="3.02485">
        <ele>662.01</ele>
        <time>2021-08-14T10:17:35Z</time>
      </trkpt>
      <trkpt lat="45.97297" lon="3.02482">
        <ele>662.01</ele>
        <time>2021-08-14T10:17:42Z</time>
      </trkpt>
      <trkpt lat="45.97279" lon="3.02475">
        <ele>662.49</ele>
        <time>2021-08-14T10:17:48Z</time>
      </trkpt>
      <trkpt lat="45.97247" lon="3.02461">
        <ele>663.45</ele>
        <time>2021-08-14T10:17:57Z</time>
      </trkpt>
      <trkpt lat="45.9722" lon="3.02443">
        <ele>663.93</ele>
        <time>2021-08-14T10:18:05Z</time>
      </trkpt>
      <trkpt lat="45.97205" lon="3.02424">
        <ele>664.89</ele>
        <time>2021-08-14T10:18:12Z</time>
      </trkpt>
      <trkpt lat="45.97198" lon="3.02409">
        <ele>666.33</ele>
        <time>2021-08-14T10:18:18Z</time>
      </trkpt>
      <trkpt lat="45.97191" lon="3.0239">
        <ele>667.29</ele>
        <time>2021-08-14T10:18:26Z</time>
      </trkpt>
      <trkpt lat="45.9718" lon="3.02367">
        <ele>668.73</ele>
        <time>2021-08-14T10:18:37Z</time>
      </trkpt>
      <trkpt lat="45.97168" lon="3.02352">
        <ele>670.66</ele>
        <time>2021-08-14T10:18:46Z</time>
      </trkpt>
      <trkpt lat="45.97151" lon="3.02343">
        <ele>671.14</ele>
        <time>2021-08-14T10:18:56Z</time>
      </trkpt>
      <trkpt lat="45.97133" lon="3.0234">
        <ele>672.1</ele>
        <time>2021-08-14T10:19:04Z</time>
      </trkpt>
      <trkpt lat="45.97122" lon="3.02336">
        <ele>673.06</ele>
        <time>2021-08-14T10:19:10Z</time>
      </trkpt>
      <trkpt lat="45.97103" lon="3.02331">
        <ele>672.58</ele>
        <time>2021-08-14T10:19:18Z</time>
      </trkpt>
      <trkpt lat="45.97075" lon="3.02315">
        <ele>672.58</ele>
        <time>2021-08-14T10:19:27Z</time>
      </trkpt>
      <trkpt lat="45.97054" lon="3.02294">
        <ele>672.58</ele>
        <time>2021-08-14T10:19:34Z</time>
      </trkpt>
      <trkpt lat="45.97032" lon="3.02263">
        <ele>672.58</ele>
        <time>2021-08-14T10:19:42Z</time>
      </trkpt>
      <trkpt lat="45.97017" lon="3.02227">
        <ele>672.58</ele>
        <time>2021-08-14T10:19:50Z</time>
      </trkpt>
      <trkpt lat="45.97007" lon="3.02201">
        <ele>672.58</ele>
        <time>2021-08-14T10:19:57Z</time>
      </trkpt>
      <trkpt lat="45.96996" lon="3.02176">
        <ele>674.02</ele>
        <time>2021-08-14T10:20:05Z</time>
      </trkpt>
      <trkpt lat="45.96995" lon="3.02174">
        <ele>674.02</ele>
        <time>2021-08-14T10:20:06Z</time>
      </trkpt>
      <trkpt lat="45.96973" lon="3.02148">
        <ele>675.94</ele>
        <time>2021-08-14T10:20:17Z</time>
      </trkpt>
      <trkpt lat="45.9697" lon="3.02145">
        <ele>675.94</ele>
        <time>2021-08-14T10:20:19Z</time>
      </trkpt>
      <trkpt lat="45.96968" lon="3.02144">
        <ele>675.94</ele>
        <time>2021-08-14T10:20:20Z</time>
      </trkpt>
      <trkpt lat="45.96949" lon="3.02136">
        <ele>676.42</ele>
        <time>2021-08-14T10:20:27Z</time>
      </trkpt>
      <trkpt lat="45.96922" lon="3.02133">
        <ele>676.42</ele>
        <time>2021-08-14T10:20:34Z</time>
      </trkpt>
      <trkpt lat="45.96899" lon="3.02123">
        <ele>674.5</ele>
        <time>2021-08-14T10:20:39Z</time>
      </trkpt>
      <trkpt lat="45.96852" lon="3.0209">
        <ele>673.54</ele>
        <time>2021-08-14T10:20:48Z</time>
      </trkpt>
      <trkpt lat="45.96805" lon="3.02058">
        <ele>672.1</ele>
        <time>2021-08-14T10:20:56Z</time>
      </trkpt>
      <trkpt lat="45.96761" lon="3.02025">
        <ele>672.1</ele>
        <time>2021-08-14T10:21:04Z</time>
      </trkpt>
      <trkpt lat="45.96745" lon="3.02015">
        <ele>672.1</ele>
        <time>2021-08-14T10:21:07Z</time>
      </trkpt>
      <trkpt lat="45.96718" lon="3.02005">
        <ele>674.02</ele>
        <time>2021-08-14T10:21:13Z</time>
      </trkpt>
      <trkpt lat="45.96682" lon="3.01996">
        <ele>675.94</ele>
        <time>2021-08-14T10:21:23Z</time>
      </trkpt>
      <trkpt lat="45.96658" lon="3.01991">
        <ele>676.42</ele>
        <time>2021-08-14T10:21:30Z</time>
      </trkpt>
      <trkpt lat="45.96619" lon="3.01981">
        <ele>676.91</ele>
        <time>2021-08-14T10:21:40Z</time>
      </trkpt>
      <trkpt lat="45.96586" lon="3.01965">
        <ele>676.91</ele>
        <time>2021-08-14T10:21:48Z</time>
      </trkpt>
      <trkpt lat="45.96556" lon="3.01945">
        <ele>676.91</ele>
        <time>2021-08-14T10:21:55Z</time>
      </trkpt>
      <trkpt lat="45.96524" lon="3.01933">
        <ele>678.35</ele>
        <time>2021-08-14T10:22:04Z</time>
      </trkpt>
      <trkpt lat="45.965" lon="3.01945">
        <ele>678.83</ele>
        <time>2021-08-14T10:22:12Z</time>
      </trkpt>
      <trkpt lat="45.96485" lon="3.01976">
        <ele>678.83</ele>
        <time>2021-08-14T10:22:19Z</time>
      </trkpt>
      <trkpt lat="45.96469" lon="3.0201">
        <ele>678.83</ele>
        <time>2021-08-14T10:22:27Z</time>
      </trkpt>
      <trkpt lat="45.96449" lon="3.02039">
        <ele>678.83</ele>
        <time>2021-08-14T10:22:35Z</time>
      </trkpt>
      <trkpt lat="45.96445" lon="3.02042">
        <ele>678.83</ele>
        <time>2021-08-14T10:22:36Z</time>
      </trkpt>
      <trkpt lat="45.96441" lon="3.02044">
        <ele>677.39</ele>
        <time>2021-08-14T10:22:37Z</time>
      </trkpt>
      <trkpt lat="45.96436" lon="3.02046">
        <ele>676.91</ele>
        <time>2021-08-14T10:22:38Z</time>
      </trkpt>
      <trkpt lat="45.96418" lon="3.02048">
        <ele>675.46</ele>
        <time>2021-08-14T10:22:41Z</time>
      </trkpt>
      <trkpt lat="45.96373" lon="3.02047">
        <ele>672.1</ele>
        <time>2021-08-14T10:22:47Z</time>
      </trkpt>
      <trkpt lat="45.96357" lon="3.02046">
        <ele>671.14</ele>
        <time>2021-08-14T10:22:49Z</time>
      </trkpt>
      <trkpt lat="45.96282" lon="3.02042">
        <ele>670.66</ele>
        <time>2021-08-14T10:22:58Z</time>
      </trkpt>
      <trkpt lat="45.96237" lon="3.02043">
        <ele>672.58</ele>
        <time>2021-08-14T10:23:05Z</time>
      </trkpt>
      <trkpt lat="45.96195" lon="3.02056">
        <ele>672.58</ele>
        <time>2021-08-14T10:23:13Z</time>
      </trkpt>
      <trkpt lat="45.96177" lon="3.02065">
        <ele>673.06</ele>
        <time>2021-08-14T10:23:17Z</time>
      </trkpt>
      <trkpt lat="45.96137" lon="3.02092">
        <ele>673.54</ele>
        <time>2021-08-14T10:23:27Z</time>
      </trkpt>
      <trkpt lat="45.96133" lon="3.02095">
        <ele>673.54</ele>
        <time>2021-08-14T10:23:28Z</time>
      </trkpt>
      <trkpt lat="45.9613" lon="3.02098">
        <ele>673.54</ele>
        <time>2021-08-14T10:23:29Z</time>
      </trkpt>
      <trkpt lat="45.96111" lon="3.02113">
        <ele>674.02</ele>
        <time>2021-08-14T10:23:35Z</time>
      </trkpt>
      <trkpt lat="45.96086" lon="3.02132">
        <ele>674.02</ele>
        <time>2021-08-14T10:23:42Z</time>
      </trkpt>
      <trkpt lat="45.96062" lon="3.02151">
        <ele>674.98</ele>
        <time>2021-08-14T10:23:50Z</time>
      </trkpt>
      <trkpt lat="45.96041" lon="3.02171">
        <ele>676.91</ele>
        <time>2021-08-14T10:24:00Z</time>
      </trkpt>
      <trkpt lat="45.96024" lon="3.02191">
        <ele>678.35</ele>
        <time>2021-08-14T10:24:09Z</time>
      </trkpt>
      <trkpt lat="45.96011" lon="3.0221">
        <ele>678.83</ele>
        <time>2021-08-14T10:24:17Z</time>
      </trkpt>
      <trkpt lat="45.95998" lon="3.02231">
        <ele>679.79</ele>
        <time>2021-08-14T10:24:25Z</time>
      </trkpt>
      <trkpt lat="45.95983" lon="3.02262">
        <ele>680.27</ele>
        <time>2021-08-14T10:24:34Z</time>
      </trkpt>
      <trkpt lat="45.95968" lon="3.02292">
        <ele>681.23</ele>
        <time>2021-08-14T10:24:42Z</time>
      </trkpt>
      <trkpt lat="45.95946" lon="3.02326">
        <ele>681.23</ele>
        <time>2021-08-14T10:24:51Z</time>
      </trkpt>
      <trkpt lat="45.95923" lon="3.0235">
        <ele>681.71</ele>
        <time>2021-08-14T10:24:59Z</time>
      </trkpt>
      <trkpt lat="45.95915" lon="3.02357">
        <ele>681.71</ele>
        <time>2021-08-14T10:25:01Z</time>
      </trkpt>
      <trkpt lat="45.95907" lon="3.02362">
        <ele>681.71</ele>
        <time>2021-08-14T10:25:03Z</time>
      </trkpt>
      <trkpt lat="45.95896" lon="3.02368">
        <ele>681.71</ele>
        <time>2021-08-14T10:25:06Z</time>
      </trkpt>
      <trkpt lat="45.9589" lon="3.02369">
        <ele>681.71</ele>
        <time>2021-08-14T10:25:07Z</time>
      </trkpt>
      <trkpt lat="45.9587" lon="3.02378">
        <ele>681.71</ele>
        <time>2021-08-14T10:25:12Z</time>
      </trkpt>
      <trkpt lat="45.95834" lon="3.02388">
        <ele>680.27</ele>
        <time>2021-08-14T10:25:19Z</time>
      </trkpt>
      <trkpt lat="45.95814" lon="3.02392">
        <ele>680.27</ele>
        <time>2021-08-14T10:25:23Z</time>
      </trkpt>
      <trkpt lat="45.95781" lon="3.02399">
        <ele>680.27</ele>
        <time>2021-08-14T10:25:29Z</time>
      </trkpt>
      <trkpt lat="45.95767" lon="3.02397">
        <ele>680.27</ele>
        <time>2021-08-14T10:25:32Z</time>
      </trkpt>
      <trkpt lat="45.95762" lon="3.02394">
        <ele>680.27</ele>
        <time>2021-08-14T10:25:33Z</time>
      </trkpt>
      <trkpt lat="45.95745" lon="3.02378">
        <ele>680.27</ele>
        <time>2021-08-14T10:25:39Z</time>
      </trkpt>
      <trkpt lat="45.95734" lon="3.02361">
        <ele>681.71</ele>
        <time>2021-08-14T10:25:43Z</time>
      </trkpt>
      <trkpt lat="45.95717" lon="3.02326">
        <ele>682.67</ele>
        <time>2021-08-14T10:25:52Z</time>
      </trkpt>
      <trkpt lat="45.95701" lon="3.02296">
        <ele>683.63</ele>
        <time>2021-08-14T10:26:00Z</time>
      </trkpt>
      <trkpt lat="45.95681" lon="3.0226">
        <ele>684.6</ele>
        <time>2021-08-14T10:26:09Z</time>
      </trkpt>
      <trkpt lat="45.95666" lon="3.02238">
        <ele>685.08</ele>
        <time>2021-08-14T10:26:15Z</time>
      </trkpt>
      <trkpt lat="45.95658" lon="3.0222">
        <ele>685.08</ele>
        <time>2021-08-14T10:26:19Z</time>
      </trkpt>
      <trkpt lat="45.95655" lon="3.02215">
        <ele>685.08</ele>
        <time>2021-08-14T10:26:20Z</time>
      </trkpt>
      <trkpt lat="45.95643" lon="3.02194">
        <ele>685.08</ele>
        <time>2021-08-14T10:26:24Z</time>
      </trkpt>
      <trkpt lat="45.95618" lon="3.02147">
        <ele>685.08</ele>
        <time>2021-08-14T10:26:33Z</time>
      </trkpt>
      <trkpt lat="45.95589" lon="3.02094">
        <ele>685.08</ele>
        <time>2021-08-14T10:26:42Z</time>
      </trkpt>
      <trkpt lat="45.9558" lon="3.02075">
        <ele>684.12</ele>
        <time>2021-08-14T10:26:45Z</time>
      </trkpt>
      <trkpt lat="45.95564" lon="3.02022">
        <ele>682.19</ele>
        <time>2021-08-14T10:26:52Z</time>
      </trkpt>
      <trkpt lat="45.95553" lon="3.01985">
        <ele>680.75</ele>
        <time>2021-08-14T10:26:56Z</time>
      </trkpt>
      <trkpt lat="45.95549" lon="3.01976">
        <ele>680.27</ele>
        <time>2021-08-14T10:26:57Z</time>
      </trkpt>
      <trkpt lat="45.95544" lon="3.01967">
        <ele>679.31</ele>
        <time>2021-08-14T10:26:58Z</time>
      </trkpt>
      <trkpt lat="45.95538" lon="3.01959">
        <ele>678.83</ele>
        <time>2021-08-14T10:26:59Z</time>
      </trkpt>
      <trkpt lat="45.95531" lon="3.01951">
        <ele>678.35</ele>
        <time>2021-08-14T10:27:00Z</time>
      </trkpt>
      <trkpt lat="45.95524" lon="3.01945">
        <ele>677.39</ele>
        <time>2021-08-14T10:27:01Z</time>
      </trkpt>
      <trkpt lat="45.95515" lon="3.01939">
        <ele>676.91</ele>
        <time>2021-08-14T10:27:02Z</time>
      </trkpt>
      <trkpt lat="45.95507" lon="3.01934">
        <ele>675.94</ele>
        <time>2021-08-14T10:27:03Z</time>
      </trkpt>
      <trkpt lat="45.95498" lon="3.01928">
        <ele>675.94</ele>
        <time>2021-08-14T10:27:04Z</time>
      </trkpt>
      <trkpt lat="45.95471" lon="3.01911">
        <ele>674.02</ele>
        <time>2021-08-14T10:27:07Z</time>
      </trkpt>
      <trkpt lat="45.95446" lon="3.01886">
        <ele>672.58</ele>
        <time>2021-08-14T10:27:10Z</time>
      </trkpt>
      <trkpt lat="45.95405" lon="3.01827">
        <ele>673.06</ele>
        <time>2021-08-14T10:27:16Z</time>
      </trkpt>
      <trkpt lat="45.95383" lon="3.01788">
        <ele>675.46</ele>
        <time>2021-08-14T10:27:21Z</time>
      </trkpt>
      <trkpt lat="45.9537" lon="3.0177">
        <ele>677.39</ele>
        <time>2021-08-14T10:27:26Z</time>
      </trkpt>
      <trkpt lat="45.95358" lon="3.01754">
        <ele>679.31</ele>
        <time>2021-08-14T10:27:33Z</time>
      </trkpt>
      <trkpt lat="45.95346" lon="3.0174">
        <ele>681.23</ele>
        <time>2021-08-14T10:27:41Z</time>
      </trkpt>
      <trkpt lat="45.95332" lon="3.01728">
        <ele>682.67</ele>
        <time>2021-08-14T10:27:49Z</time>
      </trkpt>
      <trkpt lat="45.95319" lon="3.0172">
        <ele>683.63</ele>
        <time>2021-08-14T10:27:56Z</time>
      </trkpt>
      <trkpt lat="45.95307" lon="3.01713">
        <ele>684.6</ele>
        <time>2021-08-14T10:28:03Z</time>
      </trkpt>
      <trkpt lat="45.95292" lon="3.01706">
        <ele>686.04</ele>
        <time>2021-08-14T10:28:12Z</time>
      </trkpt>
      <trkpt lat="45.9529" lon="3.01706">
        <ele>686.04</ele>
        <time>2021-08-14T10:28:13Z</time>
      </trkpt>
      <trkpt lat="45.95288" lon="3.01705">
        <ele>686.04</ele>
        <time>2021-08-14T10:28:14Z</time>
      </trkpt>
      <trkpt lat="45.95287" lon="3.01705">
        <ele>686.04</ele>
        <time>2021-08-14T10:28:15Z</time>
      </trkpt>
      <trkpt lat="45.95285" lon="3.01703">
        <ele>686.52</ele>
        <time>2021-08-14T10:28:16Z</time>
      </trkpt>
      <trkpt lat="45.95284" lon="3.01703">
        <ele>686.52</ele>
        <time>2021-08-14T10:28:17Z</time>
      </trkpt>
      <trkpt lat="45.95282" lon="3.01702">
        <ele>686.52</ele>
        <time>2021-08-14T10:28:18Z</time>
      </trkpt>
      <trkpt lat="45.95267" lon="3.01693">
        <ele>687.48</ele>
        <time>2021-08-14T10:28:27Z</time>
      </trkpt>
      <trkpt lat="45.95252" lon="3.01688">
        <ele>688.44</ele>
        <time>2021-08-14T10:28:35Z</time>
      </trkpt>
      <trkpt lat="45.95236" lon="3.01685">
        <ele>689.4</ele>
        <time>2021-08-14T10:28:44Z</time>
      </trkpt>
      <trkpt lat="45.95224" lon="3.01684">
        <ele>689.88</ele>
        <time>2021-08-14T10:28:51Z</time>
      </trkpt>
      <trkpt lat="45.95209" lon="3.01684">
        <ele>690.84</ele>
        <time>2021-08-14T10:28:59Z</time>
      </trkpt>
      <trkpt lat="45.95192" lon="3.01687">
        <ele>691.81</ele>
        <time>2021-08-14T10:29:08Z</time>
      </trkpt>
      <trkpt lat="45.95179" lon="3.01687">
        <ele>692.29</ele>
        <time>2021-08-14T10:29:15Z</time>
      </trkpt>
      <trkpt lat="45.95163" lon="3.01689">
        <ele>693.25</ele>
        <time>2021-08-14T10:29:24Z</time>
      </trkpt>
      <trkpt lat="45.95144" lon="3.01691">
        <ele>694.21</ele>
        <time>2021-08-14T10:29:35Z</time>
      </trkpt>
      <trkpt lat="45.95131" lon="3.01692">
        <ele>695.17</ele>
        <time>2021-08-14T10:29:43Z</time>
      </trkpt>
      <trkpt lat="45.95117" lon="3.01693">
        <ele>696.13</ele>
        <time>2021-08-14T10:29:50Z</time>
      </trkpt>
      <trkpt lat="45.95097" lon="3.01689">
        <ele>697.09</ele>
        <time>2021-08-14T10:30:00Z</time>
      </trkpt>
      <trkpt lat="45.95082" lon="3.01683">
        <ele>698.05</ele>
        <time>2021-08-14T10:30:08Z</time>
      </trkpt>
      <trkpt lat="45.95065" lon="3.01675">
        <ele>698.53</ele>
        <time>2021-08-14T10:30:17Z</time>
      </trkpt>
      <trkpt lat="45.95047" lon="3.01665">
        <ele>699.02</ele>
        <time>2021-08-14T10:30:25Z</time>
      </trkpt>
      <trkpt lat="45.95028" lon="3.01653">
        <ele>699.5</ele>
        <time>2021-08-14T10:30:33Z</time>
      </trkpt>
      <trkpt lat="45.95009" lon="3.01643">
        <ele>700.46</ele>
        <time>2021-08-14T10:30:41Z</time>
      </trkpt>
      <trkpt lat="45.94991" lon="3.01633">
        <ele>701.42</ele>
        <time>2021-08-14T10:30:48Z</time>
      </trkpt>
      <trkpt lat="45.94972" lon="3.01622">
        <ele>702.38</ele>
        <time>2021-08-14T10:30:56Z</time>
      </trkpt>
      <trkpt lat="45.94952" lon="3.01611">
        <ele>703.34</ele>
        <time>2021-08-14T10:31:05Z</time>
      </trkpt>
      <trkpt lat="45.94937" lon="3.01604">
        <ele>704.3</ele>
        <time>2021-08-14T10:31:12Z</time>
      </trkpt>
      <trkpt lat="45.94929" lon="3.016">
        <ele>704.78</ele>
        <time>2021-08-14T10:31:16Z</time>
      </trkpt>
      <trkpt lat="45.94917" lon="3.01592">
        <ele>705.75</ele>
        <time>2021-08-14T10:31:22Z</time>
      </trkpt>
      <trkpt lat="45.94893" lon="3.0158">
        <ele>706.71</ele>
        <time>2021-08-14T10:31:34Z</time>
      </trkpt>
      <trkpt lat="45.94873" lon="3.01573">
        <ele>707.67</ele>
        <time>2021-08-14T10:31:42Z</time>
      </trkpt>
      <trkpt lat="45.94845" lon="3.01567">
        <ele>707.67</ele>
        <time>2021-08-14T10:31:51Z</time>
      </trkpt>
      <trkpt lat="45.94808" lon="3.01561">
        <ele>708.63</ele>
        <time>2021-08-14T10:32:01Z</time>
      </trkpt>
      <trkpt lat="45.9477" lon="3.01557">
        <ele>708.63</ele>
        <time>2021-08-14T10:32:11Z</time>
      </trkpt>
      <trkpt lat="45.94734" lon="3.01547">
        <ele>708.63</ele>
        <time>2021-08-14T10:32:20Z</time>
      </trkpt>
      <trkpt lat="45.94725" lon="3.01543">
        <ele>708.63</ele>
        <time>2021-08-14T10:32:22Z</time>
      </trkpt>
      <trkpt lat="45.94722" lon="3.0154">
        <ele>708.63</ele>
        <time>2021-08-14T10:32:23Z</time>
      </trkpt>
      <trkpt lat="45.94718" lon="3.01536">
        <ele>708.63</ele>
        <time>2021-08-14T10:32:24Z</time>
      </trkpt>
      <trkpt lat="45.94714" lon="3.01533">
        <ele>708.63</ele>
        <time>2021-08-14T10:32:25Z</time>
      </trkpt>
      <trkpt lat="45.94709" lon="3.01529">
        <ele>708.63</ele>
        <time>2021-08-14T10:32:26Z</time>
      </trkpt>
      <trkpt lat="45.94706" lon="3.01525">
        <ele>708.63</ele>
        <time>2021-08-14T10:32:27Z</time>
      </trkpt>
      <trkpt lat="45.94702" lon="3.0152">
        <ele>708.63</ele>
        <time>2021-08-14T10:32:28Z</time>
      </trkpt>
      <trkpt lat="45.94699" lon="3.01515">
        <ele>708.63</ele>
        <time>2021-08-14T10:32:29Z</time>
      </trkpt>
      <trkpt lat="45.94671" lon="3.01472">
        <ele>708.63</ele>
        <time>2021-08-14T10:32:38Z</time>
      </trkpt>
      <trkpt lat="45.94668" lon="3.01468">
        <ele>708.63</ele>
        <time>2021-08-14T10:32:39Z</time>
      </trkpt>
      <trkpt lat="45.94666" lon="3.01463">
        <ele>708.63</ele>
        <time>2021-08-14T10:32:40Z</time>
      </trkpt>
      <trkpt lat="45.94663" lon="3.01459">
        <ele>708.63</ele>
        <time>2021-08-14T10:32:41Z</time>
      </trkpt>
      <trkpt lat="45.9466" lon="3.01455">
        <ele>708.63</ele>
        <time>2021-08-14T10:32:42Z</time>
      </trkpt>
      <trkpt lat="45.94658" lon="3.0145">
        <ele>708.63</ele>
        <time>2021-08-14T10:32:43Z</time>
      </trkpt>
      <trkpt lat="45.94628" lon="3.01404">
        <ele>707.19</ele>
        <time>2021-08-14T10:32:53Z</time>
      </trkpt>
      <trkpt lat="45.94625" lon="3.01399">
        <ele>707.19</ele>
        <time>2021-08-14T10:32:54Z</time>
      </trkpt>
      <trkpt lat="45.94589" lon="3.01341">
        <ele>706.23</ele>
        <time>2021-08-14T10:33:03Z</time>
      </trkpt>
      <trkpt lat="45.9454" lon="3.01264">
        <ele>705.26</ele>
        <time>2021-08-14T10:33:14Z</time>
      </trkpt>
      <trkpt lat="45.94495" lon="3.01198">
        <ele>704.78</ele>
        <time>2021-08-14T10:33:24Z</time>
      </trkpt>
      <trkpt lat="45.94451" lon="3.01154">
        <ele>702.38</ele>
        <time>2021-08-14T10:33:32Z</time>
      </trkpt>
      <trkpt lat="45.94401" lon="3.01107">
        <ele>699.5</ele>
        <time>2021-08-14T10:33:40Z</time>
      </trkpt>
      <trkpt lat="45.9435" lon="3.01057">
        <ele>696.13</ele>
        <time>2021-08-14T10:33:47Z</time>
      </trkpt>
      <trkpt lat="45.94303" lon="3.0101">
        <ele>693.25</ele>
        <time>2021-08-14T10:33:53Z</time>
      </trkpt>
      <trkpt lat="45.94296" lon="3.01">
        <ele>692.29</ele>
        <time>2021-08-14T10:33:54Z</time>
      </trkpt>
      <trkpt lat="45.94289" lon="3.00989">
        <ele>692.29</ele>
        <time>2021-08-14T10:33:55Z</time>
      </trkpt>
      <trkpt lat="45.9425" lon="3.00925">
        <ele>689.4</ele>
        <time>2021-08-14T10:34:01Z</time>
      </trkpt>
      <trkpt lat="45.94216" lon="3.00874">
        <ele>687</ele>
        <time>2021-08-14T10:34:06Z</time>
      </trkpt>
      <trkpt lat="45.94209" lon="3.00865">
        <ele>686.04</ele>
        <time>2021-08-14T10:34:07Z</time>
      </trkpt>
      <trkpt lat="45.94199" lon="3.00857">
        <ele>686.04</ele>
        <time>2021-08-14T10:34:08Z</time>
      </trkpt>
      <trkpt lat="45.94191" lon="3.00852">
        <ele>685.56</ele>
        <time>2021-08-14T10:34:09Z</time>
      </trkpt>
      <trkpt lat="45.94181" lon="3.00848">
        <ele>684.6</ele>
        <time>2021-08-14T10:34:10Z</time>
      </trkpt>
      <trkpt lat="45.94172" lon="3.00846">
        <ele>684.12</ele>
        <time>2021-08-14T10:34:11Z</time>
      </trkpt>
      <trkpt lat="45.94162" lon="3.00845">
        <ele>684.12</ele>
        <time>2021-08-14T10:34:12Z</time>
      </trkpt>
      <trkpt lat="45.94152" lon="3.00846">
        <ele>683.63</ele>
        <time>2021-08-14T10:34:13Z</time>
      </trkpt>
      <trkpt lat="45.94108" lon="3.00849">
        <ele>682.67</ele>
        <time>2021-08-14T10:34:18Z</time>
      </trkpt>
      <trkpt lat="45.94091" lon="3.00848">
        <ele>682.19</ele>
        <time>2021-08-14T10:34:23Z</time>
      </trkpt>
      <trkpt lat="45.94083" lon="3.00852">
        <ele>681.71</ele>
        <time>2021-08-14T10:34:28Z</time>
      </trkpt>
      <trkpt lat="45.9409" lon="3.00852">
        <ele>681.23</ele>
        <time>2021-08-14T10:34:32Z</time>
      </trkpt>
      <trkpt lat="45.94108" lon="3.00846">
        <ele>682.67</ele>
        <time>2021-08-14T10:34:39Z</time>
      </trkpt>
      <trkpt lat="45.9412" lon="3.00824">
        <ele>680.27</ele>
        <time>2021-08-14T10:34:44Z</time>
      </trkpt>
      <trkpt lat="45.94141" lon="3.00784">
        <ele>678.35</ele>
        <time>2021-08-14T10:34:50Z</time>
      </trkpt>
      <trkpt lat="45.94146" lon="3.00779">
        <ele>677.87</ele>
        <time>2021-08-14T10:34:51Z</time>
      </trkpt>
      <trkpt lat="45.94176" lon="3.00754">
        <ele>676.91</ele>
        <time>2021-08-14T10:34:57Z</time>
      </trkpt>
      <trkpt lat="45.9418" lon="3.00749">
        <ele>676.91</ele>
        <time>2021-08-14T10:34:58Z</time>
      </trkpt>
      <trkpt lat="45.94183" lon="3.00744">
        <ele>676.91</ele>
        <time>2021-08-14T10:34:59Z</time>
      </trkpt>
      <trkpt lat="45.94186" lon="3.00737">
        <ele>676.91</ele>
        <time>2021-08-14T10:35:00Z</time>
      </trkpt>
      <trkpt lat="45.94188" lon="3.00731">
        <ele>676.91</ele>
        <time>2021-08-14T10:35:01Z</time>
      </trkpt>
      <trkpt lat="45.9419" lon="3.00725">
        <ele>676.91</ele>
        <time>2021-08-14T10:35:02Z</time>
      </trkpt>
      <trkpt lat="45.94192" lon="3.00718">
        <ele>676.91</ele>
        <time>2021-08-14T10:35:03Z</time>
      </trkpt>
      <trkpt lat="45.94193" lon="3.0071">
        <ele>676.42</ele>
        <time>2021-08-14T10:35:04Z</time>
      </trkpt>
      <trkpt lat="45.94198" lon="3.00653">
        <ele>675.94</ele>
        <time>2021-08-14T10:35:12Z</time>
      </trkpt>
      <trkpt lat="45.94199" lon="3.00641">
        <ele>675.94</ele>
        <time>2021-08-14T10:35:16Z</time>
      </trkpt>
      <trkpt lat="45.942" lon="3.00639">
        <ele>675.94</ele>
        <time>2021-08-14T10:35:17Z</time>
      </trkpt>
      <trkpt lat="45.94204" lon="3.00632">
        <ele>675.94</ele>
        <time>2021-08-14T10:35:21Z</time>
      </trkpt>
      <trkpt lat="45.94201" lon="3.00634">
        <ele>675.94</ele>
        <time>2021-08-14T10:35:24Z</time>
      </trkpt>
      <trkpt lat="45.942" lon="3.00636">
        <ele>675.94</ele>
        <time>2021-08-14T10:35:25Z</time>
      </trkpt>
      <trkpt lat="45.94199" lon="3.00638">
        <ele>675.94</ele>
        <time>2021-08-14T10:35:26Z</time>
      </trkpt>
      <trkpt lat="45.94197" lon="3.00639">
        <ele>675.94</ele>
        <time>2021-08-14T10:35:27Z</time>
      </trkpt>
      <trkpt lat="45.94195" lon="3.0064">
        <ele>675.94</ele>
        <time>2021-08-14T10:35:28Z</time>
      </trkpt>
      <trkpt lat="45.94193" lon="3.00638">
        <ele>675.94</ele>
        <time>2021-08-14T10:35:29Z</time>
      </trkpt>
      <trkpt lat="45.94192" lon="3.00636">
        <ele>675.94</ele>
        <time>2021-08-14T10:35:30Z</time>
      </trkpt>
      <trkpt lat="45.9419" lon="3.00633">
        <ele>675.94</ele>
        <time>2021-08-14T10:35:31Z</time>
      </trkpt>
      <trkpt lat="45.94189" lon="3.00631">
        <ele>675.94</ele>
        <time>2021-08-14T10:35:32Z</time>
      </trkpt>
      <trkpt lat="45.94188" lon="3.00629">
        <ele>675.94</ele>
        <time>2021-08-14T10:35:33Z</time>
      </trkpt>
      <trkpt lat="45.94187" lon="3.00627">
        <ele>675.94</ele>
        <time>2021-08-14T10:35:34Z</time>
      </trkpt>
      <trkpt lat="45.94179" lon="3.00609">
        <ele>677.87</ele>
        <time>2021-08-14T10:35:42Z</time>
      </trkpt>
      <trkpt lat="45.94172" lon="3.0059">
        <ele>678.83</ele>
        <time>2021-08-14T10:35:50Z</time>
      </trkpt>
      <trkpt lat="45.94164" lon="3.00571">
        <ele>679.79</ele>
        <time>2021-08-14T10:35:58Z</time>
      </trkpt>
      <trkpt lat="45.94156" lon="3.00562">
        <ele>681.71</ele>
        <time>2021-08-14T10:36:05Z</time>
      </trkpt>
      <trkpt lat="45.94152" lon="3.0056">
        <ele>682.19</ele>
        <time>2021-08-14T10:36:08Z</time>
      </trkpt>
      <trkpt lat="45.9415" lon="3.0056">
        <ele>682.19</ele>
        <time>2021-08-14T10:36:09Z</time>
      </trkpt>
      <trkpt lat="45.94141" lon="3.00561">
        <ele>683.15</ele>
        <time>2021-08-14T10:36:17Z</time>
      </trkpt>
      <trkpt lat="45.9414" lon="3.0056">
        <ele>683.15</ele>
        <time>2021-08-14T10:36:18Z</time>
      </trkpt>
      <trkpt lat="45.94138" lon="3.0056">
        <ele>684.12</ele>
        <time>2021-08-14T10:36:19Z</time>
      </trkpt>
      <trkpt lat="45.94137" lon="3.0056">
        <ele>684.12</ele>
        <time>2021-08-14T10:36:20Z</time>
      </trkpt>
      <trkpt lat="45.94135" lon="3.0056">
        <ele>684.12</ele>
        <time>2021-08-14T10:36:21Z</time>
      </trkpt>
      <trkpt lat="45.94134" lon="3.00559">
        <ele>684.12</ele>
        <time>2021-08-14T10:36:22Z</time>
      </trkpt>
      <trkpt lat="45.94132" lon="3.00559">
        <ele>684.6</ele>
        <time>2021-08-14T10:36:23Z</time>
      </trkpt>
      <trkpt lat="45.94117" lon="3.00557">
        <ele>685.08</ele>
        <time>2021-08-14T10:36:32Z</time>
      </trkpt>
      <trkpt lat="45.94101" lon="3.00552">
        <ele>685.56</ele>
        <time>2021-08-14T10:36:39Z</time>
      </trkpt>
      <trkpt lat="45.94077" lon="3.00535">
        <ele>686.52</ele>
        <time>2021-08-14T10:36:49Z</time>
      </trkpt>
      <trkpt lat="45.9406" lon="3.0051">
        <ele>687</ele>
        <time>2021-08-14T10:36:58Z</time>
      </trkpt>
      <trkpt lat="45.94041" lon="3.00485">
        <ele>687.48</ele>
        <time>2021-08-14T10:37:08Z</time>
      </trkpt>
      <trkpt lat="45.94025" lon="3.00464">
        <ele>687.96</ele>
        <time>2021-08-14T10:37:16Z</time>
      </trkpt>
      <trkpt lat="45.94004" lon="3.00439">
        <ele>688.92</ele>
        <time>2021-08-14T10:37:26Z</time>
      </trkpt>
      <trkpt lat="45.93989" lon="3.00421">
        <ele>690.36</ele>
        <time>2021-08-14T10:37:35Z</time>
      </trkpt>
      <trkpt lat="45.93986" lon="3.00417">
        <ele>690.36</ele>
        <time>2021-08-14T10:37:40Z</time>
      </trkpt>
      <trkpt lat="45.93984" lon="3.00412">
        <ele>690.36</ele>
        <time>2021-08-14T10:37:43Z</time>
      </trkpt>
      <trkpt lat="45.93975" lon="3.00401">
        <ele>690.84</ele>
        <time>2021-08-14T10:37:49Z</time>
      </trkpt>
      <trkpt lat="45.93968" lon="3.00391">
        <ele>692.77</ele>
        <time>2021-08-14T10:37:57Z</time>
      </trkpt>
      <trkpt lat="45.93966" lon="3.00388">
        <ele>692.77</ele>
        <time>2021-08-14T10:37:59Z</time>
      </trkpt>
      <trkpt lat="45.93958" lon="3.00372">
        <ele>693.25</ele>
        <time>2021-08-14T10:38:08Z</time>
      </trkpt>
      <trkpt lat="45.93947" lon="3.00354">
        <ele>693.73</ele>
        <time>2021-08-14T10:38:16Z</time>
      </trkpt>
      <trkpt lat="45.93937" lon="3.00337">
        <ele>694.69</ele>
        <time>2021-08-14T10:38:24Z</time>
      </trkpt>
      <trkpt lat="45.93928" lon="3.00318">
        <ele>695.17</ele>
        <time>2021-08-14T10:38:33Z</time>
      </trkpt>
      <trkpt lat="45.9392" lon="3.00309">
        <ele>695.65</ele>
        <time>2021-08-14T10:38:41Z</time>
      </trkpt>
      <trkpt lat="45.93916" lon="3.00304">
        <ele>696.13</ele>
        <time>2021-08-14T10:38:49Z</time>
      </trkpt>
      <trkpt lat="45.93914" lon="3.00302">
        <ele>696.13</ele>
        <time>2021-08-14T10:39:04Z</time>
      </trkpt>
      <trkpt lat="45.93915" lon="3.00303">
        <ele>696.13</ele>
        <time>2021-08-14T10:39:18Z</time>
      </trkpt>
      <trkpt lat="45.93916" lon="3.00302">
        <ele>696.13</ele>
        <time>2021-08-14T10:39:32Z</time>
      </trkpt>
      <trkpt lat="45.93917" lon="3.00303">
        <ele>696.13</ele>
        <time>2021-08-14T10:39:42Z</time>
      </trkpt>
      <trkpt lat="45.93917" lon="3.00304">
        <ele>696.13</ele>
        <time>2021-08-14T10:40:03Z</time>
      </trkpt>
      <trkpt lat="45.93916" lon="3.00302">
        <ele>696.13</ele>
        <time>2021-08-14T10:40:14Z</time>
      </trkpt>
      <trkpt lat="45.93917" lon="3.00302">
        <ele>696.13</ele>
        <time>2021-08-14T10:40:35Z</time>
      </trkpt>
      <trkpt lat="45.93917" lon="3.00305">
        <ele>696.13</ele>
        <time>2021-08-14T10:40:42Z</time>
      </trkpt>
      <trkpt lat="45.93917" lon="3.00307">
        <ele>696.13</ele>
        <time>2021-08-14T10:41:03Z</time>
      </trkpt>
      <trkpt lat="45.93917" lon="3.00309">
        <ele>696.13</ele>
        <time>2021-08-14T10:41:14Z</time>
      </trkpt>
      <trkpt lat="45.93917" lon="3.00309">
        <ele>696.13</ele>
        <time>2021-08-14T10:41:24Z</time>
      </trkpt>
      <trkpt lat="45.93916" lon="3.00307">
        <ele>696.13</ele>
        <time>2021-08-14T10:41:55Z</time>
      </trkpt>
      <trkpt lat="45.93919" lon="3.0031">
        <ele>696.61</ele>
        <time>2021-08-14T10:42:27Z</time>
      </trkpt>
      <trkpt lat="45.93919" lon="3.0031">
        <ele>696.61</ele>
        <time>2021-08-14T10:42:48Z</time>
      </trkpt>
      <trkpt lat="45.93916" lon="3.00313">
        <ele>696.61</ele>
        <time>2021-08-14T10:43:22Z</time>
      </trkpt>
      <trkpt lat="45.93919" lon="3.00311">
        <ele>696.61</ele>
        <time>2021-08-14T10:43:44Z</time>
      </trkpt>
      <trkpt lat="45.9392" lon="3.0031">
        <ele>696.61</ele>
        <time>2021-08-14T10:44:04Z</time>
      </trkpt>
      <trkpt lat="45.93921" lon="3.00311">
        <ele>696.61</ele>
        <time>2021-08-14T10:44:25Z</time>
      </trkpt>
      <trkpt lat="45.93921" lon="3.00311">
        <ele>696.61</ele>
        <time>2021-08-14T10:44:42Z</time>
      </trkpt>
      <trkpt lat="45.93919" lon="3.00309">
        <ele>697.09</ele>
        <time>2021-08-14T10:45:11Z</time>
      </trkpt>
      <trkpt lat="45.93918" lon="3.00307">
        <ele>697.09</ele>
        <time>2021-08-14T10:45:39Z</time>
      </trkpt>
      <trkpt lat="45.93918" lon="3.00306">
        <ele>697.09</ele>
        <time>2021-08-14T10:46:10Z</time>
      </trkpt>
      <trkpt lat="45.93917" lon="3.00308">
        <ele>697.09</ele>
        <time>2021-08-14T10:46:16Z</time>
      </trkpt>
      <trkpt lat="45.93916" lon="3.00308">
        <ele>697.09</ele>
        <time>2021-08-14T10:46:20Z</time>
      </trkpt>
      <trkpt lat="45.93917" lon="3.00309">
        <ele>697.09</ele>
        <time>2021-08-14T10:46:36Z</time>
      </trkpt>
      <trkpt lat="45.93917" lon="3.0031">
        <ele>697.09</ele>
        <time>2021-08-14T10:46:52Z</time>
      </trkpt>
      <trkpt lat="45.9392" lon="3.00308">
        <ele>697.09</ele>
        <time>2021-08-14T10:47:15Z</time>
      </trkpt>
      <trkpt lat="45.93918" lon="3.00309">
        <ele>697.09</ele>
        <time>2021-08-14T10:47:36Z</time>
      </trkpt>
      <trkpt lat="45.93917" lon="3.00308">
        <ele>697.09</ele>
        <time>2021-08-14T10:47:48Z</time>
      </trkpt>
      <trkpt lat="45.93918" lon="3.00305">
        <ele>697.09</ele>
        <time>2021-08-14T10:48:10Z</time>
      </trkpt>
      <trkpt lat="45.93918" lon="3.00308">
        <ele>697.09</ele>
        <time>2021-08-14T10:48:30Z</time>
      </trkpt>
      <trkpt lat="45.93918" lon="3.00308">
        <ele>697.09</ele>
        <time>2021-08-14T10:48:49Z</time>
      </trkpt>
      <trkpt lat="45.93918" lon="3.00306">
        <ele>697.09</ele>
        <time>2021-08-14T10:49:10Z</time>
      </trkpt>
      <trkpt lat="45.93918" lon="3.00305">
        <ele>697.09</ele>
        <time>2021-08-14T10:49:32Z</time>
      </trkpt>
      <trkpt lat="45.93916" lon="3.00304">
        <ele>697.09</ele>
        <time>2021-08-14T10:49:55Z</time>
      </trkpt>
      <trkpt lat="45.93917" lon="3.00307">
        <ele>697.09</ele>
        <time>2021-08-14T10:50:23Z</time>
      </trkpt>
      <trkpt lat="45.93917" lon="3.00306">
        <ele>696.61</ele>
        <time>2021-08-14T10:50:49Z</time>
      </trkpt>
      <trkpt lat="45.93918" lon="3.00303">
        <ele>696.61</ele>
        <time>2021-08-14T10:51:07Z</time>
      </trkpt>
      <trkpt lat="45.93918" lon="3.00303">
        <ele>696.61</ele>
        <time>2021-08-14T10:51:18Z</time>
      </trkpt>
      <trkpt lat="45.93919" lon="3.00305">
        <ele>696.61</ele>
        <time>2021-08-14T10:51:44Z</time>
      </trkpt>
      <trkpt lat="45.93916" lon="3.00305">
        <ele>696.61</ele>
        <time>2021-08-14T10:52:14Z</time>
      </trkpt>
      <trkpt lat="45.93918" lon="3.00301">
        <ele>696.61</ele>
        <time>2021-08-14T10:52:38Z</time>
      </trkpt>
      <trkpt lat="45.9392" lon="3.00303">
        <ele>696.61</ele>
        <time>2021-08-14T10:52:54Z</time>
      </trkpt>
      <trkpt lat="45.93919" lon="3.00306">
        <ele>696.61</ele>
        <time>2021-08-14T10:53:15Z</time>
      </trkpt>
      <trkpt lat="45.93917" lon="3.00307">
        <ele>696.61</ele>
        <time>2021-08-14T10:53:33Z</time>
      </trkpt>
      <trkpt lat="45.93916" lon="3.0031">
        <ele>696.61</ele>
        <time>2021-08-14T10:53:48Z</time>
      </trkpt>
      <trkpt lat="45.93916" lon="3.0031">
        <ele>696.61</ele>
        <time>2021-08-14T10:54:13Z</time>
      </trkpt>
      <trkpt lat="45.93913" lon="3.0031">
        <ele>696.61</ele>
        <time>2021-08-14T10:54:38Z</time>
      </trkpt>
      <trkpt lat="45.93914" lon="3.00307">
        <ele>696.61</ele>
        <time>2021-08-14T10:55:01Z</time>
      </trkpt>
      <trkpt lat="45.93916" lon="3.00306">
        <ele>696.61</ele>
        <time>2021-08-14T10:55:25Z</time>
      </trkpt>
      <trkpt lat="45.93916" lon="3.00305">
        <ele>696.61</ele>
        <time>2021-08-14T10:55:47Z</time>
      </trkpt>
      <trkpt lat="45.93918" lon="3.00306">
        <ele>696.61</ele>
        <time>2021-08-14T10:56:13Z</time>
      </trkpt>
      <trkpt lat="45.93916" lon="3.00306">
        <ele>696.61</ele>
        <time>2021-08-14T10:56:37Z</time>
      </trkpt>
      <trkpt lat="45.93916" lon="3.00304">
        <ele>696.13</ele>
        <time>2021-08-14T10:56:58Z</time>
      </trkpt>
      <trkpt lat="45.93916" lon="3.00305">
        <ele>696.61</ele>
        <time>2021-08-14T10:57:19Z</time>
      </trkpt>
      <trkpt lat="45.93916" lon="3.00306">
        <ele>696.61</ele>
        <time>2021-08-14T10:57:33Z</time>
      </trkpt>
      <trkpt lat="45.93916" lon="3.00307">
        <ele>696.61</ele>
        <time>2021-08-14T10:57:52Z</time>
      </trkpt>
      <trkpt lat="45.93916" lon="3.00306">
        <ele>696.61</ele>
        <time>2021-08-14T10:58:13Z</time>
      </trkpt>
      <trkpt lat="45.93915" lon="3.00304">
        <ele>696.61</ele>
        <time>2021-08-14T10:58:31Z</time>
      </trkpt>
      <trkpt lat="45.93914" lon="3.00308">
        <ele>696.61</ele>
        <time>2021-08-14T10:58:50Z</time>
      </trkpt>
      <trkpt lat="45.93913" lon="3.00309">
        <ele>696.61</ele>
        <time>2021-08-14T10:59:10Z</time>
      </trkpt>
      <trkpt lat="45.93914" lon="3.0031">
        <ele>696.61</ele>
        <time>2021-08-14T10:59:32Z</time>
      </trkpt>
      <trkpt lat="45.93915" lon="3.0031">
        <ele>696.61</ele>
        <time>2021-08-14T10:59:57Z</time>
      </trkpt>
      <trkpt lat="45.93914" lon="3.00306">
        <ele>696.61</ele>
        <time>2021-08-14T11:00:18Z</time>
      </trkpt>
      <trkpt lat="45.93914" lon="3.00303">
        <ele>696.61</ele>
        <time>2021-08-14T11:00:38Z</time>
      </trkpt>
      <trkpt lat="45.93916" lon="3.00304">
        <ele>697.09</ele>
        <time>2021-08-14T11:01:04Z</time>
      </trkpt>
      <trkpt lat="45.93918" lon="3.00304">
        <ele>697.09</ele>
        <time>2021-08-14T11:01:33Z</time>
      </trkpt>
      <trkpt lat="45.93918" lon="3.00305">
        <ele>697.09</ele>
        <time>2021-08-14T11:01:57Z</time>
      </trkpt>
      <trkpt lat="45.93917" lon="3.00303">
        <ele>697.09</ele>
        <time>2021-08-14T11:02:23Z</time>
      </trkpt>
      <trkpt lat="45.93916" lon="3.00305">
        <ele>697.09</ele>
        <time>2021-08-14T11:02:46Z</time>
      </trkpt>
      <trkpt lat="45.93916" lon="3.00306">
        <ele>696.61</ele>
        <time>2021-08-14T11:03:11Z</time>
      </trkpt>
      <trkpt lat="45.93918" lon="3.00304">
        <ele>696.61</ele>
        <time>2021-08-14T11:03:27Z</time>
      </trkpt>
      <trkpt lat="45.93919" lon="3.00304">
        <ele>696.61</ele>
        <time>2021-08-14T11:03:49Z</time>
      </trkpt>
      <trkpt lat="45.93918" lon="3.00306">
        <ele>696.61</ele>
        <time>2021-08-14T11:04:01Z</time>
      </trkpt>
      <trkpt lat="45.93918" lon="3.00305">
        <ele>696.61</ele>
        <time>2021-08-14T11:04:19Z</time>
      </trkpt>
      <trkpt lat="45.93917" lon="3.00306">
        <ele>696.61</ele>
        <time>2021-08-14T11:04:41Z</time>
      </trkpt>
      <trkpt lat="45.93916" lon="3.00308">
        <ele>696.61</ele>
        <time>2021-08-14T11:05:05Z</time>
      </trkpt>
      <trkpt lat="45.93916" lon="3.00309">
        <ele>696.61</ele>
        <time>2021-08-14T11:05:29Z</time>
      </trkpt>
      <trkpt lat="45.93917" lon="3.00305">
        <ele>696.61</ele>
        <time>2021-08-14T11:05:50Z</time>
      </trkpt>
      <trkpt lat="45.93916" lon="3.00307">
        <ele>696.61</ele>
        <time>2021-08-14T11:06:11Z</time>
      </trkpt>
      <trkpt lat="45.93914" lon="3.00311">
        <ele>696.13</ele>
        <time>2021-08-14T11:06:34Z</time>
      </trkpt>
      <trkpt lat="45.93915" lon="3.00308">
        <ele>696.13</ele>
        <time>2021-08-14T11:06:57Z</time>
      </trkpt>
      <trkpt lat="45.93914" lon="3.00307">
        <ele>696.13</ele>
        <time>2021-08-14T11:07:15Z</time>
      </trkpt>
      <trkpt lat="45.93915" lon="3.00308">
        <ele>696.13</ele>
        <time>2021-08-14T11:07:41Z</time>
      </trkpt>
      <trkpt lat="45.93915" lon="3.00306">
        <ele>696.13</ele>
        <time>2021-08-14T11:08:05Z</time>
      </trkpt>
      <trkpt lat="45.93917" lon="3.00306">
        <ele>696.13</ele>
        <time>2021-08-14T11:08:25Z</time>
      </trkpt>
      <trkpt lat="45.93915" lon="3.00308">
        <ele>696.13</ele>
        <time>2021-08-14T11:08:39Z</time>
      </trkpt>
      <trkpt lat="45.93913" lon="3.00309">
        <ele>696.13</ele>
        <time>2021-08-14T11:08:59Z</time>
      </trkpt>
      <trkpt lat="45.93914" lon="3.00309">
        <ele>696.13</ele>
        <time>2021-08-14T11:09:20Z</time>
      </trkpt>
      <trkpt lat="45.93915" lon="3.00309">
        <ele>696.13</ele>
        <time>2021-08-14T11:09:38Z</time>
      </trkpt>
      <trkpt lat="45.93917" lon="3.0031">
        <ele>696.13</ele>
        <time>2021-08-14T11:09:54Z</time>
      </trkpt>
      <trkpt lat="45.9392" lon="3.00311">
        <ele>696.13</ele>
        <time>2021-08-14T11:10:09Z</time>
      </trkpt>
      <trkpt lat="45.9392" lon="3.00307">
        <ele>696.13</ele>
        <time>2021-08-14T11:10:29Z</time>
      </trkpt>
      <trkpt lat="45.93919" lon="3.00309">
        <ele>696.13</ele>
        <time>2021-08-14T11:10:48Z</time>
      </trkpt>
      <trkpt lat="45.93918" lon="3.00309">
        <ele>696.13</ele>
        <time>2021-08-14T11:11:09Z</time>
      </trkpt>
      <trkpt lat="45.93917" lon="3.00309">
        <ele>696.61</ele>
        <time>2021-08-14T11:11:25Z</time>
      </trkpt>
      <trkpt lat="45.93918" lon="3.00306">
        <ele>696.61</ele>
        <time>2021-08-14T11:11:50Z</time>
      </trkpt>
      <trkpt lat="45.93918" lon="3.00306">
        <ele>696.13</ele>
        <time>2021-08-14T11:12:11Z</time>
      </trkpt>
      <trkpt lat="45.93915" lon="3.00309">
        <ele>696.13</ele>
        <time>2021-08-14T11:12:35Z</time>
      </trkpt>
      <trkpt lat="45.93914" lon="3.00308">
        <ele>696.61</ele>
        <time>2021-08-14T11:12:57Z</time>
      </trkpt>
      <trkpt lat="45.93914" lon="3.00307">
        <ele>696.61</ele>
        <time>2021-08-14T11:13:17Z</time>
      </trkpt>
      <trkpt lat="45.93914" lon="3.00308">
        <ele>696.61</ele>
        <time>2021-08-14T11:13:37Z</time>
      </trkpt>
      <trkpt lat="45.93912" lon="3.00307">
        <ele>696.61</ele>
        <time>2021-08-14T11:14:01Z</time>
      </trkpt>
      <trkpt lat="45.93915" lon="3.00306">
        <ele>696.61</ele>
        <time>2021-08-14T11:14:18Z</time>
      </trkpt>
      <trkpt lat="45.93915" lon="3.00307">
        <ele>696.13</ele>
        <time>2021-08-14T11:14:36Z</time>
      </trkpt>
      <trkpt lat="45.93914" lon="3.00309">
        <ele>696.13</ele>
        <time>2021-08-14T11:14:54Z</time>
      </trkpt>
      <trkpt lat="45.93914" lon="3.00309">
        <ele>696.13</ele>
        <time>2021-08-14T11:15:13Z</time>
      </trkpt>
      <trkpt lat="45.93915" lon="3.00308">
        <ele>696.13</ele>
        <time>2021-08-14T11:15:32Z</time>
      </trkpt>
      <trkpt lat="45.93916" lon="3.00307">
        <ele>696.13</ele>
        <time>2021-08-14T11:15:48Z</time>
      </trkpt>
      <trkpt lat="45.93915" lon="3.00306">
        <ele>696.13</ele>
        <time>2021-08-14T11:16:13Z</time>
      </trkpt>
      <trkpt lat="45.93916" lon="3.00307">
        <ele>696.13</ele>
        <time>2021-08-14T11:16:33Z</time>
      </trkpt>
      <trkpt lat="45.93916" lon="3.00308">
        <ele>696.13</ele>
        <time>2021-08-14T11:16:54Z</time>
      </trkpt>
      <trkpt lat="45.93915" lon="3.00308">
        <ele>696.13</ele>
        <time>2021-08-14T11:17:11Z</time>
      </trkpt>
      <trkpt lat="45.93914" lon="3.00309">
        <ele>696.13</ele>
        <time>2021-08-14T11:17:25Z</time>
      </trkpt>
      <trkpt lat="45.93912" lon="3.00309">
        <ele>696.13</ele>
        <time>2021-08-14T11:17:43Z</time>
      </trkpt>
      <trkpt lat="45.93912" lon="3.0031">
        <ele>696.13</ele>
        <time>2021-08-14T11:18:03Z</time>
      </trkpt>
      <trkpt lat="45.93912" lon="3.00311">
        <ele>696.13</ele>
        <time>2021-08-14T11:18:21Z</time>
      </trkpt>
      <trkpt lat="45.93913" lon="3.00311">
        <ele>696.13</ele>
        <time>2021-08-14T11:18:32Z</time>
      </trkpt>
      <trkpt lat="45.93914" lon="3.00308">
        <ele>696.13</ele>
        <time>2021-08-14T11:18:45Z</time>
      </trkpt>
      <trkpt lat="45.93914" lon="3.0031">
        <ele>696.61</ele>
        <time>2021-08-14T11:19:03Z</time>
      </trkpt>
      <trkpt lat="45.93915" lon="3.00309">
        <ele>696.61</ele>
        <time>2021-08-14T11:19:20Z</time>
      </trkpt>
      <trkpt lat="45.93916" lon="3.00308">
        <ele>696.61</ele>
        <time>2021-08-14T11:19:35Z</time>
      </trkpt>
      <trkpt lat="45.93915" lon="3.00308">
        <ele>696.61</ele>
        <time>2021-08-14T11:19:47Z</time>
      </trkpt>
      <trkpt lat="45.93916" lon="3.00306">
        <ele>696.61</ele>
        <time>2021-08-14T11:20:02Z</time>
      </trkpt>
      <trkpt lat="45.93915" lon="3.00307">
        <ele>696.61</ele>
        <time>2021-08-14T11:20:13Z</time>
      </trkpt>
      <trkpt lat="45.93916" lon="3.0031">
        <ele>696.61</ele>
        <time>2021-08-14T11:20:31Z</time>
      </trkpt>
      <trkpt lat="45.93916" lon="3.00311">
        <ele>696.61</ele>
        <time>2021-08-14T11:20:42Z</time>
      </trkpt>
      <trkpt lat="45.93915" lon="3.0031">
        <ele>696.61</ele>
        <time>2021-08-14T11:20:54Z</time>
      </trkpt>
      <trkpt lat="45.93915" lon="3.0031">
        <ele>696.13</ele>
        <time>2021-08-14T11:21:16Z</time>
      </trkpt>
      <trkpt lat="45.93914" lon="3.00309">
        <ele>696.13</ele>
        <time>2021-08-14T11:21:32Z</time>
      </trkpt>
      <trkpt lat="45.93914" lon="3.00307">
        <ele>696.13</ele>
        <time>2021-08-14T11:21:56Z</time>
      </trkpt>
      <trkpt lat="45.93915" lon="3.00308">
        <ele>696.13</ele>
        <time>2021-08-14T11:22:12Z</time>
      </trkpt>
      <trkpt lat="45.93916" lon="3.00306">
        <ele>697.09</ele>
        <time>2021-08-14T11:22:24Z</time>
      </trkpt>
      <trkpt lat="45.93917" lon="3.00307">
        <ele>697.09</ele>
        <time>2021-08-14T11:22:36Z</time>
      </trkpt>
      <trkpt lat="45.93916" lon="3.00308">
        <ele>697.09</ele>
        <time>2021-08-14T11:22:49Z</time>
      </trkpt>
      <trkpt lat="45.93914" lon="3.0031">
        <ele>697.09</ele>
        <time>2021-08-14T11:23:03Z</time>
      </trkpt>
      <trkpt lat="45.93913" lon="3.00312">
        <ele>697.09</ele>
        <time>2021-08-14T11:23:18Z</time>
      </trkpt>
      <trkpt lat="45.93912" lon="3.0031">
        <ele>697.09</ele>
        <time>2021-08-14T11:23:32Z</time>
      </trkpt>
      <trkpt lat="45.93917" lon="3.00309">
        <ele>697.09</ele>
        <time>2021-08-14T11:23:48Z</time>
      </trkpt>
      <trkpt lat="45.93918" lon="3.00311">
        <ele>697.09</ele>
        <time>2021-08-14T11:24:09Z</time>
      </trkpt>
      <trkpt lat="45.93917" lon="3.00312">
        <ele>697.09</ele>
        <time>2021-08-14T11:24:30Z</time>
      </trkpt>
      <trkpt lat="45.93916" lon="3.00312">
        <ele>697.57</ele>
        <time>2021-08-14T11:24:44Z</time>
      </trkpt>
      <trkpt lat="45.93917" lon="3.00312">
        <ele>697.57</ele>
        <time>2021-08-14T11:24:57Z</time>
      </trkpt>
      <trkpt lat="45.93916" lon="3.00309">
        <ele>697.57</ele>
        <time>2021-08-14T11:25:09Z</time>
      </trkpt>
      <trkpt lat="45.93915" lon="3.00307">
        <ele>697.57</ele>
        <time>2021-08-14T11:25:24Z</time>
      </trkpt>
      <trkpt lat="45.93914" lon="3.00307">
        <ele>697.57</ele>
        <time>2021-08-14T11:25:36Z</time>
      </trkpt>
      <trkpt lat="45.93916" lon="3.00308">
        <ele>697.57</ele>
        <time>2021-08-14T11:25:48Z</time>
      </trkpt>
      <trkpt lat="45.93916" lon="3.00308">
        <ele>697.57</ele>
        <time>2021-08-14T11:26:03Z</time>
      </trkpt>
      <trkpt lat="45.93918" lon="3.00307">
        <ele>697.57</ele>
        <time>2021-08-14T11:26:20Z</time>
      </trkpt>
      <trkpt lat="45.93918" lon="3.00307">
        <ele>697.57</ele>
        <time>2021-08-14T11:26:37Z</time>
      </trkpt>
      <trkpt lat="45.93918" lon="3.00309">
        <ele>697.57</ele>
        <time>2021-08-14T11:26:55Z</time>
      </trkpt>
      <trkpt lat="45.93919" lon="3.0031">
        <ele>697.57</ele>
        <time>2021-08-14T11:27:11Z</time>
      </trkpt>
      <trkpt lat="45.9392" lon="3.0031">
        <ele>697.57</ele>
        <time>2021-08-14T11:27:31Z</time>
      </trkpt>
      <trkpt lat="45.93919" lon="3.00308">
        <ele>697.57</ele>
        <time>2021-08-14T11:27:47Z</time>
      </trkpt>
      <trkpt lat="45.93919" lon="3.00307">
        <ele>697.57</ele>
        <time>2021-08-14T11:28:03Z</time>
      </trkpt>
      <trkpt lat="45.93917" lon="3.00305">
        <ele>697.57</ele>
        <time>2021-08-14T11:28:20Z</time>
      </trkpt>
      <trkpt lat="45.93916" lon="3.00303">
        <ele>697.57</ele>
        <time>2021-08-14T11:28:34Z</time>
      </trkpt>
      <trkpt lat="45.93916" lon="3.00296">
        <ele>697.57</ele>
        <time>2021-08-14T11:28:52Z</time>
      </trkpt>
      <trkpt lat="45.93916" lon="3.00294">
        <ele>697.57</ele>
        <time>2021-08-14T11:29:08Z</time>
      </trkpt>
      <trkpt lat="45.93916" lon="3.00298">
        <ele>697.57</ele>
        <time>2021-08-14T11:29:28Z</time>
      </trkpt>
      <trkpt lat="45.93914" lon="3.00304">
        <ele>697.57</ele>
        <time>2021-08-14T11:29:49Z</time>
      </trkpt>
      <trkpt lat="45.93916" lon="3.00305">
        <ele>697.57</ele>
        <time>2021-08-14T11:30:03Z</time>
      </trkpt>
      <trkpt lat="45.93916" lon="3.00307">
        <ele>697.57</ele>
        <time>2021-08-14T11:30:14Z</time>
      </trkpt>
      <trkpt lat="45.93916" lon="3.00306">
        <ele>697.57</ele>
        <time>2021-08-14T11:30:23Z</time>
      </trkpt>
      <trkpt lat="45.93919" lon="3.00309">
        <ele>697.57</ele>
        <time>2021-08-14T11:30:41Z</time>
      </trkpt>
      <trkpt lat="45.93917" lon="3.00309">
        <ele>697.57</ele>
        <time>2021-08-14T11:30:58Z</time>
      </trkpt>
      <trkpt lat="45.93916" lon="3.0031">
        <ele>697.57</ele>
        <time>2021-08-14T11:31:13Z</time>
      </trkpt>
      <trkpt lat="45.93917" lon="3.0031">
        <ele>697.57</ele>
        <time>2021-08-14T11:31:24Z</time>
      </trkpt>
      <trkpt lat="45.93918" lon="3.0031">
        <ele>698.05</ele>
        <time>2021-08-14T11:31:37Z</time>
      </trkpt>
      <trkpt lat="45.93918" lon="3.00308">
        <ele>698.05</ele>
        <time>2021-08-14T11:31:53Z</time>
      </trkpt>
      <trkpt lat="45.93916" lon="3.00308">
        <ele>698.05</ele>
        <time>2021-08-14T11:32:11Z</time>
      </trkpt>
      <trkpt lat="45.93917" lon="3.00308">
        <ele>698.05</ele>
        <time>2021-08-14T11:32:25Z</time>
      </trkpt>
      <trkpt lat="45.93918" lon="3.00309">
        <ele>698.05</ele>
        <time>2021-08-14T11:32:37Z</time>
      </trkpt>
      <trkpt lat="45.93918" lon="3.00307">
        <ele>698.05</ele>
        <time>2021-08-14T11:32:49Z</time>
      </trkpt>
      <trkpt lat="45.93915" lon="3.00301">
        <ele>698.05</ele>
        <time>2021-08-14T11:33:02Z</time>
      </trkpt>
      <trkpt lat="45.93914" lon="3.003">
        <ele>698.05</ele>
        <time>2021-08-14T11:33:03Z</time>
      </trkpt>
      <trkpt lat="45.93913" lon="3.00299">
        <ele>698.05</ele>
        <time>2021-08-14T11:33:04Z</time>
      </trkpt>
      <trkpt lat="45.93912" lon="3.00297">
        <ele>698.05</ele>
        <time>2021-08-14T11:33:05Z</time>
      </trkpt>
      <trkpt lat="45.93911" lon="3.00295">
        <ele>698.05</ele>
        <time>2021-08-14T11:33:06Z</time>
      </trkpt>
      <trkpt lat="45.9391" lon="3.00293">
        <ele>698.05</ele>
        <time>2021-08-14T11:33:07Z</time>
      </trkpt>
      <trkpt lat="45.9391" lon="3.00291">
        <ele>698.53</ele>
        <time>2021-08-14T11:33:08Z</time>
      </trkpt>
      <trkpt lat="45.93906" lon="3.00283">
        <ele>698.53</ele>
        <time>2021-08-14T11:33:12Z</time>
      </trkpt>
      <trkpt lat="45.93899" lon="3.00267">
        <ele>699.02</ele>
        <time>2021-08-14T11:33:20Z</time>
      </trkpt>
      <trkpt lat="45.93892" lon="3.00249">
        <ele>699.98</ele>
        <time>2021-08-14T11:33:29Z</time>
      </trkpt>
      <trkpt lat="45.93885" lon="3.00231">
        <ele>700.46</ele>
        <time>2021-08-14T11:33:37Z</time>
      </trkpt>
      <trkpt lat="45.93874" lon="3.00211">
        <ele>701.42</ele>
        <time>2021-08-14T11:33:48Z</time>
      </trkpt>
      <trkpt lat="45.93865" lon="3.00195">
        <ele>702.38</ele>
        <time>2021-08-14T11:33:57Z</time>
      </trkpt>
      <trkpt lat="45.93854" lon="3.00179">
        <ele>702.86</ele>
        <time>2021-08-14T11:34:06Z</time>
      </trkpt>
      <trkpt lat="45.93843" lon="3.00165">
        <ele>703.82</ele>
        <time>2021-08-14T11:34:15Z</time>
      </trkpt>
      <trkpt lat="45.93833" lon="3.00152">
        <ele>704.3</ele>
        <time>2021-08-14T11:34:23Z</time>
      </trkpt>
      <trkpt lat="45.93824" lon="3.00142">
        <ele>704.78</ele>
        <time>2021-08-14T11:34:31Z</time>
      </trkpt>
      <trkpt lat="45.93815" lon="3.0013">
        <ele>705.75</ele>
        <time>2021-08-14T11:34:39Z</time>
      </trkpt>
      <trkpt lat="45.93814" lon="3.00128">
        <ele>705.75</ele>
        <time>2021-08-14T11:34:40Z</time>
      </trkpt>
      <trkpt lat="45.93813" lon="3.00127">
        <ele>705.75</ele>
        <time>2021-08-14T11:34:41Z</time>
      </trkpt>
      <trkpt lat="45.93812" lon="3.00125">
        <ele>705.75</ele>
        <time>2021-08-14T11:34:42Z</time>
      </trkpt>
      <trkpt lat="45.93811" lon="3.00124">
        <ele>705.75</ele>
        <time>2021-08-14T11:34:43Z</time>
      </trkpt>
      <trkpt lat="45.93802" lon="3.00113">
        <ele>706.71</ele>
        <time>2021-08-14T11:34:53Z</time>
      </trkpt>
      <trkpt lat="45.93796" lon="3.00106">
        <ele>707.19</ele>
        <time>2021-08-14T11:35:00Z</time>
      </trkpt>
      <trkpt lat="45.93789" lon="3.00099">
        <ele>708.15</ele>
        <time>2021-08-14T11:35:08Z</time>
      </trkpt>
      <trkpt lat="45.93785" lon="3.00097">
        <ele>708.63</ele>
        <time>2021-08-14T11:35:12Z</time>
      </trkpt>
      <trkpt lat="45.93777" lon="3.00093">
        <ele>709.59</ele>
        <time>2021-08-14T11:35:20Z</time>
      </trkpt>
      <trkpt lat="45.93773" lon="3.00091">
        <ele>710.07</ele>
        <time>2021-08-14T11:35:25Z</time>
      </trkpt>
      <trkpt lat="45.93765" lon="3.0009">
        <ele>711.03</ele>
        <time>2021-08-14T11:35:32Z</time>
      </trkpt>
      <trkpt lat="45.93758" lon="3.0009">
        <ele>711.51</ele>
        <time>2021-08-14T11:35:40Z</time>
      </trkpt>
      <trkpt lat="45.93749" lon="3.00086">
        <ele>712.47</ele>
        <time>2021-08-14T11:35:50Z</time>
      </trkpt>
      <trkpt lat="45.93741" lon="3.00085">
        <ele>712.95</ele>
        <time>2021-08-14T11:35:57Z</time>
      </trkpt>
      <trkpt lat="45.93734" lon="3.00082">
        <ele>713.92</ele>
        <time>2021-08-14T11:36:06Z</time>
      </trkpt>
      <trkpt lat="45.93727" lon="3.0008">
        <ele>714.88</ele>
        <time>2021-08-14T11:36:13Z</time>
      </trkpt>
      <trkpt lat="45.93724" lon="3.0008">
        <ele>714.88</ele>
        <time>2021-08-14T11:36:16Z</time>
      </trkpt>
      <trkpt lat="45.93721" lon="3.00079">
        <ele>714.88</ele>
        <time>2021-08-14T11:36:18Z</time>
      </trkpt>
      <trkpt lat="45.9372" lon="3.00078">
        <ele>715.36</ele>
        <time>2021-08-14T11:36:19Z</time>
      </trkpt>
      <trkpt lat="45.93713" lon="3.00076">
        <ele>715.84</ele>
        <time>2021-08-14T11:36:24Z</time>
      </trkpt>
      <trkpt lat="45.93712" lon="3.00076">
        <ele>715.84</ele>
        <time>2021-08-14T11:36:25Z</time>
      </trkpt>
      <trkpt lat="45.93711" lon="3.00075">
        <ele>715.84</ele>
        <time>2021-08-14T11:36:26Z</time>
      </trkpt>
      <trkpt lat="45.9371" lon="3.00075">
        <ele>716.32</ele>
        <time>2021-08-14T11:36:27Z</time>
      </trkpt>
      <trkpt lat="45.93708" lon="3.00075">
        <ele>716.32</ele>
        <time>2021-08-14T11:36:28Z</time>
      </trkpt>
      <trkpt lat="45.93707" lon="3.00075">
        <ele>716.8</ele>
        <time>2021-08-14T11:36:29Z</time>
      </trkpt>
      <trkpt lat="45.93705" lon="3.00075">
        <ele>716.8</ele>
        <time>2021-08-14T11:36:30Z</time>
      </trkpt>
      <trkpt lat="45.93704" lon="3.00074">
        <ele>716.8</ele>
        <time>2021-08-14T11:36:31Z</time>
      </trkpt>
      <trkpt lat="45.93702" lon="3.00074">
        <ele>716.8</ele>
        <time>2021-08-14T11:36:32Z</time>
      </trkpt>
      <trkpt lat="45.93701" lon="3.00073">
        <ele>717.28</ele>
        <time>2021-08-14T11:36:33Z</time>
      </trkpt>
      <trkpt lat="45.93699" lon="3.00072">
        <ele>717.28</ele>
        <time>2021-08-14T11:36:34Z</time>
      </trkpt>
      <trkpt lat="45.93689" lon="3.00071">
        <ele>718.72</ele>
        <time>2021-08-14T11:36:42Z</time>
      </trkpt>
      <trkpt lat="45.93688" lon="3.00071">
        <ele>718.72</ele>
        <time>2021-08-14T11:36:43Z</time>
      </trkpt>
      <trkpt lat="45.93687" lon="3.00071">
        <ele>718.72</ele>
        <time>2021-08-14T11:36:44Z</time>
      </trkpt>
      <trkpt lat="45.93686" lon="3.0007">
        <ele>718.72</ele>
        <time>2021-08-14T11:36:45Z</time>
      </trkpt>
      <trkpt lat="45.93685" lon="3.0007">
        <ele>718.72</ele>
        <time>2021-08-14T11:36:46Z</time>
      </trkpt>
      <trkpt lat="45.93683" lon="3.00069">
        <ele>718.72</ele>
        <time>2021-08-14T11:36:47Z</time>
      </trkpt>
      <trkpt lat="45.93682" lon="3.00069">
        <ele>719.2</ele>
        <time>2021-08-14T11:36:48Z</time>
      </trkpt>
      <trkpt lat="45.93681" lon="3.00068">
        <ele>719.2</ele>
        <time>2021-08-14T11:36:49Z</time>
      </trkpt>
      <trkpt lat="45.93679" lon="3.00067">
        <ele>719.2</ele>
        <time>2021-08-14T11:36:50Z</time>
      </trkpt>
      <trkpt lat="45.93678" lon="3.00066">
        <ele>719.68</ele>
        <time>2021-08-14T11:36:51Z</time>
      </trkpt>
      <trkpt lat="45.93668" lon="3.00061">
        <ele>720.65</ele>
        <time>2021-08-14T11:37:00Z</time>
      </trkpt>
      <trkpt lat="45.93655" lon="3.00055">
        <ele>721.61</ele>
        <time>2021-08-14T11:37:10Z</time>
      </trkpt>
      <trkpt lat="45.93642" lon="3.0005">
        <ele>722.57</ele>
        <time>2021-08-14T11:37:19Z</time>
      </trkpt>
      <trkpt lat="45.9363" lon="3.00047">
        <ele>723.53</ele>
        <time>2021-08-14T11:37:27Z</time>
      </trkpt>
      <trkpt lat="45.93629" lon="3.00047">
        <ele>723.53</ele>
        <time>2021-08-14T11:37:28Z</time>
      </trkpt>
      <trkpt lat="45.93628" lon="3.00046">
        <ele>723.53</ele>
        <time>2021-08-14T11:37:29Z</time>
      </trkpt>
      <trkpt lat="45.93626" lon="3.00046">
        <ele>723.53</ele>
        <time>2021-08-14T11:37:30Z</time>
      </trkpt>
      <trkpt lat="45.93625" lon="3.00045">
        <ele>723.53</ele>
        <time>2021-08-14T11:37:31Z</time>
      </trkpt>
      <trkpt lat="45.93624" lon="3.00045">
        <ele>723.53</ele>
        <time>2021-08-14T11:37:32Z</time>
      </trkpt>
      <trkpt lat="45.93623" lon="3.00044">
        <ele>723.53</ele>
        <time>2021-08-14T11:37:33Z</time>
      </trkpt>
      <trkpt lat="45.93622" lon="3.00043">
        <ele>724.49</ele>
        <time>2021-08-14T11:37:34Z</time>
      </trkpt>
      <trkpt lat="45.9362" lon="3.00042">
        <ele>724.49</ele>
        <time>2021-08-14T11:37:35Z</time>
      </trkpt>
      <trkpt lat="45.93619" lon="3.00042">
        <ele>724.49</ele>
        <time>2021-08-14T11:37:36Z</time>
      </trkpt>
      <trkpt lat="45.93618" lon="3.00042">
        <ele>724.49</ele>
        <time>2021-08-14T11:37:37Z</time>
      </trkpt>
      <trkpt lat="45.93617" lon="3.00041">
        <ele>724.49</ele>
        <time>2021-08-14T11:37:38Z</time>
      </trkpt>
      <trkpt lat="45.93614" lon="3.0004">
        <ele>724.97</ele>
        <time>2021-08-14T11:37:41Z</time>
      </trkpt>
      <trkpt lat="45.93612" lon="3.00039">
        <ele>724.97</ele>
        <time>2021-08-14T11:37:42Z</time>
      </trkpt>
      <trkpt lat="45.93611" lon="3.00038">
        <ele>725.45</ele>
        <time>2021-08-14T11:37:43Z</time>
      </trkpt>
      <trkpt lat="45.9361" lon="3.00037">
        <ele>725.45</ele>
        <time>2021-08-14T11:37:44Z</time>
      </trkpt>
      <trkpt lat="45.93609" lon="3.00037">
        <ele>725.45</ele>
        <time>2021-08-14T11:37:45Z</time>
      </trkpt>
      <trkpt lat="45.93608" lon="3.00036">
        <ele>725.45</ele>
        <time>2021-08-14T11:37:46Z</time>
      </trkpt>
      <trkpt lat="45.93607" lon="3.00036">
        <ele>725.93</ele>
        <time>2021-08-14T11:37:47Z</time>
      </trkpt>
      <trkpt lat="45.93606" lon="3.00035">
        <ele>725.93</ele>
        <time>2021-08-14T11:37:48Z</time>
      </trkpt>
      <trkpt lat="45.93604" lon="3.00034">
        <ele>725.93</ele>
        <time>2021-08-14T11:37:50Z</time>
      </trkpt>
      <trkpt lat="45.93603" lon="3.00033">
        <ele>725.93</ele>
        <time>2021-08-14T11:37:51Z</time>
      </trkpt>
      <trkpt lat="45.93595" lon="3.00028">
        <ele>726.89</ele>
        <time>2021-08-14T11:37:59Z</time>
      </trkpt>
      <trkpt lat="45.9359" lon="3.00026">
        <ele>727.37</ele>
        <time>2021-08-14T11:38:04Z</time>
      </trkpt>
      <trkpt lat="45.93589" lon="3.00026">
        <ele>727.37</ele>
        <time>2021-08-14T11:38:05Z</time>
      </trkpt>
      <trkpt lat="45.93588" lon="3.00026">
        <ele>727.37</ele>
        <time>2021-08-14T11:38:06Z</time>
      </trkpt>
      <trkpt lat="45.93587" lon="3.00025">
        <ele>727.37</ele>
        <time>2021-08-14T11:38:07Z</time>
      </trkpt>
      <trkpt lat="45.93585" lon="3.00025">
        <ele>727.37</ele>
        <time>2021-08-14T11:38:08Z</time>
      </trkpt>
      <trkpt lat="45.93585" lon="3.00024">
        <ele>728.34</ele>
        <time>2021-08-14T11:38:09Z</time>
      </trkpt>
      <trkpt lat="45.93575" lon="3.0002">
        <ele>729.78</ele>
        <time>2021-08-14T11:38:18Z</time>
      </trkpt>
      <trkpt lat="45.93574" lon="3.0002">
        <ele>729.78</ele>
        <time>2021-08-14T11:38:19Z</time>
      </trkpt>
      <trkpt lat="45.93573" lon="3.00019">
        <ele>729.78</ele>
        <time>2021-08-14T11:38:20Z</time>
      </trkpt>
      <trkpt lat="45.93572" lon="3.00019">
        <ele>729.78</ele>
        <time>2021-08-14T11:38:21Z</time>
      </trkpt>
      <trkpt lat="45.93571" lon="3.00018">
        <ele>729.78</ele>
        <time>2021-08-14T11:38:22Z</time>
      </trkpt>
      <trkpt lat="45.93569" lon="3.00017">
        <ele>730.26</ele>
        <time>2021-08-14T11:38:24Z</time>
      </trkpt>
      <trkpt lat="45.93564" lon="3.00014">
        <ele>730.74</ele>
        <time>2021-08-14T11:38:28Z</time>
      </trkpt>
      <trkpt lat="45.93563" lon="3.00014">
        <ele>730.74</ele>
        <time>2021-08-14T11:38:29Z</time>
      </trkpt>
      <trkpt lat="45.93561" lon="3.00014">
        <ele>730.74</ele>
        <time>2021-08-14T11:38:30Z</time>
      </trkpt>
      <trkpt lat="45.9356" lon="3.00014">
        <ele>730.74</ele>
        <time>2021-08-14T11:38:31Z</time>
      </trkpt>
      <trkpt lat="45.93559" lon="3.00013">
        <ele>730.74</ele>
        <time>2021-08-14T11:38:32Z</time>
      </trkpt>
      <trkpt lat="45.93558" lon="3.00013">
        <ele>731.22</ele>
        <time>2021-08-14T11:38:33Z</time>
      </trkpt>
      <trkpt lat="45.93557" lon="3.00013">
        <ele>731.22</ele>
        <time>2021-08-14T11:38:34Z</time>
      </trkpt>
      <trkpt lat="45.93556" lon="3.00013">
        <ele>731.22</ele>
        <time>2021-08-14T11:38:35Z</time>
      </trkpt>
      <trkpt lat="45.93554" lon="3.00014">
        <ele>731.22</ele>
        <time>2021-08-14T11:38:36Z</time>
      </trkpt>
      <trkpt lat="45.93553" lon="3.00014">
        <ele>731.7</ele>
        <time>2021-08-14T11:38:37Z</time>
      </trkpt>
      <trkpt lat="45.93552" lon="3.00013">
        <ele>731.7</ele>
        <time>2021-08-14T11:38:38Z</time>
      </trkpt>
      <trkpt lat="45.93551" lon="3.00013">
        <ele>732.18</ele>
        <time>2021-08-14T11:38:39Z</time>
      </trkpt>
      <trkpt lat="45.9355" lon="3.00012">
        <ele>732.18</ele>
        <time>2021-08-14T11:38:40Z</time>
      </trkpt>
      <trkpt lat="45.93547" lon="3.00012">
        <ele>732.18</ele>
        <time>2021-08-14T11:38:43Z</time>
      </trkpt>
      <trkpt lat="45.93545" lon="3.00012">
        <ele>732.18</ele>
        <time>2021-08-14T11:38:44Z</time>
      </trkpt>
      <trkpt lat="45.93544" lon="3.00012">
        <ele>732.66</ele>
        <time>2021-08-14T11:38:45Z</time>
      </trkpt>
      <trkpt lat="45.93543" lon="3.00013">
        <ele>732.66</ele>
        <time>2021-08-14T11:38:46Z</time>
      </trkpt>
      <trkpt lat="45.9354" lon="3.00012">
        <ele>733.14</ele>
        <time>2021-08-14T11:38:49Z</time>
      </trkpt>
      <trkpt lat="45.93538" lon="3.00012">
        <ele>733.14</ele>
        <time>2021-08-14T11:38:50Z</time>
      </trkpt>
      <trkpt lat="45.93537" lon="3.00012">
        <ele>733.14</ele>
        <time>2021-08-14T11:38:51Z</time>
      </trkpt>
      <trkpt lat="45.93536" lon="3.00011">
        <ele>733.62</ele>
        <time>2021-08-14T11:38:52Z</time>
      </trkpt>
      <trkpt lat="45.93535" lon="3.00011">
        <ele>733.62</ele>
        <time>2021-08-14T11:38:53Z</time>
      </trkpt>
      <trkpt lat="45.93533" lon="3.00011">
        <ele>733.62</ele>
        <time>2021-08-14T11:38:54Z</time>
      </trkpt>
      <trkpt lat="45.93532" lon="3.00011">
        <ele>733.62</ele>
        <time>2021-08-14T11:38:55Z</time>
      </trkpt>
      <trkpt lat="45.93522" lon="3.00012">
        <ele>735.55</ele>
        <time>2021-08-14T11:39:03Z</time>
      </trkpt>
      <trkpt lat="45.9352" lon="3.00013">
        <ele>735.55</ele>
        <time>2021-08-14T11:39:05Z</time>
      </trkpt>
      <trkpt lat="45.93519" lon="3.00013">
        <ele>735.55</ele>
        <time>2021-08-14T11:39:06Z</time>
      </trkpt>
      <trkpt lat="45.93518" lon="3.00013">
        <ele>735.55</ele>
        <time>2021-08-14T11:39:07Z</time>
      </trkpt>
      <trkpt lat="45.93516" lon="3.00013">
        <ele>736.03</ele>
        <time>2021-08-14T11:39:08Z</time>
      </trkpt>
      <trkpt lat="45.93515" lon="3.00013">
        <ele>736.03</ele>
        <time>2021-08-14T11:39:09Z</time>
      </trkpt>
      <trkpt lat="45.93514" lon="3.00012">
        <ele>736.03</ele>
        <time>2021-08-14T11:39:10Z</time>
      </trkpt>
      <trkpt lat="45.93513" lon="3.00012">
        <ele>736.03</ele>
        <time>2021-08-14T11:39:11Z</time>
      </trkpt>
      <trkpt lat="45.93512" lon="3.00012">
        <ele>736.03</ele>
        <time>2021-08-14T11:39:12Z</time>
      </trkpt>
      <trkpt lat="45.93509" lon="3.00012">
        <ele>736.51</ele>
        <time>2021-08-14T11:39:14Z</time>
      </trkpt>
      <trkpt lat="45.93508" lon="3.00012">
        <ele>736.51</ele>
        <time>2021-08-14T11:39:15Z</time>
      </trkpt>
      <trkpt lat="45.93507" lon="3.00012">
        <ele>736.51</ele>
        <time>2021-08-14T11:39:16Z</time>
      </trkpt>
      <trkpt lat="45.93506" lon="3.00012">
        <ele>736.99</ele>
        <time>2021-08-14T11:39:17Z</time>
      </trkpt>
      <trkpt lat="45.93505" lon="3.00012">
        <ele>736.99</ele>
        <time>2021-08-14T11:39:18Z</time>
      </trkpt>
      <trkpt lat="45.93504" lon="3.00012">
        <ele>736.99</ele>
        <time>2021-08-14T11:39:19Z</time>
      </trkpt>
      <trkpt lat="45.93503" lon="3.00011">
        <ele>736.99</ele>
        <time>2021-08-14T11:39:20Z</time>
      </trkpt>
      <trkpt lat="45.93502" lon="3.00011">
        <ele>737.47</ele>
        <time>2021-08-14T11:39:21Z</time>
      </trkpt>
      <trkpt lat="45.935" lon="3.0001">
        <ele>737.47</ele>
        <time>2021-08-14T11:39:22Z</time>
      </trkpt>
      <trkpt lat="45.93498" lon="3.00011">
        <ele>737.47</ele>
        <time>2021-08-14T11:39:24Z</time>
      </trkpt>
      <trkpt lat="45.93497" lon="3.0001">
        <ele>737.47</ele>
        <time>2021-08-14T11:39:25Z</time>
      </trkpt>
      <trkpt lat="45.93495" lon="3.00009">
        <ele>737.47</ele>
        <time>2021-08-14T11:39:26Z</time>
      </trkpt>
      <trkpt lat="45.93494" lon="3.00008">
        <ele>737.47</ele>
        <time>2021-08-14T11:39:27Z</time>
      </trkpt>
      <trkpt lat="45.93493" lon="3.00008">
        <ele>737.95</ele>
        <time>2021-08-14T11:39:28Z</time>
      </trkpt>
      <trkpt lat="45.93492" lon="3.00008">
        <ele>737.95</ele>
        <time>2021-08-14T11:39:29Z</time>
      </trkpt>
      <trkpt lat="45.93491" lon="3.00007">
        <ele>737.95</ele>
        <time>2021-08-14T11:39:30Z</time>
      </trkpt>
      <trkpt lat="45.9349" lon="3.00007">
        <ele>737.95</ele>
        <time>2021-08-14T11:39:31Z</time>
      </trkpt>
      <trkpt lat="45.93489" lon="3.00006">
        <ele>737.95</ele>
        <time>2021-08-14T11:39:32Z</time>
      </trkpt>
      <trkpt lat="45.93488" lon="3.00005">
        <ele>737.95</ele>
        <time>2021-08-14T11:39:33Z</time>
      </trkpt>
      <trkpt lat="45.93487" lon="3.00005">
        <ele>738.43</ele>
        <time>2021-08-14T11:39:34Z</time>
      </trkpt>
      <trkpt lat="45.93485" lon="3.00005">
        <ele>738.43</ele>
        <time>2021-08-14T11:39:35Z</time>
      </trkpt>
      <trkpt lat="45.93484" lon="3.00004">
        <ele>738.43</ele>
        <time>2021-08-14T11:39:36Z</time>
      </trkpt>
      <trkpt lat="45.93483" lon="3.00004">
        <ele>738.43</ele>
        <time>2021-08-14T11:39:37Z</time>
      </trkpt>
      <trkpt lat="45.93477" lon="3.00001">
        <ele>739.87</ele>
        <time>2021-08-14T11:39:43Z</time>
      </trkpt>
      <trkpt lat="45.93467" lon="2.99994">
        <ele>740.35</ele>
        <time>2021-08-14T11:39:51Z</time>
      </trkpt>
      <trkpt lat="45.93458" lon="2.99983">
        <ele>740.83</ele>
        <time>2021-08-14T11:39:57Z</time>
      </trkpt>
      <trkpt lat="45.93443" lon="2.99961">
        <ele>741.31</ele>
        <time>2021-08-14T11:40:06Z</time>
      </trkpt>
      <trkpt lat="45.93413" lon="2.99928">
        <ele>742.28</ele>
        <time>2021-08-14T11:40:20Z</time>
      </trkpt>
      <trkpt lat="45.93396" lon="2.9991">
        <ele>742.28</ele>
        <time>2021-08-14T11:40:28Z</time>
      </trkpt>
      <trkpt lat="45.93381" lon="2.99898">
        <ele>740.83</ele>
        <time>2021-08-14T11:40:33Z</time>
      </trkpt>
      <trkpt lat="45.93364" lon="2.9988">
        <ele>739.87</ele>
        <time>2021-08-14T11:40:40Z</time>
      </trkpt>
      <trkpt lat="45.9335" lon="2.99851">
        <ele>738.91</ele>
        <time>2021-08-14T11:40:47Z</time>
      </trkpt>
      <trkpt lat="45.93342" lon="2.99837">
        <ele>737.95</ele>
        <time>2021-08-14T11:40:50Z</time>
      </trkpt>
      <trkpt lat="45.93339" lon="2.99831">
        <ele>737.95</ele>
        <time>2021-08-14T11:40:51Z</time>
      </trkpt>
      <trkpt lat="45.93332" lon="2.99816">
        <ele>737.47</ele>
        <time>2021-08-14T11:40:56Z</time>
      </trkpt>
      <trkpt lat="45.93332" lon="2.99817">
        <ele>736.99</ele>
        <time>2021-08-14T11:41:03Z</time>
      </trkpt>
      <trkpt lat="45.93332" lon="2.99817">
        <ele>736.99</ele>
        <time>2021-08-14T11:41:16Z</time>
      </trkpt>
      <trkpt lat="45.93329" lon="2.99813">
        <ele>736.99</ele>
        <time>2021-08-14T11:41:30Z</time>
      </trkpt>
      <trkpt lat="45.93325" lon="2.99807">
        <ele>736.99</ele>
        <time>2021-08-14T11:41:33Z</time>
      </trkpt>
      <trkpt lat="45.93324" lon="2.99804">
        <ele>736.99</ele>
        <time>2021-08-14T11:41:34Z</time>
      </trkpt>
      <trkpt lat="45.93323" lon="2.998">
        <ele>736.03</ele>
        <time>2021-08-14T11:41:35Z</time>
      </trkpt>
      <trkpt lat="45.93321" lon="2.99797">
        <ele>736.03</ele>
        <time>2021-08-14T11:41:36Z</time>
      </trkpt>
      <trkpt lat="45.93318" lon="2.99794">
        <ele>736.03</ele>
        <time>2021-08-14T11:41:37Z</time>
      </trkpt>
      <trkpt lat="45.93309" lon="2.99773">
        <ele>735.07</ele>
        <time>2021-08-14T11:41:41Z</time>
      </trkpt>
      <trkpt lat="45.93275" lon="2.99717">
        <ele>732.66</ele>
        <time>2021-08-14T11:41:51Z</time>
      </trkpt>
      <trkpt lat="45.93236" lon="2.99668">
        <ele>729.3</ele>
        <time>2021-08-14T11:42:00Z</time>
      </trkpt>
      <trkpt lat="45.93209" lon="2.9963">
        <ele>726.89</ele>
        <time>2021-08-14T11:42:07Z</time>
      </trkpt>
      <trkpt lat="45.93201" lon="2.99615">
        <ele>726.41</ele>
        <time>2021-08-14T11:42:12Z</time>
      </trkpt>
      <trkpt lat="45.93184" lon="2.99586">
        <ele>724.97</ele>
        <time>2021-08-14T11:42:19Z</time>
      </trkpt>
      <trkpt lat="45.93167" lon="2.99553">
        <ele>723.53</ele>
        <time>2021-08-14T11:42:27Z</time>
      </trkpt>
      <trkpt lat="45.9315" lon="2.99519">
        <ele>722.09</ele>
        <time>2021-08-14T11:42:36Z</time>
      </trkpt>
      <trkpt lat="45.93143" lon="2.99501">
        <ele>720.65</ele>
        <time>2021-08-14T11:42:42Z</time>
      </trkpt>
      <trkpt lat="45.93144" lon="2.99498">
        <ele>720.65</ele>
        <time>2021-08-14T11:42:43Z</time>
      </trkpt>
      <trkpt lat="45.93145" lon="2.99494">
        <ele>720.16</ele>
        <time>2021-08-14T11:42:44Z</time>
      </trkpt>
      <trkpt lat="45.93152" lon="2.99481">
        <ele>720.16</ele>
        <time>2021-08-14T11:42:50Z</time>
      </trkpt>
      <trkpt lat="45.93152" lon="2.9948">
        <ele>720.16</ele>
        <time>2021-08-14T11:42:57Z</time>
      </trkpt>
      <trkpt lat="45.93152" lon="2.99482">
        <ele>720.16</ele>
        <time>2021-08-14T11:43:12Z</time>
      </trkpt>
      <trkpt lat="45.93153" lon="2.99485">
        <ele>720.16</ele>
        <time>2021-08-14T11:43:25Z</time>
      </trkpt>
      <trkpt lat="45.93151" lon="2.99489">
        <ele>720.16</ele>
        <time>2021-08-14T11:43:38Z</time>
      </trkpt>
      <trkpt lat="45.93151" lon="2.99489">
        <ele>720.16</ele>
        <time>2021-08-14T11:43:57Z</time>
      </trkpt>
      <trkpt lat="45.93151" lon="2.99489">
        <ele>720.16</ele>
        <time>2021-08-14T11:44:16Z</time>
      </trkpt>
      <trkpt lat="45.93149" lon="2.99493">
        <ele>720.16</ele>
        <time>2021-08-14T11:44:32Z</time>
      </trkpt>
      <trkpt lat="45.93148" lon="2.99494">
        <ele>720.65</ele>
        <time>2021-08-14T11:44:52Z</time>
      </trkpt>
      <trkpt lat="45.93148" lon="2.99489">
        <ele>720.65</ele>
        <time>2021-08-14T11:45:08Z</time>
      </trkpt>
      <trkpt lat="45.93148" lon="2.99488">
        <ele>720.65</ele>
        <time>2021-08-14T11:45:14Z</time>
      </trkpt>
      <trkpt lat="45.93148" lon="2.99489">
        <ele>720.65</ele>
        <time>2021-08-14T11:45:15Z</time>
      </trkpt>
      <trkpt lat="45.93147" lon="2.99491">
        <ele>720.65</ele>
        <time>2021-08-14T11:45:16Z</time>
      </trkpt>
      <trkpt lat="45.93146" lon="2.99491">
        <ele>720.65</ele>
        <time>2021-08-14T11:45:17Z</time>
      </trkpt>
      <trkpt lat="45.93145" lon="2.99492">
        <ele>720.65</ele>
        <time>2021-08-14T11:45:18Z</time>
      </trkpt>
      <trkpt lat="45.93145" lon="2.99493">
        <ele>720.65</ele>
        <time>2021-08-14T11:45:19Z</time>
      </trkpt>
      <trkpt lat="45.93145" lon="2.99495">
        <ele>720.65</ele>
        <time>2021-08-14T11:45:20Z</time>
      </trkpt>
      <trkpt lat="45.93144" lon="2.99497">
        <ele>720.65</ele>
        <time>2021-08-14T11:45:21Z</time>
      </trkpt>
      <trkpt lat="45.93144" lon="2.99499">
        <ele>720.65</ele>
        <time>2021-08-14T11:45:22Z</time>
      </trkpt>
      <trkpt lat="45.93143" lon="2.99502">
        <ele>720.65</ele>
        <time>2021-08-14T11:45:23Z</time>
      </trkpt>
      <trkpt lat="45.93143" lon="2.99504">
        <ele>720.65</ele>
        <time>2021-08-14T11:45:24Z</time>
      </trkpt>
      <trkpt lat="45.93145" lon="2.99506">
        <ele>720.65</ele>
        <time>2021-08-14T11:45:25Z</time>
      </trkpt>
      <trkpt lat="45.93146" lon="2.99507">
        <ele>720.65</ele>
        <time>2021-08-14T11:45:26Z</time>
      </trkpt>
      <trkpt lat="45.93149" lon="2.99508">
        <ele>720.65</ele>
        <time>2021-08-14T11:45:27Z</time>
      </trkpt>
      <trkpt lat="45.93151" lon="2.99507">
        <ele>720.65</ele>
        <time>2021-08-14T11:45:28Z</time>
      </trkpt>
      <trkpt lat="45.93152" lon="2.99506">
        <ele>720.65</ele>
        <time>2021-08-14T11:45:29Z</time>
      </trkpt>
      <trkpt lat="45.93153" lon="2.99504">
        <ele>721.61</ele>
        <time>2021-08-14T11:45:30Z</time>
      </trkpt>
      <trkpt lat="45.93154" lon="2.99502">
        <ele>721.61</ele>
        <time>2021-08-14T11:45:31Z</time>
      </trkpt>
      <trkpt lat="45.93156" lon="2.995">
        <ele>721.61</ele>
        <time>2021-08-14T11:45:32Z</time>
      </trkpt>
      <trkpt lat="45.93158" lon="2.99498">
        <ele>721.61</ele>
        <time>2021-08-14T11:45:33Z</time>
      </trkpt>
      <trkpt lat="45.9316" lon="2.99496">
        <ele>721.61</ele>
        <time>2021-08-14T11:45:34Z</time>
      </trkpt>
      <trkpt lat="45.93163" lon="2.99494">
        <ele>721.61</ele>
        <time>2021-08-14T11:45:35Z</time>
      </trkpt>
      <trkpt lat="45.93181" lon="2.99478">
        <ele>722.57</ele>
        <time>2021-08-14T11:45:44Z</time>
      </trkpt>
      <trkpt lat="45.93187" lon="2.99472">
        <ele>722.57</ele>
        <time>2021-08-14T11:45:51Z</time>
      </trkpt>
      <trkpt lat="45.93193" lon="2.9947">
        <ele>722.57</ele>
        <time>2021-08-14T11:45:59Z</time>
      </trkpt>
      <trkpt lat="45.93197" lon="2.99468">
        <ele>722.57</ele>
        <time>2021-08-14T11:46:25Z</time>
      </trkpt>
      <trkpt lat="45.93191" lon="2.99467">
        <ele>722.57</ele>
        <time>2021-08-14T11:46:53Z</time>
      </trkpt>
      <trkpt lat="45.9319" lon="2.99464">
        <ele>722.57</ele>
        <time>2021-08-14T11:47:15Z</time>
      </trkpt>
      <trkpt lat="45.93189" lon="2.99464">
        <ele>722.57</ele>
        <time>2021-08-14T11:47:16Z</time>
      </trkpt>
      <trkpt lat="45.9318" lon="2.99481">
        <ele>722.57</ele>
        <time>2021-08-14T11:47:27Z</time>
      </trkpt>
      <trkpt lat="45.9317" lon="2.99491">
        <ele>722.57</ele>
        <time>2021-08-14T11:47:35Z</time>
      </trkpt>
      <trkpt lat="45.93167" lon="2.99494">
        <ele>722.57</ele>
        <time>2021-08-14T11:47:37Z</time>
      </trkpt>
      <trkpt lat="45.9316" lon="2.99501">
        <ele>721.13</ele>
        <time>2021-08-14T11:47:40Z</time>
      </trkpt>
      <trkpt lat="45.93154" lon="2.99507">
        <ele>721.13</ele>
        <time>2021-08-14T11:47:43Z</time>
      </trkpt>
      <trkpt lat="45.93153" lon="2.9951">
        <ele>721.13</ele>
        <time>2021-08-14T11:47:44Z</time>
      </trkpt>
      <trkpt lat="45.93151" lon="2.9951">
        <ele>720.65</ele>
        <time>2021-08-14T11:47:45Z</time>
      </trkpt>
      <trkpt lat="45.93148" lon="2.99508">
        <ele>720.65</ele>
        <time>2021-08-14T11:47:46Z</time>
      </trkpt>
      <trkpt lat="45.93146" lon="2.99506">
        <ele>720.65</ele>
        <time>2021-08-14T11:47:47Z</time>
      </trkpt>
      <trkpt lat="45.93143" lon="2.99502">
        <ele>720.16</ele>
        <time>2021-08-14T11:47:48Z</time>
      </trkpt>
      <trkpt lat="45.93141" lon="2.99498">
        <ele>719.68</ele>
        <time>2021-08-14T11:47:49Z</time>
      </trkpt>
      <trkpt lat="45.93139" lon="2.99493">
        <ele>719.68</ele>
        <time>2021-08-14T11:47:50Z</time>
      </trkpt>
      <trkpt lat="45.93137" lon="2.99486">
        <ele>719.2</ele>
        <time>2021-08-14T11:47:51Z</time>
      </trkpt>
      <trkpt lat="45.93134" lon="2.99479">
        <ele>718.72</ele>
        <time>2021-08-14T11:47:52Z</time>
      </trkpt>
      <trkpt lat="45.9313" lon="2.99472">
        <ele>718.24</ele>
        <time>2021-08-14T11:47:53Z</time>
      </trkpt>
      <trkpt lat="45.93126" lon="2.99465">
        <ele>718.24</ele>
        <time>2021-08-14T11:47:54Z</time>
      </trkpt>
      <trkpt lat="45.93113" lon="2.99445">
        <ele>716.8</ele>
        <time>2021-08-14T11:47:57Z</time>
      </trkpt>
      <trkpt lat="45.93087" lon="2.99402">
        <ele>714.88</ele>
        <time>2021-08-14T11:48:04Z</time>
      </trkpt>
      <trkpt lat="45.93077" lon="2.99371">
        <ele>713.44</ele>
        <time>2021-08-14T11:48:10Z</time>
      </trkpt>
      <trkpt lat="45.93073" lon="2.99361">
        <ele>713.44</ele>
        <time>2021-08-14T11:48:14Z</time>
      </trkpt>
      <trkpt lat="45.93072" lon="2.99359">
        <ele>713.44</ele>
        <time>2021-08-14T11:48:15Z</time>
      </trkpt>
      <trkpt lat="45.93067" lon="2.99352">
        <ele>712.95</ele>
        <time>2021-08-14T11:48:18Z</time>
      </trkpt>
      <trkpt lat="45.93066" lon="2.99348">
        <ele>712.95</ele>
        <time>2021-08-14T11:48:19Z</time>
      </trkpt>
      <trkpt lat="45.93064" lon="2.99343">
        <ele>712.47</ele>
        <time>2021-08-14T11:48:20Z</time>
      </trkpt>
      <trkpt lat="45.9305" lon="2.9932">
        <ele>710.55</ele>
        <time>2021-08-14T11:48:25Z</time>
      </trkpt>
      <trkpt lat="45.93047" lon="2.99316">
        <ele>710.55</ele>
        <time>2021-08-14T11:48:26Z</time>
      </trkpt>
      <trkpt lat="45.9304" lon="2.99309">
        <ele>709.59</ele>
        <time>2021-08-14T11:48:28Z</time>
      </trkpt>
      <trkpt lat="45.93037" lon="2.99305">
        <ele>708.63</ele>
        <time>2021-08-14T11:48:29Z</time>
      </trkpt>
      <trkpt lat="45.93031" lon="2.99294">
        <ele>708.15</ele>
        <time>2021-08-14T11:48:31Z</time>
      </trkpt>
      <trkpt lat="45.93029" lon="2.99287">
        <ele>707.67</ele>
        <time>2021-08-14T11:48:32Z</time>
      </trkpt>
      <trkpt lat="45.93026" lon="2.9928">
        <ele>707.19</ele>
        <time>2021-08-14T11:48:33Z</time>
      </trkpt>
      <trkpt lat="45.93025" lon="2.99271">
        <ele>707.19</ele>
        <time>2021-08-14T11:48:34Z</time>
      </trkpt>
      <trkpt lat="45.93025" lon="2.99264">
        <ele>706.71</ele>
        <time>2021-08-14T11:48:35Z</time>
      </trkpt>
      <trkpt lat="45.93026" lon="2.99255">
        <ele>706.23</ele>
        <time>2021-08-14T11:48:36Z</time>
      </trkpt>
      <trkpt lat="45.93026" lon="2.99246">
        <ele>705.75</ele>
        <time>2021-08-14T11:48:37Z</time>
      </trkpt>
      <trkpt lat="45.93039" lon="2.99183">
        <ele>704.78</ele>
        <time>2021-08-14T11:48:44Z</time>
      </trkpt>
      <trkpt lat="45.93057" lon="2.99123">
        <ele>704.78</ele>
        <time>2021-08-14T11:48:52Z</time>
      </trkpt>
      <trkpt lat="45.93068" lon="2.99093">
        <ele>706.23</ele>
        <time>2021-08-14T11:48:57Z</time>
      </trkpt>
      <trkpt lat="45.93076" lon="2.99071">
        <ele>707.19</ele>
        <time>2021-08-14T11:49:03Z</time>
      </trkpt>
      <trkpt lat="45.93083" lon="2.99051">
        <ele>707.67</ele>
        <time>2021-08-14T11:49:10Z</time>
      </trkpt>
      <trkpt lat="45.93093" lon="2.99025">
        <ele>708.63</ele>
        <time>2021-08-14T11:49:18Z</time>
      </trkpt>
      <trkpt lat="45.93103" lon="2.98993">
        <ele>710.07</ele>
        <time>2021-08-14T11:49:28Z</time>
      </trkpt>
      <trkpt lat="45.93107" lon="2.98969">
        <ele>711.03</ele>
        <time>2021-08-14T11:49:37Z</time>
      </trkpt>
      <trkpt lat="45.9311" lon="2.98947">
        <ele>711.99</ele>
        <time>2021-08-14T11:49:45Z</time>
      </trkpt>
      <trkpt lat="45.93109" lon="2.98927">
        <ele>712.47</ele>
        <time>2021-08-14T11:49:52Z</time>
      </trkpt>
      <trkpt lat="45.9311" lon="2.98913">
        <ele>712.95</ele>
        <time>2021-08-14T11:49:57Z</time>
      </trkpt>
      <trkpt lat="45.9311" lon="2.9891">
        <ele>713.44</ele>
        <time>2021-08-14T11:49:58Z</time>
      </trkpt>
      <trkpt lat="45.93109" lon="2.98908">
        <ele>713.44</ele>
        <time>2021-08-14T11:49:59Z</time>
      </trkpt>
      <trkpt lat="45.93109" lon="2.98905">
        <ele>713.44</ele>
        <time>2021-08-14T11:50:00Z</time>
      </trkpt>
      <trkpt lat="45.93108" lon="2.98902">
        <ele>713.44</ele>
        <time>2021-08-14T11:50:01Z</time>
      </trkpt>
      <trkpt lat="45.93103" lon="2.98869">
        <ele>714.88</ele>
        <time>2021-08-14T11:50:12Z</time>
      </trkpt>
      <trkpt lat="45.93098" lon="2.98843">
        <ele>716.32</ele>
        <time>2021-08-14T11:50:20Z</time>
      </trkpt>
      <trkpt lat="45.9309" lon="2.98818">
        <ele>716.8</ele>
        <time>2021-08-14T11:50:28Z</time>
      </trkpt>
      <trkpt lat="45.93075" lon="2.98809">
        <ele>716.32</ele>
        <time>2021-08-14T11:50:33Z</time>
      </trkpt>
      <trkpt lat="45.9304" lon="2.98795">
        <ele>716.32</ele>
        <time>2021-08-14T11:50:43Z</time>
      </trkpt>
      <trkpt lat="45.93001" lon="2.98792">
        <ele>716.32</ele>
        <time>2021-08-14T11:50:53Z</time>
      </trkpt>
      <trkpt lat="45.92979" lon="2.98795">
        <ele>716.8</ele>
        <time>2021-08-14T11:50:59Z</time>
      </trkpt>
      <trkpt lat="45.92976" lon="2.98798">
        <ele>716.8</ele>
        <time>2021-08-14T11:51:00Z</time>
      </trkpt>
      <trkpt lat="45.92975" lon="2.98801">
        <ele>716.8</ele>
        <time>2021-08-14T11:51:01Z</time>
      </trkpt>
      <trkpt lat="45.92967" lon="2.98815">
        <ele>715.84</ele>
        <time>2021-08-14T11:51:04Z</time>
      </trkpt>
      <trkpt lat="45.92963" lon="2.9882">
        <ele>715.36</ele>
        <time>2021-08-14T11:51:05Z</time>
      </trkpt>
      <trkpt lat="45.92958" lon="2.98824">
        <ele>714.4</ele>
        <time>2021-08-14T11:51:06Z</time>
      </trkpt>
      <trkpt lat="45.92952" lon="2.98827">
        <ele>713.92</ele>
        <time>2021-08-14T11:51:07Z</time>
      </trkpt>
      <trkpt lat="45.92945" lon="2.98828">
        <ele>713.92</ele>
        <time>2021-08-14T11:51:08Z</time>
      </trkpt>
      <trkpt lat="45.9294" lon="2.98829">
        <ele>713.92</ele>
        <time>2021-08-14T11:51:09Z</time>
      </trkpt>
      <trkpt lat="45.92933" lon="2.98831">
        <ele>713.92</ele>
        <time>2021-08-14T11:51:10Z</time>
      </trkpt>
      <trkpt lat="45.92906" lon="2.98839">
        <ele>715.36</ele>
        <time>2021-08-14T11:51:16Z</time>
      </trkpt>
      <trkpt lat="45.9289" lon="2.98848">
        <ele>716.8</ele>
        <time>2021-08-14T11:51:24Z</time>
      </trkpt>
      <trkpt lat="45.92875" lon="2.98857">
        <ele>718.24</ele>
        <time>2021-08-14T11:51:33Z</time>
      </trkpt>
      <trkpt lat="45.92861" lon="2.98866">
        <ele>719.68</ele>
        <time>2021-08-14T11:51:42Z</time>
      </trkpt>
      <trkpt lat="45.9285" lon="2.98877">
        <ele>721.13</ele>
        <time>2021-08-14T11:51:51Z</time>
      </trkpt>
      <trkpt lat="45.92841" lon="2.98886">
        <ele>722.09</ele>
        <time>2021-08-14T11:51:58Z</time>
      </trkpt>
      <trkpt lat="45.92826" lon="2.98894">
        <ele>723.05</ele>
        <time>2021-08-14T11:52:06Z</time>
      </trkpt>
      <trkpt lat="45.92804" lon="2.98898">
        <ele>723.53</ele>
        <time>2021-08-14T11:52:14Z</time>
      </trkpt>
      <trkpt lat="45.92793" lon="2.989">
        <ele>723.53</ele>
        <time>2021-08-14T11:52:17Z</time>
      </trkpt>
      <trkpt lat="45.92788" lon="2.989">
        <ele>723.53</ele>
        <time>2021-08-14T11:52:18Z</time>
      </trkpt>
      <trkpt lat="45.92784" lon="2.98901">
        <ele>723.53</ele>
        <time>2021-08-14T11:52:19Z</time>
      </trkpt>
      <trkpt lat="45.92738" lon="2.98908">
        <ele>723.53</ele>
        <time>2021-08-14T11:52:30Z</time>
      </trkpt>
      <trkpt lat="45.9271" lon="2.98913">
        <ele>723.53</ele>
        <time>2021-08-14T11:52:39Z</time>
      </trkpt>
      <trkpt lat="45.92689" lon="2.98907">
        <ele>724.49</ele>
        <time>2021-08-14T11:52:47Z</time>
      </trkpt>
      <trkpt lat="45.92667" lon="2.98898">
        <ele>725.93</ele>
        <time>2021-08-14T11:52:56Z</time>
      </trkpt>
      <trkpt lat="45.92655" lon="2.98893">
        <ele>727.37</ele>
        <time>2021-08-14T11:53:03Z</time>
      </trkpt>
      <trkpt lat="45.92635" lon="2.98888">
        <ele>728.34</ele>
        <time>2021-08-14T11:53:12Z</time>
      </trkpt>
      <trkpt lat="45.92611" lon="2.98886">
        <ele>729.78</ele>
        <time>2021-08-14T11:53:21Z</time>
      </trkpt>
      <trkpt lat="45.9259" lon="2.98884">
        <ele>730.74</ele>
        <time>2021-08-14T11:53:29Z</time>
      </trkpt>
      <trkpt lat="45.92572" lon="2.98884">
        <ele>732.18</ele>
        <time>2021-08-14T11:53:37Z</time>
      </trkpt>
      <trkpt lat="45.92545" lon="2.98887">
        <ele>734.1</ele>
        <time>2021-08-14T11:53:48Z</time>
      </trkpt>
      <trkpt lat="45.92513" lon="2.98888">
        <ele>734.58</ele>
        <time>2021-08-14T11:53:58Z</time>
      </trkpt>
      <trkpt lat="45.92477" lon="2.98881">
        <ele>734.58</ele>
        <time>2021-08-14T11:54:07Z</time>
      </trkpt>
      <trkpt lat="45.92442" lon="2.98863">
        <ele>734.58</ele>
        <time>2021-08-14T11:54:15Z</time>
      </trkpt>
      <trkpt lat="45.92433" lon="2.98859">
        <ele>734.58</ele>
        <time>2021-08-14T11:54:17Z</time>
      </trkpt>
      <trkpt lat="45.92388" lon="2.98832">
        <ele>734.58</ele>
        <time>2021-08-14T11:54:27Z</time>
      </trkpt>
      <trkpt lat="45.9235" lon="2.98798">
        <ele>734.58</ele>
        <time>2021-08-14T11:54:36Z</time>
      </trkpt>
      <trkpt lat="45.92322" lon="2.98773">
        <ele>735.55</ele>
        <time>2021-08-14T11:54:44Z</time>
      </trkpt>
      <trkpt lat="45.92307" lon="2.98756">
        <ele>736.03</ele>
        <time>2021-08-14T11:54:49Z</time>
      </trkpt>
      <trkpt lat="45.923" lon="2.98745">
        <ele>734.58</ele>
        <time>2021-08-14T11:54:51Z</time>
      </trkpt>
      <trkpt lat="45.92281" lon="2.98707">
        <ele>732.66</ele>
        <time>2021-08-14T11:54:56Z</time>
      </trkpt>
      <trkpt lat="45.9225" lon="2.98656">
        <ele>730.26</ele>
        <time>2021-08-14T11:55:02Z</time>
      </trkpt>
      <trkpt lat="45.92244" lon="2.9865">
        <ele>730.26</ele>
        <time>2021-08-14T11:55:03Z</time>
      </trkpt>
      <trkpt lat="45.9221" lon="2.98619">
        <ele>730.26</ele>
        <time>2021-08-14T11:55:09Z</time>
      </trkpt>
      <trkpt lat="45.92192" lon="2.98597">
        <ele>731.22</ele>
        <time>2021-08-14T11:55:13Z</time>
      </trkpt>
      <trkpt lat="45.92177" lon="2.98575">
        <ele>732.66</ele>
        <time>2021-08-14T11:55:17Z</time>
      </trkpt>
      <trkpt lat="45.92156" lon="2.98555">
        <ele>732.66</ele>
        <time>2021-08-14T11:55:22Z</time>
      </trkpt>
      <trkpt lat="45.92151" lon="2.98551">
        <ele>732.66</ele>
        <time>2021-08-14T11:55:23Z</time>
      </trkpt>
      <trkpt lat="45.9214" lon="2.98544">
        <ele>732.66</ele>
        <time>2021-08-14T11:55:25Z</time>
      </trkpt>
      <trkpt lat="45.9213" lon="2.98533">
        <ele>730.26</ele>
        <time>2021-08-14T11:55:27Z</time>
      </trkpt>
      <trkpt lat="45.92124" lon="2.98527">
        <ele>730.26</ele>
        <time>2021-08-14T11:55:28Z</time>
      </trkpt>
      <trkpt lat="45.92095" lon="2.98487">
        <ele>729.3</ele>
        <time>2021-08-14T11:55:34Z</time>
      </trkpt>
      <trkpt lat="45.92083" lon="2.98467">
        <ele>729.3</ele>
        <time>2021-08-14T11:55:37Z</time>
      </trkpt>
      <trkpt lat="45.92065" lon="2.98424">
        <ele>728.82</ele>
        <time>2021-08-14T11:55:43Z</time>
      </trkpt>
      <trkpt lat="45.92057" lon="2.98411">
        <ele>728.82</ele>
        <time>2021-08-14T11:55:45Z</time>
      </trkpt>
      <trkpt lat="45.92054" lon="2.98406">
        <ele>728.34</ele>
        <time>2021-08-14T11:55:46Z</time>
      </trkpt>
      <trkpt lat="45.92021" lon="2.98358">
        <ele>727.37</ele>
        <time>2021-08-14T11:55:54Z</time>
      </trkpt>
      <trkpt lat="45.92003" lon="2.98313">
        <ele>725.93</ele>
        <time>2021-08-14T11:56:00Z</time>
      </trkpt>
      <trkpt lat="45.91997" lon="2.98295">
        <ele>724.97</ele>
        <time>2021-08-14T11:56:02Z</time>
      </trkpt>
      <trkpt lat="45.91995" lon="2.98286">
        <ele>724.49</ele>
        <time>2021-08-14T11:56:03Z</time>
      </trkpt>
      <trkpt lat="45.91995" lon="2.98276">
        <ele>724.49</ele>
        <time>2021-08-14T11:56:04Z</time>
      </trkpt>
      <trkpt lat="45.91995" lon="2.98267">
        <ele>724.01</ele>
        <time>2021-08-14T11:56:05Z</time>
      </trkpt>
      <trkpt lat="45.91996" lon="2.98258">
        <ele>724.01</ele>
        <time>2021-08-14T11:56:06Z</time>
      </trkpt>
      <trkpt lat="45.91997" lon="2.98249">
        <ele>723.05</ele>
        <time>2021-08-14T11:56:07Z</time>
      </trkpt>
      <trkpt lat="45.91995" lon="2.9824">
        <ele>722.57</ele>
        <time>2021-08-14T11:56:08Z</time>
      </trkpt>
      <trkpt lat="45.91991" lon="2.98233">
        <ele>722.09</ele>
        <time>2021-08-14T11:56:09Z</time>
      </trkpt>
      <trkpt lat="45.91985" lon="2.98226">
        <ele>722.09</ele>
        <time>2021-08-14T11:56:10Z</time>
      </trkpt>
      <trkpt lat="45.9198" lon="2.98222">
        <ele>722.09</ele>
        <time>2021-08-14T11:56:11Z</time>
      </trkpt>
      <trkpt lat="45.91975" lon="2.98218">
        <ele>722.09</ele>
        <time>2021-08-14T11:56:12Z</time>
      </trkpt>
      <trkpt lat="45.91968" lon="2.98216">
        <ele>722.09</ele>
        <time>2021-08-14T11:56:13Z</time>
      </trkpt>
      <trkpt lat="45.91964" lon="2.98218">
        <ele>722.09</ele>
        <time>2021-08-14T11:56:14Z</time>
      </trkpt>
      <trkpt lat="45.9196" lon="2.98222">
        <ele>722.09</ele>
        <time>2021-08-14T11:56:15Z</time>
      </trkpt>
      <trkpt lat="45.91958" lon="2.98228">
        <ele>722.09</ele>
        <time>2021-08-14T11:56:16Z</time>
      </trkpt>
      <trkpt lat="45.91956" lon="2.98233">
        <ele>722.09</ele>
        <time>2021-08-14T11:56:17Z</time>
      </trkpt>
      <trkpt lat="45.91953" lon="2.98237">
        <ele>722.57</ele>
        <time>2021-08-14T11:56:18Z</time>
      </trkpt>
      <trkpt lat="45.91949" lon="2.9824">
        <ele>722.57</ele>
        <time>2021-08-14T11:56:19Z</time>
      </trkpt>
      <trkpt lat="45.91947" lon="2.98243">
        <ele>722.09</ele>
        <time>2021-08-14T11:56:20Z</time>
      </trkpt>
      <trkpt lat="45.91943" lon="2.98245">
        <ele>722.57</ele>
        <time>2021-08-14T11:56:21Z</time>
      </trkpt>
      <trkpt lat="45.9194" lon="2.98247">
        <ele>722.57</ele>
        <time>2021-08-14T11:56:22Z</time>
      </trkpt>
      <trkpt lat="45.9192" lon="2.98259">
        <ele>722.09</ele>
        <time>2021-08-14T11:56:28Z</time>
      </trkpt>
      <trkpt lat="45.91898" lon="2.98273">
        <ele>722.09</ele>
        <time>2021-08-14T11:56:36Z</time>
      </trkpt>
      <trkpt lat="45.91881" lon="2.98278">
        <ele>721.13</ele>
        <time>2021-08-14T11:56:41Z</time>
      </trkpt>
      <trkpt lat="45.91876" lon="2.98278">
        <ele>721.13</ele>
        <time>2021-08-14T11:56:42Z</time>
      </trkpt>
      <trkpt lat="45.91863" lon="2.98275">
        <ele>720.16</ele>
        <time>2021-08-14T11:56:45Z</time>
      </trkpt>
      <trkpt lat="45.91858" lon="2.98273">
        <ele>719.68</ele>
        <time>2021-08-14T11:56:46Z</time>
      </trkpt>
      <trkpt lat="45.9184" lon="2.98271">
        <ele>719.2</ele>
        <time>2021-08-14T11:56:49Z</time>
      </trkpt>
      <trkpt lat="45.91834" lon="2.98272">
        <ele>719.2</ele>
        <time>2021-08-14T11:56:50Z</time>
      </trkpt>
      <trkpt lat="45.91829" lon="2.98275">
        <ele>719.2</ele>
        <time>2021-08-14T11:56:51Z</time>
      </trkpt>
      <trkpt lat="45.91824" lon="2.9828">
        <ele>718.72</ele>
        <time>2021-08-14T11:56:52Z</time>
      </trkpt>
      <trkpt lat="45.91821" lon="2.98286">
        <ele>718.72</ele>
        <time>2021-08-14T11:56:53Z</time>
      </trkpt>
      <trkpt lat="45.9182" lon="2.98292">
        <ele>718.72</ele>
        <time>2021-08-14T11:56:54Z</time>
      </trkpt>
      <trkpt lat="45.91818" lon="2.98297">
        <ele>720.16</ele>
        <time>2021-08-14T11:56:55Z</time>
      </trkpt>
      <trkpt lat="45.91818" lon="2.98302">
        <ele>720.16</ele>
        <time>2021-08-14T11:56:56Z</time>
      </trkpt>
      <trkpt lat="45.91816" lon="2.98324">
        <ele>721.13</ele>
        <time>2021-08-14T11:57:02Z</time>
      </trkpt>
      <trkpt lat="45.91815" lon="2.98348">
        <ele>723.53</ele>
        <time>2021-08-14T11:57:13Z</time>
      </trkpt>
      <trkpt lat="45.91813" lon="2.98363">
        <ele>724.97</ele>
        <time>2021-08-14T11:57:21Z</time>
      </trkpt>
      <trkpt lat="45.9181" lon="2.98383">
        <ele>725.45</ele>
        <time>2021-08-14T11:57:31Z</time>
      </trkpt>
      <trkpt lat="45.91805" lon="2.98399">
        <ele>726.41</ele>
        <time>2021-08-14T11:57:39Z</time>
      </trkpt>
      <trkpt lat="45.91798" lon="2.98419">
        <ele>726.41</ele>
        <time>2021-08-14T11:57:48Z</time>
      </trkpt>
      <trkpt lat="45.9179" lon="2.98439">
        <ele>727.86</ele>
        <time>2021-08-14T11:57:58Z</time>
      </trkpt>
      <trkpt lat="45.91782" lon="2.98463">
        <ele>728.82</ele>
        <time>2021-08-14T11:58:09Z</time>
      </trkpt>
      <trkpt lat="45.91776" lon="2.9848">
        <ele>729.78</ele>
        <time>2021-08-14T11:58:17Z</time>
      </trkpt>
      <trkpt lat="45.91774" lon="2.98486">
        <ele>730.26</ele>
        <time>2021-08-14T11:58:20Z</time>
      </trkpt>
      <trkpt lat="45.91773" lon="2.98488">
        <ele>730.74</ele>
        <time>2021-08-14T11:58:21Z</time>
      </trkpt>
      <trkpt lat="45.91773" lon="2.98491">
        <ele>730.74</ele>
        <time>2021-08-14T11:58:22Z</time>
      </trkpt>
      <trkpt lat="45.91773" lon="2.98494">
        <ele>730.74</ele>
        <time>2021-08-14T11:58:23Z</time>
      </trkpt>
      <trkpt lat="45.91772" lon="2.98496">
        <ele>731.22</ele>
        <time>2021-08-14T11:58:24Z</time>
      </trkpt>
      <trkpt lat="45.91772" lon="2.98497">
        <ele>731.22</ele>
        <time>2021-08-14T11:58:25Z</time>
      </trkpt>
      <trkpt lat="45.91771" lon="2.98499">
        <ele>731.22</ele>
        <time>2021-08-14T11:58:26Z</time>
      </trkpt>
      <trkpt lat="45.91763" lon="2.9852">
        <ele>732.66</ele>
        <time>2021-08-14T11:58:37Z</time>
      </trkpt>
      <trkpt lat="45.9176" lon="2.98526">
        <ele>733.14</ele>
        <time>2021-08-14T11:58:41Z</time>
      </trkpt>
      <trkpt lat="45.91759" lon="2.98528">
        <ele>733.14</ele>
        <time>2021-08-14T11:58:42Z</time>
      </trkpt>
      <trkpt lat="45.91758" lon="2.9853">
        <ele>733.14</ele>
        <time>2021-08-14T11:58:43Z</time>
      </trkpt>
      <trkpt lat="45.91757" lon="2.98531">
        <ele>733.62</ele>
        <time>2021-08-14T11:58:44Z</time>
      </trkpt>
      <trkpt lat="45.91756" lon="2.98533">
        <ele>733.62</ele>
        <time>2021-08-14T11:58:45Z</time>
      </trkpt>
      <trkpt lat="45.91756" lon="2.98535">
        <ele>733.62</ele>
        <time>2021-08-14T11:58:46Z</time>
      </trkpt>
      <trkpt lat="45.91748" lon="2.98548">
        <ele>734.58</ele>
        <time>2021-08-14T11:58:54Z</time>
      </trkpt>
      <trkpt lat="45.9174" lon="2.98561">
        <ele>735.55</ele>
        <time>2021-08-14T11:59:03Z</time>
      </trkpt>
      <trkpt lat="45.91731" lon="2.9857">
        <ele>736.51</ele>
        <time>2021-08-14T11:59:11Z</time>
      </trkpt>
      <trkpt lat="45.91721" lon="2.98579">
        <ele>737.47</ele>
        <time>2021-08-14T11:59:19Z</time>
      </trkpt>
      <trkpt lat="45.9172" lon="2.9858">
        <ele>737.47</ele>
        <time>2021-08-14T11:59:20Z</time>
      </trkpt>
      <trkpt lat="45.91708" lon="2.98592">
        <ele>738.43</ele>
        <time>2021-08-14T11:59:29Z</time>
      </trkpt>
      <trkpt lat="45.91698" lon="2.98601">
        <ele>739.39</ele>
        <time>2021-08-14T11:59:36Z</time>
      </trkpt>
      <trkpt lat="45.91696" lon="2.98603">
        <ele>739.39</ele>
        <time>2021-08-14T11:59:37Z</time>
      </trkpt>
      <trkpt lat="45.91694" lon="2.98604">
        <ele>739.39</ele>
        <time>2021-08-14T11:59:38Z</time>
      </trkpt>
      <trkpt lat="45.91693" lon="2.98606">
        <ele>739.87</ele>
        <time>2021-08-14T11:59:39Z</time>
      </trkpt>
      <trkpt lat="45.91691" lon="2.98608">
        <ele>739.87</ele>
        <time>2021-08-14T11:59:40Z</time>
      </trkpt>
      <trkpt lat="45.9169" lon="2.9861">
        <ele>739.87</ele>
        <time>2021-08-14T11:59:41Z</time>
      </trkpt>
      <trkpt lat="45.91675" lon="2.98626">
        <ele>740.35</ele>
        <time>2021-08-14T11:59:50Z</time>
      </trkpt>
      <trkpt lat="45.91664" lon="2.98646">
        <ele>741.79</ele>
        <time>2021-08-14T11:59:59Z</time>
      </trkpt>
      <trkpt lat="45.91658" lon="2.98661">
        <ele>741.79</ele>
        <time>2021-08-14T12:00:06Z</time>
      </trkpt>
      <trkpt lat="45.91655" lon="2.98681">
        <ele>742.28</ele>
        <time>2021-08-14T12:00:14Z</time>
      </trkpt>
      <trkpt lat="45.91656" lon="2.987">
        <ele>743.24</ele>
        <time>2021-08-14T12:00:21Z</time>
      </trkpt>
      <trkpt lat="45.91656" lon="2.98724">
        <ele>745.16</ele>
        <time>2021-08-14T12:00:30Z</time>
      </trkpt>
      <trkpt lat="45.91651" lon="2.98742">
        <ele>745.64</ele>
        <time>2021-08-14T12:00:37Z</time>
      </trkpt>
      <trkpt lat="45.9164" lon="2.98775">
        <ele>746.6</ele>
        <time>2021-08-14T12:00:47Z</time>
      </trkpt>
      <trkpt lat="45.91627" lon="2.98808">
        <ele>747.08</ele>
        <time>2021-08-14T12:00:58Z</time>
      </trkpt>
      <trkpt lat="45.91614" lon="2.98826">
        <ele>747.56</ele>
        <time>2021-08-14T12:01:05Z</time>
      </trkpt>
      <trkpt lat="45.91598" lon="2.98824">
        <ele>748.52</ele>
        <time>2021-08-14T12:01:12Z</time>
      </trkpt>
      <trkpt lat="45.9158" lon="2.98815">
        <ele>749</ele>
        <time>2021-08-14T12:01:21Z</time>
      </trkpt>
      <trkpt lat="45.91567" lon="2.98809">
        <ele>749.49</ele>
        <time>2021-08-14T12:01:28Z</time>
      </trkpt>
      <trkpt lat="45.91559" lon="2.988">
        <ele>750.93</ele>
        <time>2021-08-14T12:01:35Z</time>
      </trkpt>
      <trkpt lat="45.91559" lon="2.98798">
        <ele>750.93</ele>
        <time>2021-08-14T12:01:36Z</time>
      </trkpt>
      <trkpt lat="45.91558" lon="2.98796">
        <ele>750.93</ele>
        <time>2021-08-14T12:01:37Z</time>
      </trkpt>
      <trkpt lat="45.91558" lon="2.98793">
        <ele>751.41</ele>
        <time>2021-08-14T12:01:38Z</time>
      </trkpt>
      <trkpt lat="45.91557" lon="2.98791">
        <ele>751.41</ele>
        <time>2021-08-14T12:01:39Z</time>
      </trkpt>
      <trkpt lat="45.91557" lon="2.98789">
        <ele>751.89</ele>
        <time>2021-08-14T12:01:40Z</time>
      </trkpt>
      <trkpt lat="45.91557" lon="2.98786">
        <ele>751.41</ele>
        <time>2021-08-14T12:01:41Z</time>
      </trkpt>
      <trkpt lat="45.91557" lon="2.98784">
        <ele>751.41</ele>
        <time>2021-08-14T12:01:42Z</time>
      </trkpt>
      <trkpt lat="45.91554" lon="2.98766">
        <ele>752.37</ele>
        <time>2021-08-14T12:01:51Z</time>
      </trkpt>
      <trkpt lat="45.91554" lon="2.98761">
        <ele>752.85</ele>
        <time>2021-08-14T12:01:53Z</time>
      </trkpt>
      <trkpt lat="45.91553" lon="2.98758">
        <ele>752.85</ele>
        <time>2021-08-14T12:01:54Z</time>
      </trkpt>
      <trkpt lat="45.91553" lon="2.98755">
        <ele>752.85</ele>
        <time>2021-08-14T12:01:55Z</time>
      </trkpt>
      <trkpt lat="45.91553" lon="2.98753">
        <ele>752.85</ele>
        <time>2021-08-14T12:01:56Z</time>
      </trkpt>
      <trkpt lat="45.91553" lon="2.98751">
        <ele>752.85</ele>
        <time>2021-08-14T12:01:57Z</time>
      </trkpt>
      <trkpt lat="45.91553" lon="2.98749">
        <ele>753.33</ele>
        <time>2021-08-14T12:01:58Z</time>
      </trkpt>
      <trkpt lat="45.91553" lon="2.98746">
        <ele>753.33</ele>
        <time>2021-08-14T12:01:59Z</time>
      </trkpt>
      <trkpt lat="45.91552" lon="2.98744">
        <ele>753.33</ele>
        <time>2021-08-14T12:02:00Z</time>
      </trkpt>
      <trkpt lat="45.91552" lon="2.98741">
        <ele>753.33</ele>
        <time>2021-08-14T12:02:01Z</time>
      </trkpt>
      <trkpt lat="45.91552" lon="2.98739">
        <ele>753.33</ele>
        <time>2021-08-14T12:02:02Z</time>
      </trkpt>
      <trkpt lat="45.91551" lon="2.98727">
        <ele>754.29</ele>
        <time>2021-08-14T12:02:07Z</time>
      </trkpt>
      <trkpt lat="45.91551" lon="2.98725">
        <ele>754.29</ele>
        <time>2021-08-14T12:02:08Z</time>
      </trkpt>
      <trkpt lat="45.91551" lon="2.98722">
        <ele>754.29</ele>
        <time>2021-08-14T12:02:09Z</time>
      </trkpt>
      <trkpt lat="45.91551" lon="2.9872">
        <ele>754.29</ele>
        <time>2021-08-14T12:02:10Z</time>
      </trkpt>
      <trkpt lat="45.9155" lon="2.98718">
        <ele>754.29</ele>
        <time>2021-08-14T12:02:11Z</time>
      </trkpt>
      <trkpt lat="45.9155" lon="2.98716">
        <ele>754.29</ele>
        <time>2021-08-14T12:02:12Z</time>
      </trkpt>
      <trkpt lat="45.9155" lon="2.98714">
        <ele>754.29</ele>
        <time>2021-08-14T12:02:13Z</time>
      </trkpt>
      <trkpt lat="45.9155" lon="2.98712">
        <ele>754.29</ele>
        <time>2021-08-14T12:02:14Z</time>
      </trkpt>
      <trkpt lat="45.9155" lon="2.9871">
        <ele>754.29</ele>
        <time>2021-08-14T12:02:15Z</time>
      </trkpt>
      <trkpt lat="45.91549" lon="2.98707">
        <ele>754.29</ele>
        <time>2021-08-14T12:02:16Z</time>
      </trkpt>
      <trkpt lat="45.91549" lon="2.98705">
        <ele>754.29</ele>
        <time>2021-08-14T12:02:17Z</time>
      </trkpt>
      <trkpt lat="45.91549" lon="2.98702">
        <ele>754.29</ele>
        <time>2021-08-14T12:02:18Z</time>
      </trkpt>
      <trkpt lat="45.91549" lon="2.98699">
        <ele>754.77</ele>
        <time>2021-08-14T12:02:19Z</time>
      </trkpt>
      <trkpt lat="45.91547" lon="2.98683">
        <ele>755.25</ele>
        <time>2021-08-14T12:02:27Z</time>
      </trkpt>
      <trkpt lat="45.91546" lon="2.98666">
        <ele>756.69</ele>
        <time>2021-08-14T12:02:35Z</time>
      </trkpt>
      <trkpt lat="45.91546" lon="2.98664">
        <ele>756.69</ele>
        <time>2021-08-14T12:02:36Z</time>
      </trkpt>
      <trkpt lat="45.91546" lon="2.98661">
        <ele>756.69</ele>
        <time>2021-08-14T12:02:37Z</time>
      </trkpt>
      <trkpt lat="45.91546" lon="2.98659">
        <ele>756.69</ele>
        <time>2021-08-14T12:02:38Z</time>
      </trkpt>
      <trkpt lat="45.91546" lon="2.98657">
        <ele>756.69</ele>
        <time>2021-08-14T12:02:39Z</time>
      </trkpt>
      <trkpt lat="45.91546" lon="2.98655">
        <ele>756.69</ele>
        <time>2021-08-14T12:02:40Z</time>
      </trkpt>
      <trkpt lat="45.91546" lon="2.98652">
        <ele>757.18</ele>
        <time>2021-08-14T12:02:41Z</time>
      </trkpt>
      <trkpt lat="45.91546" lon="2.98636">
        <ele>758.14</ele>
        <time>2021-08-14T12:02:50Z</time>
      </trkpt>
      <trkpt lat="45.91546" lon="2.9862">
        <ele>759.1</ele>
        <time>2021-08-14T12:02:58Z</time>
      </trkpt>
      <trkpt lat="45.91545" lon="2.98601">
        <ele>760.06</ele>
        <time>2021-08-14T12:03:06Z</time>
      </trkpt>
      <trkpt lat="45.91542" lon="2.98583">
        <ele>760.54</ele>
        <time>2021-08-14T12:03:14Z</time>
      </trkpt>
      <trkpt lat="45.91537" lon="2.98565">
        <ele>761.5</ele>
        <time>2021-08-14T12:03:21Z</time>
      </trkpt>
      <trkpt lat="45.91531" lon="2.98544">
        <ele>762.94</ele>
        <time>2021-08-14T12:03:29Z</time>
      </trkpt>
      <trkpt lat="45.91521" lon="2.98526">
        <ele>763.9</ele>
        <time>2021-08-14T12:03:38Z</time>
      </trkpt>
      <trkpt lat="45.91513" lon="2.98514">
        <ele>764.87</ele>
        <time>2021-08-14T12:03:46Z</time>
      </trkpt>
      <trkpt lat="45.91504" lon="2.98497">
        <ele>765.83</ele>
        <time>2021-08-14T12:03:56Z</time>
      </trkpt>
      <trkpt lat="45.91495" lon="2.98484">
        <ele>767.27</ele>
        <time>2021-08-14T12:04:05Z</time>
      </trkpt>
      <trkpt lat="45.91488" lon="2.98469">
        <ele>768.23</ele>
        <time>2021-08-14T12:04:14Z</time>
      </trkpt>
      <trkpt lat="45.91481" lon="2.98451">
        <ele>769.19</ele>
        <time>2021-08-14T12:04:24Z</time>
      </trkpt>
      <trkpt lat="45.9148" lon="2.98449">
        <ele>770.15</ele>
        <time>2021-08-14T12:04:25Z</time>
      </trkpt>
      <trkpt lat="45.91479" lon="2.98447">
        <ele>770.15</ele>
        <time>2021-08-14T12:04:26Z</time>
      </trkpt>
      <trkpt lat="45.91479" lon="2.98446">
        <ele>770.15</ele>
        <time>2021-08-14T12:04:27Z</time>
      </trkpt>
      <trkpt lat="45.91479" lon="2.98444">
        <ele>770.15</ele>
        <time>2021-08-14T12:04:28Z</time>
      </trkpt>
      <trkpt lat="45.91478" lon="2.98443">
        <ele>770.63</ele>
        <time>2021-08-14T12:04:29Z</time>
      </trkpt>
      <trkpt lat="45.91477" lon="2.98441">
        <ele>770.63</ele>
        <time>2021-08-14T12:04:30Z</time>
      </trkpt>
      <trkpt lat="45.91476" lon="2.9844">
        <ele>770.63</ele>
        <time>2021-08-14T12:04:31Z</time>
      </trkpt>
      <trkpt lat="45.91473" lon="2.98432">
        <ele>771.11</ele>
        <time>2021-08-14T12:04:36Z</time>
      </trkpt>
      <trkpt lat="45.91472" lon="2.98431">
        <ele>771.6</ele>
        <time>2021-08-14T12:04:37Z</time>
      </trkpt>
      <trkpt lat="45.91472" lon="2.98429">
        <ele>771.6</ele>
        <time>2021-08-14T12:04:38Z</time>
      </trkpt>
      <trkpt lat="45.91464" lon="2.98413">
        <ele>773.04</ele>
        <time>2021-08-14T12:04:49Z</time>
      </trkpt>
      <trkpt lat="45.91455" lon="2.98406">
        <ele>774.48</ele>
        <time>2021-08-14T12:04:57Z</time>
      </trkpt>
      <trkpt lat="45.9145" lon="2.98403">
        <ele>774.96</ele>
        <time>2021-08-14T12:05:01Z</time>
      </trkpt>
      <trkpt lat="45.91435" lon="2.98399">
        <ele>775.92</ele>
        <time>2021-08-14T12:05:10Z</time>
      </trkpt>
      <trkpt lat="45.91418" lon="2.98392">
        <ele>776.88</ele>
        <time>2021-08-14T12:05:19Z</time>
      </trkpt>
      <trkpt lat="45.91406" lon="2.98385">
        <ele>777.36</ele>
        <time>2021-08-14T12:05:26Z</time>
      </trkpt>
      <trkpt lat="45.91396" lon="2.9838">
        <ele>777.36</ele>
        <time>2021-08-14T12:05:31Z</time>
      </trkpt>
      <trkpt lat="45.91394" lon="2.98379">
        <ele>777.36</ele>
        <time>2021-08-14T12:05:32Z</time>
      </trkpt>
      <trkpt lat="45.9138" lon="2.98369">
        <ele>778.81</ele>
        <time>2021-08-14T12:05:40Z</time>
      </trkpt>
      <trkpt lat="45.9137" lon="2.98357">
        <ele>779.29</ele>
        <time>2021-08-14T12:05:49Z</time>
      </trkpt>
      <trkpt lat="45.91365" lon="2.98351">
        <ele>779.29</ele>
        <time>2021-08-14T12:06:01Z</time>
      </trkpt>
      <trkpt lat="45.91348" lon="2.98332">
        <ele>779.29</ele>
        <time>2021-08-14T12:06:08Z</time>
      </trkpt>
      <trkpt lat="45.91326" lon="2.98308">
        <ele>779.29</ele>
        <time>2021-08-14T12:06:17Z</time>
      </trkpt>
      <trkpt lat="45.91302" lon="2.98286">
        <ele>776.4</ele>
        <time>2021-08-14T12:06:23Z</time>
      </trkpt>
      <trkpt lat="45.91271" lon="2.98266">
        <ele>774.48</ele>
        <time>2021-08-14T12:06:28Z</time>
      </trkpt>
      <trkpt lat="45.91264" lon="2.98263">
        <ele>774</ele>
        <time>2021-08-14T12:06:29Z</time>
      </trkpt>
      <trkpt lat="45.91257" lon="2.98262">
        <ele>773.52</ele>
        <time>2021-08-14T12:06:30Z</time>
      </trkpt>
      <trkpt lat="45.9125" lon="2.98261">
        <ele>773.04</ele>
        <time>2021-08-14T12:06:31Z</time>
      </trkpt>
      <trkpt lat="45.912" lon="2.98254">
        <ele>772.56</ele>
        <time>2021-08-14T12:06:38Z</time>
      </trkpt>
      <trkpt lat="45.91169" lon="2.98245">
        <ele>772.56</ele>
        <time>2021-08-14T12:06:44Z</time>
      </trkpt>
      <trkpt lat="45.91125" lon="2.98232">
        <ele>771.6</ele>
        <time>2021-08-14T12:06:54Z</time>
      </trkpt>
      <trkpt lat="45.91109" lon="2.98223">
        <ele>770.63</ele>
        <time>2021-08-14T12:06:57Z</time>
      </trkpt>
      <trkpt lat="45.91087" lon="2.98208">
        <ele>770.63</ele>
        <time>2021-08-14T12:07:01Z</time>
      </trkpt>
      <trkpt lat="45.91082" lon="2.98206">
        <ele>770.15</ele>
        <time>2021-08-14T12:07:02Z</time>
      </trkpt>
      <trkpt lat="45.91059" lon="2.98201">
        <ele>769.67</ele>
        <time>2021-08-14T12:07:06Z</time>
      </trkpt>
      <trkpt lat="45.91039" lon="2.982">
        <ele>769.67</ele>
        <time>2021-08-14T12:07:10Z</time>
      </trkpt>
      <trkpt lat="45.91035" lon="2.98201">
        <ele>769.67</ele>
        <time>2021-08-14T12:07:11Z</time>
      </trkpt>
      <trkpt lat="45.9102" lon="2.98201">
        <ele>769.67</ele>
        <time>2021-08-14T12:07:14Z</time>
      </trkpt>
      <trkpt lat="45.91013" lon="2.98201">
        <ele>771.11</ele>
        <time>2021-08-14T12:07:16Z</time>
      </trkpt>
      <trkpt lat="45.91008" lon="2.98201">
        <ele>771.11</ele>
        <time>2021-08-14T12:07:17Z</time>
      </trkpt>
      <trkpt lat="45.91004" lon="2.98199">
        <ele>771.11</ele>
        <time>2021-08-14T12:07:18Z</time>
      </trkpt>
      <trkpt lat="45.91001" lon="2.98197">
        <ele>771.11</ele>
        <time>2021-08-14T12:07:19Z</time>
      </trkpt>
      <trkpt lat="45.90998" lon="2.98195">
        <ele>771.6</ele>
        <time>2021-08-14T12:07:20Z</time>
      </trkpt>
      <trkpt lat="45.90994" lon="2.98194">
        <ele>771.6</ele>
        <time>2021-08-14T12:07:21Z</time>
      </trkpt>
      <trkpt lat="45.90975" lon="2.98182">
        <ele>772.56</ele>
        <time>2021-08-14T12:07:28Z</time>
      </trkpt>
      <trkpt lat="45.90962" lon="2.98171">
        <ele>773.04</ele>
        <time>2021-08-14T12:07:34Z</time>
      </trkpt>
      <trkpt lat="45.90942" lon="2.98158">
        <ele>773.52</ele>
        <time>2021-08-14T12:07:42Z</time>
      </trkpt>
      <trkpt lat="45.90919" lon="2.98148">
        <ele>774</ele>
        <time>2021-08-14T12:07:51Z</time>
      </trkpt>
      <trkpt lat="45.90895" lon="2.98139">
        <ele>774.48</ele>
        <time>2021-08-14T12:08:00Z</time>
      </trkpt>
      <trkpt lat="45.90868" lon="2.98129">
        <ele>775.44</ele>
        <time>2021-08-14T12:08:10Z</time>
      </trkpt>
      <trkpt lat="45.90862" lon="2.98128">
        <ele>775.44</ele>
        <time>2021-08-14T12:08:12Z</time>
      </trkpt>
      <trkpt lat="45.9086" lon="2.98128">
        <ele>775.44</ele>
        <time>2021-08-14T12:08:13Z</time>
      </trkpt>
      <trkpt lat="45.90857" lon="2.98127">
        <ele>775.44</ele>
        <time>2021-08-14T12:08:14Z</time>
      </trkpt>
      <trkpt lat="45.90854" lon="2.98126">
        <ele>775.44</ele>
        <time>2021-08-14T12:08:15Z</time>
      </trkpt>
      <trkpt lat="45.90851" lon="2.98124">
        <ele>775.92</ele>
        <time>2021-08-14T12:08:16Z</time>
      </trkpt>
      <trkpt lat="45.90849" lon="2.98123">
        <ele>775.92</ele>
        <time>2021-08-14T12:08:17Z</time>
      </trkpt>
      <trkpt lat="45.90829" lon="2.98112">
        <ele>775.92</ele>
        <time>2021-08-14T12:08:25Z</time>
      </trkpt>
      <trkpt lat="45.90818" lon="2.98107">
        <ele>776.88</ele>
        <time>2021-08-14T12:08:32Z</time>
      </trkpt>
      <trkpt lat="45.90817" lon="2.98106">
        <ele>776.88</ele>
        <time>2021-08-14T12:08:33Z</time>
      </trkpt>
      <trkpt lat="45.90815" lon="2.98105">
        <ele>776.88</ele>
        <time>2021-08-14T12:08:34Z</time>
      </trkpt>
      <trkpt lat="45.90798" lon="2.98109">
        <ele>776.88</ele>
        <time>2021-08-14T12:08:41Z</time>
      </trkpt>
      <trkpt lat="45.90773" lon="2.98122">
        <ele>776.4</ele>
        <time>2021-08-14T12:08:50Z</time>
      </trkpt>
      <trkpt lat="45.90754" lon="2.9813">
        <ele>777.36</ele>
        <time>2021-08-14T12:08:57Z</time>
      </trkpt>
      <trkpt lat="45.90732" lon="2.98132">
        <ele>777.84</ele>
        <time>2021-08-14T12:09:05Z</time>
      </trkpt>
      <trkpt lat="45.9071" lon="2.98132">
        <ele>778.32</ele>
        <time>2021-08-14T12:09:13Z</time>
      </trkpt>
      <trkpt lat="45.90694" lon="2.98133">
        <ele>778.81</ele>
        <time>2021-08-14T12:09:19Z</time>
      </trkpt>
      <trkpt lat="45.90691" lon="2.98133">
        <ele>778.81</ele>
        <time>2021-08-14T12:09:20Z</time>
      </trkpt>
      <trkpt lat="45.90688" lon="2.98133">
        <ele>778.81</ele>
        <time>2021-08-14T12:09:21Z</time>
      </trkpt>
      <trkpt lat="45.90685" lon="2.98133">
        <ele>778.81</ele>
        <time>2021-08-14T12:09:22Z</time>
      </trkpt>
      <trkpt lat="45.90682" lon="2.98134">
        <ele>778.81</ele>
        <time>2021-08-14T12:09:23Z</time>
      </trkpt>
      <trkpt lat="45.9066" lon="2.98134">
        <ele>779.29</ele>
        <time>2021-08-14T12:09:30Z</time>
      </trkpt>
      <trkpt lat="45.90639" lon="2.98136">
        <ele>779.77</ele>
        <time>2021-08-14T12:09:37Z</time>
      </trkpt>
      <trkpt lat="45.90611" lon="2.9814">
        <ele>780.25</ele>
        <time>2021-08-14T12:09:46Z</time>
      </trkpt>
      <trkpt lat="45.90585" lon="2.98143">
        <ele>781.21</ele>
        <time>2021-08-14T12:09:55Z</time>
      </trkpt>
      <trkpt lat="45.90557" lon="2.98146">
        <ele>781.69</ele>
        <time>2021-08-14T12:10:04Z</time>
      </trkpt>
      <trkpt lat="45.90529" lon="2.98147">
        <ele>782.17</ele>
        <time>2021-08-14T12:10:13Z</time>
      </trkpt>
      <trkpt lat="45.90495" lon="2.98143">
        <ele>782.65</ele>
        <time>2021-08-14T12:10:24Z</time>
      </trkpt>
      <trkpt lat="45.90466" lon="2.98138">
        <ele>782.65</ele>
        <time>2021-08-14T12:10:33Z</time>
      </trkpt>
      <trkpt lat="45.90436" lon="2.98126">
        <ele>783.13</ele>
        <time>2021-08-14T12:10:43Z</time>
      </trkpt>
      <trkpt lat="45.90411" lon="2.98112">
        <ele>784.09</ele>
        <time>2021-08-14T12:10:52Z</time>
      </trkpt>
      <trkpt lat="45.90395" lon="2.98099">
        <ele>784.09</ele>
        <time>2021-08-14T12:10:58Z</time>
      </trkpt>
      <trkpt lat="45.9037" lon="2.98076">
        <ele>784.57</ele>
        <time>2021-08-14T12:11:07Z</time>
      </trkpt>
      <trkpt lat="45.90343" lon="2.98043">
        <ele>785.05</ele>
        <time>2021-08-14T12:11:18Z</time>
      </trkpt>
      <trkpt lat="45.9032" lon="2.98012">
        <ele>786.02</ele>
        <time>2021-08-14T12:11:28Z</time>
      </trkpt>
      <trkpt lat="45.90299" lon="2.9798">
        <ele>786.98</ele>
        <time>2021-08-14T12:11:38Z</time>
      </trkpt>
      <trkpt lat="45.9028" lon="2.97945">
        <ele>787.94</ele>
        <time>2021-08-14T12:11:48Z</time>
      </trkpt>
      <trkpt lat="45.90264" lon="2.97918">
        <ele>788.9</ele>
        <time>2021-08-14T12:11:57Z</time>
      </trkpt>
      <trkpt lat="45.90251" lon="2.97897">
        <ele>789.86</ele>
        <time>2021-08-14T12:12:04Z</time>
      </trkpt>
      <trkpt lat="45.90237" lon="2.97879">
        <ele>790.34</ele>
        <time>2021-08-14T12:12:10Z</time>
      </trkpt>
      <trkpt lat="45.90214" lon="2.97849">
        <ele>790.34</ele>
        <time>2021-08-14T12:12:18Z</time>
      </trkpt>
      <trkpt lat="45.90189" lon="2.97814">
        <ele>788.42</ele>
        <time>2021-08-14T12:12:26Z</time>
      </trkpt>
      <trkpt lat="45.90172" lon="2.97794">
        <ele>787.94</ele>
        <time>2021-08-14T12:12:31Z</time>
      </trkpt>
      <trkpt lat="45.90169" lon="2.9779">
        <ele>787.94</ele>
        <time>2021-08-14T12:12:32Z</time>
      </trkpt>
      <trkpt lat="45.90149" lon="2.9776">
        <ele>786.5</ele>
        <time>2021-08-14T12:12:40Z</time>
      </trkpt>
      <trkpt lat="45.90138" lon="2.97761">
        <ele>785.53</ele>
        <time>2021-08-14T12:12:43Z</time>
      </trkpt>
      <trkpt lat="45.90135" lon="2.97766">
        <ele>785.05</ele>
        <time>2021-08-14T12:12:44Z</time>
      </trkpt>
      <trkpt lat="45.90134" lon="2.97772">
        <ele>785.05</ele>
        <time>2021-08-14T12:12:45Z</time>
      </trkpt>
      <trkpt lat="45.9012" lon="2.97828">
        <ele>782.17</ele>
        <time>2021-08-14T12:12:53Z</time>
      </trkpt>
      <trkpt lat="45.90113" lon="2.97858">
        <ele>781.21</ele>
        <time>2021-08-14T12:12:57Z</time>
      </trkpt>
      <trkpt lat="45.90111" lon="2.97866">
        <ele>781.21</ele>
        <time>2021-08-14T12:12:58Z</time>
      </trkpt>
      <trkpt lat="45.90104" lon="2.97897">
        <ele>778.81</ele>
        <time>2021-08-14T12:13:02Z</time>
      </trkpt>
      <trkpt lat="45.90098" lon="2.97936">
        <ele>776.88</ele>
        <time>2021-08-14T12:13:06Z</time>
      </trkpt>
      <trkpt lat="45.9009" lon="2.97977">
        <ele>774.96</ele>
        <time>2021-08-14T12:13:10Z</time>
      </trkpt>
      <trkpt lat="45.90075" lon="2.9803">
        <ele>774.96</ele>
        <time>2021-08-14T12:13:16Z</time>
      </trkpt>
      <trkpt lat="45.90068" lon="2.98049">
        <ele>776.88</ele>
        <time>2021-08-14T12:13:19Z</time>
      </trkpt>
      <trkpt lat="45.90058" lon="2.98068">
        <ele>778.81</ele>
        <time>2021-08-14T12:13:24Z</time>
      </trkpt>
      <trkpt lat="45.90048" lon="2.98084">
        <ele>780.25</ele>
        <time>2021-08-14T12:13:31Z</time>
      </trkpt>
      <trkpt lat="45.90039" lon="2.98098">
        <ele>781.21</ele>
        <time>2021-08-14T12:13:38Z</time>
      </trkpt>
      <trkpt lat="45.90027" lon="2.98128">
        <ele>782.17</ele>
        <time>2021-08-14T12:13:51Z</time>
      </trkpt>
      <trkpt lat="45.90019" lon="2.98156">
        <ele>782.65</ele>
        <time>2021-08-14T12:14:01Z</time>
      </trkpt>
      <trkpt lat="45.90012" lon="2.9818">
        <ele>784.09</ele>
        <time>2021-08-14T12:14:10Z</time>
      </trkpt>
      <trkpt lat="45.89998" lon="2.98198">
        <ele>784.57</ele>
        <time>2021-08-14T12:14:18Z</time>
      </trkpt>
      <trkpt lat="45.89976" lon="2.98219">
        <ele>785.05</ele>
        <time>2021-08-14T12:14:28Z</time>
      </trkpt>
      <trkpt lat="45.89957" lon="2.98231">
        <ele>785.53</ele>
        <time>2021-08-14T12:14:35Z</time>
      </trkpt>
      <trkpt lat="45.89931" lon="2.98245">
        <ele>785.53</ele>
        <time>2021-08-14T12:14:44Z</time>
      </trkpt>
      <trkpt lat="45.89908" lon="2.98255">
        <ele>786.02</ele>
        <time>2021-08-14T12:14:51Z</time>
      </trkpt>
      <trkpt lat="45.89881" lon="2.98267">
        <ele>786.5</ele>
        <time>2021-08-14T12:15:00Z</time>
      </trkpt>
      <trkpt lat="45.89855" lon="2.98286">
        <ele>786.5</ele>
        <time>2021-08-14T12:15:09Z</time>
      </trkpt>
      <trkpt lat="45.89837" lon="2.98309">
        <ele>786.5</ele>
        <time>2021-08-14T12:15:15Z</time>
      </trkpt>
      <trkpt lat="45.89835" lon="2.98314">
        <ele>786.5</ele>
        <time>2021-08-14T12:15:16Z</time>
      </trkpt>
      <trkpt lat="45.89821" lon="2.98332">
        <ele>786.5</ele>
        <time>2021-08-14T12:15:20Z</time>
      </trkpt>
      <trkpt lat="45.89818" lon="2.98336">
        <ele>786.5</ele>
        <time>2021-08-14T12:15:21Z</time>
      </trkpt>
      <trkpt lat="45.89785" lon="2.98376">
        <ele>785.05</ele>
        <time>2021-08-14T12:15:30Z</time>
      </trkpt>
      <trkpt lat="45.89756" lon="2.98409">
        <ele>785.05</ele>
        <time>2021-08-14T12:15:38Z</time>
      </trkpt>
      <trkpt lat="45.8972" lon="2.98442">
        <ele>785.05</ele>
        <time>2021-08-14T12:15:48Z</time>
      </trkpt>
      <trkpt lat="45.897" lon="2.98471">
        <ele>786.02</ele>
        <time>2021-08-14T12:15:55Z</time>
      </trkpt>
      <trkpt lat="45.89699" lon="2.98476">
        <ele>786.02</ele>
        <time>2021-08-14T12:15:56Z</time>
      </trkpt>
      <trkpt lat="45.89684" lon="2.98519">
        <ele>787.46</ele>
        <time>2021-08-14T12:16:05Z</time>
      </trkpt>
      <trkpt lat="45.89667" lon="2.98546">
        <ele>787.46</ele>
        <time>2021-08-14T12:16:12Z</time>
      </trkpt>
      <trkpt lat="45.89644" lon="2.98575">
        <ele>787.46</ele>
        <time>2021-08-14T12:16:20Z</time>
      </trkpt>
      <trkpt lat="45.89627" lon="2.98595">
        <ele>787.94</ele>
        <time>2021-08-14T12:16:26Z</time>
      </trkpt>
      <trkpt lat="45.89605" lon="2.9862">
        <ele>788.9</ele>
        <time>2021-08-14T12:16:34Z</time>
      </trkpt>
      <trkpt lat="45.89585" lon="2.98641">
        <ele>788.9</ele>
        <time>2021-08-14T12:16:41Z</time>
      </trkpt>
      <trkpt lat="45.89561" lon="2.98667">
        <ele>788.9</ele>
        <time>2021-08-14T12:16:49Z</time>
      </trkpt>
      <trkpt lat="45.89547" lon="2.98667">
        <ele>788.9</ele>
        <time>2021-08-14T12:16:53Z</time>
      </trkpt>
      <trkpt lat="45.89522" lon="2.98645">
        <ele>788.9</ele>
        <time>2021-08-14T12:17:00Z</time>
      </trkpt>
      <trkpt lat="45.89506" lon="2.98632">
        <ele>788.9</ele>
        <time>2021-08-14T12:17:04Z</time>
      </trkpt>
      <trkpt lat="45.89503" lon="2.98629">
        <ele>788.9</ele>
        <time>2021-08-14T12:17:05Z</time>
      </trkpt>
      <trkpt lat="45.89499" lon="2.98625">
        <ele>788.9</ele>
        <time>2021-08-14T12:17:06Z</time>
      </trkpt>
      <trkpt lat="45.89471" lon="2.98612">
        <ele>788.9</ele>
        <time>2021-08-14T12:17:13Z</time>
      </trkpt>
      <trkpt lat="45.89447" lon="2.98612">
        <ele>788.9</ele>
        <time>2021-08-14T12:17:18Z</time>
      </trkpt>
      <trkpt lat="45.894" lon="2.98617">
        <ele>788.9</ele>
        <time>2021-08-14T12:17:27Z</time>
      </trkpt>
      <trkpt lat="45.8937" lon="2.98618">
        <ele>787.46</ele>
        <time>2021-08-14T12:17:33Z</time>
      </trkpt>
      <trkpt lat="45.89319" lon="2.98622">
        <ele>786.02</ele>
        <time>2021-08-14T12:17:42Z</time>
      </trkpt>
      <trkpt lat="45.89258" lon="2.98626">
        <ele>783.61</ele>
        <time>2021-08-14T12:17:51Z</time>
      </trkpt>
      <trkpt lat="45.89191" lon="2.98631">
        <ele>781.21</ele>
        <time>2021-08-14T12:18:00Z</time>
      </trkpt>
      <trkpt lat="45.89135" lon="2.98626">
        <ele>778.81</ele>
        <time>2021-08-14T12:18:07Z</time>
      </trkpt>
      <trkpt lat="45.89096" lon="2.98613">
        <ele>778.32</ele>
        <time>2021-08-14T12:18:12Z</time>
      </trkpt>
      <trkpt lat="45.89088" lon="2.98609">
        <ele>777.84</ele>
        <time>2021-08-14T12:18:13Z</time>
      </trkpt>
      <trkpt lat="45.89018" lon="2.9858">
        <ele>776.4</ele>
        <time>2021-08-14T12:18:22Z</time>
      </trkpt>
      <trkpt lat="45.88964" lon="2.98551">
        <ele>774.96</ele>
        <time>2021-08-14T12:18:29Z</time>
      </trkpt>
      <trkpt lat="45.8891" lon="2.98505">
        <ele>773.04</ele>
        <time>2021-08-14T12:18:37Z</time>
      </trkpt>
      <trkpt lat="45.88897" lon="2.98495">
        <ele>773.52</ele>
        <time>2021-08-14T12:18:39Z</time>
      </trkpt>
      <trkpt lat="45.88889" lon="2.98491">
        <ele>772.56</ele>
        <time>2021-08-14T12:18:40Z</time>
      </trkpt>
      <trkpt lat="45.88882" lon="2.98489">
        <ele>772.56</ele>
        <time>2021-08-14T12:18:41Z</time>
      </trkpt>
      <trkpt lat="45.88829" lon="2.98471">
        <ele>770.63</ele>
        <time>2021-08-14T12:18:48Z</time>
      </trkpt>
      <trkpt lat="45.88786" lon="2.98458">
        <ele>770.63</ele>
        <time>2021-08-14T12:18:55Z</time>
      </trkpt>
      <trkpt lat="45.88771" lon="2.98454">
        <ele>770.63</ele>
        <time>2021-08-14T12:18:58Z</time>
      </trkpt>
      <trkpt lat="45.88766" lon="2.98453">
        <ele>770.63</ele>
        <time>2021-08-14T12:18:59Z</time>
      </trkpt>
      <trkpt lat="45.88749" lon="2.98446">
        <ele>772.08</ele>
        <time>2021-08-14T12:19:05Z</time>
      </trkpt>
      <trkpt lat="45.88738" lon="2.98443">
        <ele>773.04</ele>
        <time>2021-08-14T12:19:11Z</time>
      </trkpt>
      <trkpt lat="45.88726" lon="2.9844">
        <ele>773.52</ele>
        <time>2021-08-14T12:19:18Z</time>
      </trkpt>
      <trkpt lat="45.88713" lon="2.98433">
        <ele>774.48</ele>
        <time>2021-08-14T12:19:24Z</time>
      </trkpt>
      <trkpt lat="45.88697" lon="2.98412">
        <ele>775.92</ele>
        <time>2021-08-14T12:19:33Z</time>
      </trkpt>
      <trkpt lat="45.88682" lon="2.984">
        <ele>776.4</ele>
        <time>2021-08-14T12:19:40Z</time>
      </trkpt>
      <trkpt lat="45.88663" lon="2.98385">
        <ele>776.88</ele>
        <time>2021-08-14T12:19:48Z</time>
      </trkpt>
      <trkpt lat="45.88644" lon="2.98373">
        <ele>777.84</ele>
        <time>2021-08-14T12:19:56Z</time>
      </trkpt>
      <trkpt lat="45.88641" lon="2.9837">
        <ele>777.84</ele>
        <time>2021-08-14T12:19:58Z</time>
      </trkpt>
      <trkpt lat="45.88641" lon="2.98367">
        <ele>777.84</ele>
        <time>2021-08-14T12:19:59Z</time>
      </trkpt>
      <trkpt lat="45.88641" lon="2.98364">
        <ele>777.84</ele>
        <time>2021-08-14T12:20:00Z</time>
      </trkpt>
      <trkpt lat="45.88641" lon="2.98362">
        <ele>777.84</ele>
        <time>2021-08-14T12:20:01Z</time>
      </trkpt>
      <trkpt lat="45.88641" lon="2.98361">
        <ele>778.32</ele>
        <time>2021-08-14T12:20:08Z</time>
      </trkpt>
      <trkpt lat="45.88639" lon="2.98362">
        <ele>778.32</ele>
        <time>2021-08-14T12:20:20Z</time>
      </trkpt>
      <trkpt lat="45.88636" lon="2.9836">
        <ele>778.32</ele>
        <time>2021-08-14T12:20:23Z</time>
      </trkpt>
      <trkpt lat="45.88635" lon="2.98357">
        <ele>778.32</ele>
        <time>2021-08-14T12:20:24Z</time>
      </trkpt>
      <trkpt lat="45.88635" lon="2.98353">
        <ele>778.32</ele>
        <time>2021-08-14T12:20:25Z</time>
      </trkpt>
      <trkpt lat="45.88636" lon="2.9835">
        <ele>778.32</ele>
        <time>2021-08-14T12:20:26Z</time>
      </trkpt>
      <trkpt lat="45.88636" lon="2.98347">
        <ele>778.32</ele>
        <time>2021-08-14T12:20:27Z</time>
      </trkpt>
      <trkpt lat="45.88637" lon="2.98343">
        <ele>778.32</ele>
        <time>2021-08-14T12:20:28Z</time>
      </trkpt>
      <trkpt lat="45.88637" lon="2.98339">
        <ele>778.32</ele>
        <time>2021-08-14T12:20:29Z</time>
      </trkpt>
      <trkpt lat="45.88647" lon="2.98303">
        <ele>778.81</ele>
        <time>2021-08-14T12:20:38Z</time>
      </trkpt>
      <trkpt lat="45.88651" lon="2.98291">
        <ele>778.81</ele>
        <time>2021-08-14T12:20:42Z</time>
      </trkpt>
      <trkpt lat="45.88652" lon="2.98288">
        <ele>778.81</ele>
        <time>2021-08-14T12:20:43Z</time>
      </trkpt>
      <trkpt lat="45.88652" lon="2.98286">
        <ele>779.29</ele>
        <time>2021-08-14T12:20:44Z</time>
      </trkpt>
      <trkpt lat="45.88652" lon="2.98284">
        <ele>779.29</ele>
        <time>2021-08-14T12:20:45Z</time>
      </trkpt>
      <trkpt lat="45.88651" lon="2.98284">
        <ele>779.29</ele>
        <time>2021-08-14T12:20:46Z</time>
      </trkpt>
      <trkpt lat="45.8865" lon="2.98285">
        <ele>779.29</ele>
        <time>2021-08-14T12:20:47Z</time>
      </trkpt>
      <trkpt lat="45.88649" lon="2.98287">
        <ele>779.29</ele>
        <time>2021-08-14T12:20:48Z</time>
      </trkpt>
      <trkpt lat="45.88647" lon="2.98288">
        <ele>779.29</ele>
        <time>2021-08-14T12:20:49Z</time>
      </trkpt>
      <trkpt lat="45.88645" lon="2.9829">
        <ele>779.29</ele>
        <time>2021-08-14T12:20:50Z</time>
      </trkpt>
      <trkpt lat="45.88644" lon="2.98291">
        <ele>779.29</ele>
        <time>2021-08-14T12:20:51Z</time>
      </trkpt>
      <trkpt lat="45.88643" lon="2.98293">
        <ele>779.29</ele>
        <time>2021-08-14T12:20:52Z</time>
      </trkpt>
      <trkpt lat="45.88642" lon="2.98294">
        <ele>779.29</ele>
        <time>2021-08-14T12:20:57Z</time>
      </trkpt>
      <trkpt lat="45.88645" lon="2.98294">
        <ele>779.29</ele>
        <time>2021-08-14T12:21:17Z</time>
      </trkpt>
      <trkpt lat="45.88644" lon="2.98295">
        <ele>779.29</ele>
        <time>2021-08-14T12:21:31Z</time>
      </trkpt>
      <trkpt lat="45.88644" lon="2.98294">
        <ele>779.29</ele>
        <time>2021-08-14T12:21:49Z</time>
      </trkpt>
      <trkpt lat="45.88648" lon="2.98292">
        <ele>779.29</ele>
        <time>2021-08-14T12:22:13Z</time>
      </trkpt>
      <trkpt lat="45.88649" lon="2.98292">
        <ele>779.77</ele>
        <time>2021-08-14T12:22:35Z</time>
      </trkpt>
      <trkpt lat="45.88653" lon="2.98292">
        <ele>780.25</ele>
        <time>2021-08-14T12:22:56Z</time>
      </trkpt>
      <trkpt lat="45.88657" lon="2.98291">
        <ele>780.25</ele>
        <time>2021-08-14T12:23:18Z</time>
      </trkpt>
      <trkpt lat="45.88658" lon="2.98289">
        <ele>780.73</ele>
        <time>2021-08-14T12:23:33Z</time>
      </trkpt>
      <trkpt lat="45.8866" lon="2.98291">
        <ele>780.73</ele>
        <time>2021-08-14T12:23:58Z</time>
      </trkpt>
      <trkpt lat="45.88662" lon="2.98293">
        <ele>781.21</ele>
        <time>2021-08-14T12:24:27Z</time>
      </trkpt>
      <trkpt lat="45.88661" lon="2.98292">
        <ele>781.69</ele>
        <time>2021-08-14T12:24:50Z</time>
      </trkpt>
      <trkpt lat="45.88662" lon="2.98292">
        <ele>781.69</ele>
        <time>2021-08-14T12:25:17Z</time>
      </trkpt>
      <trkpt lat="45.88663" lon="2.98291">
        <ele>782.17</ele>
        <time>2021-08-14T12:25:38Z</time>
      </trkpt>
      <trkpt lat="45.88662" lon="2.98293">
        <ele>782.17</ele>
        <time>2021-08-14T12:25:42Z</time>
      </trkpt>
      <trkpt lat="45.88662" lon="2.98293">
        <ele>782.17</ele>
        <time>2021-08-14T12:25:43Z</time>
      </trkpt>
      <trkpt lat="45.88662" lon="2.98295">
        <ele>782.17</ele>
        <time>2021-08-14T12:25:44Z</time>
      </trkpt>
      <trkpt lat="45.88662" lon="2.98298">
        <ele>782.17</ele>
        <time>2021-08-14T12:25:45Z</time>
      </trkpt>
      <trkpt lat="45.88661" lon="2.98301">
        <ele>782.17</ele>
        <time>2021-08-14T12:25:46Z</time>
      </trkpt>
      <trkpt lat="45.8866" lon="2.98305">
        <ele>782.17</ele>
        <time>2021-08-14T12:25:47Z</time>
      </trkpt>
      <trkpt lat="45.88649" lon="2.98336">
        <ele>782.17</ele>
        <time>2021-08-14T12:25:54Z</time>
      </trkpt>
      <trkpt lat="45.88636" lon="2.98365">
        <ele>782.17</ele>
        <time>2021-08-14T12:26:00Z</time>
      </trkpt>
      <trkpt lat="45.88638" lon="2.98369">
        <ele>782.17</ele>
        <time>2021-08-14T12:26:01Z</time>
      </trkpt>
      <trkpt lat="45.88641" lon="2.98372">
        <ele>781.21</ele>
        <time>2021-08-14T12:26:02Z</time>
      </trkpt>
      <trkpt lat="45.88643" lon="2.98374">
        <ele>781.21</ele>
        <time>2021-08-14T12:26:03Z</time>
      </trkpt>
      <trkpt lat="45.88658" lon="2.98383">
        <ele>780.73</ele>
        <time>2021-08-14T12:26:07Z</time>
      </trkpt>
      <trkpt lat="45.88663" lon="2.98385">
        <ele>780.73</ele>
        <time>2021-08-14T12:26:08Z</time>
      </trkpt>
      <trkpt lat="45.88694" lon="2.98408">
        <ele>779.29</ele>
        <time>2021-08-14T12:26:15Z</time>
      </trkpt>
      <trkpt lat="45.88699" lon="2.98413">
        <ele>779.29</ele>
        <time>2021-08-14T12:26:16Z</time>
      </trkpt>
      <trkpt lat="45.88713" lon="2.98429">
        <ele>778.32</ele>
        <time>2021-08-14T12:26:19Z</time>
      </trkpt>
      <trkpt lat="45.88719" lon="2.98434">
        <ele>777.36</ele>
        <time>2021-08-14T12:26:20Z</time>
      </trkpt>
      <trkpt lat="45.88724" lon="2.98437">
        <ele>776.88</ele>
        <time>2021-08-14T12:26:21Z</time>
      </trkpt>
      <trkpt lat="45.8873" lon="2.9844">
        <ele>776.4</ele>
        <time>2021-08-14T12:26:22Z</time>
      </trkpt>
      <trkpt lat="45.88736" lon="2.98442">
        <ele>776.4</ele>
        <time>2021-08-14T12:26:23Z</time>
      </trkpt>
      <trkpt lat="45.88743" lon="2.98443">
        <ele>775.44</ele>
        <time>2021-08-14T12:26:24Z</time>
      </trkpt>
      <trkpt lat="45.88793" lon="2.9846">
        <ele>773.04</ele>
        <time>2021-08-14T12:26:31Z</time>
      </trkpt>
      <trkpt lat="45.8881" lon="2.98466">
        <ele>773.52</ele>
        <time>2021-08-14T12:26:34Z</time>
      </trkpt>
      <trkpt lat="45.88831" lon="2.98471">
        <ele>774.96</ele>
        <time>2021-08-14T12:26:40Z</time>
      </trkpt>
      <trkpt lat="45.88833" lon="2.98472">
        <ele>774.96</ele>
        <time>2021-08-14T12:26:41Z</time>
      </trkpt>
      <trkpt lat="45.88834" lon="2.98471">
        <ele>774.96</ele>
        <time>2021-08-14T12:26:42Z</time>
      </trkpt>
      <trkpt lat="45.88835" lon="2.9847">
        <ele>774.96</ele>
        <time>2021-08-14T12:26:48Z</time>
      </trkpt>
      <trkpt lat="45.88837" lon="2.98469">
        <ele>774.96</ele>
        <time>2021-08-14T12:26:56Z</time>
      </trkpt>
      <trkpt lat="45.88838" lon="2.98469">
        <ele>775.44</ele>
        <time>2021-08-14T12:27:08Z</time>
      </trkpt>
      <trkpt lat="45.88839" lon="2.98469">
        <ele>775.44</ele>
        <time>2021-08-14T12:27:25Z</time>
      </trkpt>
      <trkpt lat="45.88839" lon="2.98468">
        <ele>775.44</ele>
        <time>2021-08-14T12:27:45Z</time>
      </trkpt>
      <trkpt lat="45.88837" lon="2.98468">
        <ele>775.44</ele>
        <time>2021-08-14T12:28:03Z</time>
      </trkpt>
      <trkpt lat="45.88837" lon="2.98469">
        <ele>775.44</ele>
        <time>2021-08-14T12:28:09Z</time>
      </trkpt>
      <trkpt lat="45.88837" lon="2.98471">
        <ele>775.44</ele>
        <time>2021-08-14T12:28:10Z</time>
      </trkpt>
      <trkpt lat="45.88837" lon="2.9847">
        <ele>775.44</ele>
        <time>2021-08-14T12:28:15Z</time>
      </trkpt>
      <trkpt lat="45.88838" lon="2.98469">
        <ele>775.44</ele>
        <time>2021-08-14T12:28:32Z</time>
      </trkpt>
      <trkpt lat="45.88838" lon="2.98469">
        <ele>775.44</ele>
        <time>2021-08-14T12:28:48Z</time>
      </trkpt>
      <trkpt lat="45.88839" lon="2.98468">
        <ele>775.44</ele>
        <time>2021-08-14T12:29:00Z</time>
      </trkpt>
      <trkpt lat="45.88838" lon="2.98468">
        <ele>775.44</ele>
        <time>2021-08-14T12:29:17Z</time>
      </trkpt>
      <trkpt lat="45.88838" lon="2.98467">
        <ele>775.44</ele>
        <time>2021-08-14T12:29:32Z</time>
      </trkpt>
      <trkpt lat="45.88838" lon="2.98467">
        <ele>774.96</ele>
        <time>2021-08-14T12:29:45Z</time>
      </trkpt>
      <trkpt lat="45.88838" lon="2.98468">
        <ele>774.96</ele>
        <time>2021-08-14T12:30:00Z</time>
      </trkpt>
      <trkpt lat="45.88838" lon="2.98469">
        <ele>774.96</ele>
        <time>2021-08-14T12:30:15Z</time>
      </trkpt>
      <trkpt lat="45.88838" lon="2.9847">
        <ele>774.96</ele>
        <time>2021-08-14T12:30:32Z</time>
      </trkpt>
      <trkpt lat="45.88838" lon="2.98469">
        <ele>774.96</ele>
        <time>2021-08-14T12:30:48Z</time>
      </trkpt>
      <trkpt lat="45.88837" lon="2.98467">
        <ele>774.96</ele>
        <time>2021-08-14T12:31:06Z</time>
      </trkpt>
      <trkpt lat="45.88836" lon="2.98466">
        <ele>774.96</ele>
        <time>2021-08-14T12:31:24Z</time>
      </trkpt>
      <trkpt lat="45.88836" lon="2.98466">
        <ele>774.96</ele>
        <time>2021-08-14T12:31:43Z</time>
      </trkpt>
      <trkpt lat="45.88836" lon="2.98468">
        <ele>774.96</ele>
        <time>2021-08-14T12:32:09Z</time>
      </trkpt>
      <trkpt lat="45.88836" lon="2.98469">
        <ele>774.96</ele>
        <time>2021-08-14T12:32:29Z</time>
      </trkpt>
      <trkpt lat="45.88836" lon="2.98468">
        <ele>774.96</ele>
        <time>2021-08-14T12:32:57Z</time>
      </trkpt>
      <trkpt lat="45.88835" lon="2.98465">
        <ele>774.96</ele>
        <time>2021-08-14T12:33:24Z</time>
      </trkpt>
      <trkpt lat="45.88836" lon="2.98466">
        <ele>774.96</ele>
        <time>2021-08-14T12:33:41Z</time>
      </trkpt>
      <trkpt lat="45.88836" lon="2.98465">
        <ele>774.96</ele>
        <time>2021-08-14T12:33:51Z</time>
      </trkpt>
      <trkpt lat="45.88837" lon="2.98467">
        <ele>774.96</ele>
        <time>2021-08-14T12:34:20Z</time>
      </trkpt>
      <trkpt lat="45.88837" lon="2.98468">
        <ele>774.96</ele>
        <time>2021-08-14T12:34:47Z</time>
      </trkpt>
      <trkpt lat="45.88835" lon="2.98467">
        <ele>774.96</ele>
        <time>2021-08-14T12:35:12Z</time>
      </trkpt>
      <trkpt lat="45.88835" lon="2.98466">
        <ele>774.96</ele>
        <time>2021-08-14T12:35:32Z</time>
      </trkpt>
      <trkpt lat="45.88834" lon="2.98466">
        <ele>774.96</ele>
        <time>2021-08-14T12:35:50Z</time>
      </trkpt>
      <trkpt lat="45.88834" lon="2.98467">
        <ele>774.96</ele>
        <time>2021-08-14T12:36:07Z</time>
      </trkpt>
      <trkpt lat="45.88833" lon="2.98468">
        <ele>774.96</ele>
        <time>2021-08-14T12:36:12Z</time>
      </trkpt>
      <trkpt lat="45.88831" lon="2.98468">
        <ele>774.96</ele>
        <time>2021-08-14T12:36:18Z</time>
      </trkpt>
      <trkpt lat="45.8883" lon="2.98468">
        <ele>774.96</ele>
        <time>2021-08-14T12:36:19Z</time>
      </trkpt>
      <trkpt lat="45.88829" lon="2.98467">
        <ele>774.96</ele>
        <time>2021-08-14T12:36:20Z</time>
      </trkpt>
      <trkpt lat="45.88827" lon="2.98468">
        <ele>774.96</ele>
        <time>2021-08-14T12:36:21Z</time>
      </trkpt>
      <trkpt lat="45.88827" lon="2.9847">
        <ele>774.96</ele>
        <time>2021-08-14T12:36:22Z</time>
      </trkpt>
      <trkpt lat="45.88826" lon="2.98472">
        <ele>774.96</ele>
        <time>2021-08-14T12:36:23Z</time>
      </trkpt>
      <trkpt lat="45.88825" lon="2.98474">
        <ele>774</ele>
        <time>2021-08-14T12:36:24Z</time>
      </trkpt>
      <trkpt lat="45.88824" lon="2.98473">
        <ele>774</ele>
        <time>2021-08-14T12:36:25Z</time>
      </trkpt>
      <trkpt lat="45.88823" lon="2.98472">
        <ele>774</ele>
        <time>2021-08-14T12:36:26Z</time>
      </trkpt>
      <trkpt lat="45.88822" lon="2.98471">
        <ele>774</ele>
        <time>2021-08-14T12:36:27Z</time>
      </trkpt>
      <trkpt lat="45.88821" lon="2.98469">
        <ele>774</ele>
        <time>2021-08-14T12:36:28Z</time>
      </trkpt>
      <trkpt lat="45.88821" lon="2.98468">
        <ele>774</ele>
        <time>2021-08-14T12:36:29Z</time>
      </trkpt>
      <trkpt lat="45.8882" lon="2.98467">
        <ele>774</ele>
        <time>2021-08-14T12:36:30Z</time>
      </trkpt>
      <trkpt lat="45.88819" lon="2.98466">
        <ele>774</ele>
        <time>2021-08-14T12:36:31Z</time>
      </trkpt>
      <trkpt lat="45.88817" lon="2.98466">
        <ele>774</ele>
        <time>2021-08-14T12:36:32Z</time>
      </trkpt>
      <trkpt lat="45.88816" lon="2.98466">
        <ele>774</ele>
        <time>2021-08-14T12:36:33Z</time>
      </trkpt>
      <trkpt lat="45.88814" lon="2.98466">
        <ele>774</ele>
        <time>2021-08-14T12:36:34Z</time>
      </trkpt>
      <trkpt lat="45.88812" lon="2.98465">
        <ele>773.52</ele>
        <time>2021-08-14T12:36:35Z</time>
      </trkpt>
      <trkpt lat="45.88796" lon="2.98459">
        <ele>773.52</ele>
        <time>2021-08-14T12:36:42Z</time>
      </trkpt>
      <trkpt lat="45.88778" lon="2.98455">
        <ele>773.04</ele>
        <time>2021-08-14T12:36:51Z</time>
      </trkpt>
      <trkpt lat="45.88763" lon="2.98449">
        <ele>773.04</ele>
        <time>2021-08-14T12:37:00Z</time>
      </trkpt>
      <trkpt lat="45.8875" lon="2.98446">
        <ele>774.48</ele>
        <time>2021-08-14T12:37:08Z</time>
      </trkpt>
      <trkpt lat="45.88749" lon="2.98446">
        <ele>774.48</ele>
        <time>2021-08-14T12:37:09Z</time>
      </trkpt>
      <trkpt lat="45.88742" lon="2.98445">
        <ele>774.96</ele>
        <time>2021-08-14T12:37:15Z</time>
      </trkpt>
      <trkpt lat="45.88731" lon="2.9844">
        <ele>775.44</ele>
        <time>2021-08-14T12:37:24Z</time>
      </trkpt>
      <trkpt lat="45.88727" lon="2.9844">
        <ele>775.92</ele>
        <time>2021-08-14T12:37:27Z</time>
      </trkpt>
      <trkpt lat="45.88726" lon="2.98439">
        <ele>775.92</ele>
        <time>2021-08-14T12:37:28Z</time>
      </trkpt>
      <trkpt lat="45.88724" lon="2.98439">
        <ele>776.4</ele>
        <time>2021-08-14T12:37:29Z</time>
      </trkpt>
      <trkpt lat="45.88723" lon="2.98438">
        <ele>776.4</ele>
        <time>2021-08-14T12:37:30Z</time>
      </trkpt>
      <trkpt lat="45.88716" lon="2.98433">
        <ele>776.88</ele>
        <time>2021-08-14T12:37:36Z</time>
      </trkpt>
      <trkpt lat="45.88715" lon="2.98432">
        <ele>776.88</ele>
        <time>2021-08-14T12:37:37Z</time>
      </trkpt>
      <trkpt lat="45.88714" lon="2.9843">
        <ele>776.88</ele>
        <time>2021-08-14T12:37:38Z</time>
      </trkpt>
      <trkpt lat="45.88705" lon="2.98417">
        <ele>777.36</ele>
        <time>2021-08-14T12:37:46Z</time>
      </trkpt>
      <trkpt lat="45.88689" lon="2.98403">
        <ele>778.32</ele>
        <time>2021-08-14T12:37:56Z</time>
      </trkpt>
      <trkpt lat="45.88681" lon="2.98397">
        <ele>778.32</ele>
        <time>2021-08-14T12:38:01Z</time>
      </trkpt>
      <trkpt lat="45.88679" lon="2.98397">
        <ele>778.81</ele>
        <time>2021-08-14T12:38:02Z</time>
      </trkpt>
      <trkpt lat="45.88665" lon="2.98386">
        <ele>779.29</ele>
        <time>2021-08-14T12:38:09Z</time>
      </trkpt>
      <trkpt lat="45.8865" lon="2.98377">
        <ele>779.77</ele>
        <time>2021-08-14T12:38:17Z</time>
      </trkpt>
      <trkpt lat="45.88635" lon="2.98368">
        <ele>780.25</ele>
        <time>2021-08-14T12:38:24Z</time>
      </trkpt>
      <trkpt lat="45.88614" lon="2.98358">
        <ele>780.73</ele>
        <time>2021-08-14T12:38:32Z</time>
      </trkpt>
      <trkpt lat="45.8859" lon="2.98355">
        <ele>781.69</ele>
        <time>2021-08-14T12:38:41Z</time>
      </trkpt>
      <trkpt lat="45.88575" lon="2.98343">
        <ele>781.69</ele>
        <time>2021-08-14T12:38:48Z</time>
      </trkpt>
      <trkpt lat="45.88555" lon="2.98331">
        <ele>782.65</ele>
        <time>2021-08-14T12:38:56Z</time>
      </trkpt>
      <trkpt lat="45.88536" lon="2.98323">
        <ele>782.65</ele>
        <time>2021-08-14T12:39:04Z</time>
      </trkpt>
      <trkpt lat="45.88517" lon="2.98313">
        <ele>783.61</ele>
        <time>2021-08-14T12:39:11Z</time>
      </trkpt>
      <trkpt lat="45.88495" lon="2.98303">
        <ele>783.61</ele>
        <time>2021-08-14T12:39:19Z</time>
      </trkpt>
      <trkpt lat="45.88474" lon="2.98291">
        <ele>783.61</ele>
        <time>2021-08-14T12:39:26Z</time>
      </trkpt>
      <trkpt lat="45.88444" lon="2.98276">
        <ele>784.09</ele>
        <time>2021-08-14T12:39:36Z</time>
      </trkpt>
      <trkpt lat="45.88439" lon="2.98272">
        <ele>784.09</ele>
        <time>2021-08-14T12:39:38Z</time>
      </trkpt>
      <trkpt lat="45.88437" lon="2.98269">
        <ele>784.09</ele>
        <time>2021-08-14T12:39:39Z</time>
      </trkpt>
      <trkpt lat="45.88436" lon="2.98266">
        <ele>784.57</ele>
        <time>2021-08-14T12:39:40Z</time>
      </trkpt>
      <trkpt lat="45.88423" lon="2.98249">
        <ele>786.02</ele>
        <time>2021-08-14T12:39:47Z</time>
      </trkpt>
      <trkpt lat="45.88406" lon="2.98257">
        <ele>786.02</ele>
        <time>2021-08-14T12:39:53Z</time>
      </trkpt>
      <trkpt lat="45.88387" lon="2.98262">
        <ele>786.02</ele>
        <time>2021-08-14T12:39:59Z</time>
      </trkpt>
      <trkpt lat="45.88361" lon="2.98257">
        <ele>784.57</ele>
        <time>2021-08-14T12:40:07Z</time>
      </trkpt>
      <trkpt lat="45.88328" lon="2.9826">
        <ele>784.57</ele>
        <time>2021-08-14T12:40:16Z</time>
      </trkpt>
      <trkpt lat="45.88298" lon="2.98273">
        <ele>783.61</ele>
        <time>2021-08-14T12:40:24Z</time>
      </trkpt>
      <trkpt lat="45.88261" lon="2.9828">
        <ele>783.13</ele>
        <time>2021-08-14T12:40:33Z</time>
      </trkpt>
      <trkpt lat="45.88237" lon="2.9828">
        <ele>783.13</ele>
        <time>2021-08-14T12:40:39Z</time>
      </trkpt>
      <trkpt lat="45.88228" lon="2.98278">
        <ele>782.65</ele>
        <time>2021-08-14T12:40:41Z</time>
      </trkpt>
      <trkpt lat="45.88194" lon="2.98277">
        <ele>782.65</ele>
        <time>2021-08-14T12:40:49Z</time>
      </trkpt>
      <trkpt lat="45.88165" lon="2.98271">
        <ele>782.65</ele>
        <time>2021-08-14T12:40:56Z</time>
      </trkpt>
      <trkpt lat="45.88132" lon="2.98266">
        <ele>782.65</ele>
        <time>2021-08-14T12:41:04Z</time>
      </trkpt>
      <trkpt lat="45.88094" lon="2.98261">
        <ele>784.09</ele>
        <time>2021-08-14T12:41:14Z</time>
      </trkpt>
      <trkpt lat="45.8809" lon="2.98261">
        <ele>784.09</ele>
        <time>2021-08-14T12:41:15Z</time>
      </trkpt>
      <trkpt lat="45.88051" lon="2.98256">
        <ele>785.05</ele>
        <time>2021-08-14T12:41:26Z</time>
      </trkpt>
      <trkpt lat="45.88029" lon="2.98255">
        <ele>785.53</ele>
        <time>2021-08-14T12:41:33Z</time>
      </trkpt>
      <trkpt lat="45.88011" lon="2.98254">
        <ele>786.02</ele>
        <time>2021-08-14T12:41:40Z</time>
      </trkpt>
      <trkpt lat="45.87997" lon="2.98254">
        <ele>786.98</ele>
        <time>2021-08-14T12:41:47Z</time>
      </trkpt>
      <trkpt lat="45.87981" lon="2.98252">
        <ele>787.94</ele>
        <time>2021-08-14T12:41:54Z</time>
      </trkpt>
      <trkpt lat="45.87961" lon="2.98249">
        <ele>788.42</ele>
        <time>2021-08-14T12:42:02Z</time>
      </trkpt>
      <trkpt lat="45.87941" lon="2.98239">
        <ele>788.9</ele>
        <time>2021-08-14T12:42:10Z</time>
      </trkpt>
      <trkpt lat="45.87922" lon="2.98233">
        <ele>789.86</ele>
        <time>2021-08-14T12:42:18Z</time>
      </trkpt>
      <trkpt lat="45.87908" lon="2.98223">
        <ele>790.34</ele>
        <time>2021-08-14T12:42:25Z</time>
      </trkpt>
      <trkpt lat="45.87907" lon="2.98222">
        <ele>790.82</ele>
        <time>2021-08-14T12:42:26Z</time>
      </trkpt>
      <trkpt lat="45.87905" lon="2.9822">
        <ele>790.82</ele>
        <time>2021-08-14T12:42:27Z</time>
      </trkpt>
      <trkpt lat="45.87903" lon="2.98217">
        <ele>790.82</ele>
        <time>2021-08-14T12:42:29Z</time>
      </trkpt>
      <trkpt lat="45.87902" lon="2.98214">
        <ele>790.82</ele>
        <time>2021-08-14T12:42:30Z</time>
      </trkpt>
      <trkpt lat="45.879" lon="2.98213">
        <ele>791.3</ele>
        <time>2021-08-14T12:42:31Z</time>
      </trkpt>
      <trkpt lat="45.87898" lon="2.98211">
        <ele>791.3</ele>
        <time>2021-08-14T12:42:32Z</time>
      </trkpt>
      <trkpt lat="45.87896" lon="2.98211">
        <ele>791.3</ele>
        <time>2021-08-14T12:42:33Z</time>
      </trkpt>
      <trkpt lat="45.87894" lon="2.98209">
        <ele>791.3</ele>
        <time>2021-08-14T12:42:34Z</time>
      </trkpt>
      <trkpt lat="45.8788" lon="2.98196">
        <ele>792.26</ele>
        <time>2021-08-14T12:42:41Z</time>
      </trkpt>
      <trkpt lat="45.8787" lon="2.98184">
        <ele>792.74</ele>
        <time>2021-08-14T12:42:47Z</time>
      </trkpt>
      <trkpt lat="45.87854" lon="2.9817">
        <ele>793.71</ele>
        <time>2021-08-14T12:42:55Z</time>
      </trkpt>
      <trkpt lat="45.87848" lon="2.98167">
        <ele>793.71</ele>
        <time>2021-08-14T12:42:59Z</time>
      </trkpt>
      <trkpt lat="45.87846" lon="2.98165">
        <ele>793.71</ele>
        <time>2021-08-14T12:43:02Z</time>
      </trkpt>
      <trkpt lat="45.87828" lon="2.98152">
        <ele>794.19</ele>
        <time>2021-08-14T12:43:10Z</time>
      </trkpt>
      <trkpt lat="45.8781" lon="2.98138">
        <ele>794.67</ele>
        <time>2021-08-14T12:43:17Z</time>
      </trkpt>
      <trkpt lat="45.87794" lon="2.98123">
        <ele>794.67</ele>
        <time>2021-08-14T12:43:24Z</time>
      </trkpt>
      <trkpt lat="45.87769" lon="2.981">
        <ele>795.15</ele>
        <time>2021-08-14T12:43:34Z</time>
      </trkpt>
      <trkpt lat="45.87747" lon="2.98084">
        <ele>795.15</ele>
        <time>2021-08-14T12:43:42Z</time>
      </trkpt>
      <trkpt lat="45.87723" lon="2.98079">
        <ele>795.15</ele>
        <time>2021-08-14T12:43:50Z</time>
      </trkpt>
      <trkpt lat="45.87695" lon="2.98089">
        <ele>795.63</ele>
        <time>2021-08-14T12:43:59Z</time>
      </trkpt>
      <trkpt lat="45.87664" lon="2.98093">
        <ele>796.59</ele>
        <time>2021-08-14T12:44:09Z</time>
      </trkpt>
      <trkpt lat="45.87643" lon="2.98093">
        <ele>798.03</ele>
        <time>2021-08-14T12:44:18Z</time>
      </trkpt>
      <trkpt lat="45.87624" lon="2.98093">
        <ele>798.99</ele>
        <time>2021-08-14T12:44:28Z</time>
      </trkpt>
      <trkpt lat="45.8761" lon="2.98096">
        <ele>800.44</ele>
        <time>2021-08-14T12:44:36Z</time>
      </trkpt>
      <trkpt lat="45.87598" lon="2.98098">
        <ele>801.4</ele>
        <time>2021-08-14T12:44:43Z</time>
      </trkpt>
      <trkpt lat="45.87585" lon="2.98094">
        <ele>801.4</ele>
        <time>2021-08-14T12:44:49Z</time>
      </trkpt>
      <trkpt lat="45.87575" lon="2.98088">
        <ele>801.88</ele>
        <time>2021-08-14T12:44:54Z</time>
      </trkpt>
      <trkpt lat="45.87561" lon="2.9809">
        <ele>801.88</ele>
        <time>2021-08-14T12:45:01Z</time>
      </trkpt>
      <trkpt lat="45.8755" lon="2.98091">
        <ele>802.84</ele>
        <time>2021-08-14T12:45:08Z</time>
      </trkpt>
      <trkpt lat="45.87538" lon="2.9809">
        <ele>803.8</ele>
        <time>2021-08-14T12:45:15Z</time>
      </trkpt>
      <trkpt lat="45.87537" lon="2.9809">
        <ele>803.8</ele>
        <time>2021-08-14T12:45:16Z</time>
      </trkpt>
      <trkpt lat="45.87535" lon="2.98091">
        <ele>803.8</ele>
        <time>2021-08-14T12:45:17Z</time>
      </trkpt>
      <trkpt lat="45.87534" lon="2.98092">
        <ele>803.8</ele>
        <time>2021-08-14T12:45:18Z</time>
      </trkpt>
      <trkpt lat="45.87532" lon="2.98093">
        <ele>804.28</ele>
        <time>2021-08-14T12:45:19Z</time>
      </trkpt>
      <trkpt lat="45.8753" lon="2.98093">
        <ele>804.28</ele>
        <time>2021-08-14T12:45:20Z</time>
      </trkpt>
      <trkpt lat="45.87527" lon="2.98094">
        <ele>804.28</ele>
        <time>2021-08-14T12:45:21Z</time>
      </trkpt>
      <trkpt lat="45.87525" lon="2.98094">
        <ele>804.28</ele>
        <time>2021-08-14T12:45:22Z</time>
      </trkpt>
      <trkpt lat="45.87524" lon="2.98094">
        <ele>804.28</ele>
        <time>2021-08-14T12:45:23Z</time>
      </trkpt>
      <trkpt lat="45.87521" lon="2.98094">
        <ele>804.76</ele>
        <time>2021-08-14T12:45:24Z</time>
      </trkpt>
      <trkpt lat="45.87519" lon="2.98094">
        <ele>804.76</ele>
        <time>2021-08-14T12:45:25Z</time>
      </trkpt>
      <trkpt lat="45.87517" lon="2.98095">
        <ele>804.76</ele>
        <time>2021-08-14T12:45:26Z</time>
      </trkpt>
      <trkpt lat="45.87515" lon="2.98095">
        <ele>804.76</ele>
        <time>2021-08-14T12:45:27Z</time>
      </trkpt>
      <trkpt lat="45.87503" lon="2.98095">
        <ele>805.24</ele>
        <time>2021-08-14T12:45:33Z</time>
      </trkpt>
      <trkpt lat="45.87501" lon="2.98095">
        <ele>805.72</ele>
        <time>2021-08-14T12:45:34Z</time>
      </trkpt>
      <trkpt lat="45.87499" lon="2.98095">
        <ele>805.72</ele>
        <time>2021-08-14T12:45:35Z</time>
      </trkpt>
      <trkpt lat="45.87497" lon="2.98095">
        <ele>806.2</ele>
        <time>2021-08-14T12:45:36Z</time>
      </trkpt>
      <trkpt lat="45.87495" lon="2.98095">
        <ele>806.2</ele>
        <time>2021-08-14T12:45:37Z</time>
      </trkpt>
      <trkpt lat="45.87493" lon="2.98095">
        <ele>806.2</ele>
        <time>2021-08-14T12:45:38Z</time>
      </trkpt>
      <trkpt lat="45.87478" lon="2.98094">
        <ele>806.68</ele>
        <time>2021-08-14T12:45:45Z</time>
      </trkpt>
      <trkpt lat="45.87471" lon="2.98094">
        <ele>807.16</ele>
        <time>2021-08-14T12:45:48Z</time>
      </trkpt>
      <trkpt lat="45.87466" lon="2.98095">
        <ele>807.64</ele>
        <time>2021-08-14T12:45:52Z</time>
      </trkpt>
      <trkpt lat="45.87464" lon="2.98095">
        <ele>807.64</ele>
        <time>2021-08-14T12:45:53Z</time>
      </trkpt>
      <trkpt lat="45.87462" lon="2.98095">
        <ele>807.64</ele>
        <time>2021-08-14T12:45:54Z</time>
      </trkpt>
      <trkpt lat="45.8746" lon="2.98094">
        <ele>807.64</ele>
        <time>2021-08-14T12:45:55Z</time>
      </trkpt>
      <trkpt lat="45.87458" lon="2.98094">
        <ele>808.13</ele>
        <time>2021-08-14T12:45:56Z</time>
      </trkpt>
      <trkpt lat="45.87442" lon="2.98092">
        <ele>809.57</ele>
        <time>2021-08-14T12:46:05Z</time>
      </trkpt>
      <trkpt lat="45.87426" lon="2.98088">
        <ele>810.05</ele>
        <time>2021-08-14T12:46:12Z</time>
      </trkpt>
      <trkpt lat="45.87408" lon="2.98081">
        <ele>810.05</ele>
        <time>2021-08-14T12:46:19Z</time>
      </trkpt>
      <trkpt lat="45.87406" lon="2.9808">
        <ele>810.05</ele>
        <time>2021-08-14T12:46:20Z</time>
      </trkpt>
      <trkpt lat="45.87387" lon="2.98075">
        <ele>810.05</ele>
        <time>2021-08-14T12:46:27Z</time>
      </trkpt>
      <trkpt lat="45.87373" lon="2.98071">
        <ele>810.05</ele>
        <time>2021-08-14T12:46:34Z</time>
      </trkpt>
      <trkpt lat="45.87355" lon="2.98062">
        <ele>810.05</ele>
        <time>2021-08-14T12:46:41Z</time>
      </trkpt>
      <trkpt lat="45.87346" lon="2.98057">
        <ele>810.05</ele>
        <time>2021-08-14T12:46:45Z</time>
      </trkpt>
      <trkpt lat="45.87344" lon="2.98057">
        <ele>810.05</ele>
        <time>2021-08-14T12:46:46Z</time>
      </trkpt>
      <trkpt lat="45.87341" lon="2.98056">
        <ele>810.05</ele>
        <time>2021-08-14T12:46:47Z</time>
      </trkpt>
      <trkpt lat="45.87338" lon="2.98055">
        <ele>810.05</ele>
        <time>2021-08-14T12:46:48Z</time>
      </trkpt>
      <trkpt lat="45.87335" lon="2.98054">
        <ele>810.05</ele>
        <time>2021-08-14T12:46:49Z</time>
      </trkpt>
      <trkpt lat="45.87332" lon="2.98052">
        <ele>810.05</ele>
        <time>2021-08-14T12:46:50Z</time>
      </trkpt>
      <trkpt lat="45.87329" lon="2.98051">
        <ele>810.05</ele>
        <time>2021-08-14T12:46:51Z</time>
      </trkpt>
      <trkpt lat="45.87326" lon="2.98049">
        <ele>810.05</ele>
        <time>2021-08-14T12:46:52Z</time>
      </trkpt>
      <trkpt lat="45.87323" lon="2.98048">
        <ele>810.05</ele>
        <time>2021-08-14T12:46:53Z</time>
      </trkpt>
      <trkpt lat="45.8732" lon="2.98047">
        <ele>810.05</ele>
        <time>2021-08-14T12:46:54Z</time>
      </trkpt>
      <trkpt lat="45.87317" lon="2.98046">
        <ele>810.05</ele>
        <time>2021-08-14T12:46:55Z</time>
      </trkpt>
      <trkpt lat="45.87315" lon="2.98044">
        <ele>810.05</ele>
        <time>2021-08-14T12:46:56Z</time>
      </trkpt>
      <trkpt lat="45.87312" lon="2.98043">
        <ele>810.05</ele>
        <time>2021-08-14T12:46:57Z</time>
      </trkpt>
      <trkpt lat="45.87309" lon="2.98041">
        <ele>810.05</ele>
        <time>2021-08-14T12:46:58Z</time>
      </trkpt>
      <trkpt lat="45.87306" lon="2.9804">
        <ele>810.05</ele>
        <time>2021-08-14T12:46:59Z</time>
      </trkpt>
      <trkpt lat="45.87286" lon="2.98033">
        <ele>810.05</ele>
        <time>2021-08-14T12:47:06Z</time>
      </trkpt>
      <trkpt lat="45.87281" lon="2.98032">
        <ele>810.05</ele>
        <time>2021-08-14T12:47:08Z</time>
      </trkpt>
      <trkpt lat="45.87279" lon="2.98031">
        <ele>810.05</ele>
        <time>2021-08-14T12:47:09Z</time>
      </trkpt>
      <trkpt lat="45.87276" lon="2.9803">
        <ele>810.05</ele>
        <time>2021-08-14T12:47:10Z</time>
      </trkpt>
      <trkpt lat="45.87273" lon="2.9803">
        <ele>810.05</ele>
        <time>2021-08-14T12:47:11Z</time>
      </trkpt>
      <trkpt lat="45.87271" lon="2.9803">
        <ele>810.05</ele>
        <time>2021-08-14T12:47:12Z</time>
      </trkpt>
      <trkpt lat="45.87267" lon="2.98029">
        <ele>810.05</ele>
        <time>2021-08-14T12:47:13Z</time>
      </trkpt>
      <trkpt lat="45.87257" lon="2.98027">
        <ele>808.61</ele>
        <time>2021-08-14T12:47:16Z</time>
      </trkpt>
      <trkpt lat="45.87229" lon="2.98018">
        <ele>807.16</ele>
        <time>2021-08-14T12:47:22Z</time>
      </trkpt>
      <trkpt lat="45.87225" lon="2.98016">
        <ele>806.68</ele>
        <time>2021-08-14T12:47:23Z</time>
      </trkpt>
      <trkpt lat="45.8722" lon="2.98014">
        <ele>806.68</ele>
        <time>2021-08-14T12:47:24Z</time>
      </trkpt>
      <trkpt lat="45.87216" lon="2.98012">
        <ele>806.68</ele>
        <time>2021-08-14T12:47:25Z</time>
      </trkpt>
      <trkpt lat="45.87211" lon="2.9801">
        <ele>806.68</ele>
        <time>2021-08-14T12:47:26Z</time>
      </trkpt>
      <trkpt lat="45.87207" lon="2.98008">
        <ele>806.2</ele>
        <time>2021-08-14T12:47:27Z</time>
      </trkpt>
      <trkpt lat="45.87202" lon="2.98006">
        <ele>806.2</ele>
        <time>2021-08-14T12:47:28Z</time>
      </trkpt>
      <trkpt lat="45.87198" lon="2.98004">
        <ele>806.2</ele>
        <time>2021-08-14T12:47:29Z</time>
      </trkpt>
      <trkpt lat="45.8718" lon="2.97999">
        <ele>806.2</ele>
        <time>2021-08-14T12:47:33Z</time>
      </trkpt>
      <trkpt lat="45.87165" lon="2.97994">
        <ele>806.2</ele>
        <time>2021-08-14T12:47:37Z</time>
      </trkpt>
      <trkpt lat="45.87147" lon="2.97992">
        <ele>806.2</ele>
        <time>2021-08-14T12:47:42Z</time>
      </trkpt>
      <trkpt lat="45.87138" lon="2.97991">
        <ele>805.72</ele>
        <time>2021-08-14T12:47:44Z</time>
      </trkpt>
      <trkpt lat="45.87119" lon="2.97997">
        <ele>805.72</ele>
        <time>2021-08-14T12:47:50Z</time>
      </trkpt>
      <trkpt lat="45.87104" lon="2.97997">
        <ele>805.72</ele>
        <time>2021-08-14T12:47:56Z</time>
      </trkpt>
      <trkpt lat="45.87088" lon="2.97986">
        <ele>805.72</ele>
        <time>2021-08-14T12:48:03Z</time>
      </trkpt>
      <trkpt lat="45.87073" lon="2.9798">
        <ele>807.16</ele>
        <time>2021-08-14T12:48:09Z</time>
      </trkpt>
      <trkpt lat="45.87071" lon="2.97979">
        <ele>807.16</ele>
        <time>2021-08-14T12:48:10Z</time>
      </trkpt>
      <trkpt lat="45.87066" lon="2.97979">
        <ele>807.16</ele>
        <time>2021-08-14T12:48:12Z</time>
      </trkpt>
      <trkpt lat="45.87064" lon="2.97979">
        <ele>807.16</ele>
        <time>2021-08-14T12:48:13Z</time>
      </trkpt>
      <trkpt lat="45.87051" lon="2.97981">
        <ele>807.64</ele>
        <time>2021-08-14T12:48:19Z</time>
      </trkpt>
      <trkpt lat="45.87049" lon="2.97982">
        <ele>807.64</ele>
        <time>2021-08-14T12:48:20Z</time>
      </trkpt>
      <trkpt lat="45.87047" lon="2.97982">
        <ele>808.13</ele>
        <time>2021-08-14T12:48:21Z</time>
      </trkpt>
      <trkpt lat="45.87045" lon="2.97983">
        <ele>808.13</ele>
        <time>2021-08-14T12:48:22Z</time>
      </trkpt>
      <trkpt lat="45.87043" lon="2.97984">
        <ele>808.13</ele>
        <time>2021-08-14T12:48:23Z</time>
      </trkpt>
      <trkpt lat="45.87041" lon="2.97984">
        <ele>808.61</ele>
        <time>2021-08-14T12:48:24Z</time>
      </trkpt>
      <trkpt lat="45.87033" lon="2.97987">
        <ele>808.61</ele>
        <time>2021-08-14T12:48:29Z</time>
      </trkpt>
      <trkpt lat="45.87032" lon="2.97987">
        <ele>808.61</ele>
        <time>2021-08-14T12:48:30Z</time>
      </trkpt>
      <trkpt lat="45.87019" lon="2.97992">
        <ele>810.05</ele>
        <time>2021-08-14T12:48:39Z</time>
      </trkpt>
      <trkpt lat="45.8701" lon="2.97997">
        <ele>811.49</ele>
        <time>2021-08-14T12:48:46Z</time>
      </trkpt>
      <trkpt lat="45.87" lon="2.98005">
        <ele>811.97</ele>
        <time>2021-08-14T12:48:54Z</time>
      </trkpt>
      <trkpt lat="45.86985" lon="2.98015">
        <ele>812.93</ele>
        <time>2021-08-14T12:49:03Z</time>
      </trkpt>
      <trkpt lat="45.86975" lon="2.9802">
        <ele>813.41</ele>
        <time>2021-08-14T12:49:12Z</time>
      </trkpt>
      <trkpt lat="45.86968" lon="2.98027">
        <ele>813.41</ele>
        <time>2021-08-14T12:49:18Z</time>
      </trkpt>
      <trkpt lat="45.86967" lon="2.98028">
        <ele>813.41</ele>
        <time>2021-08-14T12:49:19Z</time>
      </trkpt>
      <trkpt lat="45.86965" lon="2.98031">
        <ele>813.89</ele>
        <time>2021-08-14T12:49:20Z</time>
      </trkpt>
      <trkpt lat="45.86964" lon="2.98032">
        <ele>813.89</ele>
        <time>2021-08-14T12:49:21Z</time>
      </trkpt>
      <trkpt lat="45.86962" lon="2.98034">
        <ele>813.89</ele>
        <time>2021-08-14T12:49:22Z</time>
      </trkpt>
      <trkpt lat="45.8696" lon="2.98037">
        <ele>813.89</ele>
        <time>2021-08-14T12:49:23Z</time>
      </trkpt>
      <trkpt lat="45.86958" lon="2.98039">
        <ele>813.89</ele>
        <time>2021-08-14T12:49:24Z</time>
      </trkpt>
      <trkpt lat="45.86956" lon="2.9804">
        <ele>813.89</ele>
        <time>2021-08-14T12:49:25Z</time>
      </trkpt>
      <trkpt lat="45.86954" lon="2.98042">
        <ele>813.89</ele>
        <time>2021-08-14T12:49:26Z</time>
      </trkpt>
      <trkpt lat="45.86952" lon="2.98043">
        <ele>813.89</ele>
        <time>2021-08-14T12:49:27Z</time>
      </trkpt>
      <trkpt lat="45.8695" lon="2.98044">
        <ele>813.89</ele>
        <time>2021-08-14T12:49:28Z</time>
      </trkpt>
      <trkpt lat="45.86948" lon="2.98044">
        <ele>813.89</ele>
        <time>2021-08-14T12:49:29Z</time>
      </trkpt>
      <trkpt lat="45.86946" lon="2.98044">
        <ele>813.89</ele>
        <time>2021-08-14T12:49:30Z</time>
      </trkpt>
      <trkpt lat="45.86943" lon="2.98044">
        <ele>813.89</ele>
        <time>2021-08-14T12:49:31Z</time>
      </trkpt>
      <trkpt lat="45.8694" lon="2.98043">
        <ele>813.89</ele>
        <time>2021-08-14T12:49:32Z</time>
      </trkpt>
      <trkpt lat="45.86923" lon="2.9804">
        <ele>814.37</ele>
        <time>2021-08-14T12:49:39Z</time>
      </trkpt>
      <trkpt lat="45.86907" lon="2.98039">
        <ele>814.85</ele>
        <time>2021-08-14T12:49:46Z</time>
      </trkpt>
      <trkpt lat="45.86889" lon="2.98033">
        <ele>815.34</ele>
        <time>2021-08-14T12:49:53Z</time>
      </trkpt>
      <trkpt lat="45.86871" lon="2.98021">
        <ele>815.82</ele>
        <time>2021-08-14T12:50:01Z</time>
      </trkpt>
      <trkpt lat="45.86859" lon="2.98017">
        <ele>816.78</ele>
        <time>2021-08-14T12:50:08Z</time>
      </trkpt>
      <trkpt lat="45.86841" lon="2.98011">
        <ele>817.74</ele>
        <time>2021-08-14T12:50:17Z</time>
      </trkpt>
      <trkpt lat="45.86822" lon="2.98002">
        <ele>817.74</ele>
        <time>2021-08-14T12:50:25Z</time>
      </trkpt>
      <trkpt lat="45.86814" lon="2.97998">
        <ele>818.22</ele>
        <time>2021-08-14T12:50:29Z</time>
      </trkpt>
      <trkpt lat="45.86812" lon="2.97998">
        <ele>817.74</ele>
        <time>2021-08-14T12:50:30Z</time>
      </trkpt>
      <trkpt lat="45.8681" lon="2.97998">
        <ele>817.74</ele>
        <time>2021-08-14T12:50:31Z</time>
      </trkpt>
      <trkpt lat="45.86798" lon="2.97995">
        <ele>818.22</ele>
        <time>2021-08-14T12:50:38Z</time>
      </trkpt>
      <trkpt lat="45.86784" lon="2.97989">
        <ele>818.22</ele>
        <time>2021-08-14T12:50:43Z</time>
      </trkpt>
      <trkpt lat="45.86767" lon="2.97988">
        <ele>818.22</ele>
        <time>2021-08-14T12:50:50Z</time>
      </trkpt>
      <trkpt lat="45.8675" lon="2.97987">
        <ele>818.7</ele>
        <time>2021-08-14T12:50:56Z</time>
      </trkpt>
      <trkpt lat="45.86729" lon="2.97986">
        <ele>819.18</ele>
        <time>2021-08-14T12:51:03Z</time>
      </trkpt>
      <trkpt lat="45.86713" lon="2.9799">
        <ele>819.18</ele>
        <time>2021-08-14T12:51:09Z</time>
      </trkpt>
      <trkpt lat="45.86696" lon="2.97993">
        <ele>819.66</ele>
        <time>2021-08-14T12:51:16Z</time>
      </trkpt>
      <trkpt lat="45.86675" lon="2.97992">
        <ele>820.14</ele>
        <time>2021-08-14T12:51:23Z</time>
      </trkpt>
      <trkpt lat="45.86656" lon="2.97988">
        <ele>821.1</ele>
        <time>2021-08-14T12:51:30Z</time>
      </trkpt>
      <trkpt lat="45.86654" lon="2.97988">
        <ele>821.1</ele>
        <time>2021-08-14T12:51:31Z</time>
      </trkpt>
      <trkpt lat="45.86651" lon="2.97988">
        <ele>821.1</ele>
        <time>2021-08-14T12:51:32Z</time>
      </trkpt>
      <trkpt lat="45.86649" lon="2.97988">
        <ele>821.1</ele>
        <time>2021-08-14T12:51:33Z</time>
      </trkpt>
      <trkpt lat="45.86648" lon="2.97987">
        <ele>821.1</ele>
        <time>2021-08-14T12:51:34Z</time>
      </trkpt>
      <trkpt lat="45.86646" lon="2.97987">
        <ele>821.1</ele>
        <time>2021-08-14T12:51:35Z</time>
      </trkpt>
      <trkpt lat="45.86645" lon="2.97986">
        <ele>821.1</ele>
        <time>2021-08-14T12:51:36Z</time>
      </trkpt>
      <trkpt lat="45.86643" lon="2.97985">
        <ele>821.1</ele>
        <time>2021-08-14T12:51:37Z</time>
      </trkpt>
      <trkpt lat="45.86631" lon="2.97976">
        <ele>822.06</ele>
        <time>2021-08-14T12:51:44Z</time>
      </trkpt>
      <trkpt lat="45.86628" lon="2.97973">
        <ele>822.55</ele>
        <time>2021-08-14T12:51:46Z</time>
      </trkpt>
      <trkpt lat="45.86622" lon="2.97966">
        <ele>823.03</ele>
        <time>2021-08-14T12:51:50Z</time>
      </trkpt>
      <trkpt lat="45.8661" lon="2.97957">
        <ele>823.51</ele>
        <time>2021-08-14T12:51:57Z</time>
      </trkpt>
      <trkpt lat="45.86604" lon="2.97956">
        <ele>823.51</ele>
        <time>2021-08-14T12:52:01Z</time>
      </trkpt>
      <trkpt lat="45.86591" lon="2.97955">
        <ele>824.95</ele>
        <time>2021-08-14T12:52:10Z</time>
      </trkpt>
      <trkpt lat="45.86586" lon="2.97955">
        <ele>825.43</ele>
        <time>2021-08-14T12:52:13Z</time>
      </trkpt>
      <trkpt lat="45.86584" lon="2.97954">
        <ele>825.91</ele>
        <time>2021-08-14T12:52:14Z</time>
      </trkpt>
      <trkpt lat="45.86582" lon="2.97953">
        <ele>825.91</ele>
        <time>2021-08-14T12:52:15Z</time>
      </trkpt>
      <trkpt lat="45.86572" lon="2.97947">
        <ele>826.39</ele>
        <time>2021-08-14T12:52:21Z</time>
      </trkpt>
      <trkpt lat="45.8657" lon="2.97946">
        <ele>826.39</ele>
        <time>2021-08-14T12:52:22Z</time>
      </trkpt>
      <trkpt lat="45.86565" lon="2.97942">
        <ele>827.35</ele>
        <time>2021-08-14T12:52:25Z</time>
      </trkpt>
      <trkpt lat="45.86563" lon="2.97941">
        <ele>827.35</ele>
        <time>2021-08-14T12:52:26Z</time>
      </trkpt>
      <trkpt lat="45.86562" lon="2.97939">
        <ele>827.35</ele>
        <time>2021-08-14T12:52:27Z</time>
      </trkpt>
      <trkpt lat="45.8656" lon="2.97938">
        <ele>827.35</ele>
        <time>2021-08-14T12:52:28Z</time>
      </trkpt>
      <trkpt lat="45.86558" lon="2.97936">
        <ele>827.35</ele>
        <time>2021-08-14T12:52:29Z</time>
      </trkpt>
      <trkpt lat="45.8655" lon="2.97928">
        <ele>828.31</ele>
        <time>2021-08-14T12:52:36Z</time>
      </trkpt>
      <trkpt lat="45.86541" lon="2.9792">
        <ele>828.79</ele>
        <time>2021-08-14T12:52:42Z</time>
      </trkpt>
      <trkpt lat="45.8653" lon="2.97905">
        <ele>829.27</ele>
        <time>2021-08-14T12:52:49Z</time>
      </trkpt>
      <trkpt lat="45.8652" lon="2.97894">
        <ele>829.76</ele>
        <time>2021-08-14T12:52:55Z</time>
      </trkpt>
      <trkpt lat="45.86511" lon="2.97885">
        <ele>830.72</ele>
        <time>2021-08-14T12:53:02Z</time>
      </trkpt>
      <trkpt lat="45.86501" lon="2.97877">
        <ele>831.2</ele>
        <time>2021-08-14T12:53:10Z</time>
      </trkpt>
      <trkpt lat="45.86493" lon="2.97861">
        <ele>832.16</ele>
        <time>2021-08-14T12:53:17Z</time>
      </trkpt>
      <trkpt lat="45.86483" lon="2.97855">
        <ele>832.64</ele>
        <time>2021-08-14T12:53:24Z</time>
      </trkpt>
      <trkpt lat="45.86472" lon="2.97847">
        <ele>833.12</ele>
        <time>2021-08-14T12:53:32Z</time>
      </trkpt>
      <trkpt lat="45.86463" lon="2.9784">
        <ele>833.6</ele>
        <time>2021-08-14T12:53:39Z</time>
      </trkpt>
      <trkpt lat="45.8646" lon="2.97837">
        <ele>833.6</ele>
        <time>2021-08-14T12:53:41Z</time>
      </trkpt>
      <trkpt lat="45.86458" lon="2.97835">
        <ele>834.08</ele>
        <time>2021-08-14T12:53:42Z</time>
      </trkpt>
      <trkpt lat="45.86451" lon="2.97828">
        <ele>834.56</ele>
        <time>2021-08-14T12:53:48Z</time>
      </trkpt>
      <trkpt lat="45.86443" lon="2.97817">
        <ele>835.04</ele>
        <time>2021-08-14T12:53:54Z</time>
      </trkpt>
      <trkpt lat="45.86435" lon="2.97808">
        <ele>836</ele>
        <time>2021-08-14T12:54:01Z</time>
      </trkpt>
      <trkpt lat="45.86423" lon="2.97799">
        <ele>836.96</ele>
        <time>2021-08-14T12:54:08Z</time>
      </trkpt>
      <trkpt lat="45.86417" lon="2.97793">
        <ele>837.45</ele>
        <time>2021-08-14T12:54:13Z</time>
      </trkpt>
      <trkpt lat="45.86407" lon="2.97782">
        <ele>838.41</ele>
        <time>2021-08-14T12:54:23Z</time>
      </trkpt>
      <trkpt lat="45.86395" lon="2.97774">
        <ele>839.37</ele>
        <time>2021-08-14T12:54:30Z</time>
      </trkpt>
      <trkpt lat="45.86384" lon="2.97773">
        <ele>840.33</ele>
        <time>2021-08-14T12:54:38Z</time>
      </trkpt>
      <trkpt lat="45.86382" lon="2.97773">
        <ele>840.33</ele>
        <time>2021-08-14T12:54:39Z</time>
      </trkpt>
      <trkpt lat="45.86381" lon="2.97772">
        <ele>840.33</ele>
        <time>2021-08-14T12:54:40Z</time>
      </trkpt>
      <trkpt lat="45.86379" lon="2.97772">
        <ele>840.33</ele>
        <time>2021-08-14T12:54:41Z</time>
      </trkpt>
      <trkpt lat="45.86377" lon="2.97771">
        <ele>840.33</ele>
        <time>2021-08-14T12:54:42Z</time>
      </trkpt>
      <trkpt lat="45.86376" lon="2.9777">
        <ele>840.33</ele>
        <time>2021-08-14T12:54:43Z</time>
      </trkpt>
      <trkpt lat="45.86366" lon="2.97765">
        <ele>841.77</ele>
        <time>2021-08-14T12:54:50Z</time>
      </trkpt>
      <trkpt lat="45.86352" lon="2.9776">
        <ele>842.25</ele>
        <time>2021-08-14T12:54:58Z</time>
      </trkpt>
      <trkpt lat="45.86338" lon="2.97756">
        <ele>842.25</ele>
        <time>2021-08-14T12:55:06Z</time>
      </trkpt>
      <trkpt lat="45.86324" lon="2.97752">
        <ele>843.21</ele>
        <time>2021-08-14T12:55:13Z</time>
      </trkpt>
      <trkpt lat="45.86309" lon="2.97747">
        <ele>843.69</ele>
        <time>2021-08-14T12:55:20Z</time>
      </trkpt>
      <trkpt lat="45.86297" lon="2.97737">
        <ele>844.18</ele>
        <time>2021-08-14T12:55:28Z</time>
      </trkpt>
      <trkpt lat="45.86288" lon="2.97728">
        <ele>844.66</ele>
        <time>2021-08-14T12:55:34Z</time>
      </trkpt>
      <trkpt lat="45.86274" lon="2.97712">
        <ele>845.14</ele>
        <time>2021-08-14T12:55:42Z</time>
      </trkpt>
      <trkpt lat="45.86264" lon="2.97695">
        <ele>845.62</ele>
        <time>2021-08-14T12:55:50Z</time>
      </trkpt>
      <trkpt lat="45.86253" lon="2.97681">
        <ele>846.58</ele>
        <time>2021-08-14T12:55:58Z</time>
      </trkpt>
      <trkpt lat="45.86242" lon="2.97661">
        <ele>847.06</ele>
        <time>2021-08-14T12:56:07Z</time>
      </trkpt>
      <trkpt lat="45.8624" lon="2.97654">
        <ele>847.54</ele>
        <time>2021-08-14T12:56:10Z</time>
      </trkpt>
      <trkpt lat="45.86234" lon="2.97642">
        <ele>848.5</ele>
        <time>2021-08-14T12:56:16Z</time>
      </trkpt>
      <trkpt lat="45.86227" lon="2.97628">
        <ele>849.46</ele>
        <time>2021-08-14T12:56:23Z</time>
      </trkpt>
      <trkpt lat="45.86219" lon="2.97612">
        <ele>849.94</ele>
        <time>2021-08-14T12:56:30Z</time>
      </trkpt>
      <trkpt lat="45.86213" lon="2.97603">
        <ele>850.9</ele>
        <time>2021-08-14T12:56:35Z</time>
      </trkpt>
      <trkpt lat="45.86208" lon="2.9759">
        <ele>851.87</ele>
        <time>2021-08-14T12:56:43Z</time>
      </trkpt>
      <trkpt lat="45.86207" lon="2.97591">
        <ele>851.87</ele>
        <time>2021-08-14T12:56:49Z</time>
      </trkpt>
      <trkpt lat="45.86208" lon="2.97591">
        <ele>851.87</ele>
        <time>2021-08-14T12:56:50Z</time>
      </trkpt>
      <trkpt lat="45.8621" lon="2.97588">
        <ele>852.35</ele>
        <time>2021-08-14T12:56:52Z</time>
      </trkpt>
      <trkpt lat="45.86211" lon="2.97586">
        <ele>852.35</ele>
        <time>2021-08-14T12:56:53Z</time>
      </trkpt>
      <trkpt lat="45.8621" lon="2.97584">
        <ele>852.35</ele>
        <time>2021-08-14T12:56:54Z</time>
      </trkpt>
      <trkpt lat="45.86209" lon="2.97581">
        <ele>852.35</ele>
        <time>2021-08-14T12:56:55Z</time>
      </trkpt>
      <trkpt lat="45.86207" lon="2.97579">
        <ele>852.35</ele>
        <time>2021-08-14T12:56:56Z</time>
      </trkpt>
      <trkpt lat="45.86204" lon="2.97577">
        <ele>852.35</ele>
        <time>2021-08-14T12:56:57Z</time>
      </trkpt>
      <trkpt lat="45.86203" lon="2.97575">
        <ele>852.35</ele>
        <time>2021-08-14T12:56:58Z</time>
      </trkpt>
      <trkpt lat="45.86201" lon="2.97573">
        <ele>852.35</ele>
        <time>2021-08-14T12:56:59Z</time>
      </trkpt>
      <trkpt lat="45.86199" lon="2.97572">
        <ele>852.35</ele>
        <time>2021-08-14T12:57:00Z</time>
      </trkpt>
      <trkpt lat="45.86185" lon="2.97559">
        <ele>852.35</ele>
        <time>2021-08-14T12:57:06Z</time>
      </trkpt>
      <trkpt lat="45.86173" lon="2.97551">
        <ele>853.31</ele>
        <time>2021-08-14T12:57:11Z</time>
      </trkpt>
      <trkpt lat="45.8617" lon="2.9755">
        <ele>853.31</ele>
        <time>2021-08-14T12:57:12Z</time>
      </trkpt>
      <trkpt lat="45.86168" lon="2.97548">
        <ele>853.31</ele>
        <time>2021-08-14T12:57:13Z</time>
      </trkpt>
      <trkpt lat="45.86166" lon="2.97546">
        <ele>853.31</ele>
        <time>2021-08-14T12:57:14Z</time>
      </trkpt>
      <trkpt lat="45.86164" lon="2.97546">
        <ele>853.31</ele>
        <time>2021-08-14T12:57:15Z</time>
      </trkpt>
      <trkpt lat="45.86159" lon="2.97546">
        <ele>853.31</ele>
        <time>2021-08-14T12:57:18Z</time>
      </trkpt>
      <trkpt lat="45.86156" lon="2.97545">
        <ele>853.31</ele>
        <time>2021-08-14T12:57:19Z</time>
      </trkpt>
      <trkpt lat="45.86138" lon="2.97544">
        <ele>853.79</ele>
        <time>2021-08-14T12:57:26Z</time>
      </trkpt>
      <trkpt lat="45.86126" lon="2.97542">
        <ele>854.75</ele>
        <time>2021-08-14T12:57:32Z</time>
      </trkpt>
      <trkpt lat="45.86111" lon="2.97537">
        <ele>854.75</ele>
        <time>2021-08-14T12:57:38Z</time>
      </trkpt>
      <trkpt lat="45.86092" lon="2.97525">
        <ele>855.71</ele>
        <time>2021-08-14T12:57:45Z</time>
      </trkpt>
      <trkpt lat="45.86066" lon="2.97508">
        <ele>856.19</ele>
        <time>2021-08-14T12:57:53Z</time>
      </trkpt>
      <trkpt lat="45.8605" lon="2.97502">
        <ele>856.67</ele>
        <time>2021-08-14T12:57:59Z</time>
      </trkpt>
      <trkpt lat="45.86034" lon="2.97497">
        <ele>858.11</ele>
        <time>2021-08-14T12:58:07Z</time>
      </trkpt>
      <trkpt lat="45.86016" lon="2.97491">
        <ele>858.59</ele>
        <time>2021-08-14T12:58:14Z</time>
      </trkpt>
      <trkpt lat="45.8601" lon="2.97486">
        <ele>859.08</ele>
        <time>2021-08-14T12:58:17Z</time>
      </trkpt>
      <trkpt lat="45.85998" lon="2.97473">
        <ele>859.08</ele>
        <time>2021-08-14T12:58:23Z</time>
      </trkpt>
      <trkpt lat="45.85987" lon="2.97457">
        <ele>859.56</ele>
        <time>2021-08-14T12:58:29Z</time>
      </trkpt>
      <trkpt lat="45.85978" lon="2.97444">
        <ele>860.04</ele>
        <time>2021-08-14T12:58:36Z</time>
      </trkpt>
      <trkpt lat="45.85971" lon="2.97431">
        <ele>860.52</ele>
        <time>2021-08-14T12:58:42Z</time>
      </trkpt>
      <trkpt lat="45.85965" lon="2.9742">
        <ele>861</ele>
        <time>2021-08-14T12:58:47Z</time>
      </trkpt>
      <trkpt lat="45.85955" lon="2.97403">
        <ele>861.96</ele>
        <time>2021-08-14T12:58:54Z</time>
      </trkpt>
      <trkpt lat="45.85943" lon="2.97387">
        <ele>862.92</ele>
        <time>2021-08-14T12:59:01Z</time>
      </trkpt>
      <trkpt lat="45.85933" lon="2.97376">
        <ele>863.4</ele>
        <time>2021-08-14T12:59:07Z</time>
      </trkpt>
      <trkpt lat="45.85928" lon="2.97374">
        <ele>863.4</ele>
        <time>2021-08-14T12:59:10Z</time>
      </trkpt>
      <trkpt lat="45.85926" lon="2.97373">
        <ele>863.4</ele>
        <time>2021-08-14T12:59:11Z</time>
      </trkpt>
      <trkpt lat="45.85908" lon="2.97364">
        <ele>864.84</ele>
        <time>2021-08-14T12:59:20Z</time>
      </trkpt>
      <trkpt lat="45.85903" lon="2.97361">
        <ele>864.84</ele>
        <time>2021-08-14T12:59:23Z</time>
      </trkpt>
      <trkpt lat="45.85894" lon="2.97357">
        <ele>865.8</ele>
        <time>2021-08-14T12:59:29Z</time>
      </trkpt>
      <trkpt lat="45.85889" lon="2.97354">
        <ele>866.29</ele>
        <time>2021-08-14T12:59:32Z</time>
      </trkpt>
      <trkpt lat="45.85886" lon="2.97355">
        <ele>866.29</ele>
        <time>2021-08-14T12:59:34Z</time>
      </trkpt>
      <trkpt lat="45.85887" lon="2.97355">
        <ele>866.29</ele>
        <time>2021-08-14T12:59:35Z</time>
      </trkpt>
      <trkpt lat="45.85886" lon="2.97354">
        <ele>866.29</ele>
        <time>2021-08-14T12:59:36Z</time>
      </trkpt>
      <trkpt lat="45.85886" lon="2.97353">
        <ele>866.29</ele>
        <time>2021-08-14T12:59:37Z</time>
      </trkpt>
      <trkpt lat="45.85886" lon="2.97352">
        <ele>866.29</ele>
        <time>2021-08-14T12:59:38Z</time>
      </trkpt>
      <trkpt lat="45.85892" lon="2.9735">
        <ele>866.29</ele>
        <time>2021-08-14T12:59:45Z</time>
      </trkpt>
      <trkpt lat="45.85893" lon="2.97351">
        <ele>864.84</ele>
        <time>2021-08-14T12:59:46Z</time>
      </trkpt>
      <trkpt lat="45.85894" lon="2.97352">
        <ele>864.84</ele>
        <time>2021-08-14T12:59:47Z</time>
      </trkpt>
      <trkpt lat="45.85906" lon="2.97358">
        <ele>863.88</ele>
        <time>2021-08-14T12:59:52Z</time>
      </trkpt>
      <trkpt lat="45.8592" lon="2.97361">
        <ele>863.88</ele>
        <time>2021-08-14T12:59:58Z</time>
      </trkpt>
      <trkpt lat="45.85922" lon="2.97363">
        <ele>863.88</ele>
        <time>2021-08-14T12:59:59Z</time>
      </trkpt>
      <trkpt lat="45.85924" lon="2.97366">
        <ele>863.4</ele>
        <time>2021-08-14T13:00:00Z</time>
      </trkpt>
      <trkpt lat="45.85925" lon="2.9737">
        <ele>863.4</ele>
        <time>2021-08-14T13:00:01Z</time>
      </trkpt>
      <trkpt lat="45.85927" lon="2.97391">
        <ele>863.4</ele>
        <time>2021-08-14T13:00:08Z</time>
      </trkpt>
      <trkpt lat="45.85922" lon="2.97406">
        <ele>863.4</ele>
        <time>2021-08-14T13:00:13Z</time>
      </trkpt>
      <trkpt lat="45.85916" lon="2.97426">
        <ele>863.88</ele>
        <time>2021-08-14T13:00:20Z</time>
      </trkpt>
      <trkpt lat="45.85912" lon="2.97433">
        <ele>864.84</ele>
        <time>2021-08-14T13:00:23Z</time>
      </trkpt>
      <trkpt lat="45.85902" lon="2.97454">
        <ele>866.77</ele>
        <time>2021-08-14T13:00:33Z</time>
      </trkpt>
      <trkpt lat="45.85895" lon="2.97471">
        <ele>866.77</ele>
        <time>2021-08-14T13:00:40Z</time>
      </trkpt>
      <trkpt lat="45.85891" lon="2.97498">
        <ele>867.73</ele>
        <time>2021-08-14T13:00:47Z</time>
      </trkpt>
      <trkpt lat="45.85883" lon="2.97518">
        <ele>868.69</ele>
        <time>2021-08-14T13:00:54Z</time>
      </trkpt>
      <trkpt lat="45.85878" lon="2.97532">
        <ele>869.17</ele>
        <time>2021-08-14T13:01:00Z</time>
      </trkpt>
      <trkpt lat="45.85878" lon="2.97534">
        <ele>869.65</ele>
        <time>2021-08-14T13:01:01Z</time>
      </trkpt>
      <trkpt lat="45.85878" lon="2.97536">
        <ele>869.65</ele>
        <time>2021-08-14T13:01:02Z</time>
      </trkpt>
      <trkpt lat="45.85877" lon="2.97538">
        <ele>869.65</ele>
        <time>2021-08-14T13:01:03Z</time>
      </trkpt>
      <trkpt lat="45.85877" lon="2.97539">
        <ele>870.13</ele>
        <time>2021-08-14T13:01:04Z</time>
      </trkpt>
      <trkpt lat="45.85875" lon="2.97552">
        <ele>870.61</ele>
        <time>2021-08-14T13:01:11Z</time>
      </trkpt>
      <trkpt lat="45.85875" lon="2.97567">
        <ele>871.57</ele>
        <time>2021-08-14T13:01:18Z</time>
      </trkpt>
      <trkpt lat="45.85873" lon="2.97585">
        <ele>872.05</ele>
        <time>2021-08-14T13:01:26Z</time>
      </trkpt>
      <trkpt lat="45.85873" lon="2.97587">
        <ele>872.05</ele>
        <time>2021-08-14T13:01:27Z</time>
      </trkpt>
      <trkpt lat="45.85866" lon="2.97598">
        <ele>873.01</ele>
        <time>2021-08-14T13:01:35Z</time>
      </trkpt>
      <trkpt lat="45.8586" lon="2.97607">
        <ele>873.5</ele>
        <time>2021-08-14T13:01:42Z</time>
      </trkpt>
      <trkpt lat="45.85849" lon="2.97619">
        <ele>874.46</ele>
        <time>2021-08-14T13:01:49Z</time>
      </trkpt>
      <trkpt lat="45.85836" lon="2.97634">
        <ele>876.38</ele>
        <time>2021-08-14T13:01:58Z</time>
      </trkpt>
      <trkpt lat="45.85834" lon="2.97637">
        <ele>876.38</ele>
        <time>2021-08-14T13:02:00Z</time>
      </trkpt>
      <trkpt lat="45.85826" lon="2.9765">
        <ele>876.86</ele>
        <time>2021-08-14T13:02:07Z</time>
      </trkpt>
      <trkpt lat="45.85823" lon="2.97663">
        <ele>877.34</ele>
        <time>2021-08-14T13:02:14Z</time>
      </trkpt>
      <trkpt lat="45.85819" lon="2.97672">
        <ele>877.82</ele>
        <time>2021-08-14T13:02:19Z</time>
      </trkpt>
      <trkpt lat="45.85818" lon="2.97674">
        <ele>877.82</ele>
        <time>2021-08-14T13:02:20Z</time>
      </trkpt>
      <trkpt lat="45.85817" lon="2.97675">
        <ele>877.82</ele>
        <time>2021-08-14T13:02:21Z</time>
      </trkpt>
      <trkpt lat="45.85811" lon="2.97686">
        <ele>878.78</ele>
        <time>2021-08-14T13:02:27Z</time>
      </trkpt>
      <trkpt lat="45.85806" lon="2.97699">
        <ele>879.26</ele>
        <time>2021-08-14T13:02:34Z</time>
      </trkpt>
      <trkpt lat="45.85803" lon="2.97715">
        <ele>879.74</ele>
        <time>2021-08-14T13:02:42Z</time>
      </trkpt>
      <trkpt lat="45.85799" lon="2.97728">
        <ele>879.74</ele>
        <time>2021-08-14T13:02:48Z</time>
      </trkpt>
      <trkpt lat="45.858" lon="2.97751">
        <ele>880.22</ele>
        <time>2021-08-14T13:02:55Z</time>
      </trkpt>
      <trkpt lat="45.85799" lon="2.97767">
        <ele>881.19</ele>
        <time>2021-08-14T13:03:02Z</time>
      </trkpt>
      <trkpt lat="45.858" lon="2.97784">
        <ele>882.15</ele>
        <time>2021-08-14T13:03:09Z</time>
      </trkpt>
      <trkpt lat="45.85799" lon="2.97789">
        <ele>882.63</ele>
        <time>2021-08-14T13:03:11Z</time>
      </trkpt>
      <trkpt lat="45.85798" lon="2.97815">
        <ele>882.63</ele>
        <time>2021-08-14T13:03:18Z</time>
      </trkpt>
      <trkpt lat="45.85798" lon="2.97834">
        <ele>883.11</ele>
        <time>2021-08-14T13:03:24Z</time>
      </trkpt>
      <trkpt lat="45.85793" lon="2.97849">
        <ele>883.59</ele>
        <time>2021-08-14T13:03:31Z</time>
      </trkpt>
      <trkpt lat="45.85792" lon="2.9785">
        <ele>883.59</ele>
        <time>2021-08-14T13:03:32Z</time>
      </trkpt>
      <trkpt lat="45.85785" lon="2.97866">
        <ele>884.07</ele>
        <time>2021-08-14T13:03:40Z</time>
      </trkpt>
      <trkpt lat="45.85783" lon="2.97873">
        <ele>884.07</ele>
        <time>2021-08-14T13:03:43Z</time>
      </trkpt>
      <trkpt lat="45.85782" lon="2.97875">
        <ele>884.07</ele>
        <time>2021-08-14T13:03:44Z</time>
      </trkpt>
      <trkpt lat="45.85782" lon="2.97877">
        <ele>884.07</ele>
        <time>2021-08-14T13:03:45Z</time>
      </trkpt>
      <trkpt lat="45.85781" lon="2.9788">
        <ele>884.07</ele>
        <time>2021-08-14T13:03:46Z</time>
      </trkpt>
      <trkpt lat="45.8578" lon="2.97882">
        <ele>884.07</ele>
        <time>2021-08-14T13:03:47Z</time>
      </trkpt>
      <trkpt lat="45.85779" lon="2.97885">
        <ele>884.55</ele>
        <time>2021-08-14T13:03:48Z</time>
      </trkpt>
      <trkpt lat="45.85774" lon="2.97901">
        <ele>885.03</ele>
        <time>2021-08-14T13:03:56Z</time>
      </trkpt>
      <trkpt lat="45.85773" lon="2.97909">
        <ele>885.51</ele>
        <time>2021-08-14T13:03:59Z</time>
      </trkpt>
      <trkpt lat="45.85773" lon="2.97914">
        <ele>885.51</ele>
        <time>2021-08-14T13:04:00Z</time>
      </trkpt>
      <trkpt lat="45.85766" lon="2.97934">
        <ele>885.99</ele>
        <time>2021-08-14T13:04:06Z</time>
      </trkpt>
      <trkpt lat="45.85766" lon="2.97938">
        <ele>886.47</ele>
        <time>2021-08-14T13:04:07Z</time>
      </trkpt>
      <trkpt lat="45.85766" lon="2.9794">
        <ele>886.47</ele>
        <time>2021-08-14T13:04:08Z</time>
      </trkpt>
      <trkpt lat="45.85766" lon="2.97943">
        <ele>886.47</ele>
        <time>2021-08-14T13:04:09Z</time>
      </trkpt>
      <trkpt lat="45.85765" lon="2.97947">
        <ele>886.47</ele>
        <time>2021-08-14T13:04:10Z</time>
      </trkpt>
      <trkpt lat="45.85764" lon="2.9795">
        <ele>886.47</ele>
        <time>2021-08-14T13:04:11Z</time>
      </trkpt>
      <trkpt lat="45.85763" lon="2.97952">
        <ele>886.47</ele>
        <time>2021-08-14T13:04:12Z</time>
      </trkpt>
      <trkpt lat="45.85762" lon="2.97953">
        <ele>886.47</ele>
        <time>2021-08-14T13:04:13Z</time>
      </trkpt>
      <trkpt lat="45.85761" lon="2.97954">
        <ele>886.95</ele>
        <time>2021-08-14T13:04:14Z</time>
      </trkpt>
      <trkpt lat="45.85758" lon="2.97961">
        <ele>886.95</ele>
        <time>2021-08-14T13:04:17Z</time>
      </trkpt>
      <trkpt lat="45.85757" lon="2.97963">
        <ele>886.95</ele>
        <time>2021-08-14T13:04:18Z</time>
      </trkpt>
      <trkpt lat="45.85756" lon="2.97966">
        <ele>886.95</ele>
        <time>2021-08-14T13:04:19Z</time>
      </trkpt>
      <trkpt lat="45.85747" lon="2.97983">
        <ele>887.91</ele>
        <time>2021-08-14T13:04:27Z</time>
      </trkpt>
      <trkpt lat="45.85741" lon="2.97995">
        <ele>888.88</ele>
        <time>2021-08-14T13:04:33Z</time>
      </trkpt>
      <trkpt lat="45.8574" lon="2.97997">
        <ele>888.88</ele>
        <time>2021-08-14T13:04:34Z</time>
      </trkpt>
      <trkpt lat="45.85738" lon="2.97999">
        <ele>888.4</ele>
        <time>2021-08-14T13:04:35Z</time>
      </trkpt>
      <trkpt lat="45.85737" lon="2.98002">
        <ele>888.88</ele>
        <time>2021-08-14T13:04:36Z</time>
      </trkpt>
      <trkpt lat="45.85731" lon="2.98013">
        <ele>887.43</ele>
        <time>2021-08-14T13:04:39Z</time>
      </trkpt>
      <trkpt lat="45.8572" lon="2.98028">
        <ele>886.47</ele>
        <time>2021-08-14T13:04:43Z</time>
      </trkpt>
      <trkpt lat="45.85716" lon="2.98032">
        <ele>885.99</ele>
        <time>2021-08-14T13:04:44Z</time>
      </trkpt>
      <trkpt lat="45.85699" lon="2.98059">
        <ele>884.07</ele>
        <time>2021-08-14T13:04:49Z</time>
      </trkpt>
      <trkpt lat="45.85695" lon="2.98066">
        <ele>884.07</ele>
        <time>2021-08-14T13:04:50Z</time>
      </trkpt>
      <trkpt lat="45.85691" lon="2.98071">
        <ele>884.07</ele>
        <time>2021-08-14T13:04:51Z</time>
      </trkpt>
      <trkpt lat="45.85687" lon="2.98076">
        <ele>883.59</ele>
        <time>2021-08-14T13:04:52Z</time>
      </trkpt>
      <trkpt lat="45.85673" lon="2.98089">
        <ele>883.59</ele>
        <time>2021-08-14T13:04:55Z</time>
      </trkpt>
      <trkpt lat="45.85669" lon="2.98092">
        <ele>883.59</ele>
        <time>2021-08-14T13:04:56Z</time>
      </trkpt>
      <trkpt lat="45.85666" lon="2.98093">
        <ele>883.59</ele>
        <time>2021-08-14T13:04:57Z</time>
      </trkpt>
      <trkpt lat="45.85664" lon="2.98095">
        <ele>883.59</ele>
        <time>2021-08-14T13:04:58Z</time>
      </trkpt>
      <trkpt lat="45.85662" lon="2.98095">
        <ele>883.59</ele>
        <time>2021-08-14T13:04:59Z</time>
      </trkpt>
      <trkpt lat="45.85661" lon="2.98095">
        <ele>883.59</ele>
        <time>2021-08-14T13:05:00Z</time>
      </trkpt>
      <trkpt lat="45.8566" lon="2.98093">
        <ele>885.03</ele>
        <time>2021-08-14T13:05:01Z</time>
      </trkpt>
      <trkpt lat="45.8566" lon="2.98092">
        <ele>885.03</ele>
        <time>2021-08-14T13:05:02Z</time>
      </trkpt>
      <trkpt lat="45.8566" lon="2.9809">
        <ele>885.03</ele>
        <time>2021-08-14T13:05:03Z</time>
      </trkpt>
      <trkpt lat="45.8566" lon="2.98088">
        <ele>885.03</ele>
        <time>2021-08-14T13:05:04Z</time>
      </trkpt>
      <trkpt lat="45.85661" lon="2.98085">
        <ele>885.51</ele>
        <time>2021-08-14T13:05:05Z</time>
      </trkpt>
      <trkpt lat="45.85661" lon="2.98083">
        <ele>885.51</ele>
        <time>2021-08-14T13:05:06Z</time>
      </trkpt>
      <trkpt lat="45.85665" lon="2.9806">
        <ele>886.47</ele>
        <time>2021-08-14T13:05:14Z</time>
      </trkpt>
      <trkpt lat="45.85665" lon="2.98056">
        <ele>886.47</ele>
        <time>2021-08-14T13:05:15Z</time>
      </trkpt>
      <trkpt lat="45.85665" lon="2.98053">
        <ele>886.47</ele>
        <time>2021-08-14T13:05:16Z</time>
      </trkpt>
      <trkpt lat="45.85663" lon="2.98051">
        <ele>886.47</ele>
        <time>2021-08-14T13:05:17Z</time>
      </trkpt>
      <trkpt lat="45.85662" lon="2.98048">
        <ele>886.95</ele>
        <time>2021-08-14T13:05:18Z</time>
      </trkpt>
      <trkpt lat="45.8566" lon="2.98046">
        <ele>886.95</ele>
        <time>2021-08-14T13:05:19Z</time>
      </trkpt>
      <trkpt lat="45.85659" lon="2.98044">
        <ele>886.95</ele>
        <time>2021-08-14T13:05:20Z</time>
      </trkpt>
      <trkpt lat="45.85657" lon="2.98041">
        <ele>886.95</ele>
        <time>2021-08-14T13:05:21Z</time>
      </trkpt>
      <trkpt lat="45.85657" lon="2.98039">
        <ele>886.95</ele>
        <time>2021-08-14T13:05:22Z</time>
      </trkpt>
      <trkpt lat="45.85652" lon="2.98028">
        <ele>888.4</ele>
        <time>2021-08-14T13:05:29Z</time>
      </trkpt>
      <trkpt lat="45.85648" lon="2.98018">
        <ele>889.36</ele>
        <time>2021-08-14T13:05:37Z</time>
      </trkpt>
      <trkpt lat="45.85644" lon="2.98011">
        <ele>890.8</ele>
        <time>2021-08-14T13:05:44Z</time>
      </trkpt>
      <trkpt lat="45.85641" lon="2.98002">
        <ele>891.76</ele>
        <time>2021-08-14T13:05:51Z</time>
      </trkpt>
      <trkpt lat="45.85636" lon="2.97987">
        <ele>892.24</ele>
        <time>2021-08-14T13:05:59Z</time>
      </trkpt>
      <trkpt lat="45.85632" lon="2.97978">
        <ele>893.2</ele>
        <time>2021-08-14T13:06:07Z</time>
      </trkpt>
      <trkpt lat="45.85632" lon="2.97975">
        <ele>893.2</ele>
        <time>2021-08-14T13:06:09Z</time>
      </trkpt>
      <trkpt lat="45.85629" lon="2.97969">
        <ele>894.64</ele>
        <time>2021-08-14T13:06:16Z</time>
      </trkpt>
      <trkpt lat="45.85626" lon="2.97963">
        <ele>895.12</ele>
        <time>2021-08-14T13:06:24Z</time>
      </trkpt>
      <trkpt lat="45.8562" lon="2.97957">
        <ele>896.09</ele>
        <time>2021-08-14T13:06:32Z</time>
      </trkpt>
      <trkpt lat="45.85615" lon="2.97953">
        <ele>896.57</ele>
        <time>2021-08-14T13:06:38Z</time>
      </trkpt>
      <trkpt lat="45.8561" lon="2.97952">
        <ele>897.05</ele>
        <time>2021-08-14T13:06:46Z</time>
      </trkpt>
      <trkpt lat="45.85606" lon="2.97951">
        <ele>897.53</ele>
        <time>2021-08-14T13:06:52Z</time>
      </trkpt>
      <trkpt lat="45.85604" lon="2.97949">
        <ele>897.53</ele>
        <time>2021-08-14T13:06:54Z</time>
      </trkpt>
      <trkpt lat="45.85598" lon="2.97942">
        <ele>898.97</ele>
        <time>2021-08-14T13:07:02Z</time>
      </trkpt>
      <trkpt lat="45.85592" lon="2.9793">
        <ele>900.41</ele>
        <time>2021-08-14T13:07:09Z</time>
      </trkpt>
      <trkpt lat="45.85587" lon="2.97924">
        <ele>900.89</ele>
        <time>2021-08-14T13:07:15Z</time>
      </trkpt>
      <trkpt lat="45.85581" lon="2.97916">
        <ele>901.37</ele>
        <time>2021-08-14T13:07:22Z</time>
      </trkpt>
      <trkpt lat="45.85574" lon="2.97907">
        <ele>902.33</ele>
        <time>2021-08-14T13:07:31Z</time>
      </trkpt>
      <trkpt lat="45.8557" lon="2.97902">
        <ele>902.82</ele>
        <time>2021-08-14T13:07:37Z</time>
      </trkpt>
      <trkpt lat="45.85562" lon="2.97898">
        <ele>903.78</ele>
        <time>2021-08-14T13:07:45Z</time>
      </trkpt>
      <trkpt lat="45.85555" lon="2.97892">
        <ele>905.22</ele>
        <time>2021-08-14T13:07:53Z</time>
      </trkpt>
      <trkpt lat="45.85544" lon="2.97882">
        <ele>906.18</ele>
        <time>2021-08-14T13:08:00Z</time>
      </trkpt>
      <trkpt lat="45.85536" lon="2.97876">
        <ele>906.66</ele>
        <time>2021-08-14T13:08:06Z</time>
      </trkpt>
      <trkpt lat="45.85531" lon="2.97873">
        <ele>907.62</ele>
        <time>2021-08-14T13:08:13Z</time>
      </trkpt>
      <trkpt lat="45.85523" lon="2.97864">
        <ele>908.58</ele>
        <time>2021-08-14T13:08:20Z</time>
      </trkpt>
      <trkpt lat="45.8551" lon="2.97852">
        <ele>909.06</ele>
        <time>2021-08-14T13:08:30Z</time>
      </trkpt>
      <trkpt lat="45.85503" lon="2.97844">
        <ele>910.51</ele>
        <time>2021-08-14T13:08:36Z</time>
      </trkpt>
      <trkpt lat="45.85495" lon="2.97842">
        <ele>910.99</ele>
        <time>2021-08-14T13:08:42Z</time>
      </trkpt>
      <trkpt lat="45.85491" lon="2.9784">
        <ele>910.99</ele>
        <time>2021-08-14T13:08:57Z</time>
      </trkpt>
      <trkpt lat="45.85488" lon="2.97839">
        <ele>910.99</ele>
        <time>2021-08-14T13:09:04Z</time>
      </trkpt>
      <trkpt lat="45.85486" lon="2.9784">
        <ele>910.99</ele>
        <time>2021-08-14T13:09:05Z</time>
      </trkpt>
      <trkpt lat="45.85485" lon="2.97839">
        <ele>910.99</ele>
        <time>2021-08-14T13:09:06Z</time>
      </trkpt>
      <trkpt lat="45.85481" lon="2.97839">
        <ele>911.47</ele>
        <time>2021-08-14T13:09:10Z</time>
      </trkpt>
      <trkpt lat="45.85469" lon="2.97837">
        <ele>912.43</ele>
        <time>2021-08-14T13:09:18Z</time>
      </trkpt>
      <trkpt lat="45.85462" lon="2.97833">
        <ele>912.91</ele>
        <time>2021-08-14T13:09:22Z</time>
      </trkpt>
      <trkpt lat="45.85457" lon="2.97829">
        <ele>913.87</ele>
        <time>2021-08-14T13:09:27Z</time>
      </trkpt>
      <trkpt lat="45.85451" lon="2.97828">
        <ele>913.87</ele>
        <time>2021-08-14T13:09:32Z</time>
      </trkpt>
      <trkpt lat="45.85442" lon="2.97824">
        <ele>914.83</ele>
        <time>2021-08-14T13:09:39Z</time>
      </trkpt>
      <trkpt lat="45.85428" lon="2.97815">
        <ele>915.79</ele>
        <time>2021-08-14T13:09:47Z</time>
      </trkpt>
      <trkpt lat="45.85421" lon="2.97811">
        <ele>916.27</ele>
        <time>2021-08-14T13:09:53Z</time>
      </trkpt>
      <trkpt lat="45.8542" lon="2.97811">
        <ele>916.75</ele>
        <time>2021-08-14T13:09:54Z</time>
      </trkpt>
      <trkpt lat="45.85418" lon="2.97812">
        <ele>916.75</ele>
        <time>2021-08-14T13:09:55Z</time>
      </trkpt>
      <trkpt lat="45.85415" lon="2.97811">
        <ele>916.75</ele>
        <time>2021-08-14T13:09:56Z</time>
      </trkpt>
      <trkpt lat="45.85413" lon="2.97811">
        <ele>916.75</ele>
        <time>2021-08-14T13:09:57Z</time>
      </trkpt>
      <trkpt lat="45.854" lon="2.97808">
        <ele>917.72</ele>
        <time>2021-08-14T13:10:05Z</time>
      </trkpt>
      <trkpt lat="45.85398" lon="2.97807">
        <ele>917.72</ele>
        <time>2021-08-14T13:10:06Z</time>
      </trkpt>
      <trkpt lat="45.85396" lon="2.97806">
        <ele>917.72</ele>
        <time>2021-08-14T13:10:07Z</time>
      </trkpt>
      <trkpt lat="45.85394" lon="2.97806">
        <ele>917.72</ele>
        <time>2021-08-14T13:10:08Z</time>
      </trkpt>
      <trkpt lat="45.85393" lon="2.97806">
        <ele>917.72</ele>
        <time>2021-08-14T13:10:09Z</time>
      </trkpt>
      <trkpt lat="45.85392" lon="2.97806">
        <ele>918.2</ele>
        <time>2021-08-14T13:10:10Z</time>
      </trkpt>
      <trkpt lat="45.8539" lon="2.97806">
        <ele>918.2</ele>
        <time>2021-08-14T13:10:11Z</time>
      </trkpt>
      <trkpt lat="45.85381" lon="2.97802">
        <ele>919.16</ele>
        <time>2021-08-14T13:10:18Z</time>
      </trkpt>
      <trkpt lat="45.85379" lon="2.978">
        <ele>919.64</ele>
        <time>2021-08-14T13:10:20Z</time>
      </trkpt>
      <trkpt lat="45.8537" lon="2.97793">
        <ele>920.6</ele>
        <time>2021-08-14T13:10:28Z</time>
      </trkpt>
      <trkpt lat="45.85366" lon="2.97788">
        <ele>921.08</ele>
        <time>2021-08-14T13:10:32Z</time>
      </trkpt>
      <trkpt lat="45.8536" lon="2.97778">
        <ele>921.56</ele>
        <time>2021-08-14T13:10:40Z</time>
      </trkpt>
      <trkpt lat="45.85357" lon="2.97773">
        <ele>923</ele>
        <time>2021-08-14T13:10:48Z</time>
      </trkpt>
      <trkpt lat="45.85354" lon="2.97765">
        <ele>923.96</ele>
        <time>2021-08-14T13:10:56Z</time>
      </trkpt>
      <trkpt lat="45.85351" lon="2.97757">
        <ele>925.41</ele>
        <time>2021-08-14T13:11:04Z</time>
      </trkpt>
      <trkpt lat="45.85347" lon="2.97749">
        <ele>926.37</ele>
        <time>2021-08-14T13:11:13Z</time>
      </trkpt>
      <trkpt lat="45.85343" lon="2.9774">
        <ele>927.81</ele>
        <time>2021-08-14T13:11:23Z</time>
      </trkpt>
      <trkpt lat="45.85336" lon="2.97732">
        <ele>928.77</ele>
        <time>2021-08-14T13:11:31Z</time>
      </trkpt>
      <trkpt lat="45.85333" lon="2.97727">
        <ele>929.73</ele>
        <time>2021-08-14T13:11:39Z</time>
      </trkpt>
      <trkpt lat="45.85328" lon="2.97716">
        <ele>930.69</ele>
        <time>2021-08-14T13:11:48Z</time>
      </trkpt>
      <trkpt lat="45.85324" lon="2.97709">
        <ele>931.65</ele>
        <time>2021-08-14T13:11:57Z</time>
      </trkpt>
      <trkpt lat="45.85323" lon="2.97703">
        <ele>932.14</ele>
        <time>2021-08-14T13:12:04Z</time>
      </trkpt>
      <trkpt lat="45.85319" lon="2.97695">
        <ele>933.58</ele>
        <time>2021-08-14T13:12:11Z</time>
      </trkpt>
      <trkpt lat="45.85315" lon="2.97688">
        <ele>934.06</ele>
        <time>2021-08-14T13:12:18Z</time>
      </trkpt>
      <trkpt lat="45.8531" lon="2.97683">
        <ele>934.54</ele>
        <time>2021-08-14T13:12:26Z</time>
      </trkpt>
      <trkpt lat="45.85305" lon="2.97679">
        <ele>935.98</ele>
        <time>2021-08-14T13:12:34Z</time>
      </trkpt>
      <trkpt lat="45.85298" lon="2.97671">
        <ele>936.94</ele>
        <time>2021-08-14T13:12:42Z</time>
      </trkpt>
      <trkpt lat="45.85292" lon="2.97663">
        <ele>937.42</ele>
        <time>2021-08-14T13:12:50Z</time>
      </trkpt>
      <trkpt lat="45.85286" lon="2.97656">
        <ele>938.38</ele>
        <time>2021-08-14T13:12:59Z</time>
      </trkpt>
      <trkpt lat="45.8528" lon="2.9765">
        <ele>939.35</ele>
        <time>2021-08-14T13:13:07Z</time>
      </trkpt>
      <trkpt lat="45.85276" lon="2.97647">
        <ele>939.83</ele>
        <time>2021-08-14T13:13:12Z</time>
      </trkpt>
      <trkpt lat="45.85272" lon="2.9764">
        <ele>940.79</ele>
        <time>2021-08-14T13:13:19Z</time>
      </trkpt>
      <trkpt lat="45.85267" lon="2.97629">
        <ele>941.75</ele>
        <time>2021-08-14T13:13:28Z</time>
      </trkpt>
      <trkpt lat="45.85263" lon="2.9762">
        <ele>942.71</ele>
        <time>2021-08-14T13:13:35Z</time>
      </trkpt>
      <trkpt lat="45.85258" lon="2.97611">
        <ele>943.67</ele>
        <time>2021-08-14T13:13:43Z</time>
      </trkpt>
      <trkpt lat="45.85252" lon="2.97604">
        <ele>944.63</ele>
        <time>2021-08-14T13:13:50Z</time>
      </trkpt>
      <trkpt lat="45.85247" lon="2.97598">
        <ele>945.11</ele>
        <time>2021-08-14T13:13:58Z</time>
      </trkpt>
      <trkpt lat="45.85244" lon="2.97588">
        <ele>946.07</ele>
        <time>2021-08-14T13:14:06Z</time>
      </trkpt>
      <trkpt lat="45.85242" lon="2.97583">
        <ele>947.52</ele>
        <time>2021-08-14T13:14:14Z</time>
      </trkpt>
      <trkpt lat="45.85238" lon="2.97578">
        <ele>948</ele>
        <time>2021-08-14T13:14:20Z</time>
      </trkpt>
      <trkpt lat="45.85233" lon="2.97572">
        <ele>948.96</ele>
        <time>2021-08-14T13:14:29Z</time>
      </trkpt>
      <trkpt lat="45.85232" lon="2.97566">
        <ele>949.92</ele>
        <time>2021-08-14T13:14:37Z</time>
      </trkpt>
      <trkpt lat="45.8523" lon="2.97558">
        <ele>950.88</ele>
        <time>2021-08-14T13:14:46Z</time>
      </trkpt>
      <trkpt lat="45.85227" lon="2.9755">
        <ele>952.32</ele>
        <time>2021-08-14T13:14:55Z</time>
      </trkpt>
      <trkpt lat="45.85223" lon="2.97545">
        <ele>952.8</ele>
        <time>2021-08-14T13:15:03Z</time>
      </trkpt>
      <trkpt lat="45.85218" lon="2.9754">
        <ele>954.25</ele>
        <time>2021-08-14T13:15:12Z</time>
      </trkpt>
      <trkpt lat="45.85215" lon="2.97537">
        <ele>955.21</ele>
        <time>2021-08-14T13:15:20Z</time>
      </trkpt>
      <trkpt lat="45.85211" lon="2.97532">
        <ele>956.65</ele>
        <time>2021-08-14T13:15:29Z</time>
      </trkpt>
      <trkpt lat="45.85207" lon="2.97525">
        <ele>958.09</ele>
        <time>2021-08-14T13:15:38Z</time>
      </trkpt>
      <trkpt lat="45.85202" lon="2.97518">
        <ele>959.53</ele>
        <time>2021-08-14T13:15:47Z</time>
      </trkpt>
      <trkpt lat="45.852" lon="2.97511">
        <ele>960.98</ele>
        <time>2021-08-14T13:15:57Z</time>
      </trkpt>
      <trkpt lat="45.85197" lon="2.97505">
        <ele>961.94</ele>
        <time>2021-08-14T13:16:05Z</time>
      </trkpt>
      <trkpt lat="45.85194" lon="2.97501">
        <ele>962.9</ele>
        <time>2021-08-14T13:16:12Z</time>
      </trkpt>
      <trkpt lat="45.85191" lon="2.97496">
        <ele>963.86</ele>
        <time>2021-08-14T13:16:21Z</time>
      </trkpt>
      <trkpt lat="45.85188" lon="2.97491">
        <ele>964.82</ele>
        <time>2021-08-14T13:16:30Z</time>
      </trkpt>
      <trkpt lat="45.85183" lon="2.97484">
        <ele>966.26</ele>
        <time>2021-08-14T13:16:40Z</time>
      </trkpt>
      <trkpt lat="45.8518" lon="2.97479">
        <ele>967.22</ele>
        <time>2021-08-14T13:16:49Z</time>
      </trkpt>
      <trkpt lat="45.85176" lon="2.97471">
        <ele>968.18</ele>
        <time>2021-08-14T13:16:58Z</time>
      </trkpt>
      <trkpt lat="45.85172" lon="2.97465">
        <ele>969.63</ele>
        <time>2021-08-14T13:17:07Z</time>
      </trkpt>
      <trkpt lat="45.85168" lon="2.97458">
        <ele>970.59</ele>
        <time>2021-08-14T13:17:16Z</time>
      </trkpt>
      <trkpt lat="45.85163" lon="2.97449">
        <ele>971.55</ele>
        <time>2021-08-14T13:17:27Z</time>
      </trkpt>
      <trkpt lat="45.8516" lon="2.97442">
        <ele>972.51</ele>
        <time>2021-08-14T13:17:33Z</time>
      </trkpt>
      <trkpt lat="45.85155" lon="2.97435">
        <ele>973.47</ele>
        <time>2021-08-14T13:17:41Z</time>
      </trkpt>
      <trkpt lat="45.8515" lon="2.97427">
        <ele>973.95</ele>
        <time>2021-08-14T13:17:50Z</time>
      </trkpt>
      <trkpt lat="45.85146" lon="2.97415">
        <ele>975.39</ele>
        <time>2021-08-14T13:17:59Z</time>
      </trkpt>
      <trkpt lat="45.85142" lon="2.97406">
        <ele>976.36</ele>
        <time>2021-08-14T13:18:06Z</time>
      </trkpt>
      <trkpt lat="45.85136" lon="2.97397">
        <ele>976.36</ele>
        <time>2021-08-14T13:18:09Z</time>
      </trkpt>
      <trkpt lat="45.85138" lon="2.974">
        <ele>976.36</ele>
        <time>2021-08-14T13:18:12Z</time>
      </trkpt>
      <trkpt lat="45.85137" lon="2.97402">
        <ele>976.36</ele>
        <time>2021-08-14T13:18:19Z</time>
      </trkpt>
      <trkpt lat="45.85136" lon="2.97401">
        <ele>976.84</ele>
        <time>2021-08-14T13:18:34Z</time>
      </trkpt>
      <trkpt lat="45.85133" lon="2.97396">
        <ele>977.8</ele>
        <time>2021-08-14T13:18:42Z</time>
      </trkpt>
      <trkpt lat="45.85129" lon="2.97394">
        <ele>978.76</ele>
        <time>2021-08-14T13:18:51Z</time>
      </trkpt>
      <trkpt lat="45.85126" lon="2.97391">
        <ele>979.72</ele>
        <time>2021-08-14T13:18:58Z</time>
      </trkpt>
      <trkpt lat="45.85124" lon="2.97388">
        <ele>980.68</ele>
        <time>2021-08-14T13:19:05Z</time>
      </trkpt>
      <trkpt lat="45.85121" lon="2.97385">
        <ele>981.64</ele>
        <time>2021-08-14T13:19:13Z</time>
      </trkpt>
      <trkpt lat="45.85118" lon="2.97381">
        <ele>982.12</ele>
        <time>2021-08-14T13:19:22Z</time>
      </trkpt>
      <trkpt lat="45.85113" lon="2.97376">
        <ele>983.57</ele>
        <time>2021-08-14T13:19:31Z</time>
      </trkpt>
      <trkpt lat="45.85107" lon="2.97374">
        <ele>985.01</ele>
        <time>2021-08-14T13:19:42Z</time>
      </trkpt>
      <trkpt lat="45.85104" lon="2.9737">
        <ele>985.97</ele>
        <time>2021-08-14T13:19:50Z</time>
      </trkpt>
      <trkpt lat="45.85097" lon="2.97363">
        <ele>986.93</ele>
        <time>2021-08-14T13:19:59Z</time>
      </trkpt>
      <trkpt lat="45.85093" lon="2.9736">
        <ele>987.41</ele>
        <time>2021-08-14T13:20:09Z</time>
      </trkpt>
      <trkpt lat="45.8509" lon="2.97359">
        <ele>987.41</ele>
        <time>2021-08-14T13:20:21Z</time>
      </trkpt>
      <trkpt lat="45.85088" lon="2.97361">
        <ele>987.41</ele>
        <time>2021-08-14T13:20:29Z</time>
      </trkpt>
      <trkpt lat="45.85088" lon="2.97361">
        <ele>987.41</ele>
        <time>2021-08-14T13:20:43Z</time>
      </trkpt>
      <trkpt lat="45.85087" lon="2.97363">
        <ele>987.41</ele>
        <time>2021-08-14T13:20:56Z</time>
      </trkpt>
      <trkpt lat="45.85086" lon="2.97359">
        <ele>987.41</ele>
        <time>2021-08-14T13:21:12Z</time>
      </trkpt>
      <trkpt lat="45.8509" lon="2.97363">
        <ele>987.41</ele>
        <time>2021-08-14T13:21:30Z</time>
      </trkpt>
      <trkpt lat="45.85091" lon="2.97359">
        <ele>987.41</ele>
        <time>2021-08-14T13:21:48Z</time>
      </trkpt>
      <trkpt lat="45.85094" lon="2.97361">
        <ele>987.41</ele>
        <time>2021-08-14T13:22:07Z</time>
      </trkpt>
      <trkpt lat="45.85091" lon="2.97364">
        <ele>987.41</ele>
        <time>2021-08-14T13:22:24Z</time>
      </trkpt>
      <trkpt lat="45.85088" lon="2.97364">
        <ele>987.41</ele>
        <time>2021-08-14T13:22:40Z</time>
      </trkpt>
      <trkpt lat="45.85087" lon="2.97365">
        <ele>987.41</ele>
        <time>2021-08-14T13:22:53Z</time>
      </trkpt>
      <trkpt lat="45.85087" lon="2.97364">
        <ele>987.41</ele>
        <time>2021-08-14T13:23:08Z</time>
      </trkpt>
      <trkpt lat="45.85087" lon="2.97364">
        <ele>987.41</ele>
        <time>2021-08-14T13:23:20Z</time>
      </trkpt>
      <trkpt lat="45.85087" lon="2.97363">
        <ele>986.93</ele>
        <time>2021-08-14T13:23:41Z</time>
      </trkpt>
      <trkpt lat="45.85084" lon="2.97364">
        <ele>986.93</ele>
        <time>2021-08-14T13:23:52Z</time>
      </trkpt>
      <trkpt lat="45.85082" lon="2.97363">
        <ele>986.93</ele>
        <time>2021-08-14T13:24:03Z</time>
      </trkpt>
      <trkpt lat="45.85076" lon="2.97368">
        <ele>985.49</ele>
        <time>2021-08-14T13:24:10Z</time>
      </trkpt>
      <trkpt lat="45.85067" lon="2.97373">
        <ele>985.01</ele>
        <time>2021-08-14T13:24:19Z</time>
      </trkpt>
      <trkpt lat="45.8506" lon="2.97371">
        <ele>986.45</ele>
        <time>2021-08-14T13:24:28Z</time>
      </trkpt>
      <trkpt lat="45.85059" lon="2.97371">
        <ele>986.45</ele>
        <time>2021-08-14T13:24:29Z</time>
      </trkpt>
      <trkpt lat="45.85054" lon="2.97369">
        <ele>987.41</ele>
        <time>2021-08-14T13:24:38Z</time>
      </trkpt>
      <trkpt lat="45.85051" lon="2.97371">
        <ele>987.41</ele>
        <time>2021-08-14T13:24:52Z</time>
      </trkpt>
      <trkpt lat="45.85051" lon="2.9737">
        <ele>987.41</ele>
        <time>2021-08-14T13:25:05Z</time>
      </trkpt>
      <trkpt lat="45.85049" lon="2.97367">
        <ele>987.41</ele>
        <time>2021-08-14T13:25:19Z</time>
      </trkpt>
      <trkpt lat="45.85047" lon="2.97366">
        <ele>987.41</ele>
        <time>2021-08-14T13:25:29Z</time>
      </trkpt>
      <trkpt lat="45.8505" lon="2.97366">
        <ele>987.41</ele>
        <time>2021-08-14T13:25:40Z</time>
      </trkpt>
      <trkpt lat="45.85051" lon="2.97367">
        <ele>987.41</ele>
        <time>2021-08-14T13:25:42Z</time>
      </trkpt>
      <trkpt lat="45.85056" lon="2.9737">
        <ele>985.97</ele>
        <time>2021-08-14T13:25:49Z</time>
      </trkpt>
      <trkpt lat="45.8506" lon="2.97372">
        <ele>985.01</ele>
        <time>2021-08-14T13:25:55Z</time>
      </trkpt>
      <trkpt lat="45.85064" lon="2.97371">
        <ele>985.01</ele>
        <time>2021-08-14T13:25:58Z</time>
      </trkpt>
      <trkpt lat="45.85065" lon="2.9737">
        <ele>985.01</ele>
        <time>2021-08-14T13:25:59Z</time>
      </trkpt>
      <trkpt lat="45.85071" lon="2.97368">
        <ele>986.45</ele>
        <time>2021-08-14T13:26:05Z</time>
      </trkpt>
      <trkpt lat="45.85078" lon="2.97361">
        <ele>986.45</ele>
        <time>2021-08-14T13:26:14Z</time>
      </trkpt>
      <trkpt lat="45.85082" lon="2.97352">
        <ele>987.41</ele>
        <time>2021-08-14T13:26:23Z</time>
      </trkpt>
      <trkpt lat="45.85085" lon="2.97345">
        <ele>988.85</ele>
        <time>2021-08-14T13:26:32Z</time>
      </trkpt>
      <trkpt lat="45.85089" lon="2.97336">
        <ele>990.3</ele>
        <time>2021-08-14T13:26:42Z</time>
      </trkpt>
      <trkpt lat="45.85094" lon="2.97327">
        <ele>991.26</ele>
        <time>2021-08-14T13:26:52Z</time>
      </trkpt>
      <trkpt lat="45.85097" lon="2.97318">
        <ele>991.74</ele>
        <time>2021-08-14T13:27:01Z</time>
      </trkpt>
      <trkpt lat="45.85101" lon="2.9731">
        <ele>993.18</ele>
        <time>2021-08-14T13:27:10Z</time>
      </trkpt>
      <trkpt lat="45.85105" lon="2.97305">
        <ele>994.14</ele>
        <time>2021-08-14T13:27:20Z</time>
      </trkpt>
      <trkpt lat="45.8511" lon="2.97297">
        <ele>995.1</ele>
        <time>2021-08-14T13:27:29Z</time>
      </trkpt>
      <trkpt lat="45.85113" lon="2.97292">
        <ele>996.06</ele>
        <time>2021-08-14T13:27:36Z</time>
      </trkpt>
      <trkpt lat="45.8512" lon="2.97282">
        <ele>997.51</ele>
        <time>2021-08-14T13:27:46Z</time>
      </trkpt>
      <trkpt lat="45.85126" lon="2.97277">
        <ele>998.47</ele>
        <time>2021-08-14T13:27:55Z</time>
      </trkpt>
      <trkpt lat="45.8513" lon="2.9727">
        <ele>998.95</ele>
        <time>2021-08-14T13:28:03Z</time>
      </trkpt>
      <trkpt lat="45.85135" lon="2.97266">
        <ele>1000.39</ele>
        <time>2021-08-14T13:28:11Z</time>
      </trkpt>
      <trkpt lat="45.85141" lon="2.97262">
        <ele>1000.87</ele>
        <time>2021-08-14T13:28:19Z</time>
      </trkpt>
      <trkpt lat="45.85149" lon="2.97254">
        <ele>1001.83</ele>
        <time>2021-08-14T13:28:27Z</time>
      </trkpt>
      <trkpt lat="45.85153" lon="2.97247">
        <ele>1001.83</ele>
        <time>2021-08-14T13:28:31Z</time>
      </trkpt>
      <trkpt lat="45.85154" lon="2.97245">
        <ele>1001.83</ele>
        <time>2021-08-14T13:28:32Z</time>
      </trkpt>
      <trkpt lat="45.85154" lon="2.97241">
        <ele>1001.83</ele>
        <time>2021-08-14T13:28:34Z</time>
      </trkpt>
      <trkpt lat="45.85155" lon="2.97233">
        <ele>1002.31</ele>
        <time>2021-08-14T13:28:41Z</time>
      </trkpt>
      <trkpt lat="45.85155" lon="2.97231">
        <ele>1002.31</ele>
        <time>2021-08-14T13:28:42Z</time>
      </trkpt>
      <trkpt lat="45.85156" lon="2.97229">
        <ele>1002.31</ele>
        <time>2021-08-14T13:28:43Z</time>
      </trkpt>
      <trkpt lat="45.85156" lon="2.97227">
        <ele>1002.31</ele>
        <time>2021-08-14T13:28:44Z</time>
      </trkpt>
      <trkpt lat="45.85164" lon="2.97211">
        <ele>1002.79</ele>
        <time>2021-08-14T13:28:51Z</time>
      </trkpt>
      <trkpt lat="45.85174" lon="2.97194">
        <ele>1003.27</ele>
        <time>2021-08-14T13:28:58Z</time>
      </trkpt>
      <trkpt lat="45.85184" lon="2.97178">
        <ele>1003.27</ele>
        <time>2021-08-14T13:29:05Z</time>
      </trkpt>
      <trkpt lat="45.85197" lon="2.97156">
        <ele>1003.75</ele>
        <time>2021-08-14T13:29:13Z</time>
      </trkpt>
      <trkpt lat="45.85206" lon="2.9713">
        <ele>1004.23</ele>
        <time>2021-08-14T13:29:22Z</time>
      </trkpt>
      <trkpt lat="45.85212" lon="2.97098">
        <ele>1004.72</ele>
        <time>2021-08-14T13:29:31Z</time>
      </trkpt>
      <trkpt lat="45.85221" lon="2.97067">
        <ele>1005.68</ele>
        <time>2021-08-14T13:29:40Z</time>
      </trkpt>
      <trkpt lat="45.8523" lon="2.97046">
        <ele>1006.16</ele>
        <time>2021-08-14T13:29:47Z</time>
      </trkpt>
      <trkpt lat="45.85235" lon="2.97026">
        <ele>1006.64</ele>
        <time>2021-08-14T13:29:53Z</time>
      </trkpt>
      <trkpt lat="45.85236" lon="2.97019">
        <ele>1006.64</ele>
        <time>2021-08-14T13:29:55Z</time>
      </trkpt>
      <trkpt lat="45.85237" lon="2.97016">
        <ele>1007.12</ele>
        <time>2021-08-14T13:29:56Z</time>
      </trkpt>
      <trkpt lat="45.85238" lon="2.96993">
        <ele>1007.6</ele>
        <time>2021-08-14T13:30:03Z</time>
      </trkpt>
      <trkpt lat="45.8524" lon="2.96972">
        <ele>1008.08</ele>
        <time>2021-08-14T13:30:11Z</time>
      </trkpt>
      <trkpt lat="45.85243" lon="2.96953">
        <ele>1008.56</ele>
        <time>2021-08-14T13:30:18Z</time>
      </trkpt>
      <trkpt lat="45.85245" lon="2.9694">
        <ele>1009.04</ele>
        <time>2021-08-14T13:30:23Z</time>
      </trkpt>
      <trkpt lat="45.85246" lon="2.96938">
        <ele>1009.52</ele>
        <time>2021-08-14T13:30:24Z</time>
      </trkpt>
      <trkpt lat="45.85246" lon="2.96936">
        <ele>1009.52</ele>
        <time>2021-08-14T13:30:25Z</time>
      </trkpt>
      <trkpt lat="45.85247" lon="2.96933">
        <ele>1009.52</ele>
        <time>2021-08-14T13:30:26Z</time>
      </trkpt>
      <trkpt lat="45.85247" lon="2.9693">
        <ele>1009.52</ele>
        <time>2021-08-14T13:30:27Z</time>
      </trkpt>
      <trkpt lat="45.85247" lon="2.9692">
        <ele>1010</ele>
        <time>2021-08-14T13:30:31Z</time>
      </trkpt>
      <trkpt lat="45.85247" lon="2.96918">
        <ele>1010</ele>
        <time>2021-08-14T13:30:32Z</time>
      </trkpt>
      <trkpt lat="45.85246" lon="2.96917">
        <ele>1010</ele>
        <time>2021-08-14T13:30:33Z</time>
      </trkpt>
      <trkpt lat="45.85245" lon="2.96915">
        <ele>1010.48</ele>
        <time>2021-08-14T13:30:34Z</time>
      </trkpt>
      <trkpt lat="45.85245" lon="2.96913">
        <ele>1010.48</ele>
        <time>2021-08-14T13:30:35Z</time>
      </trkpt>
      <trkpt lat="45.85245" lon="2.96911">
        <ele>1010.48</ele>
        <time>2021-08-14T13:30:36Z</time>
      </trkpt>
      <trkpt lat="45.85244" lon="2.9691">
        <ele>1010.96</ele>
        <time>2021-08-14T13:30:37Z</time>
      </trkpt>
      <trkpt lat="45.85244" lon="2.96908">
        <ele>1010.96</ele>
        <time>2021-08-14T13:30:38Z</time>
      </trkpt>
      <trkpt lat="45.85241" lon="2.96891">
        <ele>1011.93</ele>
        <time>2021-08-14T13:30:45Z</time>
      </trkpt>
      <trkpt lat="45.85237" lon="2.96875">
        <ele>1012.41</ele>
        <time>2021-08-14T13:30:52Z</time>
      </trkpt>
      <trkpt lat="45.85233" lon="2.96856">
        <ele>1012.89</ele>
        <time>2021-08-14T13:30:59Z</time>
      </trkpt>
      <trkpt lat="45.85233" lon="2.9685">
        <ele>1013.37</ele>
        <time>2021-08-14T13:31:02Z</time>
      </trkpt>
      <trkpt lat="45.85233" lon="2.96848">
        <ele>1013.37</ele>
        <time>2021-08-14T13:31:03Z</time>
      </trkpt>
      <trkpt lat="45.85232" lon="2.96846">
        <ele>1013.37</ele>
        <time>2021-08-14T13:31:04Z</time>
      </trkpt>
      <trkpt lat="45.85232" lon="2.96844">
        <ele>1013.85</ele>
        <time>2021-08-14T13:31:05Z</time>
      </trkpt>
      <trkpt lat="45.85232" lon="2.96842">
        <ele>1013.85</ele>
        <time>2021-08-14T13:31:06Z</time>
      </trkpt>
      <trkpt lat="45.85233" lon="2.9684">
        <ele>1013.85</ele>
        <time>2021-08-14T13:31:07Z</time>
      </trkpt>
      <trkpt lat="45.85233" lon="2.96838">
        <ele>1013.85</ele>
        <time>2021-08-14T13:31:08Z</time>
      </trkpt>
      <trkpt lat="45.85233" lon="2.96836">
        <ele>1013.85</ele>
        <time>2021-08-14T13:31:09Z</time>
      </trkpt>
      <trkpt lat="45.85234" lon="2.96821">
        <ele>1014.81</ele>
        <time>2021-08-14T13:31:17Z</time>
      </trkpt>
      <trkpt lat="45.85237" lon="2.96804">
        <ele>1015.77</ele>
        <time>2021-08-14T13:31:25Z</time>
      </trkpt>
      <trkpt lat="45.85239" lon="2.968">
        <ele>1015.77</ele>
        <time>2021-08-14T13:31:27Z</time>
      </trkpt>
      <trkpt lat="45.85239" lon="2.96798">
        <ele>1015.77</ele>
        <time>2021-08-14T13:31:28Z</time>
      </trkpt>
      <trkpt lat="45.85239" lon="2.96795">
        <ele>1015.77</ele>
        <time>2021-08-14T13:31:29Z</time>
      </trkpt>
      <trkpt lat="45.8524" lon="2.96792">
        <ele>1015.77</ele>
        <time>2021-08-14T13:31:30Z</time>
      </trkpt>
      <trkpt lat="45.85241" lon="2.9679">
        <ele>1015.77</ele>
        <time>2021-08-14T13:31:31Z</time>
      </trkpt>
      <trkpt lat="45.85242" lon="2.96788">
        <ele>1016.25</ele>
        <time>2021-08-14T13:31:32Z</time>
      </trkpt>
      <trkpt lat="45.85243" lon="2.96787">
        <ele>1016.25</ele>
        <time>2021-08-14T13:31:33Z</time>
      </trkpt>
      <trkpt lat="45.85244" lon="2.96784">
        <ele>1016.25</ele>
        <time>2021-08-14T13:31:34Z</time>
      </trkpt>
      <trkpt lat="45.85253" lon="2.9677">
        <ele>1016.25</ele>
        <time>2021-08-14T13:31:41Z</time>
      </trkpt>
      <trkpt lat="45.85263" lon="2.96755">
        <ele>1016.25</ele>
        <time>2021-08-14T13:31:47Z</time>
      </trkpt>
      <trkpt lat="45.85273" lon="2.96737">
        <ele>1016.25</ele>
        <time>2021-08-14T13:31:53Z</time>
      </trkpt>
      <trkpt lat="45.8528" lon="2.96709">
        <ele>1016.73</ele>
        <time>2021-08-14T13:31:59Z</time>
      </trkpt>
      <trkpt lat="45.85286" lon="2.96681">
        <ele>1017.21</ele>
        <time>2021-08-14T13:32:07Z</time>
      </trkpt>
      <trkpt lat="45.85287" lon="2.96671">
        <ele>1018.17</ele>
        <time>2021-08-14T13:32:10Z</time>
      </trkpt>
      <trkpt lat="45.85287" lon="2.96666">
        <ele>1018.65</ele>
        <time>2021-08-14T13:32:12Z</time>
      </trkpt>
      <trkpt lat="45.85284" lon="2.96658">
        <ele>1019.62</ele>
        <time>2021-08-14T13:32:17Z</time>
      </trkpt>
      <trkpt lat="45.85282" lon="2.96653">
        <ele>1019.13</ele>
        <time>2021-08-14T13:32:20Z</time>
      </trkpt>
      <trkpt lat="45.85281" lon="2.9665">
        <ele>1019.62</ele>
        <time>2021-08-14T13:32:21Z</time>
      </trkpt>
      <trkpt lat="45.8528" lon="2.96648">
        <ele>1019.62</ele>
        <time>2021-08-14T13:32:22Z</time>
      </trkpt>
      <trkpt lat="45.85277" lon="2.9664">
        <ele>1019.62</ele>
        <time>2021-08-14T13:32:25Z</time>
      </trkpt>
      <trkpt lat="45.85277" lon="2.96638">
        <ele>1019.62</ele>
        <time>2021-08-14T13:32:26Z</time>
      </trkpt>
      <trkpt lat="45.85276" lon="2.96636">
        <ele>1020.1</ele>
        <time>2021-08-14T13:32:27Z</time>
      </trkpt>
      <trkpt lat="45.85273" lon="2.96631">
        <ele>1020.58</ele>
        <time>2021-08-14T13:32:30Z</time>
      </trkpt>
      <trkpt lat="45.85273" lon="2.96629">
        <ele>1020.58</ele>
        <time>2021-08-14T13:32:31Z</time>
      </trkpt>
      <trkpt lat="45.85272" lon="2.96627">
        <ele>1020.58</ele>
        <time>2021-08-14T13:32:32Z</time>
      </trkpt>
      <trkpt lat="45.85265" lon="2.96606">
        <ele>1021.54</ele>
        <time>2021-08-14T13:32:40Z</time>
      </trkpt>
      <trkpt lat="45.85259" lon="2.96585">
        <ele>1022.02</ele>
        <time>2021-08-14T13:32:48Z</time>
      </trkpt>
      <trkpt lat="45.85252" lon="2.96566">
        <ele>1022.98</ele>
        <time>2021-08-14T13:32:56Z</time>
      </trkpt>
      <trkpt lat="45.85246" lon="2.9655">
        <ele>1023.94</ele>
        <time>2021-08-14T13:33:03Z</time>
      </trkpt>
      <trkpt lat="45.8524" lon="2.96537">
        <ele>1024.42</ele>
        <time>2021-08-14T13:33:09Z</time>
      </trkpt>
      <trkpt lat="45.85239" lon="2.96534">
        <ele>1024.9</ele>
        <time>2021-08-14T13:33:10Z</time>
      </trkpt>
      <trkpt lat="45.85238" lon="2.96532">
        <ele>1024.9</ele>
        <time>2021-08-14T13:33:11Z</time>
      </trkpt>
      <trkpt lat="45.85237" lon="2.96529">
        <ele>1024.9</ele>
        <time>2021-08-14T13:33:12Z</time>
      </trkpt>
      <trkpt lat="45.85237" lon="2.96527">
        <ele>1024.9</ele>
        <time>2021-08-14T13:33:13Z</time>
      </trkpt>
      <trkpt lat="45.85227" lon="2.96507">
        <ele>1026.34</ele>
        <time>2021-08-14T13:33:23Z</time>
      </trkpt>
      <trkpt lat="45.85218" lon="2.96485">
        <ele>1028.27</ele>
        <time>2021-08-14T13:33:35Z</time>
      </trkpt>
      <trkpt lat="45.85213" lon="2.9647">
        <ele>1029.71</ele>
        <time>2021-08-14T13:33:43Z</time>
      </trkpt>
      <trkpt lat="45.85207" lon="2.9646">
        <ele>1030.19</ele>
        <time>2021-08-14T13:33:49Z</time>
      </trkpt>
      <trkpt lat="45.85206" lon="2.96458">
        <ele>1030.19</ele>
        <time>2021-08-14T13:33:50Z</time>
      </trkpt>
      <trkpt lat="45.85205" lon="2.96457">
        <ele>1030.19</ele>
        <time>2021-08-14T13:33:51Z</time>
      </trkpt>
      <trkpt lat="45.85204" lon="2.96454">
        <ele>1030.67</ele>
        <time>2021-08-14T13:33:52Z</time>
      </trkpt>
      <trkpt lat="45.85203" lon="2.96453">
        <ele>1030.67</ele>
        <time>2021-08-14T13:33:53Z</time>
      </trkpt>
      <trkpt lat="45.852" lon="2.96447">
        <ele>1031.15</ele>
        <time>2021-08-14T13:33:57Z</time>
      </trkpt>
      <trkpt lat="45.85199" lon="2.96446">
        <ele>1031.15</ele>
        <time>2021-08-14T13:33:58Z</time>
      </trkpt>
      <trkpt lat="45.85198" lon="2.96444">
        <ele>1031.15</ele>
        <time>2021-08-14T13:33:59Z</time>
      </trkpt>
      <trkpt lat="45.85197" lon="2.96443">
        <ele>1031.15</ele>
        <time>2021-08-14T13:34:00Z</time>
      </trkpt>
      <trkpt lat="45.85195" lon="2.96442">
        <ele>1031.63</ele>
        <time>2021-08-14T13:34:01Z</time>
      </trkpt>
      <trkpt lat="45.85194" lon="2.96441">
        <ele>1031.63</ele>
        <time>2021-08-14T13:34:02Z</time>
      </trkpt>
      <trkpt lat="45.85193" lon="2.96439">
        <ele>1031.63</ele>
        <time>2021-08-14T13:34:03Z</time>
      </trkpt>
      <trkpt lat="45.85184" lon="2.96429">
        <ele>1032.11</ele>
        <time>2021-08-14T13:34:10Z</time>
      </trkpt>
      <trkpt lat="45.85174" lon="2.96416">
        <ele>1032.59</ele>
        <time>2021-08-14T13:34:18Z</time>
      </trkpt>
      <trkpt lat="45.85168" lon="2.96408">
        <ele>1033.55</ele>
        <time>2021-08-14T13:34:23Z</time>
      </trkpt>
      <trkpt lat="45.85167" lon="2.96406">
        <ele>1033.55</ele>
        <time>2021-08-14T13:34:24Z</time>
      </trkpt>
      <trkpt lat="45.85165" lon="2.96404">
        <ele>1033.55</ele>
        <time>2021-08-14T13:34:25Z</time>
      </trkpt>
      <trkpt lat="45.85164" lon="2.96402">
        <ele>1033.55</ele>
        <time>2021-08-14T13:34:26Z</time>
      </trkpt>
      <trkpt lat="45.85162" lon="2.964">
        <ele>1033.55</ele>
        <time>2021-08-14T13:34:27Z</time>
      </trkpt>
      <trkpt lat="45.85159" lon="2.96396">
        <ele>1033.55</ele>
        <time>2021-08-14T13:34:33Z</time>
      </trkpt>
      <trkpt lat="45.85156" lon="2.96392">
        <ele>1034.04</ele>
        <time>2021-08-14T13:34:48Z</time>
      </trkpt>
      <trkpt lat="45.85157" lon="2.96394">
        <ele>1034.04</ele>
        <time>2021-08-14T13:35:08Z</time>
      </trkpt>
      <trkpt lat="45.85158" lon="2.96397">
        <ele>1034.04</ele>
        <time>2021-08-14T13:35:25Z</time>
      </trkpt>
      <trkpt lat="45.85159" lon="2.96396">
        <ele>1034.52</ele>
        <time>2021-08-14T13:35:36Z</time>
      </trkpt>
      <trkpt lat="45.8516" lon="2.96395">
        <ele>1034.52</ele>
        <time>2021-08-14T13:35:37Z</time>
      </trkpt>
      <trkpt lat="45.85162" lon="2.96393">
        <ele>1034.52</ele>
        <time>2021-08-14T13:35:43Z</time>
      </trkpt>
      <trkpt lat="45.85159" lon="2.96394">
        <ele>1034.52</ele>
        <time>2021-08-14T13:35:58Z</time>
      </trkpt>
      <trkpt lat="45.85156" lon="2.96395">
        <ele>1034.52</ele>
        <time>2021-08-14T13:36:14Z</time>
      </trkpt>
      <trkpt lat="45.85157" lon="2.96393">
        <ele>1034.52</ele>
        <time>2021-08-14T13:36:29Z</time>
      </trkpt>
      <trkpt lat="45.85158" lon="2.96394">
        <ele>1034.52</ele>
        <time>2021-08-14T13:36:44Z</time>
      </trkpt>
      <trkpt lat="45.85159" lon="2.96399">
        <ele>1034.52</ele>
        <time>2021-08-14T13:36:58Z</time>
      </trkpt>
      <trkpt lat="45.85156" lon="2.96402">
        <ele>1034.52</ele>
        <time>2021-08-14T13:37:17Z</time>
      </trkpt>
      <trkpt lat="45.85154" lon="2.96401">
        <ele>1034.52</ele>
        <time>2021-08-14T13:37:23Z</time>
      </trkpt>
      <trkpt lat="45.8515" lon="2.96392">
        <ele>1034.52</ele>
        <time>2021-08-14T13:37:27Z</time>
      </trkpt>
      <trkpt lat="45.85149" lon="2.9639">
        <ele>1034.52</ele>
        <time>2021-08-14T13:37:28Z</time>
      </trkpt>
      <trkpt lat="45.85135" lon="2.96369">
        <ele>1033.55</ele>
        <time>2021-08-14T13:37:35Z</time>
      </trkpt>
      <trkpt lat="45.85119" lon="2.96346">
        <ele>1031.15</ele>
        <time>2021-08-14T13:37:41Z</time>
      </trkpt>
      <trkpt lat="45.85103" lon="2.96326">
        <ele>1029.71</ele>
        <time>2021-08-14T13:37:46Z</time>
      </trkpt>
      <trkpt lat="45.8509" lon="2.96307">
        <ele>1027.79</ele>
        <time>2021-08-14T13:37:51Z</time>
      </trkpt>
      <trkpt lat="45.85074" lon="2.96281">
        <ele>1025.38</ele>
        <time>2021-08-14T13:37:58Z</time>
      </trkpt>
      <trkpt lat="45.85071" lon="2.96271">
        <ele>1024.9</ele>
        <time>2021-08-14T13:38:00Z</time>
      </trkpt>
      <trkpt lat="45.85069" lon="2.96267">
        <ele>1024.42</ele>
        <time>2021-08-14T13:38:01Z</time>
      </trkpt>
      <trkpt lat="45.85067" lon="2.96263">
        <ele>1023.94</ele>
        <time>2021-08-14T13:38:02Z</time>
      </trkpt>
      <trkpt lat="45.85062" lon="2.9625">
        <ele>1022.5</ele>
        <time>2021-08-14T13:38:05Z</time>
      </trkpt>
      <trkpt lat="45.85059" lon="2.96244">
        <ele>1021.54</ele>
        <time>2021-08-14T13:38:06Z</time>
      </trkpt>
      <trkpt lat="45.85056" lon="2.96238">
        <ele>1021.06</ele>
        <time>2021-08-14T13:38:07Z</time>
      </trkpt>
      <trkpt lat="45.85052" lon="2.96232">
        <ele>1020.58</ele>
        <time>2021-08-14T13:38:08Z</time>
      </trkpt>
      <trkpt lat="45.8505" lon="2.96227">
        <ele>1019.62</ele>
        <time>2021-08-14T13:38:09Z</time>
      </trkpt>
      <trkpt lat="45.85047" lon="2.9622">
        <ele>1019.13</ele>
        <time>2021-08-14T13:38:10Z</time>
      </trkpt>
      <trkpt lat="45.85045" lon="2.96215">
        <ele>1018.65</ele>
        <time>2021-08-14T13:38:11Z</time>
      </trkpt>
      <trkpt lat="45.85042" lon="2.96211">
        <ele>1018.17</ele>
        <time>2021-08-14T13:38:12Z</time>
      </trkpt>
      <trkpt lat="45.85029" lon="2.96197">
        <ele>1016.73</ele>
        <time>2021-08-14T13:38:17Z</time>
      </trkpt>
      <trkpt lat="45.85018" lon="2.9619">
        <ele>1015.77</ele>
        <time>2021-08-14T13:38:23Z</time>
      </trkpt>
      <trkpt lat="45.85008" lon="2.96181">
        <ele>1014.33</ele>
        <time>2021-08-14T13:38:26Z</time>
      </trkpt>
      <trkpt lat="45.85003" lon="2.96178">
        <ele>1013.85</ele>
        <time>2021-08-14T13:38:27Z</time>
      </trkpt>
      <trkpt lat="45.84994" lon="2.96172">
        <ele>1013.37</ele>
        <time>2021-08-14T13:38:29Z</time>
      </trkpt>
      <trkpt lat="45.84987" lon="2.96165">
        <ele>1012.41</ele>
        <time>2021-08-14T13:38:31Z</time>
      </trkpt>
      <trkpt lat="45.84967" lon="2.96141">
        <ele>1010.96</ele>
        <time>2021-08-14T13:38:36Z</time>
      </trkpt>
      <trkpt lat="45.84963" lon="2.96136">
        <ele>1010</ele>
        <time>2021-08-14T13:38:37Z</time>
      </trkpt>
      <trkpt lat="45.84935" lon="2.96103">
        <ele>1008.08</ele>
        <time>2021-08-14T13:38:43Z</time>
      </trkpt>
      <trkpt lat="45.84922" lon="2.96089">
        <ele>1007.6</ele>
        <time>2021-08-14T13:38:46Z</time>
      </trkpt>
      <trkpt lat="45.84918" lon="2.96086">
        <ele>1007.12</ele>
        <time>2021-08-14T13:38:47Z</time>
      </trkpt>
      <trkpt lat="45.84914" lon="2.96084">
        <ele>1007.12</ele>
        <time>2021-08-14T13:38:48Z</time>
      </trkpt>
      <trkpt lat="45.84909" lon="2.96081">
        <ele>1007.12</ele>
        <time>2021-08-14T13:38:49Z</time>
      </trkpt>
      <trkpt lat="45.84906" lon="2.9608">
        <ele>1007.12</ele>
        <time>2021-08-14T13:38:50Z</time>
      </trkpt>
      <trkpt lat="45.84903" lon="2.96078">
        <ele>1007.12</ele>
        <time>2021-08-14T13:38:51Z</time>
      </trkpt>
      <trkpt lat="45.84898" lon="2.96073">
        <ele>1007.6</ele>
        <time>2021-08-14T13:38:54Z</time>
      </trkpt>
      <trkpt lat="45.84897" lon="2.96072">
        <ele>1007.6</ele>
        <time>2021-08-14T13:38:55Z</time>
      </trkpt>
      <trkpt lat="45.84884" lon="2.96053">
        <ele>1005.68</ele>
        <time>2021-08-14T13:39:00Z</time>
      </trkpt>
      <trkpt lat="45.8488" lon="2.96048">
        <ele>1005.68</ele>
        <time>2021-08-14T13:39:01Z</time>
      </trkpt>
      <trkpt lat="45.84877" lon="2.96044">
        <ele>1005.2</ele>
        <time>2021-08-14T13:39:02Z</time>
      </trkpt>
      <trkpt lat="45.84873" lon="2.96039">
        <ele>1004.72</ele>
        <time>2021-08-14T13:39:03Z</time>
      </trkpt>
      <trkpt lat="45.84867" lon="2.96035">
        <ele>1004.23</ele>
        <time>2021-08-14T13:39:04Z</time>
      </trkpt>
      <trkpt lat="45.84862" lon="2.9603">
        <ele>1004.23</ele>
        <time>2021-08-14T13:39:05Z</time>
      </trkpt>
      <trkpt lat="45.84857" lon="2.96024">
        <ele>1003.75</ele>
        <time>2021-08-14T13:39:06Z</time>
      </trkpt>
      <trkpt lat="45.84851" lon="2.96017">
        <ele>1002.79</ele>
        <time>2021-08-14T13:39:07Z</time>
      </trkpt>
      <trkpt lat="45.84846" lon="2.9601">
        <ele>1002.79</ele>
        <time>2021-08-14T13:39:08Z</time>
      </trkpt>
      <trkpt lat="45.84841" lon="2.96003">
        <ele>1002.79</ele>
        <time>2021-08-14T13:39:09Z</time>
      </trkpt>
      <trkpt lat="45.84838" lon="2.95996">
        <ele>1002.79</ele>
        <time>2021-08-14T13:39:10Z</time>
      </trkpt>
      <trkpt lat="45.84835" lon="2.9599">
        <ele>1002.79</ele>
        <time>2021-08-14T13:39:11Z</time>
      </trkpt>
      <trkpt lat="45.84833" lon="2.95984">
        <ele>1001.83</ele>
        <time>2021-08-14T13:39:12Z</time>
      </trkpt>
      <trkpt lat="45.8483" lon="2.95978">
        <ele>1001.83</ele>
        <time>2021-08-14T13:39:13Z</time>
      </trkpt>
      <trkpt lat="45.84827" lon="2.95972">
        <ele>1001.83</ele>
        <time>2021-08-14T13:39:14Z</time>
      </trkpt>
      <trkpt lat="45.84824" lon="2.95966">
        <ele>1001.83</ele>
        <time>2021-08-14T13:39:15Z</time>
      </trkpt>
      <trkpt lat="45.84821" lon="2.95961">
        <ele>1001.83</ele>
        <time>2021-08-14T13:39:16Z</time>
      </trkpt>
      <trkpt lat="45.84817" lon="2.95955">
        <ele>1002.31</ele>
        <time>2021-08-14T13:39:17Z</time>
      </trkpt>
      <trkpt lat="45.84813" lon="2.9595">
        <ele>1001.83</ele>
        <time>2021-08-14T13:39:18Z</time>
      </trkpt>
      <trkpt lat="45.84808" lon="2.95945">
        <ele>1001.35</ele>
        <time>2021-08-14T13:39:19Z</time>
      </trkpt>
      <trkpt lat="45.84804" lon="2.95941">
        <ele>1001.35</ele>
        <time>2021-08-14T13:39:20Z</time>
      </trkpt>
      <trkpt lat="45.848" lon="2.95936">
        <ele>1001.35</ele>
        <time>2021-08-14T13:39:21Z</time>
      </trkpt>
      <trkpt lat="45.84781" lon="2.95909">
        <ele>1001.35</ele>
        <time>2021-08-14T13:39:27Z</time>
      </trkpt>
      <trkpt lat="45.84768" lon="2.95894">
        <ele>1001.35</ele>
        <time>2021-08-14T13:39:33Z</time>
      </trkpt>
      <trkpt lat="45.84761" lon="2.95888">
        <ele>1002.79</ele>
        <time>2021-08-14T13:39:36Z</time>
      </trkpt>
      <trkpt lat="45.84747" lon="2.9587">
        <ele>1003.27</ele>
        <time>2021-08-14T13:39:44Z</time>
      </trkpt>
      <trkpt lat="45.84734" lon="2.95861">
        <ele>1003.75</ele>
        <time>2021-08-14T13:39:50Z</time>
      </trkpt>
      <trkpt lat="45.84721" lon="2.95851">
        <ele>1005.2</ele>
        <time>2021-08-14T13:39:56Z</time>
      </trkpt>
      <trkpt lat="45.84709" lon="2.95843">
        <ele>1006.16</ele>
        <time>2021-08-14T13:40:03Z</time>
      </trkpt>
      <trkpt lat="45.84693" lon="2.95837">
        <ele>1007.6</ele>
        <time>2021-08-14T13:40:12Z</time>
      </trkpt>
      <trkpt lat="45.84676" lon="2.95833">
        <ele>1008.56</ele>
        <time>2021-08-14T13:40:21Z</time>
      </trkpt>
      <trkpt lat="45.84662" lon="2.95828">
        <ele>1010</ele>
        <time>2021-08-14T13:40:30Z</time>
      </trkpt>
      <trkpt lat="45.84658" lon="2.95826">
        <ele>1010.48</ele>
        <time>2021-08-14T13:40:33Z</time>
      </trkpt>
      <trkpt lat="45.84657" lon="2.95826">
        <ele>1010.48</ele>
        <time>2021-08-14T13:40:34Z</time>
      </trkpt>
      <trkpt lat="45.84655" lon="2.95825">
        <ele>1010.96</ele>
        <time>2021-08-14T13:40:35Z</time>
      </trkpt>
      <trkpt lat="45.84653" lon="2.95825">
        <ele>1010.96</ele>
        <time>2021-08-14T13:40:36Z</time>
      </trkpt>
      <trkpt lat="45.84652" lon="2.95825">
        <ele>1010.96</ele>
        <time>2021-08-14T13:40:37Z</time>
      </trkpt>
      <trkpt lat="45.8465" lon="2.95825">
        <ele>1011.44</ele>
        <time>2021-08-14T13:40:38Z</time>
      </trkpt>
      <trkpt lat="45.84648" lon="2.95825">
        <ele>1011.44</ele>
        <time>2021-08-14T13:40:39Z</time>
      </trkpt>
      <trkpt lat="45.8464" lon="2.95823">
        <ele>1011.93</ele>
        <time>2021-08-14T13:40:45Z</time>
      </trkpt>
      <trkpt lat="45.84627" lon="2.9582">
        <ele>1012.41</ele>
        <time>2021-08-14T13:40:53Z</time>
      </trkpt>
      <trkpt lat="45.84617" lon="2.95817">
        <ele>1013.37</ele>
        <time>2021-08-14T13:41:00Z</time>
      </trkpt>
      <trkpt lat="45.84603" lon="2.95814">
        <ele>1013.85</ele>
        <time>2021-08-14T13:41:07Z</time>
      </trkpt>
      <trkpt lat="45.84586" lon="2.9581">
        <ele>1014.33</ele>
        <time>2021-08-14T13:41:13Z</time>
      </trkpt>
      <trkpt lat="45.84566" lon="2.95804">
        <ele>1014.33</ele>
        <time>2021-08-14T13:41:20Z</time>
      </trkpt>
      <trkpt lat="45.84545" lon="2.95797">
        <ele>1014.33</ele>
        <time>2021-08-14T13:41:27Z</time>
      </trkpt>
      <trkpt lat="45.84523" lon="2.95787">
        <ele>1015.29</ele>
        <time>2021-08-14T13:41:35Z</time>
      </trkpt>
      <trkpt lat="45.84503" lon="2.95779">
        <ele>1016.25</ele>
        <time>2021-08-14T13:41:43Z</time>
      </trkpt>
      <trkpt lat="45.84494" lon="2.95776">
        <ele>1016.73</ele>
        <time>2021-08-14T13:41:47Z</time>
      </trkpt>
      <trkpt lat="45.84491" lon="2.95776">
        <ele>1016.73</ele>
        <time>2021-08-14T13:41:48Z</time>
      </trkpt>
      <trkpt lat="45.84488" lon="2.95776">
        <ele>1016.73</ele>
        <time>2021-08-14T13:41:49Z</time>
      </trkpt>
      <trkpt lat="45.84486" lon="2.95775">
        <ele>1016.73</ele>
        <time>2021-08-14T13:41:50Z</time>
      </trkpt>
      <trkpt lat="45.84484" lon="2.95776">
        <ele>1016.73</ele>
        <time>2021-08-14T13:41:51Z</time>
      </trkpt>
      <trkpt lat="45.84481" lon="2.95776">
        <ele>1016.73</ele>
        <time>2021-08-14T13:41:52Z</time>
      </trkpt>
      <trkpt lat="45.84479" lon="2.95775">
        <ele>1016.73</ele>
        <time>2021-08-14T13:41:53Z</time>
      </trkpt>
      <trkpt lat="45.84461" lon="2.95766">
        <ele>1017.21</ele>
        <time>2021-08-14T13:41:59Z</time>
      </trkpt>
      <trkpt lat="45.84452" lon="2.95761">
        <ele>1015.29</ele>
        <time>2021-08-14T13:42:01Z</time>
      </trkpt>
      <trkpt lat="45.84447" lon="2.95759">
        <ele>1015.29</ele>
        <time>2021-08-14T13:42:02Z</time>
      </trkpt>
      <trkpt lat="45.84444" lon="2.95756">
        <ele>1014.81</ele>
        <time>2021-08-14T13:42:03Z</time>
      </trkpt>
      <trkpt lat="45.84427" lon="2.95748">
        <ele>1013.85</ele>
        <time>2021-08-14T13:42:06Z</time>
      </trkpt>
      <trkpt lat="45.84408" lon="2.95743">
        <ele>1012.41</ele>
        <time>2021-08-14T13:42:09Z</time>
      </trkpt>
      <trkpt lat="45.844" lon="2.95742">
        <ele>1012.41</ele>
        <time>2021-08-14T13:42:10Z</time>
      </trkpt>
      <trkpt lat="45.84394" lon="2.95741">
        <ele>1011.93</ele>
        <time>2021-08-14T13:42:11Z</time>
      </trkpt>
      <trkpt lat="45.84335" lon="2.95728">
        <ele>1010.48</ele>
        <time>2021-08-14T13:42:19Z</time>
      </trkpt>
      <trkpt lat="45.84329" lon="2.95726">
        <ele>1010.48</ele>
        <time>2021-08-14T13:42:20Z</time>
      </trkpt>
      <trkpt lat="45.84322" lon="2.95724">
        <ele>1010.48</ele>
        <time>2021-08-14T13:42:21Z</time>
      </trkpt>
      <trkpt lat="45.84315" lon="2.95723">
        <ele>1010.48</ele>
        <time>2021-08-14T13:42:22Z</time>
      </trkpt>
      <trkpt lat="45.84302" lon="2.95722">
        <ele>1010.96</ele>
        <time>2021-08-14T13:42:24Z</time>
      </trkpt>
      <trkpt lat="45.84259" lon="2.95724">
        <ele>1010.48</ele>
        <time>2021-08-14T13:42:31Z</time>
      </trkpt>
      <trkpt lat="45.8423" lon="2.95723">
        <ele>1010.48</ele>
        <time>2021-08-14T13:42:37Z</time>
      </trkpt>
      <trkpt lat="45.84212" lon="2.95723">
        <ele>1010.48</ele>
        <time>2021-08-14T13:42:41Z</time>
      </trkpt>
      <trkpt lat="45.84195" lon="2.95721">
        <ele>1010</ele>
        <time>2021-08-14T13:42:45Z</time>
      </trkpt>
      <trkpt lat="45.84165" lon="2.95712">
        <ele>1010</ele>
        <time>2021-08-14T13:42:52Z</time>
      </trkpt>
      <trkpt lat="45.84152" lon="2.95708">
        <ele>1009.52</ele>
        <time>2021-08-14T13:42:55Z</time>
      </trkpt>
      <trkpt lat="45.84144" lon="2.95706">
        <ele>1009.04</ele>
        <time>2021-08-14T13:42:57Z</time>
      </trkpt>
      <trkpt lat="45.84139" lon="2.95704">
        <ele>1009.04</ele>
        <time>2021-08-14T13:42:58Z</time>
      </trkpt>
      <trkpt lat="45.8413" lon="2.957">
        <ele>1008.56</ele>
        <time>2021-08-14T13:43:00Z</time>
      </trkpt>
      <trkpt lat="45.84109" lon="2.95691">
        <ele>1009.04</ele>
        <time>2021-08-14T13:43:06Z</time>
      </trkpt>
      <trkpt lat="45.84094" lon="2.95686">
        <ele>1009.04</ele>
        <time>2021-08-14T13:43:12Z</time>
      </trkpt>
      <trkpt lat="45.84085" lon="2.95686">
        <ele>1009.04</ele>
        <time>2021-08-14T13:43:16Z</time>
      </trkpt>
      <trkpt lat="45.84082" lon="2.95686">
        <ele>1009.04</ele>
        <time>2021-08-14T13:43:17Z</time>
      </trkpt>
      <trkpt lat="45.8406" lon="2.95687">
        <ele>1009.04</ele>
        <time>2021-08-14T13:43:25Z</time>
      </trkpt>
      <trkpt lat="45.84045" lon="2.95689">
        <ele>1009.04</ele>
        <time>2021-08-14T13:43:32Z</time>
      </trkpt>
      <trkpt lat="45.84043" lon="2.95689">
        <ele>1009.04</ele>
        <time>2021-08-14T13:43:33Z</time>
      </trkpt>
      <trkpt lat="45.84041" lon="2.95688">
        <ele>1009.04</ele>
        <time>2021-08-14T13:43:34Z</time>
      </trkpt>
      <trkpt lat="45.84029" lon="2.95691">
        <ele>1009.04</ele>
        <time>2021-08-14T13:43:39Z</time>
      </trkpt>
      <trkpt lat="45.84019" lon="2.95703">
        <ele>1009.52</ele>
        <time>2021-08-14T13:43:45Z</time>
      </trkpt>
      <trkpt lat="45.84007" lon="2.95715">
        <ele>1010.96</ele>
        <time>2021-08-14T13:43:51Z</time>
      </trkpt>
      <trkpt lat="45.83995" lon="2.95727">
        <ele>1011.93</ele>
        <time>2021-08-14T13:43:58Z</time>
      </trkpt>
      <trkpt lat="45.83993" lon="2.95729">
        <ele>1011.93</ele>
        <time>2021-08-14T13:43:59Z</time>
      </trkpt>
      <trkpt lat="45.83992" lon="2.95731">
        <ele>1011.93</ele>
        <time>2021-08-14T13:44:00Z</time>
      </trkpt>
      <trkpt lat="45.83991" lon="2.95733">
        <ele>1011.93</ele>
        <time>2021-08-14T13:44:01Z</time>
      </trkpt>
      <trkpt lat="45.8399" lon="2.95735">
        <ele>1011.93</ele>
        <time>2021-08-14T13:44:02Z</time>
      </trkpt>
      <trkpt lat="45.83988" lon="2.95737">
        <ele>1012.41</ele>
        <time>2021-08-14T13:44:03Z</time>
      </trkpt>
      <trkpt lat="45.83986" lon="2.95739">
        <ele>1012.41</ele>
        <time>2021-08-14T13:44:04Z</time>
      </trkpt>
      <trkpt lat="45.83985" lon="2.95741">
        <ele>1012.41</ele>
        <time>2021-08-14T13:44:05Z</time>
      </trkpt>
      <trkpt lat="45.83984" lon="2.95742">
        <ele>1012.41</ele>
        <time>2021-08-14T13:44:06Z</time>
      </trkpt>
      <trkpt lat="45.83977" lon="2.95747">
        <ele>1012.89</ele>
        <time>2021-08-14T13:44:10Z</time>
      </trkpt>
      <trkpt lat="45.83971" lon="2.95754">
        <ele>1013.37</ele>
        <time>2021-08-14T13:44:14Z</time>
      </trkpt>
      <trkpt lat="45.83964" lon="2.95767">
        <ele>1014.81</ele>
        <time>2021-08-14T13:44:21Z</time>
      </trkpt>
      <trkpt lat="45.83955" lon="2.95774">
        <ele>1015.29</ele>
        <time>2021-08-14T13:44:27Z</time>
      </trkpt>
      <trkpt lat="45.8395" lon="2.95776">
        <ele>1015.77</ele>
        <time>2021-08-14T13:44:29Z</time>
      </trkpt>
      <trkpt lat="45.83948" lon="2.95777">
        <ele>1015.77</ele>
        <time>2021-08-14T13:44:30Z</time>
      </trkpt>
      <trkpt lat="45.83946" lon="2.95777">
        <ele>1015.77</ele>
        <time>2021-08-14T13:44:31Z</time>
      </trkpt>
      <trkpt lat="45.83944" lon="2.95778">
        <ele>1015.77</ele>
        <time>2021-08-14T13:44:32Z</time>
      </trkpt>
      <trkpt lat="45.83938" lon="2.95783">
        <ele>1016.73</ele>
        <time>2021-08-14T13:44:37Z</time>
      </trkpt>
      <trkpt lat="45.83937" lon="2.95783">
        <ele>1016.73</ele>
        <time>2021-08-14T13:44:38Z</time>
      </trkpt>
      <trkpt lat="45.83935" lon="2.95783">
        <ele>1016.73</ele>
        <time>2021-08-14T13:44:39Z</time>
      </trkpt>
      <trkpt lat="45.83919" lon="2.9579">
        <ele>1018.17</ele>
        <time>2021-08-14T13:44:48Z</time>
      </trkpt>
      <trkpt lat="45.83909" lon="2.95794">
        <ele>1019.13</ele>
        <time>2021-08-14T13:44:54Z</time>
      </trkpt>
      <trkpt lat="45.83897" lon="2.95801">
        <ele>1019.62</ele>
        <time>2021-08-14T13:45:02Z</time>
      </trkpt>
      <trkpt lat="45.83889" lon="2.95807">
        <ele>1020.58</ele>
        <time>2021-08-14T13:45:11Z</time>
      </trkpt>
      <trkpt lat="45.8388" lon="2.95811">
        <ele>1021.54</ele>
        <time>2021-08-14T13:45:19Z</time>
      </trkpt>
      <trkpt lat="45.8387" lon="2.95816">
        <ele>1022.5</ele>
        <time>2021-08-14T13:45:26Z</time>
      </trkpt>
      <trkpt lat="45.83859" lon="2.95825">
        <ele>1022.98</ele>
        <time>2021-08-14T13:45:34Z</time>
      </trkpt>
      <trkpt lat="45.83848" lon="2.95832">
        <ele>1023.94</ele>
        <time>2021-08-14T13:45:42Z</time>
      </trkpt>
      <trkpt lat="45.83839" lon="2.95838">
        <ele>1024.42</ele>
        <time>2021-08-14T13:45:49Z</time>
      </trkpt>
      <trkpt lat="45.83825" lon="2.95844">
        <ele>1025.38</ele>
        <time>2021-08-14T13:45:58Z</time>
      </trkpt>
      <trkpt lat="45.83813" lon="2.95851">
        <ele>1026.34</ele>
        <time>2021-08-14T13:46:06Z</time>
      </trkpt>
      <trkpt lat="45.83807" lon="2.95856">
        <ele>1026.34</ele>
        <time>2021-08-14T13:46:10Z</time>
      </trkpt>
      <trkpt lat="45.83803" lon="2.9586">
        <ele>1026.83</ele>
        <time>2021-08-14T13:46:13Z</time>
      </trkpt>
      <trkpt lat="45.83801" lon="2.9586">
        <ele>1027.31</ele>
        <time>2021-08-14T13:46:14Z</time>
      </trkpt>
      <trkpt lat="45.83799" lon="2.9586">
        <ele>1027.31</ele>
        <time>2021-08-14T13:46:15Z</time>
      </trkpt>
      <trkpt lat="45.83797" lon="2.95861">
        <ele>1027.31</ele>
        <time>2021-08-14T13:46:16Z</time>
      </trkpt>
      <trkpt lat="45.83795" lon="2.95863">
        <ele>1027.31</ele>
        <time>2021-08-14T13:46:17Z</time>
      </trkpt>
      <trkpt lat="45.83793" lon="2.95864">
        <ele>1027.31</ele>
        <time>2021-08-14T13:46:18Z</time>
      </trkpt>
      <trkpt lat="45.83791" lon="2.95865">
        <ele>1027.79</ele>
        <time>2021-08-14T13:46:19Z</time>
      </trkpt>
      <trkpt lat="45.8379" lon="2.95866">
        <ele>1027.79</ele>
        <time>2021-08-14T13:46:20Z</time>
      </trkpt>
      <trkpt lat="45.83789" lon="2.95866">
        <ele>1027.79</ele>
        <time>2021-08-14T13:46:21Z</time>
      </trkpt>
      <trkpt lat="45.83787" lon="2.95867">
        <ele>1027.79</ele>
        <time>2021-08-14T13:46:22Z</time>
      </trkpt>
      <trkpt lat="45.83786" lon="2.95868">
        <ele>1028.27</ele>
        <time>2021-08-14T13:46:23Z</time>
      </trkpt>
      <trkpt lat="45.83785" lon="2.9587">
        <ele>1027.79</ele>
        <time>2021-08-14T13:46:24Z</time>
      </trkpt>
      <trkpt lat="45.83783" lon="2.95873">
        <ele>1027.79</ele>
        <time>2021-08-14T13:46:27Z</time>
      </trkpt>
      <trkpt lat="45.83781" lon="2.95873">
        <ele>1028.75</ele>
        <time>2021-08-14T13:46:28Z</time>
      </trkpt>
      <trkpt lat="45.8378" lon="2.95874">
        <ele>1028.75</ele>
        <time>2021-08-14T13:46:29Z</time>
      </trkpt>
      <trkpt lat="45.83778" lon="2.95875">
        <ele>1028.75</ele>
        <time>2021-08-14T13:46:30Z</time>
      </trkpt>
      <trkpt lat="45.8377" lon="2.9588">
        <ele>1029.23</ele>
        <time>2021-08-14T13:46:37Z</time>
      </trkpt>
      <trkpt lat="45.83756" lon="2.95883">
        <ele>1030.19</ele>
        <time>2021-08-14T13:46:45Z</time>
      </trkpt>
      <trkpt lat="45.83749" lon="2.95882">
        <ele>1030.67</ele>
        <time>2021-08-14T13:46:49Z</time>
      </trkpt>
      <trkpt lat="45.83747" lon="2.95883">
        <ele>1030.67</ele>
        <time>2021-08-14T13:46:50Z</time>
      </trkpt>
      <trkpt lat="45.83736" lon="2.95886">
        <ele>1031.15</ele>
        <time>2021-08-14T13:46:58Z</time>
      </trkpt>
      <trkpt lat="45.83724" lon="2.95892">
        <ele>1032.11</ele>
        <time>2021-08-14T13:47:07Z</time>
      </trkpt>
      <trkpt lat="45.83722" lon="2.95893">
        <ele>1032.59</ele>
        <time>2021-08-14T13:47:09Z</time>
      </trkpt>
      <trkpt lat="45.8372" lon="2.95894">
        <ele>1032.59</ele>
        <time>2021-08-14T13:47:10Z</time>
      </trkpt>
      <trkpt lat="45.83719" lon="2.95894">
        <ele>1032.59</ele>
        <time>2021-08-14T13:47:11Z</time>
      </trkpt>
      <trkpt lat="45.83717" lon="2.95895">
        <ele>1032.59</ele>
        <time>2021-08-14T13:47:12Z</time>
      </trkpt>
      <trkpt lat="45.83709" lon="2.95901">
        <ele>1034.04</ele>
        <time>2021-08-14T13:47:19Z</time>
      </trkpt>
      <trkpt lat="45.83708" lon="2.95903">
        <ele>1034.04</ele>
        <time>2021-08-14T13:47:20Z</time>
      </trkpt>
      <trkpt lat="45.83706" lon="2.95904">
        <ele>1034.52</ele>
        <time>2021-08-14T13:47:21Z</time>
      </trkpt>
      <trkpt lat="45.83704" lon="2.95906">
        <ele>1034.52</ele>
        <time>2021-08-14T13:47:22Z</time>
      </trkpt>
      <trkpt lat="45.83702" lon="2.95906">
        <ele>1034.52</ele>
        <time>2021-08-14T13:47:23Z</time>
      </trkpt>
      <trkpt lat="45.837" lon="2.95907">
        <ele>1035</ele>
        <time>2021-08-14T13:47:24Z</time>
      </trkpt>
      <trkpt lat="45.83698" lon="2.95906">
        <ele>1035</ele>
        <time>2021-08-14T13:47:25Z</time>
      </trkpt>
      <trkpt lat="45.83683" lon="2.95901">
        <ele>1035</ele>
        <time>2021-08-14T13:47:34Z</time>
      </trkpt>
      <trkpt lat="45.83673" lon="2.95896">
        <ele>1035.48</ele>
        <time>2021-08-14T13:47:41Z</time>
      </trkpt>
      <trkpt lat="45.83668" lon="2.95894">
        <ele>1035.48</ele>
        <time>2021-08-14T13:47:48Z</time>
      </trkpt>
      <trkpt lat="45.83665" lon="2.95894">
        <ele>1035.48</ele>
        <time>2021-08-14T13:47:58Z</time>
      </trkpt>
      <trkpt lat="45.83662" lon="2.95896">
        <ele>1035.48</ele>
        <time>2021-08-14T13:48:09Z</time>
      </trkpt>
      <trkpt lat="45.83659" lon="2.95902">
        <ele>1036.92</ele>
        <time>2021-08-14T13:48:17Z</time>
      </trkpt>
      <trkpt lat="45.83656" lon="2.95908">
        <ele>1037.88</ele>
        <time>2021-08-14T13:48:25Z</time>
      </trkpt>
      <trkpt lat="45.83653" lon="2.95914">
        <ele>1039.32</ele>
        <time>2021-08-14T13:48:33Z</time>
      </trkpt>
      <trkpt lat="45.83645" lon="2.95919">
        <ele>1039.8</ele>
        <time>2021-08-14T13:48:42Z</time>
      </trkpt>
      <trkpt lat="45.8364" lon="2.9592">
        <ele>1040.28</ele>
        <time>2021-08-14T13:48:49Z</time>
      </trkpt>
      <trkpt lat="45.83631" lon="2.95917">
        <ele>1040.76</ele>
        <time>2021-08-14T13:48:57Z</time>
      </trkpt>
      <trkpt lat="45.83623" lon="2.95914">
        <ele>1041.73</ele>
        <time>2021-08-14T13:49:05Z</time>
      </trkpt>
      <trkpt lat="45.83614" lon="2.95913">
        <ele>1043.17</ele>
        <time>2021-08-14T13:49:12Z</time>
      </trkpt>
      <trkpt lat="45.83607" lon="2.95915">
        <ele>1043.65</ele>
        <time>2021-08-14T13:49:22Z</time>
      </trkpt>
      <trkpt lat="45.83599" lon="2.9591">
        <ele>1044.13</ele>
        <time>2021-08-14T13:49:32Z</time>
      </trkpt>
      <trkpt lat="45.83592" lon="2.95906">
        <ele>1045.09</ele>
        <time>2021-08-14T13:49:41Z</time>
      </trkpt>
      <trkpt lat="45.83584" lon="2.95904">
        <ele>1046.53</ele>
        <time>2021-08-14T13:49:51Z</time>
      </trkpt>
      <trkpt lat="45.83579" lon="2.95899">
        <ele>1047.49</ele>
        <time>2021-08-14T13:49:58Z</time>
      </trkpt>
      <trkpt lat="45.83573" lon="2.95896">
        <ele>1048.45</ele>
        <time>2021-08-14T13:50:06Z</time>
      </trkpt>
      <trkpt lat="45.8357" lon="2.95894">
        <ele>1050.38</ele>
        <time>2021-08-14T13:50:16Z</time>
      </trkpt>
      <trkpt lat="45.83567" lon="2.9589">
        <ele>1050.86</ele>
        <time>2021-08-14T13:50:23Z</time>
      </trkpt>
      <trkpt lat="45.83564" lon="2.95884">
        <ele>1052.78</ele>
        <time>2021-08-14T13:50:31Z</time>
      </trkpt>
      <trkpt lat="45.83562" lon="2.95878">
        <ele>1054.22</ele>
        <time>2021-08-14T13:50:41Z</time>
      </trkpt>
      <trkpt lat="45.83564" lon="2.95871">
        <ele>1055.18</ele>
        <time>2021-08-14T13:50:50Z</time>
      </trkpt>
      <trkpt lat="45.83567" lon="2.95864">
        <ele>1055.67</ele>
        <time>2021-08-14T13:50:59Z</time>
      </trkpt>
      <trkpt lat="45.83567" lon="2.95863">
        <ele>1055.67</ele>
        <time>2021-08-14T13:51:15Z</time>
      </trkpt>
      <trkpt lat="45.83567" lon="2.95863">
        <ele>1056.15</ele>
        <time>2021-08-14T13:51:25Z</time>
      </trkpt>
      <trkpt lat="45.83568" lon="2.95858">
        <ele>1056.15</ele>
        <time>2021-08-14T13:51:31Z</time>
      </trkpt>
      <trkpt lat="45.8357" lon="2.95854">
        <ele>1056.15</ele>
        <time>2021-08-14T13:51:34Z</time>
      </trkpt>
      <trkpt lat="45.83574" lon="2.95846">
        <ele>1056.15</ele>
        <time>2021-08-14T13:51:39Z</time>
      </trkpt>
      <trkpt lat="45.83574" lon="2.95844">
        <ele>1056.63</ele>
        <time>2021-08-14T13:51:40Z</time>
      </trkpt>
      <trkpt lat="45.83575" lon="2.95842">
        <ele>1056.63</ele>
        <time>2021-08-14T13:51:41Z</time>
      </trkpt>
      <trkpt lat="45.83576" lon="2.95839">
        <ele>1056.63</ele>
        <time>2021-08-14T13:51:42Z</time>
      </trkpt>
      <trkpt lat="45.83576" lon="2.95837">
        <ele>1056.63</ele>
        <time>2021-08-14T13:51:43Z</time>
      </trkpt>
      <trkpt lat="45.83577" lon="2.95834">
        <ele>1056.63</ele>
        <time>2021-08-14T13:51:44Z</time>
      </trkpt>
      <trkpt lat="45.83578" lon="2.95832">
        <ele>1056.63</ele>
        <time>2021-08-14T13:51:45Z</time>
      </trkpt>
      <trkpt lat="45.83579" lon="2.9583">
        <ele>1057.11</ele>
        <time>2021-08-14T13:51:46Z</time>
      </trkpt>
      <trkpt lat="45.83589" lon="2.95809">
        <ele>1057.11</ele>
        <time>2021-08-14T13:51:54Z</time>
      </trkpt>
      <trkpt lat="45.83598" lon="2.95786">
        <ele>1057.11</ele>
        <time>2021-08-14T13:52:02Z</time>
      </trkpt>
      <trkpt lat="45.83604" lon="2.9577">
        <ele>1057.11</ele>
        <time>2021-08-14T13:52:08Z</time>
      </trkpt>
      <trkpt lat="45.83612" lon="2.95747">
        <ele>1055.18</ele>
        <time>2021-08-14T13:52:14Z</time>
      </trkpt>
      <trkpt lat="45.83632" lon="2.95704">
        <ele>1053.74</ele>
        <time>2021-08-14T13:52:22Z</time>
      </trkpt>
      <trkpt lat="45.83644" lon="2.9568">
        <ele>1052.3</ele>
        <time>2021-08-14T13:52:26Z</time>
      </trkpt>
      <trkpt lat="45.83648" lon="2.95673">
        <ele>1052.3</ele>
        <time>2021-08-14T13:52:27Z</time>
      </trkpt>
      <trkpt lat="45.83662" lon="2.95648">
        <ele>1052.3</ele>
        <time>2021-08-14T13:52:31Z</time>
      </trkpt>
      <trkpt lat="45.83669" lon="2.95634">
        <ele>1052.3</ele>
        <time>2021-08-14T13:52:34Z</time>
      </trkpt>
      <trkpt lat="45.83672" lon="2.95629">
        <ele>1052.3</ele>
        <time>2021-08-14T13:52:35Z</time>
      </trkpt>
      <trkpt lat="45.83673" lon="2.95623">
        <ele>1051.82</ele>
        <time>2021-08-14T13:52:36Z</time>
      </trkpt>
      <trkpt lat="45.83674" lon="2.95616">
        <ele>1051.82</ele>
        <time>2021-08-14T13:52:37Z</time>
      </trkpt>
      <trkpt lat="45.83669" lon="2.95598">
        <ele>1050.86</ele>
        <time>2021-08-14T13:52:40Z</time>
      </trkpt>
      <trkpt lat="45.83654" lon="2.95568">
        <ele>1047.49</ele>
        <time>2021-08-14T13:52:46Z</time>
      </trkpt>
      <trkpt lat="45.8365" lon="2.95564">
        <ele>1047.01</ele>
        <time>2021-08-14T13:52:47Z</time>
      </trkpt>
      <trkpt lat="45.83645" lon="2.95561">
        <ele>1047.01</ele>
        <time>2021-08-14T13:52:48Z</time>
      </trkpt>
      <trkpt lat="45.83641" lon="2.95557">
        <ele>1047.01</ele>
        <time>2021-08-14T13:52:49Z</time>
      </trkpt>
      <trkpt lat="45.83636" lon="2.95555">
        <ele>1047.01</ele>
        <time>2021-08-14T13:52:50Z</time>
      </trkpt>
      <trkpt lat="45.83632" lon="2.95553">
        <ele>1047.01</ele>
        <time>2021-08-14T13:52:51Z</time>
      </trkpt>
      <trkpt lat="45.8362" lon="2.9554">
        <ele>1048.45</ele>
        <time>2021-08-14T13:52:55Z</time>
      </trkpt>
      <trkpt lat="45.83616" lon="2.95533">
        <ele>1048.94</ele>
        <time>2021-08-14T13:52:58Z</time>
      </trkpt>
      <trkpt lat="45.83615" lon="2.95532">
        <ele>1048.94</ele>
        <time>2021-08-14T13:52:59Z</time>
      </trkpt>
      <trkpt lat="45.83614" lon="2.9553">
        <ele>1048.94</ele>
        <time>2021-08-14T13:53:00Z</time>
      </trkpt>
      <trkpt lat="45.83613" lon="2.95529">
        <ele>1049.42</ele>
        <time>2021-08-14T13:53:01Z</time>
      </trkpt>
      <trkpt lat="45.83612" lon="2.95527">
        <ele>1049.42</ele>
        <time>2021-08-14T13:53:02Z</time>
      </trkpt>
      <trkpt lat="45.83611" lon="2.95526">
        <ele>1049.42</ele>
        <time>2021-08-14T13:53:03Z</time>
      </trkpt>
      <trkpt lat="45.83609" lon="2.95526">
        <ele>1049.42</ele>
        <time>2021-08-14T13:53:04Z</time>
      </trkpt>
      <trkpt lat="45.83604" lon="2.95522">
        <ele>1050.38</ele>
        <time>2021-08-14T13:53:09Z</time>
      </trkpt>
      <trkpt lat="45.83596" lon="2.95517">
        <ele>1051.34</ele>
        <time>2021-08-14T13:53:17Z</time>
      </trkpt>
      <trkpt lat="45.83588" lon="2.95513">
        <ele>1052.78</ele>
        <time>2021-08-14T13:53:24Z</time>
      </trkpt>
      <trkpt lat="45.83579" lon="2.95505">
        <ele>1052.78</ele>
        <time>2021-08-14T13:53:31Z</time>
      </trkpt>
      <trkpt lat="45.83568" lon="2.95497">
        <ele>1053.74</ele>
        <time>2021-08-14T13:53:40Z</time>
      </trkpt>
      <trkpt lat="45.83556" lon="2.95491">
        <ele>1054.7</ele>
        <time>2021-08-14T13:53:48Z</time>
      </trkpt>
      <trkpt lat="45.83541" lon="2.95482">
        <ele>1054.7</ele>
        <time>2021-08-14T13:53:55Z</time>
      </trkpt>
      <trkpt lat="45.83525" lon="2.95472">
        <ele>1054.7</ele>
        <time>2021-08-14T13:54:01Z</time>
      </trkpt>
      <trkpt lat="45.83503" lon="2.95458">
        <ele>1051.82</ele>
        <time>2021-08-14T13:54:07Z</time>
      </trkpt>
      <trkpt lat="45.83481" lon="2.95445">
        <ele>1048.94</ele>
        <time>2021-08-14T13:54:13Z</time>
      </trkpt>
      <trkpt lat="45.83476" lon="2.95444">
        <ele>1048.45</ele>
        <time>2021-08-14T13:54:14Z</time>
      </trkpt>
      <trkpt lat="45.83471" lon="2.95444">
        <ele>1047.97</ele>
        <time>2021-08-14T13:54:15Z</time>
      </trkpt>
      <trkpt lat="45.8346" lon="2.95443">
        <ele>1047.01</ele>
        <time>2021-08-14T13:54:17Z</time>
      </trkpt>
      <trkpt lat="45.83455" lon="2.95439">
        <ele>1047.01</ele>
        <time>2021-08-14T13:54:18Z</time>
      </trkpt>
      <trkpt lat="45.83451" lon="2.95433">
        <ele>1046.53</ele>
        <time>2021-08-14T13:54:19Z</time>
      </trkpt>
      <trkpt lat="45.83447" lon="2.95427">
        <ele>1046.53</ele>
        <time>2021-08-14T13:54:20Z</time>
      </trkpt>
      <trkpt lat="45.83442" lon="2.95422">
        <ele>1046.05</ele>
        <time>2021-08-14T13:54:21Z</time>
      </trkpt>
      <trkpt lat="45.83438" lon="2.95417">
        <ele>1045.09</ele>
        <time>2021-08-14T13:54:22Z</time>
      </trkpt>
      <trkpt lat="45.83432" lon="2.95413">
        <ele>1045.09</ele>
        <time>2021-08-14T13:54:23Z</time>
      </trkpt>
      <trkpt lat="45.83427" lon="2.95409">
        <ele>1044.61</ele>
        <time>2021-08-14T13:54:24Z</time>
      </trkpt>
      <trkpt lat="45.83421" lon="2.95406">
        <ele>1044.61</ele>
        <time>2021-08-14T13:54:25Z</time>
      </trkpt>
      <trkpt lat="45.83415" lon="2.95404">
        <ele>1044.61</ele>
        <time>2021-08-14T13:54:26Z</time>
      </trkpt>
      <trkpt lat="45.8341" lon="2.95402">
        <ele>1043.65</ele>
        <time>2021-08-14T13:54:27Z</time>
      </trkpt>
      <trkpt lat="45.83404" lon="2.95401">
        <ele>1043.17</ele>
        <time>2021-08-14T13:54:28Z</time>
      </trkpt>
      <trkpt lat="45.83398" lon="2.95401">
        <ele>1042.69</ele>
        <time>2021-08-14T13:54:29Z</time>
      </trkpt>
      <trkpt lat="45.83393" lon="2.95401">
        <ele>1042.21</ele>
        <time>2021-08-14T13:54:30Z</time>
      </trkpt>
      <trkpt lat="45.83389" lon="2.95401">
        <ele>1041.73</ele>
        <time>2021-08-14T13:54:31Z</time>
      </trkpt>
      <trkpt lat="45.83384" lon="2.95401">
        <ele>1040.76</ele>
        <time>2021-08-14T13:54:32Z</time>
      </trkpt>
      <trkpt lat="45.8338" lon="2.95401">
        <ele>1040.28</ele>
        <time>2021-08-14T13:54:33Z</time>
      </trkpt>
      <trkpt lat="45.83376" lon="2.95402">
        <ele>1040.28</ele>
        <time>2021-08-14T13:54:34Z</time>
      </trkpt>
      <trkpt lat="45.8337" lon="2.95403">
        <ele>1038.84</ele>
        <time>2021-08-14T13:54:35Z</time>
      </trkpt>
      <trkpt lat="45.83363" lon="2.95403">
        <ele>1038.84</ele>
        <time>2021-08-14T13:54:36Z</time>
      </trkpt>
      <trkpt lat="45.83334" lon="2.95408">
        <ele>1035.96</ele>
        <time>2021-08-14T13:54:40Z</time>
      </trkpt>
      <trkpt lat="45.83274" lon="2.95416">
        <ele>1034.04</ele>
        <time>2021-08-14T13:54:48Z</time>
      </trkpt>
      <trkpt lat="45.83227" lon="2.95425">
        <ele>1033.55</ele>
        <time>2021-08-14T13:54:55Z</time>
      </trkpt>
      <trkpt lat="45.83215" lon="2.95427">
        <ele>1033.55</ele>
        <time>2021-08-14T13:54:57Z</time>
      </trkpt>
      <trkpt lat="45.83204" lon="2.95428">
        <ele>1033.55</ele>
        <time>2021-08-14T13:54:59Z</time>
      </trkpt>
      <trkpt lat="45.83176" lon="2.95434">
        <ele>1033.55</ele>
        <time>2021-08-14T13:55:06Z</time>
      </trkpt>
      <trkpt lat="45.83163" lon="2.95443">
        <ele>1033.55</ele>
        <time>2021-08-14T13:55:11Z</time>
      </trkpt>
      <trkpt lat="45.8316" lon="2.95451">
        <ele>1035</ele>
        <time>2021-08-14T13:55:14Z</time>
      </trkpt>
      <trkpt lat="45.83147" lon="2.95469">
        <ele>1036.44</ele>
        <time>2021-08-14T13:55:23Z</time>
      </trkpt>
      <trkpt lat="45.83142" lon="2.95476">
        <ele>1037.4</ele>
        <time>2021-08-14T13:55:27Z</time>
      </trkpt>
      <trkpt lat="45.83141" lon="2.95477">
        <ele>1037.4</ele>
        <time>2021-08-14T13:55:28Z</time>
      </trkpt>
      <trkpt lat="45.8314" lon="2.95479">
        <ele>1037.4</ele>
        <time>2021-08-14T13:55:29Z</time>
      </trkpt>
      <trkpt lat="45.83129" lon="2.95491">
        <ele>1038.36</ele>
        <time>2021-08-14T13:55:36Z</time>
      </trkpt>
      <trkpt lat="45.83124" lon="2.95499">
        <ele>1038.84</ele>
        <time>2021-08-14T13:55:40Z</time>
      </trkpt>
      <trkpt lat="45.83115" lon="2.9552">
        <ele>1039.32</ele>
        <time>2021-08-14T13:55:48Z</time>
      </trkpt>
      <trkpt lat="45.83113" lon="2.95544">
        <ele>1039.8</ele>
        <time>2021-08-14T13:55:56Z</time>
      </trkpt>
      <trkpt lat="45.83115" lon="2.95552">
        <ele>1039.8</ele>
        <time>2021-08-14T13:55:59Z</time>
      </trkpt>
      <trkpt lat="45.83116" lon="2.95554">
        <ele>1039.8</ele>
        <time>2021-08-14T13:56:00Z</time>
      </trkpt>
      <trkpt lat="45.83116" lon="2.95557">
        <ele>1039.8</ele>
        <time>2021-08-14T13:56:01Z</time>
      </trkpt>
      <trkpt lat="45.83119" lon="2.95573">
        <ele>1040.28</ele>
        <time>2021-08-14T13:56:08Z</time>
      </trkpt>
      <trkpt lat="45.83118" lon="2.95592">
        <ele>1040.28</ele>
        <time>2021-08-14T13:56:16Z</time>
      </trkpt>
      <trkpt lat="45.83118" lon="2.95619">
        <ele>1040.28</ele>
        <time>2021-08-14T13:56:25Z</time>
      </trkpt>
      <trkpt lat="45.83118" lon="2.95622">
        <ele>1040.28</ele>
        <time>2021-08-14T13:56:26Z</time>
      </trkpt>
      <trkpt lat="45.83118" lon="2.95625">
        <ele>1040.28</ele>
        <time>2021-08-14T13:56:27Z</time>
      </trkpt>
      <trkpt lat="45.83118" lon="2.95628">
        <ele>1040.28</ele>
        <time>2021-08-14T13:56:28Z</time>
      </trkpt>
      <trkpt lat="45.83118" lon="2.95632">
        <ele>1040.28</ele>
        <time>2021-08-14T13:56:29Z</time>
      </trkpt>
      <trkpt lat="45.83116" lon="2.9566">
        <ele>1040.28</ele>
        <time>2021-08-14T13:56:36Z</time>
      </trkpt>
      <trkpt lat="45.83109" lon="2.95692">
        <ele>1039.32</ele>
        <time>2021-08-14T13:56:43Z</time>
      </trkpt>
      <trkpt lat="45.83102" lon="2.95731">
        <ele>1037.88</ele>
        <time>2021-08-14T13:56:49Z</time>
      </trkpt>
      <trkpt lat="45.83096" lon="2.95752">
        <ele>1037.88</ele>
        <time>2021-08-14T13:56:52Z</time>
      </trkpt>
      <trkpt lat="45.83088" lon="2.9577">
        <ele>1037.4</ele>
        <time>2021-08-14T13:56:55Z</time>
      </trkpt>
      <trkpt lat="45.83084" lon="2.95775">
        <ele>1036.92</ele>
        <time>2021-08-14T13:56:56Z</time>
      </trkpt>
      <trkpt lat="45.83081" lon="2.95781">
        <ele>1036.92</ele>
        <time>2021-08-14T13:56:57Z</time>
      </trkpt>
      <trkpt lat="45.83069" lon="2.95802">
        <ele>1036.44</ele>
        <time>2021-08-14T13:57:01Z</time>
      </trkpt>
      <trkpt lat="45.83065" lon="2.95808">
        <ele>1036.44</ele>
        <time>2021-08-14T13:57:02Z</time>
      </trkpt>
      <trkpt lat="45.83061" lon="2.95812">
        <ele>1035.96</ele>
        <time>2021-08-14T13:57:03Z</time>
      </trkpt>
      <trkpt lat="45.83048" lon="2.95825">
        <ele>1035.48</ele>
        <time>2021-08-14T13:57:06Z</time>
      </trkpt>
      <trkpt lat="45.83043" lon="2.95829">
        <ele>1035</ele>
        <time>2021-08-14T13:57:07Z</time>
      </trkpt>
      <trkpt lat="45.83033" lon="2.95835">
        <ele>1035</ele>
        <time>2021-08-14T13:57:09Z</time>
      </trkpt>
      <trkpt lat="45.83029" lon="2.9584">
        <ele>1035</ele>
        <time>2021-08-14T13:57:10Z</time>
      </trkpt>
      <trkpt lat="45.8302" lon="2.95854">
        <ele>1035</ele>
        <time>2021-08-14T13:57:13Z</time>
      </trkpt>
      <trkpt lat="45.83018" lon="2.9586">
        <ele>1035</ele>
        <time>2021-08-14T13:57:14Z</time>
      </trkpt>
      <trkpt lat="45.83016" lon="2.95865">
        <ele>1035</ele>
        <time>2021-08-14T13:57:15Z</time>
      </trkpt>
      <trkpt lat="45.83014" lon="2.95871">
        <ele>1034.52</ele>
        <time>2021-08-14T13:57:16Z</time>
      </trkpt>
      <trkpt lat="45.83013" lon="2.95877">
        <ele>1033.55</ele>
        <time>2021-08-14T13:57:17Z</time>
      </trkpt>
      <trkpt lat="45.83" lon="2.95919">
        <ele>1031.63</ele>
        <time>2021-08-14T13:57:23Z</time>
      </trkpt>
      <trkpt lat="45.82997" lon="2.95926">
        <ele>1030.67</ele>
        <time>2021-08-14T13:57:24Z</time>
      </trkpt>
      <trkpt lat="45.82993" lon="2.95932">
        <ele>1030.19</ele>
        <time>2021-08-14T13:57:25Z</time>
      </trkpt>
      <trkpt lat="45.82989" lon="2.95938">
        <ele>1029.23</ele>
        <time>2021-08-14T13:57:26Z</time>
      </trkpt>
      <trkpt lat="45.82984" lon="2.95943">
        <ele>1028.75</ele>
        <time>2021-08-14T13:57:27Z</time>
      </trkpt>
      <trkpt lat="45.82979" lon="2.95947">
        <ele>1027.79</ele>
        <time>2021-08-14T13:57:28Z</time>
      </trkpt>
      <trkpt lat="45.82974" lon="2.95952">
        <ele>1026.83</ele>
        <time>2021-08-14T13:57:29Z</time>
      </trkpt>
      <trkpt lat="45.82954" lon="2.95976">
        <ele>1023.46</ele>
        <time>2021-08-14T13:57:33Z</time>
      </trkpt>
      <trkpt lat="45.82948" lon="2.95984">
        <ele>1022.5</ele>
        <time>2021-08-14T13:57:34Z</time>
      </trkpt>
      <trkpt lat="45.82944" lon="2.95992">
        <ele>1021.06</ele>
        <time>2021-08-14T13:57:35Z</time>
      </trkpt>
      <trkpt lat="45.82934" lon="2.9601">
        <ele>1019.62</ele>
        <time>2021-08-14T13:57:37Z</time>
      </trkpt>
      <trkpt lat="45.82927" lon="2.96018">
        <ele>1018.17</ele>
        <time>2021-08-14T13:57:38Z</time>
      </trkpt>
      <trkpt lat="45.82908" lon="2.9604">
        <ele>1016.25</ele>
        <time>2021-08-14T13:57:41Z</time>
      </trkpt>
      <trkpt lat="45.82888" lon="2.9606">
        <ele>1012.89</ele>
        <time>2021-08-14T13:57:44Z</time>
      </trkpt>
      <trkpt lat="45.8288" lon="2.96065">
        <ele>1011.93</ele>
        <time>2021-08-14T13:57:45Z</time>
      </trkpt>
      <trkpt lat="45.82854" lon="2.96081">
        <ele>1009.04</ele>
        <time>2021-08-14T13:57:48Z</time>
      </trkpt>
      <trkpt lat="45.82845" lon="2.96087">
        <ele>1008.08</ele>
        <time>2021-08-14T13:57:49Z</time>
      </trkpt>
      <trkpt lat="45.82822" lon="2.96107">
        <ele>1006.64</ele>
        <time>2021-08-14T13:57:52Z</time>
      </trkpt>
      <trkpt lat="45.82815" lon="2.96111">
        <ele>1006.64</ele>
        <time>2021-08-14T13:57:53Z</time>
      </trkpt>
      <trkpt lat="45.82808" lon="2.96116">
        <ele>1006.64</ele>
        <time>2021-08-14T13:57:54Z</time>
      </trkpt>
      <trkpt lat="45.82789" lon="2.9613">
        <ele>1007.6</ele>
        <time>2021-08-14T13:57:57Z</time>
      </trkpt>
      <trkpt lat="45.82783" lon="2.96133">
        <ele>1007.6</ele>
        <time>2021-08-14T13:57:58Z</time>
      </trkpt>
      <trkpt lat="45.82777" lon="2.96135">
        <ele>1007.6</ele>
        <time>2021-08-14T13:57:59Z</time>
      </trkpt>
      <trkpt lat="45.82771" lon="2.96138">
        <ele>1007.6</ele>
        <time>2021-08-14T13:58:00Z</time>
      </trkpt>
      <trkpt lat="45.82767" lon="2.96141">
        <ele>1007.6</ele>
        <time>2021-08-14T13:58:01Z</time>
      </trkpt>
      <trkpt lat="45.82744" lon="2.96159">
        <ele>1007.6</ele>
        <time>2021-08-14T13:58:07Z</time>
      </trkpt>
      <trkpt lat="45.82702" lon="2.96179">
        <ele>1007.6</ele>
        <time>2021-08-14T13:58:16Z</time>
      </trkpt>
      <trkpt lat="45.82664" lon="2.96181">
        <ele>1005.68</ele>
        <time>2021-08-14T13:58:23Z</time>
      </trkpt>
      <trkpt lat="45.82642" lon="2.96179">
        <ele>1003.75</ele>
        <time>2021-08-14T13:58:26Z</time>
      </trkpt>
      <trkpt lat="45.82634" lon="2.9618">
        <ele>1002.79</ele>
        <time>2021-08-14T13:58:27Z</time>
      </trkpt>
      <trkpt lat="45.82626" lon="2.96182">
        <ele>1002.31</ele>
        <time>2021-08-14T13:58:28Z</time>
      </trkpt>
      <trkpt lat="45.8262" lon="2.96185">
        <ele>1001.35</ele>
        <time>2021-08-14T13:58:29Z</time>
      </trkpt>
      <trkpt lat="45.82613" lon="2.96189">
        <ele>1000.87</ele>
        <time>2021-08-14T13:58:30Z</time>
      </trkpt>
      <trkpt lat="45.82592" lon="2.962">
        <ele>998.95</ele>
        <time>2021-08-14T13:58:33Z</time>
      </trkpt>
      <trkpt lat="45.82543" lon="2.96237">
        <ele>995.58</ele>
        <time>2021-08-14T13:58:40Z</time>
      </trkpt>
      <trkpt lat="45.82488" lon="2.96283">
        <ele>994.14</ele>
        <time>2021-08-14T13:58:48Z</time>
      </trkpt>
      <trkpt lat="45.82457" lon="2.96313">
        <ele>993.18</ele>
        <time>2021-08-14T13:58:53Z</time>
      </trkpt>
      <trkpt lat="45.8245" lon="2.96317">
        <ele>993.18</ele>
        <time>2021-08-14T13:58:54Z</time>
      </trkpt>
      <trkpt lat="45.82443" lon="2.96319">
        <ele>993.18</ele>
        <time>2021-08-14T13:58:55Z</time>
      </trkpt>
      <trkpt lat="45.82437" lon="2.96319">
        <ele>992.7</ele>
        <time>2021-08-14T13:58:56Z</time>
      </trkpt>
      <trkpt lat="45.8243" lon="2.9632">
        <ele>992.7</ele>
        <time>2021-08-14T13:58:57Z</time>
      </trkpt>
      <trkpt lat="45.82382" lon="2.96317">
        <ele>991.26</ele>
        <time>2021-08-14T13:59:04Z</time>
      </trkpt>
      <trkpt lat="45.82346" lon="2.96319">
        <ele>988.85</ele>
        <time>2021-08-14T13:59:09Z</time>
      </trkpt>
      <trkpt lat="45.8231" lon="2.96319">
        <ele>988.37</ele>
        <time>2021-08-14T13:59:14Z</time>
      </trkpt>
      <trkpt lat="45.82304" lon="2.96317">
        <ele>987.89</ele>
        <time>2021-08-14T13:59:15Z</time>
      </trkpt>
      <trkpt lat="45.82297" lon="2.96314">
        <ele>987.41</ele>
        <time>2021-08-14T13:59:16Z</time>
      </trkpt>
      <trkpt lat="45.82257" lon="2.96294">
        <ele>986.45</ele>
        <time>2021-08-14T13:59:23Z</time>
      </trkpt>
      <trkpt lat="45.8225" lon="2.96292">
        <ele>985.97</ele>
        <time>2021-08-14T13:59:24Z</time>
      </trkpt>
      <trkpt lat="45.82243" lon="2.96291">
        <ele>985.97</ele>
        <time>2021-08-14T13:59:25Z</time>
      </trkpt>
      <trkpt lat="45.82236" lon="2.9629">
        <ele>985.49</ele>
        <time>2021-08-14T13:59:26Z</time>
      </trkpt>
      <trkpt lat="45.8223" lon="2.96289">
        <ele>985.49</ele>
        <time>2021-08-14T13:59:27Z</time>
      </trkpt>
      <trkpt lat="45.82216" lon="2.96287">
        <ele>984.53</ele>
        <time>2021-08-14T13:59:29Z</time>
      </trkpt>
      <trkpt lat="45.82209" lon="2.96286">
        <ele>984.53</ele>
        <time>2021-08-14T13:59:30Z</time>
      </trkpt>
      <trkpt lat="45.82164" lon="2.96281">
        <ele>983.57</ele>
        <time>2021-08-14T13:59:37Z</time>
      </trkpt>
      <trkpt lat="45.82127" lon="2.96271">
        <ele>982.6</ele>
        <time>2021-08-14T13:59:43Z</time>
      </trkpt>
      <trkpt lat="45.82122" lon="2.9627">
        <ele>982.12</ele>
        <time>2021-08-14T13:59:44Z</time>
      </trkpt>
      <trkpt lat="45.82116" lon="2.96267">
        <ele>982.12</ele>
        <time>2021-08-14T13:59:45Z</time>
      </trkpt>
      <trkpt lat="45.82106" lon="2.96263">
        <ele>982.12</ele>
        <time>2021-08-14T13:59:47Z</time>
      </trkpt>
      <trkpt lat="45.82061" lon="2.96255">
        <ele>981.16</ele>
        <time>2021-08-14T13:59:55Z</time>
      </trkpt>
      <trkpt lat="45.82055" lon="2.96253">
        <ele>981.16</ele>
        <time>2021-08-14T13:59:56Z</time>
      </trkpt>
      <trkpt lat="45.8205" lon="2.96251">
        <ele>980.68</ele>
        <time>2021-08-14T13:59:57Z</time>
      </trkpt>
      <trkpt lat="45.82039" lon="2.96245">
        <ele>980.68</ele>
        <time>2021-08-14T13:59:59Z</time>
      </trkpt>
      <trkpt lat="45.82013" lon="2.96231">
        <ele>979.72</ele>
        <time>2021-08-14T14:00:04Z</time>
      </trkpt>
      <trkpt lat="45.81977" lon="2.96209">
        <ele>979.72</ele>
        <time>2021-08-14T14:00:12Z</time>
      </trkpt>
      <trkpt lat="45.81973" lon="2.96206">
        <ele>979.24</ele>
        <time>2021-08-14T14:00:13Z</time>
      </trkpt>
      <trkpt lat="45.81961" lon="2.96195">
        <ele>979.24</ele>
        <time>2021-08-14T14:00:16Z</time>
      </trkpt>
      <trkpt lat="45.81957" lon="2.96193">
        <ele>979.24</ele>
        <time>2021-08-14T14:00:17Z</time>
      </trkpt>
      <trkpt lat="45.81933" lon="2.96178">
        <ele>978.76</ele>
        <time>2021-08-14T14:00:23Z</time>
      </trkpt>
      <trkpt lat="45.81929" lon="2.96175">
        <ele>978.28</ele>
        <time>2021-08-14T14:00:24Z</time>
      </trkpt>
      <trkpt lat="45.81913" lon="2.96163">
        <ele>978.28</ele>
        <time>2021-08-14T14:00:28Z</time>
      </trkpt>
      <trkpt lat="45.81906" lon="2.96157">
        <ele>978.28</ele>
        <time>2021-08-14T14:00:30Z</time>
      </trkpt>
      <trkpt lat="45.81903" lon="2.96154">
        <ele>978.28</ele>
        <time>2021-08-14T14:00:31Z</time>
      </trkpt>
      <trkpt lat="45.81895" lon="2.96148">
        <ele>978.28</ele>
        <time>2021-08-14T14:00:33Z</time>
      </trkpt>
      <trkpt lat="45.81892" lon="2.96145">
        <ele>978.28</ele>
        <time>2021-08-14T14:00:34Z</time>
      </trkpt>
      <trkpt lat="45.81888" lon="2.96143">
        <ele>978.28</ele>
        <time>2021-08-14T14:00:35Z</time>
      </trkpt>
      <trkpt lat="45.81864" lon="2.96128">
        <ele>977.8</ele>
        <time>2021-08-14T14:00:42Z</time>
      </trkpt>
      <trkpt lat="45.81856" lon="2.96122">
        <ele>977.8</ele>
        <time>2021-08-14T14:00:44Z</time>
      </trkpt>
      <trkpt lat="45.81823" lon="2.96098">
        <ele>977.32</ele>
        <time>2021-08-14T14:00:52Z</time>
      </trkpt>
      <trkpt lat="45.81799" lon="2.96072">
        <ele>977.32</ele>
        <time>2021-08-14T14:01:00Z</time>
      </trkpt>
      <trkpt lat="45.81781" lon="2.96052">
        <ele>976.84</ele>
        <time>2021-08-14T14:01:07Z</time>
      </trkpt>
      <trkpt lat="45.81764" lon="2.96033">
        <ele>976.84</ele>
        <time>2021-08-14T14:01:14Z</time>
      </trkpt>
      <trkpt lat="45.81749" lon="2.96018">
        <ele>976.84</ele>
        <time>2021-08-14T14:01:20Z</time>
      </trkpt>
      <trkpt lat="45.81727" lon="2.96002">
        <ele>976.36</ele>
        <time>2021-08-14T14:01:26Z</time>
      </trkpt>
      <trkpt lat="45.81705" lon="2.95989">
        <ele>976.36</ele>
        <time>2021-08-14T14:01:32Z</time>
      </trkpt>
      <trkpt lat="45.81701" lon="2.95985">
        <ele>976.36</ele>
        <time>2021-08-14T14:01:33Z</time>
      </trkpt>
      <trkpt lat="45.81675" lon="2.95968">
        <ele>976.36</ele>
        <time>2021-08-14T14:01:40Z</time>
      </trkpt>
      <trkpt lat="45.81638" lon="2.95944">
        <ele>976.36</ele>
        <time>2021-08-14T14:01:49Z</time>
      </trkpt>
      <trkpt lat="45.81612" lon="2.95932">
        <ele>976.36</ele>
        <time>2021-08-14T14:01:55Z</time>
      </trkpt>
      <trkpt lat="45.81604" lon="2.95927">
        <ele>976.36</ele>
        <time>2021-08-14T14:01:57Z</time>
      </trkpt>
      <trkpt lat="45.81578" lon="2.95908">
        <ele>976.36</ele>
        <time>2021-08-14T14:02:04Z</time>
      </trkpt>
      <trkpt lat="45.81553" lon="2.95894">
        <ele>976.36</ele>
        <time>2021-08-14T14:02:11Z</time>
      </trkpt>
      <trkpt lat="45.81549" lon="2.95891">
        <ele>976.36</ele>
        <time>2021-08-14T14:02:12Z</time>
      </trkpt>
      <trkpt lat="45.81545" lon="2.95888">
        <ele>976.36</ele>
        <time>2021-08-14T14:02:13Z</time>
      </trkpt>
      <trkpt lat="45.81537" lon="2.95881">
        <ele>976.36</ele>
        <time>2021-08-14T14:02:15Z</time>
      </trkpt>
      <trkpt lat="45.81533" lon="2.95879">
        <ele>976.36</ele>
        <time>2021-08-14T14:02:16Z</time>
      </trkpt>
      <trkpt lat="45.81529" lon="2.95877">
        <ele>976.36</ele>
        <time>2021-08-14T14:02:17Z</time>
      </trkpt>
      <trkpt lat="45.81486" lon="2.95854">
        <ele>976.36</ele>
        <time>2021-08-14T14:02:27Z</time>
      </trkpt>
      <trkpt lat="45.81473" lon="2.95847">
        <ele>976.36</ele>
        <time>2021-08-14T14:02:30Z</time>
      </trkpt>
      <trkpt lat="45.81459" lon="2.9584">
        <ele>976.36</ele>
        <time>2021-08-14T14:02:33Z</time>
      </trkpt>
      <trkpt lat="45.81455" lon="2.95837">
        <ele>976.36</ele>
        <time>2021-08-14T14:02:34Z</time>
      </trkpt>
      <trkpt lat="45.81452" lon="2.95834">
        <ele>976.36</ele>
        <time>2021-08-14T14:02:35Z</time>
      </trkpt>
      <trkpt lat="45.81444" lon="2.95827">
        <ele>976.36</ele>
        <time>2021-08-14T14:02:37Z</time>
      </trkpt>
      <trkpt lat="45.81421" lon="2.95811">
        <ele>976.36</ele>
        <time>2021-08-14T14:02:44Z</time>
      </trkpt>
      <trkpt lat="45.81402" lon="2.95797">
        <ele>976.36</ele>
        <time>2021-08-14T14:02:50Z</time>
      </trkpt>
      <trkpt lat="45.81394" lon="2.9577">
        <ele>977.8</ele>
        <time>2021-08-14T14:02:56Z</time>
      </trkpt>
      <trkpt lat="45.8139" lon="2.95728">
        <ele>977.32</ele>
        <time>2021-08-14T14:03:03Z</time>
      </trkpt>
      <trkpt lat="45.81385" lon="2.95686">
        <ele>977.32</ele>
        <time>2021-08-14T14:03:10Z</time>
      </trkpt>
      <trkpt lat="45.8138" lon="2.95649">
        <ele>977.32</ele>
        <time>2021-08-14T14:03:17Z</time>
      </trkpt>
      <trkpt lat="45.81375" lon="2.95609">
        <ele>977.32</ele>
        <time>2021-08-14T14:03:24Z</time>
      </trkpt>
      <trkpt lat="45.81368" lon="2.9555">
        <ele>977.32</ele>
        <time>2021-08-14T14:03:34Z</time>
      </trkpt>
      <trkpt lat="45.81364" lon="2.95515">
        <ele>977.32</ele>
        <time>2021-08-14T14:03:40Z</time>
      </trkpt>
      <trkpt lat="45.8136" lon="2.95469">
        <ele>977.8</ele>
        <time>2021-08-14T14:03:48Z</time>
      </trkpt>
      <trkpt lat="45.8136" lon="2.95457">
        <ele>977.8</ele>
        <time>2021-08-14T14:03:50Z</time>
      </trkpt>
      <trkpt lat="45.8136" lon="2.95451">
        <ele>977.8</ele>
        <time>2021-08-14T14:03:51Z</time>
      </trkpt>
      <trkpt lat="45.8137" lon="2.95428">
        <ele>977.8</ele>
        <time>2021-08-14T14:03:56Z</time>
      </trkpt>
      <trkpt lat="45.81381" lon="2.95418">
        <ele>977.8</ele>
        <time>2021-08-14T14:03:59Z</time>
      </trkpt>
      <trkpt lat="45.81385" lon="2.95415">
        <ele>977.8</ele>
        <time>2021-08-14T14:04:00Z</time>
      </trkpt>
      <trkpt lat="45.81403" lon="2.95399">
        <ele>978.28</ele>
        <time>2021-08-14T14:04:06Z</time>
      </trkpt>
      <trkpt lat="45.81406" lon="2.95373">
        <ele>978.28</ele>
        <time>2021-08-14T14:04:11Z</time>
      </trkpt>
      <trkpt lat="45.81396" lon="2.95347">
        <ele>978.76</ele>
        <time>2021-08-14T14:04:17Z</time>
      </trkpt>
      <trkpt lat="45.81395" lon="2.95338">
        <ele>978.76</ele>
        <time>2021-08-14T14:04:22Z</time>
      </trkpt>
      <trkpt lat="45.81396" lon="2.9533">
        <ele>978.76</ele>
        <time>2021-08-14T14:04:27Z</time>
      </trkpt>
      <trkpt lat="45.814" lon="2.953">
        <ele>978.76</ele>
        <time>2021-08-14T14:04:33Z</time>
      </trkpt>
      <trkpt lat="45.81389" lon="2.95267">
        <ele>979.24</ele>
        <time>2021-08-14T14:04:40Z</time>
      </trkpt>
      <trkpt lat="45.81374" lon="2.95252">
        <ele>979.24</ele>
        <time>2021-08-14T14:04:45Z</time>
      </trkpt>
      <trkpt lat="45.8137" lon="2.95251">
        <ele>979.24</ele>
        <time>2021-08-14T14:04:46Z</time>
      </trkpt>
      <trkpt lat="45.81366" lon="2.9525">
        <ele>979.24</ele>
        <time>2021-08-14T14:04:47Z</time>
      </trkpt>
      <trkpt lat="45.81362" lon="2.9525">
        <ele>979.24</ele>
        <time>2021-08-14T14:04:48Z</time>
      </trkpt>
      <trkpt lat="45.81358" lon="2.95251">
        <ele>979.24</ele>
        <time>2021-08-14T14:04:49Z</time>
      </trkpt>
      <trkpt lat="45.81353" lon="2.95251">
        <ele>979.24</ele>
        <time>2021-08-14T14:04:50Z</time>
      </trkpt>
      <trkpt lat="45.81348" lon="2.9525">
        <ele>979.24</ele>
        <time>2021-08-14T14:04:51Z</time>
      </trkpt>
      <trkpt lat="45.81343" lon="2.95248">
        <ele>979.24</ele>
        <time>2021-08-14T14:04:52Z</time>
      </trkpt>
      <trkpt lat="45.81335" lon="2.95244">
        <ele>979.24</ele>
        <time>2021-08-14T14:04:54Z</time>
      </trkpt>
      <trkpt lat="45.81328" lon="2.95237">
        <ele>979.24</ele>
        <time>2021-08-14T14:04:56Z</time>
      </trkpt>
      <trkpt lat="45.81325" lon="2.95232">
        <ele>979.24</ele>
        <time>2021-08-14T14:04:57Z</time>
      </trkpt>
      <trkpt lat="45.81324" lon="2.95227">
        <ele>979.24</ele>
        <time>2021-08-14T14:04:58Z</time>
      </trkpt>
      <trkpt lat="45.81321" lon="2.95215">
        <ele>979.24</ele>
        <time>2021-08-14T14:05:00Z</time>
      </trkpt>
      <trkpt lat="45.8132" lon="2.95209">
        <ele>979.24</ele>
        <time>2021-08-14T14:05:01Z</time>
      </trkpt>
      <trkpt lat="45.81319" lon="2.95203">
        <ele>979.24</ele>
        <time>2021-08-14T14:05:02Z</time>
      </trkpt>
      <trkpt lat="45.81312" lon="2.95173">
        <ele>977.8</ele>
        <time>2021-08-14T14:05:07Z</time>
      </trkpt>
      <trkpt lat="45.81308" lon="2.95149">
        <ele>977.8</ele>
        <time>2021-08-14T14:05:13Z</time>
      </trkpt>
      <trkpt lat="45.81308" lon="2.9515">
        <ele>977.8</ele>
        <time>2021-08-14T14:05:23Z</time>
      </trkpt>
      <trkpt lat="45.81307" lon="2.95151">
        <ele>977.32</ele>
        <time>2021-08-14T14:05:40Z</time>
      </trkpt>
      <trkpt lat="45.81307" lon="2.95149">
        <ele>977.32</ele>
        <time>2021-08-14T14:05:53Z</time>
      </trkpt>
      <trkpt lat="45.81306" lon="2.9515">
        <ele>977.32</ele>
        <time>2021-08-14T14:06:11Z</time>
      </trkpt>
      <trkpt lat="45.81308" lon="2.95151">
        <ele>976.84</ele>
        <time>2021-08-14T14:06:31Z</time>
      </trkpt>
      <trkpt lat="45.81308" lon="2.95148">
        <ele>976.84</ele>
        <time>2021-08-14T14:06:54Z</time>
      </trkpt>
      <trkpt lat="45.81309" lon="2.9515">
        <ele>976.36</ele>
        <time>2021-08-14T14:07:10Z</time>
      </trkpt>
      <trkpt lat="45.81309" lon="2.95151">
        <ele>976.36</ele>
        <time>2021-08-14T14:07:27Z</time>
      </trkpt>
      <trkpt lat="45.81308" lon="2.9515">
        <ele>975.88</ele>
        <time>2021-08-14T14:07:47Z</time>
      </trkpt>
      <trkpt lat="45.81306" lon="2.95152">
        <ele>975.88</ele>
        <time>2021-08-14T14:07:54Z</time>
      </trkpt>
      <trkpt lat="45.81309" lon="2.95153">
        <ele>975.39</ele>
        <time>2021-08-14T14:08:19Z</time>
      </trkpt>
      <trkpt lat="45.81309" lon="2.95151">
        <ele>975.39</ele>
        <time>2021-08-14T14:08:46Z</time>
      </trkpt>
      <trkpt lat="45.8131" lon="2.95151">
        <ele>974.91</ele>
        <time>2021-08-14T14:09:15Z</time>
      </trkpt>
      <trkpt lat="45.81308" lon="2.9515">
        <ele>974.43</ele>
        <time>2021-08-14T14:09:37Z</time>
      </trkpt>
      <trkpt lat="45.81308" lon="2.9515">
        <ele>974.43</ele>
        <time>2021-08-14T14:09:59Z</time>
      </trkpt>
      <trkpt lat="45.81309" lon="2.9515">
        <ele>973.95</ele>
        <time>2021-08-14T14:10:24Z</time>
      </trkpt>
      <trkpt lat="45.81307" lon="2.95149">
        <ele>973.95</ele>
        <time>2021-08-14T14:10:44Z</time>
      </trkpt>
      <trkpt lat="45.81309" lon="2.95153">
        <ele>973.47</ele>
        <time>2021-08-14T14:11:04Z</time>
      </trkpt>
      <trkpt lat="45.81308" lon="2.95155">
        <ele>973.47</ele>
        <time>2021-08-14T14:11:28Z</time>
      </trkpt>
      <trkpt lat="45.81307" lon="2.95152">
        <ele>972.99</ele>
        <time>2021-08-14T14:11:54Z</time>
      </trkpt>
      <trkpt lat="45.81308" lon="2.95151">
        <ele>972.99</ele>
        <time>2021-08-14T14:12:14Z</time>
      </trkpt>
      <trkpt lat="45.81309" lon="2.95147">
        <ele>972.99</ele>
        <time>2021-08-14T14:12:20Z</time>
      </trkpt>
      <trkpt lat="45.8131" lon="2.95145">
        <ele>972.51</ele>
        <time>2021-08-14T14:12:22Z</time>
      </trkpt>
      <trkpt lat="45.81311" lon="2.9514">
        <ele>972.51</ele>
        <time>2021-08-14T14:12:23Z</time>
      </trkpt>
      <trkpt lat="45.81311" lon="2.95137">
        <ele>972.03</ele>
        <time>2021-08-14T14:12:24Z</time>
      </trkpt>
      <trkpt lat="45.81311" lon="2.95134">
        <ele>973.47</ele>
        <time>2021-08-14T14:12:25Z</time>
      </trkpt>
      <trkpt lat="45.81311" lon="2.9513">
        <ele>973.47</ele>
        <time>2021-08-14T14:12:26Z</time>
      </trkpt>
      <trkpt lat="45.8131" lon="2.95126">
        <ele>973.47</ele>
        <time>2021-08-14T14:12:27Z</time>
      </trkpt>
      <trkpt lat="45.8131" lon="2.95121">
        <ele>973.47</ele>
        <time>2021-08-14T14:12:28Z</time>
      </trkpt>
      <trkpt lat="45.8131" lon="2.95116">
        <ele>973.47</ele>
        <time>2021-08-14T14:12:29Z</time>
      </trkpt>
      <trkpt lat="45.8131" lon="2.95111">
        <ele>973.47</ele>
        <time>2021-08-14T14:12:30Z</time>
      </trkpt>
      <trkpt lat="45.8131" lon="2.95105">
        <ele>973.47</ele>
        <time>2021-08-14T14:12:31Z</time>
      </trkpt>
      <trkpt lat="45.81309" lon="2.95101">
        <ele>973.47</ele>
        <time>2021-08-14T14:12:32Z</time>
      </trkpt>
      <trkpt lat="45.81301" lon="2.95073">
        <ele>973.47</ele>
        <time>2021-08-14T14:12:38Z</time>
      </trkpt>
      <trkpt lat="45.81299" lon="2.95069">
        <ele>973.47</ele>
        <time>2021-08-14T14:12:39Z</time>
      </trkpt>
      <trkpt lat="45.81297" lon="2.95066">
        <ele>973.47</ele>
        <time>2021-08-14T14:12:40Z</time>
      </trkpt>
      <trkpt lat="45.81296" lon="2.95062">
        <ele>973.47</ele>
        <time>2021-08-14T14:12:41Z</time>
      </trkpt>
      <trkpt lat="45.81295" lon="2.95057">
        <ele>973.47</ele>
        <time>2021-08-14T14:12:42Z</time>
      </trkpt>
      <trkpt lat="45.81294" lon="2.95052">
        <ele>973.47</ele>
        <time>2021-08-14T14:12:43Z</time>
      </trkpt>
      <trkpt lat="45.81294" lon="2.95047">
        <ele>973.47</ele>
        <time>2021-08-14T14:12:44Z</time>
      </trkpt>
      <trkpt lat="45.8129" lon="2.95017">
        <ele>972.03</ele>
        <time>2021-08-14T14:12:49Z</time>
      </trkpt>
      <trkpt lat="45.81288" lon="2.95011">
        <ele>972.03</ele>
        <time>2021-08-14T14:12:50Z</time>
      </trkpt>
      <trkpt lat="45.81286" lon="2.95007">
        <ele>972.03</ele>
        <time>2021-08-14T14:12:51Z</time>
      </trkpt>
      <trkpt lat="45.81282" lon="2.95004">
        <ele>972.03</ele>
        <time>2021-08-14T14:12:52Z</time>
      </trkpt>
      <trkpt lat="45.81279" lon="2.95003">
        <ele>972.03</ele>
        <time>2021-08-14T14:12:53Z</time>
      </trkpt>
      <trkpt lat="45.8126" lon="2.95">
        <ele>971.55</ele>
        <time>2021-08-14T14:12:58Z</time>
      </trkpt>
      <trkpt lat="45.81257" lon="2.95002">
        <ele>971.07</ele>
        <time>2021-08-14T14:12:59Z</time>
      </trkpt>
      <trkpt lat="45.81254" lon="2.95007">
        <ele>971.07</ele>
        <time>2021-08-14T14:13:00Z</time>
      </trkpt>
      <trkpt lat="45.81252" lon="2.95012">
        <ele>971.07</ele>
        <time>2021-08-14T14:13:01Z</time>
      </trkpt>
      <trkpt lat="45.81252" lon="2.95018">
        <ele>971.07</ele>
        <time>2021-08-14T14:13:02Z</time>
      </trkpt>
      <trkpt lat="45.81253" lon="2.95023">
        <ele>971.07</ele>
        <time>2021-08-14T14:13:03Z</time>
      </trkpt>
      <trkpt lat="45.81254" lon="2.95028">
        <ele>971.07</ele>
        <time>2021-08-14T14:13:04Z</time>
      </trkpt>
      <trkpt lat="45.81254" lon="2.95033">
        <ele>971.07</ele>
        <time>2021-08-14T14:13:05Z</time>
      </trkpt>
      <trkpt lat="45.81263" lon="2.95072">
        <ele>971.07</ele>
        <time>2021-08-14T14:13:13Z</time>
      </trkpt>
      <trkpt lat="45.8127" lon="2.95101">
        <ele>971.07</ele>
        <time>2021-08-14T14:13:19Z</time>
      </trkpt>
      <trkpt lat="45.81278" lon="2.95128">
        <ele>971.07</ele>
        <time>2021-08-14T14:13:25Z</time>
      </trkpt>
      <trkpt lat="45.81285" lon="2.95154">
        <ele>972.03</ele>
        <time>2021-08-14T14:13:31Z</time>
      </trkpt>
      <trkpt lat="45.81287" lon="2.95164">
        <ele>972.03</ele>
        <time>2021-08-14T14:13:34Z</time>
      </trkpt>
      <trkpt lat="45.81286" lon="2.95167">
        <ele>972.03</ele>
        <time>2021-08-14T14:13:35Z</time>
      </trkpt>
      <trkpt lat="45.81284" lon="2.95169">
        <ele>972.03</ele>
        <time>2021-08-14T14:13:36Z</time>
      </trkpt>
      <trkpt lat="45.81282" lon="2.95171">
        <ele>972.03</ele>
        <time>2021-08-14T14:13:37Z</time>
      </trkpt>
      <trkpt lat="45.81281" lon="2.95171">
        <ele>972.03</ele>
        <time>2021-08-14T14:13:38Z</time>
      </trkpt>
      <trkpt lat="45.8128" lon="2.95171">
        <ele>972.51</ele>
        <time>2021-08-14T14:13:44Z</time>
      </trkpt>
      <trkpt lat="45.81279" lon="2.9517">
        <ele>972.51</ele>
        <time>2021-08-14T14:13:45Z</time>
      </trkpt>
      <trkpt lat="45.81275" lon="2.95159">
        <ele>972.51</ele>
        <time>2021-08-14T14:13:51Z</time>
      </trkpt>
      <trkpt lat="45.81273" lon="2.95157">
        <ele>972.51</ele>
        <time>2021-08-14T14:13:52Z</time>
      </trkpt>
      <trkpt lat="45.81271" lon="2.95155">
        <ele>972.51</ele>
        <time>2021-08-14T14:13:59Z</time>
      </trkpt>
      <trkpt lat="45.8127" lon="2.95156">
        <ele>972.03</ele>
        <time>2021-08-14T14:14:12Z</time>
      </trkpt>
      <trkpt lat="45.81268" lon="2.95155">
        <ele>972.03</ele>
        <time>2021-08-14T14:14:13Z</time>
      </trkpt>
      <trkpt lat="45.81267" lon="2.95154">
        <ele>972.03</ele>
        <time>2021-08-14T14:14:14Z</time>
      </trkpt>
      <trkpt lat="45.81265" lon="2.95152">
        <ele>972.03</ele>
        <time>2021-08-14T14:14:15Z</time>
      </trkpt>
      <trkpt lat="45.81252" lon="2.95137">
        <ele>972.03</ele>
        <time>2021-08-14T14:14:22Z</time>
      </trkpt>
      <trkpt lat="45.81231" lon="2.95116">
        <ele>972.03</ele>
        <time>2021-08-14T14:14:29Z</time>
      </trkpt>
      <trkpt lat="45.81205" lon="2.95096">
        <ele>972.03</ele>
        <time>2021-08-14T14:14:37Z</time>
      </trkpt>
      <trkpt lat="45.81184" lon="2.95087">
        <ele>972.51</ele>
        <time>2021-08-14T14:14:43Z</time>
      </trkpt>
      <trkpt lat="45.81166" lon="2.95083">
        <ele>972.51</ele>
        <time>2021-08-14T14:14:49Z</time>
      </trkpt>
      <trkpt lat="45.81146" lon="2.95081">
        <ele>972.99</ele>
        <time>2021-08-14T14:14:55Z</time>
      </trkpt>
      <trkpt lat="45.81107" lon="2.95081">
        <ele>973.47</ele>
        <time>2021-08-14T14:15:06Z</time>
      </trkpt>
      <trkpt lat="45.8108" lon="2.95085">
        <ele>973.47</ele>
        <time>2021-08-14T14:15:14Z</time>
      </trkpt>
      <trkpt lat="45.81049" lon="2.9509">
        <ele>973.47</ele>
        <time>2021-08-14T14:15:22Z</time>
      </trkpt>
      <trkpt lat="45.81031" lon="2.95097">
        <ele>973.47</ele>
        <time>2021-08-14T14:15:26Z</time>
      </trkpt>
      <trkpt lat="45.81027" lon="2.95098">
        <ele>973.47</ele>
        <time>2021-08-14T14:15:27Z</time>
      </trkpt>
      <trkpt lat="45.81022" lon="2.951">
        <ele>973.47</ele>
        <time>2021-08-14T14:15:28Z</time>
      </trkpt>
      <trkpt lat="45.81017" lon="2.951">
        <ele>973.47</ele>
        <time>2021-08-14T14:15:29Z</time>
      </trkpt>
      <trkpt lat="45.81012" lon="2.95101">
        <ele>972.03</ele>
        <time>2021-08-14T14:15:30Z</time>
      </trkpt>
      <trkpt lat="45.81007" lon="2.95102">
        <ele>972.03</ele>
        <time>2021-08-14T14:15:31Z</time>
      </trkpt>
      <trkpt lat="45.80987" lon="2.95106">
        <ele>971.55</ele>
        <time>2021-08-14T14:15:35Z</time>
      </trkpt>
      <trkpt lat="45.80944" lon="2.95107">
        <ele>971.55</ele>
        <time>2021-08-14T14:15:44Z</time>
      </trkpt>
      <trkpt lat="45.80907" lon="2.95101">
        <ele>971.55</ele>
        <time>2021-08-14T14:15:53Z</time>
      </trkpt>
      <trkpt lat="45.80868" lon="2.95094">
        <ele>971.07</ele>
        <time>2021-08-14T14:16:02Z</time>
      </trkpt>
      <trkpt lat="45.80829" lon="2.95081">
        <ele>970.59</ele>
        <time>2021-08-14T14:16:10Z</time>
      </trkpt>
      <trkpt lat="45.80794" lon="2.9507">
        <ele>970.11</ele>
        <time>2021-08-14T14:16:18Z</time>
      </trkpt>
      <trkpt lat="45.8076" lon="2.95062">
        <ele>969.63</ele>
        <time>2021-08-14T14:16:26Z</time>
      </trkpt>
      <trkpt lat="45.80743" lon="2.95055">
        <ele>969.15</ele>
        <time>2021-08-14T14:16:30Z</time>
      </trkpt>
      <trkpt lat="45.80739" lon="2.95054">
        <ele>968.67</ele>
        <time>2021-08-14T14:16:31Z</time>
      </trkpt>
      <trkpt lat="45.80734" lon="2.95053">
        <ele>968.67</ele>
        <time>2021-08-14T14:16:32Z</time>
      </trkpt>
      <trkpt lat="45.80699" lon="2.95049">
        <ele>968.67</ele>
        <time>2021-08-14T14:16:40Z</time>
      </trkpt>
      <trkpt lat="45.8067" lon="2.95037">
        <ele>968.67</ele>
        <time>2021-08-14T14:16:47Z</time>
      </trkpt>
      <trkpt lat="45.80661" lon="2.95033">
        <ele>970.11</ele>
        <time>2021-08-14T14:16:50Z</time>
      </trkpt>
      <trkpt lat="45.80659" lon="2.95031">
        <ele>970.11</ele>
        <time>2021-08-14T14:16:56Z</time>
      </trkpt>
      <trkpt lat="45.80659" lon="2.95029">
        <ele>970.11</ele>
        <time>2021-08-14T14:17:17Z</time>
      </trkpt>
      <trkpt lat="45.8066" lon="2.95028">
        <ele>970.11</ele>
        <time>2021-08-14T14:17:29Z</time>
      </trkpt>
      <trkpt lat="45.80661" lon="2.95024">
        <ele>969.63</ele>
        <time>2021-08-14T14:17:41Z</time>
      </trkpt>
      <trkpt lat="45.80662" lon="2.95026">
        <ele>969.63</ele>
        <time>2021-08-14T14:17:59Z</time>
      </trkpt>
      <trkpt lat="45.80664" lon="2.95031">
        <ele>969.63</ele>
        <time>2021-08-14T14:18:07Z</time>
      </trkpt>
      <trkpt lat="45.80666" lon="2.95032">
        <ele>969.63</ele>
        <time>2021-08-14T14:18:16Z</time>
      </trkpt>
      <trkpt lat="45.80664" lon="2.95033">
        <ele>969.63</ele>
        <time>2021-08-14T14:18:33Z</time>
      </trkpt>
      <trkpt lat="45.80664" lon="2.95035">
        <ele>969.63</ele>
        <time>2021-08-14T14:18:49Z</time>
      </trkpt>
      <trkpt lat="45.80662" lon="2.95038">
        <ele>969.15</ele>
        <time>2021-08-14T14:19:13Z</time>
      </trkpt>
      <trkpt lat="45.80662" lon="2.95036">
        <ele>969.15</ele>
        <time>2021-08-14T14:19:35Z</time>
      </trkpt>
      <trkpt lat="45.80662" lon="2.95032">
        <ele>969.15</ele>
        <time>2021-08-14T14:19:54Z</time>
      </trkpt>
      <trkpt lat="45.80659" lon="2.95034">
        <ele>969.15</ele>
        <time>2021-08-14T14:20:11Z</time>
      </trkpt>
      <trkpt lat="45.80661" lon="2.95033">
        <ele>968.67</ele>
        <time>2021-08-14T14:20:37Z</time>
      </trkpt>
      <trkpt lat="45.80661" lon="2.9503">
        <ele>968.67</ele>
        <time>2021-08-14T14:20:59Z</time>
      </trkpt>
      <trkpt lat="45.80661" lon="2.95032">
        <ele>969.15</ele>
        <time>2021-08-14T14:21:15Z</time>
      </trkpt>
      <trkpt lat="45.80661" lon="2.95039">
        <ele>969.15</ele>
        <time>2021-08-14T14:21:36Z</time>
      </trkpt>
      <trkpt lat="45.80661" lon="2.95041">
        <ele>969.15</ele>
        <time>2021-08-14T14:22:01Z</time>
      </trkpt>
      <trkpt lat="45.80662" lon="2.9504">
        <ele>969.15</ele>
        <time>2021-08-14T14:22:17Z</time>
      </trkpt>
      <trkpt lat="45.80663" lon="2.95041">
        <ele>968.67</ele>
        <time>2021-08-14T14:22:30Z</time>
      </trkpt>
      <trkpt lat="45.80664" lon="2.95041">
        <ele>968.67</ele>
        <time>2021-08-14T14:22:39Z</time>
      </trkpt>
      <trkpt lat="45.80664" lon="2.95042">
        <ele>968.67</ele>
        <time>2021-08-14T14:22:56Z</time>
      </trkpt>
      <trkpt lat="45.80664" lon="2.95043">
        <ele>968.67</ele>
        <time>2021-08-14T14:23:07Z</time>
      </trkpt>
      <trkpt lat="45.80664" lon="2.95041">
        <ele>968.67</ele>
        <time>2021-08-14T14:23:30Z</time>
      </trkpt>
      <trkpt lat="45.80661" lon="2.9504">
        <ele>968.67</ele>
        <time>2021-08-14T14:23:47Z</time>
      </trkpt>
      <trkpt lat="45.80661" lon="2.95038">
        <ele>968.67</ele>
        <time>2021-08-14T14:24:00Z</time>
      </trkpt>
      <trkpt lat="45.8066" lon="2.95038">
        <ele>968.67</ele>
        <time>2021-08-14T14:24:15Z</time>
      </trkpt>
      <trkpt lat="45.80662" lon="2.95035">
        <ele>968.67</ele>
        <time>2021-08-14T14:24:36Z</time>
      </trkpt>
      <trkpt lat="45.80661" lon="2.95035">
        <ele>968.67</ele>
        <time>2021-08-14T14:24:55Z</time>
      </trkpt>
      <trkpt lat="45.8066" lon="2.95035">
        <ele>968.67</ele>
        <time>2021-08-14T14:25:13Z</time>
      </trkpt>
      <trkpt lat="45.8066" lon="2.95037">
        <ele>968.67</ele>
        <time>2021-08-14T14:25:39Z</time>
      </trkpt>
      <trkpt lat="45.80659" lon="2.95037">
        <ele>968.67</ele>
        <time>2021-08-14T14:25:46Z</time>
      </trkpt>
      <trkpt lat="45.80646" lon="2.95032">
        <ele>968.67</ele>
        <time>2021-08-14T14:25:53Z</time>
      </trkpt>
      <trkpt lat="45.80633" lon="2.95026">
        <ele>969.15</ele>
        <time>2021-08-14T14:25:59Z</time>
      </trkpt>
      <trkpt lat="45.80621" lon="2.95021">
        <ele>970.11</ele>
        <time>2021-08-14T14:26:05Z</time>
      </trkpt>
      <trkpt lat="45.80608" lon="2.95017">
        <ele>970.11</ele>
        <time>2021-08-14T14:26:11Z</time>
      </trkpt>
      <trkpt lat="45.80592" lon="2.95014">
        <ele>970.11</ele>
        <time>2021-08-14T14:26:18Z</time>
      </trkpt>
      <trkpt lat="45.80577" lon="2.95008">
        <ele>971.07</ele>
        <time>2021-08-14T14:26:25Z</time>
      </trkpt>
      <trkpt lat="45.80561" lon="2.95003">
        <ele>972.03</ele>
        <time>2021-08-14T14:26:33Z</time>
      </trkpt>
      <trkpt lat="45.80545" lon="2.94999">
        <ele>972.99</ele>
        <time>2021-08-14T14:26:40Z</time>
      </trkpt>
      <trkpt lat="45.80531" lon="2.95">
        <ele>972.99</ele>
        <time>2021-08-14T14:26:47Z</time>
      </trkpt>
      <trkpt lat="45.80511" lon="2.9501">
        <ele>973.95</ele>
        <time>2021-08-14T14:26:55Z</time>
      </trkpt>
      <trkpt lat="45.80496" lon="2.95018">
        <ele>974.91</ele>
        <time>2021-08-14T14:27:02Z</time>
      </trkpt>
      <trkpt lat="45.8048" lon="2.95023">
        <ele>975.39</ele>
        <time>2021-08-14T14:27:09Z</time>
      </trkpt>
      <trkpt lat="45.80478" lon="2.95023">
        <ele>975.39</ele>
        <time>2021-08-14T14:27:10Z</time>
      </trkpt>
      <trkpt lat="45.80476" lon="2.95024">
        <ele>975.39</ele>
        <time>2021-08-14T14:27:11Z</time>
      </trkpt>
      <trkpt lat="45.80475" lon="2.95025">
        <ele>975.88</ele>
        <time>2021-08-14T14:27:12Z</time>
      </trkpt>
      <trkpt lat="45.80461" lon="2.95028">
        <ele>975.88</ele>
        <time>2021-08-14T14:27:19Z</time>
      </trkpt>
      <trkpt lat="45.80441" lon="2.95034">
        <ele>976.84</ele>
        <time>2021-08-14T14:27:26Z</time>
      </trkpt>
      <trkpt lat="45.80425" lon="2.9504">
        <ele>977.32</ele>
        <time>2021-08-14T14:27:34Z</time>
      </trkpt>
      <trkpt lat="45.80417" lon="2.95043">
        <ele>977.8</ele>
        <time>2021-08-14T14:27:38Z</time>
      </trkpt>
      <trkpt lat="45.80414" lon="2.95044">
        <ele>977.8</ele>
        <time>2021-08-14T14:27:39Z</time>
      </trkpt>
      <trkpt lat="45.80398" lon="2.95054">
        <ele>977.8</ele>
        <time>2021-08-14T14:27:46Z</time>
      </trkpt>
      <trkpt lat="45.80385" lon="2.95064">
        <ele>979.24</ele>
        <time>2021-08-14T14:27:54Z</time>
      </trkpt>
      <trkpt lat="45.80373" lon="2.95078">
        <ele>980.68</ele>
        <time>2021-08-14T14:28:03Z</time>
      </trkpt>
      <trkpt lat="45.80363" lon="2.95089">
        <ele>981.16</ele>
        <time>2021-08-14T14:28:10Z</time>
      </trkpt>
      <trkpt lat="45.80353" lon="2.95096">
        <ele>982.6</ele>
        <time>2021-08-14T14:28:18Z</time>
      </trkpt>
      <trkpt lat="45.80346" lon="2.95097">
        <ele>983.09</ele>
        <time>2021-08-14T14:28:24Z</time>
      </trkpt>
      <trkpt lat="45.80337" lon="2.95098">
        <ele>983.57</ele>
        <time>2021-08-14T14:28:30Z</time>
      </trkpt>
      <trkpt lat="45.80325" lon="2.95098">
        <ele>984.53</ele>
        <time>2021-08-14T14:28:38Z</time>
      </trkpt>
      <trkpt lat="45.80321" lon="2.95099">
        <ele>985.49</ele>
        <time>2021-08-14T14:28:41Z</time>
      </trkpt>
      <trkpt lat="45.80312" lon="2.95103">
        <ele>986.45</ele>
        <time>2021-08-14T14:28:48Z</time>
      </trkpt>
      <trkpt lat="45.803" lon="2.95106">
        <ele>987.41</ele>
        <time>2021-08-14T14:28:57Z</time>
      </trkpt>
      <trkpt lat="45.80291" lon="2.9511">
        <ele>988.37</ele>
        <time>2021-08-14T14:29:04Z</time>
      </trkpt>
      <trkpt lat="45.80281" lon="2.95112">
        <ele>988.85</ele>
        <time>2021-08-14T14:29:13Z</time>
      </trkpt>
      <trkpt lat="45.80268" lon="2.95117">
        <ele>990.78</ele>
        <time>2021-08-14T14:29:24Z</time>
      </trkpt>
      <trkpt lat="45.80261" lon="2.95119">
        <ele>992.22</ele>
        <time>2021-08-14T14:29:32Z</time>
      </trkpt>
      <trkpt lat="45.80252" lon="2.9512">
        <ele>993.18</ele>
        <time>2021-08-14T14:29:41Z</time>
      </trkpt>
      <trkpt lat="45.80243" lon="2.95122">
        <ele>994.14</ele>
        <time>2021-08-14T14:29:50Z</time>
      </trkpt>
      <trkpt lat="45.80233" lon="2.95122">
        <ele>995.1</ele>
        <time>2021-08-14T14:30:00Z</time>
      </trkpt>
      <trkpt lat="45.80225" lon="2.95124">
        <ele>996.06</ele>
        <time>2021-08-14T14:30:08Z</time>
      </trkpt>
      <trkpt lat="45.80217" lon="2.95124">
        <ele>997.02</ele>
        <time>2021-08-14T14:30:16Z</time>
      </trkpt>
      <trkpt lat="45.8021" lon="2.95122">
        <ele>998.47</ele>
        <time>2021-08-14T14:30:24Z</time>
      </trkpt>
      <trkpt lat="45.80203" lon="2.95121">
        <ele>998.95</ele>
        <time>2021-08-14T14:30:31Z</time>
      </trkpt>
      <trkpt lat="45.802" lon="2.95122">
        <ele>999.43</ele>
        <time>2021-08-14T14:30:40Z</time>
      </trkpt>
      <trkpt lat="45.80193" lon="2.95123">
        <ele>999.91</ele>
        <time>2021-08-14T14:30:52Z</time>
      </trkpt>
      <trkpt lat="45.80186" lon="2.95123">
        <ele>1000.39</ele>
        <time>2021-08-14T14:30:59Z</time>
      </trkpt>
      <trkpt lat="45.80178" lon="2.95125">
        <ele>1000.87</ele>
        <time>2021-08-14T14:31:05Z</time>
      </trkpt>
      <trkpt lat="45.80168" lon="2.95126">
        <ele>1002.31</ele>
        <time>2021-08-14T14:31:14Z</time>
      </trkpt>
      <trkpt lat="45.80159" lon="2.95127">
        <ele>1002.79</ele>
        <time>2021-08-14T14:31:21Z</time>
      </trkpt>
      <trkpt lat="45.80147" lon="2.95121">
        <ele>1003.75</ele>
        <time>2021-08-14T14:31:29Z</time>
      </trkpt>
      <trkpt lat="45.80137" lon="2.95117">
        <ele>1004.23</ele>
        <time>2021-08-14T14:31:37Z</time>
      </trkpt>
      <trkpt lat="45.80128" lon="2.95116">
        <ele>1004.72</ele>
        <time>2021-08-14T14:31:44Z</time>
      </trkpt>
      <trkpt lat="45.80121" lon="2.95119">
        <ele>1005.2</ele>
        <time>2021-08-14T14:31:51Z</time>
      </trkpt>
      <trkpt lat="45.80109" lon="2.95122">
        <ele>1006.64</ele>
        <time>2021-08-14T14:31:59Z</time>
      </trkpt>
      <trkpt lat="45.80103" lon="2.95119">
        <ele>1007.12</ele>
        <time>2021-08-14T14:32:04Z</time>
      </trkpt>
      <trkpt lat="45.80094" lon="2.9511">
        <ele>1007.12</ele>
        <time>2021-08-14T14:32:12Z</time>
      </trkpt>
      <trkpt lat="45.80082" lon="2.95102">
        <ele>1007.6</ele>
        <time>2021-08-14T14:32:20Z</time>
      </trkpt>
      <trkpt lat="45.80072" lon="2.95097">
        <ele>1008.08</ele>
        <time>2021-08-14T14:32:27Z</time>
      </trkpt>
      <trkpt lat="45.80061" lon="2.95093">
        <ele>1009.04</ele>
        <time>2021-08-14T14:32:34Z</time>
      </trkpt>
      <trkpt lat="45.80049" lon="2.95092">
        <ele>1009.52</ele>
        <time>2021-08-14T14:32:41Z</time>
      </trkpt>
      <trkpt lat="45.80043" lon="2.95092">
        <ele>1010</ele>
        <time>2021-08-14T14:32:46Z</time>
      </trkpt>
      <trkpt lat="45.80028" lon="2.95089">
        <ele>1011.44</ele>
        <time>2021-08-14T14:32:54Z</time>
      </trkpt>
      <trkpt lat="45.80026" lon="2.95089">
        <ele>1011.44</ele>
        <time>2021-08-14T14:32:55Z</time>
      </trkpt>
      <trkpt lat="45.80011" lon="2.95085">
        <ele>1012.89</ele>
        <time>2021-08-14T14:33:05Z</time>
      </trkpt>
      <trkpt lat="45.80002" lon="2.95083">
        <ele>1013.85</ele>
        <time>2021-08-14T14:33:13Z</time>
      </trkpt>
      <trkpt lat="45.79993" lon="2.95081">
        <ele>1014.81</ele>
        <time>2021-08-14T14:33:19Z</time>
      </trkpt>
      <trkpt lat="45.79985" lon="2.95073">
        <ele>1015.29</ele>
        <time>2021-08-14T14:33:26Z</time>
      </trkpt>
      <trkpt lat="45.79983" lon="2.9507">
        <ele>1015.29</ele>
        <time>2021-08-14T14:33:28Z</time>
      </trkpt>
      <trkpt lat="45.79977" lon="2.95066">
        <ele>1015.77</ele>
        <time>2021-08-14T14:33:32Z</time>
      </trkpt>
      <trkpt lat="45.79962" lon="2.95054">
        <ele>1016.25</ele>
        <time>2021-08-14T14:33:42Z</time>
      </trkpt>
      <trkpt lat="45.79956" lon="2.95049">
        <ele>1016.25</ele>
        <time>2021-08-14T14:33:46Z</time>
      </trkpt>
      <trkpt lat="45.79948" lon="2.95036">
        <ele>1017.69</ele>
        <time>2021-08-14T14:33:54Z</time>
      </trkpt>
      <trkpt lat="45.79942" lon="2.95032">
        <ele>1018.65</ele>
        <time>2021-08-14T14:34:02Z</time>
      </trkpt>
      <trkpt lat="45.79933" lon="2.95025">
        <ele>1019.62</ele>
        <time>2021-08-14T14:34:11Z</time>
      </trkpt>
      <trkpt lat="45.79927" lon="2.95019">
        <ele>1021.06</ele>
        <time>2021-08-14T14:34:20Z</time>
      </trkpt>
      <trkpt lat="45.79921" lon="2.95011">
        <ele>1022.02</ele>
        <time>2021-08-14T14:34:28Z</time>
      </trkpt>
      <trkpt lat="45.79914" lon="2.95003">
        <ele>1022.98</ele>
        <time>2021-08-14T14:34:37Z</time>
      </trkpt>
      <trkpt lat="45.79906" lon="2.94997">
        <ele>1023.94</ele>
        <time>2021-08-14T14:34:46Z</time>
      </trkpt>
      <trkpt lat="45.79901" lon="2.94995">
        <ele>1023.94</ele>
        <time>2021-08-14T14:34:53Z</time>
      </trkpt>
      <trkpt lat="45.79893" lon="2.94997">
        <ele>1024.9</ele>
        <time>2021-08-14T14:35:00Z</time>
      </trkpt>
      <trkpt lat="45.79885" lon="2.94999">
        <ele>1025.38</ele>
        <time>2021-08-14T14:35:07Z</time>
      </trkpt>
      <trkpt lat="45.79874" lon="2.94997">
        <ele>1026.83</ele>
        <time>2021-08-14T14:35:16Z</time>
      </trkpt>
      <trkpt lat="45.79868" lon="2.94997">
        <ele>1027.31</ele>
        <time>2021-08-14T14:35:22Z</time>
      </trkpt>
      <trkpt lat="45.79862" lon="2.95002">
        <ele>1027.31</ele>
        <time>2021-08-14T14:35:26Z</time>
      </trkpt>
      <trkpt lat="45.7986" lon="2.95004">
        <ele>1027.31</ele>
        <time>2021-08-14T14:35:27Z</time>
      </trkpt>
      <trkpt lat="45.79857" lon="2.95007">
        <ele>1025.86</ele>
        <time>2021-08-14T14:35:28Z</time>
      </trkpt>
      <trkpt lat="45.79855" lon="2.9501">
        <ele>1025.38</ele>
        <time>2021-08-14T14:35:29Z</time>
      </trkpt>
      <trkpt lat="45.79847" lon="2.95015">
        <ele>1023.94</ele>
        <time>2021-08-14T14:35:31Z</time>
      </trkpt>
      <trkpt lat="45.79843" lon="2.95016">
        <ele>1023.94</ele>
        <time>2021-08-14T14:35:32Z</time>
      </trkpt>
      <trkpt lat="45.79839" lon="2.95017">
        <ele>1023.46</ele>
        <time>2021-08-14T14:35:33Z</time>
      </trkpt>
      <trkpt lat="45.79835" lon="2.95017">
        <ele>1023.46</ele>
        <time>2021-08-14T14:35:34Z</time>
      </trkpt>
      <trkpt lat="45.7983" lon="2.95017">
        <ele>1023.46</ele>
        <time>2021-08-14T14:35:35Z</time>
      </trkpt>
      <trkpt lat="45.79825" lon="2.95015">
        <ele>1022.98</ele>
        <time>2021-08-14T14:35:36Z</time>
      </trkpt>
      <trkpt lat="45.79805" lon="2.95013">
        <ele>1022.5</ele>
        <time>2021-08-14T14:35:41Z</time>
      </trkpt>
      <trkpt lat="45.79796" lon="2.95015">
        <ele>1022.02</ele>
        <time>2021-08-14T14:35:43Z</time>
      </trkpt>
      <trkpt lat="45.79771" lon="2.95023">
        <ele>1021.54</ele>
        <time>2021-08-14T14:35:47Z</time>
      </trkpt>
      <trkpt lat="45.79752" lon="2.95026">
        <ele>1021.54</ele>
        <time>2021-08-14T14:35:50Z</time>
      </trkpt>
      <trkpt lat="45.79746" lon="2.95029">
        <ele>1021.54</ele>
        <time>2021-08-14T14:35:51Z</time>
      </trkpt>
      <trkpt lat="45.79741" lon="2.95031">
        <ele>1021.06</ele>
        <time>2021-08-14T14:35:52Z</time>
      </trkpt>
      <trkpt lat="45.79736" lon="2.95032">
        <ele>1021.06</ele>
        <time>2021-08-14T14:35:53Z</time>
      </trkpt>
      <trkpt lat="45.79731" lon="2.95033">
        <ele>1021.06</ele>
        <time>2021-08-14T14:35:54Z</time>
      </trkpt>
      <trkpt lat="45.79727" lon="2.95032">
        <ele>1021.06</ele>
        <time>2021-08-14T14:35:55Z</time>
      </trkpt>
      <trkpt lat="45.79723" lon="2.95031">
        <ele>1021.06</ele>
        <time>2021-08-14T14:35:56Z</time>
      </trkpt>
      <trkpt lat="45.79719" lon="2.95031">
        <ele>1021.06</ele>
        <time>2021-08-14T14:35:57Z</time>
      </trkpt>
      <trkpt lat="45.79715" lon="2.95031">
        <ele>1021.06</ele>
        <time>2021-08-14T14:35:58Z</time>
      </trkpt>
      <trkpt lat="45.79701" lon="2.95033">
        <ele>1021.06</ele>
        <time>2021-08-14T14:36:04Z</time>
      </trkpt>
      <trkpt lat="45.79686" lon="2.95035">
        <ele>1021.06</ele>
        <time>2021-08-14T14:36:10Z</time>
      </trkpt>
      <trkpt lat="45.79661" lon="2.95041">
        <ele>1022.5</ele>
        <time>2021-08-14T14:36:19Z</time>
      </trkpt>
      <trkpt lat="45.79638" lon="2.95048">
        <ele>1022.5</ele>
        <time>2021-08-14T14:36:26Z</time>
      </trkpt>
      <trkpt lat="45.79626" lon="2.95055">
        <ele>1022.5</ele>
        <time>2021-08-14T14:36:31Z</time>
      </trkpt>
      <trkpt lat="45.79625" lon="2.95057">
        <ele>1022.5</ele>
        <time>2021-08-14T14:36:32Z</time>
      </trkpt>
      <trkpt lat="45.79623" lon="2.9506">
        <ele>1022.5</ele>
        <time>2021-08-14T14:36:33Z</time>
      </trkpt>
      <trkpt lat="45.79621" lon="2.95063">
        <ele>1022.5</ele>
        <time>2021-08-14T14:36:34Z</time>
      </trkpt>
      <trkpt lat="45.79619" lon="2.95066">
        <ele>1022.5</ele>
        <time>2021-08-14T14:36:35Z</time>
      </trkpt>
      <trkpt lat="45.79616" lon="2.95067">
        <ele>1022.5</ele>
        <time>2021-08-14T14:36:36Z</time>
      </trkpt>
      <trkpt lat="45.79613" lon="2.95067">
        <ele>1022.5</ele>
        <time>2021-08-14T14:36:37Z</time>
      </trkpt>
      <trkpt lat="45.79611" lon="2.95066">
        <ele>1022.98</ele>
        <time>2021-08-14T14:36:38Z</time>
      </trkpt>
      <trkpt lat="45.79596" lon="2.95055">
        <ele>1024.42</ele>
        <time>2021-08-14T14:36:46Z</time>
      </trkpt>
      <trkpt lat="45.79594" lon="2.95053">
        <ele>1024.42</ele>
        <time>2021-08-14T14:36:47Z</time>
      </trkpt>
      <trkpt lat="45.79583" lon="2.95046">
        <ele>1025.38</ele>
        <time>2021-08-14T14:36:54Z</time>
      </trkpt>
      <trkpt lat="45.79582" lon="2.95045">
        <ele>1025.38</ele>
        <time>2021-08-14T14:36:55Z</time>
      </trkpt>
      <trkpt lat="45.79581" lon="2.95044">
        <ele>1025.38</ele>
        <time>2021-08-14T14:36:56Z</time>
      </trkpt>
      <trkpt lat="45.7957" lon="2.95036">
        <ele>1026.34</ele>
        <time>2021-08-14T14:37:05Z</time>
      </trkpt>
      <trkpt lat="45.7956" lon="2.95025">
        <ele>1027.31</ele>
        <time>2021-08-14T14:37:13Z</time>
      </trkpt>
      <trkpt lat="45.7955" lon="2.95009">
        <ele>1027.31</ele>
        <time>2021-08-14T14:37:20Z</time>
      </trkpt>
      <trkpt lat="45.7954" lon="2.9499">
        <ele>1026.34</ele>
        <time>2021-08-14T14:37:25Z</time>
      </trkpt>
      <trkpt lat="45.79527" lon="2.9496">
        <ele>1026.34</ele>
        <time>2021-08-14T14:37:33Z</time>
      </trkpt>
      <trkpt lat="45.7952" lon="2.94942">
        <ele>1027.79</ele>
        <time>2021-08-14T14:37:38Z</time>
      </trkpt>
      <trkpt lat="45.79512" lon="2.94926">
        <ele>1028.27</ele>
        <time>2021-08-14T14:37:45Z</time>
      </trkpt>
      <trkpt lat="45.79504" lon="2.94913">
        <ele>1028.75</ele>
        <time>2021-08-14T14:37:53Z</time>
      </trkpt>
      <trkpt lat="45.79494" lon="2.94895">
        <ele>1029.71</ele>
        <time>2021-08-14T14:38:01Z</time>
      </trkpt>
      <trkpt lat="45.79485" lon="2.94884">
        <ele>1030.67</ele>
        <time>2021-08-14T14:38:08Z</time>
      </trkpt>
      <trkpt lat="45.79484" lon="2.94883">
        <ele>1031.15</ele>
        <time>2021-08-14T14:38:09Z</time>
      </trkpt>
      <trkpt lat="45.7947" lon="2.94866">
        <ele>1032.11</ele>
        <time>2021-08-14T14:38:19Z</time>
      </trkpt>
      <trkpt lat="45.79462" lon="2.94854">
        <ele>1032.59</ele>
        <time>2021-08-14T14:38:26Z</time>
      </trkpt>
      <trkpt lat="45.79451" lon="2.9484">
        <ele>1033.55</ele>
        <time>2021-08-14T14:38:33Z</time>
      </trkpt>
      <trkpt lat="45.79445" lon="2.94835">
        <ele>1033.55</ele>
        <time>2021-08-14T14:38:36Z</time>
      </trkpt>
      <trkpt lat="45.79433" lon="2.94819">
        <ele>1034.04</ele>
        <time>2021-08-14T14:38:45Z</time>
      </trkpt>
      <trkpt lat="45.79419" lon="2.94802">
        <ele>1035</ele>
        <time>2021-08-14T14:38:55Z</time>
      </trkpt>
      <trkpt lat="45.79407" lon="2.94787">
        <ele>1035.48</ele>
        <time>2021-08-14T14:39:04Z</time>
      </trkpt>
      <trkpt lat="45.79398" lon="2.94774">
        <ele>1036.44</ele>
        <time>2021-08-14T14:39:11Z</time>
      </trkpt>
      <trkpt lat="45.79385" lon="2.94753">
        <ele>1036.92</ele>
        <time>2021-08-14T14:39:19Z</time>
      </trkpt>
      <trkpt lat="45.79374" lon="2.9474">
        <ele>1037.4</ele>
        <time>2021-08-14T14:39:25Z</time>
      </trkpt>
      <trkpt lat="45.79355" lon="2.94719">
        <ele>1038.36</ele>
        <time>2021-08-14T14:39:33Z</time>
      </trkpt>
      <trkpt lat="45.7934" lon="2.94697">
        <ele>1038.84</ele>
        <time>2021-08-14T14:39:41Z</time>
      </trkpt>
      <trkpt lat="45.79327" lon="2.94676">
        <ele>1039.32</ele>
        <time>2021-08-14T14:39:49Z</time>
      </trkpt>
      <trkpt lat="45.79311" lon="2.9465">
        <ele>1039.8</ele>
        <time>2021-08-14T14:39:58Z</time>
      </trkpt>
      <trkpt lat="45.79295" lon="2.94621">
        <ele>1039.8</ele>
        <time>2021-08-14T14:40:07Z</time>
      </trkpt>
      <trkpt lat="45.79278" lon="2.94594">
        <ele>1040.28</ele>
        <time>2021-08-14T14:40:16Z</time>
      </trkpt>
      <trkpt lat="45.79265" lon="2.94578">
        <ele>1040.76</ele>
        <time>2021-08-14T14:40:23Z</time>
      </trkpt>
      <trkpt lat="45.79252" lon="2.94561">
        <ele>1041.25</ele>
        <time>2021-08-14T14:40:31Z</time>
      </trkpt>
      <trkpt lat="45.79243" lon="2.94549">
        <ele>1041.73</ele>
        <time>2021-08-14T14:40:37Z</time>
      </trkpt>
      <trkpt lat="45.79236" lon="2.94538">
        <ele>1042.21</ele>
        <time>2021-08-14T14:40:43Z</time>
      </trkpt>
      <trkpt lat="45.79232" lon="2.94534">
        <ele>1042.69</ele>
        <time>2021-08-14T14:40:45Z</time>
      </trkpt>
      <trkpt lat="45.7923" lon="2.94531">
        <ele>1042.69</ele>
        <time>2021-08-14T14:40:46Z</time>
      </trkpt>
      <trkpt lat="45.79229" lon="2.94528">
        <ele>1042.69</ele>
        <time>2021-08-14T14:40:47Z</time>
      </trkpt>
      <trkpt lat="45.7922" lon="2.94513">
        <ele>1043.17</ele>
        <time>2021-08-14T14:40:53Z</time>
      </trkpt>
      <trkpt lat="45.79206" lon="2.94498">
        <ele>1044.13</ele>
        <time>2021-08-14T14:41:01Z</time>
      </trkpt>
      <trkpt lat="45.79192" lon="2.94481">
        <ele>1044.61</ele>
        <time>2021-08-14T14:41:11Z</time>
      </trkpt>
      <trkpt lat="45.79191" lon="2.94479">
        <ele>1044.61</ele>
        <time>2021-08-14T14:41:12Z</time>
      </trkpt>
      <trkpt lat="45.79189" lon="2.94477">
        <ele>1044.61</ele>
        <time>2021-08-14T14:41:13Z</time>
      </trkpt>
      <trkpt lat="45.79187" lon="2.94476">
        <ele>1045.09</ele>
        <time>2021-08-14T14:41:14Z</time>
      </trkpt>
      <trkpt lat="45.79173" lon="2.94463">
        <ele>1045.57</ele>
        <time>2021-08-14T14:41:23Z</time>
      </trkpt>
      <trkpt lat="45.7916" lon="2.94451">
        <ele>1046.05</ele>
        <time>2021-08-14T14:41:31Z</time>
      </trkpt>
      <trkpt lat="45.79145" lon="2.94441">
        <ele>1046.53</ele>
        <time>2021-08-14T14:41:38Z</time>
      </trkpt>
      <trkpt lat="45.79136" lon="2.94436">
        <ele>1047.01</ele>
        <time>2021-08-14T14:41:44Z</time>
      </trkpt>
      <trkpt lat="45.79118" lon="2.94434">
        <ele>1047.97</ele>
        <time>2021-08-14T14:41:53Z</time>
      </trkpt>
      <trkpt lat="45.79105" lon="2.94433">
        <ele>1048.45</ele>
        <time>2021-08-14T14:42:00Z</time>
      </trkpt>
      <trkpt lat="45.79091" lon="2.94427">
        <ele>1049.9</ele>
        <time>2021-08-14T14:42:08Z</time>
      </trkpt>
      <trkpt lat="45.7909" lon="2.94426">
        <ele>1049.9</ele>
        <time>2021-08-14T14:42:09Z</time>
      </trkpt>
      <trkpt lat="45.79088" lon="2.94426">
        <ele>1049.9</ele>
        <time>2021-08-14T14:42:10Z</time>
      </trkpt>
      <trkpt lat="45.79086" lon="2.94425">
        <ele>1049.9</ele>
        <time>2021-08-14T14:42:11Z</time>
      </trkpt>
      <trkpt lat="45.79084" lon="2.94424">
        <ele>1050.38</ele>
        <time>2021-08-14T14:42:12Z</time>
      </trkpt>
      <trkpt lat="45.79082" lon="2.94423">
        <ele>1050.38</ele>
        <time>2021-08-14T14:42:13Z</time>
      </trkpt>
      <trkpt lat="45.7908" lon="2.94423">
        <ele>1050.38</ele>
        <time>2021-08-14T14:42:14Z</time>
      </trkpt>
      <trkpt lat="45.79078" lon="2.94422">
        <ele>1050.38</ele>
        <time>2021-08-14T14:42:15Z</time>
      </trkpt>
      <trkpt lat="45.79076" lon="2.94422">
        <ele>1050.38</ele>
        <time>2021-08-14T14:42:16Z</time>
      </trkpt>
      <trkpt lat="45.79065" lon="2.94418">
        <ele>1050.86</ele>
        <time>2021-08-14T14:42:22Z</time>
      </trkpt>
      <trkpt lat="45.79058" lon="2.94413">
        <ele>1051.34</ele>
        <time>2021-08-14T14:42:26Z</time>
      </trkpt>
      <trkpt lat="45.79054" lon="2.94411">
        <ele>1051.82</ele>
        <time>2021-08-14T14:42:28Z</time>
      </trkpt>
      <trkpt lat="45.7904" lon="2.94413">
        <ele>1052.3</ele>
        <time>2021-08-14T14:42:34Z</time>
      </trkpt>
      <trkpt lat="45.79038" lon="2.94413">
        <ele>1052.78</ele>
        <time>2021-08-14T14:42:35Z</time>
      </trkpt>
      <trkpt lat="45.79036" lon="2.94412">
        <ele>1052.78</ele>
        <time>2021-08-14T14:42:36Z</time>
      </trkpt>
      <trkpt lat="45.79033" lon="2.94412">
        <ele>1053.26</ele>
        <time>2021-08-14T14:42:37Z</time>
      </trkpt>
      <trkpt lat="45.79031" lon="2.94411">
        <ele>1053.26</ele>
        <time>2021-08-14T14:42:38Z</time>
      </trkpt>
      <trkpt lat="45.79028" lon="2.94411">
        <ele>1053.26</ele>
        <time>2021-08-14T14:42:39Z</time>
      </trkpt>
      <trkpt lat="45.79016" lon="2.94409">
        <ele>1053.26</ele>
        <time>2021-08-14T14:42:45Z</time>
      </trkpt>
      <trkpt lat="45.79005" lon="2.94409">
        <ele>1054.22</ele>
        <time>2021-08-14T14:42:52Z</time>
      </trkpt>
      <trkpt lat="45.78994" lon="2.94408">
        <ele>1054.7</ele>
        <time>2021-08-14T14:42:59Z</time>
      </trkpt>
      <trkpt lat="45.78983" lon="2.9441">
        <ele>1055.18</ele>
        <time>2021-08-14T14:43:05Z</time>
      </trkpt>
      <trkpt lat="45.78971" lon="2.94411">
        <ele>1056.15</ele>
        <time>2021-08-14T14:43:13Z</time>
      </trkpt>
      <trkpt lat="45.78966" lon="2.94411">
        <ele>1056.15</ele>
        <time>2021-08-14T14:43:16Z</time>
      </trkpt>
      <trkpt lat="45.78964" lon="2.94412">
        <ele>1056.15</ele>
        <time>2021-08-14T14:43:17Z</time>
      </trkpt>
      <trkpt lat="45.78962" lon="2.94411">
        <ele>1056.15</ele>
        <time>2021-08-14T14:43:18Z</time>
      </trkpt>
      <trkpt lat="45.7896" lon="2.94411">
        <ele>1056.15</ele>
        <time>2021-08-14T14:43:19Z</time>
      </trkpt>
      <trkpt lat="45.78958" lon="2.94411">
        <ele>1056.15</ele>
        <time>2021-08-14T14:43:20Z</time>
      </trkpt>
      <trkpt lat="45.78956" lon="2.9441">
        <ele>1056.15</ele>
        <time>2021-08-14T14:43:21Z</time>
      </trkpt>
      <trkpt lat="45.78945" lon="2.94408">
        <ele>1056.63</ele>
        <time>2021-08-14T14:43:27Z</time>
      </trkpt>
      <trkpt lat="45.78926" lon="2.94403">
        <ele>1056.63</ele>
        <time>2021-08-14T14:43:34Z</time>
      </trkpt>
      <trkpt lat="45.78909" lon="2.94403">
        <ele>1056.63</ele>
        <time>2021-08-14T14:43:41Z</time>
      </trkpt>
      <trkpt lat="45.78885" lon="2.94411">
        <ele>1054.7</ele>
        <time>2021-08-14T14:43:48Z</time>
      </trkpt>
      <trkpt lat="45.78861" lon="2.94424">
        <ele>1053.26</ele>
        <time>2021-08-14T14:43:54Z</time>
      </trkpt>
      <trkpt lat="45.78829" lon="2.94439">
        <ele>1051.34</ele>
        <time>2021-08-14T14:44:01Z</time>
      </trkpt>
      <trkpt lat="45.78805" lon="2.94446">
        <ele>1051.34</ele>
        <time>2021-08-14T14:44:06Z</time>
      </trkpt>
      <trkpt lat="45.788" lon="2.94446">
        <ele>1050.86</ele>
        <time>2021-08-14T14:44:07Z</time>
      </trkpt>
      <trkpt lat="45.78795" lon="2.94446">
        <ele>1050.38</ele>
        <time>2021-08-14T14:44:08Z</time>
      </trkpt>
      <trkpt lat="45.78778" lon="2.94446">
        <ele>1048.94</ele>
        <time>2021-08-14T14:44:11Z</time>
      </trkpt>
      <trkpt lat="45.78774" lon="2.94446">
        <ele>1048.94</ele>
        <time>2021-08-14T14:44:12Z</time>
      </trkpt>
      <trkpt lat="45.78769" lon="2.94447">
        <ele>1048.94</ele>
        <time>2021-08-14T14:44:16Z</time>
      </trkpt>
      <trkpt lat="45.78768" lon="2.94447">
        <ele>1048.94</ele>
        <time>2021-08-14T14:44:24Z</time>
      </trkpt>
      <trkpt lat="45.78763" lon="2.9445">
        <ele>1048.94</ele>
        <time>2021-08-14T14:44:38Z</time>
      </trkpt>
      <trkpt lat="45.78758" lon="2.94449">
        <ele>1048.94</ele>
        <time>2021-08-14T14:44:43Z</time>
      </trkpt>
      <trkpt lat="45.78742" lon="2.94446">
        <ele>1047.49</ele>
        <time>2021-08-14T14:44:47Z</time>
      </trkpt>
      <trkpt lat="45.78736" lon="2.94444">
        <ele>1047.49</ele>
        <time>2021-08-14T14:44:48Z</time>
      </trkpt>
      <trkpt lat="45.78731" lon="2.94441">
        <ele>1047.49</ele>
        <time>2021-08-14T14:44:49Z</time>
      </trkpt>
      <trkpt lat="45.7869" lon="2.94427">
        <ele>1046.53</ele>
        <time>2021-08-14T14:44:56Z</time>
      </trkpt>
      <trkpt lat="45.78685" lon="2.94426">
        <ele>1046.53</ele>
        <time>2021-08-14T14:44:57Z</time>
      </trkpt>
      <trkpt lat="45.7867" lon="2.94427">
        <ele>1046.53</ele>
        <time>2021-08-14T14:45:00Z</time>
      </trkpt>
      <trkpt lat="45.78665" lon="2.94428">
        <ele>1046.53</ele>
        <time>2021-08-14T14:45:01Z</time>
      </trkpt>
      <trkpt lat="45.78662" lon="2.94429">
        <ele>1046.53</ele>
        <time>2021-08-14T14:45:02Z</time>
      </trkpt>
      <trkpt lat="45.78653" lon="2.94434">
        <ele>1046.53</ele>
        <time>2021-08-14T14:45:05Z</time>
      </trkpt>
      <trkpt lat="45.78651" lon="2.94437">
        <ele>1046.53</ele>
        <time>2021-08-14T14:45:06Z</time>
      </trkpt>
      <trkpt lat="45.78647" lon="2.9446">
        <ele>1046.53</ele>
        <time>2021-08-14T14:45:14Z</time>
      </trkpt>
      <trkpt lat="45.78645" lon="2.9448">
        <ele>1047.97</ele>
        <time>2021-08-14T14:45:21Z</time>
      </trkpt>
      <trkpt lat="45.78643" lon="2.94508">
        <ele>1048.45</ele>
        <time>2021-08-14T14:45:30Z</time>
      </trkpt>
      <trkpt lat="45.78641" lon="2.94517">
        <ele>1048.94</ele>
        <time>2021-08-14T14:45:35Z</time>
      </trkpt>
      <trkpt lat="45.78632" lon="2.94532">
        <ele>1048.94</ele>
        <time>2021-08-14T14:45:42Z</time>
      </trkpt>
      <trkpt lat="45.78632" lon="2.94535">
        <ele>1048.94</ele>
        <time>2021-08-14T14:45:43Z</time>
      </trkpt>
      <trkpt lat="45.78632" lon="2.94556">
        <ele>1049.42</ele>
        <time>2021-08-14T14:45:51Z</time>
      </trkpt>
      <trkpt lat="45.78631" lon="2.94559">
        <ele>1049.42</ele>
        <time>2021-08-14T14:45:52Z</time>
      </trkpt>
      <trkpt lat="45.7863" lon="2.94561">
        <ele>1049.9</ele>
        <time>2021-08-14T14:45:53Z</time>
      </trkpt>
      <trkpt lat="45.7863" lon="2.94564">
        <ele>1049.9</ele>
        <time>2021-08-14T14:45:54Z</time>
      </trkpt>
      <trkpt lat="45.78628" lon="2.94566">
        <ele>1049.9</ele>
        <time>2021-08-14T14:45:55Z</time>
      </trkpt>
      <trkpt lat="45.78627" lon="2.94569">
        <ele>1049.9</ele>
        <time>2021-08-14T14:45:56Z</time>
      </trkpt>
      <trkpt lat="45.78626" lon="2.94573">
        <ele>1049.9</ele>
        <time>2021-08-14T14:45:57Z</time>
      </trkpt>
      <trkpt lat="45.78625" lon="2.94576">
        <ele>1049.9</ele>
        <time>2021-08-14T14:45:58Z</time>
      </trkpt>
      <trkpt lat="45.78624" lon="2.94578">
        <ele>1050.38</ele>
        <time>2021-08-14T14:45:59Z</time>
      </trkpt>
      <trkpt lat="45.78618" lon="2.94599">
        <ele>1050.86</ele>
        <time>2021-08-14T14:46:06Z</time>
      </trkpt>
      <trkpt lat="45.78614" lon="2.94617">
        <ele>1051.34</ele>
        <time>2021-08-14T14:46:12Z</time>
      </trkpt>
      <trkpt lat="45.78614" lon="2.94637">
        <ele>1051.82</ele>
        <time>2021-08-14T14:46:18Z</time>
      </trkpt>
      <trkpt lat="45.78613" lon="2.9464">
        <ele>1051.82</ele>
        <time>2021-08-14T14:46:19Z</time>
      </trkpt>
      <trkpt lat="45.78613" lon="2.94644">
        <ele>1051.82</ele>
        <time>2021-08-14T14:46:20Z</time>
      </trkpt>
      <trkpt lat="45.78613" lon="2.94647">
        <ele>1051.82</ele>
        <time>2021-08-14T14:46:21Z</time>
      </trkpt>
      <trkpt lat="45.78614" lon="2.94651">
        <ele>1051.82</ele>
        <time>2021-08-14T14:46:22Z</time>
      </trkpt>
      <trkpt lat="45.78616" lon="2.94671">
        <ele>1052.78</ele>
        <time>2021-08-14T14:46:28Z</time>
      </trkpt>
      <trkpt lat="45.78617" lon="2.94674">
        <ele>1052.78</ele>
        <time>2021-08-14T14:46:29Z</time>
      </trkpt>
      <trkpt lat="45.78617" lon="2.94677">
        <ele>1052.78</ele>
        <time>2021-08-14T14:46:30Z</time>
      </trkpt>
      <trkpt lat="45.78617" lon="2.9468">
        <ele>1053.74</ele>
        <time>2021-08-14T14:46:31Z</time>
      </trkpt>
      <trkpt lat="45.78617" lon="2.94683">
        <ele>1053.74</ele>
        <time>2021-08-14T14:46:32Z</time>
      </trkpt>
      <trkpt lat="45.78617" lon="2.94706">
        <ele>1054.22</ele>
        <time>2021-08-14T14:46:41Z</time>
      </trkpt>
      <trkpt lat="45.78619" lon="2.94727">
        <ele>1055.67</ele>
        <time>2021-08-14T14:46:49Z</time>
      </trkpt>
      <trkpt lat="45.7862" lon="2.94744">
        <ele>1055.67</ele>
        <time>2021-08-14T14:46:55Z</time>
      </trkpt>
      <trkpt lat="45.78622" lon="2.94768">
        <ele>1057.11</ele>
        <time>2021-08-14T14:47:03Z</time>
      </trkpt>
      <trkpt lat="45.78626" lon="2.94791">
        <ele>1058.07</ele>
        <time>2021-08-14T14:47:11Z</time>
      </trkpt>
      <trkpt lat="45.7863" lon="2.94812">
        <ele>1059.03</ele>
        <time>2021-08-14T14:47:19Z</time>
      </trkpt>
      <trkpt lat="45.78636" lon="2.9483">
        <ele>1059.99</ele>
        <time>2021-08-14T14:47:28Z</time>
      </trkpt>
      <trkpt lat="45.78636" lon="2.94832">
        <ele>1059.99</ele>
        <time>2021-08-14T14:47:29Z</time>
      </trkpt>
      <trkpt lat="45.78639" lon="2.94848">
        <ele>1060.47</ele>
        <time>2021-08-14T14:47:36Z</time>
      </trkpt>
      <trkpt lat="45.78641" lon="2.94869">
        <ele>1061.43</ele>
        <time>2021-08-14T14:47:44Z</time>
      </trkpt>
      <trkpt lat="45.78644" lon="2.94889">
        <ele>1062.87</ele>
        <time>2021-08-14T14:47:52Z</time>
      </trkpt>
      <trkpt lat="45.78648" lon="2.94908">
        <ele>1063.84</ele>
        <time>2021-08-14T14:48:00Z</time>
      </trkpt>
      <trkpt lat="45.78651" lon="2.94923">
        <ele>1064.32</ele>
        <time>2021-08-14T14:48:07Z</time>
      </trkpt>
      <trkpt lat="45.7865" lon="2.94941">
        <ele>1065.28</ele>
        <time>2021-08-14T14:48:15Z</time>
      </trkpt>
      <trkpt lat="45.78648" lon="2.94954">
        <ele>1065.76</ele>
        <time>2021-08-14T14:48:22Z</time>
      </trkpt>
      <trkpt lat="45.78647" lon="2.94956">
        <ele>1065.76</ele>
        <time>2021-08-14T14:48:23Z</time>
      </trkpt>
      <trkpt lat="45.78647" lon="2.94959">
        <ele>1066.24</ele>
        <time>2021-08-14T14:48:24Z</time>
      </trkpt>
      <trkpt lat="45.78646" lon="2.94961">
        <ele>1065.76</ele>
        <time>2021-08-14T14:48:25Z</time>
      </trkpt>
      <trkpt lat="45.78646" lon="2.94964">
        <ele>1066.24</ele>
        <time>2021-08-14T14:48:26Z</time>
      </trkpt>
      <trkpt lat="45.78646" lon="2.94966">
        <ele>1066.24</ele>
        <time>2021-08-14T14:48:27Z</time>
      </trkpt>
      <trkpt lat="45.78644" lon="2.94984">
        <ele>1066.72</ele>
        <time>2021-08-14T14:48:34Z</time>
      </trkpt>
      <trkpt lat="45.78643" lon="2.94986">
        <ele>1066.72</ele>
        <time>2021-08-14T14:48:35Z</time>
      </trkpt>
      <trkpt lat="45.78643" lon="2.94988">
        <ele>1066.72</ele>
        <time>2021-08-14T14:48:36Z</time>
      </trkpt>
      <trkpt lat="45.78642" lon="2.9499">
        <ele>1066.72</ele>
        <time>2021-08-14T14:48:37Z</time>
      </trkpt>
      <trkpt lat="45.78637" lon="2.95005">
        <ele>1067.2</ele>
        <time>2021-08-14T14:48:46Z</time>
      </trkpt>
      <trkpt lat="45.78637" lon="2.95009">
        <ele>1067.68</ele>
        <time>2021-08-14T14:48:48Z</time>
      </trkpt>
      <trkpt lat="45.78637" lon="2.95011">
        <ele>1067.68</ele>
        <time>2021-08-14T14:48:49Z</time>
      </trkpt>
      <trkpt lat="45.78636" lon="2.95013">
        <ele>1067.68</ele>
        <time>2021-08-14T14:48:50Z</time>
      </trkpt>
      <trkpt lat="45.78636" lon="2.95015">
        <ele>1068.16</ele>
        <time>2021-08-14T14:48:51Z</time>
      </trkpt>
      <trkpt lat="45.78636" lon="2.95017">
        <ele>1068.16</ele>
        <time>2021-08-14T14:48:52Z</time>
      </trkpt>
      <trkpt lat="45.78636" lon="2.95019">
        <ele>1068.16</ele>
        <time>2021-08-14T14:48:53Z</time>
      </trkpt>
      <trkpt lat="45.78636" lon="2.95022">
        <ele>1068.16</ele>
        <time>2021-08-14T14:48:54Z</time>
      </trkpt>
      <trkpt lat="45.78636" lon="2.95025">
        <ele>1068.64</ele>
        <time>2021-08-14T14:48:55Z</time>
      </trkpt>
      <trkpt lat="45.78636" lon="2.95027">
        <ele>1068.64</ele>
        <time>2021-08-14T14:48:56Z</time>
      </trkpt>
      <trkpt lat="45.78636" lon="2.9503">
        <ele>1068.64</ele>
        <time>2021-08-14T14:48:57Z</time>
      </trkpt>
      <trkpt lat="45.78636" lon="2.95032">
        <ele>1068.64</ele>
        <time>2021-08-14T14:48:58Z</time>
      </trkpt>
      <trkpt lat="45.78636" lon="2.95034">
        <ele>1069.12</ele>
        <time>2021-08-14T14:48:59Z</time>
      </trkpt>
      <trkpt lat="45.78637" lon="2.95056">
        <ele>1069.6</ele>
        <time>2021-08-14T14:49:07Z</time>
      </trkpt>
      <trkpt lat="45.78635" lon="2.95063">
        <ele>1070.08</ele>
        <time>2021-08-14T14:49:10Z</time>
      </trkpt>
      <trkpt lat="45.78635" lon="2.95065">
        <ele>1070.08</ele>
        <time>2021-08-14T14:49:11Z</time>
      </trkpt>
      <trkpt lat="45.78635" lon="2.95067">
        <ele>1070.57</ele>
        <time>2021-08-14T14:49:12Z</time>
      </trkpt>
      <trkpt lat="45.78635" lon="2.95081">
        <ele>1071.05</ele>
        <time>2021-08-14T14:49:19Z</time>
      </trkpt>
      <trkpt lat="45.78637" lon="2.95097">
        <ele>1072.01</ele>
        <time>2021-08-14T14:49:27Z</time>
      </trkpt>
      <trkpt lat="45.78637" lon="2.95111">
        <ele>1072.49</ele>
        <time>2021-08-14T14:49:35Z</time>
      </trkpt>
      <trkpt lat="45.78636" lon="2.95114">
        <ele>1072.97</ele>
        <time>2021-08-14T14:49:37Z</time>
      </trkpt>
      <trkpt lat="45.78637" lon="2.95117">
        <ele>1072.97</ele>
        <time>2021-08-14T14:49:38Z</time>
      </trkpt>
      <trkpt lat="45.78637" lon="2.95119">
        <ele>1072.97</ele>
        <time>2021-08-14T14:49:39Z</time>
      </trkpt>
      <trkpt lat="45.78637" lon="2.95121">
        <ele>1072.97</ele>
        <time>2021-08-14T14:49:40Z</time>
      </trkpt>
      <trkpt lat="45.78637" lon="2.95123">
        <ele>1073.45</ele>
        <time>2021-08-14T14:49:41Z</time>
      </trkpt>
      <trkpt lat="45.78637" lon="2.95126">
        <ele>1073.45</ele>
        <time>2021-08-14T14:49:42Z</time>
      </trkpt>
      <trkpt lat="45.78636" lon="2.95141">
        <ele>1074.41</ele>
        <time>2021-08-14T14:49:49Z</time>
      </trkpt>
      <trkpt lat="45.78635" lon="2.95159">
        <ele>1074.89</ele>
        <time>2021-08-14T14:49:57Z</time>
      </trkpt>
      <trkpt lat="45.78631" lon="2.9518">
        <ele>1076.33</ele>
        <time>2021-08-14T14:50:05Z</time>
      </trkpt>
      <trkpt lat="45.78628" lon="2.95197">
        <ele>1077.78</ele>
        <time>2021-08-14T14:50:13Z</time>
      </trkpt>
      <trkpt lat="45.78626" lon="2.95213">
        <ele>1078.26</ele>
        <time>2021-08-14T14:50:21Z</time>
      </trkpt>
      <trkpt lat="45.78624" lon="2.95232">
        <ele>1077.78</ele>
        <time>2021-08-14T14:50:28Z</time>
      </trkpt>
      <trkpt lat="45.78625" lon="2.95242">
        <ele>1077.29</ele>
        <time>2021-08-14T14:50:30Z</time>
      </trkpt>
      <trkpt lat="45.78624" lon="2.9526">
        <ele>1075.37</ele>
        <time>2021-08-14T14:50:33Z</time>
      </trkpt>
      <trkpt lat="45.78624" lon="2.95268">
        <ele>1074.89</ele>
        <time>2021-08-14T14:50:34Z</time>
      </trkpt>
      <trkpt lat="45.78624" lon="2.95274">
        <ele>1074.41</ele>
        <time>2021-08-14T14:50:35Z</time>
      </trkpt>
      <trkpt lat="45.78624" lon="2.95283">
        <ele>1073.93</ele>
        <time>2021-08-14T14:50:36Z</time>
      </trkpt>
      <trkpt lat="45.78624" lon="2.95292">
        <ele>1073.93</ele>
        <time>2021-08-14T14:50:37Z</time>
      </trkpt>
      <trkpt lat="45.78623" lon="2.95302">
        <ele>1073.93</ele>
        <time>2021-08-14T14:50:38Z</time>
      </trkpt>
      <trkpt lat="45.78623" lon="2.95322">
        <ele>1073.93</ele>
        <time>2021-08-14T14:50:40Z</time>
      </trkpt>
      <trkpt lat="45.78619" lon="2.95363">
        <ele>1073.45</ele>
        <time>2021-08-14T14:50:44Z</time>
      </trkpt>
      <trkpt lat="45.78618" lon="2.95372">
        <ele>1072.49</ele>
        <time>2021-08-14T14:50:45Z</time>
      </trkpt>
      <trkpt lat="45.78615" lon="2.95408">
        <ele>1072.49</ele>
        <time>2021-08-14T14:50:49Z</time>
      </trkpt>
      <trkpt lat="45.78613" lon="2.95411">
        <ele>1072.49</ele>
        <time>2021-08-14T14:50:50Z</time>
      </trkpt>
      <trkpt lat="45.78611" lon="2.95414">
        <ele>1072.49</ele>
        <time>2021-08-14T14:50:51Z</time>
      </trkpt>
      <trkpt lat="45.7861" lon="2.95417">
        <ele>1072.01</ele>
        <time>2021-08-14T14:50:52Z</time>
      </trkpt>
      <trkpt lat="45.78608" lon="2.95422">
        <ele>1072.01</ele>
        <time>2021-08-14T14:50:53Z</time>
      </trkpt>
      <trkpt lat="45.78603" lon="2.95436">
        <ele>1072.49</ele>
        <time>2021-08-14T14:50:59Z</time>
      </trkpt>
      <trkpt lat="45.78598" lon="2.9545">
        <ele>1072.49</ele>
        <time>2021-08-14T14:51:08Z</time>
      </trkpt>
      <trkpt lat="45.78598" lon="2.95452">
        <ele>1072.49</ele>
        <time>2021-08-14T14:51:09Z</time>
      </trkpt>
      <trkpt lat="45.78598" lon="2.95455">
        <ele>1072.49</ele>
        <time>2021-08-14T14:51:10Z</time>
      </trkpt>
      <trkpt lat="45.78598" lon="2.95457">
        <ele>1072.49</ele>
        <time>2021-08-14T14:51:11Z</time>
      </trkpt>
      <trkpt lat="45.78599" lon="2.9546">
        <ele>1072.49</ele>
        <time>2021-08-14T14:51:12Z</time>
      </trkpt>
      <trkpt lat="45.78599" lon="2.95462">
        <ele>1072.49</ele>
        <time>2021-08-14T14:51:13Z</time>
      </trkpt>
      <trkpt lat="45.786" lon="2.95465">
        <ele>1072.49</ele>
        <time>2021-08-14T14:51:14Z</time>
      </trkpt>
      <trkpt lat="45.786" lon="2.95468">
        <ele>1072.49</ele>
        <time>2021-08-14T14:51:15Z</time>
      </trkpt>
      <trkpt lat="45.78599" lon="2.95471">
        <ele>1072.49</ele>
        <time>2021-08-14T14:51:16Z</time>
      </trkpt>
      <trkpt lat="45.78599" lon="2.95475">
        <ele>1072.97</ele>
        <time>2021-08-14T14:51:17Z</time>
      </trkpt>
      <trkpt lat="45.78598" lon="2.95479">
        <ele>1072.97</ele>
        <time>2021-08-14T14:51:18Z</time>
      </trkpt>
      <trkpt lat="45.78597" lon="2.955">
        <ele>1072.97</ele>
        <time>2021-08-14T14:51:25Z</time>
      </trkpt>
      <trkpt lat="45.78596" lon="2.95511">
        <ele>1072.97</ele>
        <time>2021-08-14T14:51:28Z</time>
      </trkpt>
      <trkpt lat="45.78596" lon="2.95514">
        <ele>1072.97</ele>
        <time>2021-08-14T14:51:29Z</time>
      </trkpt>
      <trkpt lat="45.78596" lon="2.95526">
        <ele>1073.93</ele>
        <time>2021-08-14T14:51:33Z</time>
      </trkpt>
      <trkpt lat="45.78595" lon="2.9553">
        <ele>1073.93</ele>
        <time>2021-08-14T14:51:34Z</time>
      </trkpt>
      <trkpt lat="45.78595" lon="2.95532">
        <ele>1073.93</ele>
        <time>2021-08-14T14:51:35Z</time>
      </trkpt>
      <trkpt lat="45.78595" lon="2.95536">
        <ele>1073.93</ele>
        <time>2021-08-14T14:51:36Z</time>
      </trkpt>
      <trkpt lat="45.78595" lon="2.95539">
        <ele>1073.93</ele>
        <time>2021-08-14T14:51:37Z</time>
      </trkpt>
      <trkpt lat="45.78595" lon="2.95543">
        <ele>1073.93</ele>
        <time>2021-08-14T14:51:38Z</time>
      </trkpt>
      <trkpt lat="45.78594" lon="2.95547">
        <ele>1074.41</ele>
        <time>2021-08-14T14:51:39Z</time>
      </trkpt>
      <trkpt lat="45.78594" lon="2.95551">
        <ele>1074.41</ele>
        <time>2021-08-14T14:51:40Z</time>
      </trkpt>
      <trkpt lat="45.78593" lon="2.95556">
        <ele>1074.41</ele>
        <time>2021-08-14T14:51:41Z</time>
      </trkpt>
      <trkpt lat="45.78593" lon="2.9556">
        <ele>1074.41</ele>
        <time>2021-08-14T14:51:42Z</time>
      </trkpt>
      <trkpt lat="45.78592" lon="2.95564">
        <ele>1074.41</ele>
        <time>2021-08-14T14:51:43Z</time>
      </trkpt>
      <trkpt lat="45.78591" lon="2.95568">
        <ele>1074.41</ele>
        <time>2021-08-14T14:51:44Z</time>
      </trkpt>
      <trkpt lat="45.78588" lon="2.95593">
        <ele>1075.37</ele>
        <time>2021-08-14T14:51:51Z</time>
      </trkpt>
      <trkpt lat="45.78587" lon="2.95613">
        <ele>1075.85</ele>
        <time>2021-08-14T14:51:58Z</time>
      </trkpt>
      <trkpt lat="45.78587" lon="2.95638">
        <ele>1076.33</ele>
        <time>2021-08-14T14:52:05Z</time>
      </trkpt>
      <trkpt lat="45.78587" lon="2.95674">
        <ele>1077.29</ele>
        <time>2021-08-14T14:52:14Z</time>
      </trkpt>
      <trkpt lat="45.78587" lon="2.95698">
        <ele>1078.26</ele>
        <time>2021-08-14T14:52:21Z</time>
      </trkpt>
      <trkpt lat="45.78589" lon="2.95715">
        <ele>1078.74</ele>
        <time>2021-08-14T14:52:26Z</time>
      </trkpt>
      <trkpt lat="45.78589" lon="2.95718">
        <ele>1079.22</ele>
        <time>2021-08-14T14:52:27Z</time>
      </trkpt>
      <trkpt lat="45.78589" lon="2.95721">
        <ele>1079.22</ele>
        <time>2021-08-14T14:52:28Z</time>
      </trkpt>
      <trkpt lat="45.78589" lon="2.95724">
        <ele>1079.22</ele>
        <time>2021-08-14T14:52:29Z</time>
      </trkpt>
      <trkpt lat="45.78589" lon="2.95727">
        <ele>1079.22</ele>
        <time>2021-08-14T14:52:30Z</time>
      </trkpt>
      <trkpt lat="45.78589" lon="2.9573">
        <ele>1079.22</ele>
        <time>2021-08-14T14:52:31Z</time>
      </trkpt>
      <trkpt lat="45.7859" lon="2.95733">
        <ele>1079.22</ele>
        <time>2021-08-14T14:52:32Z</time>
      </trkpt>
      <trkpt lat="45.7859" lon="2.95736">
        <ele>1079.7</ele>
        <time>2021-08-14T14:52:33Z</time>
      </trkpt>
      <trkpt lat="45.78589" lon="2.95755">
        <ele>1080.18</ele>
        <time>2021-08-14T14:52:39Z</time>
      </trkpt>
      <trkpt lat="45.78588" lon="2.95787">
        <ele>1081.62</ele>
        <time>2021-08-14T14:52:50Z</time>
      </trkpt>
      <trkpt lat="45.78589" lon="2.95805">
        <ele>1082.58</ele>
        <time>2021-08-14T14:52:57Z</time>
      </trkpt>
      <trkpt lat="45.7859" lon="2.95822">
        <ele>1083.54</ele>
        <time>2021-08-14T14:53:04Z</time>
      </trkpt>
      <trkpt lat="45.7859" lon="2.95842">
        <ele>1084.5</ele>
        <time>2021-08-14T14:53:11Z</time>
      </trkpt>
      <trkpt lat="45.78589" lon="2.95844">
        <ele>1084.5</ele>
        <time>2021-08-14T14:53:12Z</time>
      </trkpt>
      <trkpt lat="45.78586" lon="2.95847">
        <ele>1084.99</ele>
        <time>2021-08-14T14:53:14Z</time>
      </trkpt>
      <trkpt lat="45.7857" lon="2.95848">
        <ele>1084.99</ele>
        <time>2021-08-14T14:53:22Z</time>
      </trkpt>
      <trkpt lat="45.78553" lon="2.95851">
        <ele>1084.99</ele>
        <time>2021-08-14T14:53:28Z</time>
      </trkpt>
      <trkpt lat="45.78532" lon="2.95853">
        <ele>1085.47</ele>
        <time>2021-08-14T14:53:35Z</time>
      </trkpt>
      <trkpt lat="45.78504" lon="2.95855">
        <ele>1085.47</ele>
        <time>2021-08-14T14:53:44Z</time>
      </trkpt>
      <trkpt lat="45.78477" lon="2.95856">
        <ele>1084.99</ele>
        <time>2021-08-14T14:53:54Z</time>
      </trkpt>
      <trkpt lat="45.78452" lon="2.95857">
        <ele>1084.99</ele>
        <time>2021-08-14T14:54:03Z</time>
      </trkpt>
      <trkpt lat="45.78428" lon="2.95853">
        <ele>1085.47</ele>
        <time>2021-08-14T14:54:11Z</time>
      </trkpt>
      <trkpt lat="45.78403" lon="2.95856">
        <ele>1085.47</ele>
        <time>2021-08-14T14:54:19Z</time>
      </trkpt>
      <trkpt lat="45.78382" lon="2.95857">
        <ele>1085.47</ele>
        <time>2021-08-14T14:54:25Z</time>
      </trkpt>
      <trkpt lat="45.78357" lon="2.95856">
        <ele>1085.47</ele>
        <time>2021-08-14T14:54:33Z</time>
      </trkpt>
      <trkpt lat="45.78322" lon="2.95851">
        <ele>1085.47</ele>
        <time>2021-08-14T14:54:44Z</time>
      </trkpt>
      <trkpt lat="45.78289" lon="2.9584">
        <ele>1084.02</ele>
        <time>2021-08-14T14:54:52Z</time>
      </trkpt>
      <trkpt lat="45.78251" lon="2.95827">
        <ele>1083.54</ele>
        <time>2021-08-14T14:55:01Z</time>
      </trkpt>
      <trkpt lat="45.78209" lon="2.95808">
        <ele>1083.54</ele>
        <time>2021-08-14T14:55:11Z</time>
      </trkpt>
      <trkpt lat="45.78206" lon="2.95806">
        <ele>1083.54</ele>
        <time>2021-08-14T14:55:12Z</time>
      </trkpt>
      <trkpt lat="45.78202" lon="2.95802">
        <ele>1083.54</ele>
        <time>2021-08-14T14:55:13Z</time>
      </trkpt>
      <trkpt lat="45.78196" lon="2.95794">
        <ele>1083.06</ele>
        <time>2021-08-14T14:55:15Z</time>
      </trkpt>
      <trkpt lat="45.78193" lon="2.95791">
        <ele>1083.06</ele>
        <time>2021-08-14T14:55:16Z</time>
      </trkpt>
      <trkpt lat="45.78191" lon="2.95786">
        <ele>1083.06</ele>
        <time>2021-08-14T14:55:17Z</time>
      </trkpt>
      <trkpt lat="45.78188" lon="2.95781">
        <ele>1083.06</ele>
        <time>2021-08-14T14:55:18Z</time>
      </trkpt>
      <trkpt lat="45.78186" lon="2.95776">
        <ele>1083.06</ele>
        <time>2021-08-14T14:55:19Z</time>
      </trkpt>
      <trkpt lat="45.78161" lon="2.95733">
        <ele>1082.58</ele>
        <time>2021-08-14T14:55:28Z</time>
      </trkpt>
      <trkpt lat="45.78147" lon="2.95701">
        <ele>1082.58</ele>
        <time>2021-08-14T14:55:35Z</time>
      </trkpt>
      <trkpt lat="45.78139" lon="2.95676">
        <ele>1084.02</ele>
        <time>2021-08-14T14:55:42Z</time>
      </trkpt>
      <trkpt lat="45.78139" lon="2.9567">
        <ele>1084.02</ele>
        <time>2021-08-14T14:55:44Z</time>
      </trkpt>
      <trkpt lat="45.78139" lon="2.95667">
        <ele>1084.02</ele>
        <time>2021-08-14T14:55:45Z</time>
      </trkpt>
      <trkpt lat="45.78139" lon="2.95663">
        <ele>1084.02</ele>
        <time>2021-08-14T14:55:46Z</time>
      </trkpt>
      <trkpt lat="45.78138" lon="2.9566">
        <ele>1084.5</ele>
        <time>2021-08-14T14:55:47Z</time>
      </trkpt>
      <trkpt lat="45.78137" lon="2.95657">
        <ele>1084.5</ele>
        <time>2021-08-14T14:55:48Z</time>
      </trkpt>
      <trkpt lat="45.78136" lon="2.95654">
        <ele>1084.5</ele>
        <time>2021-08-14T14:55:49Z</time>
      </trkpt>
      <trkpt lat="45.78135" lon="2.95651">
        <ele>1084.99</ele>
        <time>2021-08-14T14:55:50Z</time>
      </trkpt>
      <trkpt lat="45.78127" lon="2.95633">
        <ele>1085.47</ele>
        <time>2021-08-14T14:55:57Z</time>
      </trkpt>
      <trkpt lat="45.78126" lon="2.95631">
        <ele>1085.47</ele>
        <time>2021-08-14T14:55:58Z</time>
      </trkpt>
      <trkpt lat="45.78119" lon="2.95609">
        <ele>1086.43</ele>
        <time>2021-08-14T14:56:06Z</time>
      </trkpt>
      <trkpt lat="45.78109" lon="2.95592">
        <ele>1087.39</ele>
        <time>2021-08-14T14:56:14Z</time>
      </trkpt>
      <trkpt lat="45.78102" lon="2.95576">
        <ele>1087.87</ele>
        <time>2021-08-14T14:56:21Z</time>
      </trkpt>
      <trkpt lat="45.78095" lon="2.95563">
        <ele>1087.87</ele>
        <time>2021-08-14T14:56:26Z</time>
      </trkpt>
      <trkpt lat="45.78094" lon="2.95561">
        <ele>1087.87</ele>
        <time>2021-08-14T14:56:27Z</time>
      </trkpt>
      <trkpt lat="45.78094" lon="2.95555">
        <ele>1088.35</ele>
        <time>2021-08-14T14:56:33Z</time>
      </trkpt>
      <trkpt lat="45.78091" lon="2.95545">
        <ele>1088.35</ele>
        <time>2021-08-14T14:56:38Z</time>
      </trkpt>
      <trkpt lat="45.7809" lon="2.9554">
        <ele>1088.35</ele>
        <time>2021-08-14T14:56:40Z</time>
      </trkpt>
      <trkpt lat="45.78088" lon="2.95538">
        <ele>1088.35</ele>
        <time>2021-08-14T14:56:41Z</time>
      </trkpt>
      <trkpt lat="45.78087" lon="2.95537">
        <ele>1088.35</ele>
        <time>2021-08-14T14:56:42Z</time>
      </trkpt>
      <trkpt lat="45.78083" lon="2.95536">
        <ele>1088.35</ele>
        <time>2021-08-14T14:56:44Z</time>
      </trkpt>
      <trkpt lat="45.78081" lon="2.95532">
        <ele>1087.87</ele>
        <time>2021-08-14T14:56:45Z</time>
      </trkpt>
      <trkpt lat="45.78079" lon="2.9553">
        <ele>1087.87</ele>
        <time>2021-08-14T14:56:46Z</time>
      </trkpt>
      <trkpt lat="45.78078" lon="2.95526">
        <ele>1087.87</ele>
        <time>2021-08-14T14:56:47Z</time>
      </trkpt>
      <trkpt lat="45.78076" lon="2.95522">
        <ele>1087.87</ele>
        <time>2021-08-14T14:56:48Z</time>
      </trkpt>
      <trkpt lat="45.78072" lon="2.95509">
        <ele>1086.91</ele>
        <time>2021-08-14T14:56:51Z</time>
      </trkpt>
      <trkpt lat="45.78066" lon="2.95492">
        <ele>1086.43</ele>
        <time>2021-08-14T14:56:55Z</time>
      </trkpt>
      <trkpt lat="45.78059" lon="2.95465">
        <ele>1085.95</ele>
        <time>2021-08-14T14:57:00Z</time>
      </trkpt>
      <trkpt lat="45.78048" lon="2.95437">
        <ele>1085.47</ele>
        <time>2021-08-14T14:57:06Z</time>
      </trkpt>
      <trkpt lat="45.78043" lon="2.95422">
        <ele>1083.54</ele>
        <time>2021-08-14T14:57:12Z</time>
      </trkpt>
      <trkpt lat="45.78029" lon="2.954">
        <ele>1081.14</ele>
        <time>2021-08-14T14:57:18Z</time>
      </trkpt>
      <trkpt lat="45.78012" lon="2.9538">
        <ele>1077.78</ele>
        <time>2021-08-14T14:57:24Z</time>
      </trkpt>
      <trkpt lat="45.78005" lon="2.95374">
        <ele>1076.81</ele>
        <time>2021-08-14T14:57:26Z</time>
      </trkpt>
      <trkpt lat="45.77991" lon="2.95361">
        <ele>1074.89</ele>
        <time>2021-08-14T14:57:29Z</time>
      </trkpt>
      <trkpt lat="45.77986" lon="2.95358">
        <ele>1074.89</ele>
        <time>2021-08-14T14:57:30Z</time>
      </trkpt>
      <trkpt lat="45.77962" lon="2.95342">
        <ele>1073.93</ele>
        <time>2021-08-14T14:57:36Z</time>
      </trkpt>
      <trkpt lat="45.77944" lon="2.9533">
        <ele>1073.45</ele>
        <time>2021-08-14T14:57:42Z</time>
      </trkpt>
      <trkpt lat="45.77938" lon="2.95325">
        <ele>1073.45</ele>
        <time>2021-08-14T14:57:45Z</time>
      </trkpt>
      <trkpt lat="45.77937" lon="2.95323">
        <ele>1073.45</ele>
        <time>2021-08-14T14:57:46Z</time>
      </trkpt>
      <trkpt lat="45.77935" lon="2.95321">
        <ele>1073.45</ele>
        <time>2021-08-14T14:57:47Z</time>
      </trkpt>
      <trkpt lat="45.77933" lon="2.95318">
        <ele>1073.45</ele>
        <time>2021-08-14T14:57:48Z</time>
      </trkpt>
      <trkpt lat="45.7793" lon="2.95316">
        <ele>1073.45</ele>
        <time>2021-08-14T14:57:49Z</time>
      </trkpt>
      <trkpt lat="45.77928" lon="2.95314">
        <ele>1073.45</ele>
        <time>2021-08-14T14:57:50Z</time>
      </trkpt>
      <trkpt lat="45.77925" lon="2.95312">
        <ele>1073.45</ele>
        <time>2021-08-14T14:57:51Z</time>
      </trkpt>
      <trkpt lat="45.77923" lon="2.95311">
        <ele>1073.45</ele>
        <time>2021-08-14T14:57:52Z</time>
      </trkpt>
      <trkpt lat="45.7792" lon="2.95309">
        <ele>1073.45</ele>
        <time>2021-08-14T14:57:53Z</time>
      </trkpt>
      <trkpt lat="45.77918" lon="2.95308">
        <ele>1073.45</ele>
        <time>2021-08-14T14:57:54Z</time>
      </trkpt>
      <trkpt lat="45.77916" lon="2.95306">
        <ele>1073.45</ele>
        <time>2021-08-14T14:57:55Z</time>
      </trkpt>
      <trkpt lat="45.77914" lon="2.95305">
        <ele>1073.45</ele>
        <time>2021-08-14T14:57:56Z</time>
      </trkpt>
      <trkpt lat="45.77912" lon="2.95304">
        <ele>1073.45</ele>
        <time>2021-08-14T14:57:57Z</time>
      </trkpt>
      <trkpt lat="45.77901" lon="2.95297">
        <ele>1074.89</ele>
        <time>2021-08-14T14:58:03Z</time>
      </trkpt>
      <trkpt lat="45.77888" lon="2.95285">
        <ele>1075.85</ele>
        <time>2021-08-14T14:58:10Z</time>
      </trkpt>
      <trkpt lat="45.7788" lon="2.95281">
        <ele>1075.85</ele>
        <time>2021-08-14T14:58:14Z</time>
      </trkpt>
      <trkpt lat="45.77864" lon="2.95278">
        <ele>1076.81</ele>
        <time>2021-08-14T14:58:21Z</time>
      </trkpt>
      <trkpt lat="45.77852" lon="2.95275">
        <ele>1077.78</ele>
        <time>2021-08-14T14:58:27Z</time>
      </trkpt>
      <trkpt lat="45.7784" lon="2.95269">
        <ele>1078.74</ele>
        <time>2021-08-14T14:58:35Z</time>
      </trkpt>
      <trkpt lat="45.77837" lon="2.95268">
        <ele>1078.74</ele>
        <time>2021-08-14T14:58:37Z</time>
      </trkpt>
      <trkpt lat="45.77836" lon="2.95266">
        <ele>1079.22</ele>
        <time>2021-08-14T14:58:38Z</time>
      </trkpt>
      <trkpt lat="45.77834" lon="2.95265">
        <ele>1079.22</ele>
        <time>2021-08-14T14:58:39Z</time>
      </trkpt>
      <trkpt lat="45.77832" lon="2.95265">
        <ele>1079.22</ele>
        <time>2021-08-14T14:58:40Z</time>
      </trkpt>
      <trkpt lat="45.77831" lon="2.95264">
        <ele>1079.22</ele>
        <time>2021-08-14T14:58:41Z</time>
      </trkpt>
      <trkpt lat="45.77827" lon="2.95262">
        <ele>1079.7</ele>
        <time>2021-08-14T14:58:44Z</time>
      </trkpt>
      <trkpt lat="45.77825" lon="2.95262">
        <ele>1079.7</ele>
        <time>2021-08-14T14:58:45Z</time>
      </trkpt>
      <trkpt lat="45.77821" lon="2.95263">
        <ele>1079.7</ele>
        <time>2021-08-14T14:58:48Z</time>
      </trkpt>
      <trkpt lat="45.7782" lon="2.95262">
        <ele>1079.7</ele>
        <time>2021-08-14T14:58:49Z</time>
      </trkpt>
      <trkpt lat="45.77807" lon="2.95259">
        <ele>1080.66</ele>
        <time>2021-08-14T14:58:57Z</time>
      </trkpt>
      <trkpt lat="45.77795" lon="2.95256">
        <ele>1081.62</ele>
        <time>2021-08-14T14:59:04Z</time>
      </trkpt>
      <trkpt lat="45.7779" lon="2.95254">
        <ele>1081.62</ele>
        <time>2021-08-14T14:59:07Z</time>
      </trkpt>
      <trkpt lat="45.77788" lon="2.95253">
        <ele>1081.62</ele>
        <time>2021-08-14T14:59:08Z</time>
      </trkpt>
      <trkpt lat="45.77786" lon="2.95253">
        <ele>1082.1</ele>
        <time>2021-08-14T14:59:09Z</time>
      </trkpt>
      <trkpt lat="45.77784" lon="2.95252">
        <ele>1082.1</ele>
        <time>2021-08-14T14:59:10Z</time>
      </trkpt>
      <trkpt lat="45.77782" lon="2.95251">
        <ele>1082.1</ele>
        <time>2021-08-14T14:59:11Z</time>
      </trkpt>
      <trkpt lat="45.77779" lon="2.95251">
        <ele>1082.1</ele>
        <time>2021-08-14T14:59:12Z</time>
      </trkpt>
      <trkpt lat="45.77776" lon="2.9525">
        <ele>1082.1</ele>
        <time>2021-08-14T14:59:13Z</time>
      </trkpt>
      <trkpt lat="45.77775" lon="2.95249">
        <ele>1082.58</ele>
        <time>2021-08-14T14:59:14Z</time>
      </trkpt>
      <trkpt lat="45.77773" lon="2.95249">
        <ele>1082.58</ele>
        <time>2021-08-14T14:59:15Z</time>
      </trkpt>
      <trkpt lat="45.77762" lon="2.95245">
        <ele>1083.06</ele>
        <time>2021-08-14T14:59:21Z</time>
      </trkpt>
      <trkpt lat="45.7775" lon="2.95239">
        <ele>1083.54</ele>
        <time>2021-08-14T14:59:27Z</time>
      </trkpt>
      <trkpt lat="45.77731" lon="2.95233">
        <ele>1084.02</ele>
        <time>2021-08-14T14:59:34Z</time>
      </trkpt>
      <trkpt lat="45.77729" lon="2.95233">
        <ele>1084.5</ele>
        <time>2021-08-14T14:59:40Z</time>
      </trkpt>
      <trkpt lat="45.77725" lon="2.95234">
        <ele>1084.99</ele>
        <time>2021-08-14T14:59:53Z</time>
      </trkpt>
      <trkpt lat="45.77714" lon="2.95232">
        <ele>1084.99</ele>
        <time>2021-08-14T14:59:57Z</time>
      </trkpt>
      <trkpt lat="45.7771" lon="2.95233">
        <ele>1083.54</ele>
        <time>2021-08-14T14:59:58Z</time>
      </trkpt>
      <trkpt lat="45.77708" lon="2.95234">
        <ele>1083.54</ele>
        <time>2021-08-14T14:59:59Z</time>
      </trkpt>
      <trkpt lat="45.77705" lon="2.95236">
        <ele>1083.54</ele>
        <time>2021-08-14T15:00:00Z</time>
      </trkpt>
      <trkpt lat="45.77701" lon="2.95238">
        <ele>1082.58</ele>
        <time>2021-08-14T15:00:02Z</time>
      </trkpt>
      <trkpt lat="45.77695" lon="2.9524">
        <ele>1082.58</ele>
        <time>2021-08-14T15:00:03Z</time>
      </trkpt>
      <trkpt lat="45.7769" lon="2.95241">
        <ele>1082.1</ele>
        <time>2021-08-14T15:00:04Z</time>
      </trkpt>
      <trkpt lat="45.77682" lon="2.95246">
        <ele>1081.14</ele>
        <time>2021-08-14T15:00:06Z</time>
      </trkpt>
      <trkpt lat="45.77673" lon="2.95251">
        <ele>1079.7</ele>
        <time>2021-08-14T15:00:08Z</time>
      </trkpt>
      <trkpt lat="45.77657" lon="2.95257">
        <ele>1078.74</ele>
        <time>2021-08-14T15:00:11Z</time>
      </trkpt>
      <trkpt lat="45.77652" lon="2.95259">
        <ele>1077.78</ele>
        <time>2021-08-14T15:00:12Z</time>
      </trkpt>
      <trkpt lat="45.77646" lon="2.95262">
        <ele>1077.29</ele>
        <time>2021-08-14T15:00:13Z</time>
      </trkpt>
      <trkpt lat="45.77642" lon="2.95265">
        <ele>1077.29</ele>
        <time>2021-08-14T15:00:14Z</time>
      </trkpt>
      <trkpt lat="45.77636" lon="2.95267">
        <ele>1076.33</ele>
        <time>2021-08-14T15:00:15Z</time>
      </trkpt>
      <trkpt lat="45.7763" lon="2.95269">
        <ele>1076.33</ele>
        <time>2021-08-14T15:00:16Z</time>
      </trkpt>
      <trkpt lat="45.77625" lon="2.95271">
        <ele>1075.37</ele>
        <time>2021-08-14T15:00:17Z</time>
      </trkpt>
      <trkpt lat="45.7762" lon="2.95274">
        <ele>1074.89</ele>
        <time>2021-08-14T15:00:18Z</time>
      </trkpt>
      <trkpt lat="45.77615" lon="2.95278">
        <ele>1074.41</ele>
        <time>2021-08-14T15:00:19Z</time>
      </trkpt>
      <trkpt lat="45.7761" lon="2.9528">
        <ele>1074.41</ele>
        <time>2021-08-14T15:00:20Z</time>
      </trkpt>
      <trkpt lat="45.77605" lon="2.95281">
        <ele>1073.45</ele>
        <time>2021-08-14T15:00:21Z</time>
      </trkpt>
      <trkpt lat="45.77602" lon="2.95282">
        <ele>1073.45</ele>
        <time>2021-08-14T15:00:22Z</time>
      </trkpt>
      <trkpt lat="45.77599" lon="2.95282">
        <ele>1072.97</ele>
        <time>2021-08-14T15:00:23Z</time>
      </trkpt>
      <trkpt lat="45.77597" lon="2.95283">
        <ele>1072.97</ele>
        <time>2021-08-14T15:00:24Z</time>
      </trkpt>
      <trkpt lat="45.77581" lon="2.95276">
        <ele>1071.53</ele>
        <time>2021-08-14T15:00:29Z</time>
      </trkpt>
      <trkpt lat="45.77567" lon="2.95258">
        <ele>1070.57</ele>
        <time>2021-08-14T15:00:33Z</time>
      </trkpt>
      <trkpt lat="45.77564" lon="2.95253">
        <ele>1070.57</ele>
        <time>2021-08-14T15:00:34Z</time>
      </trkpt>
      <trkpt lat="45.77545" lon="2.95229">
        <ele>1068.64</ele>
        <time>2021-08-14T15:00:39Z</time>
      </trkpt>
      <trkpt lat="45.7754" lon="2.95226">
        <ele>1068.16</ele>
        <time>2021-08-14T15:00:40Z</time>
      </trkpt>
      <trkpt lat="45.77519" lon="2.95216">
        <ele>1068.16</ele>
        <time>2021-08-14T15:00:45Z</time>
      </trkpt>
      <trkpt lat="45.77503" lon="2.95211">
        <ele>1069.6</ele>
        <time>2021-08-14T15:00:49Z</time>
      </trkpt>
      <trkpt lat="45.77484" lon="2.95206">
        <ele>1070.57</ele>
        <time>2021-08-14T15:00:55Z</time>
      </trkpt>
      <trkpt lat="45.77473" lon="2.95203">
        <ele>1071.53</ele>
        <time>2021-08-14T15:01:00Z</time>
      </trkpt>
      <trkpt lat="45.77462" lon="2.952">
        <ele>1072.97</ele>
        <time>2021-08-14T15:01:06Z</time>
      </trkpt>
      <trkpt lat="45.77447" lon="2.95196">
        <ele>1073.45</ele>
        <time>2021-08-14T15:01:13Z</time>
      </trkpt>
      <trkpt lat="45.77436" lon="2.95192">
        <ele>1074.41</ele>
        <time>2021-08-14T15:01:19Z</time>
      </trkpt>
      <trkpt lat="45.77425" lon="2.95188">
        <ele>1075.37</ele>
        <time>2021-08-14T15:01:25Z</time>
      </trkpt>
      <trkpt lat="45.77423" lon="2.95187">
        <ele>1075.37</ele>
        <time>2021-08-14T15:01:26Z</time>
      </trkpt>
      <trkpt lat="45.77421" lon="2.95187">
        <ele>1075.85</ele>
        <time>2021-08-14T15:01:27Z</time>
      </trkpt>
      <trkpt lat="45.77419" lon="2.95187">
        <ele>1075.85</ele>
        <time>2021-08-14T15:01:28Z</time>
      </trkpt>
      <trkpt lat="45.77417" lon="2.95187">
        <ele>1075.85</ele>
        <time>2021-08-14T15:01:29Z</time>
      </trkpt>
      <trkpt lat="45.77415" lon="2.95187">
        <ele>1075.85</ele>
        <time>2021-08-14T15:01:30Z</time>
      </trkpt>
      <trkpt lat="45.77402" lon="2.95186">
        <ele>1076.33</ele>
        <time>2021-08-14T15:01:37Z</time>
      </trkpt>
      <trkpt lat="45.77389" lon="2.95186">
        <ele>1076.81</ele>
        <time>2021-08-14T15:01:44Z</time>
      </trkpt>
      <trkpt lat="45.77376" lon="2.95188">
        <ele>1077.78</ele>
        <time>2021-08-14T15:01:51Z</time>
      </trkpt>
      <trkpt lat="45.77363" lon="2.95192">
        <ele>1078.26</ele>
        <time>2021-08-14T15:01:59Z</time>
      </trkpt>
      <trkpt lat="45.77357" lon="2.95194">
        <ele>1078.74</ele>
        <time>2021-08-14T15:02:02Z</time>
      </trkpt>
      <trkpt lat="45.77356" lon="2.95194">
        <ele>1078.74</ele>
        <time>2021-08-14T15:02:03Z</time>
      </trkpt>
      <trkpt lat="45.77353" lon="2.95195">
        <ele>1078.74</ele>
        <time>2021-08-14T15:02:04Z</time>
      </trkpt>
      <trkpt lat="45.77351" lon="2.95195">
        <ele>1078.74</ele>
        <time>2021-08-14T15:02:05Z</time>
      </trkpt>
      <trkpt lat="45.77349" lon="2.95195">
        <ele>1078.74</ele>
        <time>2021-08-14T15:02:06Z</time>
      </trkpt>
      <trkpt lat="45.77347" lon="2.95195">
        <ele>1078.74</ele>
        <time>2021-08-14T15:02:07Z</time>
      </trkpt>
      <trkpt lat="45.77345" lon="2.95195">
        <ele>1079.22</ele>
        <time>2021-08-14T15:02:08Z</time>
      </trkpt>
      <trkpt lat="45.77344" lon="2.95195">
        <ele>1079.22</ele>
        <time>2021-08-14T15:02:09Z</time>
      </trkpt>
      <trkpt lat="45.7733" lon="2.95195">
        <ele>1079.7</ele>
        <time>2021-08-14T15:02:17Z</time>
      </trkpt>
      <trkpt lat="45.77315" lon="2.95196">
        <ele>1080.66</ele>
        <time>2021-08-14T15:02:25Z</time>
      </trkpt>
      <trkpt lat="45.773" lon="2.95198">
        <ele>1081.62</ele>
        <time>2021-08-14T15:02:32Z</time>
      </trkpt>
      <trkpt lat="45.77286" lon="2.952">
        <ele>1082.58</ele>
        <time>2021-08-14T15:02:39Z</time>
      </trkpt>
      <trkpt lat="45.77281" lon="2.952">
        <ele>1083.06</ele>
        <time>2021-08-14T15:02:42Z</time>
      </trkpt>
      <trkpt lat="45.77279" lon="2.952">
        <ele>1083.06</ele>
        <time>2021-08-14T15:02:43Z</time>
      </trkpt>
      <trkpt lat="45.77278" lon="2.95199">
        <ele>1083.06</ele>
        <time>2021-08-14T15:02:44Z</time>
      </trkpt>
      <trkpt lat="45.77276" lon="2.95199">
        <ele>1083.54</ele>
        <time>2021-08-14T15:02:45Z</time>
      </trkpt>
      <trkpt lat="45.77274" lon="2.952">
        <ele>1083.54</ele>
        <time>2021-08-14T15:02:46Z</time>
      </trkpt>
      <trkpt lat="45.77271" lon="2.95199">
        <ele>1084.02</ele>
        <time>2021-08-14T15:02:48Z</time>
      </trkpt>
      <trkpt lat="45.77269" lon="2.95199">
        <ele>1084.5</ele>
        <time>2021-08-14T15:02:49Z</time>
      </trkpt>
      <trkpt lat="45.77259" lon="2.95198">
        <ele>1085.95</ele>
        <time>2021-08-14T15:02:55Z</time>
      </trkpt>
      <trkpt lat="45.77247" lon="2.95204">
        <ele>1086.43</ele>
        <time>2021-08-14T15:03:03Z</time>
      </trkpt>
      <trkpt lat="45.77244" lon="2.95205">
        <ele>1086.43</ele>
        <time>2021-08-14T15:03:05Z</time>
      </trkpt>
      <trkpt lat="45.77231" lon="2.9521">
        <ele>1086.43</ele>
        <time>2021-08-14T15:03:12Z</time>
      </trkpt>
      <trkpt lat="45.77218" lon="2.95214">
        <ele>1087.87</ele>
        <time>2021-08-14T15:03:20Z</time>
      </trkpt>
      <trkpt lat="45.77202" lon="2.95219">
        <ele>1088.83</ele>
        <time>2021-08-14T15:03:26Z</time>
      </trkpt>
      <trkpt lat="45.77187" lon="2.95225">
        <ele>1089.79</ele>
        <time>2021-08-14T15:03:34Z</time>
      </trkpt>
      <trkpt lat="45.77177" lon="2.95226">
        <ele>1090.75</ele>
        <time>2021-08-14T15:03:42Z</time>
      </trkpt>
      <trkpt lat="45.77165" lon="2.95227">
        <ele>1091.23</ele>
        <time>2021-08-14T15:03:49Z</time>
      </trkpt>
      <trkpt lat="45.77155" lon="2.95229">
        <ele>1092.68</ele>
        <time>2021-08-14T15:03:57Z</time>
      </trkpt>
      <trkpt lat="45.77149" lon="2.95234">
        <ele>1092.68</ele>
        <time>2021-08-14T15:04:05Z</time>
      </trkpt>
      <trkpt lat="45.77142" lon="2.95237">
        <ele>1094.12</ele>
        <time>2021-08-14T15:04:12Z</time>
      </trkpt>
      <trkpt lat="45.77132" lon="2.95242">
        <ele>1095.56</ele>
        <time>2021-08-14T15:04:20Z</time>
      </trkpt>
      <trkpt lat="45.77122" lon="2.95246">
        <ele>1096.52</ele>
        <time>2021-08-14T15:04:28Z</time>
      </trkpt>
      <trkpt lat="45.77117" lon="2.9525">
        <ele>1097</ele>
        <time>2021-08-14T15:04:33Z</time>
      </trkpt>
      <trkpt lat="45.77116" lon="2.95251">
        <ele>1097</ele>
        <time>2021-08-14T15:04:34Z</time>
      </trkpt>
      <trkpt lat="45.77115" lon="2.95252">
        <ele>1097</ele>
        <time>2021-08-14T15:04:35Z</time>
      </trkpt>
      <trkpt lat="45.77113" lon="2.95253">
        <ele>1097</ele>
        <time>2021-08-14T15:04:36Z</time>
      </trkpt>
      <trkpt lat="45.77112" lon="2.95254">
        <ele>1097</ele>
        <time>2021-08-14T15:04:37Z</time>
      </trkpt>
      <trkpt lat="45.77103" lon="2.95261">
        <ele>1097.48</ele>
        <time>2021-08-14T15:04:44Z</time>
      </trkpt>
      <trkpt lat="45.77089" lon="2.95269">
        <ele>1098.44</ele>
        <time>2021-08-14T15:04:52Z</time>
      </trkpt>
      <trkpt lat="45.77079" lon="2.95276">
        <ele>1099.4</ele>
        <time>2021-08-14T15:04:59Z</time>
      </trkpt>
      <trkpt lat="45.77068" lon="2.95284">
        <ele>1099.89</ele>
        <time>2021-08-14T15:05:05Z</time>
      </trkpt>
      <trkpt lat="45.77057" lon="2.95286">
        <ele>1100.37</ele>
        <time>2021-08-14T15:05:11Z</time>
      </trkpt>
      <trkpt lat="45.77046" lon="2.95293">
        <ele>1100.37</ele>
        <time>2021-08-14T15:05:18Z</time>
      </trkpt>
      <trkpt lat="45.77033" lon="2.953">
        <ele>1100.37</ele>
        <time>2021-08-14T15:05:25Z</time>
      </trkpt>
      <trkpt lat="45.77031" lon="2.95303">
        <ele>1100.85</ele>
        <time>2021-08-14T15:05:27Z</time>
      </trkpt>
      <trkpt lat="45.77029" lon="2.95304">
        <ele>1100.85</ele>
        <time>2021-08-14T15:05:28Z</time>
      </trkpt>
      <trkpt lat="45.77026" lon="2.95306">
        <ele>1101.33</ele>
        <time>2021-08-14T15:05:29Z</time>
      </trkpt>
      <trkpt lat="45.77024" lon="2.95307">
        <ele>1101.33</ele>
        <time>2021-08-14T15:05:30Z</time>
      </trkpt>
      <trkpt lat="45.77022" lon="2.95308">
        <ele>1101.33</ele>
        <time>2021-08-14T15:05:31Z</time>
      </trkpt>
      <trkpt lat="45.7702" lon="2.95308">
        <ele>1101.33</ele>
        <time>2021-08-14T15:05:32Z</time>
      </trkpt>
      <trkpt lat="45.77017" lon="2.95309">
        <ele>1101.33</ele>
        <time>2021-08-14T15:05:33Z</time>
      </trkpt>
      <trkpt lat="45.77015" lon="2.95309">
        <ele>1101.33</ele>
        <time>2021-08-14T15:05:34Z</time>
      </trkpt>
      <trkpt lat="45.77011" lon="2.95311">
        <ele>1101.33</ele>
        <time>2021-08-14T15:05:39Z</time>
      </trkpt>
      <trkpt lat="45.77005" lon="2.95314">
        <ele>1101.33</ele>
        <time>2021-08-14T15:05:53Z</time>
      </trkpt>
      <trkpt lat="45.77005" lon="2.95315">
        <ele>1101.33</ele>
        <time>2021-08-14T15:06:12Z</time>
      </trkpt>
      <trkpt lat="45.77003" lon="2.95312">
        <ele>1101.33</ele>
        <time>2021-08-14T15:06:29Z</time>
      </trkpt>
      <trkpt lat="45.76993" lon="2.95315">
        <ele>1100.85</ele>
        <time>2021-08-14T15:06:34Z</time>
      </trkpt>
      <trkpt lat="45.76982" lon="2.95318">
        <ele>1098.92</ele>
        <time>2021-08-14T15:06:37Z</time>
      </trkpt>
      <trkpt lat="45.76965" lon="2.95326">
        <ele>1096.52</ele>
        <time>2021-08-14T15:06:41Z</time>
      </trkpt>
      <trkpt lat="45.76947" lon="2.95333">
        <ele>1095.08</ele>
        <time>2021-08-14T15:06:44Z</time>
      </trkpt>
      <trkpt lat="45.76931" lon="2.95345">
        <ele>1094.12</ele>
        <time>2021-08-14T15:06:47Z</time>
      </trkpt>
      <trkpt lat="45.76896" lon="2.95365">
        <ele>1093.16</ele>
        <time>2021-08-14T15:06:53Z</time>
      </trkpt>
      <trkpt lat="45.76891" lon="2.95367">
        <ele>1093.16</ele>
        <time>2021-08-14T15:06:54Z</time>
      </trkpt>
      <trkpt lat="45.76863" lon="2.95375">
        <ele>1093.16</ele>
        <time>2021-08-14T15:07:00Z</time>
      </trkpt>
      <trkpt lat="45.76846" lon="2.95385">
        <ele>1093.16</ele>
        <time>2021-08-14T15:07:05Z</time>
      </trkpt>
      <trkpt lat="45.76823" lon="2.95398">
        <ele>1093.16</ele>
        <time>2021-08-14T15:07:11Z</time>
      </trkpt>
      <trkpt lat="45.768" lon="2.95406">
        <ele>1091.71</ele>
        <time>2021-08-14T15:07:17Z</time>
      </trkpt>
      <trkpt lat="45.76772" lon="2.95404">
        <ele>1089.31</ele>
        <time>2021-08-14T15:07:23Z</time>
      </trkpt>
      <trkpt lat="45.76766" lon="2.95403">
        <ele>1088.83</ele>
        <time>2021-08-14T15:07:24Z</time>
      </trkpt>
      <trkpt lat="45.76761" lon="2.95403">
        <ele>1088.83</ele>
        <time>2021-08-14T15:07:25Z</time>
      </trkpt>
      <trkpt lat="45.76755" lon="2.95403">
        <ele>1088.83</ele>
        <time>2021-08-14T15:07:26Z</time>
      </trkpt>
      <trkpt lat="45.76743" lon="2.95403">
        <ele>1088.83</ele>
        <time>2021-08-14T15:07:28Z</time>
      </trkpt>
      <trkpt lat="45.76711" lon="2.95409">
        <ele>1088.83</ele>
        <time>2021-08-14T15:07:34Z</time>
      </trkpt>
      <trkpt lat="45.76706" lon="2.95409">
        <ele>1088.35</ele>
        <time>2021-08-14T15:07:35Z</time>
      </trkpt>
      <trkpt lat="45.767" lon="2.9541">
        <ele>1087.87</ele>
        <time>2021-08-14T15:07:36Z</time>
      </trkpt>
      <trkpt lat="45.7666" lon="2.95423">
        <ele>1087.39</ele>
        <time>2021-08-14T15:07:42Z</time>
      </trkpt>
      <trkpt lat="45.76632" lon="2.95444">
        <ele>1089.31</ele>
        <time>2021-08-14T15:07:48Z</time>
      </trkpt>
      <trkpt lat="45.76621" lon="2.95456">
        <ele>1091.71</ele>
        <time>2021-08-14T15:07:53Z</time>
      </trkpt>
      <trkpt lat="45.76612" lon="2.9547">
        <ele>1092.68</ele>
        <time>2021-08-14T15:08:00Z</time>
      </trkpt>
      <trkpt lat="45.76597" lon="2.95478">
        <ele>1092.68</ele>
        <time>2021-08-14T15:08:05Z</time>
      </trkpt>
      <trkpt lat="45.76584" lon="2.95482">
        <ele>1088.35</ele>
        <time>2021-08-14T15:08:09Z</time>
      </trkpt>
      <trkpt lat="45.7658" lon="2.95483">
        <ele>1088.35</ele>
        <time>2021-08-14T15:08:10Z</time>
      </trkpt>
      <trkpt lat="45.76549" lon="2.95496">
        <ele>1088.35</ele>
        <time>2021-08-14T15:08:16Z</time>
      </trkpt>
      <trkpt lat="45.76531" lon="2.95503">
        <ele>1089.79</ele>
        <time>2021-08-14T15:08:21Z</time>
      </trkpt>
      <trkpt lat="45.76529" lon="2.95505">
        <ele>1089.79</ele>
        <time>2021-08-14T15:08:22Z</time>
      </trkpt>
      <trkpt lat="45.76509" lon="2.95515">
        <ele>1089.79</ele>
        <time>2021-08-14T15:08:28Z</time>
      </trkpt>
      <trkpt lat="45.76484" lon="2.95523">
        <ele>1090.75</ele>
        <time>2021-08-14T15:08:34Z</time>
      </trkpt>
      <trkpt lat="45.76462" lon="2.9553">
        <ele>1092.2</ele>
        <time>2021-08-14T15:08:40Z</time>
      </trkpt>
      <trkpt lat="45.76452" lon="2.95537">
        <ele>1092.68</ele>
        <time>2021-08-14T15:08:44Z</time>
      </trkpt>
      <trkpt lat="45.76451" lon="2.95539">
        <ele>1093.16</ele>
        <time>2021-08-14T15:08:45Z</time>
      </trkpt>
      <trkpt lat="45.76449" lon="2.9554">
        <ele>1093.64</ele>
        <time>2021-08-14T15:08:46Z</time>
      </trkpt>
      <trkpt lat="45.76447" lon="2.9554">
        <ele>1093.16</ele>
        <time>2021-08-14T15:08:47Z</time>
      </trkpt>
      <trkpt lat="45.76445" lon="2.9554">
        <ele>1093.16</ele>
        <time>2021-08-14T15:08:48Z</time>
      </trkpt>
      <trkpt lat="45.76444" lon="2.9554">
        <ele>1093.16</ele>
        <time>2021-08-14T15:08:49Z</time>
      </trkpt>
      <trkpt lat="45.76439" lon="2.95541">
        <ele>1093.16</ele>
        <time>2021-08-14T15:08:55Z</time>
      </trkpt>
      <trkpt lat="45.76428" lon="2.95545">
        <ele>1091.71</ele>
        <time>2021-08-14T15:09:01Z</time>
      </trkpt>
      <trkpt lat="45.76426" lon="2.95545">
        <ele>1091.71</ele>
        <time>2021-08-14T15:09:02Z</time>
      </trkpt>
      <trkpt lat="45.76411" lon="2.95545">
        <ele>1090.27</ele>
        <time>2021-08-14T15:09:09Z</time>
      </trkpt>
      <trkpt lat="45.76408" lon="2.95545">
        <ele>1089.79</ele>
        <time>2021-08-14T15:09:14Z</time>
      </trkpt>
      <trkpt lat="45.76408" lon="2.95543">
        <ele>1089.79</ele>
        <time>2021-08-14T15:09:36Z</time>
      </trkpt>
      <trkpt lat="45.76408" lon="2.95544">
        <ele>1089.79</ele>
        <time>2021-08-14T15:09:58Z</time>
      </trkpt>
      <trkpt lat="45.76407" lon="2.95544">
        <ele>1089.79</ele>
        <time>2021-08-14T15:10:14Z</time>
      </trkpt>
      <trkpt lat="45.76407" lon="2.95544">
        <ele>1089.31</ele>
        <time>2021-08-14T15:10:33Z</time>
      </trkpt>
      <trkpt lat="45.76404" lon="2.95548">
        <ele>1089.31</ele>
        <time>2021-08-14T15:10:40Z</time>
      </trkpt>
      <trkpt lat="45.76402" lon="2.95549">
        <ele>1089.31</ele>
        <time>2021-08-14T15:10:41Z</time>
      </trkpt>
      <trkpt lat="45.76393" lon="2.9556">
        <ele>1087.87</ele>
        <time>2021-08-14T15:10:45Z</time>
      </trkpt>
      <trkpt lat="45.76392" lon="2.95566">
        <ele>1087.39</ele>
        <time>2021-08-14T15:10:46Z</time>
      </trkpt>
      <trkpt lat="45.76391" lon="2.95571">
        <ele>1087.39</ele>
        <time>2021-08-14T15:10:47Z</time>
      </trkpt>
      <trkpt lat="45.76386" lon="2.956">
        <ele>1084.99</ele>
        <time>2021-08-14T15:10:51Z</time>
      </trkpt>
      <trkpt lat="45.76384" lon="2.95608">
        <ele>1084.99</ele>
        <time>2021-08-14T15:10:52Z</time>
      </trkpt>
      <trkpt lat="45.76381" lon="2.95615">
        <ele>1084.5</ele>
        <time>2021-08-14T15:10:53Z</time>
      </trkpt>
      <trkpt lat="45.76376" lon="2.95622">
        <ele>1084.02</ele>
        <time>2021-08-14T15:10:54Z</time>
      </trkpt>
      <trkpt lat="45.7637" lon="2.95628">
        <ele>1083.06</ele>
        <time>2021-08-14T15:10:55Z</time>
      </trkpt>
      <trkpt lat="45.76364" lon="2.95633">
        <ele>1083.06</ele>
        <time>2021-08-14T15:10:56Z</time>
      </trkpt>
      <trkpt lat="45.76357" lon="2.95638">
        <ele>1082.1</ele>
        <time>2021-08-14T15:10:57Z</time>
      </trkpt>
      <trkpt lat="45.76351" lon="2.95643">
        <ele>1081.62</ele>
        <time>2021-08-14T15:10:58Z</time>
      </trkpt>
      <trkpt lat="45.76345" lon="2.95649">
        <ele>1081.14</ele>
        <time>2021-08-14T15:10:59Z</time>
      </trkpt>
      <trkpt lat="45.76342" lon="2.95654">
        <ele>1080.18</ele>
        <time>2021-08-14T15:11:00Z</time>
      </trkpt>
      <trkpt lat="45.76338" lon="2.9566">
        <ele>1080.18</ele>
        <time>2021-08-14T15:11:01Z</time>
      </trkpt>
      <trkpt lat="45.76336" lon="2.95664">
        <ele>1079.7</ele>
        <time>2021-08-14T15:11:02Z</time>
      </trkpt>
      <trkpt lat="45.76334" lon="2.95667">
        <ele>1079.7</ele>
        <time>2021-08-14T15:11:03Z</time>
      </trkpt>
      <trkpt lat="45.76332" lon="2.95668">
        <ele>1079.7</ele>
        <time>2021-08-14T15:11:04Z</time>
      </trkpt>
      <trkpt lat="45.76331" lon="2.95668">
        <ele>1079.22</ele>
        <time>2021-08-14T15:11:05Z</time>
      </trkpt>
      <trkpt lat="45.76329" lon="2.95667">
        <ele>1079.22</ele>
        <time>2021-08-14T15:11:06Z</time>
      </trkpt>
      <trkpt lat="45.7632" lon="2.95664">
        <ele>1077.78</ele>
        <time>2021-08-14T15:11:12Z</time>
      </trkpt>
      <trkpt lat="45.76318" lon="2.95664">
        <ele>1077.29</ele>
        <time>2021-08-14T15:11:13Z</time>
      </trkpt>
      <trkpt lat="45.76317" lon="2.95666">
        <ele>1077.29</ele>
        <time>2021-08-14T15:11:14Z</time>
      </trkpt>
      <trkpt lat="45.76316" lon="2.95667">
        <ele>1076.33</ele>
        <time>2021-08-14T15:11:15Z</time>
      </trkpt>
      <trkpt lat="45.76315" lon="2.95669">
        <ele>1075.85</ele>
        <time>2021-08-14T15:11:16Z</time>
      </trkpt>
      <trkpt lat="45.76314" lon="2.95672">
        <ele>1074.89</ele>
        <time>2021-08-14T15:11:17Z</time>
      </trkpt>
      <trkpt lat="45.76312" lon="2.95676">
        <ele>1073.93</ele>
        <time>2021-08-14T15:11:18Z</time>
      </trkpt>
      <trkpt lat="45.76308" lon="2.95686">
        <ele>1072.97</ele>
        <time>2021-08-14T15:11:20Z</time>
      </trkpt>
      <trkpt lat="45.76304" lon="2.95692">
        <ele>1072.49</ele>
        <time>2021-08-14T15:11:21Z</time>
      </trkpt>
      <trkpt lat="45.76301" lon="2.95696">
        <ele>1071.53</ele>
        <time>2021-08-14T15:11:22Z</time>
      </trkpt>
      <trkpt lat="45.76298" lon="2.957">
        <ele>1071.53</ele>
        <time>2021-08-14T15:11:23Z</time>
      </trkpt>
      <trkpt lat="45.76296" lon="2.95704">
        <ele>1070.57</ele>
        <time>2021-08-14T15:11:24Z</time>
      </trkpt>
      <trkpt lat="45.76293" lon="2.95707">
        <ele>1070.08</ele>
        <time>2021-08-14T15:11:25Z</time>
      </trkpt>
      <trkpt lat="45.76289" lon="2.9571">
        <ele>1070.08</ele>
        <time>2021-08-14T15:11:26Z</time>
      </trkpt>
      <trkpt lat="45.76286" lon="2.95711">
        <ele>1069.12</ele>
        <time>2021-08-14T15:11:27Z</time>
      </trkpt>
      <trkpt lat="45.76282" lon="2.95713">
        <ele>1068.64</ele>
        <time>2021-08-14T15:11:28Z</time>
      </trkpt>
      <trkpt lat="45.76278" lon="2.95715">
        <ele>1068.64</ele>
        <time>2021-08-14T15:11:29Z</time>
      </trkpt>
      <trkpt lat="45.76273" lon="2.95717">
        <ele>1067.68</ele>
        <time>2021-08-14T15:11:30Z</time>
      </trkpt>
      <trkpt lat="45.76269" lon="2.95719">
        <ele>1067.68</ele>
        <time>2021-08-14T15:11:31Z</time>
      </trkpt>
      <trkpt lat="45.76266" lon="2.95722">
        <ele>1066.72</ele>
        <time>2021-08-14T15:11:32Z</time>
      </trkpt>
      <trkpt lat="45.76262" lon="2.95724">
        <ele>1066.72</ele>
        <time>2021-08-14T15:11:33Z</time>
      </trkpt>
      <trkpt lat="45.76248" lon="2.95733">
        <ele>1065.28</ele>
        <time>2021-08-14T15:11:36Z</time>
      </trkpt>
      <trkpt lat="45.76244" lon="2.95735">
        <ele>1064.32</ele>
        <time>2021-08-14T15:11:37Z</time>
      </trkpt>
      <trkpt lat="45.7624" lon="2.95736">
        <ele>1063.84</ele>
        <time>2021-08-14T15:11:38Z</time>
      </trkpt>
      <trkpt lat="45.76236" lon="2.95737">
        <ele>1063.84</ele>
        <time>2021-08-14T15:11:39Z</time>
      </trkpt>
      <trkpt lat="45.76233" lon="2.95738">
        <ele>1063.84</ele>
        <time>2021-08-14T15:11:40Z</time>
      </trkpt>
      <trkpt lat="45.7623" lon="2.95739">
        <ele>1063.84</ele>
        <time>2021-08-14T15:11:41Z</time>
      </trkpt>
      <trkpt lat="45.76228" lon="2.95739">
        <ele>1063.84</ele>
        <time>2021-08-14T15:11:42Z</time>
      </trkpt>
      <trkpt lat="45.76223" lon="2.95739">
        <ele>1063.36</ele>
        <time>2021-08-14T15:11:48Z</time>
      </trkpt>
      <trkpt lat="45.76217" lon="2.95739">
        <ele>1063.36</ele>
        <time>2021-08-14T15:12:07Z</time>
      </trkpt>
      <trkpt lat="45.76217" lon="2.95738">
        <ele>1062.87</ele>
        <time>2021-08-14T15:12:20Z</time>
      </trkpt>
      <trkpt lat="45.76216" lon="2.95739">
        <ele>1062.87</ele>
        <time>2021-08-14T15:12:30Z</time>
      </trkpt>
      <trkpt lat="45.76213" lon="2.95736">
        <ele>1062.87</ele>
        <time>2021-08-14T15:12:44Z</time>
      </trkpt>
      <trkpt lat="45.76213" lon="2.95738">
        <ele>1062.87</ele>
        <time>2021-08-14T15:12:54Z</time>
      </trkpt>
      <trkpt lat="45.76213" lon="2.95737">
        <ele>1062.87</ele>
        <time>2021-08-14T15:12:59Z</time>
      </trkpt>
      <trkpt lat="45.76212" lon="2.95737">
        <ele>1062.87</ele>
        <time>2021-08-14T15:13:00Z</time>
      </trkpt>
      <trkpt lat="45.7621" lon="2.95736">
        <ele>1064.32</ele>
        <time>2021-08-14T15:13:02Z</time>
      </trkpt>
      <trkpt lat="45.76203" lon="2.95732">
        <ele>1064.32</ele>
        <time>2021-08-14T15:13:09Z</time>
      </trkpt>
      <trkpt lat="45.76193" lon="2.95732">
        <ele>1066.24</ele>
        <time>2021-08-14T15:13:15Z</time>
      </trkpt>
      <trkpt lat="45.76178" lon="2.95735">
        <ele>1066.24</ele>
        <time>2021-08-14T15:13:22Z</time>
      </trkpt>
      <trkpt lat="45.76161" lon="2.95742">
        <ele>1064.8</ele>
        <time>2021-08-14T15:13:28Z</time>
      </trkpt>
      <trkpt lat="45.76158" lon="2.95743">
        <ele>1064.8</ele>
        <time>2021-08-14T15:13:29Z</time>
      </trkpt>
      <trkpt lat="45.76145" lon="2.95751">
        <ele>1064.8</ele>
        <time>2021-08-14T15:13:34Z</time>
      </trkpt>
      <trkpt lat="45.76123" lon="2.95759">
        <ele>1066.24</ele>
        <time>2021-08-14T15:13:41Z</time>
      </trkpt>
      <trkpt lat="45.76103" lon="2.9576">
        <ele>1066.72</ele>
        <time>2021-08-14T15:13:47Z</time>
      </trkpt>
      <trkpt lat="45.76096" lon="2.95759">
        <ele>1067.2</ele>
        <time>2021-08-14T15:13:51Z</time>
      </trkpt>
      <trkpt lat="45.76093" lon="2.95759">
        <ele>1067.2</ele>
        <time>2021-08-14T15:13:52Z</time>
      </trkpt>
      <trkpt lat="45.7609" lon="2.9576">
        <ele>1067.2</ele>
        <time>2021-08-14T15:13:53Z</time>
      </trkpt>
      <trkpt lat="45.76087" lon="2.9576">
        <ele>1067.2</ele>
        <time>2021-08-14T15:13:54Z</time>
      </trkpt>
      <trkpt lat="45.76084" lon="2.95761">
        <ele>1067.2</ele>
        <time>2021-08-14T15:13:55Z</time>
      </trkpt>
      <trkpt lat="45.76081" lon="2.95761">
        <ele>1067.2</ele>
        <time>2021-08-14T15:13:56Z</time>
      </trkpt>
      <trkpt lat="45.76079" lon="2.95762">
        <ele>1067.2</ele>
        <time>2021-08-14T15:13:57Z</time>
      </trkpt>
      <trkpt lat="45.76075" lon="2.95764">
        <ele>1067.2</ele>
        <time>2021-08-14T15:13:59Z</time>
      </trkpt>
      <trkpt lat="45.76073" lon="2.95767">
        <ele>1067.2</ele>
        <time>2021-08-14T15:14:00Z</time>
      </trkpt>
      <trkpt lat="45.76071" lon="2.9577">
        <ele>1067.2</ele>
        <time>2021-08-14T15:14:01Z</time>
      </trkpt>
      <trkpt lat="45.76069" lon="2.95774">
        <ele>1065.76</ele>
        <time>2021-08-14T15:14:02Z</time>
      </trkpt>
      <trkpt lat="45.76065" lon="2.95778">
        <ele>1065.76</ele>
        <time>2021-08-14T15:14:03Z</time>
      </trkpt>
      <trkpt lat="45.76063" lon="2.95782">
        <ele>1065.28</ele>
        <time>2021-08-14T15:14:04Z</time>
      </trkpt>
      <trkpt lat="45.7606" lon="2.95786">
        <ele>1065.28</ele>
        <time>2021-08-14T15:14:05Z</time>
      </trkpt>
      <trkpt lat="45.76058" lon="2.95791">
        <ele>1063.84</ele>
        <time>2021-08-14T15:14:06Z</time>
      </trkpt>
      <trkpt lat="45.76056" lon="2.95797">
        <ele>1063.36</ele>
        <time>2021-08-14T15:14:07Z</time>
      </trkpt>
      <trkpt lat="45.76053" lon="2.95803">
        <ele>1062.39</ele>
        <time>2021-08-14T15:14:08Z</time>
      </trkpt>
      <trkpt lat="45.76049" lon="2.95813">
        <ele>1061.91</ele>
        <time>2021-08-14T15:14:10Z</time>
      </trkpt>
      <trkpt lat="45.76041" lon="2.95829">
        <ele>1061.43</ele>
        <time>2021-08-14T15:14:15Z</time>
      </trkpt>
      <trkpt lat="45.76039" lon="2.95846">
        <ele>1058.07</ele>
        <time>2021-08-14T15:14:21Z</time>
      </trkpt>
      <trkpt lat="45.76039" lon="2.95849">
        <ele>1057.59</ele>
        <time>2021-08-14T15:14:22Z</time>
      </trkpt>
      <trkpt lat="45.76038" lon="2.95852">
        <ele>1057.11</ele>
        <time>2021-08-14T15:14:23Z</time>
      </trkpt>
      <trkpt lat="45.76036" lon="2.95854">
        <ele>1057.11</ele>
        <time>2021-08-14T15:14:24Z</time>
      </trkpt>
      <trkpt lat="45.76034" lon="2.95856">
        <ele>1057.11</ele>
        <time>2021-08-14T15:14:25Z</time>
      </trkpt>
      <trkpt lat="45.76032" lon="2.95857">
        <ele>1057.11</ele>
        <time>2021-08-14T15:14:26Z</time>
      </trkpt>
      <trkpt lat="45.7603" lon="2.95858">
        <ele>1057.59</ele>
        <time>2021-08-14T15:14:27Z</time>
      </trkpt>
      <trkpt lat="45.76027" lon="2.95858">
        <ele>1057.59</ele>
        <time>2021-08-14T15:14:28Z</time>
      </trkpt>
      <trkpt lat="45.7602" lon="2.95862">
        <ele>1058.55</ele>
        <time>2021-08-14T15:14:31Z</time>
      </trkpt>
      <trkpt lat="45.75999" lon="2.95869">
        <ele>1059.51</ele>
        <time>2021-08-14T15:14:38Z</time>
      </trkpt>
      <trkpt lat="45.75979" lon="2.95878">
        <ele>1060.95</ele>
        <time>2021-08-14T15:14:44Z</time>
      </trkpt>
      <trkpt lat="45.75962" lon="2.95882">
        <ele>1059.03</ele>
        <time>2021-08-14T15:14:48Z</time>
      </trkpt>
      <trkpt lat="45.75957" lon="2.95882">
        <ele>1059.03</ele>
        <time>2021-08-14T15:14:49Z</time>
      </trkpt>
      <trkpt lat="45.75952" lon="2.95882">
        <ele>1059.03</ele>
        <time>2021-08-14T15:14:50Z</time>
      </trkpt>
      <trkpt lat="45.75947" lon="2.95881">
        <ele>1058.55</ele>
        <time>2021-08-14T15:14:51Z</time>
      </trkpt>
      <trkpt lat="45.75943" lon="2.9588">
        <ele>1058.55</ele>
        <time>2021-08-14T15:14:52Z</time>
      </trkpt>
      <trkpt lat="45.75926" lon="2.95875">
        <ele>1058.55</ele>
        <time>2021-08-14T15:14:57Z</time>
      </trkpt>
      <trkpt lat="45.75907" lon="2.95863">
        <ele>1058.55</ele>
        <time>2021-08-14T15:15:01Z</time>
      </trkpt>
      <trkpt lat="45.75879" lon="2.95846">
        <ele>1058.07</ele>
        <time>2021-08-14T15:15:08Z</time>
      </trkpt>
      <trkpt lat="45.75861" lon="2.95831">
        <ele>1057.59</ele>
        <time>2021-08-14T15:15:13Z</time>
      </trkpt>
      <trkpt lat="45.75834" lon="2.95812">
        <ele>1056.63</ele>
        <time>2021-08-14T15:15:18Z</time>
      </trkpt>
      <trkpt lat="45.75817" lon="2.95803">
        <ele>1056.63</ele>
        <time>2021-08-14T15:15:21Z</time>
      </trkpt>
      <trkpt lat="45.75791" lon="2.95788">
        <ele>1055.18</ele>
        <time>2021-08-14T15:15:27Z</time>
      </trkpt>
      <trkpt lat="45.75782" lon="2.95781">
        <ele>1054.7</ele>
        <time>2021-08-14T15:15:29Z</time>
      </trkpt>
      <trkpt lat="45.75777" lon="2.95779">
        <ele>1054.7</ele>
        <time>2021-08-14T15:15:30Z</time>
      </trkpt>
      <trkpt lat="45.75772" lon="2.95775">
        <ele>1054.22</ele>
        <time>2021-08-14T15:15:31Z</time>
      </trkpt>
      <trkpt lat="45.75744" lon="2.95759">
        <ele>1051.34</ele>
        <time>2021-08-14T15:15:36Z</time>
      </trkpt>
      <trkpt lat="45.75709" lon="2.95732">
        <ele>1047.49</ele>
        <time>2021-08-14T15:15:43Z</time>
      </trkpt>
      <trkpt lat="45.75699" lon="2.95725">
        <ele>1047.01</ele>
        <time>2021-08-14T15:15:45Z</time>
      </trkpt>
      <trkpt lat="45.75681" lon="2.95713">
        <ele>1045.09</ele>
        <time>2021-08-14T15:15:50Z</time>
      </trkpt>
      <trkpt lat="45.75675" lon="2.95711">
        <ele>1042.69</ele>
        <time>2021-08-14T15:15:55Z</time>
      </trkpt>
      <trkpt lat="45.75676" lon="2.95714">
        <ele>1042.21</ele>
        <time>2021-08-14T15:15:56Z</time>
      </trkpt>
      <trkpt lat="45.75679" lon="2.95731">
        <ele>1038.84</ele>
        <time>2021-08-14T15:16:01Z</time>
      </trkpt>
      <trkpt lat="45.75679" lon="2.95748">
        <ele>1035.96</ele>
        <time>2021-08-14T15:16:06Z</time>
      </trkpt>
      <trkpt lat="45.75678" lon="2.95766">
        <ele>1032.59</ele>
        <time>2021-08-14T15:16:10Z</time>
      </trkpt>
      <trkpt lat="45.75673" lon="2.95783">
        <ele>1029.23</ele>
        <time>2021-08-14T15:16:14Z</time>
      </trkpt>
      <trkpt lat="45.75664" lon="2.95803">
        <ele>1025.38</ele>
        <time>2021-08-14T15:16:18Z</time>
      </trkpt>
      <trkpt lat="45.75652" lon="2.95821">
        <ele>1022.02</ele>
        <time>2021-08-14T15:16:22Z</time>
      </trkpt>
      <trkpt lat="45.75641" lon="2.9584">
        <ele>1018.65</ele>
        <time>2021-08-14T15:16:26Z</time>
      </trkpt>
      <trkpt lat="45.75637" lon="2.95844">
        <ele>1018.17</ele>
        <time>2021-08-14T15:16:27Z</time>
      </trkpt>
      <trkpt lat="45.75632" lon="2.95847">
        <ele>1017.21</ele>
        <time>2021-08-14T15:16:28Z</time>
      </trkpt>
      <trkpt lat="45.75628" lon="2.95851">
        <ele>1016.25</ele>
        <time>2021-08-14T15:16:29Z</time>
      </trkpt>
      <trkpt lat="45.75612" lon="2.95871">
        <ele>1013.37</ele>
        <time>2021-08-14T15:16:33Z</time>
      </trkpt>
      <trkpt lat="45.75608" lon="2.95876">
        <ele>1013.37</ele>
        <time>2021-08-14T15:16:34Z</time>
      </trkpt>
      <trkpt lat="45.75588" lon="2.95898">
        <ele>1010.48</ele>
        <time>2021-08-14T15:16:38Z</time>
      </trkpt>
      <trkpt lat="45.75583" lon="2.95903">
        <ele>1010</ele>
        <time>2021-08-14T15:16:39Z</time>
      </trkpt>
      <trkpt lat="45.75579" lon="2.95908">
        <ele>1009.52</ele>
        <time>2021-08-14T15:16:40Z</time>
      </trkpt>
      <trkpt lat="45.75571" lon="2.95917">
        <ele>1008.56</ele>
        <time>2021-08-14T15:16:42Z</time>
      </trkpt>
      <trkpt lat="45.75567" lon="2.95919">
        <ele>1007.6</ele>
        <time>2021-08-14T15:16:43Z</time>
      </trkpt>
      <trkpt lat="45.75563" lon="2.95921">
        <ele>1007.6</ele>
        <time>2021-08-14T15:16:44Z</time>
      </trkpt>
      <trkpt lat="45.75541" lon="2.9593">
        <ele>1004.72</ele>
        <time>2021-08-14T15:16:49Z</time>
      </trkpt>
      <trkpt lat="45.75535" lon="2.95934">
        <ele>1003.75</ele>
        <time>2021-08-14T15:16:50Z</time>
      </trkpt>
      <trkpt lat="45.75529" lon="2.95938">
        <ele>1003.27</ele>
        <time>2021-08-14T15:16:51Z</time>
      </trkpt>
      <trkpt lat="45.75522" lon="2.95945">
        <ele>1002.31</ele>
        <time>2021-08-14T15:16:52Z</time>
      </trkpt>
      <trkpt lat="45.75517" lon="2.95949">
        <ele>1001.83</ele>
        <time>2021-08-14T15:16:53Z</time>
      </trkpt>
      <trkpt lat="45.75512" lon="2.95954">
        <ele>1000.87</ele>
        <time>2021-08-14T15:16:54Z</time>
      </trkpt>
      <trkpt lat="45.75485" lon="2.95978">
        <ele>997.99</ele>
        <time>2021-08-14T15:16:59Z</time>
      </trkpt>
      <trkpt lat="45.7548" lon="2.95982">
        <ele>997.51</ele>
        <time>2021-08-14T15:17:00Z</time>
      </trkpt>
      <trkpt lat="45.75471" lon="2.95992">
        <ele>995.58</ele>
        <time>2021-08-14T15:17:02Z</time>
      </trkpt>
      <trkpt lat="45.75457" lon="2.96007">
        <ele>994.14</ele>
        <time>2021-08-14T15:17:05Z</time>
      </trkpt>
      <trkpt lat="45.75452" lon="2.96013">
        <ele>993.66</ele>
        <time>2021-08-14T15:17:06Z</time>
      </trkpt>
      <trkpt lat="45.75448" lon="2.96019">
        <ele>993.18</ele>
        <time>2021-08-14T15:17:07Z</time>
      </trkpt>
      <trkpt lat="45.75444" lon="2.96026">
        <ele>993.18</ele>
        <time>2021-08-14T15:17:08Z</time>
      </trkpt>
      <trkpt lat="45.75443" lon="2.96033">
        <ele>992.7</ele>
        <time>2021-08-14T15:17:09Z</time>
      </trkpt>
      <trkpt lat="45.75442" lon="2.96041">
        <ele>992.7</ele>
        <time>2021-08-14T15:17:10Z</time>
      </trkpt>
      <trkpt lat="45.75441" lon="2.96049">
        <ele>992.22</ele>
        <time>2021-08-14T15:17:11Z</time>
      </trkpt>
      <trkpt lat="45.7544" lon="2.96056">
        <ele>992.22</ele>
        <time>2021-08-14T15:17:12Z</time>
      </trkpt>
      <trkpt lat="45.7544" lon="2.96072">
        <ele>991.74</ele>
        <time>2021-08-14T15:17:14Z</time>
      </trkpt>
      <trkpt lat="45.75427" lon="2.96124">
        <ele>988.85</ele>
        <time>2021-08-14T15:17:20Z</time>
      </trkpt>
      <trkpt lat="45.75418" lon="2.96144">
        <ele>987.89</ele>
        <time>2021-08-14T15:17:24Z</time>
      </trkpt>
      <trkpt lat="45.75414" lon="2.96149">
        <ele>987.89</ele>
        <time>2021-08-14T15:17:26Z</time>
      </trkpt>
      <trkpt lat="45.75411" lon="2.9615">
        <ele>987.89</ele>
        <time>2021-08-14T15:17:27Z</time>
      </trkpt>
      <trkpt lat="45.75409" lon="2.96152">
        <ele>987.41</ele>
        <time>2021-08-14T15:17:28Z</time>
      </trkpt>
      <trkpt lat="45.75395" lon="2.9617">
        <ele>985.97</ele>
        <time>2021-08-14T15:17:33Z</time>
      </trkpt>
      <trkpt lat="45.75391" lon="2.96173">
        <ele>985.49</ele>
        <time>2021-08-14T15:17:34Z</time>
      </trkpt>
      <trkpt lat="45.75363" lon="2.9619">
        <ele>983.57</ele>
        <time>2021-08-14T15:17:40Z</time>
      </trkpt>
      <trkpt lat="45.75357" lon="2.96193">
        <ele>983.57</ele>
        <time>2021-08-14T15:17:41Z</time>
      </trkpt>
      <trkpt lat="45.75352" lon="2.96196">
        <ele>983.09</ele>
        <time>2021-08-14T15:17:42Z</time>
      </trkpt>
      <trkpt lat="45.7534" lon="2.96201">
        <ele>983.09</ele>
        <time>2021-08-14T15:17:44Z</time>
      </trkpt>
      <trkpt lat="45.75335" lon="2.96204">
        <ele>982.6</ele>
        <time>2021-08-14T15:17:45Z</time>
      </trkpt>
      <trkpt lat="45.7533" lon="2.96208">
        <ele>982.6</ele>
        <time>2021-08-14T15:17:46Z</time>
      </trkpt>
      <trkpt lat="45.75326" lon="2.96212">
        <ele>982.6</ele>
        <time>2021-08-14T15:17:47Z</time>
      </trkpt>
      <trkpt lat="45.75322" lon="2.96216">
        <ele>982.6</ele>
        <time>2021-08-14T15:17:48Z</time>
      </trkpt>
      <trkpt lat="45.75319" lon="2.96222">
        <ele>981.64</ele>
        <time>2021-08-14T15:17:49Z</time>
      </trkpt>
      <trkpt lat="45.75314" lon="2.96229">
        <ele>981.64</ele>
        <time>2021-08-14T15:17:50Z</time>
      </trkpt>
      <trkpt lat="45.7531" lon="2.96237">
        <ele>980.68</ele>
        <time>2021-08-14T15:17:51Z</time>
      </trkpt>
      <trkpt lat="45.75308" lon="2.96247">
        <ele>981.16</ele>
        <time>2021-08-14T15:17:52Z</time>
      </trkpt>
      <trkpt lat="45.7529" lon="2.96319">
        <ele>979.24</ele>
        <time>2021-08-14T15:17:59Z</time>
      </trkpt>
      <trkpt lat="45.75284" lon="2.96356">
        <ele>978.76</ele>
        <time>2021-08-14T15:18:03Z</time>
      </trkpt>
      <trkpt lat="45.75283" lon="2.96364">
        <ele>978.76</ele>
        <time>2021-08-14T15:18:04Z</time>
      </trkpt>
      <trkpt lat="45.75283" lon="2.96381">
        <ele>978.76</ele>
        <time>2021-08-14T15:18:06Z</time>
      </trkpt>
      <trkpt lat="45.75281" lon="2.96421">
        <ele>978.28</ele>
        <time>2021-08-14T15:18:11Z</time>
      </trkpt>
      <trkpt lat="45.75281" lon="2.96429">
        <ele>978.28</ele>
        <time>2021-08-14T15:18:12Z</time>
      </trkpt>
      <trkpt lat="45.75279" lon="2.96458">
        <ele>977.8</ele>
        <time>2021-08-14T15:18:16Z</time>
      </trkpt>
      <trkpt lat="45.75278" lon="2.96465">
        <ele>977.8</ele>
        <time>2021-08-14T15:18:17Z</time>
      </trkpt>
      <trkpt lat="45.75278" lon="2.96471">
        <ele>977.32</ele>
        <time>2021-08-14T15:18:18Z</time>
      </trkpt>
      <trkpt lat="45.75279" lon="2.96478">
        <ele>977.32</ele>
        <time>2021-08-14T15:18:19Z</time>
      </trkpt>
      <trkpt lat="45.75279" lon="2.96484">
        <ele>976.84</ele>
        <time>2021-08-14T15:18:20Z</time>
      </trkpt>
      <trkpt lat="45.7528" lon="2.9649">
        <ele>976.84</ele>
        <time>2021-08-14T15:18:21Z</time>
      </trkpt>
      <trkpt lat="45.75289" lon="2.96546">
        <ele>976.84</ele>
        <time>2021-08-14T15:18:30Z</time>
      </trkpt>
      <trkpt lat="45.75292" lon="2.96552">
        <ele>976.84</ele>
        <time>2021-08-14T15:18:31Z</time>
      </trkpt>
      <trkpt lat="45.75294" lon="2.96558">
        <ele>976.84</ele>
        <time>2021-08-14T15:18:32Z</time>
      </trkpt>
      <trkpt lat="45.75294" lon="2.96563">
        <ele>976.84</ele>
        <time>2021-08-14T15:18:33Z</time>
      </trkpt>
      <trkpt lat="45.75294" lon="2.9657">
        <ele>976.84</ele>
        <time>2021-08-14T15:18:34Z</time>
      </trkpt>
      <trkpt lat="45.75294" lon="2.96576">
        <ele>976.84</ele>
        <time>2021-08-14T15:18:35Z</time>
      </trkpt>
      <trkpt lat="45.75286" lon="2.96604">
        <ele>976.36</ele>
        <time>2021-08-14T15:18:40Z</time>
      </trkpt>
      <trkpt lat="45.75285" lon="2.96634">
        <ele>976.36</ele>
        <time>2021-08-14T15:18:45Z</time>
      </trkpt>
      <trkpt lat="45.75285" lon="2.96654">
        <ele>976.36</ele>
        <time>2021-08-14T15:18:48Z</time>
      </trkpt>
      <trkpt lat="45.75281" lon="2.96707">
        <ele>976.36</ele>
        <time>2021-08-14T15:18:56Z</time>
      </trkpt>
      <trkpt lat="45.75286" lon="2.96747">
        <ele>975.39</ele>
        <time>2021-08-14T15:19:03Z</time>
      </trkpt>
      <trkpt lat="45.75283" lon="2.96772">
        <ele>975.39</ele>
        <time>2021-08-14T15:19:08Z</time>
      </trkpt>
      <trkpt lat="45.75281" lon="2.96777">
        <ele>975.39</ele>
        <time>2021-08-14T15:19:13Z</time>
      </trkpt>
      <trkpt lat="45.7528" lon="2.96779">
        <ele>976.84</ele>
        <time>2021-08-14T15:19:17Z</time>
      </trkpt>
      <trkpt lat="45.75274" lon="2.96794">
        <ele>976.84</ele>
        <time>2021-08-14T15:19:23Z</time>
      </trkpt>
      <trkpt lat="45.7527" lon="2.96794">
        <ele>976.84</ele>
        <time>2021-08-14T15:19:24Z</time>
      </trkpt>
      <trkpt lat="45.75266" lon="2.96792">
        <ele>976.84</ele>
        <time>2021-08-14T15:19:25Z</time>
      </trkpt>
      <trkpt lat="45.75256" lon="2.96788">
        <ele>974.43</ele>
        <time>2021-08-14T15:19:27Z</time>
      </trkpt>
      <trkpt lat="45.75251" lon="2.96787">
        <ele>974.43</ele>
        <time>2021-08-14T15:19:28Z</time>
      </trkpt>
      <trkpt lat="45.75245" lon="2.96787">
        <ele>973.47</ele>
        <time>2021-08-14T15:19:29Z</time>
      </trkpt>
      <trkpt lat="45.75223" lon="2.9679">
        <ele>972.99</ele>
        <time>2021-08-14T15:19:34Z</time>
      </trkpt>
      <trkpt lat="45.75222" lon="2.96793">
        <ele>972.99</ele>
        <time>2021-08-14T15:19:41Z</time>
      </trkpt>
      <trkpt lat="45.75223" lon="2.96793">
        <ele>972.99</ele>
        <time>2021-08-14T15:19:51Z</time>
      </trkpt>
      <trkpt lat="45.75223" lon="2.96793">
        <ele>972.51</ele>
        <time>2021-08-14T15:20:02Z</time>
      </trkpt>
      <trkpt lat="45.7522" lon="2.96794">
        <ele>972.51</ele>
        <time>2021-08-14T15:20:15Z</time>
      </trkpt>
      <trkpt lat="45.75202" lon="2.96796">
        <ele>971.55</ele>
        <time>2021-08-14T15:20:21Z</time>
      </trkpt>
      <trkpt lat="45.75193" lon="2.96797">
        <ele>971.07</ele>
        <time>2021-08-14T15:20:23Z</time>
      </trkpt>
      <trkpt lat="45.75152" lon="2.96806">
        <ele>970.59</ele>
        <time>2021-08-14T15:20:31Z</time>
      </trkpt>
      <trkpt lat="45.7512" lon="2.96815">
        <ele>970.11</ele>
        <time>2021-08-14T15:20:37Z</time>
      </trkpt>
      <trkpt lat="45.75067" lon="2.9683">
        <ele>969.15</ele>
        <time>2021-08-14T15:20:46Z</time>
      </trkpt>
      <trkpt lat="45.75014" lon="2.96845">
        <ele>968.18</ele>
        <time>2021-08-14T15:20:56Z</time>
      </trkpt>
      <trkpt lat="45.74951" lon="2.96861">
        <ele>967.7</ele>
        <time>2021-08-14T15:21:07Z</time>
      </trkpt>
      <trkpt lat="45.74911" lon="2.96872">
        <ele>966.74</ele>
        <time>2021-08-14T15:21:14Z</time>
      </trkpt>
      <trkpt lat="45.74877" lon="2.96882">
        <ele>966.26</ele>
        <time>2021-08-14T15:21:20Z</time>
      </trkpt>
      <trkpt lat="45.74872" lon="2.96883">
        <ele>966.26</ele>
        <time>2021-08-14T15:21:21Z</time>
      </trkpt>
      <trkpt lat="45.74866" lon="2.96885">
        <ele>966.26</ele>
        <time>2021-08-14T15:21:22Z</time>
      </trkpt>
      <trkpt lat="45.74829" lon="2.96901">
        <ele>966.26</ele>
        <time>2021-08-14T15:21:29Z</time>
      </trkpt>
      <trkpt lat="45.74803" lon="2.96911">
        <ele>966.26</ele>
        <time>2021-08-14T15:21:34Z</time>
      </trkpt>
      <trkpt lat="45.74778" lon="2.96925">
        <ele>966.26</ele>
        <time>2021-08-14T15:21:39Z</time>
      </trkpt>
      <trkpt lat="45.74738" lon="2.96944">
        <ele>966.26</ele>
        <time>2021-08-14T15:21:47Z</time>
      </trkpt>
      <trkpt lat="45.74702" lon="2.96963">
        <ele>966.26</ele>
        <time>2021-08-14T15:21:56Z</time>
      </trkpt>
      <trkpt lat="45.74678" lon="2.96975">
        <ele>968.18</ele>
        <time>2021-08-14T15:22:04Z</time>
      </trkpt>
      <trkpt lat="45.74648" lon="2.96989">
        <ele>969.15</ele>
        <time>2021-08-14T15:22:13Z</time>
      </trkpt>
      <trkpt lat="45.74628" lon="2.97">
        <ele>969.63</ele>
        <time>2021-08-14T15:22:19Z</time>
      </trkpt>
      <trkpt lat="45.74615" lon="2.97007">
        <ele>970.11</ele>
        <time>2021-08-14T15:22:25Z</time>
      </trkpt>
      <trkpt lat="45.74613" lon="2.97008">
        <ele>970.11</ele>
        <time>2021-08-14T15:22:35Z</time>
      </trkpt>
      <trkpt lat="45.74612" lon="2.97008">
        <ele>969.63</ele>
        <time>2021-08-14T15:22:55Z</time>
      </trkpt>
      <trkpt lat="45.74612" lon="2.97008">
        <ele>969.63</ele>
        <time>2021-08-14T15:23:14Z</time>
      </trkpt>
      <trkpt lat="45.74612" lon="2.97008">
        <ele>969.63</ele>
        <time>2021-08-14T15:23:21Z</time>
      </trkpt>
      <trkpt lat="45.74612" lon="2.9701">
        <ele>969.15</ele>
        <time>2021-08-14T15:23:41Z</time>
      </trkpt>
      <trkpt lat="45.74612" lon="2.9701">
        <ele>969.15</ele>
        <time>2021-08-14T15:23:55Z</time>
      </trkpt>
      <trkpt lat="45.74612" lon="2.97009">
        <ele>969.63</ele>
        <time>2021-08-14T15:24:08Z</time>
      </trkpt>
      <trkpt lat="45.74611" lon="2.9701">
        <ele>969.15</ele>
        <time>2021-08-14T15:24:16Z</time>
      </trkpt>
      <trkpt lat="45.74611" lon="2.97012">
        <ele>969.15</ele>
        <time>2021-08-14T15:24:17Z</time>
      </trkpt>
      <trkpt lat="45.74609" lon="2.97015">
        <ele>969.15</ele>
        <time>2021-08-14T15:24:18Z</time>
      </trkpt>
      <trkpt lat="45.74604" lon="2.97024">
        <ele>969.15</ele>
        <time>2021-08-14T15:24:21Z</time>
      </trkpt>
      <trkpt lat="45.746" lon="2.97024">
        <ele>969.15</ele>
        <time>2021-08-14T15:24:22Z</time>
      </trkpt>
      <trkpt lat="45.74597" lon="2.97023">
        <ele>969.15</ele>
        <time>2021-08-14T15:24:23Z</time>
      </trkpt>
      <trkpt lat="45.74595" lon="2.97022">
        <ele>969.15</ele>
        <time>2021-08-14T15:24:24Z</time>
      </trkpt>
      <trkpt lat="45.74593" lon="2.97021">
        <ele>969.15</ele>
        <time>2021-08-14T15:24:25Z</time>
      </trkpt>
      <trkpt lat="45.7459" lon="2.9702">
        <ele>969.15</ele>
        <time>2021-08-14T15:24:26Z</time>
      </trkpt>
      <trkpt lat="45.74589" lon="2.97018">
        <ele>969.15</ele>
        <time>2021-08-14T15:24:27Z</time>
      </trkpt>
      <trkpt lat="45.74575" lon="2.97013">
        <ele>970.11</ele>
        <time>2021-08-14T15:24:34Z</time>
      </trkpt>
      <trkpt lat="45.74551" lon="2.97004">
        <ele>971.07</ele>
        <time>2021-08-14T15:24:44Z</time>
      </trkpt>
      <trkpt lat="45.74529" lon="2.96996">
        <ele>972.51</ele>
        <time>2021-08-14T15:24:53Z</time>
      </trkpt>
      <trkpt lat="45.74511" lon="2.96987">
        <ele>973.47</ele>
        <time>2021-08-14T15:25:02Z</time>
      </trkpt>
      <trkpt lat="45.74496" lon="2.96981">
        <ele>973.95</ele>
        <time>2021-08-14T15:25:09Z</time>
      </trkpt>
      <trkpt lat="45.74474" lon="2.96972">
        <ele>974.91</ele>
        <time>2021-08-14T15:25:18Z</time>
      </trkpt>
      <trkpt lat="45.74448" lon="2.96961">
        <ele>975.88</ele>
        <time>2021-08-14T15:25:28Z</time>
      </trkpt>
      <trkpt lat="45.74425" lon="2.96949">
        <ele>976.84</ele>
        <time>2021-08-14T15:25:37Z</time>
      </trkpt>
      <trkpt lat="45.74405" lon="2.96938">
        <ele>977.32</ele>
        <time>2021-08-14T15:25:45Z</time>
      </trkpt>
      <trkpt lat="45.74397" lon="2.96933">
        <ele>977.8</ele>
        <time>2021-08-14T15:25:49Z</time>
      </trkpt>
      <trkpt lat="45.74397" lon="2.96928">
        <ele>978.28</ele>
        <time>2021-08-14T15:25:54Z</time>
      </trkpt>
      <trkpt lat="45.74395" lon="2.96926">
        <ele>978.28</ele>
        <time>2021-08-14T15:26:06Z</time>
      </trkpt>
      <trkpt lat="45.74395" lon="2.96926">
        <ele>978.28</ele>
        <time>2021-08-14T15:26:24Z</time>
      </trkpt>
      <trkpt lat="45.74395" lon="2.96928">
        <ele>978.28</ele>
        <time>2021-08-14T15:26:46Z</time>
      </trkpt>
      <trkpt lat="45.74393" lon="2.96926">
        <ele>977.8</ele>
        <time>2021-08-14T15:27:09Z</time>
      </trkpt>
      <trkpt lat="45.74392" lon="2.96925">
        <ele>977.8</ele>
        <time>2021-08-14T15:27:19Z</time>
      </trkpt>
      <trkpt lat="45.74393" lon="2.96924">
        <ele>977.8</ele>
        <time>2021-08-14T15:27:28Z</time>
      </trkpt>
      <trkpt lat="45.74393" lon="2.96924">
        <ele>977.8</ele>
        <time>2021-08-14T15:27:54Z</time>
      </trkpt>
      <trkpt lat="45.74394" lon="2.96924">
        <ele>977.32</ele>
        <time>2021-08-14T15:28:22Z</time>
      </trkpt>
      <trkpt lat="45.74395" lon="2.96924">
        <ele>977.32</ele>
        <time>2021-08-14T15:28:48Z</time>
      </trkpt>
      <trkpt lat="45.74391" lon="2.96929">
        <ele>977.32</ele>
        <time>2021-08-14T15:29:15Z</time>
      </trkpt>
      <trkpt lat="45.7439" lon="2.96929">
        <ele>977.32</ele>
        <time>2021-08-14T15:29:17Z</time>
      </trkpt>
      <trkpt lat="45.74388" lon="2.9693">
        <ele>977.32</ele>
        <time>2021-08-14T15:29:18Z</time>
      </trkpt>
      <trkpt lat="45.74386" lon="2.96931">
        <ele>977.32</ele>
        <time>2021-08-14T15:29:19Z</time>
      </trkpt>
      <trkpt lat="45.74384" lon="2.96932">
        <ele>977.32</ele>
        <time>2021-08-14T15:29:20Z</time>
      </trkpt>
      <trkpt lat="45.74382" lon="2.96931">
        <ele>977.32</ele>
        <time>2021-08-14T15:29:21Z</time>
      </trkpt>
      <trkpt lat="45.74379" lon="2.9693">
        <ele>977.32</ele>
        <time>2021-08-14T15:29:22Z</time>
      </trkpt>
      <trkpt lat="45.74377" lon="2.96928">
        <ele>977.32</ele>
        <time>2021-08-14T15:29:23Z</time>
      </trkpt>
      <trkpt lat="45.74348" lon="2.9692">
        <ele>977.32</ele>
        <time>2021-08-14T15:29:31Z</time>
      </trkpt>
      <trkpt lat="45.7434" lon="2.96918">
        <ele>977.32</ele>
        <time>2021-08-14T15:29:33Z</time>
      </trkpt>
      <trkpt lat="45.74306" lon="2.96898">
        <ele>977.8</ele>
        <time>2021-08-14T15:29:42Z</time>
      </trkpt>
      <trkpt lat="45.74283" lon="2.96882">
        <ele>972.99</ele>
        <time>2021-08-14T15:29:48Z</time>
      </trkpt>
      <trkpt lat="45.7428" lon="2.9688">
        <ele>982.6</ele>
        <time>2021-08-14T15:29:49Z</time>
      </trkpt>
      <trkpt lat="45.74277" lon="2.96877">
        <ele>978.28</ele>
        <time>2021-08-14T15:29:50Z</time>
      </trkpt>
      <trkpt lat="45.74252" lon="2.96851">
        <ele>978.28</ele>
        <time>2021-08-14T15:29:58Z</time>
      </trkpt>
      <trkpt lat="45.7422" lon="2.96826">
        <ele>978.28</ele>
        <time>2021-08-14T15:30:07Z</time>
      </trkpt>
      <trkpt lat="45.74213" lon="2.9682">
        <ele>979.72</ele>
        <time>2021-08-14T15:30:09Z</time>
      </trkpt>
      <trkpt lat="45.74178" lon="2.96793">
        <ele>980.68</ele>
        <time>2021-08-14T15:30:19Z</time>
      </trkpt>
      <trkpt lat="45.74149" lon="2.96777">
        <ele>980.68</ele>
        <time>2021-08-14T15:30:27Z</time>
      </trkpt>
      <trkpt lat="45.74136" lon="2.96757">
        <ele>981.16</ele>
        <time>2021-08-14T15:30:32Z</time>
      </trkpt>
      <trkpt lat="45.74123" lon="2.96727">
        <ele>982.12</ele>
        <time>2021-08-14T15:30:40Z</time>
      </trkpt>
      <trkpt lat="45.7411" lon="2.96696">
        <ele>983.57</ele>
        <time>2021-08-14T15:30:49Z</time>
      </trkpt>
      <trkpt lat="45.74099" lon="2.96676">
        <ele>984.53</ele>
        <time>2021-08-14T15:30:56Z</time>
      </trkpt>
      <trkpt lat="45.7409" lon="2.96657">
        <ele>985.97</ele>
        <time>2021-08-14T15:31:03Z</time>
      </trkpt>
      <trkpt lat="45.74077" lon="2.96633">
        <ele>986.45</ele>
        <time>2021-08-14T15:31:12Z</time>
      </trkpt>
      <trkpt lat="45.74066" lon="2.96627">
        <ele>987.41</ele>
        <time>2021-08-14T15:31:19Z</time>
      </trkpt>
      <trkpt lat="45.74052" lon="2.96627">
        <ele>988.85</ele>
        <time>2021-08-14T15:31:27Z</time>
      </trkpt>
      <trkpt lat="45.74035" lon="2.96628">
        <ele>989.81</ele>
        <time>2021-08-14T15:31:36Z</time>
      </trkpt>
      <trkpt lat="45.74019" lon="2.96625">
        <ele>991.26</ele>
        <time>2021-08-14T15:31:45Z</time>
      </trkpt>
      <trkpt lat="45.74" lon="2.96622">
        <ele>991.74</ele>
        <time>2021-08-14T15:31:55Z</time>
      </trkpt>
      <trkpt lat="45.73985" lon="2.96615">
        <ele>992.7</ele>
        <time>2021-08-14T15:32:04Z</time>
      </trkpt>
      <trkpt lat="45.73982" lon="2.96613">
        <ele>993.18</ele>
        <time>2021-08-14T15:32:06Z</time>
      </trkpt>
      <trkpt lat="45.73981" lon="2.96612">
        <ele>993.18</ele>
        <time>2021-08-14T15:32:07Z</time>
      </trkpt>
      <trkpt lat="45.73979" lon="2.96612">
        <ele>993.66</ele>
        <time>2021-08-14T15:32:08Z</time>
      </trkpt>
      <trkpt lat="45.73978" lon="2.96612">
        <ele>993.66</ele>
        <time>2021-08-14T15:32:09Z</time>
      </trkpt>
      <trkpt lat="45.73977" lon="2.96611">
        <ele>993.66</ele>
        <time>2021-08-14T15:32:10Z</time>
      </trkpt>
      <trkpt lat="45.73969" lon="2.96604">
        <ele>994.62</ele>
        <time>2021-08-14T15:32:19Z</time>
      </trkpt>
      <trkpt lat="45.73968" lon="2.96604">
        <ele>995.58</ele>
        <time>2021-08-14T15:32:20Z</time>
      </trkpt>
      <trkpt lat="45.73959" lon="2.96598">
        <ele>996.06</ele>
        <time>2021-08-14T15:32:27Z</time>
      </trkpt>
      <trkpt lat="45.73947" lon="2.96592">
        <ele>997.99</ele>
        <time>2021-08-14T15:32:36Z</time>
      </trkpt>
      <trkpt lat="45.73943" lon="2.9659">
        <ele>998.47</ele>
        <time>2021-08-14T15:32:40Z</time>
      </trkpt>
      <trkpt lat="45.73941" lon="2.9659">
        <ele>998.47</ele>
        <time>2021-08-14T15:32:41Z</time>
      </trkpt>
      <trkpt lat="45.7394" lon="2.96589">
        <ele>998.95</ele>
        <time>2021-08-14T15:32:42Z</time>
      </trkpt>
      <trkpt lat="45.73939" lon="2.96589">
        <ele>998.95</ele>
        <time>2021-08-14T15:32:43Z</time>
      </trkpt>
      <trkpt lat="45.73937" lon="2.96589">
        <ele>999.43</ele>
        <time>2021-08-14T15:32:44Z</time>
      </trkpt>
      <trkpt lat="45.73936" lon="2.96589">
        <ele>999.43</ele>
        <time>2021-08-14T15:32:45Z</time>
      </trkpt>
      <trkpt lat="45.73921" lon="2.96592">
        <ele>1000.87</ele>
        <time>2021-08-14T15:32:54Z</time>
      </trkpt>
      <trkpt lat="45.73902" lon="2.96595">
        <ele>1000.87</ele>
        <time>2021-08-14T15:33:01Z</time>
      </trkpt>
      <trkpt lat="45.7388" lon="2.96592">
        <ele>1000.87</ele>
        <time>2021-08-14T15:33:08Z</time>
      </trkpt>
      <trkpt lat="45.73854" lon="2.96584">
        <ele>1001.35</ele>
        <time>2021-08-14T15:33:15Z</time>
      </trkpt>
      <trkpt lat="45.73816" lon="2.96564">
        <ele>1002.31</ele>
        <time>2021-08-14T15:33:25Z</time>
      </trkpt>
      <trkpt lat="45.7379" lon="2.96547">
        <ele>1002.31</ele>
        <time>2021-08-14T15:33:32Z</time>
      </trkpt>
      <trkpt lat="45.73771" lon="2.96532">
        <ele>1002.79</ele>
        <time>2021-08-14T15:33:38Z</time>
      </trkpt>
      <trkpt lat="45.73751" lon="2.96516">
        <ele>1003.27</ele>
        <time>2021-08-14T15:33:44Z</time>
      </trkpt>
      <trkpt lat="45.73729" lon="2.96502">
        <ele>1003.75</ele>
        <time>2021-08-14T15:33:50Z</time>
      </trkpt>
      <trkpt lat="45.73701" lon="2.96483">
        <ele>1004.72</ele>
        <time>2021-08-14T15:33:58Z</time>
      </trkpt>
      <trkpt lat="45.73672" lon="2.96467">
        <ele>1005.2</ele>
        <time>2021-08-14T15:34:06Z</time>
      </trkpt>
      <trkpt lat="45.73659" lon="2.9646">
        <ele>1005.2</ele>
        <time>2021-08-14T15:34:09Z</time>
      </trkpt>
      <trkpt lat="45.73619" lon="2.96434">
        <ele>1005.68</ele>
        <time>2021-08-14T15:34:19Z</time>
      </trkpt>
      <trkpt lat="45.73582" lon="2.9641">
        <ele>1006.16</ele>
        <time>2021-08-14T15:34:29Z</time>
      </trkpt>
      <trkpt lat="45.73551" lon="2.9639">
        <ele>1007.12</ele>
        <time>2021-08-14T15:34:38Z</time>
      </trkpt>
      <trkpt lat="45.73524" lon="2.96377">
        <ele>1007.6</ele>
        <time>2021-08-14T15:34:45Z</time>
      </trkpt>
      <trkpt lat="45.73488" lon="2.96361">
        <ele>1007.6</ele>
        <time>2021-08-14T15:34:54Z</time>
      </trkpt>
      <trkpt lat="45.73481" lon="2.96358">
        <ele>1007.6</ele>
        <time>2021-08-14T15:34:56Z</time>
      </trkpt>
      <trkpt lat="45.73477" lon="2.96357">
        <ele>1007.6</ele>
        <time>2021-08-14T15:34:57Z</time>
      </trkpt>
      <trkpt lat="45.7345" lon="2.96342">
        <ele>1008.08</ele>
        <time>2021-08-14T15:35:04Z</time>
      </trkpt>
      <trkpt lat="45.73423" lon="2.9633">
        <ele>1008.08</ele>
        <time>2021-08-14T15:35:11Z</time>
      </trkpt>
      <trkpt lat="45.734" lon="2.96321">
        <ele>1009.04</ele>
        <time>2021-08-14T15:35:17Z</time>
      </trkpt>
      <trkpt lat="45.73372" lon="2.96309">
        <ele>1009.52</ele>
        <time>2021-08-14T15:35:24Z</time>
      </trkpt>
      <trkpt lat="45.73346" lon="2.96297">
        <ele>1010.96</ele>
        <time>2021-08-14T15:35:31Z</time>
      </trkpt>
      <trkpt lat="45.73315" lon="2.96285">
        <ele>1011.44</ele>
        <time>2021-08-14T15:35:39Z</time>
      </trkpt>
      <trkpt lat="45.73285" lon="2.96266">
        <ele>1012.41</ele>
        <time>2021-08-14T15:35:47Z</time>
      </trkpt>
      <trkpt lat="45.73263" lon="2.96251">
        <ele>1013.37</ele>
        <time>2021-08-14T15:35:55Z</time>
      </trkpt>
      <trkpt lat="45.73245" lon="2.96239">
        <ele>1014.33</ele>
        <time>2021-08-14T15:36:02Z</time>
      </trkpt>
      <trkpt lat="45.73223" lon="2.96223">
        <ele>1015.29</ele>
        <time>2021-08-14T15:36:10Z</time>
      </trkpt>
      <trkpt lat="45.73201" lon="2.96208">
        <ele>1015.77</ele>
        <time>2021-08-14T15:36:18Z</time>
      </trkpt>
      <trkpt lat="45.73183" lon="2.96193">
        <ele>1016.73</ele>
        <time>2021-08-14T15:36:25Z</time>
      </trkpt>
      <trkpt lat="45.7316" lon="2.96178">
        <ele>1018.17</ele>
        <time>2021-08-14T15:36:34Z</time>
      </trkpt>
      <trkpt lat="45.73145" lon="2.96168">
        <ele>1018.65</ele>
        <time>2021-08-14T15:36:40Z</time>
      </trkpt>
      <trkpt lat="45.73132" lon="2.96162">
        <ele>1019.62</ele>
        <time>2021-08-14T15:36:47Z</time>
      </trkpt>
      <trkpt lat="45.7312" lon="2.9616">
        <ele>1020.58</ele>
        <time>2021-08-14T15:36:55Z</time>
      </trkpt>
      <trkpt lat="45.73102" lon="2.96158">
        <ele>1021.54</ele>
        <time>2021-08-14T15:37:05Z</time>
      </trkpt>
      <trkpt lat="45.73084" lon="2.96148">
        <ele>1022.98</ele>
        <time>2021-08-14T15:37:15Z</time>
      </trkpt>
      <trkpt lat="45.73073" lon="2.96142">
        <ele>1023.94</ele>
        <time>2021-08-14T15:37:23Z</time>
      </trkpt>
      <trkpt lat="45.73072" lon="2.96141">
        <ele>1024.42</ele>
        <time>2021-08-14T15:37:24Z</time>
      </trkpt>
      <trkpt lat="45.73071" lon="2.96139">
        <ele>1024.42</ele>
        <time>2021-08-14T15:37:25Z</time>
      </trkpt>
      <trkpt lat="45.73063" lon="2.96132">
        <ele>1024.9</ele>
        <time>2021-08-14T15:37:31Z</time>
      </trkpt>
      <trkpt lat="45.73056" lon="2.96125">
        <ele>1025.86</ele>
        <time>2021-08-14T15:37:37Z</time>
      </trkpt>
      <trkpt lat="45.73046" lon="2.96118">
        <ele>1027.31</ele>
        <time>2021-08-14T15:37:44Z</time>
      </trkpt>
      <trkpt lat="45.73041" lon="2.96113">
        <ele>1027.79</ele>
        <time>2021-08-14T15:37:49Z</time>
      </trkpt>
      <trkpt lat="45.73036" lon="2.96107">
        <ele>1028.27</ele>
        <time>2021-08-14T15:37:53Z</time>
      </trkpt>
      <trkpt lat="45.73028" lon="2.96098">
        <ele>1029.23</ele>
        <time>2021-08-14T15:38:00Z</time>
      </trkpt>
      <trkpt lat="45.73027" lon="2.96097">
        <ele>1029.71</ele>
        <time>2021-08-14T15:38:01Z</time>
      </trkpt>
      <trkpt lat="45.73016" lon="2.96086">
        <ele>1030.67</ele>
        <time>2021-08-14T15:38:10Z</time>
      </trkpt>
      <trkpt lat="45.73015" lon="2.96084">
        <ele>1030.67</ele>
        <time>2021-08-14T15:38:11Z</time>
      </trkpt>
      <trkpt lat="45.73013" lon="2.96083">
        <ele>1030.67</ele>
        <time>2021-08-14T15:38:12Z</time>
      </trkpt>
      <trkpt lat="45.73009" lon="2.96073">
        <ele>1032.11</ele>
        <time>2021-08-14T15:38:18Z</time>
      </trkpt>
      <trkpt lat="45.73008" lon="2.96072">
        <ele>1032.11</ele>
        <time>2021-08-14T15:38:19Z</time>
      </trkpt>
      <trkpt lat="45.73005" lon="2.96062">
        <ele>1032.59</ele>
        <time>2021-08-14T15:38:25Z</time>
      </trkpt>
      <trkpt lat="45.73" lon="2.96053">
        <ele>1033.55</ele>
        <time>2021-08-14T15:38:30Z</time>
      </trkpt>
      <trkpt lat="45.72996" lon="2.96038">
        <ele>1034.52</ele>
        <time>2021-08-14T15:38:38Z</time>
      </trkpt>
      <trkpt lat="45.72989" lon="2.96025">
        <ele>1035.48</ele>
        <time>2021-08-14T15:38:45Z</time>
      </trkpt>
      <trkpt lat="45.72988" lon="2.96021">
        <ele>1035.96</ele>
        <time>2021-08-14T15:38:47Z</time>
      </trkpt>
      <trkpt lat="45.72986" lon="2.96019">
        <ele>1035.96</ele>
        <time>2021-08-14T15:38:48Z</time>
      </trkpt>
      <trkpt lat="45.72985" lon="2.96018">
        <ele>1036.44</ele>
        <time>2021-08-14T15:38:49Z</time>
      </trkpt>
      <trkpt lat="45.72979" lon="2.96007">
        <ele>1037.4</ele>
        <time>2021-08-14T15:38:56Z</time>
      </trkpt>
      <trkpt lat="45.72968" lon="2.95994">
        <ele>1038.84</ele>
        <time>2021-08-14T15:39:06Z</time>
      </trkpt>
      <trkpt lat="45.7296" lon="2.95985">
        <ele>1040.28</ele>
        <time>2021-08-14T15:39:14Z</time>
      </trkpt>
      <trkpt lat="45.72952" lon="2.95978">
        <ele>1041.25</ele>
        <time>2021-08-14T15:39:21Z</time>
      </trkpt>
      <trkpt lat="45.72951" lon="2.95977">
        <ele>1041.25</ele>
        <time>2021-08-14T15:39:22Z</time>
      </trkpt>
      <trkpt lat="45.7295" lon="2.95976">
        <ele>1041.25</ele>
        <time>2021-08-14T15:39:23Z</time>
      </trkpt>
      <trkpt lat="45.72948" lon="2.95975">
        <ele>1041.73</ele>
        <time>2021-08-14T15:39:24Z</time>
      </trkpt>
      <trkpt lat="45.72947" lon="2.95974">
        <ele>1041.73</ele>
        <time>2021-08-14T15:39:25Z</time>
      </trkpt>
      <trkpt lat="45.7294" lon="2.95963">
        <ele>1042.69</ele>
        <time>2021-08-14T15:39:33Z</time>
      </trkpt>
      <trkpt lat="45.72938" lon="2.9596">
        <ele>1042.69</ele>
        <time>2021-08-14T15:39:35Z</time>
      </trkpt>
      <trkpt lat="45.72931" lon="2.95953">
        <ele>1043.65</ele>
        <time>2021-08-14T15:39:42Z</time>
      </trkpt>
      <trkpt lat="45.72923" lon="2.95947">
        <ele>1045.09</ele>
        <time>2021-08-14T15:39:48Z</time>
      </trkpt>
      <trkpt lat="45.72917" lon="2.95938">
        <ele>1046.05</ele>
        <time>2021-08-14T15:39:55Z</time>
      </trkpt>
      <trkpt lat="45.72911" lon="2.9593">
        <ele>1047.49</ele>
        <time>2021-08-14T15:40:02Z</time>
      </trkpt>
      <trkpt lat="45.72903" lon="2.95923">
        <ele>1047.97</ele>
        <time>2021-08-14T15:40:10Z</time>
      </trkpt>
      <trkpt lat="45.729" lon="2.95921">
        <ele>1048.45</ele>
        <time>2021-08-14T15:40:12Z</time>
      </trkpt>
      <trkpt lat="45.72897" lon="2.95918">
        <ele>1048.94</ele>
        <time>2021-08-14T15:40:15Z</time>
      </trkpt>
      <trkpt lat="45.72889" lon="2.9591">
        <ele>1049.42</ele>
        <time>2021-08-14T15:40:23Z</time>
      </trkpt>
      <trkpt lat="45.72879" lon="2.95899">
        <ele>1050.38</ele>
        <time>2021-08-14T15:40:31Z</time>
      </trkpt>
      <trkpt lat="45.72877" lon="2.95896">
        <ele>1050.86</ele>
        <time>2021-08-14T15:40:33Z</time>
      </trkpt>
      <trkpt lat="45.72876" lon="2.95895">
        <ele>1050.86</ele>
        <time>2021-08-14T15:40:34Z</time>
      </trkpt>
      <trkpt lat="45.72865" lon="2.95883">
        <ele>1051.82</ele>
        <time>2021-08-14T15:40:42Z</time>
      </trkpt>
      <trkpt lat="45.72862" lon="2.95879">
        <ele>1052.3</ele>
        <time>2021-08-14T15:40:45Z</time>
      </trkpt>
      <trkpt lat="45.72861" lon="2.95877">
        <ele>1052.3</ele>
        <time>2021-08-14T15:40:46Z</time>
      </trkpt>
      <trkpt lat="45.7286" lon="2.95875">
        <ele>1052.3</ele>
        <time>2021-08-14T15:40:47Z</time>
      </trkpt>
      <trkpt lat="45.72855" lon="2.95864">
        <ele>1053.26</ele>
        <time>2021-08-14T15:40:53Z</time>
      </trkpt>
      <trkpt lat="45.72851" lon="2.95856">
        <ele>1054.22</ele>
        <time>2021-08-14T15:40:58Z</time>
      </trkpt>
      <trkpt lat="45.7285" lon="2.95853">
        <ele>1054.22</ele>
        <time>2021-08-14T15:40:59Z</time>
      </trkpt>
      <trkpt lat="45.72849" lon="2.95851">
        <ele>1054.7</ele>
        <time>2021-08-14T15:41:00Z</time>
      </trkpt>
      <trkpt lat="45.72848" lon="2.95849">
        <ele>1054.7</ele>
        <time>2021-08-14T15:41:01Z</time>
      </trkpt>
      <trkpt lat="45.72847" lon="2.95847">
        <ele>1054.7</ele>
        <time>2021-08-14T15:41:02Z</time>
      </trkpt>
      <trkpt lat="45.72847" lon="2.95845">
        <ele>1054.7</ele>
        <time>2021-08-14T15:41:03Z</time>
      </trkpt>
      <trkpt lat="45.72846" lon="2.95842">
        <ele>1054.7</ele>
        <time>2021-08-14T15:41:04Z</time>
      </trkpt>
      <trkpt lat="45.72845" lon="2.9584">
        <ele>1055.18</ele>
        <time>2021-08-14T15:41:05Z</time>
      </trkpt>
      <trkpt lat="45.72844" lon="2.95838">
        <ele>1055.18</ele>
        <time>2021-08-14T15:41:06Z</time>
      </trkpt>
      <trkpt lat="45.72843" lon="2.95836">
        <ele>1055.18</ele>
        <time>2021-08-14T15:41:07Z</time>
      </trkpt>
      <trkpt lat="45.72836" lon="2.95821">
        <ele>1056.15</ele>
        <time>2021-08-14T15:41:14Z</time>
      </trkpt>
      <trkpt lat="45.72828" lon="2.95807">
        <ele>1057.59</ele>
        <time>2021-08-14T15:41:23Z</time>
      </trkpt>
      <trkpt lat="45.72821" lon="2.95794">
        <ele>1058.07</ele>
        <time>2021-08-14T15:41:31Z</time>
      </trkpt>
      <trkpt lat="45.72812" lon="2.95783">
        <ele>1059.03</ele>
        <time>2021-08-14T15:41:38Z</time>
      </trkpt>
      <trkpt lat="45.72804" lon="2.9577">
        <ele>1059.51</ele>
        <time>2021-08-14T15:41:44Z</time>
      </trkpt>
      <trkpt lat="45.72802" lon="2.95767">
        <ele>1059.51</ele>
        <time>2021-08-14T15:41:45Z</time>
      </trkpt>
      <trkpt lat="45.72801" lon="2.95766">
        <ele>1060.47</ele>
        <time>2021-08-14T15:41:46Z</time>
      </trkpt>
      <trkpt lat="45.728" lon="2.95763">
        <ele>1060.47</ele>
        <time>2021-08-14T15:41:47Z</time>
      </trkpt>
      <trkpt lat="45.72799" lon="2.95762">
        <ele>1060.47</ele>
        <time>2021-08-14T15:41:48Z</time>
      </trkpt>
      <trkpt lat="45.72797" lon="2.9576">
        <ele>1060.47</ele>
        <time>2021-08-14T15:41:49Z</time>
      </trkpt>
      <trkpt lat="45.72789" lon="2.95747">
        <ele>1060.95</ele>
        <time>2021-08-14T15:41:55Z</time>
      </trkpt>
      <trkpt lat="45.72779" lon="2.95731">
        <ele>1061.43</ele>
        <time>2021-08-14T15:42:02Z</time>
      </trkpt>
      <trkpt lat="45.72775" lon="2.95725">
        <ele>1062.39</ele>
        <time>2021-08-14T15:42:06Z</time>
      </trkpt>
      <trkpt lat="45.72774" lon="2.95723">
        <ele>1062.39</ele>
        <time>2021-08-14T15:42:07Z</time>
      </trkpt>
      <trkpt lat="45.72772" lon="2.95721">
        <ele>1062.39</ele>
        <time>2021-08-14T15:42:08Z</time>
      </trkpt>
      <trkpt lat="45.72771" lon="2.95719">
        <ele>1062.39</ele>
        <time>2021-08-14T15:42:09Z</time>
      </trkpt>
      <trkpt lat="45.72769" lon="2.95717">
        <ele>1062.39</ele>
        <time>2021-08-14T15:42:10Z</time>
      </trkpt>
      <trkpt lat="45.72767" lon="2.95714">
        <ele>1062.87</ele>
        <time>2021-08-14T15:42:11Z</time>
      </trkpt>
      <trkpt lat="45.72764" lon="2.95711">
        <ele>1062.87</ele>
        <time>2021-08-14T15:42:13Z</time>
      </trkpt>
      <trkpt lat="45.72761" lon="2.95708">
        <ele>1062.87</ele>
        <time>2021-08-14T15:42:14Z</time>
      </trkpt>
      <trkpt lat="45.7276" lon="2.95706">
        <ele>1062.87</ele>
        <time>2021-08-14T15:42:15Z</time>
      </trkpt>
      <trkpt lat="45.72759" lon="2.95705">
        <ele>1063.36</ele>
        <time>2021-08-14T15:42:16Z</time>
      </trkpt>
      <trkpt lat="45.72749" lon="2.95692">
        <ele>1063.84</ele>
        <time>2021-08-14T15:42:22Z</time>
      </trkpt>
      <trkpt lat="45.72742" lon="2.95683">
        <ele>1064.32</ele>
        <time>2021-08-14T15:42:26Z</time>
      </trkpt>
      <trkpt lat="45.72741" lon="2.95681">
        <ele>1064.32</ele>
        <time>2021-08-14T15:42:27Z</time>
      </trkpt>
      <trkpt lat="45.72739" lon="2.95678">
        <ele>1064.32</ele>
        <time>2021-08-14T15:42:28Z</time>
      </trkpt>
      <trkpt lat="45.72737" lon="2.95676">
        <ele>1064.32</ele>
        <time>2021-08-14T15:42:29Z</time>
      </trkpt>
      <trkpt lat="45.72735" lon="2.95674">
        <ele>1064.32</ele>
        <time>2021-08-14T15:42:30Z</time>
      </trkpt>
      <trkpt lat="45.72733" lon="2.95671">
        <ele>1064.8</ele>
        <time>2021-08-14T15:42:31Z</time>
      </trkpt>
      <trkpt lat="45.72731" lon="2.95669">
        <ele>1064.8</ele>
        <time>2021-08-14T15:42:32Z</time>
      </trkpt>
      <trkpt lat="45.72715" lon="2.95657">
        <ele>1065.28</ele>
        <time>2021-08-14T15:42:40Z</time>
      </trkpt>
      <trkpt lat="45.72701" lon="2.95652">
        <ele>1065.76</ele>
        <time>2021-08-14T15:42:46Z</time>
      </trkpt>
      <trkpt lat="45.72699" lon="2.95652">
        <ele>1065.76</ele>
        <time>2021-08-14T15:42:47Z</time>
      </trkpt>
      <trkpt lat="45.72697" lon="2.95653">
        <ele>1065.76</ele>
        <time>2021-08-14T15:42:48Z</time>
      </trkpt>
      <trkpt lat="45.72693" lon="2.95652">
        <ele>1065.76</ele>
        <time>2021-08-14T15:42:49Z</time>
      </trkpt>
      <trkpt lat="45.72689" lon="2.95651">
        <ele>1065.76</ele>
        <time>2021-08-14T15:42:50Z</time>
      </trkpt>
      <trkpt lat="45.72687" lon="2.9565">
        <ele>1065.76</ele>
        <time>2021-08-14T15:42:51Z</time>
      </trkpt>
      <trkpt lat="45.72685" lon="2.9565">
        <ele>1065.76</ele>
        <time>2021-08-14T15:42:52Z</time>
      </trkpt>
      <trkpt lat="45.72684" lon="2.9565">
        <ele>1065.76</ele>
        <time>2021-08-14T15:42:53Z</time>
      </trkpt>
      <trkpt lat="45.72682" lon="2.95652">
        <ele>1065.76</ele>
        <time>2021-08-14T15:42:54Z</time>
      </trkpt>
      <trkpt lat="45.7268" lon="2.95653">
        <ele>1065.76</ele>
        <time>2021-08-14T15:42:55Z</time>
      </trkpt>
      <trkpt lat="45.72678" lon="2.95653">
        <ele>1065.76</ele>
        <time>2021-08-14T15:42:56Z</time>
      </trkpt>
      <trkpt lat="45.72675" lon="2.95653">
        <ele>1065.76</ele>
        <time>2021-08-14T15:42:57Z</time>
      </trkpt>
      <trkpt lat="45.72673" lon="2.95653">
        <ele>1065.76</ele>
        <time>2021-08-14T15:42:58Z</time>
      </trkpt>
      <trkpt lat="45.72671" lon="2.95652">
        <ele>1065.76</ele>
        <time>2021-08-14T15:42:59Z</time>
      </trkpt>
      <trkpt lat="45.72669" lon="2.95651">
        <ele>1065.76</ele>
        <time>2021-08-14T15:43:00Z</time>
      </trkpt>
      <trkpt lat="45.72667" lon="2.9565">
        <ele>1065.76</ele>
        <time>2021-08-14T15:43:01Z</time>
      </trkpt>
      <trkpt lat="45.72652" lon="2.95649">
        <ele>1066.24</ele>
        <time>2021-08-14T15:43:07Z</time>
      </trkpt>
      <trkpt lat="45.72636" lon="2.95647">
        <ele>1067.2</ele>
        <time>2021-08-14T15:43:14Z</time>
      </trkpt>
      <trkpt lat="45.7262" lon="2.95645">
        <ele>1067.68</ele>
        <time>2021-08-14T15:43:21Z</time>
      </trkpt>
      <trkpt lat="45.72607" lon="2.9564">
        <ele>1068.64</ele>
        <time>2021-08-14T15:43:27Z</time>
      </trkpt>
      <trkpt lat="45.72588" lon="2.95629">
        <ele>1069.12</ele>
        <time>2021-08-14T15:43:35Z</time>
      </trkpt>
      <trkpt lat="45.72577" lon="2.9562">
        <ele>1070.08</ele>
        <time>2021-08-14T15:43:41Z</time>
      </trkpt>
      <trkpt lat="45.72569" lon="2.95611">
        <ele>1070.57</ele>
        <time>2021-08-14T15:43:47Z</time>
      </trkpt>
      <trkpt lat="45.72549" lon="2.95598">
        <ele>1072.01</ele>
        <time>2021-08-14T15:43:53Z</time>
      </trkpt>
      <trkpt lat="45.72539" lon="2.95588">
        <ele>1072.01</ele>
        <time>2021-08-14T15:43:58Z</time>
      </trkpt>
      <trkpt lat="45.72525" lon="2.95575">
        <ele>1072.97</ele>
        <time>2021-08-14T15:44:05Z</time>
      </trkpt>
      <trkpt lat="45.7251" lon="2.95562">
        <ele>1073.93</ele>
        <time>2021-08-14T15:44:12Z</time>
      </trkpt>
      <trkpt lat="45.72492" lon="2.95546">
        <ele>1074.89</ele>
        <time>2021-08-14T15:44:20Z</time>
      </trkpt>
      <trkpt lat="45.72478" lon="2.95534">
        <ele>1075.85</ele>
        <time>2021-08-14T15:44:26Z</time>
      </trkpt>
      <trkpt lat="45.72464" lon="2.95519">
        <ele>1076.81</ele>
        <time>2021-08-14T15:44:34Z</time>
      </trkpt>
      <trkpt lat="45.7245" lon="2.95508">
        <ele>1077.78</ele>
        <time>2021-08-14T15:44:41Z</time>
      </trkpt>
      <trkpt lat="45.72439" lon="2.95494">
        <ele>1078.74</ele>
        <time>2021-08-14T15:44:49Z</time>
      </trkpt>
      <trkpt lat="45.72423" lon="2.95476">
        <ele>1080.18</ele>
        <time>2021-08-14T15:44:58Z</time>
      </trkpt>
      <trkpt lat="45.72409" lon="2.95459">
        <ele>1081.62</ele>
        <time>2021-08-14T15:45:07Z</time>
      </trkpt>
      <trkpt lat="45.72404" lon="2.9545">
        <ele>1082.1</ele>
        <time>2021-08-14T15:45:12Z</time>
      </trkpt>
      <trkpt lat="45.72396" lon="2.9544">
        <ele>1083.06</ele>
        <time>2021-08-14T15:45:19Z</time>
      </trkpt>
      <trkpt lat="45.72395" lon="2.95439">
        <ele>1083.54</ele>
        <time>2021-08-14T15:45:20Z</time>
      </trkpt>
      <trkpt lat="45.72393" lon="2.95438">
        <ele>1083.54</ele>
        <time>2021-08-14T15:45:21Z</time>
      </trkpt>
      <trkpt lat="45.72392" lon="2.95436">
        <ele>1084.02</ele>
        <time>2021-08-14T15:45:22Z</time>
      </trkpt>
      <trkpt lat="45.72378" lon="2.95418">
        <ele>1085.47</ele>
        <time>2021-08-14T15:45:32Z</time>
      </trkpt>
      <trkpt lat="45.72368" lon="2.95407">
        <ele>1086.91</ele>
        <time>2021-08-14T15:45:39Z</time>
      </trkpt>
      <trkpt lat="45.72359" lon="2.95396">
        <ele>1087.87</ele>
        <time>2021-08-14T15:45:47Z</time>
      </trkpt>
      <trkpt lat="45.72354" lon="2.95385">
        <ele>1088.83</ele>
        <time>2021-08-14T15:45:54Z</time>
      </trkpt>
      <trkpt lat="45.72345" lon="2.95374">
        <ele>1090.27</ele>
        <time>2021-08-14T15:46:01Z</time>
      </trkpt>
      <trkpt lat="45.72335" lon="2.95364">
        <ele>1091.23</ele>
        <time>2021-08-14T15:46:08Z</time>
      </trkpt>
      <trkpt lat="45.72334" lon="2.95363">
        <ele>1091.23</ele>
        <time>2021-08-14T15:46:09Z</time>
      </trkpt>
      <trkpt lat="45.72323" lon="2.95351">
        <ele>1091.71</ele>
        <time>2021-08-14T15:46:18Z</time>
      </trkpt>
      <trkpt lat="45.72315" lon="2.95345">
        <ele>1092.68</ele>
        <time>2021-08-14T15:46:24Z</time>
      </trkpt>
      <trkpt lat="45.72303" lon="2.9533">
        <ele>1093.64</ele>
        <time>2021-08-14T15:46:32Z</time>
      </trkpt>
      <trkpt lat="45.72289" lon="2.95315">
        <ele>1095.08</ele>
        <time>2021-08-14T15:46:41Z</time>
      </trkpt>
      <trkpt lat="45.72287" lon="2.95314">
        <ele>1095.08</ele>
        <time>2021-08-14T15:46:42Z</time>
      </trkpt>
      <trkpt lat="45.72286" lon="2.95312">
        <ele>1095.08</ele>
        <time>2021-08-14T15:46:43Z</time>
      </trkpt>
      <trkpt lat="45.72278" lon="2.95302">
        <ele>1096.04</ele>
        <time>2021-08-14T15:46:49Z</time>
      </trkpt>
      <trkpt lat="45.72277" lon="2.953">
        <ele>1096.04</ele>
        <time>2021-08-14T15:46:50Z</time>
      </trkpt>
      <trkpt lat="45.72275" lon="2.95298">
        <ele>1096.04</ele>
        <time>2021-08-14T15:46:51Z</time>
      </trkpt>
      <trkpt lat="45.72274" lon="2.95297">
        <ele>1096.04</ele>
        <time>2021-08-14T15:46:52Z</time>
      </trkpt>
      <trkpt lat="45.72273" lon="2.95295">
        <ele>1096.04</ele>
        <time>2021-08-14T15:46:53Z</time>
      </trkpt>
      <trkpt lat="45.72272" lon="2.95293">
        <ele>1096.04</ele>
        <time>2021-08-14T15:46:54Z</time>
      </trkpt>
      <trkpt lat="45.72259" lon="2.95275">
        <ele>1097.48</ele>
        <time>2021-08-14T15:47:02Z</time>
      </trkpt>
      <trkpt lat="45.72246" lon="2.95261">
        <ele>1097.96</ele>
        <time>2021-08-14T15:47:09Z</time>
      </trkpt>
      <trkpt lat="45.72228" lon="2.95244">
        <ele>1098.92</ele>
        <time>2021-08-14T15:47:16Z</time>
      </trkpt>
      <trkpt lat="45.72216" lon="2.95226">
        <ele>1099.89</ele>
        <time>2021-08-14T15:47:22Z</time>
      </trkpt>
      <trkpt lat="45.72196" lon="2.9522">
        <ele>1099.89</ele>
        <time>2021-08-14T15:47:28Z</time>
      </trkpt>
      <trkpt lat="45.7218" lon="2.95217">
        <ele>1100.37</ele>
        <time>2021-08-14T15:47:34Z</time>
      </trkpt>
      <trkpt lat="45.72179" lon="2.95217">
        <ele>1100.37</ele>
        <time>2021-08-14T15:47:50Z</time>
      </trkpt>
      <trkpt lat="45.72179" lon="2.95215">
        <ele>1100.37</ele>
        <time>2021-08-14T15:48:06Z</time>
      </trkpt>
      <trkpt lat="45.72179" lon="2.95215">
        <ele>1099.89</ele>
        <time>2021-08-14T15:48:18Z</time>
      </trkpt>
      <trkpt lat="45.72179" lon="2.95217">
        <ele>1099.89</ele>
        <time>2021-08-14T15:48:31Z</time>
      </trkpt>
      <trkpt lat="45.72179" lon="2.95214">
        <ele>1099.89</ele>
        <time>2021-08-14T15:48:36Z</time>
      </trkpt>
      <trkpt lat="45.72178" lon="2.95212">
        <ele>1099.89</ele>
        <time>2021-08-14T15:48:37Z</time>
      </trkpt>
      <trkpt lat="45.72176" lon="2.9521">
        <ele>1099.89</ele>
        <time>2021-08-14T15:48:38Z</time>
      </trkpt>
      <trkpt lat="45.72175" lon="2.95209">
        <ele>1099.89</ele>
        <time>2021-08-14T15:48:39Z</time>
      </trkpt>
      <trkpt lat="45.72173" lon="2.95207">
        <ele>1099.89</ele>
        <time>2021-08-14T15:48:40Z</time>
      </trkpt>
      <trkpt lat="45.72171" lon="2.95206">
        <ele>1099.89</ele>
        <time>2021-08-14T15:48:41Z</time>
      </trkpt>
      <trkpt lat="45.72169" lon="2.95204">
        <ele>1099.89</ele>
        <time>2021-08-14T15:48:42Z</time>
      </trkpt>
      <trkpt lat="45.72167" lon="2.95202">
        <ele>1099.89</ele>
        <time>2021-08-14T15:48:43Z</time>
      </trkpt>
      <trkpt lat="45.72164" lon="2.952">
        <ele>1098.92</ele>
        <time>2021-08-14T15:48:44Z</time>
      </trkpt>
      <trkpt lat="45.72141" lon="2.95182">
        <ele>1097.48</ele>
        <time>2021-08-14T15:48:53Z</time>
      </trkpt>
      <trkpt lat="45.72119" lon="2.95169">
        <ele>1095.56</ele>
        <time>2021-08-14T15:48:59Z</time>
      </trkpt>
      <trkpt lat="45.72113" lon="2.95166">
        <ele>1095.08</ele>
        <time>2021-08-14T15:49:01Z</time>
      </trkpt>
      <trkpt lat="45.72108" lon="2.95164">
        <ele>1094.12</ele>
        <time>2021-08-14T15:49:03Z</time>
      </trkpt>
      <trkpt lat="45.72104" lon="2.95163">
        <ele>1093.16</ele>
        <time>2021-08-14T15:49:04Z</time>
      </trkpt>
      <trkpt lat="45.72089" lon="2.95155">
        <ele>1091.71</ele>
        <time>2021-08-14T15:49:09Z</time>
      </trkpt>
      <trkpt lat="45.72074" lon="2.95145">
        <ele>1090.75</ele>
        <time>2021-08-14T15:49:14Z</time>
      </trkpt>
      <trkpt lat="45.72065" lon="2.9514">
        <ele>1089.31</ele>
        <time>2021-08-14T15:49:17Z</time>
      </trkpt>
      <trkpt lat="45.72061" lon="2.95139">
        <ele>1088.83</ele>
        <time>2021-08-14T15:49:18Z</time>
      </trkpt>
      <trkpt lat="45.72058" lon="2.95136">
        <ele>1088.83</ele>
        <time>2021-08-14T15:49:19Z</time>
      </trkpt>
      <trkpt lat="45.72055" lon="2.95134">
        <ele>1088.35</ele>
        <time>2021-08-14T15:49:20Z</time>
      </trkpt>
      <trkpt lat="45.72051" lon="2.95132">
        <ele>1087.87</ele>
        <time>2021-08-14T15:49:21Z</time>
      </trkpt>
      <trkpt lat="45.72048" lon="2.95129">
        <ele>1087.39</ele>
        <time>2021-08-14T15:49:22Z</time>
      </trkpt>
      <trkpt lat="45.72044" lon="2.95125">
        <ele>1087.39</ele>
        <time>2021-08-14T15:49:23Z</time>
      </trkpt>
      <trkpt lat="45.72022" lon="2.95108">
        <ele>1085.47</ele>
        <time>2021-08-14T15:49:29Z</time>
      </trkpt>
      <trkpt lat="45.72014" lon="2.95102">
        <ele>1084.5</ele>
        <time>2021-08-14T15:49:31Z</time>
      </trkpt>
      <trkpt lat="45.71996" lon="2.95094">
        <ele>1084.02</ele>
        <time>2021-08-14T15:49:36Z</time>
      </trkpt>
      <trkpt lat="45.71977" lon="2.95082">
        <ele>1082.58</ele>
        <time>2021-08-14T15:49:43Z</time>
      </trkpt>
      <trkpt lat="45.71957" lon="2.9507">
        <ele>1081.14</ele>
        <time>2021-08-14T15:49:49Z</time>
      </trkpt>
      <trkpt lat="45.71948" lon="2.95066">
        <ele>1080.18</ele>
        <time>2021-08-14T15:49:51Z</time>
      </trkpt>
      <trkpt lat="45.71917" lon="2.95044">
        <ele>1080.18</ele>
        <time>2021-08-14T15:49:58Z</time>
      </trkpt>
      <trkpt lat="45.71913" lon="2.95041">
        <ele>1079.7</ele>
        <time>2021-08-14T15:49:59Z</time>
      </trkpt>
      <trkpt lat="45.71909" lon="2.95038">
        <ele>1079.7</ele>
        <time>2021-08-14T15:50:00Z</time>
      </trkpt>
      <trkpt lat="45.71904" lon="2.95034">
        <ele>1079.7</ele>
        <time>2021-08-14T15:50:01Z</time>
      </trkpt>
      <trkpt lat="45.71895" lon="2.95028">
        <ele>1079.22</ele>
        <time>2021-08-14T15:50:03Z</time>
      </trkpt>
      <trkpt lat="45.7189" lon="2.95026">
        <ele>1079.22</ele>
        <time>2021-08-14T15:50:04Z</time>
      </trkpt>
      <trkpt lat="45.71884" lon="2.95023">
        <ele>1078.26</ele>
        <time>2021-08-14T15:50:05Z</time>
      </trkpt>
      <trkpt lat="45.71856" lon="2.95005">
        <ele>1077.78</ele>
        <time>2021-08-14T15:50:10Z</time>
      </trkpt>
      <trkpt lat="45.71825" lon="2.94976">
        <ele>1077.78</ele>
        <time>2021-08-14T15:50:16Z</time>
      </trkpt>
      <trkpt lat="45.7182" lon="2.94971">
        <ele>1077.78</ele>
        <time>2021-08-14T15:50:17Z</time>
      </trkpt>
      <trkpt lat="45.71811" lon="2.94961">
        <ele>1077.78</ele>
        <time>2021-08-14T15:50:19Z</time>
      </trkpt>
      <trkpt lat="45.71786" lon="2.94947">
        <ele>1077.78</ele>
        <time>2021-08-14T15:50:25Z</time>
      </trkpt>
      <trkpt lat="45.71767" lon="2.94937">
        <ele>1077.78</ele>
        <time>2021-08-14T15:50:30Z</time>
      </trkpt>
      <trkpt lat="45.71763" lon="2.94935">
        <ele>1077.78</ele>
        <time>2021-08-14T15:50:31Z</time>
      </trkpt>
      <trkpt lat="45.71758" lon="2.94932">
        <ele>1077.78</ele>
        <time>2021-08-14T15:50:32Z</time>
      </trkpt>
      <trkpt lat="45.71753" lon="2.9493">
        <ele>1077.78</ele>
        <time>2021-08-14T15:50:33Z</time>
      </trkpt>
      <trkpt lat="45.71748" lon="2.94927">
        <ele>1077.78</ele>
        <time>2021-08-14T15:50:34Z</time>
      </trkpt>
      <trkpt lat="45.71743" lon="2.94925">
        <ele>1077.78</ele>
        <time>2021-08-14T15:50:35Z</time>
      </trkpt>
      <trkpt lat="45.71738" lon="2.94922">
        <ele>1077.78</ele>
        <time>2021-08-14T15:50:36Z</time>
      </trkpt>
      <trkpt lat="45.71734" lon="2.9492">
        <ele>1077.78</ele>
        <time>2021-08-14T15:50:37Z</time>
      </trkpt>
      <trkpt lat="45.71726" lon="2.94915">
        <ele>1079.22</ele>
        <time>2021-08-14T15:50:39Z</time>
      </trkpt>
      <trkpt lat="45.71696" lon="2.949">
        <ele>1079.7</ele>
        <time>2021-08-14T15:50:46Z</time>
      </trkpt>
      <trkpt lat="45.71671" lon="2.94884">
        <ele>1077.78</ele>
        <time>2021-08-14T15:50:52Z</time>
      </trkpt>
      <trkpt lat="45.71661" lon="2.94879">
        <ele>1076.81</ele>
        <time>2021-08-14T15:50:54Z</time>
      </trkpt>
      <trkpt lat="45.71656" lon="2.94877">
        <ele>1076.33</ele>
        <time>2021-08-14T15:50:55Z</time>
      </trkpt>
      <trkpt lat="45.71651" lon="2.94875">
        <ele>1076.33</ele>
        <time>2021-08-14T15:50:56Z</time>
      </trkpt>
      <trkpt lat="45.71646" lon="2.94874">
        <ele>1075.85</ele>
        <time>2021-08-14T15:50:57Z</time>
      </trkpt>
      <trkpt lat="45.71641" lon="2.94872">
        <ele>1075.37</ele>
        <time>2021-08-14T15:50:58Z</time>
      </trkpt>
      <trkpt lat="45.71637" lon="2.9487">
        <ele>1075.37</ele>
        <time>2021-08-14T15:50:59Z</time>
      </trkpt>
      <trkpt lat="45.71633" lon="2.94867">
        <ele>1074.41</ele>
        <time>2021-08-14T15:51:00Z</time>
      </trkpt>
      <trkpt lat="45.71629" lon="2.94865">
        <ele>1074.41</ele>
        <time>2021-08-14T15:51:01Z</time>
      </trkpt>
      <trkpt lat="45.71624" lon="2.94863">
        <ele>1073.45</ele>
        <time>2021-08-14T15:51:02Z</time>
      </trkpt>
      <trkpt lat="45.71619" lon="2.94861">
        <ele>1073.45</ele>
        <time>2021-08-14T15:51:03Z</time>
      </trkpt>
      <trkpt lat="45.71615" lon="2.94859">
        <ele>1072.97</ele>
        <time>2021-08-14T15:51:04Z</time>
      </trkpt>
      <trkpt lat="45.71612" lon="2.94858">
        <ele>1072.97</ele>
        <time>2021-08-14T15:51:05Z</time>
      </trkpt>
      <trkpt lat="45.71608" lon="2.94857">
        <ele>1072.49</ele>
        <time>2021-08-14T15:51:06Z</time>
      </trkpt>
      <trkpt lat="45.71605" lon="2.94856">
        <ele>1072.49</ele>
        <time>2021-08-14T15:51:07Z</time>
      </trkpt>
      <trkpt lat="45.71601" lon="2.94855">
        <ele>1072.49</ele>
        <time>2021-08-14T15:51:08Z</time>
      </trkpt>
      <trkpt lat="45.71582" lon="2.94847">
        <ele>1070.57</ele>
        <time>2021-08-14T15:51:13Z</time>
      </trkpt>
      <trkpt lat="45.71577" lon="2.94846">
        <ele>1070.08</ele>
        <time>2021-08-14T15:51:14Z</time>
      </trkpt>
      <trkpt lat="45.71572" lon="2.94846">
        <ele>1070.08</ele>
        <time>2021-08-14T15:51:15Z</time>
      </trkpt>
      <trkpt lat="45.71567" lon="2.94845">
        <ele>1070.08</ele>
        <time>2021-08-14T15:51:16Z</time>
      </trkpt>
      <trkpt lat="45.71563" lon="2.94843">
        <ele>1069.12</ele>
        <time>2021-08-14T15:51:17Z</time>
      </trkpt>
      <trkpt lat="45.71558" lon="2.94842">
        <ele>1069.12</ele>
        <time>2021-08-14T15:51:18Z</time>
      </trkpt>
      <trkpt lat="45.71535" lon="2.94831">
        <ele>1067.2</ele>
        <time>2021-08-14T15:51:23Z</time>
      </trkpt>
      <trkpt lat="45.7152" lon="2.94827">
        <ele>1066.24</ele>
        <time>2021-08-14T15:51:26Z</time>
      </trkpt>
      <trkpt lat="45.71514" lon="2.94825">
        <ele>1066.24</ele>
        <time>2021-08-14T15:51:27Z</time>
      </trkpt>
      <trkpt lat="45.71498" lon="2.9482">
        <ele>1064.8</ele>
        <time>2021-08-14T15:51:30Z</time>
      </trkpt>
      <trkpt lat="45.71482" lon="2.94811">
        <ele>1063.84</ele>
        <time>2021-08-14T15:51:33Z</time>
      </trkpt>
      <trkpt lat="45.71476" lon="2.9481">
        <ele>1062.87</ele>
        <time>2021-08-14T15:51:34Z</time>
      </trkpt>
      <trkpt lat="45.71457" lon="2.94807">
        <ele>1060.95</ele>
        <time>2021-08-14T15:51:37Z</time>
      </trkpt>
      <trkpt lat="45.71451" lon="2.94806">
        <ele>1059.99</ele>
        <time>2021-08-14T15:51:38Z</time>
      </trkpt>
      <trkpt lat="45.71446" lon="2.94803">
        <ele>1059.99</ele>
        <time>2021-08-14T15:51:39Z</time>
      </trkpt>
      <trkpt lat="45.71442" lon="2.94801">
        <ele>1059.99</ele>
        <time>2021-08-14T15:51:40Z</time>
      </trkpt>
      <trkpt lat="45.71439" lon="2.94798">
        <ele>1059.99</ele>
        <time>2021-08-14T15:51:41Z</time>
      </trkpt>
      <trkpt lat="45.71436" lon="2.94797">
        <ele>1059.51</ele>
        <time>2021-08-14T15:51:42Z</time>
      </trkpt>
      <trkpt lat="45.71433" lon="2.94795">
        <ele>1059.51</ele>
        <time>2021-08-14T15:51:43Z</time>
      </trkpt>
      <trkpt lat="45.7143" lon="2.94793">
        <ele>1059.03</ele>
        <time>2021-08-14T15:51:44Z</time>
      </trkpt>
      <trkpt lat="45.71407" lon="2.94769">
        <ele>1057.11</ele>
        <time>2021-08-14T15:51:50Z</time>
      </trkpt>
      <trkpt lat="45.71402" lon="2.94764">
        <ele>1056.63</ele>
        <time>2021-08-14T15:51:51Z</time>
      </trkpt>
      <trkpt lat="45.71396" lon="2.94759">
        <ele>1056.15</ele>
        <time>2021-08-14T15:51:52Z</time>
      </trkpt>
      <trkpt lat="45.71392" lon="2.94755">
        <ele>1056.15</ele>
        <time>2021-08-14T15:51:53Z</time>
      </trkpt>
      <trkpt lat="45.71368" lon="2.94728">
        <ele>1055.67</ele>
        <time>2021-08-14T15:51:58Z</time>
      </trkpt>
      <trkpt lat="45.71363" lon="2.94726">
        <ele>1055.67</ele>
        <time>2021-08-14T15:51:59Z</time>
      </trkpt>
      <trkpt lat="45.71353" lon="2.94722">
        <ele>1055.67</ele>
        <time>2021-08-14T15:52:01Z</time>
      </trkpt>
      <trkpt lat="45.71343" lon="2.94719">
        <ele>1055.18</ele>
        <time>2021-08-14T15:52:03Z</time>
      </trkpt>
      <trkpt lat="45.71334" lon="2.94713">
        <ele>1055.18</ele>
        <time>2021-08-14T15:52:05Z</time>
      </trkpt>
      <trkpt lat="45.7133" lon="2.94711">
        <ele>1055.18</ele>
        <time>2021-08-14T15:52:06Z</time>
      </trkpt>
      <trkpt lat="45.71327" lon="2.94708">
        <ele>1055.18</ele>
        <time>2021-08-14T15:52:07Z</time>
      </trkpt>
      <trkpt lat="45.71323" lon="2.94705">
        <ele>1055.18</ele>
        <time>2021-08-14T15:52:08Z</time>
      </trkpt>
      <trkpt lat="45.7132" lon="2.94703">
        <ele>1055.18</ele>
        <time>2021-08-14T15:52:09Z</time>
      </trkpt>
      <trkpt lat="45.71316" lon="2.94701">
        <ele>1055.18</ele>
        <time>2021-08-14T15:52:10Z</time>
      </trkpt>
      <trkpt lat="45.71304" lon="2.94694">
        <ele>1055.18</ele>
        <time>2021-08-14T15:52:13Z</time>
      </trkpt>
      <trkpt lat="45.71291" lon="2.94684">
        <ele>1055.18</ele>
        <time>2021-08-14T15:52:16Z</time>
      </trkpt>
      <trkpt lat="45.71273" lon="2.94677">
        <ele>1055.18</ele>
        <time>2021-08-14T15:52:21Z</time>
      </trkpt>
      <trkpt lat="45.71256" lon="2.94669">
        <ele>1056.15</ele>
        <time>2021-08-14T15:52:25Z</time>
      </trkpt>
      <trkpt lat="45.71227" lon="2.94642">
        <ele>1056.15</ele>
        <time>2021-08-14T15:52:33Z</time>
      </trkpt>
      <trkpt lat="45.71201" lon="2.9461">
        <ele>1056.63</ele>
        <time>2021-08-14T15:52:41Z</time>
      </trkpt>
      <trkpt lat="45.71192" lon="2.94597">
        <ele>1056.63</ele>
        <time>2021-08-14T15:52:44Z</time>
      </trkpt>
      <trkpt lat="45.71189" lon="2.94593">
        <ele>1056.63</ele>
        <time>2021-08-14T15:52:45Z</time>
      </trkpt>
      <trkpt lat="45.71187" lon="2.94588">
        <ele>1056.63</ele>
        <time>2021-08-14T15:52:46Z</time>
      </trkpt>
      <trkpt lat="45.71184" lon="2.94584">
        <ele>1056.63</ele>
        <time>2021-08-14T15:52:47Z</time>
      </trkpt>
      <trkpt lat="45.71181" lon="2.94581">
        <ele>1056.63</ele>
        <time>2021-08-14T15:52:48Z</time>
      </trkpt>
      <trkpt lat="45.71179" lon="2.94576">
        <ele>1056.63</ele>
        <time>2021-08-14T15:52:49Z</time>
      </trkpt>
      <trkpt lat="45.71177" lon="2.94572">
        <ele>1056.63</ele>
        <time>2021-08-14T15:52:50Z</time>
      </trkpt>
      <trkpt lat="45.71175" lon="2.94568">
        <ele>1056.63</ele>
        <time>2021-08-14T15:52:51Z</time>
      </trkpt>
      <trkpt lat="45.7115" lon="2.94529">
        <ele>1057.59</ele>
        <time>2021-08-14T15:53:00Z</time>
      </trkpt>
      <trkpt lat="45.71134" lon="2.94502">
        <ele>1057.59</ele>
        <time>2021-08-14T15:53:06Z</time>
      </trkpt>
      <trkpt lat="45.71112" lon="2.94466">
        <ele>1058.55</ele>
        <time>2021-08-14T15:53:14Z</time>
      </trkpt>
      <trkpt lat="45.71106" lon="2.94456">
        <ele>1058.55</ele>
        <time>2021-08-14T15:53:16Z</time>
      </trkpt>
      <trkpt lat="45.71104" lon="2.94451">
        <ele>1058.55</ele>
        <time>2021-08-14T15:53:17Z</time>
      </trkpt>
      <trkpt lat="45.71102" lon="2.94446">
        <ele>1058.55</ele>
        <time>2021-08-14T15:53:18Z</time>
      </trkpt>
      <trkpt lat="45.71099" lon="2.94441">
        <ele>1059.03</ele>
        <time>2021-08-14T15:53:19Z</time>
      </trkpt>
      <trkpt lat="45.71097" lon="2.94438">
        <ele>1058.55</ele>
        <time>2021-08-14T15:53:20Z</time>
      </trkpt>
      <trkpt lat="45.71095" lon="2.94433">
        <ele>1058.55</ele>
        <time>2021-08-14T15:53:21Z</time>
      </trkpt>
      <trkpt lat="45.71093" lon="2.94428">
        <ele>1058.55</ele>
        <time>2021-08-14T15:53:22Z</time>
      </trkpt>
      <trkpt lat="45.7109" lon="2.94422">
        <ele>1058.55</ele>
        <time>2021-08-14T15:53:23Z</time>
      </trkpt>
      <trkpt lat="45.71088" lon="2.94417">
        <ele>1058.55</ele>
        <time>2021-08-14T15:53:24Z</time>
      </trkpt>
      <trkpt lat="45.71085" lon="2.94411">
        <ele>1058.55</ele>
        <time>2021-08-14T15:53:25Z</time>
      </trkpt>
      <trkpt lat="45.71079" lon="2.9439">
        <ele>1056.63</ele>
        <time>2021-08-14T15:53:28Z</time>
      </trkpt>
      <trkpt lat="45.71068" lon="2.94357">
        <ele>1055.18</ele>
        <time>2021-08-14T15:53:32Z</time>
      </trkpt>
      <trkpt lat="45.71065" lon="2.9435">
        <ele>1055.18</ele>
        <time>2021-08-14T15:53:33Z</time>
      </trkpt>
      <trkpt lat="45.7106" lon="2.94341">
        <ele>1054.7</ele>
        <time>2021-08-14T15:53:34Z</time>
      </trkpt>
      <trkpt lat="45.71042" lon="2.94302">
        <ele>1053.74</ele>
        <time>2021-08-14T15:53:39Z</time>
      </trkpt>
      <trkpt lat="45.71038" lon="2.94293">
        <ele>1053.26</ele>
        <time>2021-08-14T15:53:40Z</time>
      </trkpt>
      <trkpt lat="45.71022" lon="2.94261">
        <ele>1053.74</ele>
        <time>2021-08-14T15:53:45Z</time>
      </trkpt>
      <trkpt lat="45.71013" lon="2.9425">
        <ele>1053.26</ele>
        <time>2021-08-14T15:53:47Z</time>
      </trkpt>
      <trkpt lat="45.71008" lon="2.94246">
        <ele>1053.26</ele>
        <time>2021-08-14T15:53:48Z</time>
      </trkpt>
      <trkpt lat="45.71003" lon="2.94242">
        <ele>1053.26</ele>
        <time>2021-08-14T15:53:49Z</time>
      </trkpt>
      <trkpt lat="45.70998" lon="2.94237">
        <ele>1053.26</ele>
        <time>2021-08-14T15:53:50Z</time>
      </trkpt>
      <trkpt lat="45.70994" lon="2.94232">
        <ele>1053.26</ele>
        <time>2021-08-14T15:53:51Z</time>
      </trkpt>
      <trkpt lat="45.70953" lon="2.94185">
        <ele>1052.78</ele>
        <time>2021-08-14T15:54:00Z</time>
      </trkpt>
      <trkpt lat="45.70934" lon="2.94153">
        <ele>1054.7</ele>
        <time>2021-08-14T15:54:07Z</time>
      </trkpt>
      <trkpt lat="45.70915" lon="2.9412">
        <ele>1055.67</ele>
        <time>2021-08-14T15:54:16Z</time>
      </trkpt>
      <trkpt lat="45.70893" lon="2.94091">
        <ele>1056.15</ele>
        <time>2021-08-14T15:54:24Z</time>
      </trkpt>
      <trkpt lat="45.70889" lon="2.94087">
        <ele>1056.15</ele>
        <time>2021-08-14T15:54:25Z</time>
      </trkpt>
      <trkpt lat="45.70851" lon="2.94052">
        <ele>1056.15</ele>
        <time>2021-08-14T15:54:34Z</time>
      </trkpt>
      <trkpt lat="45.70836" lon="2.94038">
        <ele>1054.7</ele>
        <time>2021-08-14T15:54:37Z</time>
      </trkpt>
      <trkpt lat="45.70804" lon="2.93997">
        <ele>1054.22</ele>
        <time>2021-08-14T15:54:44Z</time>
      </trkpt>
      <trkpt lat="45.70796" lon="2.93983">
        <ele>1054.22</ele>
        <time>2021-08-14T15:54:46Z</time>
      </trkpt>
      <trkpt lat="45.70759" lon="2.93929">
        <ele>1054.22</ele>
        <time>2021-08-14T15:54:55Z</time>
      </trkpt>
      <trkpt lat="45.70755" lon="2.93923">
        <ele>1054.22</ele>
        <time>2021-08-14T15:54:56Z</time>
      </trkpt>
      <trkpt lat="45.70722" lon="2.93877">
        <ele>1055.18</ele>
        <time>2021-08-14T15:55:04Z</time>
      </trkpt>
      <trkpt lat="45.70713" lon="2.93864">
        <ele>1055.18</ele>
        <time>2021-08-14T15:55:06Z</time>
      </trkpt>
      <trkpt lat="45.70709" lon="2.93857">
        <ele>1055.18</ele>
        <time>2021-08-14T15:55:07Z</time>
      </trkpt>
      <trkpt lat="45.70706" lon="2.93852">
        <ele>1055.18</ele>
        <time>2021-08-14T15:55:08Z</time>
      </trkpt>
      <trkpt lat="45.70703" lon="2.93843">
        <ele>1055.18</ele>
        <time>2021-08-14T15:55:09Z</time>
      </trkpt>
      <trkpt lat="45.70702" lon="2.93836">
        <ele>1055.18</ele>
        <time>2021-08-14T15:55:10Z</time>
      </trkpt>
      <trkpt lat="45.70683" lon="2.93759">
        <ele>1055.67</ele>
        <time>2021-08-14T15:55:20Z</time>
      </trkpt>
      <trkpt lat="45.70662" lon="2.93678">
        <ele>1055.67</ele>
        <time>2021-08-14T15:55:30Z</time>
      </trkpt>
      <trkpt lat="45.70659" lon="2.9367">
        <ele>1055.67</ele>
        <time>2021-08-14T15:55:31Z</time>
      </trkpt>
      <trkpt lat="45.70652" lon="2.93645">
        <ele>1055.67</ele>
        <time>2021-08-14T15:55:34Z</time>
      </trkpt>
      <trkpt lat="45.70646" lon="2.9362">
        <ele>1055.67</ele>
        <time>2021-08-14T15:55:37Z</time>
      </trkpt>
      <trkpt lat="45.7064" lon="2.93599">
        <ele>1055.67</ele>
        <time>2021-08-14T15:55:40Z</time>
      </trkpt>
      <trkpt lat="45.70634" lon="2.9358">
        <ele>1056.63</ele>
        <time>2021-08-14T15:55:43Z</time>
      </trkpt>
      <trkpt lat="45.7063" lon="2.93561">
        <ele>1057.11</ele>
        <time>2021-08-14T15:55:46Z</time>
      </trkpt>
      <trkpt lat="45.70629" lon="2.93557">
        <ele>1057.11</ele>
        <time>2021-08-14T15:55:47Z</time>
      </trkpt>
      <trkpt lat="45.70626" lon="2.93545">
        <ele>1057.11</ele>
        <time>2021-08-14T15:55:49Z</time>
      </trkpt>
      <trkpt lat="45.70618" lon="2.93513">
        <ele>1058.55</ele>
        <time>2021-08-14T15:55:55Z</time>
      </trkpt>
      <trkpt lat="45.70607" lon="2.93471">
        <ele>1059.51</ele>
        <time>2021-08-14T15:56:03Z</time>
      </trkpt>
      <trkpt lat="45.70596" lon="2.93433">
        <ele>1059.99</ele>
        <time>2021-08-14T15:56:10Z</time>
      </trkpt>
      <trkpt lat="45.7058" lon="2.93384">
        <ele>1058.55</ele>
        <time>2021-08-14T15:56:17Z</time>
      </trkpt>
      <trkpt lat="45.70561" lon="2.93323">
        <ele>1057.11</ele>
        <time>2021-08-14T15:56:24Z</time>
      </trkpt>
      <trkpt lat="45.70548" lon="2.93275">
        <ele>1057.11</ele>
        <time>2021-08-14T15:56:30Z</time>
      </trkpt>
      <trkpt lat="45.70547" lon="2.93268">
        <ele>1057.11</ele>
        <time>2021-08-14T15:56:31Z</time>
      </trkpt>
      <trkpt lat="45.70546" lon="2.9326">
        <ele>1057.11</ele>
        <time>2021-08-14T15:56:32Z</time>
      </trkpt>
      <trkpt lat="45.70545" lon="2.93254">
        <ele>1057.11</ele>
        <time>2021-08-14T15:56:33Z</time>
      </trkpt>
      <trkpt lat="45.70542" lon="2.93227">
        <ele>1057.11</ele>
        <time>2021-08-14T15:56:37Z</time>
      </trkpt>
      <trkpt lat="45.70542" lon="2.93221">
        <ele>1057.11</ele>
        <time>2021-08-14T15:56:38Z</time>
      </trkpt>
      <trkpt lat="45.70538" lon="2.9316">
        <ele>1056.63</ele>
        <time>2021-08-14T15:56:46Z</time>
      </trkpt>
      <trkpt lat="45.70534" lon="2.93091">
        <ele>1055.67</ele>
        <time>2021-08-14T15:56:54Z</time>
      </trkpt>
      <trkpt lat="45.70532" lon="2.93076">
        <ele>1055.67</ele>
        <time>2021-08-14T15:56:56Z</time>
      </trkpt>
      <trkpt lat="45.70529" lon="2.93034">
        <ele>1054.22</ele>
        <time>2021-08-14T15:57:01Z</time>
      </trkpt>
      <trkpt lat="45.70529" lon="2.93025">
        <ele>1054.22</ele>
        <time>2021-08-14T15:57:02Z</time>
      </trkpt>
      <trkpt lat="45.70531" lon="2.93008">
        <ele>1053.26</ele>
        <time>2021-08-14T15:57:04Z</time>
      </trkpt>
      <trkpt lat="45.70533" lon="2.92999">
        <ele>1052.78</ele>
        <time>2021-08-14T15:57:05Z</time>
      </trkpt>
      <trkpt lat="45.70534" lon="2.9298">
        <ele>1052.78</ele>
        <time>2021-08-14T15:57:07Z</time>
      </trkpt>
      <trkpt lat="45.70534" lon="2.92934">
        <ele>1051.34</ele>
        <time>2021-08-14T15:57:12Z</time>
      </trkpt>
      <trkpt lat="45.70532" lon="2.92924">
        <ele>1051.34</ele>
        <time>2021-08-14T15:57:13Z</time>
      </trkpt>
      <trkpt lat="45.7053" lon="2.92916">
        <ele>1051.34</ele>
        <time>2021-08-14T15:57:14Z</time>
      </trkpt>
      <trkpt lat="45.70527" lon="2.92908">
        <ele>1051.34</ele>
        <time>2021-08-14T15:57:15Z</time>
      </trkpt>
      <trkpt lat="45.70524" lon="2.929">
        <ele>1051.34</ele>
        <time>2021-08-14T15:57:16Z</time>
      </trkpt>
      <trkpt lat="45.70523" lon="2.92892">
        <ele>1051.34</ele>
        <time>2021-08-14T15:57:17Z</time>
      </trkpt>
      <trkpt lat="45.70522" lon="2.92883">
        <ele>1051.34</ele>
        <time>2021-08-14T15:57:18Z</time>
      </trkpt>
      <trkpt lat="45.70521" lon="2.92876">
        <ele>1051.34</ele>
        <time>2021-08-14T15:57:19Z</time>
      </trkpt>
      <trkpt lat="45.70511" lon="2.92828">
        <ele>1049.9</ele>
        <time>2021-08-14T15:57:25Z</time>
      </trkpt>
      <trkpt lat="45.7051" lon="2.92821">
        <ele>1049.42</ele>
        <time>2021-08-14T15:57:26Z</time>
      </trkpt>
      <trkpt lat="45.70508" lon="2.92811">
        <ele>1049.42</ele>
        <time>2021-08-14T15:57:27Z</time>
      </trkpt>
      <trkpt lat="45.705" lon="2.92758">
        <ele>1047.97</ele>
        <time>2021-08-14T15:57:33Z</time>
      </trkpt>
      <trkpt lat="45.70492" lon="2.92683">
        <ele>1047.01</ele>
        <time>2021-08-14T15:57:42Z</time>
      </trkpt>
      <trkpt lat="45.70487" lon="2.92621">
        <ele>1043.65</ele>
        <time>2021-08-14T15:57:48Z</time>
      </trkpt>
      <trkpt lat="45.70487" lon="2.9261">
        <ele>1043.65</ele>
        <time>2021-08-14T15:57:49Z</time>
      </trkpt>
      <trkpt lat="45.70489" lon="2.92589">
        <ele>1042.21</ele>
        <time>2021-08-14T15:57:51Z</time>
      </trkpt>
      <trkpt lat="45.70489" lon="2.92578">
        <ele>1042.21</ele>
        <time>2021-08-14T15:57:52Z</time>
      </trkpt>
      <trkpt lat="45.70488" lon="2.92526">
        <ele>1038.84</ele>
        <time>2021-08-14T15:57:57Z</time>
      </trkpt>
      <trkpt lat="45.7049" lon="2.92515">
        <ele>1038.36</ele>
        <time>2021-08-14T15:57:58Z</time>
      </trkpt>
      <trkpt lat="45.70502" lon="2.92473">
        <ele>1034.52</ele>
        <time>2021-08-14T15:58:02Z</time>
      </trkpt>
      <trkpt lat="45.70504" lon="2.92462">
        <ele>1033.55</ele>
        <time>2021-08-14T15:58:03Z</time>
      </trkpt>
      <trkpt lat="45.70506" lon="2.92451">
        <ele>1033.07</ele>
        <time>2021-08-14T15:58:04Z</time>
      </trkpt>
      <trkpt lat="45.70505" lon="2.9244">
        <ele>1032.59</ele>
        <time>2021-08-14T15:58:05Z</time>
      </trkpt>
      <trkpt lat="45.70503" lon="2.9243">
        <ele>1031.63</ele>
        <time>2021-08-14T15:58:06Z</time>
      </trkpt>
      <trkpt lat="45.70501" lon="2.92419">
        <ele>1031.15</ele>
        <time>2021-08-14T15:58:07Z</time>
      </trkpt>
      <trkpt lat="45.70499" lon="2.92407">
        <ele>1030.67</ele>
        <time>2021-08-14T15:58:08Z</time>
      </trkpt>
      <trkpt lat="45.70498" lon="2.92393">
        <ele>1030.67</ele>
        <time>2021-08-14T15:58:09Z</time>
      </trkpt>
      <trkpt lat="45.70493" lon="2.92305">
        <ele>1026.83</ele>
        <time>2021-08-14T15:58:16Z</time>
      </trkpt>
      <trkpt lat="45.70494" lon="2.92264">
        <ele>1024.42</ele>
        <time>2021-08-14T15:58:19Z</time>
      </trkpt>
      <trkpt lat="45.70494" lon="2.92149">
        <ele>1022.5</ele>
        <time>2021-08-14T15:58:28Z</time>
      </trkpt>
      <trkpt lat="45.70494" lon="2.92137">
        <ele>1022.5</ele>
        <time>2021-08-14T15:58:29Z</time>
      </trkpt>
      <trkpt lat="45.70494" lon="2.92126">
        <ele>1022.02</ele>
        <time>2021-08-14T15:58:30Z</time>
      </trkpt>
      <trkpt lat="45.70496" lon="2.92078">
        <ele>1019.62</ele>
        <time>2021-08-14T15:58:34Z</time>
      </trkpt>
      <trkpt lat="45.70495" lon="2.92065">
        <ele>1019.13</ele>
        <time>2021-08-14T15:58:35Z</time>
      </trkpt>
      <trkpt lat="45.70483" lon="2.92004">
        <ele>1015.77</ele>
        <time>2021-08-14T15:58:40Z</time>
      </trkpt>
      <trkpt lat="45.70471" lon="2.91962">
        <ele>1010.96</ele>
        <time>2021-08-14T15:58:43Z</time>
      </trkpt>
      <trkpt lat="45.70456" lon="2.91915">
        <ele>1007.6</ele>
        <time>2021-08-14T15:58:46Z</time>
      </trkpt>
      <trkpt lat="45.70442" lon="2.91865">
        <ele>1003.27</ele>
        <time>2021-08-14T15:58:49Z</time>
      </trkpt>
      <trkpt lat="45.70421" lon="2.91799">
        <ele>1000.39</ele>
        <time>2021-08-14T15:58:54Z</time>
      </trkpt>
      <trkpt lat="45.70415" lon="2.91779">
        <ele>999.43</ele>
        <time>2021-08-14T15:58:56Z</time>
      </trkpt>
      <trkpt lat="45.70406" lon="2.91752">
        <ele>997.99</ele>
        <time>2021-08-14T15:59:00Z</time>
      </trkpt>
      <trkpt lat="45.70402" lon="2.9175">
        <ele>997.51</ele>
        <time>2021-08-14T15:59:01Z</time>
      </trkpt>
      <trkpt lat="45.70397" lon="2.91751">
        <ele>996.54</ele>
        <time>2021-08-14T15:59:02Z</time>
      </trkpt>
      <trkpt lat="45.70393" lon="2.91754">
        <ele>996.06</ele>
        <time>2021-08-14T15:59:03Z</time>
      </trkpt>
      <trkpt lat="45.7039" lon="2.9176">
        <ele>995.58</ele>
        <time>2021-08-14T15:59:04Z</time>
      </trkpt>
      <trkpt lat="45.70388" lon="2.91767">
        <ele>995.1</ele>
        <time>2021-08-14T15:59:05Z</time>
      </trkpt>
      <trkpt lat="45.70385" lon="2.91774">
        <ele>995.1</ele>
        <time>2021-08-14T15:59:06Z</time>
      </trkpt>
      <trkpt lat="45.70379" lon="2.91788">
        <ele>994.14</ele>
        <time>2021-08-14T15:59:08Z</time>
      </trkpt>
      <trkpt lat="45.70375" lon="2.91793">
        <ele>993.66</ele>
        <time>2021-08-14T15:59:09Z</time>
      </trkpt>
      <trkpt lat="45.70371" lon="2.91795">
        <ele>993.66</ele>
        <time>2021-08-14T15:59:10Z</time>
      </trkpt>
      <trkpt lat="45.70367" lon="2.91793">
        <ele>992.7</ele>
        <time>2021-08-14T15:59:11Z</time>
      </trkpt>
      <trkpt lat="45.70364" lon="2.91788">
        <ele>992.22</ele>
        <time>2021-08-14T15:59:12Z</time>
      </trkpt>
      <trkpt lat="45.70363" lon="2.91781">
        <ele>991.74</ele>
        <time>2021-08-14T15:59:13Z</time>
      </trkpt>
      <trkpt lat="45.70364" lon="2.91771">
        <ele>990.78</ele>
        <time>2021-08-14T15:59:14Z</time>
      </trkpt>
      <trkpt lat="45.70365" lon="2.91763">
        <ele>990.3</ele>
        <time>2021-08-14T15:59:15Z</time>
      </trkpt>
      <trkpt lat="45.70367" lon="2.91753">
        <ele>989.33</ele>
        <time>2021-08-14T15:59:16Z</time>
      </trkpt>
      <trkpt lat="45.70369" lon="2.91743">
        <ele>988.85</ele>
        <time>2021-08-14T15:59:17Z</time>
      </trkpt>
      <trkpt lat="45.70372" lon="2.91733">
        <ele>988.85</ele>
        <time>2021-08-14T15:59:18Z</time>
      </trkpt>
      <trkpt lat="45.70376" lon="2.91723">
        <ele>987.89</ele>
        <time>2021-08-14T15:59:19Z</time>
      </trkpt>
      <trkpt lat="45.70383" lon="2.91703">
        <ele>986.93</ele>
        <time>2021-08-14T15:59:21Z</time>
      </trkpt>
      <trkpt lat="45.70396" lon="2.91667">
        <ele>983.57</ele>
        <time>2021-08-14T15:59:25Z</time>
      </trkpt>
      <trkpt lat="45.70412" lon="2.91641">
        <ele>979.72</ele>
        <time>2021-08-14T15:59:28Z</time>
      </trkpt>
      <trkpt lat="45.70418" lon="2.91634">
        <ele>979.24</ele>
        <time>2021-08-14T15:59:29Z</time>
      </trkpt>
      <trkpt lat="45.7044" lon="2.91613">
        <ele>976.36</ele>
        <time>2021-08-14T15:59:33Z</time>
      </trkpt>
      <trkpt lat="45.70442" lon="2.91608">
        <ele>975.88</ele>
        <time>2021-08-14T15:59:34Z</time>
      </trkpt>
      <trkpt lat="45.70441" lon="2.91604">
        <ele>975.39</ele>
        <time>2021-08-14T15:59:35Z</time>
      </trkpt>
      <trkpt lat="45.70438" lon="2.91601">
        <ele>974.91</ele>
        <time>2021-08-14T15:59:36Z</time>
      </trkpt>
      <trkpt lat="45.70435" lon="2.91602">
        <ele>974.43</ele>
        <time>2021-08-14T15:59:37Z</time>
      </trkpt>
      <trkpt lat="45.7043" lon="2.91604">
        <ele>974.43</ele>
        <time>2021-08-14T15:59:38Z</time>
      </trkpt>
      <trkpt lat="45.70426" lon="2.91607">
        <ele>973.47</ele>
        <time>2021-08-14T15:59:39Z</time>
      </trkpt>
      <trkpt lat="45.70421" lon="2.91611">
        <ele>972.51</ele>
        <time>2021-08-14T15:59:40Z</time>
      </trkpt>
      <trkpt lat="45.70415" lon="2.91615">
        <ele>972.03</ele>
        <time>2021-08-14T15:59:41Z</time>
      </trkpt>
      <trkpt lat="45.70409" lon="2.91619">
        <ele>971.55</ele>
        <time>2021-08-14T15:59:42Z</time>
      </trkpt>
      <trkpt lat="45.70403" lon="2.91621">
        <ele>971.07</ele>
        <time>2021-08-14T15:59:43Z</time>
      </trkpt>
      <trkpt lat="45.70397" lon="2.91623">
        <ele>970.59</ele>
        <time>2021-08-14T15:59:44Z</time>
      </trkpt>
      <trkpt lat="45.70382" lon="2.91626">
        <ele>969.63</ele>
        <time>2021-08-14T15:59:47Z</time>
      </trkpt>
      <trkpt lat="45.70378" lon="2.91626">
        <ele>969.15</ele>
        <time>2021-08-14T15:59:48Z</time>
      </trkpt>
      <trkpt lat="45.70374" lon="2.91623">
        <ele>969.15</ele>
        <time>2021-08-14T15:59:49Z</time>
      </trkpt>
      <trkpt lat="45.7037" lon="2.9162">
        <ele>968.67</ele>
        <time>2021-08-14T15:59:50Z</time>
      </trkpt>
      <trkpt lat="45.70367" lon="2.91616">
        <ele>968.67</ele>
        <time>2021-08-14T15:59:51Z</time>
      </trkpt>
      <trkpt lat="45.70365" lon="2.91613">
        <ele>967.7</ele>
        <time>2021-08-14T15:59:52Z</time>
      </trkpt>
      <trkpt lat="45.70363" lon="2.91611">
        <ele>967.7</ele>
        <time>2021-08-14T15:59:53Z</time>
      </trkpt>
      <trkpt lat="45.70361" lon="2.91608">
        <ele>966.74</ele>
        <time>2021-08-14T15:59:54Z</time>
      </trkpt>
      <trkpt lat="45.70358" lon="2.91604">
        <ele>966.26</ele>
        <time>2021-08-14T15:59:55Z</time>
      </trkpt>
      <trkpt lat="45.7035" lon="2.91583">
        <ele>964.82</ele>
        <time>2021-08-14T15:59:58Z</time>
      </trkpt>
      <trkpt lat="45.70347" lon="2.91574">
        <ele>964.82</ele>
        <time>2021-08-14T15:59:59Z</time>
      </trkpt>
      <trkpt lat="45.70337" lon="2.91533">
        <ele>961.94</ele>
        <time>2021-08-14T16:00:03Z</time>
      </trkpt>
      <trkpt lat="45.70334" lon="2.91511">
        <ele>960.49</ele>
        <time>2021-08-14T16:00:05Z</time>
      </trkpt>
      <trkpt lat="45.70334" lon="2.91499">
        <ele>960.01</ele>
        <time>2021-08-14T16:00:06Z</time>
      </trkpt>
      <trkpt lat="45.70336" lon="2.91487">
        <ele>959.53</ele>
        <time>2021-08-14T16:00:07Z</time>
      </trkpt>
      <trkpt lat="45.70342" lon="2.9145">
        <ele>956.17</ele>
        <time>2021-08-14T16:00:10Z</time>
      </trkpt>
      <trkpt lat="45.70351" lon="2.91413">
        <ele>955.21</ele>
        <time>2021-08-14T16:00:14Z</time>
      </trkpt>
      <trkpt lat="45.70353" lon="2.91409">
        <ele>955.21</ele>
        <time>2021-08-14T16:00:15Z</time>
      </trkpt>
      <trkpt lat="45.70354" lon="2.91406">
        <ele>955.21</ele>
        <time>2021-08-14T16:00:16Z</time>
      </trkpt>
      <trkpt lat="45.70354" lon="2.91404">
        <ele>955.21</ele>
        <time>2021-08-14T16:00:17Z</time>
      </trkpt>
      <trkpt lat="45.7035" lon="2.91409">
        <ele>954.73</ele>
        <time>2021-08-14T16:00:21Z</time>
      </trkpt>
      <trkpt lat="45.70349" lon="2.91415">
        <ele>955.21</ele>
        <time>2021-08-14T16:00:24Z</time>
      </trkpt>
      <trkpt lat="45.70347" lon="2.9143">
        <ele>955.21</ele>
        <time>2021-08-14T16:00:30Z</time>
      </trkpt>
      <trkpt lat="45.70343" lon="2.91434">
        <ele>955.21</ele>
        <time>2021-08-14T16:00:32Z</time>
      </trkpt>
      <trkpt lat="45.70341" lon="2.91434">
        <ele>954.73</ele>
        <time>2021-08-14T16:00:33Z</time>
      </trkpt>
      <trkpt lat="45.70338" lon="2.91433">
        <ele>955.21</ele>
        <time>2021-08-14T16:00:34Z</time>
      </trkpt>
      <trkpt lat="45.70335" lon="2.91431">
        <ele>955.21</ele>
        <time>2021-08-14T16:00:35Z</time>
      </trkpt>
      <trkpt lat="45.70332" lon="2.91427">
        <ele>954.73</ele>
        <time>2021-08-14T16:00:36Z</time>
      </trkpt>
      <trkpt lat="45.70329" lon="2.91422">
        <ele>954.25</ele>
        <time>2021-08-14T16:00:37Z</time>
      </trkpt>
      <trkpt lat="45.70327" lon="2.91414">
        <ele>951.84</ele>
        <time>2021-08-14T16:00:38Z</time>
      </trkpt>
      <trkpt lat="45.70325" lon="2.91407">
        <ele>950.4</ele>
        <time>2021-08-14T16:00:39Z</time>
      </trkpt>
      <trkpt lat="45.70325" lon="2.914">
        <ele>949.44</ele>
        <time>2021-08-14T16:00:40Z</time>
      </trkpt>
      <trkpt lat="45.70328" lon="2.91395">
        <ele>948.48</ele>
        <time>2021-08-14T16:00:41Z</time>
      </trkpt>
      <trkpt lat="45.70331" lon="2.91391">
        <ele>948</ele>
        <time>2021-08-14T16:00:42Z</time>
      </trkpt>
      <trkpt lat="45.70334" lon="2.91387">
        <ele>947.52</ele>
        <time>2021-08-14T16:00:43Z</time>
      </trkpt>
      <trkpt lat="45.70335" lon="2.91382">
        <ele>947.04</ele>
        <time>2021-08-14T16:00:44Z</time>
      </trkpt>
      <trkpt lat="45.70335" lon="2.91378">
        <ele>947.04</ele>
        <time>2021-08-14T16:00:45Z</time>
      </trkpt>
      <trkpt lat="45.70334" lon="2.91374">
        <ele>947.04</ele>
        <time>2021-08-14T16:00:46Z</time>
      </trkpt>
      <trkpt lat="45.70328" lon="2.91344">
        <ele>946.07</ele>
        <time>2021-08-14T16:00:52Z</time>
      </trkpt>
      <trkpt lat="45.70327" lon="2.91341">
        <ele>946.07</ele>
        <time>2021-08-14T16:00:53Z</time>
      </trkpt>
      <trkpt lat="45.70328" lon="2.91338">
        <ele>946.07</ele>
        <time>2021-08-14T16:00:54Z</time>
      </trkpt>
      <trkpt lat="45.7033" lon="2.91337">
        <ele>946.07</ele>
        <time>2021-08-14T16:00:55Z</time>
      </trkpt>
      <trkpt lat="45.70332" lon="2.91336">
        <ele>947.52</ele>
        <time>2021-08-14T16:00:56Z</time>
      </trkpt>
      <trkpt lat="45.70335" lon="2.91334">
        <ele>947.52</ele>
        <time>2021-08-14T16:00:57Z</time>
      </trkpt>
      <trkpt lat="45.70337" lon="2.91332">
        <ele>947.52</ele>
        <time>2021-08-14T16:00:58Z</time>
      </trkpt>
      <trkpt lat="45.70366" lon="2.91312">
        <ele>946.07</ele>
        <time>2021-08-14T16:01:06Z</time>
      </trkpt>
      <trkpt lat="45.70396" lon="2.91293">
        <ele>945.59</ele>
        <time>2021-08-14T16:01:13Z</time>
      </trkpt>
      <trkpt lat="45.70404" lon="2.91287">
        <ele>945.59</ele>
        <time>2021-08-14T16:01:15Z</time>
      </trkpt>
      <trkpt lat="45.70412" lon="2.91282">
        <ele>945.59</ele>
        <time>2021-08-14T16:01:17Z</time>
      </trkpt>
      <trkpt lat="45.70416" lon="2.91281">
        <ele>945.11</ele>
        <time>2021-08-14T16:01:18Z</time>
      </trkpt>
      <trkpt lat="45.70425" lon="2.91279">
        <ele>944.63</ele>
        <time>2021-08-14T16:01:20Z</time>
      </trkpt>
      <trkpt lat="45.70429" lon="2.91278">
        <ele>944.15</ele>
        <time>2021-08-14T16:01:21Z</time>
      </trkpt>
      <trkpt lat="45.70433" lon="2.91277">
        <ele>944.15</ele>
        <time>2021-08-14T16:01:22Z</time>
      </trkpt>
      <trkpt lat="45.70437" lon="2.91274">
        <ele>943.67</ele>
        <time>2021-08-14T16:01:23Z</time>
      </trkpt>
      <trkpt lat="45.70441" lon="2.91271">
        <ele>943.67</ele>
        <time>2021-08-14T16:01:24Z</time>
      </trkpt>
      <trkpt lat="45.70467" lon="2.91255">
        <ele>941.27</ele>
        <time>2021-08-14T16:01:29Z</time>
      </trkpt>
      <trkpt lat="45.70472" lon="2.9125">
        <ele>941.27</ele>
        <time>2021-08-14T16:01:30Z</time>
      </trkpt>
      <trkpt lat="45.70475" lon="2.91245">
        <ele>940.79</ele>
        <time>2021-08-14T16:01:31Z</time>
      </trkpt>
      <trkpt lat="45.70477" lon="2.91238">
        <ele>940.79</ele>
        <time>2021-08-14T16:01:32Z</time>
      </trkpt>
      <trkpt lat="45.70478" lon="2.91231">
        <ele>940.31</ele>
        <time>2021-08-14T16:01:33Z</time>
      </trkpt>
      <trkpt lat="45.70477" lon="2.91223">
        <ele>940.31</ele>
        <time>2021-08-14T16:01:34Z</time>
      </trkpt>
      <trkpt lat="45.70475" lon="2.91218">
        <ele>940.31</ele>
        <time>2021-08-14T16:01:35Z</time>
      </trkpt>
      <trkpt lat="45.70473" lon="2.91211">
        <ele>940.31</ele>
        <time>2021-08-14T16:01:36Z</time>
      </trkpt>
      <trkpt lat="45.70472" lon="2.91206">
        <ele>940.31</ele>
        <time>2021-08-14T16:01:37Z</time>
      </trkpt>
      <trkpt lat="45.70472" lon="2.912">
        <ele>940.31</ele>
        <time>2021-08-14T16:01:38Z</time>
      </trkpt>
      <trkpt lat="45.70473" lon="2.91196">
        <ele>940.31</ele>
        <time>2021-08-14T16:01:39Z</time>
      </trkpt>
      <trkpt lat="45.70474" lon="2.91192">
        <ele>940.31</ele>
        <time>2021-08-14T16:01:40Z</time>
      </trkpt>
      <trkpt lat="45.70476" lon="2.91189">
        <ele>940.31</ele>
        <time>2021-08-14T16:01:41Z</time>
      </trkpt>
      <trkpt lat="45.70478" lon="2.91186">
        <ele>940.31</ele>
        <time>2021-08-14T16:01:42Z</time>
      </trkpt>
      <trkpt lat="45.7048" lon="2.91184">
        <ele>941.75</ele>
        <time>2021-08-14T16:01:43Z</time>
      </trkpt>
      <trkpt lat="45.70481" lon="2.91182">
        <ele>941.75</ele>
        <time>2021-08-14T16:01:44Z</time>
      </trkpt>
      <trkpt lat="45.70483" lon="2.91179">
        <ele>942.23</ele>
        <time>2021-08-14T16:01:52Z</time>
      </trkpt>
      <trkpt lat="45.70484" lon="2.91178">
        <ele>942.23</ele>
        <time>2021-08-14T16:02:14Z</time>
      </trkpt>
      <trkpt lat="45.70485" lon="2.91178">
        <ele>942.23</ele>
        <time>2021-08-14T16:02:23Z</time>
      </trkpt>
      <trkpt lat="45.70483" lon="2.91177">
        <ele>942.23</ele>
        <time>2021-08-14T16:02:38Z</time>
      </trkpt>
      <trkpt lat="45.70482" lon="2.91177">
        <ele>942.23</ele>
        <time>2021-08-14T16:02:56Z</time>
      </trkpt>
      <trkpt lat="45.70483" lon="2.9118">
        <ele>941.75</ele>
        <time>2021-08-14T16:03:16Z</time>
      </trkpt>
      <trkpt lat="45.70486" lon="2.91179">
        <ele>942.23</ele>
        <time>2021-08-14T16:03:35Z</time>
      </trkpt>
      <trkpt lat="45.70484" lon="2.91179">
        <ele>942.23</ele>
        <time>2021-08-14T16:03:53Z</time>
      </trkpt>
      <trkpt lat="45.70482" lon="2.91178">
        <ele>942.23</ele>
        <time>2021-08-14T16:04:15Z</time>
      </trkpt>
      <trkpt lat="45.70483" lon="2.91178">
        <ele>941.75</ele>
        <time>2021-08-14T16:04:30Z</time>
      </trkpt>
      <trkpt lat="45.70483" lon="2.91175">
        <ele>941.75</ele>
        <time>2021-08-14T16:04:48Z</time>
      </trkpt>
      <trkpt lat="45.70485" lon="2.91175">
        <ele>941.75</ele>
        <time>2021-08-14T16:05:06Z</time>
      </trkpt>
      <trkpt lat="45.70488" lon="2.91171">
        <ele>941.75</ele>
        <time>2021-08-14T16:05:13Z</time>
      </trkpt>
      <trkpt lat="45.7049" lon="2.91169">
        <ele>942.23</ele>
        <time>2021-08-14T16:05:15Z</time>
      </trkpt>
      <trkpt lat="45.70496" lon="2.91157">
        <ele>943.67</ele>
        <time>2021-08-14T16:05:26Z</time>
      </trkpt>
      <trkpt lat="45.70497" lon="2.91152">
        <ele>944.15</ele>
        <time>2021-08-14T16:05:33Z</time>
      </trkpt>
      <trkpt lat="45.70502" lon="2.91137">
        <ele>944.63</ele>
        <time>2021-08-14T16:05:39Z</time>
      </trkpt>
      <trkpt lat="45.70513" lon="2.91109">
        <ele>945.11</ele>
        <time>2021-08-14T16:05:47Z</time>
      </trkpt>
      <trkpt lat="45.70524" lon="2.91088">
        <ele>945.11</ele>
        <time>2021-08-14T16:05:54Z</time>
      </trkpt>
      <trkpt lat="45.70538" lon="2.91064">
        <ele>946.07</ele>
        <time>2021-08-14T16:06:02Z</time>
      </trkpt>
      <trkpt lat="45.70547" lon="2.91052">
        <ele>946.07</ele>
        <time>2021-08-14T16:06:06Z</time>
      </trkpt>
      <trkpt lat="45.70549" lon="2.9105">
        <ele>946.07</ele>
        <time>2021-08-14T16:06:07Z</time>
      </trkpt>
      <trkpt lat="45.70552" lon="2.91047">
        <ele>946.07</ele>
        <time>2021-08-14T16:06:08Z</time>
      </trkpt>
      <trkpt lat="45.70567" lon="2.91034">
        <ele>946.56</ele>
        <time>2021-08-14T16:06:14Z</time>
      </trkpt>
      <trkpt lat="45.70586" lon="2.91017">
        <ele>946.56</ele>
        <time>2021-08-14T16:06:21Z</time>
      </trkpt>
      <trkpt lat="45.70607" lon="2.90993">
        <ele>948</ele>
        <time>2021-08-14T16:06:30Z</time>
      </trkpt>
      <trkpt lat="45.7062" lon="2.90976">
        <ele>948.96</ele>
        <time>2021-08-14T16:06:37Z</time>
      </trkpt>
      <trkpt lat="45.70621" lon="2.90974">
        <ele>948.96</ele>
        <time>2021-08-14T16:06:38Z</time>
      </trkpt>
      <trkpt lat="45.70622" lon="2.90972">
        <ele>948.96</ele>
        <time>2021-08-14T16:06:39Z</time>
      </trkpt>
      <trkpt lat="45.70623" lon="2.90968">
        <ele>949.44</ele>
        <time>2021-08-14T16:06:41Z</time>
      </trkpt>
      <trkpt lat="45.70628" lon="2.90951">
        <ele>950.88</ele>
        <time>2021-08-14T16:06:48Z</time>
      </trkpt>
      <trkpt lat="45.70638" lon="2.9092">
        <ele>951.84</ele>
        <time>2021-08-14T16:06:57Z</time>
      </trkpt>
      <trkpt lat="45.70646" lon="2.90895">
        <ele>952.8</ele>
        <time>2021-08-14T16:07:05Z</time>
      </trkpt>
      <trkpt lat="45.70653" lon="2.90872">
        <ele>953.28</ele>
        <time>2021-08-14T16:07:11Z</time>
      </trkpt>
      <trkpt lat="45.70657" lon="2.90852">
        <ele>953.77</ele>
        <time>2021-08-14T16:07:17Z</time>
      </trkpt>
      <trkpt lat="45.70658" lon="2.9081">
        <ele>953.28</ele>
        <time>2021-08-14T16:07:23Z</time>
      </trkpt>
      <trkpt lat="45.70655" lon="2.90805">
        <ele>953.28</ele>
        <time>2021-08-14T16:07:24Z</time>
      </trkpt>
      <trkpt lat="45.70651" lon="2.90801">
        <ele>952.32</ele>
        <time>2021-08-14T16:07:25Z</time>
      </trkpt>
      <trkpt lat="45.70646" lon="2.90798">
        <ele>951.84</ele>
        <time>2021-08-14T16:07:26Z</time>
      </trkpt>
      <trkpt lat="45.70641" lon="2.90796">
        <ele>950.88</ele>
        <time>2021-08-14T16:07:27Z</time>
      </trkpt>
      <trkpt lat="45.70635" lon="2.90795">
        <ele>950.4</ele>
        <time>2021-08-14T16:07:28Z</time>
      </trkpt>
      <trkpt lat="45.70629" lon="2.90795">
        <ele>949.44</ele>
        <time>2021-08-14T16:07:29Z</time>
      </trkpt>
      <trkpt lat="45.70622" lon="2.90794">
        <ele>949.44</ele>
        <time>2021-08-14T16:07:30Z</time>
      </trkpt>
      <trkpt lat="45.70614" lon="2.90792">
        <ele>948.48</ele>
        <time>2021-08-14T16:07:31Z</time>
      </trkpt>
      <trkpt lat="45.70607" lon="2.90788">
        <ele>948</ele>
        <time>2021-08-14T16:07:32Z</time>
      </trkpt>
      <trkpt lat="45.70599" lon="2.90783">
        <ele>947.52</ele>
        <time>2021-08-14T16:07:33Z</time>
      </trkpt>
      <trkpt lat="45.70593" lon="2.90778">
        <ele>947.52</ele>
        <time>2021-08-14T16:07:34Z</time>
      </trkpt>
      <trkpt lat="45.7058" lon="2.90766">
        <ele>946.56</ele>
        <time>2021-08-14T16:07:36Z</time>
      </trkpt>
      <trkpt lat="45.70575" lon="2.90758">
        <ele>946.56</ele>
        <time>2021-08-14T16:07:37Z</time>
      </trkpt>
      <trkpt lat="45.70565" lon="2.90742">
        <ele>945.11</ele>
        <time>2021-08-14T16:07:39Z</time>
      </trkpt>
      <trkpt lat="45.70556" lon="2.90723">
        <ele>944.15</ele>
        <time>2021-08-14T16:07:41Z</time>
      </trkpt>
      <trkpt lat="45.70528" lon="2.90638">
        <ele>941.75</ele>
        <time>2021-08-14T16:07:49Z</time>
      </trkpt>
      <trkpt lat="45.705" lon="2.90569">
        <ele>939.35</ele>
        <time>2021-08-14T16:07:56Z</time>
      </trkpt>
      <trkpt lat="45.70487" lon="2.90544">
        <ele>938.86</ele>
        <time>2021-08-14T16:07:59Z</time>
      </trkpt>
      <trkpt lat="45.70461" lon="2.90482">
        <ele>934.54</ele>
        <time>2021-08-14T16:08:06Z</time>
      </trkpt>
      <trkpt lat="45.70434" lon="2.90413">
        <ele>932.14</ele>
        <time>2021-08-14T16:08:13Z</time>
      </trkpt>
      <trkpt lat="45.70433" lon="2.90403">
        <ele>932.14</ele>
        <time>2021-08-14T16:08:14Z</time>
      </trkpt>
      <trkpt lat="45.70432" lon="2.90393">
        <ele>931.17</ele>
        <time>2021-08-14T16:08:15Z</time>
      </trkpt>
      <trkpt lat="45.70431" lon="2.90378">
        <ele>930.21</ele>
        <time>2021-08-14T16:08:17Z</time>
      </trkpt>
      <trkpt lat="45.70432" lon="2.90371">
        <ele>929.73</ele>
        <time>2021-08-14T16:08:18Z</time>
      </trkpt>
      <trkpt lat="45.70434" lon="2.90363">
        <ele>928.77</ele>
        <time>2021-08-14T16:08:19Z</time>
      </trkpt>
      <trkpt lat="45.70438" lon="2.90356">
        <ele>927.81</ele>
        <time>2021-08-14T16:08:20Z</time>
      </trkpt>
      <trkpt lat="45.70443" lon="2.90348">
        <ele>926.85</ele>
        <time>2021-08-14T16:08:21Z</time>
      </trkpt>
      <trkpt lat="45.7045" lon="2.90339">
        <ele>925.89</ele>
        <time>2021-08-14T16:08:22Z</time>
      </trkpt>
      <trkpt lat="45.70456" lon="2.90332">
        <ele>924.93</ele>
        <time>2021-08-14T16:08:23Z</time>
      </trkpt>
      <trkpt lat="45.70461" lon="2.90326">
        <ele>925.41</ele>
        <time>2021-08-14T16:08:24Z</time>
      </trkpt>
      <trkpt lat="45.70487" lon="2.90298">
        <ele>925.89</ele>
        <time>2021-08-14T16:08:29Z</time>
      </trkpt>
      <trkpt lat="45.70497" lon="2.90288">
        <ele>927.33</ele>
        <time>2021-08-14T16:08:32Z</time>
      </trkpt>
      <trkpt lat="45.70505" lon="2.90276">
        <ele>929.73</ele>
        <time>2021-08-14T16:08:37Z</time>
      </trkpt>
      <trkpt lat="45.70507" lon="2.90263">
        <ele>930.69</ele>
        <time>2021-08-14T16:08:44Z</time>
      </trkpt>
      <trkpt lat="45.70507" lon="2.90258">
        <ele>930.69</ele>
        <time>2021-08-14T16:08:46Z</time>
      </trkpt>
      <trkpt lat="45.70507" lon="2.90255">
        <ele>931.17</ele>
        <time>2021-08-14T16:08:47Z</time>
      </trkpt>
      <trkpt lat="45.70509" lon="2.90232">
        <ele>932.62</ele>
        <time>2021-08-14T16:08:55Z</time>
      </trkpt>
      <trkpt lat="45.70511" lon="2.90206">
        <ele>934.54</ele>
        <time>2021-08-14T16:09:04Z</time>
      </trkpt>
      <trkpt lat="45.70513" lon="2.90174">
        <ele>935.98</ele>
        <time>2021-08-14T16:09:14Z</time>
      </trkpt>
      <trkpt lat="45.70516" lon="2.90145">
        <ele>935.5</ele>
        <time>2021-08-14T16:09:21Z</time>
      </trkpt>
      <trkpt lat="45.70521" lon="2.90103">
        <ele>935.5</ele>
        <time>2021-08-14T16:09:29Z</time>
      </trkpt>
      <trkpt lat="45.70514" lon="2.90086">
        <ele>935.5</ele>
        <time>2021-08-14T16:09:34Z</time>
      </trkpt>
      <trkpt lat="45.70493" lon="2.9007">
        <ele>935.5</ele>
        <time>2021-08-14T16:09:41Z</time>
      </trkpt>
      <trkpt lat="45.70478" lon="2.90039">
        <ele>935.98</ele>
        <time>2021-08-14T16:09:48Z</time>
      </trkpt>
      <trkpt lat="45.70462" lon="2.90022">
        <ele>936.46</ele>
        <time>2021-08-14T16:09:53Z</time>
      </trkpt>
      <trkpt lat="45.70458" lon="2.90018">
        <ele>936.46</ele>
        <time>2021-08-14T16:09:54Z</time>
      </trkpt>
      <trkpt lat="45.70454" lon="2.90015">
        <ele>936.46</ele>
        <time>2021-08-14T16:09:55Z</time>
      </trkpt>
      <trkpt lat="45.70431" lon="2.89995">
        <ele>936.46</ele>
        <time>2021-08-14T16:10:00Z</time>
      </trkpt>
      <trkpt lat="45.70422" lon="2.89986">
        <ele>935.02</ele>
        <time>2021-08-14T16:10:02Z</time>
      </trkpt>
      <trkpt lat="45.70418" lon="2.89981">
        <ele>935.02</ele>
        <time>2021-08-14T16:10:03Z</time>
      </trkpt>
      <trkpt lat="45.70409" lon="2.89971">
        <ele>934.54</ele>
        <time>2021-08-14T16:10:05Z</time>
      </trkpt>
      <trkpt lat="45.70403" lon="2.8996">
        <ele>934.54</ele>
        <time>2021-08-14T16:10:07Z</time>
      </trkpt>
      <trkpt lat="45.704" lon="2.89954">
        <ele>934.54</ele>
        <time>2021-08-14T16:10:08Z</time>
      </trkpt>
      <trkpt lat="45.70398" lon="2.89948">
        <ele>934.54</ele>
        <time>2021-08-14T16:10:09Z</time>
      </trkpt>
      <trkpt lat="45.70396" lon="2.89942">
        <ele>934.54</ele>
        <time>2021-08-14T16:10:10Z</time>
      </trkpt>
      <trkpt lat="45.70394" lon="2.89937">
        <ele>935.98</ele>
        <time>2021-08-14T16:10:11Z</time>
      </trkpt>
      <trkpt lat="45.70385" lon="2.89913">
        <ele>937.9</ele>
        <time>2021-08-14T16:10:17Z</time>
      </trkpt>
      <trkpt lat="45.70375" lon="2.89897">
        <ele>937.9</ele>
        <time>2021-08-14T16:10:21Z</time>
      </trkpt>
      <trkpt lat="45.70371" lon="2.89893">
        <ele>937.9</ele>
        <time>2021-08-14T16:10:22Z</time>
      </trkpt>
      <trkpt lat="45.70366" lon="2.89891">
        <ele>936.46</ele>
        <time>2021-08-14T16:10:23Z</time>
      </trkpt>
      <trkpt lat="45.70355" lon="2.89886">
        <ele>934.54</ele>
        <time>2021-08-14T16:10:25Z</time>
      </trkpt>
      <trkpt lat="45.70349" lon="2.89884">
        <ele>933.58</ele>
        <time>2021-08-14T16:10:26Z</time>
      </trkpt>
      <trkpt lat="45.70343" lon="2.89881">
        <ele>932.62</ele>
        <time>2021-08-14T16:10:27Z</time>
      </trkpt>
      <trkpt lat="45.70337" lon="2.89877">
        <ele>932.14</ele>
        <time>2021-08-14T16:10:28Z</time>
      </trkpt>
      <trkpt lat="45.70331" lon="2.89873">
        <ele>931.65</ele>
        <time>2021-08-14T16:10:29Z</time>
      </trkpt>
      <trkpt lat="45.70306" lon="2.89853">
        <ele>929.25</ele>
        <time>2021-08-14T16:10:33Z</time>
      </trkpt>
      <trkpt lat="45.7028" lon="2.89834">
        <ele>925.89</ele>
        <time>2021-08-14T16:10:37Z</time>
      </trkpt>
      <trkpt lat="45.70239" lon="2.89793">
        <ele>922.04</ele>
        <time>2021-08-14T16:10:43Z</time>
      </trkpt>
      <trkpt lat="45.70211" lon="2.89762">
        <ele>919.64</ele>
        <time>2021-08-14T16:10:48Z</time>
      </trkpt>
      <trkpt lat="45.70206" lon="2.89755">
        <ele>919.16</ele>
        <time>2021-08-14T16:10:49Z</time>
      </trkpt>
      <trkpt lat="45.70194" lon="2.89736">
        <ele>917.72</ele>
        <time>2021-08-14T16:10:52Z</time>
      </trkpt>
      <trkpt lat="45.70192" lon="2.89729">
        <ele>917.24</ele>
        <time>2021-08-14T16:10:53Z</time>
      </trkpt>
      <trkpt lat="45.70191" lon="2.89723">
        <ele>917.24</ele>
        <time>2021-08-14T16:10:54Z</time>
      </trkpt>
      <trkpt lat="45.70189" lon="2.89716">
        <ele>916.27</ele>
        <time>2021-08-14T16:10:55Z</time>
      </trkpt>
      <trkpt lat="45.70186" lon="2.89707">
        <ele>915.31</ele>
        <time>2021-08-14T16:10:56Z</time>
      </trkpt>
      <trkpt lat="45.70183" lon="2.89699">
        <ele>914.35</ele>
        <time>2021-08-14T16:10:57Z</time>
      </trkpt>
      <trkpt lat="45.70179" lon="2.8969">
        <ele>913.87</ele>
        <time>2021-08-14T16:10:58Z</time>
      </trkpt>
      <trkpt lat="45.70175" lon="2.89681">
        <ele>913.87</ele>
        <time>2021-08-14T16:10:59Z</time>
      </trkpt>
      <trkpt lat="45.70171" lon="2.89674">
        <ele>912.91</ele>
        <time>2021-08-14T16:11:00Z</time>
      </trkpt>
      <trkpt lat="45.70167" lon="2.89669">
        <ele>912.43</ele>
        <time>2021-08-14T16:11:01Z</time>
      </trkpt>
      <trkpt lat="45.70162" lon="2.89664">
        <ele>911.95</ele>
        <time>2021-08-14T16:11:02Z</time>
      </trkpt>
      <trkpt lat="45.70157" lon="2.89662">
        <ele>911.47</ele>
        <time>2021-08-14T16:11:03Z</time>
      </trkpt>
      <trkpt lat="45.7015" lon="2.8966">
        <ele>910.99</ele>
        <time>2021-08-14T16:11:04Z</time>
      </trkpt>
      <trkpt lat="45.70144" lon="2.89659">
        <ele>910.51</ele>
        <time>2021-08-14T16:11:05Z</time>
      </trkpt>
      <trkpt lat="45.70136" lon="2.89659">
        <ele>909.54</ele>
        <time>2021-08-14T16:11:06Z</time>
      </trkpt>
      <trkpt lat="45.70122" lon="2.89659">
        <ele>909.54</ele>
        <time>2021-08-14T16:11:08Z</time>
      </trkpt>
      <trkpt lat="45.70114" lon="2.89658">
        <ele>908.58</ele>
        <time>2021-08-14T16:11:09Z</time>
      </trkpt>
      <trkpt lat="45.70107" lon="2.89655">
        <ele>907.62</ele>
        <time>2021-08-14T16:11:10Z</time>
      </trkpt>
      <trkpt lat="45.70101" lon="2.8965">
        <ele>907.14</ele>
        <time>2021-08-14T16:11:11Z</time>
      </trkpt>
      <trkpt lat="45.70094" lon="2.89644">
        <ele>906.18</ele>
        <time>2021-08-14T16:11:12Z</time>
      </trkpt>
      <trkpt lat="45.70087" lon="2.8964">
        <ele>905.7</ele>
        <time>2021-08-14T16:11:13Z</time>
      </trkpt>
      <trkpt lat="45.70079" lon="2.89635">
        <ele>905.22</ele>
        <time>2021-08-14T16:11:14Z</time>
      </trkpt>
      <trkpt lat="45.70058" lon="2.89617">
        <ele>904.26</ele>
        <time>2021-08-14T16:11:17Z</time>
      </trkpt>
      <trkpt lat="45.70051" lon="2.89609">
        <ele>903.78</ele>
        <time>2021-08-14T16:11:18Z</time>
      </trkpt>
      <trkpt lat="45.70032" lon="2.89583">
        <ele>902.33</ele>
        <time>2021-08-14T16:11:21Z</time>
      </trkpt>
      <trkpt lat="45.70021" lon="2.89567">
        <ele>901.37</ele>
        <time>2021-08-14T16:11:23Z</time>
      </trkpt>
      <trkpt lat="45.70012" lon="2.89558">
        <ele>900.89</ele>
        <time>2021-08-14T16:11:24Z</time>
      </trkpt>
      <trkpt lat="45.70006" lon="2.89555">
        <ele>900.89</ele>
        <time>2021-08-14T16:11:25Z</time>
      </trkpt>
      <trkpt lat="45.69999" lon="2.89551">
        <ele>900.41</ele>
        <time>2021-08-14T16:11:26Z</time>
      </trkpt>
      <trkpt lat="45.69993" lon="2.89548">
        <ele>900.41</ele>
        <time>2021-08-14T16:11:27Z</time>
      </trkpt>
      <trkpt lat="45.69987" lon="2.89544">
        <ele>900.41</ele>
        <time>2021-08-14T16:11:28Z</time>
      </trkpt>
      <trkpt lat="45.69981" lon="2.89539">
        <ele>899.93</ele>
        <time>2021-08-14T16:11:29Z</time>
      </trkpt>
      <trkpt lat="45.69976" lon="2.89534">
        <ele>899.45</ele>
        <time>2021-08-14T16:11:30Z</time>
      </trkpt>
      <trkpt lat="45.6996" lon="2.89513">
        <ele>896.09</ele>
        <time>2021-08-14T16:11:33Z</time>
      </trkpt>
      <trkpt lat="45.69955" lon="2.89506">
        <ele>896.09</ele>
        <time>2021-08-14T16:11:34Z</time>
      </trkpt>
      <trkpt lat="45.69952" lon="2.895">
        <ele>895.61</ele>
        <time>2021-08-14T16:11:35Z</time>
      </trkpt>
      <trkpt lat="45.69947" lon="2.89489">
        <ele>894.64</ele>
        <time>2021-08-14T16:11:38Z</time>
      </trkpt>
      <trkpt lat="45.69947" lon="2.89486">
        <ele>894.64</ele>
        <time>2021-08-14T16:11:39Z</time>
      </trkpt>
      <trkpt lat="45.69946" lon="2.89478">
        <ele>894.64</ele>
        <time>2021-08-14T16:11:45Z</time>
      </trkpt>
      <trkpt lat="45.69945" lon="2.89474">
        <ele>894.64</ele>
        <time>2021-08-14T16:11:47Z</time>
      </trkpt>
      <trkpt lat="45.69942" lon="2.8947">
        <ele>894.64</ele>
        <time>2021-08-14T16:11:49Z</time>
      </trkpt>
      <trkpt lat="45.6994" lon="2.89468">
        <ele>894.64</ele>
        <time>2021-08-14T16:11:50Z</time>
      </trkpt>
      <trkpt lat="45.69933" lon="2.89446">
        <ele>894.16</ele>
        <time>2021-08-14T16:11:56Z</time>
      </trkpt>
      <trkpt lat="45.69927" lon="2.89409">
        <ele>895.61</ele>
        <time>2021-08-14T16:12:05Z</time>
      </trkpt>
      <trkpt lat="45.69921" lon="2.89384">
        <ele>896.57</ele>
        <time>2021-08-14T16:12:13Z</time>
      </trkpt>
      <trkpt lat="45.6992" lon="2.8938">
        <ele>896.57</ele>
        <time>2021-08-14T16:12:15Z</time>
      </trkpt>
      <trkpt lat="45.6992" lon="2.89377">
        <ele>897.05</ele>
        <time>2021-08-14T16:12:16Z</time>
      </trkpt>
      <trkpt lat="45.69919" lon="2.89375">
        <ele>897.05</ele>
        <time>2021-08-14T16:12:17Z</time>
      </trkpt>
      <trkpt lat="45.69911" lon="2.89358">
        <ele>898.01</ele>
        <time>2021-08-14T16:12:24Z</time>
      </trkpt>
      <trkpt lat="45.69908" lon="2.89352">
        <ele>898.49</ele>
        <time>2021-08-14T16:12:27Z</time>
      </trkpt>
      <trkpt lat="45.69907" lon="2.89351">
        <ele>898.97</ele>
        <time>2021-08-14T16:12:28Z</time>
      </trkpt>
      <trkpt lat="45.69896" lon="2.89341">
        <ele>900.89</ele>
        <time>2021-08-14T16:12:38Z</time>
      </trkpt>
      <trkpt lat="45.69889" lon="2.89335">
        <ele>901.37</ele>
        <time>2021-08-14T16:12:44Z</time>
      </trkpt>
      <trkpt lat="45.69887" lon="2.89334">
        <ele>902.33</ele>
        <time>2021-08-14T16:12:45Z</time>
      </trkpt>
      <trkpt lat="45.69879" lon="2.89319">
        <ele>903.78</ele>
        <time>2021-08-14T16:12:54Z</time>
      </trkpt>
      <trkpt lat="45.69875" lon="2.89307">
        <ele>904.74</ele>
        <time>2021-08-14T16:13:00Z</time>
      </trkpt>
      <trkpt lat="45.69875" lon="2.89305">
        <ele>905.22</ele>
        <time>2021-08-14T16:13:01Z</time>
      </trkpt>
      <trkpt lat="45.69876" lon="2.89304">
        <ele>905.22</ele>
        <time>2021-08-14T16:13:02Z</time>
      </trkpt>
      <trkpt lat="45.69877" lon="2.89302">
        <ele>905.22</ele>
        <time>2021-08-14T16:13:03Z</time>
      </trkpt>
      <trkpt lat="45.69878" lon="2.89301">
        <ele>905.7</ele>
        <time>2021-08-14T16:13:04Z</time>
      </trkpt>
      <trkpt lat="45.6988" lon="2.893">
        <ele>905.7</ele>
        <time>2021-08-14T16:13:05Z</time>
      </trkpt>
      <trkpt lat="45.69881" lon="2.89299">
        <ele>905.7</ele>
        <time>2021-08-14T16:13:06Z</time>
      </trkpt>
      <trkpt lat="45.69882" lon="2.89299">
        <ele>905.7</ele>
        <time>2021-08-14T16:13:07Z</time>
      </trkpt>
      <trkpt lat="45.69883" lon="2.89299">
        <ele>905.7</ele>
        <time>2021-08-14T16:13:08Z</time>
      </trkpt>
      <trkpt lat="45.69882" lon="2.89298">
        <ele>905.7</ele>
        <time>2021-08-14T16:13:13Z</time>
      </trkpt>
      <trkpt lat="45.6988" lon="2.89299">
        <ele>905.7</ele>
        <time>2021-08-14T16:13:14Z</time>
      </trkpt>
      <trkpt lat="45.69878" lon="2.893">
        <ele>905.7</ele>
        <time>2021-08-14T16:13:15Z</time>
      </trkpt>
      <trkpt lat="45.69876" lon="2.893">
        <ele>905.7</ele>
        <time>2021-08-14T16:13:16Z</time>
      </trkpt>
      <trkpt lat="45.69873" lon="2.893">
        <ele>905.7</ele>
        <time>2021-08-14T16:13:17Z</time>
      </trkpt>
      <trkpt lat="45.69871" lon="2.89299">
        <ele>905.7</ele>
        <time>2021-08-14T16:13:18Z</time>
      </trkpt>
      <trkpt lat="45.6987" lon="2.89297">
        <ele>905.7</ele>
        <time>2021-08-14T16:13:19Z</time>
      </trkpt>
      <trkpt lat="45.69861" lon="2.89285">
        <ele>907.14</ele>
        <time>2021-08-14T16:13:28Z</time>
      </trkpt>
      <trkpt lat="45.69858" lon="2.8927">
        <ele>908.1</ele>
        <time>2021-08-14T16:13:36Z</time>
      </trkpt>
      <trkpt lat="45.69859" lon="2.8925">
        <ele>909.54</ele>
        <time>2021-08-14T16:13:46Z</time>
      </trkpt>
      <trkpt lat="45.6986" lon="2.8924">
        <ele>910.51</ele>
        <time>2021-08-14T16:13:52Z</time>
      </trkpt>
      <trkpt lat="45.6986" lon="2.89221">
        <ele>911.95</ele>
        <time>2021-08-14T16:14:02Z</time>
      </trkpt>
      <trkpt lat="45.69861" lon="2.89207">
        <ele>913.87</ele>
        <time>2021-08-14T16:14:11Z</time>
      </trkpt>
      <trkpt lat="45.69862" lon="2.89192">
        <ele>915.31</ele>
        <time>2021-08-14T16:14:21Z</time>
      </trkpt>
      <trkpt lat="45.69861" lon="2.89179">
        <ele>917.24</ele>
        <time>2021-08-14T16:14:31Z</time>
      </trkpt>
      <trkpt lat="45.69857" lon="2.8917">
        <ele>918.68</ele>
        <time>2021-08-14T16:14:39Z</time>
      </trkpt>
      <trkpt lat="45.69852" lon="2.89159">
        <ele>920.12</ele>
        <time>2021-08-14T16:14:48Z</time>
      </trkpt>
      <trkpt lat="45.69846" lon="2.89151">
        <ele>921.08</ele>
        <time>2021-08-14T16:14:57Z</time>
      </trkpt>
      <trkpt lat="45.69843" lon="2.89149">
        <ele>921.08</ele>
        <time>2021-08-14T16:15:03Z</time>
      </trkpt>
      <trkpt lat="45.69836" lon="2.8914">
        <ele>922.04</ele>
        <time>2021-08-14T16:15:09Z</time>
      </trkpt>
      <trkpt lat="45.69829" lon="2.89129">
        <ele>923</ele>
        <time>2021-08-14T16:15:15Z</time>
      </trkpt>
      <trkpt lat="45.69814" lon="2.89115">
        <ele>925.41</ele>
        <time>2021-08-14T16:15:27Z</time>
      </trkpt>
      <trkpt lat="45.69808" lon="2.89109">
        <ele>926.37</ele>
        <time>2021-08-14T16:15:32Z</time>
      </trkpt>
      <trkpt lat="45.69807" lon="2.89109">
        <ele>926.37</ele>
        <time>2021-08-14T16:15:33Z</time>
      </trkpt>
      <trkpt lat="45.69806" lon="2.89109">
        <ele>926.85</ele>
        <time>2021-08-14T16:15:34Z</time>
      </trkpt>
      <trkpt lat="45.69804" lon="2.89108">
        <ele>926.85</ele>
        <time>2021-08-14T16:15:35Z</time>
      </trkpt>
      <trkpt lat="45.69803" lon="2.89107">
        <ele>926.85</ele>
        <time>2021-08-14T16:15:36Z</time>
      </trkpt>
      <trkpt lat="45.69802" lon="2.89107">
        <ele>926.85</ele>
        <time>2021-08-14T16:15:37Z</time>
      </trkpt>
      <trkpt lat="45.69801" lon="2.89106">
        <ele>927.33</ele>
        <time>2021-08-14T16:15:38Z</time>
      </trkpt>
      <trkpt lat="45.698" lon="2.89105">
        <ele>927.33</ele>
        <time>2021-08-14T16:15:39Z</time>
      </trkpt>
      <trkpt lat="45.69798" lon="2.89104">
        <ele>927.33</ele>
        <time>2021-08-14T16:15:40Z</time>
      </trkpt>
      <trkpt lat="45.69797" lon="2.89104">
        <ele>927.33</ele>
        <time>2021-08-14T16:15:41Z</time>
      </trkpt>
      <trkpt lat="45.69796" lon="2.89103">
        <ele>927.33</ele>
        <time>2021-08-14T16:15:42Z</time>
      </trkpt>
      <trkpt lat="45.69795" lon="2.89102">
        <ele>927.81</ele>
        <time>2021-08-14T16:15:43Z</time>
      </trkpt>
      <trkpt lat="45.69793" lon="2.89102">
        <ele>927.81</ele>
        <time>2021-08-14T16:15:44Z</time>
      </trkpt>
      <trkpt lat="45.69792" lon="2.89101">
        <ele>927.81</ele>
        <time>2021-08-14T16:15:45Z</time>
      </trkpt>
      <trkpt lat="45.69787" lon="2.89096">
        <ele>929.25</ele>
        <time>2021-08-14T16:15:50Z</time>
      </trkpt>
      <trkpt lat="45.69786" lon="2.89095">
        <ele>929.25</ele>
        <time>2021-08-14T16:15:51Z</time>
      </trkpt>
      <trkpt lat="45.69785" lon="2.89094">
        <ele>929.73</ele>
        <time>2021-08-14T16:15:52Z</time>
      </trkpt>
      <trkpt lat="45.69776" lon="2.89087">
        <ele>930.21</ele>
        <time>2021-08-14T16:16:00Z</time>
      </trkpt>
      <trkpt lat="45.69775" lon="2.89087">
        <ele>931.17</ele>
        <time>2021-08-14T16:16:01Z</time>
      </trkpt>
      <trkpt lat="45.69774" lon="2.89086">
        <ele>931.17</ele>
        <time>2021-08-14T16:16:02Z</time>
      </trkpt>
      <trkpt lat="45.6977" lon="2.89082">
        <ele>931.65</ele>
        <time>2021-08-14T16:16:06Z</time>
      </trkpt>
      <trkpt lat="45.69769" lon="2.89081">
        <ele>931.65</ele>
        <time>2021-08-14T16:16:07Z</time>
      </trkpt>
      <trkpt lat="45.69767" lon="2.8908">
        <ele>932.14</ele>
        <time>2021-08-14T16:16:08Z</time>
      </trkpt>
      <trkpt lat="45.69766" lon="2.8908">
        <ele>932.14</ele>
        <time>2021-08-14T16:16:09Z</time>
      </trkpt>
      <trkpt lat="45.69765" lon="2.89079">
        <ele>932.62</ele>
        <time>2021-08-14T16:16:10Z</time>
      </trkpt>
      <trkpt lat="45.69764" lon="2.89078">
        <ele>932.62</ele>
        <time>2021-08-14T16:16:11Z</time>
      </trkpt>
      <trkpt lat="45.69759" lon="2.89074">
        <ele>933.58</ele>
        <time>2021-08-14T16:16:15Z</time>
      </trkpt>
      <trkpt lat="45.69759" lon="2.89073">
        <ele>933.58</ele>
        <time>2021-08-14T16:16:16Z</time>
      </trkpt>
      <trkpt lat="45.69757" lon="2.89072">
        <ele>934.06</ele>
        <time>2021-08-14T16:16:17Z</time>
      </trkpt>
      <trkpt lat="45.69756" lon="2.89071">
        <ele>934.06</ele>
        <time>2021-08-14T16:16:18Z</time>
      </trkpt>
      <trkpt lat="45.69755" lon="2.8907">
        <ele>934.06</ele>
        <time>2021-08-14T16:16:19Z</time>
      </trkpt>
      <trkpt lat="45.69754" lon="2.89069">
        <ele>934.06</ele>
        <time>2021-08-14T16:16:20Z</time>
      </trkpt>
      <trkpt lat="45.69753" lon="2.89068">
        <ele>934.54</ele>
        <time>2021-08-14T16:16:21Z</time>
      </trkpt>
      <trkpt lat="45.69741" lon="2.89057">
        <ele>935.98</ele>
        <time>2021-08-14T16:16:32Z</time>
      </trkpt>
      <trkpt lat="45.69736" lon="2.89051">
        <ele>936.94</ele>
        <time>2021-08-14T16:16:37Z</time>
      </trkpt>
      <trkpt lat="45.69735" lon="2.8905">
        <ele>936.94</ele>
        <time>2021-08-14T16:16:38Z</time>
      </trkpt>
      <trkpt lat="45.6973" lon="2.89045">
        <ele>937.9</ele>
        <time>2021-08-14T16:16:42Z</time>
      </trkpt>
      <trkpt lat="45.69727" lon="2.89041">
        <ele>938.38</ele>
        <time>2021-08-14T16:16:45Z</time>
      </trkpt>
      <trkpt lat="45.69724" lon="2.89036">
        <ele>939.35</ele>
        <time>2021-08-14T16:16:51Z</time>
      </trkpt>
      <trkpt lat="45.69724" lon="2.89034">
        <ele>939.35</ele>
        <time>2021-08-14T16:16:52Z</time>
      </trkpt>
      <trkpt lat="45.69724" lon="2.89033">
        <ele>939.35</ele>
        <time>2021-08-14T16:16:53Z</time>
      </trkpt>
      <trkpt lat="45.69724" lon="2.89031">
        <ele>939.35</ele>
        <time>2021-08-14T16:16:54Z</time>
      </trkpt>
      <trkpt lat="45.69724" lon="2.89018">
        <ele>941.27</ele>
        <time>2021-08-14T16:17:04Z</time>
      </trkpt>
      <trkpt lat="45.69722" lon="2.89008">
        <ele>942.71</ele>
        <time>2021-08-14T16:17:13Z</time>
      </trkpt>
      <trkpt lat="45.6972" lon="2.88999">
        <ele>943.67</ele>
        <time>2021-08-14T16:17:20Z</time>
      </trkpt>
      <trkpt lat="45.69719" lon="2.88998">
        <ele>944.63</ele>
        <time>2021-08-14T16:17:21Z</time>
      </trkpt>
      <trkpt lat="45.69718" lon="2.88997">
        <ele>944.63</ele>
        <time>2021-08-14T16:17:22Z</time>
      </trkpt>
      <trkpt lat="45.69714" lon="2.88988">
        <ele>945.59</ele>
        <time>2021-08-14T16:17:30Z</time>
      </trkpt>
      <trkpt lat="45.69708" lon="2.88976">
        <ele>946.56</ele>
        <time>2021-08-14T16:17:39Z</time>
      </trkpt>
      <trkpt lat="45.69704" lon="2.88966">
        <ele>947.52</ele>
        <time>2021-08-14T16:17:45Z</time>
      </trkpt>
      <trkpt lat="45.69704" lon="2.88965">
        <ele>948</ele>
        <time>2021-08-14T16:17:46Z</time>
      </trkpt>
      <trkpt lat="45.69703" lon="2.88961">
        <ele>948</ele>
        <time>2021-08-14T16:17:51Z</time>
      </trkpt>
      <trkpt lat="45.69699" lon="2.88943">
        <ele>948.96</ele>
        <time>2021-08-14T16:17:57Z</time>
      </trkpt>
      <trkpt lat="45.69694" lon="2.88911">
        <ele>949.44</ele>
        <time>2021-08-14T16:18:04Z</time>
      </trkpt>
      <trkpt lat="45.69694" lon="2.88907">
        <ele>949.44</ele>
        <time>2021-08-14T16:18:05Z</time>
      </trkpt>
      <trkpt lat="45.69693" lon="2.88905">
        <ele>949.44</ele>
        <time>2021-08-14T16:18:06Z</time>
      </trkpt>
      <trkpt lat="45.69692" lon="2.88905">
        <ele>949.44</ele>
        <time>2021-08-14T16:18:07Z</time>
      </trkpt>
      <trkpt lat="45.69692" lon="2.88906">
        <ele>949.44</ele>
        <time>2021-08-14T16:18:08Z</time>
      </trkpt>
      <trkpt lat="45.69692" lon="2.88909">
        <ele>949.44</ele>
        <time>2021-08-14T16:18:09Z</time>
      </trkpt>
      <trkpt lat="45.69693" lon="2.88911">
        <ele>949.44</ele>
        <time>2021-08-14T16:18:10Z</time>
      </trkpt>
      <trkpt lat="45.69694" lon="2.88913">
        <ele>949.44</ele>
        <time>2021-08-14T16:18:11Z</time>
      </trkpt>
      <trkpt lat="45.69694" lon="2.88916">
        <ele>949.44</ele>
        <time>2021-08-14T16:18:12Z</time>
      </trkpt>
      <trkpt lat="45.69693" lon="2.88919">
        <ele>949.44</ele>
        <time>2021-08-14T16:18:13Z</time>
      </trkpt>
      <trkpt lat="45.69691" lon="2.88922">
        <ele>949.44</ele>
        <time>2021-08-14T16:18:14Z</time>
      </trkpt>
      <trkpt lat="45.69688" lon="2.88923">
        <ele>949.44</ele>
        <time>2021-08-14T16:18:15Z</time>
      </trkpt>
      <trkpt lat="45.69686" lon="2.88923">
        <ele>949.44</ele>
        <time>2021-08-14T16:18:16Z</time>
      </trkpt>
      <trkpt lat="45.69682" lon="2.88923">
        <ele>949.44</ele>
        <time>2021-08-14T16:18:17Z</time>
      </trkpt>
      <trkpt lat="45.69679" lon="2.88923">
        <ele>949.44</ele>
        <time>2021-08-14T16:18:18Z</time>
      </trkpt>
      <trkpt lat="45.69676" lon="2.88923">
        <ele>949.44</ele>
        <time>2021-08-14T16:18:19Z</time>
      </trkpt>
      <trkpt lat="45.69646" lon="2.88924">
        <ele>949.44</ele>
        <time>2021-08-14T16:18:27Z</time>
      </trkpt>
      <trkpt lat="45.69604" lon="2.88922">
        <ele>949.44</ele>
        <time>2021-08-14T16:18:37Z</time>
      </trkpt>
      <trkpt lat="45.69564" lon="2.88911">
        <ele>948.96</ele>
        <time>2021-08-14T16:18:46Z</time>
      </trkpt>
      <trkpt lat="45.69523" lon="2.88891">
        <ele>948.96</ele>
        <time>2021-08-14T16:18:55Z</time>
      </trkpt>
      <trkpt lat="45.69501" lon="2.88878">
        <ele>949.44</ele>
        <time>2021-08-14T16:19:00Z</time>
      </trkpt>
      <trkpt lat="45.69497" lon="2.88875">
        <ele>949.44</ele>
        <time>2021-08-14T16:19:01Z</time>
      </trkpt>
      <trkpt lat="45.69492" lon="2.88872">
        <ele>949.44</ele>
        <time>2021-08-14T16:19:02Z</time>
      </trkpt>
      <trkpt lat="45.69456" lon="2.88854">
        <ele>949.44</ele>
        <time>2021-08-14T16:19:09Z</time>
      </trkpt>
      <trkpt lat="45.69451" lon="2.88853">
        <ele>949.44</ele>
        <time>2021-08-14T16:19:10Z</time>
      </trkpt>
      <trkpt lat="45.69445" lon="2.88851">
        <ele>949.44</ele>
        <time>2021-08-14T16:19:11Z</time>
      </trkpt>
      <trkpt lat="45.6944" lon="2.88849">
        <ele>949.44</ele>
        <time>2021-08-14T16:19:12Z</time>
      </trkpt>
      <trkpt lat="45.69434" lon="2.88847">
        <ele>949.44</ele>
        <time>2021-08-14T16:19:13Z</time>
      </trkpt>
      <trkpt lat="45.69393" lon="2.88835">
        <ele>949.92</ele>
        <time>2021-08-14T16:19:21Z</time>
      </trkpt>
      <trkpt lat="45.69389" lon="2.88835">
        <ele>950.4</ele>
        <time>2021-08-14T16:19:22Z</time>
      </trkpt>
      <trkpt lat="45.69386" lon="2.88836">
        <ele>950.88</ele>
        <time>2021-08-14T16:19:23Z</time>
      </trkpt>
      <trkpt lat="45.69383" lon="2.88837">
        <ele>951.36</ele>
        <time>2021-08-14T16:19:24Z</time>
      </trkpt>
      <trkpt lat="45.6938" lon="2.88838">
        <ele>951.36</ele>
        <time>2021-08-14T16:19:25Z</time>
      </trkpt>
      <trkpt lat="45.69377" lon="2.8884">
        <ele>951.36</ele>
        <time>2021-08-14T16:19:26Z</time>
      </trkpt>
      <trkpt lat="45.69374" lon="2.88841">
        <ele>952.32</ele>
        <time>2021-08-14T16:19:27Z</time>
      </trkpt>
      <trkpt lat="45.69344" lon="2.8885">
        <ele>953.77</ele>
        <time>2021-08-14T16:19:35Z</time>
      </trkpt>
      <trkpt lat="45.69306" lon="2.88852">
        <ele>955.69</ele>
        <time>2021-08-14T16:19:45Z</time>
      </trkpt>
      <trkpt lat="45.69274" lon="2.88852">
        <ele>957.61</ele>
        <time>2021-08-14T16:19:55Z</time>
      </trkpt>
      <trkpt lat="45.69245" lon="2.88853">
        <ele>959.05</ele>
        <time>2021-08-14T16:20:05Z</time>
      </trkpt>
      <trkpt lat="45.69223" lon="2.88854">
        <ele>959.53</ele>
        <time>2021-08-14T16:20:12Z</time>
      </trkpt>
      <trkpt lat="45.69216" lon="2.88852">
        <ele>959.53</ele>
        <time>2021-08-14T16:20:14Z</time>
      </trkpt>
      <trkpt lat="45.69212" lon="2.88851">
        <ele>958.09</ele>
        <time>2021-08-14T16:20:15Z</time>
      </trkpt>
      <trkpt lat="45.69207" lon="2.88848">
        <ele>958.09</ele>
        <time>2021-08-14T16:20:16Z</time>
      </trkpt>
      <trkpt lat="45.69204" lon="2.88845">
        <ele>957.61</ele>
        <time>2021-08-14T16:20:17Z</time>
      </trkpt>
      <trkpt lat="45.69199" lon="2.88841">
        <ele>957.61</ele>
        <time>2021-08-14T16:20:18Z</time>
      </trkpt>
      <trkpt lat="45.69195" lon="2.88836">
        <ele>957.61</ele>
        <time>2021-08-14T16:20:19Z</time>
      </trkpt>
      <trkpt lat="45.69192" lon="2.88832">
        <ele>957.61</ele>
        <time>2021-08-14T16:20:20Z</time>
      </trkpt>
      <trkpt lat="45.69188" lon="2.88827">
        <ele>957.61</ele>
        <time>2021-08-14T16:20:21Z</time>
      </trkpt>
      <trkpt lat="45.69153" lon="2.88787">
        <ele>957.13</ele>
        <time>2021-08-14T16:20:30Z</time>
      </trkpt>
      <trkpt lat="45.69121" lon="2.88769">
        <ele>957.13</ele>
        <time>2021-08-14T16:20:37Z</time>
      </trkpt>
      <trkpt lat="45.69102" lon="2.88766">
        <ele>957.13</ele>
        <time>2021-08-14T16:20:41Z</time>
      </trkpt>
      <trkpt lat="45.6906" lon="2.88769">
        <ele>958.57</ele>
        <time>2021-08-14T16:20:50Z</time>
      </trkpt>
      <trkpt lat="45.69031" lon="2.88763">
        <ele>959.05</ele>
        <time>2021-08-14T16:20:57Z</time>
      </trkpt>
      <trkpt lat="45.69007" lon="2.88748">
        <ele>960.01</ele>
        <time>2021-08-14T16:21:05Z</time>
      </trkpt>
      <trkpt lat="45.68984" lon="2.88731">
        <ele>960.49</ele>
        <time>2021-08-14T16:21:12Z</time>
      </trkpt>
      <trkpt lat="45.6896" lon="2.88714">
        <ele>961.94</ele>
        <time>2021-08-14T16:21:20Z</time>
      </trkpt>
      <trkpt lat="45.6894" lon="2.88699">
        <ele>964.34</ele>
        <time>2021-08-14T16:21:28Z</time>
      </trkpt>
      <trkpt lat="45.68919" lon="2.88683">
        <ele>964.82</ele>
        <time>2021-08-14T16:21:36Z</time>
      </trkpt>
      <trkpt lat="45.68892" lon="2.8866">
        <ele>965.3</ele>
        <time>2021-08-14T16:21:45Z</time>
      </trkpt>
      <trkpt lat="45.68882" lon="2.8865">
        <ele>965.3</ele>
        <time>2021-08-14T16:21:48Z</time>
      </trkpt>
      <trkpt lat="45.68881" lon="2.88644">
        <ele>965.3</ele>
        <time>2021-08-14T16:21:49Z</time>
      </trkpt>
      <trkpt lat="45.68882" lon="2.88638">
        <ele>965.3</ele>
        <time>2021-08-14T16:21:50Z</time>
      </trkpt>
      <trkpt lat="45.68883" lon="2.88634">
        <ele>965.3</ele>
        <time>2021-08-14T16:21:51Z</time>
      </trkpt>
      <trkpt lat="45.68885" lon="2.8863">
        <ele>965.3</ele>
        <time>2021-08-14T16:21:52Z</time>
      </trkpt>
      <trkpt lat="45.68893" lon="2.88612">
        <ele>967.22</ele>
        <time>2021-08-14T16:21:58Z</time>
      </trkpt>
      <trkpt lat="45.68896" lon="2.88589">
        <ele>969.63</ele>
        <time>2021-08-14T16:22:05Z</time>
      </trkpt>
      <trkpt lat="45.68899" lon="2.88564">
        <ele>970.59</ele>
        <time>2021-08-14T16:22:12Z</time>
      </trkpt>
      <trkpt lat="45.68896" lon="2.88528">
        <ele>971.55</ele>
        <time>2021-08-14T16:22:21Z</time>
      </trkpt>
      <trkpt lat="45.68895" lon="2.88498">
        <ele>972.03</ele>
        <time>2021-08-14T16:22:29Z</time>
      </trkpt>
      <trkpt lat="45.68898" lon="2.88481">
        <ele>972.03</ele>
        <time>2021-08-14T16:22:32Z</time>
      </trkpt>
      <trkpt lat="45.68907" lon="2.8844">
        <ele>970.11</ele>
        <time>2021-08-14T16:22:38Z</time>
      </trkpt>
      <trkpt lat="45.68913" lon="2.88411">
        <ele>968.18</ele>
        <time>2021-08-14T16:22:41Z</time>
      </trkpt>
      <trkpt lat="45.68919" lon="2.8835">
        <ele>967.22</ele>
        <time>2021-08-14T16:22:47Z</time>
      </trkpt>
      <trkpt lat="45.68921" lon="2.88331">
        <ele>967.22</ele>
        <time>2021-08-14T16:22:49Z</time>
      </trkpt>
      <trkpt lat="45.68927" lon="2.88264">
        <ele>967.22</ele>
        <time>2021-08-14T16:22:57Z</time>
      </trkpt>
      <trkpt lat="45.68928" lon="2.88257">
        <ele>967.22</ele>
        <time>2021-08-14T16:22:58Z</time>
      </trkpt>
      <trkpt lat="45.68928" lon="2.8825">
        <ele>968.67</ele>
        <time>2021-08-14T16:22:59Z</time>
      </trkpt>
      <trkpt lat="45.68928" lon="2.88244">
        <ele>968.67</ele>
        <time>2021-08-14T16:23:00Z</time>
      </trkpt>
      <trkpt lat="45.6893" lon="2.8823">
        <ele>969.15</ele>
        <time>2021-08-14T16:23:02Z</time>
      </trkpt>
      <trkpt lat="45.68934" lon="2.88188">
        <ele>970.11</ele>
        <time>2021-08-14T16:23:09Z</time>
      </trkpt>
      <trkpt lat="45.68935" lon="2.88182">
        <ele>970.11</ele>
        <time>2021-08-14T16:23:10Z</time>
      </trkpt>
      <trkpt lat="45.6894" lon="2.88122">
        <ele>969.15</ele>
        <time>2021-08-14T16:23:19Z</time>
      </trkpt>
      <trkpt lat="45.68941" lon="2.88116">
        <ele>968.18</ele>
        <time>2021-08-14T16:23:20Z</time>
      </trkpt>
      <trkpt lat="45.68942" lon="2.8811">
        <ele>967.7</ele>
        <time>2021-08-14T16:23:21Z</time>
      </trkpt>
      <trkpt lat="45.68943" lon="2.88104">
        <ele>967.7</ele>
        <time>2021-08-14T16:23:22Z</time>
      </trkpt>
      <trkpt lat="45.68944" lon="2.88097">
        <ele>966.74</ele>
        <time>2021-08-14T16:23:23Z</time>
      </trkpt>
      <trkpt lat="45.68943" lon="2.88091">
        <ele>966.26</ele>
        <time>2021-08-14T16:23:24Z</time>
      </trkpt>
      <trkpt lat="45.68942" lon="2.88085">
        <ele>965.3</ele>
        <time>2021-08-14T16:23:25Z</time>
      </trkpt>
      <trkpt lat="45.68941" lon="2.88078">
        <ele>964.34</ele>
        <time>2021-08-14T16:23:26Z</time>
      </trkpt>
      <trkpt lat="45.68939" lon="2.88072">
        <ele>963.38</ele>
        <time>2021-08-14T16:23:27Z</time>
      </trkpt>
      <trkpt lat="45.68937" lon="2.88066">
        <ele>962.42</ele>
        <time>2021-08-14T16:23:28Z</time>
      </trkpt>
      <trkpt lat="45.68934" lon="2.8806">
        <ele>960.98</ele>
        <time>2021-08-14T16:23:29Z</time>
      </trkpt>
      <trkpt lat="45.68931" lon="2.88053">
        <ele>960.49</ele>
        <time>2021-08-14T16:23:30Z</time>
      </trkpt>
      <trkpt lat="45.68928" lon="2.88046">
        <ele>959.05</ele>
        <time>2021-08-14T16:23:31Z</time>
      </trkpt>
      <trkpt lat="45.68925" lon="2.88038">
        <ele>958.09</ele>
        <time>2021-08-14T16:23:32Z</time>
      </trkpt>
      <trkpt lat="45.68923" lon="2.8803">
        <ele>957.13</ele>
        <time>2021-08-14T16:23:33Z</time>
      </trkpt>
      <trkpt lat="45.68921" lon="2.88021">
        <ele>956.17</ele>
        <time>2021-08-14T16:23:34Z</time>
      </trkpt>
      <trkpt lat="45.68916" lon="2.87984">
        <ele>952.8</ele>
        <time>2021-08-14T16:23:38Z</time>
      </trkpt>
      <trkpt lat="45.68915" lon="2.87954">
        <ele>949.92</ele>
        <time>2021-08-14T16:23:41Z</time>
      </trkpt>
      <trkpt lat="45.68918" lon="2.87913">
        <ele>945.59</ele>
        <time>2021-08-14T16:23:45Z</time>
      </trkpt>
      <trkpt lat="45.68921" lon="2.87868">
        <ele>941.75</ele>
        <time>2021-08-14T16:23:49Z</time>
      </trkpt>
      <trkpt lat="45.68922" lon="2.87824">
        <ele>938.86</ele>
        <time>2021-08-14T16:23:53Z</time>
      </trkpt>
      <trkpt lat="45.68922" lon="2.87816">
        <ele>938.86</ele>
        <time>2021-08-14T16:23:54Z</time>
      </trkpt>
      <trkpt lat="45.6892" lon="2.87761">
        <ele>935.02</ele>
        <time>2021-08-14T16:24:00Z</time>
      </trkpt>
      <trkpt lat="45.68918" lon="2.87742">
        <ele>934.54</ele>
        <time>2021-08-14T16:24:02Z</time>
      </trkpt>
      <trkpt lat="45.68914" lon="2.87711">
        <ele>932.62</ele>
        <time>2021-08-14T16:24:05Z</time>
      </trkpt>
      <trkpt lat="45.68912" lon="2.87677">
        <ele>930.21</ele>
        <time>2021-08-14T16:24:09Z</time>
      </trkpt>
      <trkpt lat="45.68911" lon="2.87669">
        <ele>929.73</ele>
        <time>2021-08-14T16:24:10Z</time>
      </trkpt>
      <trkpt lat="45.68911" lon="2.87661">
        <ele>929.73</ele>
        <time>2021-08-14T16:24:11Z</time>
      </trkpt>
      <trkpt lat="45.68911" lon="2.87653">
        <ele>929.25</ele>
        <time>2021-08-14T16:24:12Z</time>
      </trkpt>
      <trkpt lat="45.68911" lon="2.87645">
        <ele>928.29</ele>
        <time>2021-08-14T16:24:13Z</time>
      </trkpt>
      <trkpt lat="45.68908" lon="2.87586">
        <ele>924.93</ele>
        <time>2021-08-14T16:24:20Z</time>
      </trkpt>
      <trkpt lat="45.68906" lon="2.8756">
        <ele>920.6</ele>
        <time>2021-08-14T16:24:23Z</time>
      </trkpt>
      <trkpt lat="45.68905" lon="2.87531">
        <ele>917.24</ele>
        <time>2021-08-14T16:24:26Z</time>
      </trkpt>
      <trkpt lat="45.68905" lon="2.87521">
        <ele>916.27</ele>
        <time>2021-08-14T16:24:27Z</time>
      </trkpt>
      <trkpt lat="45.68907" lon="2.87513">
        <ele>915.31</ele>
        <time>2021-08-14T16:24:28Z</time>
      </trkpt>
      <trkpt lat="45.68913" lon="2.87489">
        <ele>912.43</ele>
        <time>2021-08-14T16:24:31Z</time>
      </trkpt>
      <trkpt lat="45.68914" lon="2.87482">
        <ele>911.47</ele>
        <time>2021-08-14T16:24:32Z</time>
      </trkpt>
      <trkpt lat="45.68915" lon="2.87475">
        <ele>910.99</ele>
        <time>2021-08-14T16:24:33Z</time>
      </trkpt>
      <trkpt lat="45.68918" lon="2.87461">
        <ele>908.58</ele>
        <time>2021-08-14T16:24:35Z</time>
      </trkpt>
      <trkpt lat="45.68925" lon="2.87432">
        <ele>904.74</ele>
        <time>2021-08-14T16:24:39Z</time>
      </trkpt>
      <trkpt lat="45.68931" lon="2.87409">
        <ele>901.37</ele>
        <time>2021-08-14T16:24:42Z</time>
      </trkpt>
      <trkpt lat="45.68936" lon="2.87387">
        <ele>898.01</ele>
        <time>2021-08-14T16:24:46Z</time>
      </trkpt>
      <trkpt lat="45.68942" lon="2.87366">
        <ele>895.12</ele>
        <time>2021-08-14T16:24:49Z</time>
      </trkpt>
      <trkpt lat="45.68951" lon="2.87337">
        <ele>891.28</ele>
        <time>2021-08-14T16:24:53Z</time>
      </trkpt>
      <trkpt lat="45.68961" lon="2.87304">
        <ele>887.91</ele>
        <time>2021-08-14T16:24:57Z</time>
      </trkpt>
      <trkpt lat="45.68968" lon="2.87278">
        <ele>885.51</ele>
        <time>2021-08-14T16:25:00Z</time>
      </trkpt>
      <trkpt lat="45.6897" lon="2.87269">
        <ele>885.51</ele>
        <time>2021-08-14T16:25:01Z</time>
      </trkpt>
      <trkpt lat="45.6897" lon="2.8726">
        <ele>884.07</ele>
        <time>2021-08-14T16:25:02Z</time>
      </trkpt>
      <trkpt lat="45.6897" lon="2.87241">
        <ele>882.63</ele>
        <time>2021-08-14T16:25:04Z</time>
      </trkpt>
      <trkpt lat="45.68967" lon="2.87203">
        <ele>879.74</ele>
        <time>2021-08-14T16:25:08Z</time>
      </trkpt>
      <trkpt lat="45.68964" lon="2.87173">
        <ele>876.38</ele>
        <time>2021-08-14T16:25:12Z</time>
      </trkpt>
      <trkpt lat="45.6896" lon="2.87144">
        <ele>873.5</ele>
        <time>2021-08-14T16:25:17Z</time>
      </trkpt>
      <trkpt lat="45.68959" lon="2.87137">
        <ele>872.53</ele>
        <time>2021-08-14T16:25:18Z</time>
      </trkpt>
      <trkpt lat="45.68957" lon="2.87131">
        <ele>872.05</ele>
        <time>2021-08-14T16:25:19Z</time>
      </trkpt>
      <trkpt lat="45.68955" lon="2.87128">
        <ele>871.09</ele>
        <time>2021-08-14T16:25:20Z</time>
      </trkpt>
      <trkpt lat="45.68953" lon="2.87123">
        <ele>870.61</ele>
        <time>2021-08-14T16:25:21Z</time>
      </trkpt>
      <trkpt lat="45.68946" lon="2.87117">
        <ele>869.17</ele>
        <time>2021-08-14T16:25:24Z</time>
      </trkpt>
      <trkpt lat="45.68937" lon="2.87104">
        <ele>865.8</ele>
        <time>2021-08-14T16:25:28Z</time>
      </trkpt>
      <trkpt lat="45.68932" lon="2.8709">
        <ele>863.4</ele>
        <time>2021-08-14T16:25:31Z</time>
      </trkpt>
      <trkpt lat="45.68933" lon="2.87085">
        <ele>862.92</ele>
        <time>2021-08-14T16:25:32Z</time>
      </trkpt>
      <trkpt lat="45.68939" lon="2.87051">
        <ele>860.04</ele>
        <time>2021-08-14T16:25:37Z</time>
      </trkpt>
      <trkpt lat="45.68939" lon="2.87043">
        <ele>860.04</ele>
        <time>2021-08-14T16:25:38Z</time>
      </trkpt>
      <trkpt lat="45.68938" lon="2.87035">
        <ele>859.56</ele>
        <time>2021-08-14T16:25:39Z</time>
      </trkpt>
      <trkpt lat="45.68936" lon="2.87028">
        <ele>859.56</ele>
        <time>2021-08-14T16:25:40Z</time>
      </trkpt>
      <trkpt lat="45.68934" lon="2.87022">
        <ele>859.08</ele>
        <time>2021-08-14T16:25:41Z</time>
      </trkpt>
      <trkpt lat="45.68933" lon="2.87015">
        <ele>858.59</ele>
        <time>2021-08-14T16:25:42Z</time>
      </trkpt>
      <trkpt lat="45.68932" lon="2.87007">
        <ele>858.59</ele>
        <time>2021-08-14T16:25:43Z</time>
      </trkpt>
      <trkpt lat="45.68932" lon="2.86999">
        <ele>858.59</ele>
        <time>2021-08-14T16:25:44Z</time>
      </trkpt>
      <trkpt lat="45.68934" lon="2.86991">
        <ele>858.59</ele>
        <time>2021-08-14T16:25:45Z</time>
      </trkpt>
      <trkpt lat="45.68935" lon="2.86984">
        <ele>858.59</ele>
        <time>2021-08-14T16:25:46Z</time>
      </trkpt>
      <trkpt lat="45.68945" lon="2.86933">
        <ele>858.59</ele>
        <time>2021-08-14T16:25:54Z</time>
      </trkpt>
      <trkpt lat="45.68958" lon="2.86895">
        <ele>860.04</ele>
        <time>2021-08-14T16:26:02Z</time>
      </trkpt>
      <trkpt lat="45.68966" lon="2.86881">
        <ele>859.56</ele>
        <time>2021-08-14T16:26:05Z</time>
      </trkpt>
      <trkpt lat="45.68977" lon="2.86869">
        <ele>859.56</ele>
        <time>2021-08-14T16:26:08Z</time>
      </trkpt>
      <trkpt lat="45.68982" lon="2.86867">
        <ele>859.56</ele>
        <time>2021-08-14T16:26:09Z</time>
      </trkpt>
      <trkpt lat="45.68987" lon="2.86866">
        <ele>859.56</ele>
        <time>2021-08-14T16:26:10Z</time>
      </trkpt>
      <trkpt lat="45.68997" lon="2.86866">
        <ele>858.59</ele>
        <time>2021-08-14T16:26:12Z</time>
      </trkpt>
      <trkpt lat="45.69002" lon="2.86867">
        <ele>858.59</ele>
        <time>2021-08-14T16:26:13Z</time>
      </trkpt>
      <trkpt lat="45.69019" lon="2.86868">
        <ele>857.63</ele>
        <time>2021-08-14T16:26:16Z</time>
      </trkpt>
      <trkpt lat="45.69024" lon="2.86866">
        <ele>857.63</ele>
        <time>2021-08-14T16:26:17Z</time>
      </trkpt>
      <trkpt lat="45.69069" lon="2.86859">
        <ele>855.71</ele>
        <time>2021-08-14T16:26:25Z</time>
      </trkpt>
      <trkpt lat="45.69127" lon="2.8685">
        <ele>853.79</ele>
        <time>2021-08-14T16:26:35Z</time>
      </trkpt>
      <trkpt lat="45.69133" lon="2.86848">
        <ele>853.79</ele>
        <time>2021-08-14T16:26:36Z</time>
      </trkpt>
      <trkpt lat="45.69176" lon="2.86826">
        <ele>853.79</ele>
        <time>2021-08-14T16:26:44Z</time>
      </trkpt>
      <trkpt lat="45.69204" lon="2.86805">
        <ele>853.79</ele>
        <time>2021-08-14T16:26:50Z</time>
      </trkpt>
      <trkpt lat="45.69208" lon="2.86801">
        <ele>853.79</ele>
        <time>2021-08-14T16:26:51Z</time>
      </trkpt>
      <trkpt lat="45.69211" lon="2.86796">
        <ele>853.79</ele>
        <time>2021-08-14T16:26:52Z</time>
      </trkpt>
      <trkpt lat="45.69213" lon="2.86791">
        <ele>853.79</ele>
        <time>2021-08-14T16:26:53Z</time>
      </trkpt>
      <trkpt lat="45.69214" lon="2.86785">
        <ele>853.79</ele>
        <time>2021-08-14T16:26:54Z</time>
      </trkpt>
      <trkpt lat="45.69214" lon="2.86781">
        <ele>855.23</ele>
        <time>2021-08-14T16:26:55Z</time>
      </trkpt>
      <trkpt lat="45.69213" lon="2.86777">
        <ele>855.23</ele>
        <time>2021-08-14T16:26:56Z</time>
      </trkpt>
      <trkpt lat="45.69212" lon="2.86774">
        <ele>855.23</ele>
        <time>2021-08-14T16:26:57Z</time>
      </trkpt>
      <trkpt lat="45.69212" lon="2.86772">
        <ele>855.23</ele>
        <time>2021-08-14T16:26:58Z</time>
      </trkpt>
      <trkpt lat="45.69211" lon="2.86771">
        <ele>855.23</ele>
        <time>2021-08-14T16:26:59Z</time>
      </trkpt>
      <trkpt lat="45.6921" lon="2.86769">
        <ele>856.19</ele>
        <time>2021-08-14T16:27:00Z</time>
      </trkpt>
      <trkpt lat="45.6921" lon="2.86767">
        <ele>856.19</ele>
        <time>2021-08-14T16:27:01Z</time>
      </trkpt>
      <trkpt lat="45.69209" lon="2.86766">
        <ele>856.19</ele>
        <time>2021-08-14T16:27:02Z</time>
      </trkpt>
      <trkpt lat="45.69207" lon="2.86764">
        <ele>856.19</ele>
        <time>2021-08-14T16:27:03Z</time>
      </trkpt>
      <trkpt lat="45.69207" lon="2.86762">
        <ele>856.67</ele>
        <time>2021-08-14T16:27:04Z</time>
      </trkpt>
      <trkpt lat="45.69206" lon="2.8676">
        <ele>856.67</ele>
        <time>2021-08-14T16:27:05Z</time>
      </trkpt>
      <trkpt lat="45.69206" lon="2.86758">
        <ele>856.67</ele>
        <time>2021-08-14T16:27:06Z</time>
      </trkpt>
      <trkpt lat="45.69205" lon="2.86742">
        <ele>858.11</ele>
        <time>2021-08-14T16:27:13Z</time>
      </trkpt>
      <trkpt lat="45.69205" lon="2.8674">
        <ele>858.59</ele>
        <time>2021-08-14T16:27:14Z</time>
      </trkpt>
      <trkpt lat="45.69206" lon="2.86738">
        <ele>859.08</ele>
        <time>2021-08-14T16:27:15Z</time>
      </trkpt>
      <trkpt lat="45.69207" lon="2.86736">
        <ele>859.08</ele>
        <time>2021-08-14T16:27:16Z</time>
      </trkpt>
      <trkpt lat="45.69208" lon="2.86734">
        <ele>859.08</ele>
        <time>2021-08-14T16:27:17Z</time>
      </trkpt>
      <trkpt lat="45.69209" lon="2.86733">
        <ele>859.08</ele>
        <time>2021-08-14T16:27:18Z</time>
      </trkpt>
      <trkpt lat="45.6921" lon="2.86731">
        <ele>859.08</ele>
        <time>2021-08-14T16:27:19Z</time>
      </trkpt>
      <trkpt lat="45.69211" lon="2.86729">
        <ele>859.08</ele>
        <time>2021-08-14T16:27:20Z</time>
      </trkpt>
      <trkpt lat="45.69213" lon="2.86727">
        <ele>859.56</ele>
        <time>2021-08-14T16:27:21Z</time>
      </trkpt>
      <trkpt lat="45.69215" lon="2.86724">
        <ele>859.56</ele>
        <time>2021-08-14T16:27:22Z</time>
      </trkpt>
      <trkpt lat="45.69216" lon="2.86722">
        <ele>859.56</ele>
        <time>2021-08-14T16:27:23Z</time>
      </trkpt>
      <trkpt lat="45.69226" lon="2.86703">
        <ele>859.08</ele>
        <time>2021-08-14T16:27:30Z</time>
      </trkpt>
      <trkpt lat="45.69227" lon="2.86677">
        <ele>859.08</ele>
        <time>2021-08-14T16:27:37Z</time>
      </trkpt>
      <trkpt lat="45.69235" lon="2.86653">
        <ele>859.08</ele>
        <time>2021-08-14T16:27:44Z</time>
      </trkpt>
      <trkpt lat="45.69235" lon="2.86637">
        <ele>859.08</ele>
        <time>2021-08-14T16:27:49Z</time>
      </trkpt>
      <trkpt lat="45.69228" lon="2.8661">
        <ele>859.08</ele>
        <time>2021-08-14T16:27:55Z</time>
      </trkpt>
      <trkpt lat="45.69225" lon="2.86599">
        <ele>857.63</ele>
        <time>2021-08-14T16:27:57Z</time>
      </trkpt>
      <trkpt lat="45.69212" lon="2.86556">
        <ele>856.67</ele>
        <time>2021-08-14T16:28:04Z</time>
      </trkpt>
      <trkpt lat="45.69204" lon="2.86503">
        <ele>853.31</ele>
        <time>2021-08-14T16:28:10Z</time>
      </trkpt>
      <trkpt lat="45.69199" lon="2.86471">
        <ele>851.87</ele>
        <time>2021-08-14T16:28:13Z</time>
      </trkpt>
      <trkpt lat="45.69196" lon="2.86461">
        <ele>851.38</ele>
        <time>2021-08-14T16:28:14Z</time>
      </trkpt>
      <trkpt lat="45.69192" lon="2.86451">
        <ele>851.38</ele>
        <time>2021-08-14T16:28:15Z</time>
      </trkpt>
      <trkpt lat="45.69173" lon="2.86402">
        <ele>851.38</ele>
        <time>2021-08-14T16:28:21Z</time>
      </trkpt>
      <trkpt lat="45.69168" lon="2.86391">
        <ele>852.83</ele>
        <time>2021-08-14T16:28:23Z</time>
      </trkpt>
      <trkpt lat="45.6916" lon="2.8637">
        <ele>854.75</ele>
        <time>2021-08-14T16:28:29Z</time>
      </trkpt>
      <trkpt lat="45.69158" lon="2.86352">
        <ele>856.19</ele>
        <time>2021-08-14T16:28:36Z</time>
      </trkpt>
      <trkpt lat="45.69155" lon="2.86331">
        <ele>857.15</ele>
        <time>2021-08-14T16:28:44Z</time>
      </trkpt>
      <trkpt lat="45.69152" lon="2.86313">
        <ele>858.59</ele>
        <time>2021-08-14T16:28:51Z</time>
      </trkpt>
      <trkpt lat="45.69144" lon="2.86287">
        <ele>859.56</ele>
        <time>2021-08-14T16:29:01Z</time>
      </trkpt>
      <trkpt lat="45.69136" lon="2.86266">
        <ele>860.52</ele>
        <time>2021-08-14T16:29:11Z</time>
      </trkpt>
      <trkpt lat="45.69136" lon="2.86265">
        <ele>860.52</ele>
        <time>2021-08-14T16:29:22Z</time>
      </trkpt>
      <trkpt lat="45.69136" lon="2.86264">
        <ele>860.52</ele>
        <time>2021-08-14T16:29:40Z</time>
      </trkpt>
      <trkpt lat="45.69135" lon="2.86264">
        <ele>860.52</ele>
        <time>2021-08-14T16:29:59Z</time>
      </trkpt>
      <trkpt lat="45.69133" lon="2.86264">
        <ele>860.52</ele>
        <time>2021-08-14T16:30:14Z</time>
      </trkpt>
      <trkpt lat="45.69132" lon="2.86262">
        <ele>860.52</ele>
        <time>2021-08-14T16:30:15Z</time>
      </trkpt>
      <trkpt lat="45.69132" lon="2.86261">
        <ele>860.52</ele>
        <time>2021-08-14T16:30:16Z</time>
      </trkpt>
      <trkpt lat="45.69131" lon="2.86258">
        <ele>860.52</ele>
        <time>2021-08-14T16:30:17Z</time>
      </trkpt>
      <trkpt lat="45.69128" lon="2.86256">
        <ele>860.52</ele>
        <time>2021-08-14T16:30:19Z</time>
      </trkpt>
      <trkpt lat="45.69127" lon="2.86254">
        <ele>860.52</ele>
        <time>2021-08-14T16:30:20Z</time>
      </trkpt>
      <trkpt lat="45.69113" lon="2.86241">
        <ele>861.96</ele>
        <time>2021-08-14T16:30:29Z</time>
      </trkpt>
      <trkpt lat="45.69097" lon="2.8623">
        <ele>863.4</ele>
        <time>2021-08-14T16:30:38Z</time>
      </trkpt>
      <trkpt lat="45.69077" lon="2.86219">
        <ele>864.84</ele>
        <time>2021-08-14T16:30:49Z</time>
      </trkpt>
      <trkpt lat="45.69052" lon="2.86211">
        <ele>865.32</ele>
        <time>2021-08-14T16:30:59Z</time>
      </trkpt>
      <trkpt lat="45.69035" lon="2.86198">
        <ele>866.29</ele>
        <time>2021-08-14T16:31:07Z</time>
      </trkpt>
      <trkpt lat="45.69031" lon="2.86185">
        <ele>867.25</ele>
        <time>2021-08-14T16:31:12Z</time>
      </trkpt>
      <trkpt lat="45.69026" lon="2.86162">
        <ele>868.21</ele>
        <time>2021-08-14T16:31:22Z</time>
      </trkpt>
      <trkpt lat="45.69017" lon="2.86148">
        <ele>869.17</ele>
        <time>2021-08-14T16:31:30Z</time>
      </trkpt>
      <trkpt lat="45.69005" lon="2.8614">
        <ele>870.61</ele>
        <time>2021-08-14T16:31:38Z</time>
      </trkpt>
      <trkpt lat="45.6899" lon="2.86127">
        <ele>871.57</ele>
        <time>2021-08-14T16:31:47Z</time>
      </trkpt>
      <trkpt lat="45.68976" lon="2.86112">
        <ele>872.53</ele>
        <time>2021-08-14T16:31:56Z</time>
      </trkpt>
      <trkpt lat="45.68975" lon="2.86089">
        <ele>873.98</ele>
        <time>2021-08-14T16:32:06Z</time>
      </trkpt>
      <trkpt lat="45.68975" lon="2.8608">
        <ele>874.94</ele>
        <time>2021-08-14T16:32:10Z</time>
      </trkpt>
      <trkpt lat="45.68976" lon="2.86078">
        <ele>874.94</ele>
        <time>2021-08-14T16:32:11Z</time>
      </trkpt>
      <trkpt lat="45.68976" lon="2.86076">
        <ele>874.94</ele>
        <time>2021-08-14T16:32:12Z</time>
      </trkpt>
      <trkpt lat="45.68977" lon="2.86074">
        <ele>875.42</ele>
        <time>2021-08-14T16:32:13Z</time>
      </trkpt>
      <trkpt lat="45.68977" lon="2.86072">
        <ele>875.42</ele>
        <time>2021-08-14T16:32:14Z</time>
      </trkpt>
      <trkpt lat="45.68978" lon="2.86069">
        <ele>875.42</ele>
        <time>2021-08-14T16:32:15Z</time>
      </trkpt>
      <trkpt lat="45.68978" lon="2.86066">
        <ele>875.42</ele>
        <time>2021-08-14T16:32:16Z</time>
      </trkpt>
      <trkpt lat="45.68979" lon="2.86064">
        <ele>875.9</ele>
        <time>2021-08-14T16:32:17Z</time>
      </trkpt>
      <trkpt lat="45.68979" lon="2.86062">
        <ele>875.9</ele>
        <time>2021-08-14T16:32:18Z</time>
      </trkpt>
      <trkpt lat="45.6898" lon="2.8606">
        <ele>875.9</ele>
        <time>2021-08-14T16:32:19Z</time>
      </trkpt>
      <trkpt lat="45.6898" lon="2.86058">
        <ele>876.38</ele>
        <time>2021-08-14T16:32:20Z</time>
      </trkpt>
      <trkpt lat="45.68981" lon="2.86056">
        <ele>876.38</ele>
        <time>2021-08-14T16:32:21Z</time>
      </trkpt>
      <trkpt lat="45.68981" lon="2.86054">
        <ele>876.38</ele>
        <time>2021-08-14T16:32:22Z</time>
      </trkpt>
      <trkpt lat="45.68982" lon="2.86052">
        <ele>876.38</ele>
        <time>2021-08-14T16:32:23Z</time>
      </trkpt>
      <trkpt lat="45.68991" lon="2.86026">
        <ele>878.78</ele>
        <time>2021-08-14T16:32:37Z</time>
      </trkpt>
      <trkpt lat="45.68997" lon="2.8601">
        <ele>880.22</ele>
        <time>2021-08-14T16:32:47Z</time>
      </trkpt>
      <trkpt lat="45.68999" lon="2.86007">
        <ele>880.22</ele>
        <time>2021-08-14T16:32:49Z</time>
      </trkpt>
      <trkpt lat="45.68999" lon="2.86005">
        <ele>880.71</ele>
        <time>2021-08-14T16:32:50Z</time>
      </trkpt>
      <trkpt lat="45.69007" lon="2.85988">
        <ele>881.67</ele>
        <time>2021-08-14T16:33:00Z</time>
      </trkpt>
      <trkpt lat="45.69016" lon="2.85971">
        <ele>883.11</ele>
        <time>2021-08-14T16:33:09Z</time>
      </trkpt>
      <trkpt lat="45.69026" lon="2.85952">
        <ele>884.55</ele>
        <time>2021-08-14T16:33:19Z</time>
      </trkpt>
      <trkpt lat="45.69036" lon="2.85933">
        <ele>886.47</ele>
        <time>2021-08-14T16:33:30Z</time>
      </trkpt>
      <trkpt lat="45.69044" lon="2.85917">
        <ele>887.43</ele>
        <time>2021-08-14T16:33:39Z</time>
      </trkpt>
      <trkpt lat="45.69053" lon="2.85902">
        <ele>889.36</ele>
        <time>2021-08-14T16:33:48Z</time>
      </trkpt>
      <trkpt lat="45.69062" lon="2.85886">
        <ele>890.32</ele>
        <time>2021-08-14T16:33:58Z</time>
      </trkpt>
      <trkpt lat="45.69074" lon="2.85875">
        <ele>891.76</ele>
        <time>2021-08-14T16:34:07Z</time>
      </trkpt>
      <trkpt lat="45.69092" lon="2.85858">
        <ele>892.24</ele>
        <time>2021-08-14T16:34:18Z</time>
      </trkpt>
      <trkpt lat="45.69106" lon="2.85843">
        <ele>893.68</ele>
        <time>2021-08-14T16:34:27Z</time>
      </trkpt>
      <trkpt lat="45.69117" lon="2.8583">
        <ele>895.12</ele>
        <time>2021-08-14T16:34:37Z</time>
      </trkpt>
      <trkpt lat="45.69119" lon="2.85827">
        <ele>895.61</ele>
        <time>2021-08-14T16:34:39Z</time>
      </trkpt>
      <trkpt lat="45.6912" lon="2.85825">
        <ele>895.61</ele>
        <time>2021-08-14T16:34:40Z</time>
      </trkpt>
      <trkpt lat="45.6912" lon="2.85823">
        <ele>895.61</ele>
        <time>2021-08-14T16:34:41Z</time>
      </trkpt>
      <trkpt lat="45.69121" lon="2.85821">
        <ele>896.09</ele>
        <time>2021-08-14T16:34:42Z</time>
      </trkpt>
      <trkpt lat="45.69122" lon="2.8582">
        <ele>896.09</ele>
        <time>2021-08-14T16:34:43Z</time>
      </trkpt>
      <trkpt lat="45.69122" lon="2.85818">
        <ele>896.09</ele>
        <time>2021-08-14T16:34:44Z</time>
      </trkpt>
      <trkpt lat="45.69123" lon="2.85816">
        <ele>897.05</ele>
        <time>2021-08-14T16:34:45Z</time>
      </trkpt>
      <trkpt lat="45.69123" lon="2.85814">
        <ele>897.05</ele>
        <time>2021-08-14T16:34:46Z</time>
      </trkpt>
      <trkpt lat="45.69124" lon="2.85813">
        <ele>897.05</ele>
        <time>2021-08-14T16:34:47Z</time>
      </trkpt>
      <trkpt lat="45.69125" lon="2.85811">
        <ele>897.53</ele>
        <time>2021-08-14T16:34:48Z</time>
      </trkpt>
      <trkpt lat="45.69134" lon="2.85793">
        <ele>899.45</ele>
        <time>2021-08-14T16:34:59Z</time>
      </trkpt>
      <trkpt lat="45.69143" lon="2.85778">
        <ele>900.89</ele>
        <time>2021-08-14T16:35:08Z</time>
      </trkpt>
      <trkpt lat="45.69145" lon="2.85762">
        <ele>902.33</ele>
        <time>2021-08-14T16:35:17Z</time>
      </trkpt>
      <trkpt lat="45.69135" lon="2.8575">
        <ele>904.74</ele>
        <time>2021-08-14T16:35:27Z</time>
      </trkpt>
      <trkpt lat="45.69126" lon="2.85743">
        <ele>906.18</ele>
        <time>2021-08-14T16:35:35Z</time>
      </trkpt>
      <trkpt lat="45.69119" lon="2.85736">
        <ele>907.62</ele>
        <time>2021-08-14T16:35:42Z</time>
      </trkpt>
      <trkpt lat="45.69109" lon="2.85732">
        <ele>908.58</ele>
        <time>2021-08-14T16:35:50Z</time>
      </trkpt>
      <trkpt lat="45.69098" lon="2.85733">
        <ele>910.99</ele>
        <time>2021-08-14T16:36:00Z</time>
      </trkpt>
      <trkpt lat="45.69085" lon="2.85732">
        <ele>913.39</ele>
        <time>2021-08-14T16:36:10Z</time>
      </trkpt>
      <trkpt lat="45.69076" lon="2.8573">
        <ele>915.79</ele>
        <time>2021-08-14T16:36:19Z</time>
      </trkpt>
      <trkpt lat="45.69064" lon="2.85728">
        <ele>917.24</ele>
        <time>2021-08-14T16:36:28Z</time>
      </trkpt>
      <trkpt lat="45.69062" lon="2.85728">
        <ele>917.24</ele>
        <time>2021-08-14T16:36:29Z</time>
      </trkpt>
      <trkpt lat="45.69051" lon="2.85724">
        <ele>919.16</ele>
        <time>2021-08-14T16:36:37Z</time>
      </trkpt>
      <trkpt lat="45.69042" lon="2.85723">
        <ele>920.12</ele>
        <time>2021-08-14T16:36:45Z</time>
      </trkpt>
      <trkpt lat="45.69033" lon="2.85722">
        <ele>922.52</ele>
        <time>2021-08-14T16:36:55Z</time>
      </trkpt>
      <trkpt lat="45.69021" lon="2.85721">
        <ele>923.96</ele>
        <time>2021-08-14T16:37:05Z</time>
      </trkpt>
      <trkpt lat="45.69012" lon="2.85719">
        <ele>924.93</ele>
        <time>2021-08-14T16:37:13Z</time>
      </trkpt>
      <trkpt lat="45.69001" lon="2.85717">
        <ele>926.85</ele>
        <time>2021-08-14T16:37:23Z</time>
      </trkpt>
      <trkpt lat="45.68988" lon="2.85716">
        <ele>928.77</ele>
        <time>2021-08-14T16:37:33Z</time>
      </trkpt>
      <trkpt lat="45.68982" lon="2.85709">
        <ele>930.21</ele>
        <time>2021-08-14T16:37:41Z</time>
      </trkpt>
      <trkpt lat="45.68983" lon="2.85704">
        <ele>931.17</ele>
        <time>2021-08-14T16:37:48Z</time>
      </trkpt>
      <trkpt lat="45.68988" lon="2.85697">
        <ele>932.62</ele>
        <time>2021-08-14T16:37:58Z</time>
      </trkpt>
      <trkpt lat="45.68991" lon="2.85693">
        <ele>933.58</ele>
        <time>2021-08-14T16:38:07Z</time>
      </trkpt>
      <trkpt lat="45.68992" lon="2.85692">
        <ele>933.58</ele>
        <time>2021-08-14T16:38:17Z</time>
      </trkpt>
      <trkpt lat="45.68991" lon="2.85692">
        <ele>933.58</ele>
        <time>2021-08-14T16:38:19Z</time>
      </trkpt>
      <trkpt lat="45.68987" lon="2.85695">
        <ele>933.1</ele>
        <time>2021-08-14T16:38:24Z</time>
      </trkpt>
      <trkpt lat="45.6898" lon="2.85703">
        <ele>930.21</ele>
        <time>2021-08-14T16:38:27Z</time>
      </trkpt>
      <trkpt lat="45.68978" lon="2.85707">
        <ele>930.21</ele>
        <time>2021-08-14T16:38:28Z</time>
      </trkpt>
      <trkpt lat="45.68968" lon="2.85715">
        <ele>931.17</ele>
        <time>2021-08-14T16:38:32Z</time>
      </trkpt>
      <trkpt lat="45.68967" lon="2.85716">
        <ele>931.17</ele>
        <time>2021-08-14T16:38:33Z</time>
      </trkpt>
      <trkpt lat="45.6896" lon="2.85717">
        <ele>932.14</ele>
        <time>2021-08-14T16:38:40Z</time>
      </trkpt>
      <trkpt lat="45.6896" lon="2.85717">
        <ele>932.14</ele>
        <time>2021-08-14T16:38:41Z</time>
      </trkpt>
      <trkpt lat="45.68963" lon="2.85716">
        <ele>932.14</ele>
        <time>2021-08-14T16:38:43Z</time>
      </trkpt>
      <trkpt lat="45.68969" lon="2.85714">
        <ele>930.69</ele>
        <time>2021-08-14T16:38:45Z</time>
      </trkpt>
      <trkpt lat="45.68973" lon="2.85711">
        <ele>930.21</ele>
        <time>2021-08-14T16:38:46Z</time>
      </trkpt>
      <trkpt lat="45.68976" lon="2.85708">
        <ele>930.21</ele>
        <time>2021-08-14T16:38:47Z</time>
      </trkpt>
      <trkpt lat="45.68983" lon="2.85699">
        <ele>931.65</ele>
        <time>2021-08-14T16:38:51Z</time>
      </trkpt>
      <trkpt lat="45.68993" lon="2.8569">
        <ele>933.58</ele>
        <time>2021-08-14T16:38:59Z</time>
      </trkpt>
      <trkpt lat="45.69011" lon="2.85673">
        <ele>935.5</ele>
        <time>2021-08-14T16:39:07Z</time>
      </trkpt>
      <trkpt lat="45.69031" lon="2.85663">
        <ele>936.46</ele>
        <time>2021-08-14T16:39:14Z</time>
      </trkpt>
      <trkpt lat="45.69058" lon="2.85652">
        <ele>935.98</ele>
        <time>2021-08-14T16:39:22Z</time>
      </trkpt>
      <trkpt lat="45.69081" lon="2.85636">
        <ele>937.42</ele>
        <time>2021-08-14T16:39:30Z</time>
      </trkpt>
      <trkpt lat="45.69097" lon="2.85622">
        <ele>938.38</ele>
        <time>2021-08-14T16:39:37Z</time>
      </trkpt>
      <trkpt lat="45.69117" lon="2.85604">
        <ele>939.83</ele>
        <time>2021-08-14T16:39:45Z</time>
      </trkpt>
      <trkpt lat="45.69134" lon="2.85588">
        <ele>941.75</ele>
        <time>2021-08-14T16:39:53Z</time>
      </trkpt>
      <trkpt lat="45.69148" lon="2.85573">
        <ele>943.19</ele>
        <time>2021-08-14T16:40:00Z</time>
      </trkpt>
      <trkpt lat="45.69167" lon="2.85553">
        <ele>943.19</ele>
        <time>2021-08-14T16:40:09Z</time>
      </trkpt>
      <trkpt lat="45.69177" lon="2.85542">
        <ele>944.15</ele>
        <time>2021-08-14T16:40:15Z</time>
      </trkpt>
      <trkpt lat="45.69188" lon="2.8553">
        <ele>946.07</ele>
        <time>2021-08-14T16:40:23Z</time>
      </trkpt>
      <trkpt lat="45.69201" lon="2.85517">
        <ele>948</ele>
        <time>2021-08-14T16:40:31Z</time>
      </trkpt>
      <trkpt lat="45.69216" lon="2.85503">
        <ele>948.96</ele>
        <time>2021-08-14T16:40:39Z</time>
      </trkpt>
      <trkpt lat="45.69228" lon="2.85494">
        <ele>950.4</ele>
        <time>2021-08-14T16:40:46Z</time>
      </trkpt>
      <trkpt lat="45.69246" lon="2.85478">
        <ele>950.88</ele>
        <time>2021-08-14T16:40:55Z</time>
      </trkpt>
      <trkpt lat="45.6926" lon="2.85463">
        <ele>953.28</ele>
        <time>2021-08-14T16:41:04Z</time>
      </trkpt>
      <trkpt lat="45.69272" lon="2.85445">
        <ele>956.17</ele>
        <time>2021-08-14T16:41:13Z</time>
      </trkpt>
      <trkpt lat="45.69288" lon="2.85429">
        <ele>958.09</ele>
        <time>2021-08-14T16:41:21Z</time>
      </trkpt>
      <trkpt lat="45.69301" lon="2.85416">
        <ele>959.05</ele>
        <time>2021-08-14T16:41:29Z</time>
      </trkpt>
      <trkpt lat="45.69314" lon="2.85401">
        <ele>959.53</ele>
        <time>2021-08-14T16:41:37Z</time>
      </trkpt>
      <trkpt lat="45.6933" lon="2.85375">
        <ele>961.94</ele>
        <time>2021-08-14T16:41:46Z</time>
      </trkpt>
      <trkpt lat="45.69347" lon="2.85334">
        <ele>963.86</ele>
        <time>2021-08-14T16:41:56Z</time>
      </trkpt>
      <trkpt lat="45.69351" lon="2.85307">
        <ele>966.26</ele>
        <time>2021-08-14T16:42:04Z</time>
      </trkpt>
      <trkpt lat="45.69354" lon="2.85275">
        <ele>967.7</ele>
        <time>2021-08-14T16:42:14Z</time>
      </trkpt>
      <trkpt lat="45.69357" lon="2.85247">
        <ele>968.67</ele>
        <time>2021-08-14T16:42:23Z</time>
      </trkpt>
      <trkpt lat="45.69366" lon="2.85205">
        <ele>970.11</ele>
        <time>2021-08-14T16:42:33Z</time>
      </trkpt>
      <trkpt lat="45.69377" lon="2.85158">
        <ele>970.11</ele>
        <time>2021-08-14T16:42:41Z</time>
      </trkpt>
      <trkpt lat="45.6938" lon="2.85131">
        <ele>970.11</ele>
        <time>2021-08-14T16:42:45Z</time>
      </trkpt>
      <trkpt lat="45.6938" lon="2.85124">
        <ele>970.11</ele>
        <time>2021-08-14T16:42:46Z</time>
      </trkpt>
      <trkpt lat="45.69381" lon="2.85102">
        <ele>970.11</ele>
        <time>2021-08-14T16:42:49Z</time>
      </trkpt>
      <trkpt lat="45.69379" lon="2.8509">
        <ele>970.11</ele>
        <time>2021-08-14T16:42:51Z</time>
      </trkpt>
      <trkpt lat="45.69377" lon="2.85084">
        <ele>970.11</ele>
        <time>2021-08-14T16:42:52Z</time>
      </trkpt>
      <trkpt lat="45.69372" lon="2.85067">
        <ele>970.11</ele>
        <time>2021-08-14T16:42:55Z</time>
      </trkpt>
      <trkpt lat="45.69359" lon="2.8503">
        <ele>968.18</ele>
        <time>2021-08-14T16:43:01Z</time>
      </trkpt>
      <trkpt lat="45.6935" lon="2.85003">
        <ele>965.3</ele>
        <time>2021-08-14T16:43:04Z</time>
      </trkpt>
      <trkpt lat="45.69336" lon="2.84959">
        <ele>961.46</ele>
        <time>2021-08-14T16:43:08Z</time>
      </trkpt>
      <trkpt lat="45.69329" lon="2.84939">
        <ele>960.49</ele>
        <time>2021-08-14T16:43:10Z</time>
      </trkpt>
      <trkpt lat="45.69315" lon="2.84899">
        <ele>957.61</ele>
        <time>2021-08-14T16:43:15Z</time>
      </trkpt>
      <trkpt lat="45.69309" lon="2.84884">
        <ele>956.17</ele>
        <time>2021-08-14T16:43:17Z</time>
      </trkpt>
      <trkpt lat="45.69305" lon="2.84877">
        <ele>956.17</ele>
        <time>2021-08-14T16:43:18Z</time>
      </trkpt>
      <trkpt lat="45.69301" lon="2.84872">
        <ele>955.21</ele>
        <time>2021-08-14T16:43:19Z</time>
      </trkpt>
      <trkpt lat="45.69296" lon="2.84867">
        <ele>954.73</ele>
        <time>2021-08-14T16:43:20Z</time>
      </trkpt>
      <trkpt lat="45.69291" lon="2.84864">
        <ele>954.73</ele>
        <time>2021-08-14T16:43:21Z</time>
      </trkpt>
      <trkpt lat="45.69274" lon="2.8485">
        <ele>953.28</ele>
        <time>2021-08-14T16:43:24Z</time>
      </trkpt>
      <trkpt lat="45.69227" lon="2.84821">
        <ele>950.88</ele>
        <time>2021-08-14T16:43:31Z</time>
      </trkpt>
      <trkpt lat="45.6919" lon="2.84787">
        <ele>950.88</ele>
        <time>2021-08-14T16:43:37Z</time>
      </trkpt>
      <trkpt lat="45.69184" lon="2.84779">
        <ele>950.88</ele>
        <time>2021-08-14T16:43:38Z</time>
      </trkpt>
      <trkpt lat="45.69142" lon="2.84723">
        <ele>950.4</ele>
        <time>2021-08-14T16:43:46Z</time>
      </trkpt>
      <trkpt lat="45.69108" lon="2.84703">
        <ele>951.84</ele>
        <time>2021-08-14T16:43:52Z</time>
      </trkpt>
      <trkpt lat="45.69098" lon="2.847">
        <ele>952.32</ele>
        <time>2021-08-14T16:43:54Z</time>
      </trkpt>
      <trkpt lat="45.69062" lon="2.84678">
        <ele>953.28</ele>
        <time>2021-08-14T16:44:02Z</time>
      </trkpt>
      <trkpt lat="45.69034" lon="2.84649">
        <ele>952.32</ele>
        <time>2021-08-14T16:44:08Z</time>
      </trkpt>
      <trkpt lat="45.68994" lon="2.84606">
        <ele>948.96</ele>
        <time>2021-08-14T16:44:15Z</time>
      </trkpt>
      <trkpt lat="45.68958" lon="2.84566">
        <ele>945.59</ele>
        <time>2021-08-14T16:44:20Z</time>
      </trkpt>
      <trkpt lat="45.68912" lon="2.8452">
        <ele>941.75</ele>
        <time>2021-08-14T16:44:26Z</time>
      </trkpt>
      <trkpt lat="45.68881" lon="2.84494">
        <ele>939.83</ele>
        <time>2021-08-14T16:44:31Z</time>
      </trkpt>
      <trkpt lat="45.68875" lon="2.84491">
        <ele>938.86</ele>
        <time>2021-08-14T16:44:32Z</time>
      </trkpt>
      <trkpt lat="45.6887" lon="2.84489">
        <ele>938.38</ele>
        <time>2021-08-14T16:44:33Z</time>
      </trkpt>
      <trkpt lat="45.68837" lon="2.84482">
        <ele>935.98</ele>
        <time>2021-08-14T16:44:39Z</time>
      </trkpt>
      <trkpt lat="45.68808" lon="2.84475">
        <ele>934.54</ele>
        <time>2021-08-14T16:44:44Z</time>
      </trkpt>
      <trkpt lat="45.68791" lon="2.84467">
        <ele>932.14</ele>
        <time>2021-08-14T16:44:47Z</time>
      </trkpt>
      <trkpt lat="45.68772" lon="2.84466">
        <ele>928.77</ele>
        <time>2021-08-14T16:44:50Z</time>
      </trkpt>
      <trkpt lat="45.68751" lon="2.84463">
        <ele>925.41</ele>
        <time>2021-08-14T16:44:53Z</time>
      </trkpt>
      <trkpt lat="45.68727" lon="2.84457">
        <ele>921.08</ele>
        <time>2021-08-14T16:44:56Z</time>
      </trkpt>
      <trkpt lat="45.68702" lon="2.84447">
        <ele>917.24</ele>
        <time>2021-08-14T16:44:59Z</time>
      </trkpt>
      <trkpt lat="45.68682" lon="2.84442">
        <ele>914.35</ele>
        <time>2021-08-14T16:45:01Z</time>
      </trkpt>
      <trkpt lat="45.68673" lon="2.84442">
        <ele>912.91</ele>
        <time>2021-08-14T16:45:02Z</time>
      </trkpt>
      <trkpt lat="45.68643" lon="2.84444">
        <ele>910.03</ele>
        <time>2021-08-14T16:45:05Z</time>
      </trkpt>
      <trkpt lat="45.68615" lon="2.84442">
        <ele>906.66</ele>
        <time>2021-08-14T16:45:08Z</time>
      </trkpt>
      <trkpt lat="45.68587" lon="2.84434">
        <ele>902.82</ele>
        <time>2021-08-14T16:45:11Z</time>
      </trkpt>
      <trkpt lat="45.68551" lon="2.84423">
        <ele>899.45</ele>
        <time>2021-08-14T16:45:15Z</time>
      </trkpt>
      <trkpt lat="45.68518" lon="2.84414">
        <ele>896.09</ele>
        <time>2021-08-14T16:45:19Z</time>
      </trkpt>
      <trkpt lat="45.68505" lon="2.8441">
        <ele>895.61</ele>
        <time>2021-08-14T16:45:21Z</time>
      </trkpt>
      <trkpt lat="45.685" lon="2.84406">
        <ele>895.12</ele>
        <time>2021-08-14T16:45:22Z</time>
      </trkpt>
      <trkpt lat="45.68496" lon="2.84403">
        <ele>894.64</ele>
        <time>2021-08-14T16:45:23Z</time>
      </trkpt>
      <trkpt lat="45.6849" lon="2.84398">
        <ele>894.16</ele>
        <time>2021-08-14T16:45:24Z</time>
      </trkpt>
      <trkpt lat="45.68485" lon="2.84396">
        <ele>894.64</ele>
        <time>2021-08-14T16:45:25Z</time>
      </trkpt>
      <trkpt lat="45.68481" lon="2.84395">
        <ele>894.64</ele>
        <time>2021-08-14T16:45:26Z</time>
      </trkpt>
      <trkpt lat="45.68476" lon="2.84395">
        <ele>894.64</ele>
        <time>2021-08-14T16:45:27Z</time>
      </trkpt>
      <trkpt lat="45.68472" lon="2.84394">
        <ele>894.64</ele>
        <time>2021-08-14T16:45:28Z</time>
      </trkpt>
      <trkpt lat="45.68469" lon="2.84393">
        <ele>894.64</ele>
        <time>2021-08-14T16:45:29Z</time>
      </trkpt>
      <trkpt lat="45.68466" lon="2.84391">
        <ele>895.12</ele>
        <time>2021-08-14T16:45:30Z</time>
      </trkpt>
      <trkpt lat="45.68464" lon="2.84389">
        <ele>895.12</ele>
        <time>2021-08-14T16:45:31Z</time>
      </trkpt>
      <trkpt lat="45.68463" lon="2.84386">
        <ele>894.64</ele>
        <time>2021-08-14T16:45:32Z</time>
      </trkpt>
      <trkpt lat="45.68462" lon="2.84381">
        <ele>895.12</ele>
        <time>2021-08-14T16:45:33Z</time>
      </trkpt>
      <trkpt lat="45.68461" lon="2.84377">
        <ele>894.16</ele>
        <time>2021-08-14T16:45:34Z</time>
      </trkpt>
      <trkpt lat="45.68459" lon="2.84371">
        <ele>893.68</ele>
        <time>2021-08-14T16:45:35Z</time>
      </trkpt>
      <trkpt lat="45.68455" lon="2.84364">
        <ele>892.72</ele>
        <time>2021-08-14T16:45:36Z</time>
      </trkpt>
      <trkpt lat="45.68449" lon="2.84355">
        <ele>892.24</ele>
        <time>2021-08-14T16:45:38Z</time>
      </trkpt>
      <trkpt lat="45.68438" lon="2.84345">
        <ele>891.28</ele>
        <time>2021-08-14T16:45:42Z</time>
      </trkpt>
      <trkpt lat="45.68438" lon="2.84345">
        <ele>891.28</ele>
        <time>2021-08-14T16:45:52Z</time>
      </trkpt>
      <trkpt lat="45.68438" lon="2.84343">
        <ele>890.8</ele>
        <time>2021-08-14T16:46:09Z</time>
      </trkpt>
      <trkpt lat="45.68437" lon="2.84343">
        <ele>890.8</ele>
        <time>2021-08-14T16:46:13Z</time>
      </trkpt>
      <trkpt lat="45.68424" lon="2.84334">
        <ele>890.32</ele>
        <time>2021-08-14T16:46:19Z</time>
      </trkpt>
      <trkpt lat="45.68392" lon="2.84306">
        <ele>887.43</ele>
        <time>2021-08-14T16:46:26Z</time>
      </trkpt>
      <trkpt lat="45.68363" lon="2.84285">
        <ele>885.03</ele>
        <time>2021-08-14T16:46:32Z</time>
      </trkpt>
      <trkpt lat="45.6836" lon="2.84279">
        <ele>885.03</ele>
        <time>2021-08-14T16:46:33Z</time>
      </trkpt>
      <trkpt lat="45.68357" lon="2.84272">
        <ele>884.07</ele>
        <time>2021-08-14T16:46:34Z</time>
      </trkpt>
      <trkpt lat="45.68346" lon="2.84233">
        <ele>882.63</ele>
        <time>2021-08-14T16:46:41Z</time>
      </trkpt>
      <trkpt lat="45.68331" lon="2.84205">
        <ele>882.15</ele>
        <time>2021-08-14T16:46:49Z</time>
      </trkpt>
      <trkpt lat="45.68325" lon="2.84193">
        <ele>881.67</ele>
        <time>2021-08-14T16:46:54Z</time>
      </trkpt>
      <trkpt lat="45.68323" lon="2.84193">
        <ele>881.67</ele>
        <time>2021-08-14T16:46:55Z</time>
      </trkpt>
      <trkpt lat="45.68321" lon="2.84195">
        <ele>881.67</ele>
        <time>2021-08-14T16:46:56Z</time>
      </trkpt>
      <trkpt lat="45.68319" lon="2.84196">
        <ele>881.67</ele>
        <time>2021-08-14T16:46:57Z</time>
      </trkpt>
      <trkpt lat="45.68318" lon="2.84198">
        <ele>881.67</ele>
        <time>2021-08-14T16:46:58Z</time>
      </trkpt>
      <trkpt lat="45.68316" lon="2.84199">
        <ele>881.67</ele>
        <time>2021-08-14T16:46:59Z</time>
      </trkpt>
      <trkpt lat="45.68315" lon="2.842">
        <ele>881.67</ele>
        <time>2021-08-14T16:47:00Z</time>
      </trkpt>
      <trkpt lat="45.68316" lon="2.84204">
        <ele>881.67</ele>
        <time>2021-08-14T16:47:05Z</time>
      </trkpt>
      <trkpt lat="45.68314" lon="2.84205">
        <ele>881.67</ele>
        <time>2021-08-14T16:47:09Z</time>
      </trkpt>
      <trkpt lat="45.68314" lon="2.84203">
        <ele>881.67</ele>
        <time>2021-08-14T16:47:20Z</time>
      </trkpt>
      <trkpt lat="45.68312" lon="2.84197">
        <ele>881.67</ele>
        <time>2021-08-14T16:47:28Z</time>
      </trkpt>
      <trkpt lat="45.68311" lon="2.84193">
        <ele>881.19</ele>
        <time>2021-08-14T16:47:40Z</time>
      </trkpt>
      <trkpt lat="45.6831" lon="2.84191">
        <ele>881.19</ele>
        <time>2021-08-14T16:47:50Z</time>
      </trkpt>
      <trkpt lat="45.68309" lon="2.84188">
        <ele>881.19</ele>
        <time>2021-08-14T16:48:01Z</time>
      </trkpt>
      <trkpt lat="45.68309" lon="2.84182">
        <ele>881.19</ele>
        <time>2021-08-14T16:48:15Z</time>
      </trkpt>
      <trkpt lat="45.68308" lon="2.84181">
        <ele>881.19</ele>
        <time>2021-08-14T16:48:28Z</time>
      </trkpt>
      <trkpt lat="45.68307" lon="2.84178">
        <ele>881.19</ele>
        <time>2021-08-14T16:48:39Z</time>
      </trkpt>
      <trkpt lat="45.68306" lon="2.84175">
        <ele>881.19</ele>
        <time>2021-08-14T16:48:54Z</time>
      </trkpt>
      <trkpt lat="45.68306" lon="2.84174">
        <ele>881.19</ele>
        <time>2021-08-14T16:49:04Z</time>
      </trkpt>
      <trkpt lat="45.68304" lon="2.8417">
        <ele>881.19</ele>
        <time>2021-08-14T16:49:17Z</time>
      </trkpt>
      <trkpt lat="45.68303" lon="2.84167">
        <ele>881.19</ele>
        <time>2021-08-14T16:49:29Z</time>
      </trkpt>
      <trkpt lat="45.68303" lon="2.84164">
        <ele>881.19</ele>
        <time>2021-08-14T16:49:43Z</time>
      </trkpt>
      <trkpt lat="45.68302" lon="2.84162">
        <ele>881.19</ele>
        <time>2021-08-14T16:49:57Z</time>
      </trkpt>
      <trkpt lat="45.68301" lon="2.8416">
        <ele>881.19</ele>
        <time>2021-08-14T16:50:12Z</time>
      </trkpt>
      <trkpt lat="45.68302" lon="2.8416">
        <ele>881.19</ele>
        <time>2021-08-14T16:50:29Z</time>
      </trkpt>
      <trkpt lat="45.68301" lon="2.84158">
        <ele>881.19</ele>
        <time>2021-08-14T16:50:41Z</time>
      </trkpt>
      <trkpt lat="45.68301" lon="2.84158">
        <ele>881.19</ele>
        <time>2021-08-14T16:50:52Z</time>
      </trkpt>
      <trkpt lat="45.68302" lon="2.84157">
        <ele>881.19</ele>
        <time>2021-08-14T16:51:04Z</time>
      </trkpt>
      <trkpt lat="45.68303" lon="2.84155">
        <ele>881.19</ele>
        <time>2021-08-14T16:51:18Z</time>
      </trkpt>
      <trkpt lat="45.68303" lon="2.84156">
        <ele>881.19</ele>
        <time>2021-08-14T16:51:31Z</time>
      </trkpt>
      <trkpt lat="45.68304" lon="2.84156">
        <ele>881.19</ele>
        <time>2021-08-14T16:51:39Z</time>
      </trkpt>
      <trkpt lat="45.68305" lon="2.84157">
        <ele>881.19</ele>
        <time>2021-08-14T16:51:48Z</time>
      </trkpt>
      <trkpt lat="45.68305" lon="2.84156">
        <ele>881.19</ele>
        <time>2021-08-14T16:51:58Z</time>
      </trkpt>
      <trkpt lat="45.68304" lon="2.84154">
        <ele>881.19</ele>
        <time>2021-08-14T16:52:03Z</time>
      </trkpt>
      <trkpt lat="45.68303" lon="2.84156">
        <ele>881.19</ele>
        <time>2021-08-14T16:52:04Z</time>
      </trkpt>
      <trkpt lat="45.68303" lon="2.84159">
        <ele>881.19</ele>
        <time>2021-08-14T16:52:08Z</time>
      </trkpt>
      <trkpt lat="45.68302" lon="2.84155">
        <ele>881.19</ele>
        <time>2021-08-14T16:52:28Z</time>
      </trkpt>
      <trkpt lat="45.683" lon="2.84152">
        <ele>881.19</ele>
        <time>2021-08-14T16:52:45Z</time>
      </trkpt>
      <trkpt lat="45.68298" lon="2.84146">
        <ele>880.71</ele>
        <time>2021-08-14T16:53:01Z</time>
      </trkpt>
      <trkpt lat="45.68299" lon="2.84147">
        <ele>880.71</ele>
        <time>2021-08-14T16:53:18Z</time>
      </trkpt>
      <trkpt lat="45.68299" lon="2.84146">
        <ele>880.71</ele>
        <time>2021-08-14T16:53:35Z</time>
      </trkpt>
      <trkpt lat="45.68299" lon="2.84146">
        <ele>880.71</ele>
        <time>2021-08-14T16:53:47Z</time>
      </trkpt>
      <trkpt lat="45.68299" lon="2.84149">
        <ele>880.71</ele>
        <time>2021-08-14T16:54:09Z</time>
      </trkpt>
      <trkpt lat="45.683" lon="2.8415">
        <ele>880.71</ele>
        <time>2021-08-14T16:54:23Z</time>
      </trkpt>
      <trkpt lat="45.683" lon="2.84152">
        <ele>880.71</ele>
        <time>2021-08-14T16:54:40Z</time>
      </trkpt>
      <trkpt lat="45.683" lon="2.84151">
        <ele>880.71</ele>
        <time>2021-08-14T16:54:55Z</time>
      </trkpt>
      <trkpt lat="45.683" lon="2.84153">
        <ele>880.71</ele>
        <time>2021-08-14T16:55:05Z</time>
      </trkpt>
      <trkpt lat="45.683" lon="2.84154">
        <ele>880.71</ele>
        <time>2021-08-14T16:55:15Z</time>
      </trkpt>
      <trkpt lat="45.68299" lon="2.84152">
        <ele>880.71</ele>
        <time>2021-08-14T16:55:28Z</time>
      </trkpt>
      <trkpt lat="45.68298" lon="2.84151">
        <ele>880.71</ele>
        <time>2021-08-14T16:55:39Z</time>
      </trkpt>
      <trkpt lat="45.683" lon="2.84152">
        <ele>880.71</ele>
        <time>2021-08-14T16:55:53Z</time>
      </trkpt>
      <trkpt lat="45.68299" lon="2.84149">
        <ele>880.22</ele>
        <time>2021-08-14T16:56:10Z</time>
      </trkpt>
      <trkpt lat="45.68299" lon="2.84149">
        <ele>880.22</ele>
        <time>2021-08-14T16:56:19Z</time>
      </trkpt>
      <trkpt lat="45.68299" lon="2.8415">
        <ele>880.22</ele>
        <time>2021-08-14T16:56:31Z</time>
      </trkpt>
      <trkpt lat="45.68299" lon="2.84153">
        <ele>880.22</ele>
        <time>2021-08-14T16:56:43Z</time>
      </trkpt>
      <trkpt lat="45.683" lon="2.84156">
        <ele>880.22</ele>
        <time>2021-08-14T16:56:55Z</time>
      </trkpt>
      <trkpt lat="45.683" lon="2.84157">
        <ele>881.67</ele>
        <time>2021-08-14T16:57:04Z</time>
      </trkpt>
      <trkpt lat="45.68301" lon="2.84158">
        <ele>881.67</ele>
        <time>2021-08-14T16:57:16Z</time>
      </trkpt>
      <trkpt lat="45.68301" lon="2.84159">
        <ele>881.67</ele>
        <time>2021-08-14T16:57:35Z</time>
      </trkpt>
      <trkpt lat="45.68301" lon="2.8416">
        <ele>881.67</ele>
        <time>2021-08-14T16:57:48Z</time>
      </trkpt>
      <trkpt lat="45.68301" lon="2.84162">
        <ele>881.19</ele>
        <time>2021-08-14T16:58:02Z</time>
      </trkpt>
      <trkpt lat="45.68302" lon="2.84163">
        <ele>881.19</ele>
        <time>2021-08-14T16:58:15Z</time>
      </trkpt>
      <trkpt lat="45.68302" lon="2.84163">
        <ele>881.19</ele>
        <time>2021-08-14T16:58:27Z</time>
      </trkpt>
      <trkpt lat="45.68303" lon="2.84165">
        <ele>881.19</ele>
        <time>2021-08-14T16:58:37Z</time>
      </trkpt>
      <trkpt lat="45.68303" lon="2.84167">
        <ele>881.19</ele>
        <time>2021-08-14T16:58:50Z</time>
      </trkpt>
      <trkpt lat="45.68304" lon="2.84169">
        <ele>881.19</ele>
        <time>2021-08-14T16:59:04Z</time>
      </trkpt>
      <trkpt lat="45.68304" lon="2.84168">
        <ele>881.19</ele>
        <time>2021-08-14T16:59:24Z</time>
      </trkpt>
      <trkpt lat="45.68304" lon="2.84172">
        <ele>881.19</ele>
        <time>2021-08-14T16:59:39Z</time>
      </trkpt>
      <trkpt lat="45.68306" lon="2.84176">
        <ele>881.19</ele>
        <time>2021-08-14T16:59:45Z</time>
      </trkpt>
      <trkpt lat="45.6831" lon="2.8418">
        <ele>881.19</ele>
        <time>2021-08-14T16:59:49Z</time>
      </trkpt>
      <trkpt lat="45.6831" lon="2.84181">
        <ele>881.19</ele>
        <time>2021-08-14T16:59:50Z</time>
      </trkpt>
      <trkpt lat="45.68313" lon="2.84171">
        <ele>881.19</ele>
        <time>2021-08-14T17:00:01Z</time>
      </trkpt>
      <trkpt lat="45.68314" lon="2.84165">
        <ele>881.19</ele>
        <time>2021-08-14T17:00:06Z</time>
      </trkpt>
      <trkpt lat="45.68315" lon="2.84164">
        <ele>881.19</ele>
        <time>2021-08-14T17:00:07Z</time>
      </trkpt>
      <trkpt lat="45.68315" lon="2.84162">
        <ele>881.19</ele>
        <time>2021-08-14T17:00:08Z</time>
      </trkpt>
      <trkpt lat="45.68316" lon="2.84157">
        <ele>881.19</ele>
        <time>2021-08-14T17:00:17Z</time>
      </trkpt>
      <trkpt lat="45.68316" lon="2.84155">
        <ele>881.19</ele>
        <time>2021-08-14T17:00:41Z</time>
      </trkpt>
      <trkpt lat="45.68316" lon="2.84154">
        <ele>881.19</ele>
        <time>2021-08-14T17:00:59Z</time>
      </trkpt>
      <trkpt lat="45.68314" lon="2.84156">
        <ele>881.19</ele>
        <time>2021-08-14T17:01:27Z</time>
      </trkpt>
      <trkpt lat="45.68315" lon="2.84156">
        <ele>881.19</ele>
        <time>2021-08-14T17:01:45Z</time>
      </trkpt>
      <trkpt lat="45.68316" lon="2.84155">
        <ele>881.19</ele>
        <time>2021-08-14T17:01:52Z</time>
      </trkpt>
      <trkpt lat="45.68315" lon="2.84154">
        <ele>881.19</ele>
        <time>2021-08-14T17:01:58Z</time>
      </trkpt>
      <trkpt lat="45.68313" lon="2.84157">
        <ele>880.71</ele>
        <time>2021-08-14T17:02:22Z</time>
      </trkpt>
      <trkpt lat="45.68314" lon="2.84159">
        <ele>880.71</ele>
        <time>2021-08-14T17:02:37Z</time>
      </trkpt>
      <trkpt lat="45.68315" lon="2.84159">
        <ele>880.71</ele>
        <time>2021-08-14T17:03:03Z</time>
      </trkpt>
      <trkpt lat="45.68318" lon="2.84159">
        <ele>880.71</ele>
        <time>2021-08-14T17:03:28Z</time>
      </trkpt>
      <trkpt lat="45.68315" lon="2.84156">
        <ele>880.22</ele>
        <time>2021-08-14T17:03:45Z</time>
      </trkpt>
      <trkpt lat="45.68312" lon="2.84158">
        <ele>880.22</ele>
        <time>2021-08-14T17:04:15Z</time>
      </trkpt>
      <trkpt lat="45.68315" lon="2.8416">
        <ele>880.22</ele>
        <time>2021-08-14T17:04:33Z</time>
      </trkpt>
      <trkpt lat="45.68313" lon="2.84161">
        <ele>880.22</ele>
        <time>2021-08-14T17:04:56Z</time>
      </trkpt>
      <trkpt lat="45.68311" lon="2.8416">
        <ele>880.22</ele>
        <time>2021-08-14T17:05:14Z</time>
      </trkpt>
      <trkpt lat="45.68313" lon="2.8416">
        <ele>880.22</ele>
        <time>2021-08-14T17:05:34Z</time>
      </trkpt>
      <trkpt lat="45.68315" lon="2.84159">
        <ele>879.74</ele>
        <time>2021-08-14T17:05:48Z</time>
      </trkpt>
      <trkpt lat="45.68316" lon="2.84157">
        <ele>879.74</ele>
        <time>2021-08-14T17:06:09Z</time>
      </trkpt>
      <trkpt lat="45.68316" lon="2.84159">
        <ele>879.74</ele>
        <time>2021-08-14T17:06:24Z</time>
      </trkpt>
      <trkpt lat="45.68316" lon="2.84158">
        <ele>879.74</ele>
        <time>2021-08-14T17:06:39Z</time>
      </trkpt>
      <trkpt lat="45.68314" lon="2.8416">
        <ele>879.74</ele>
        <time>2021-08-14T17:06:55Z</time>
      </trkpt>
      <trkpt lat="45.68314" lon="2.84159">
        <ele>879.26</ele>
        <time>2021-08-14T17:07:01Z</time>
      </trkpt>
      <trkpt lat="45.68316" lon="2.84155">
        <ele>879.26</ele>
        <time>2021-08-14T17:07:21Z</time>
      </trkpt>
      <trkpt lat="45.68318" lon="2.84153">
        <ele>879.26</ele>
        <time>2021-08-14T17:07:31Z</time>
      </trkpt>
      <trkpt lat="45.68315" lon="2.84154">
        <ele>879.26</ele>
        <time>2021-08-14T17:07:48Z</time>
      </trkpt>
      <trkpt lat="45.68314" lon="2.8416">
        <ele>879.26</ele>
        <time>2021-08-14T17:08:11Z</time>
      </trkpt>
      <trkpt lat="45.68311" lon="2.84162">
        <ele>879.26</ele>
        <time>2021-08-14T17:08:33Z</time>
      </trkpt>
      <trkpt lat="45.68311" lon="2.84159">
        <ele>879.26</ele>
        <time>2021-08-14T17:08:52Z</time>
      </trkpt>
      <trkpt lat="45.68313" lon="2.8416">
        <ele>878.78</ele>
        <time>2021-08-14T17:09:08Z</time>
      </trkpt>
      <trkpt lat="45.68312" lon="2.8416">
        <ele>878.78</ele>
        <time>2021-08-14T17:09:21Z</time>
      </trkpt>
      <trkpt lat="45.68314" lon="2.84157">
        <ele>878.78</ele>
        <time>2021-08-14T17:09:41Z</time>
      </trkpt>
      <trkpt lat="45.68314" lon="2.84155">
        <ele>878.78</ele>
        <time>2021-08-14T17:09:59Z</time>
      </trkpt>
      <trkpt lat="45.68314" lon="2.84152">
        <ele>878.78</ele>
        <time>2021-08-14T17:10:17Z</time>
      </trkpt>
      <trkpt lat="45.68312" lon="2.84153">
        <ele>878.78</ele>
        <time>2021-08-14T17:10:35Z</time>
      </trkpt>
      <trkpt lat="45.68313" lon="2.84156">
        <ele>878.78</ele>
        <time>2021-08-14T17:10:56Z</time>
      </trkpt>
      <trkpt lat="45.68313" lon="2.84155">
        <ele>879.26</ele>
        <time>2021-08-14T17:11:07Z</time>
      </trkpt>
      <trkpt lat="45.68312" lon="2.84155">
        <ele>879.26</ele>
        <time>2021-08-14T17:11:17Z</time>
      </trkpt>
      <trkpt lat="45.68312" lon="2.84152">
        <ele>878.78</ele>
        <time>2021-08-14T17:11:32Z</time>
      </trkpt>
      <trkpt lat="45.68314" lon="2.84153">
        <ele>878.78</ele>
        <time>2021-08-14T17:11:44Z</time>
      </trkpt>
      <trkpt lat="45.68316" lon="2.84155">
        <ele>878.78</ele>
        <time>2021-08-14T17:11:48Z</time>
      </trkpt>
      <trkpt lat="45.68316" lon="2.84156">
        <ele>878.78</ele>
        <time>2021-08-14T17:11:49Z</time>
      </trkpt>
      <trkpt lat="45.68316" lon="2.84158">
        <ele>878.78</ele>
        <time>2021-08-14T17:11:50Z</time>
      </trkpt>
      <trkpt lat="45.68316" lon="2.84158">
        <ele>878.78</ele>
        <time>2021-08-14T17:11:57Z</time>
      </trkpt>
      <trkpt lat="45.68317" lon="2.84157">
        <ele>878.78</ele>
        <time>2021-08-14T17:12:20Z</time>
      </trkpt>
      <trkpt lat="45.68318" lon="2.84156">
        <ele>878.78</ele>
        <time>2021-08-14T17:12:38Z</time>
      </trkpt>
      <trkpt lat="45.68317" lon="2.84159">
        <ele>878.78</ele>
        <time>2021-08-14T17:12:57Z</time>
      </trkpt>
      <trkpt lat="45.68316" lon="2.84159">
        <ele>878.78</ele>
        <time>2021-08-14T17:13:16Z</time>
      </trkpt>
      <trkpt lat="45.68316" lon="2.84161">
        <ele>878.78</ele>
        <time>2021-08-14T17:13:30Z</time>
      </trkpt>
      <trkpt lat="45.68315" lon="2.84162">
        <ele>878.78</ele>
        <time>2021-08-14T17:13:45Z</time>
      </trkpt>
      <trkpt lat="45.68317" lon="2.84159">
        <ele>878.78</ele>
        <time>2021-08-14T17:14:02Z</time>
      </trkpt>
      <trkpt lat="45.6832" lon="2.84157">
        <ele>878.78</ele>
        <time>2021-08-14T17:14:20Z</time>
      </trkpt>
      <trkpt lat="45.6832" lon="2.84155">
        <ele>878.78</ele>
        <time>2021-08-14T17:14:41Z</time>
      </trkpt>
      <trkpt lat="45.68319" lon="2.84153">
        <ele>878.78</ele>
        <time>2021-08-14T17:14:52Z</time>
      </trkpt>
      <trkpt lat="45.68317" lon="2.84155">
        <ele>878.78</ele>
        <time>2021-08-14T17:15:07Z</time>
      </trkpt>
      <trkpt lat="45.68315" lon="2.84157">
        <ele>878.78</ele>
        <time>2021-08-14T17:15:18Z</time>
      </trkpt>
      <trkpt lat="45.68315" lon="2.84156">
        <ele>878.78</ele>
        <time>2021-08-14T17:15:32Z</time>
      </trkpt>
      <trkpt lat="45.68313" lon="2.84156">
        <ele>878.78</ele>
        <time>2021-08-14T17:15:45Z</time>
      </trkpt>
      <trkpt lat="45.68311" lon="2.84154">
        <ele>878.78</ele>
        <time>2021-08-14T17:16:01Z</time>
      </trkpt>
      <trkpt lat="45.68312" lon="2.84156">
        <ele>878.3</ele>
        <time>2021-08-14T17:16:25Z</time>
      </trkpt>
      <trkpt lat="45.68313" lon="2.84155">
        <ele>878.3</ele>
        <time>2021-08-14T17:16:53Z</time>
      </trkpt>
      <trkpt lat="45.68315" lon="2.84154">
        <ele>878.3</ele>
        <time>2021-08-14T17:17:18Z</time>
      </trkpt>
      <trkpt lat="45.68315" lon="2.84153">
        <ele>878.3</ele>
        <time>2021-08-14T17:17:43Z</time>
      </trkpt>
      <trkpt lat="45.68314" lon="2.84155">
        <ele>877.82</ele>
        <time>2021-08-14T17:17:59Z</time>
      </trkpt>
      <trkpt lat="45.68315" lon="2.84159">
        <ele>877.82</ele>
        <time>2021-08-14T17:18:25Z</time>
      </trkpt>
      <trkpt lat="45.68317" lon="2.84159">
        <ele>877.82</ele>
        <time>2021-08-14T17:18:50Z</time>
      </trkpt>
      <trkpt lat="45.68316" lon="2.84153">
        <ele>877.82</ele>
        <time>2021-08-14T17:19:11Z</time>
      </trkpt>
      <trkpt lat="45.68318" lon="2.84151">
        <ele>877.82</ele>
        <time>2021-08-14T17:19:34Z</time>
      </trkpt>
      <trkpt lat="45.68316" lon="2.84154">
        <ele>877.82</ele>
        <time>2021-08-14T17:19:47Z</time>
      </trkpt>
      <trkpt lat="45.68314" lon="2.84158">
        <ele>877.34</ele>
        <time>2021-08-14T17:20:08Z</time>
      </trkpt>
      <trkpt lat="45.68313" lon="2.84158">
        <ele>877.34</ele>
        <time>2021-08-14T17:20:25Z</time>
      </trkpt>
      <trkpt lat="45.68313" lon="2.84159">
        <ele>877.34</ele>
        <time>2021-08-14T17:20:39Z</time>
      </trkpt>
      <trkpt lat="45.68314" lon="2.84158">
        <ele>877.34</ele>
        <time>2021-08-14T17:20:54Z</time>
      </trkpt>
      <trkpt lat="45.68313" lon="2.84157">
        <ele>877.34</ele>
        <time>2021-08-14T17:21:10Z</time>
      </trkpt>
      <trkpt lat="45.68315" lon="2.84153">
        <ele>877.34</ele>
        <time>2021-08-14T17:21:33Z</time>
      </trkpt>
      <trkpt lat="45.68314" lon="2.8415">
        <ele>877.34</ele>
        <time>2021-08-14T17:21:52Z</time>
      </trkpt>
      <trkpt lat="45.68319" lon="2.84152">
        <ele>877.82</ele>
        <time>2021-08-14T17:22:20Z</time>
      </trkpt>
      <trkpt lat="45.68316" lon="2.84157">
        <ele>877.82</ele>
        <time>2021-08-14T17:22:37Z</time>
      </trkpt>
      <trkpt lat="45.68317" lon="2.84156">
        <ele>877.82</ele>
        <time>2021-08-14T17:23:04Z</time>
      </trkpt>
      <trkpt lat="45.68315" lon="2.84156">
        <ele>878.3</ele>
        <time>2021-08-14T17:23:20Z</time>
      </trkpt>
      <trkpt lat="45.68315" lon="2.84156">
        <ele>878.78</ele>
        <time>2021-08-14T17:23:39Z</time>
      </trkpt>
      <trkpt lat="45.68316" lon="2.84155">
        <ele>878.78</ele>
        <time>2021-08-14T17:23:59Z</time>
      </trkpt>
      <trkpt lat="45.68319" lon="2.84157">
        <ele>878.78</ele>
        <time>2021-08-14T17:24:19Z</time>
      </trkpt>
      <trkpt lat="45.68318" lon="2.84155">
        <ele>878.78</ele>
        <time>2021-08-14T17:24:39Z</time>
      </trkpt>
      <trkpt lat="45.6832" lon="2.84155">
        <ele>878.78</ele>
        <time>2021-08-14T17:24:59Z</time>
      </trkpt>
      <trkpt lat="45.68317" lon="2.84157">
        <ele>878.78</ele>
        <time>2021-08-14T17:25:20Z</time>
      </trkpt>
      <trkpt lat="45.68317" lon="2.84157">
        <ele>878.78</ele>
        <time>2021-08-14T17:25:42Z</time>
      </trkpt>
      <trkpt lat="45.68317" lon="2.84157">
        <ele>878.78</ele>
        <time>2021-08-14T17:25:53Z</time>
      </trkpt>
      <trkpt lat="45.68317" lon="2.84157">
        <ele>878.3</ele>
        <time>2021-08-14T17:26:10Z</time>
      </trkpt>
      <trkpt lat="45.68316" lon="2.84156">
        <ele>878.3</ele>
        <time>2021-08-14T17:26:35Z</time>
      </trkpt>
      <trkpt lat="45.68317" lon="2.84159">
        <ele>878.3</ele>
        <time>2021-08-14T17:26:52Z</time>
      </trkpt>
      <trkpt lat="45.68317" lon="2.84157">
        <ele>878.3</ele>
        <time>2021-08-14T17:27:11Z</time>
      </trkpt>
      <trkpt lat="45.68317" lon="2.84156">
        <ele>878.3</ele>
        <time>2021-08-14T17:27:30Z</time>
      </trkpt>
      <trkpt lat="45.68318" lon="2.84155">
        <ele>878.3</ele>
        <time>2021-08-14T17:27:45Z</time>
      </trkpt>
      <trkpt lat="45.68316" lon="2.84153">
        <ele>878.3</ele>
        <time>2021-08-14T17:28:08Z</time>
      </trkpt>
      <trkpt lat="45.68316" lon="2.84159">
        <ele>878.3</ele>
        <time>2021-08-14T17:28:27Z</time>
      </trkpt>
      <trkpt lat="45.68317" lon="2.84158">
        <ele>878.3</ele>
        <time>2021-08-14T17:28:46Z</time>
      </trkpt>
      <trkpt lat="45.68319" lon="2.84161">
        <ele>878.3</ele>
        <time>2021-08-14T17:29:08Z</time>
      </trkpt>
      <trkpt lat="45.68319" lon="2.8416">
        <ele>878.78</ele>
        <time>2021-08-14T17:29:27Z</time>
      </trkpt>
      <trkpt lat="45.68319" lon="2.84159">
        <ele>878.78</ele>
        <time>2021-08-14T17:29:41Z</time>
      </trkpt>
      <trkpt lat="45.68319" lon="2.8416">
        <ele>878.78</ele>
        <time>2021-08-14T17:29:59Z</time>
      </trkpt>
      <trkpt lat="45.68318" lon="2.8416">
        <ele>878.78</ele>
        <time>2021-08-14T17:30:15Z</time>
      </trkpt>
      <trkpt lat="45.68317" lon="2.84157">
        <ele>878.78</ele>
        <time>2021-08-14T17:30:35Z</time>
      </trkpt>
      <trkpt lat="45.68318" lon="2.84157">
        <ele>878.78</ele>
        <time>2021-08-14T17:30:57Z</time>
      </trkpt>
      <trkpt lat="45.68321" lon="2.84157">
        <ele>878.78</ele>
        <time>2021-08-14T17:31:15Z</time>
      </trkpt>
      <trkpt lat="45.68322" lon="2.8416">
        <ele>878.78</ele>
        <time>2021-08-14T17:31:35Z</time>
      </trkpt>
      <trkpt lat="45.68321" lon="2.84159">
        <ele>878.78</ele>
        <time>2021-08-14T17:31:48Z</time>
      </trkpt>
      <trkpt lat="45.68321" lon="2.84156">
        <ele>878.78</ele>
        <time>2021-08-14T17:32:02Z</time>
      </trkpt>
      <trkpt lat="45.68324" lon="2.84156">
        <ele>878.78</ele>
        <time>2021-08-14T17:32:20Z</time>
      </trkpt>
      <trkpt lat="45.68324" lon="2.84155">
        <ele>878.78</ele>
        <time>2021-08-14T17:32:35Z</time>
      </trkpt>
      <trkpt lat="45.68321" lon="2.84158">
        <ele>878.78</ele>
        <time>2021-08-14T17:32:57Z</time>
      </trkpt>
      <trkpt lat="45.68316" lon="2.84158">
        <ele>878.78</ele>
        <time>2021-08-14T17:33:12Z</time>
      </trkpt>
      <trkpt lat="45.68316" lon="2.84161">
        <ele>878.78</ele>
        <time>2021-08-14T17:33:33Z</time>
      </trkpt>
      <trkpt lat="45.68312" lon="2.84156">
        <ele>878.78</ele>
        <time>2021-08-14T17:33:56Z</time>
      </trkpt>
      <trkpt lat="45.68316" lon="2.84151">
        <ele>878.78</ele>
        <time>2021-08-14T17:34:23Z</time>
      </trkpt>
      <trkpt lat="45.68318" lon="2.84153">
        <ele>878.78</ele>
        <time>2021-08-14T17:34:40Z</time>
      </trkpt>
      <trkpt lat="45.6832" lon="2.84154">
        <ele>878.78</ele>
        <time>2021-08-14T17:34:57Z</time>
      </trkpt>
      <trkpt lat="45.68314" lon="2.84156">
        <ele>878.78</ele>
        <time>2021-08-14T17:35:17Z</time>
      </trkpt>
      <trkpt lat="45.68314" lon="2.84158">
        <ele>878.78</ele>
        <time>2021-08-14T17:35:35Z</time>
      </trkpt>
      <trkpt lat="45.68316" lon="2.84158">
        <ele>878.78</ele>
        <time>2021-08-14T17:35:48Z</time>
      </trkpt>
      <trkpt lat="45.68316" lon="2.84158">
        <ele>878.3</ele>
        <time>2021-08-14T17:36:04Z</time>
      </trkpt>
      <trkpt lat="45.68318" lon="2.84156">
        <ele>878.3</ele>
        <time>2021-08-14T17:36:24Z</time>
      </trkpt>
      <trkpt lat="45.68321" lon="2.84156">
        <ele>878.3</ele>
        <time>2021-08-14T17:36:35Z</time>
      </trkpt>
      <trkpt lat="45.68325" lon="2.84154">
        <ele>878.3</ele>
        <time>2021-08-14T17:36:48Z</time>
      </trkpt>
      <trkpt lat="45.68325" lon="2.84152">
        <ele>878.3</ele>
        <time>2021-08-14T17:37:00Z</time>
      </trkpt>
      <trkpt lat="45.68326" lon="2.84153">
        <ele>878.3</ele>
        <time>2021-08-14T17:37:13Z</time>
      </trkpt>
      <trkpt lat="45.68324" lon="2.84152">
        <ele>878.78</ele>
        <time>2021-08-14T17:37:30Z</time>
      </trkpt>
      <trkpt lat="45.68323" lon="2.84155">
        <ele>878.78</ele>
        <time>2021-08-14T17:37:44Z</time>
      </trkpt>
      <trkpt lat="45.6832" lon="2.84156">
        <ele>878.3</ele>
        <time>2021-08-14T17:38:02Z</time>
      </trkpt>
      <trkpt lat="45.68321" lon="2.84159">
        <ele>878.3</ele>
        <time>2021-08-14T17:38:23Z</time>
      </trkpt>
      <trkpt lat="45.68323" lon="2.84157">
        <ele>878.3</ele>
        <time>2021-08-14T17:38:45Z</time>
      </trkpt>
      <trkpt lat="45.68323" lon="2.84158">
        <ele>878.3</ele>
        <time>2021-08-14T17:39:00Z</time>
      </trkpt>
      <trkpt lat="45.68321" lon="2.84159">
        <ele>878.3</ele>
        <time>2021-08-14T17:39:15Z</time>
      </trkpt>
      <trkpt lat="45.6832" lon="2.84159">
        <ele>878.3</ele>
        <time>2021-08-14T17:39:30Z</time>
      </trkpt>
      <trkpt lat="45.68319" lon="2.84158">
        <ele>878.3</ele>
        <time>2021-08-14T17:39:47Z</time>
      </trkpt>
      <trkpt lat="45.68318" lon="2.84159">
        <ele>878.3</ele>
        <time>2021-08-14T17:40:08Z</time>
      </trkpt>
      <trkpt lat="45.68319" lon="2.84157">
        <ele>878.3</ele>
        <time>2021-08-14T17:40:28Z</time>
      </trkpt>
      <trkpt lat="45.68318" lon="2.84156">
        <ele>878.78</ele>
        <time>2021-08-14T17:40:44Z</time>
      </trkpt>
      <trkpt lat="45.68319" lon="2.84154">
        <ele>878.78</ele>
        <time>2021-08-14T17:41:02Z</time>
      </trkpt>
      <trkpt lat="45.68318" lon="2.84154">
        <ele>878.78</ele>
        <time>2021-08-14T17:41:21Z</time>
      </trkpt>
      <trkpt lat="45.68319" lon="2.84157">
        <ele>878.78</ele>
        <time>2021-08-14T17:41:43Z</time>
      </trkpt>
      <trkpt lat="45.68317" lon="2.84158">
        <ele>878.78</ele>
        <time>2021-08-14T17:42:01Z</time>
      </trkpt>
      <trkpt lat="45.68321" lon="2.84159">
        <ele>878.78</ele>
        <time>2021-08-14T17:42:25Z</time>
      </trkpt>
      <trkpt lat="45.68322" lon="2.8416">
        <ele>878.78</ele>
        <time>2021-08-14T17:42:45Z</time>
      </trkpt>
      <trkpt lat="45.68322" lon="2.84158">
        <ele>879.26</ele>
        <time>2021-08-14T17:43:08Z</time>
      </trkpt>
      <trkpt lat="45.68322" lon="2.84155">
        <ele>879.26</ele>
        <time>2021-08-14T17:43:22Z</time>
      </trkpt>
      <trkpt lat="45.68322" lon="2.84155">
        <ele>879.26</ele>
        <time>2021-08-14T17:43:36Z</time>
      </trkpt>
      <trkpt lat="45.68322" lon="2.84155">
        <ele>879.26</ele>
        <time>2021-08-14T17:43:53Z</time>
      </trkpt>
      <trkpt lat="45.6832" lon="2.84157">
        <ele>879.74</ele>
        <time>2021-08-14T17:44:08Z</time>
      </trkpt>
      <trkpt lat="45.68322" lon="2.84156">
        <ele>879.74</ele>
        <time>2021-08-14T17:44:20Z</time>
      </trkpt>
      <trkpt lat="45.68321" lon="2.84155">
        <ele>879.74</ele>
        <time>2021-08-14T17:44:35Z</time>
      </trkpt>
      <trkpt lat="45.68319" lon="2.84156">
        <ele>879.74</ele>
        <time>2021-08-14T17:44:57Z</time>
      </trkpt>
      <trkpt lat="45.68319" lon="2.84155">
        <ele>879.74</ele>
        <time>2021-08-14T17:45:07Z</time>
      </trkpt>
      <trkpt lat="45.68321" lon="2.84152">
        <ele>879.74</ele>
        <time>2021-08-14T17:45:21Z</time>
      </trkpt>
      <trkpt lat="45.68324" lon="2.84151">
        <ele>879.74</ele>
        <time>2021-08-14T17:45:35Z</time>
      </trkpt>
      <trkpt lat="45.68327" lon="2.84149">
        <ele>879.74</ele>
        <time>2021-08-14T17:45:53Z</time>
      </trkpt>
      <trkpt lat="45.68325" lon="2.84151">
        <ele>880.22</ele>
        <time>2021-08-14T17:46:10Z</time>
      </trkpt>
      <trkpt lat="45.68323" lon="2.8415">
        <ele>880.22</ele>
        <time>2021-08-14T17:46:24Z</time>
      </trkpt>
      <trkpt lat="45.68324" lon="2.84151">
        <ele>880.22</ele>
        <time>2021-08-14T17:46:39Z</time>
      </trkpt>
      <trkpt lat="45.68323" lon="2.84151">
        <ele>880.22</ele>
        <time>2021-08-14T17:46:48Z</time>
      </trkpt>
      <trkpt lat="45.68323" lon="2.8415">
        <ele>880.22</ele>
        <time>2021-08-14T17:47:08Z</time>
      </trkpt>
      <trkpt lat="45.68323" lon="2.84151">
        <ele>880.22</ele>
        <time>2021-08-14T17:47:26Z</time>
      </trkpt>
      <trkpt lat="45.68325" lon="2.84153">
        <ele>880.71</ele>
        <time>2021-08-14T17:47:43Z</time>
      </trkpt>
      <trkpt lat="45.68323" lon="2.84156">
        <ele>880.71</ele>
        <time>2021-08-14T17:48:01Z</time>
      </trkpt>
      <trkpt lat="45.6832" lon="2.84155">
        <ele>880.71</ele>
        <time>2021-08-14T17:48:14Z</time>
      </trkpt>
      <trkpt lat="45.68317" lon="2.84158">
        <ele>880.71</ele>
        <time>2021-08-14T17:48:30Z</time>
      </trkpt>
      <trkpt lat="45.6832" lon="2.84157">
        <ele>880.71</ele>
        <time>2021-08-14T17:48:53Z</time>
      </trkpt>
      <trkpt lat="45.68319" lon="2.84155">
        <ele>880.71</ele>
        <time>2021-08-14T17:49:13Z</time>
      </trkpt>
      <trkpt lat="45.68323" lon="2.84156">
        <ele>880.71</ele>
        <time>2021-08-14T17:49:29Z</time>
      </trkpt>
      <trkpt lat="45.68324" lon="2.84161">
        <ele>880.71</ele>
        <time>2021-08-14T17:49:46Z</time>
      </trkpt>
      <trkpt lat="45.6832" lon="2.84159">
        <ele>880.71</ele>
        <time>2021-08-14T17:50:04Z</time>
      </trkpt>
      <trkpt lat="45.6832" lon="2.8416">
        <ele>880.71</ele>
        <time>2021-08-14T17:50:18Z</time>
      </trkpt>
      <trkpt lat="45.68319" lon="2.84159">
        <ele>880.71</ele>
        <time>2021-08-14T17:50:36Z</time>
      </trkpt>
      <trkpt lat="45.68319" lon="2.8416">
        <ele>880.71</ele>
        <time>2021-08-14T17:50:55Z</time>
      </trkpt>
      <trkpt lat="45.68319" lon="2.84158">
        <ele>880.71</ele>
        <time>2021-08-14T17:51:15Z</time>
      </trkpt>
      <trkpt lat="45.6832" lon="2.84158">
        <ele>880.71</ele>
        <time>2021-08-14T17:51:39Z</time>
      </trkpt>
      <trkpt lat="45.6832" lon="2.84157">
        <ele>880.71</ele>
        <time>2021-08-14T17:51:59Z</time>
      </trkpt>
      <trkpt lat="45.68318" lon="2.84154">
        <ele>881.19</ele>
        <time>2021-08-14T17:52:18Z</time>
      </trkpt>
      <trkpt lat="45.68318" lon="2.84155">
        <ele>881.19</ele>
        <time>2021-08-14T17:52:40Z</time>
      </trkpt>
      <trkpt lat="45.68316" lon="2.84155">
        <ele>881.19</ele>
        <time>2021-08-14T17:52:58Z</time>
      </trkpt>
      <trkpt lat="45.68315" lon="2.84155">
        <ele>880.71</ele>
        <time>2021-08-14T17:53:14Z</time>
      </trkpt>
      <trkpt lat="45.68316" lon="2.84157">
        <ele>881.19</ele>
        <time>2021-08-14T17:53:30Z</time>
      </trkpt>
      <trkpt lat="45.68318" lon="2.84159">
        <ele>880.71</ele>
        <time>2021-08-14T17:53:52Z</time>
      </trkpt>
      <trkpt lat="45.68319" lon="2.84161">
        <ele>880.71</ele>
        <time>2021-08-14T17:54:14Z</time>
      </trkpt>
      <trkpt lat="45.68318" lon="2.84158">
        <ele>880.71</ele>
        <time>2021-08-14T17:54:26Z</time>
      </trkpt>
      <trkpt lat="45.68318" lon="2.84157">
        <ele>880.71</ele>
        <time>2021-08-14T17:54:41Z</time>
      </trkpt>
      <trkpt lat="45.68318" lon="2.84156">
        <ele>880.71</ele>
        <time>2021-08-14T17:54:52Z</time>
      </trkpt>
      <trkpt lat="45.68317" lon="2.84156">
        <ele>879.74</ele>
        <time>2021-08-14T17:55:04Z</time>
      </trkpt>
      <trkpt lat="45.68316" lon="2.84158">
        <ele>879.74</ele>
        <time>2021-08-14T17:55:17Z</time>
      </trkpt>
      <trkpt lat="45.68318" lon="2.84158">
        <ele>879.74</ele>
        <time>2021-08-14T17:55:36Z</time>
      </trkpt>
      <trkpt lat="45.68321" lon="2.84158">
        <ele>879.74</ele>
        <time>2021-08-14T17:55:59Z</time>
      </trkpt>
      <trkpt lat="45.68323" lon="2.84157">
        <ele>880.71</ele>
        <time>2021-08-14T17:56:20Z</time>
      </trkpt>
      <trkpt lat="45.68322" lon="2.84154">
        <ele>880.71</ele>
        <time>2021-08-14T17:56:36Z</time>
      </trkpt>
      <trkpt lat="45.68321" lon="2.84154">
        <ele>880.71</ele>
        <time>2021-08-14T17:56:55Z</time>
      </trkpt>
      <trkpt lat="45.68319" lon="2.84156">
        <ele>880.71</ele>
        <time>2021-08-14T17:57:12Z</time>
      </trkpt>
      <trkpt lat="45.68317" lon="2.84157">
        <ele>880.71</ele>
        <time>2021-08-14T17:57:32Z</time>
      </trkpt>
      <trkpt lat="45.68319" lon="2.84158">
        <ele>880.71</ele>
        <time>2021-08-14T17:57:50Z</time>
      </trkpt>
      <trkpt lat="45.6832" lon="2.84158">
        <ele>880.71</ele>
        <time>2021-08-14T17:58:08Z</time>
      </trkpt>
      <trkpt lat="45.68321" lon="2.84158">
        <ele>880.71</ele>
        <time>2021-08-14T17:58:26Z</time>
      </trkpt>
      <trkpt lat="45.68321" lon="2.84155">
        <ele>880.71</ele>
        <time>2021-08-14T17:58:41Z</time>
      </trkpt>
      <trkpt lat="45.68318" lon="2.84154">
        <ele>880.71</ele>
        <time>2021-08-14T17:58:57Z</time>
      </trkpt>
      <trkpt lat="45.68316" lon="2.84154">
        <ele>880.71</ele>
        <time>2021-08-14T17:59:14Z</time>
      </trkpt>
      <trkpt lat="45.68316" lon="2.84153">
        <ele>880.71</ele>
        <time>2021-08-14T17:59:32Z</time>
      </trkpt>
      <trkpt lat="45.68315" lon="2.84154">
        <ele>880.71</ele>
        <time>2021-08-14T17:59:47Z</time>
      </trkpt>
      <trkpt lat="45.68316" lon="2.84156">
        <ele>880.71</ele>
        <time>2021-08-14T18:00:04Z</time>
      </trkpt>
      <trkpt lat="45.68317" lon="2.84156">
        <ele>880.71</ele>
        <time>2021-08-14T18:00:18Z</time>
      </trkpt>
      <trkpt lat="45.6832" lon="2.84156">
        <ele>880.71</ele>
        <time>2021-08-14T18:00:34Z</time>
      </trkpt>
      <trkpt lat="45.68323" lon="2.84154">
        <ele>880.71</ele>
        <time>2021-08-14T18:00:55Z</time>
      </trkpt>
      <trkpt lat="45.68322" lon="2.84151">
        <ele>880.71</ele>
        <time>2021-08-14T18:01:19Z</time>
      </trkpt>
      <trkpt lat="45.6832" lon="2.84153">
        <ele>880.71</ele>
        <time>2021-08-14T18:01:37Z</time>
      </trkpt>
      <trkpt lat="45.68321" lon="2.84151">
        <ele>880.71</ele>
        <time>2021-08-14T18:01:55Z</time>
      </trkpt>
      <trkpt lat="45.6832" lon="2.84152">
        <ele>880.71</ele>
        <time>2021-08-14T18:02:11Z</time>
      </trkpt>
      <trkpt lat="45.68319" lon="2.84155">
        <ele>880.71</ele>
        <time>2021-08-14T18:02:32Z</time>
      </trkpt>
      <trkpt lat="45.68316" lon="2.84158">
        <ele>880.71</ele>
        <time>2021-08-14T18:02:46Z</time>
      </trkpt>
      <trkpt lat="45.68318" lon="2.84157">
        <ele>880.71</ele>
        <time>2021-08-14T18:03:07Z</time>
      </trkpt>
      <trkpt lat="45.6832" lon="2.84154">
        <ele>880.71</ele>
        <time>2021-08-14T18:03:21Z</time>
      </trkpt>
      <trkpt lat="45.68323" lon="2.84152">
        <ele>880.71</ele>
        <time>2021-08-14T18:03:38Z</time>
      </trkpt>
      <trkpt lat="45.68323" lon="2.84152">
        <ele>880.71</ele>
        <time>2021-08-14T18:03:54Z</time>
      </trkpt>
      <trkpt lat="45.68319" lon="2.84155">
        <ele>880.71</ele>
        <time>2021-08-14T18:04:13Z</time>
      </trkpt>
      <trkpt lat="45.68317" lon="2.84156">
        <ele>880.71</ele>
        <time>2021-08-14T18:04:31Z</time>
      </trkpt>
      <trkpt lat="45.68318" lon="2.84155">
        <ele>880.71</ele>
        <time>2021-08-14T18:04:41Z</time>
      </trkpt>
      <trkpt lat="45.68316" lon="2.84156">
        <ele>880.71</ele>
        <time>2021-08-14T18:04:56Z</time>
      </trkpt>
      <trkpt lat="45.68315" lon="2.84156">
        <ele>880.71</ele>
        <time>2021-08-14T18:05:13Z</time>
      </trkpt>
      <trkpt lat="45.68316" lon="2.84158">
        <ele>880.71</ele>
        <time>2021-08-14T18:05:34Z</time>
      </trkpt>
      <trkpt lat="45.68318" lon="2.84157">
        <ele>880.71</ele>
        <time>2021-08-14T18:05:53Z</time>
      </trkpt>
      <trkpt lat="45.68322" lon="2.84154">
        <ele>880.71</ele>
        <time>2021-08-14T18:06:14Z</time>
      </trkpt>
      <trkpt lat="45.6832" lon="2.84156">
        <ele>880.71</ele>
        <time>2021-08-14T18:06:32Z</time>
      </trkpt>
      <trkpt lat="45.68318" lon="2.84156">
        <ele>880.71</ele>
        <time>2021-08-14T18:06:49Z</time>
      </trkpt>
      <trkpt lat="45.68319" lon="2.84155">
        <ele>880.71</ele>
        <time>2021-08-14T18:07:05Z</time>
      </trkpt>
      <trkpt lat="45.68319" lon="2.84157">
        <ele>880.71</ele>
        <time>2021-08-14T18:07:21Z</time>
      </trkpt>
      <trkpt lat="45.68314" lon="2.84156">
        <ele>880.71</ele>
        <time>2021-08-14T18:07:38Z</time>
      </trkpt>
      <trkpt lat="45.68314" lon="2.84157">
        <ele>880.71</ele>
        <time>2021-08-14T18:07:47Z</time>
      </trkpt>
      <trkpt lat="45.6831" lon="2.84156">
        <ele>880.71</ele>
        <time>2021-08-14T18:08:05Z</time>
      </trkpt>
      <trkpt lat="45.68312" lon="2.84158">
        <ele>880.71</ele>
        <time>2021-08-14T18:08:22Z</time>
      </trkpt>
      <trkpt lat="45.68316" lon="2.84158">
        <ele>880.71</ele>
        <time>2021-08-14T18:08:40Z</time>
      </trkpt>
      <trkpt lat="45.68316" lon="2.84156">
        <ele>880.71</ele>
        <time>2021-08-14T18:08:55Z</time>
      </trkpt>
      <trkpt lat="45.68319" lon="2.84152">
        <ele>880.71</ele>
        <time>2021-08-14T18:09:16Z</time>
      </trkpt>
      <trkpt lat="45.68325" lon="2.84153">
        <ele>880.22</ele>
        <time>2021-08-14T18:09:37Z</time>
      </trkpt>
      <trkpt lat="45.6832" lon="2.84152">
        <ele>880.22</ele>
        <time>2021-08-14T18:09:56Z</time>
      </trkpt>
      <trkpt lat="45.68324" lon="2.84151">
        <ele>880.22</ele>
        <time>2021-08-14T18:10:15Z</time>
      </trkpt>
      <trkpt lat="45.68325" lon="2.84151">
        <ele>880.22</ele>
        <time>2021-08-14T18:10:32Z</time>
      </trkpt>
      <trkpt lat="45.68327" lon="2.8415">
        <ele>880.22</ele>
        <time>2021-08-14T18:10:49Z</time>
      </trkpt>
      <trkpt lat="45.68328" lon="2.8415">
        <ele>880.22</ele>
        <time>2021-08-14T18:11:08Z</time>
      </trkpt>
      <trkpt lat="45.68326" lon="2.84151">
        <ele>880.22</ele>
        <time>2021-08-14T18:11:24Z</time>
      </trkpt>
      <trkpt lat="45.6832" lon="2.84152">
        <ele>880.22</ele>
        <time>2021-08-14T18:11:41Z</time>
      </trkpt>
      <trkpt lat="45.68322" lon="2.84153">
        <ele>880.22</ele>
        <time>2021-08-14T18:12:02Z</time>
      </trkpt>
      <trkpt lat="45.68323" lon="2.84155">
        <ele>879.74</ele>
        <time>2021-08-14T18:12:22Z</time>
      </trkpt>
      <trkpt lat="45.68324" lon="2.84152">
        <ele>879.74</ele>
        <time>2021-08-14T18:12:38Z</time>
      </trkpt>
      <trkpt lat="45.68324" lon="2.84151">
        <ele>879.74</ele>
        <time>2021-08-14T18:12:54Z</time>
      </trkpt>
      <trkpt lat="45.6832" lon="2.84152">
        <ele>879.74</ele>
        <time>2021-08-14T18:13:18Z</time>
      </trkpt>
      <trkpt lat="45.68321" lon="2.84153">
        <ele>879.74</ele>
        <time>2021-08-14T18:13:30Z</time>
      </trkpt>
      <trkpt lat="45.68322" lon="2.84157">
        <ele>879.74</ele>
        <time>2021-08-14T18:13:44Z</time>
      </trkpt>
      <trkpt lat="45.68323" lon="2.84156">
        <ele>879.74</ele>
        <time>2021-08-14T18:13:54Z</time>
      </trkpt>
      <trkpt lat="45.68325" lon="2.84152">
        <ele>879.74</ele>
        <time>2021-08-14T18:14:15Z</time>
      </trkpt>
      <trkpt lat="45.68325" lon="2.8415">
        <ele>879.74</ele>
        <time>2021-08-14T18:14:29Z</time>
      </trkpt>
      <trkpt lat="45.68328" lon="2.84151">
        <ele>879.74</ele>
        <time>2021-08-14T18:14:45Z</time>
      </trkpt>
      <trkpt lat="45.68329" lon="2.84152">
        <ele>879.74</ele>
        <time>2021-08-14T18:15:09Z</time>
      </trkpt>
      <trkpt lat="45.68328" lon="2.84153">
        <ele>879.26</ele>
        <time>2021-08-14T18:15:22Z</time>
      </trkpt>
      <trkpt lat="45.68326" lon="2.84152">
        <ele>879.26</ele>
        <time>2021-08-14T18:15:40Z</time>
      </trkpt>
      <trkpt lat="45.68326" lon="2.84153">
        <ele>879.26</ele>
        <time>2021-08-14T18:15:53Z</time>
      </trkpt>
      <trkpt lat="45.68327" lon="2.84152">
        <ele>879.26</ele>
        <time>2021-08-14T18:16:13Z</time>
      </trkpt>
      <trkpt lat="45.68325" lon="2.84152">
        <ele>879.26</ele>
        <time>2021-08-14T18:16:31Z</time>
      </trkpt>
      <trkpt lat="45.68325" lon="2.84153">
        <ele>879.26</ele>
        <time>2021-08-14T18:16:45Z</time>
      </trkpt>
      <trkpt lat="45.68324" lon="2.84152">
        <ele>879.26</ele>
        <time>2021-08-14T18:16:55Z</time>
      </trkpt>
      <trkpt lat="45.68323" lon="2.84153">
        <ele>878.78</ele>
        <time>2021-08-14T18:17:02Z</time>
      </trkpt>
      <trkpt lat="45.68323" lon="2.84151">
        <ele>878.78</ele>
        <time>2021-08-14T18:17:14Z</time>
      </trkpt>
      <trkpt lat="45.68322" lon="2.84154">
        <ele>878.78</ele>
        <time>2021-08-14T18:17:29Z</time>
      </trkpt>
      <trkpt lat="45.68324" lon="2.84154">
        <ele>878.78</ele>
        <time>2021-08-14T18:17:46Z</time>
      </trkpt>
      <trkpt lat="45.68324" lon="2.84153">
        <ele>878.78</ele>
        <time>2021-08-14T18:18:02Z</time>
      </trkpt>
      <trkpt lat="45.68324" lon="2.84152">
        <ele>878.78</ele>
        <time>2021-08-14T18:18:16Z</time>
      </trkpt>
      <trkpt lat="45.68322" lon="2.84153">
        <ele>878.78</ele>
        <time>2021-08-14T18:18:29Z</time>
      </trkpt>
      <trkpt lat="45.68322" lon="2.84152">
        <ele>878.78</ele>
        <time>2021-08-14T18:18:46Z</time>
      </trkpt>
      <trkpt lat="45.68324" lon="2.84152">
        <ele>878.78</ele>
        <time>2021-08-14T18:19:07Z</time>
      </trkpt>
      <trkpt lat="45.68322" lon="2.84152">
        <ele>878.78</ele>
        <time>2021-08-14T18:19:20Z</time>
      </trkpt>
      <trkpt lat="45.68318" lon="2.84154">
        <ele>878.78</ele>
        <time>2021-08-14T18:19:39Z</time>
      </trkpt>
      <trkpt lat="45.68319" lon="2.84153">
        <ele>878.78</ele>
        <time>2021-08-14T18:19:55Z</time>
      </trkpt>
      <trkpt lat="45.68321" lon="2.84154">
        <ele>878.78</ele>
        <time>2021-08-14T18:20:18Z</time>
      </trkpt>
      <trkpt lat="45.68322" lon="2.84154">
        <ele>878.78</ele>
        <time>2021-08-14T18:20:36Z</time>
      </trkpt>
      <trkpt lat="45.68323" lon="2.84153">
        <ele>878.78</ele>
        <time>2021-08-14T18:20:39Z</time>
      </trkpt>
      <trkpt lat="45.68325" lon="2.84153">
        <ele>878.78</ele>
        <time>2021-08-14T18:20:40Z</time>
      </trkpt>
      <trkpt lat="45.68326" lon="2.84154">
        <ele>878.78</ele>
        <time>2021-08-14T18:20:41Z</time>
      </trkpt>
      <trkpt lat="45.68326" lon="2.84155">
        <ele>878.78</ele>
        <time>2021-08-14T18:20:42Z</time>
      </trkpt>
      <trkpt lat="45.68326" lon="2.84157">
        <ele>878.78</ele>
        <time>2021-08-14T18:20:43Z</time>
      </trkpt>
      <trkpt lat="45.68325" lon="2.84168">
        <ele>878.78</ele>
        <time>2021-08-14T18:20:50Z</time>
      </trkpt>
      <trkpt lat="45.68325" lon="2.8417">
        <ele>878.78</ele>
        <time>2021-08-14T18:20:51Z</time>
      </trkpt>
      <trkpt lat="45.68324" lon="2.84172">
        <ele>878.78</ele>
        <time>2021-08-14T18:20:52Z</time>
      </trkpt>
      <trkpt lat="45.68323" lon="2.84174">
        <ele>878.78</ele>
        <time>2021-08-14T18:20:53Z</time>
      </trkpt>
      <trkpt lat="45.68322" lon="2.84175">
        <ele>878.78</ele>
        <time>2021-08-14T18:20:54Z</time>
      </trkpt>
      <trkpt lat="45.68321" lon="2.84177">
        <ele>878.78</ele>
        <time>2021-08-14T18:20:55Z</time>
      </trkpt>
      <trkpt lat="45.6832" lon="2.84179">
        <ele>878.78</ele>
        <time>2021-08-14T18:20:56Z</time>
      </trkpt>
      <trkpt lat="45.68319" lon="2.84181">
        <ele>878.78</ele>
        <time>2021-08-14T18:20:57Z</time>
      </trkpt>
      <trkpt lat="45.68318" lon="2.84182">
        <ele>878.78</ele>
        <time>2021-08-14T18:20:58Z</time>
      </trkpt>
      <trkpt lat="45.68317" lon="2.84186">
        <ele>878.78</ele>
        <time>2021-08-14T18:21:00Z</time>
      </trkpt>
      <trkpt lat="45.68316" lon="2.84189">
        <ele>878.78</ele>
        <time>2021-08-14T18:21:01Z</time>
      </trkpt>
      <trkpt lat="45.68315" lon="2.8419">
        <ele>878.78</ele>
        <time>2021-08-14T18:21:02Z</time>
      </trkpt>
      <trkpt lat="45.68313" lon="2.84191">
        <ele>878.78</ele>
        <time>2021-08-14T18:21:03Z</time>
      </trkpt>
      <trkpt lat="45.68312" lon="2.84197">
        <ele>879.26</ele>
        <time>2021-08-14T18:21:08Z</time>
      </trkpt>
      <trkpt lat="45.68313" lon="2.84198">
        <ele>879.26</ele>
        <time>2021-08-14T18:21:09Z</time>
      </trkpt>
      <trkpt lat="45.68316" lon="2.84198">
        <ele>879.26</ele>
        <time>2021-08-14T18:21:12Z</time>
      </trkpt>
      <trkpt lat="45.68318" lon="2.84198">
        <ele>879.26</ele>
        <time>2021-08-14T18:21:13Z</time>
      </trkpt>
      <trkpt lat="45.68319" lon="2.84198">
        <ele>879.26</ele>
        <time>2021-08-14T18:21:14Z</time>
      </trkpt>
      <trkpt lat="45.68321" lon="2.84196">
        <ele>879.26</ele>
        <time>2021-08-14T18:21:15Z</time>
      </trkpt>
      <trkpt lat="45.68323" lon="2.84195">
        <ele>879.26</ele>
        <time>2021-08-14T18:21:16Z</time>
      </trkpt>
      <trkpt lat="45.68325" lon="2.84195">
        <ele>879.26</ele>
        <time>2021-08-14T18:21:17Z</time>
      </trkpt>
      <trkpt lat="45.68328" lon="2.84197">
        <ele>879.26</ele>
        <time>2021-08-14T18:21:18Z</time>
      </trkpt>
      <trkpt lat="45.6833" lon="2.84199">
        <ele>879.26</ele>
        <time>2021-08-14T18:21:19Z</time>
      </trkpt>
      <trkpt lat="45.68331" lon="2.84202">
        <ele>879.26</ele>
        <time>2021-08-14T18:21:20Z</time>
      </trkpt>
      <trkpt lat="45.68339" lon="2.84221">
        <ele>879.26</ele>
        <time>2021-08-14T18:21:26Z</time>
      </trkpt>
      <trkpt lat="45.6835" lon="2.84239">
        <ele>879.74</ele>
        <time>2021-08-14T18:21:33Z</time>
      </trkpt>
      <trkpt lat="45.68359" lon="2.84268">
        <ele>880.71</ele>
        <time>2021-08-14T18:21:44Z</time>
      </trkpt>
      <trkpt lat="45.68365" lon="2.84284">
        <ele>881.67</ele>
        <time>2021-08-14T18:21:52Z</time>
      </trkpt>
      <trkpt lat="45.68375" lon="2.84292">
        <ele>882.63</ele>
        <time>2021-08-14T18:22:00Z</time>
      </trkpt>
      <trkpt lat="45.68386" lon="2.84298">
        <ele>883.59</ele>
        <time>2021-08-14T18:22:08Z</time>
      </trkpt>
      <trkpt lat="45.6839" lon="2.84302">
        <ele>883.59</ele>
        <time>2021-08-14T18:22:11Z</time>
      </trkpt>
      <trkpt lat="45.68391" lon="2.84304">
        <ele>884.07</ele>
        <time>2021-08-14T18:22:12Z</time>
      </trkpt>
      <trkpt lat="45.68405" lon="2.84314">
        <ele>884.55</ele>
        <time>2021-08-14T18:22:22Z</time>
      </trkpt>
      <trkpt lat="45.68406" lon="2.84316">
        <ele>885.03</ele>
        <time>2021-08-14T18:22:23Z</time>
      </trkpt>
      <trkpt lat="45.68406" lon="2.84317">
        <ele>885.03</ele>
        <time>2021-08-14T18:22:24Z</time>
      </trkpt>
      <trkpt lat="45.68408" lon="2.84319">
        <ele>885.03</ele>
        <time>2021-08-14T18:22:25Z</time>
      </trkpt>
      <trkpt lat="45.68409" lon="2.8432">
        <ele>885.03</ele>
        <time>2021-08-14T18:22:26Z</time>
      </trkpt>
      <trkpt lat="45.6841" lon="2.84321">
        <ele>885.03</ele>
        <time>2021-08-14T18:22:27Z</time>
      </trkpt>
      <trkpt lat="45.68412" lon="2.84321">
        <ele>885.51</ele>
        <time>2021-08-14T18:22:28Z</time>
      </trkpt>
      <trkpt lat="45.68424" lon="2.84332">
        <ele>885.99</ele>
        <time>2021-08-14T18:22:37Z</time>
      </trkpt>
      <trkpt lat="45.68436" lon="2.84343">
        <ele>886.47</ele>
        <time>2021-08-14T18:22:47Z</time>
      </trkpt>
      <trkpt lat="45.68446" lon="2.84352">
        <ele>887.43</ele>
        <time>2021-08-14T18:22:55Z</time>
      </trkpt>
      <trkpt lat="45.68447" lon="2.84354">
        <ele>887.91</ele>
        <time>2021-08-14T18:22:56Z</time>
      </trkpt>
      <trkpt lat="45.68448" lon="2.84354">
        <ele>887.91</ele>
        <time>2021-08-14T18:22:57Z</time>
      </trkpt>
      <trkpt lat="45.68457" lon="2.84363">
        <ele>888.88</ele>
        <time>2021-08-14T18:23:05Z</time>
      </trkpt>
      <trkpt lat="45.68459" lon="2.84364">
        <ele>888.88</ele>
        <time>2021-08-14T18:23:06Z</time>
      </trkpt>
      <trkpt lat="45.6846" lon="2.84365">
        <ele>888.88</ele>
        <time>2021-08-14T18:23:07Z</time>
      </trkpt>
      <trkpt lat="45.68461" lon="2.84366">
        <ele>889.36</ele>
        <time>2021-08-14T18:23:08Z</time>
      </trkpt>
      <trkpt lat="45.68462" lon="2.84368">
        <ele>889.36</ele>
        <time>2021-08-14T18:23:09Z</time>
      </trkpt>
      <trkpt lat="45.68462" lon="2.84369">
        <ele>889.84</ele>
        <time>2021-08-14T18:23:10Z</time>
      </trkpt>
      <trkpt lat="45.68462" lon="2.84371">
        <ele>889.84</ele>
        <time>2021-08-14T18:23:11Z</time>
      </trkpt>
      <trkpt lat="45.68462" lon="2.84372">
        <ele>889.84</ele>
        <time>2021-08-14T18:23:12Z</time>
      </trkpt>
      <trkpt lat="45.68462" lon="2.84373">
        <ele>889.84</ele>
        <time>2021-08-14T18:23:13Z</time>
      </trkpt>
      <trkpt lat="45.68462" lon="2.84375">
        <ele>890.32</ele>
        <time>2021-08-14T18:23:14Z</time>
      </trkpt>
      <trkpt lat="45.68463" lon="2.84376">
        <ele>890.32</ele>
        <time>2021-08-14T18:23:15Z</time>
      </trkpt>
      <trkpt lat="45.68463" lon="2.84378">
        <ele>890.32</ele>
        <time>2021-08-14T18:23:16Z</time>
      </trkpt>
      <trkpt lat="45.68463" lon="2.84379">
        <ele>890.8</ele>
        <time>2021-08-14T18:23:17Z</time>
      </trkpt>
      <trkpt lat="45.68463" lon="2.84381">
        <ele>890.8</ele>
        <time>2021-08-14T18:23:18Z</time>
      </trkpt>
      <trkpt lat="45.68462" lon="2.84383">
        <ele>890.8</ele>
        <time>2021-08-14T18:23:19Z</time>
      </trkpt>
      <trkpt lat="45.68462" lon="2.84385">
        <ele>891.28</ele>
        <time>2021-08-14T18:23:20Z</time>
      </trkpt>
      <trkpt lat="45.68453" lon="2.84393">
        <ele>891.76</ele>
        <time>2021-08-14T18:23:27Z</time>
      </trkpt>
      <trkpt lat="45.68438" lon="2.84395">
        <ele>892.24</ele>
        <time>2021-08-14T18:23:35Z</time>
      </trkpt>
      <trkpt lat="45.68424" lon="2.8439">
        <ele>892.72</ele>
        <time>2021-08-14T18:23:42Z</time>
      </trkpt>
      <trkpt lat="45.684" lon="2.8438">
        <ele>893.68</ele>
        <time>2021-08-14T18:23:54Z</time>
      </trkpt>
      <trkpt lat="45.68382" lon="2.84372">
        <ele>895.12</ele>
        <time>2021-08-14T18:24:03Z</time>
      </trkpt>
      <trkpt lat="45.68356" lon="2.84365">
        <ele>895.61</ele>
        <time>2021-08-14T18:24:15Z</time>
      </trkpt>
      <trkpt lat="45.68338" lon="2.84361">
        <ele>895.61</ele>
        <time>2021-08-14T18:24:22Z</time>
      </trkpt>
      <trkpt lat="45.68311" lon="2.84353">
        <ele>896.09</ele>
        <time>2021-08-14T18:24:31Z</time>
      </trkpt>
      <trkpt lat="45.68288" lon="2.84344">
        <ele>896.57</ele>
        <time>2021-08-14T18:24:39Z</time>
      </trkpt>
      <trkpt lat="45.68266" lon="2.84337">
        <ele>896.57</ele>
        <time>2021-08-14T18:24:46Z</time>
      </trkpt>
      <trkpt lat="45.68239" lon="2.84327">
        <ele>896.57</ele>
        <time>2021-08-14T18:24:55Z</time>
      </trkpt>
      <trkpt lat="45.682" lon="2.84313">
        <ele>896.57</ele>
        <time>2021-08-14T18:25:06Z</time>
      </trkpt>
      <trkpt lat="45.68189" lon="2.84308">
        <ele>895.12</ele>
        <time>2021-08-14T18:25:09Z</time>
      </trkpt>
      <trkpt lat="45.68167" lon="2.84298">
        <ele>894.64</ele>
        <time>2021-08-14T18:25:14Z</time>
      </trkpt>
      <trkpt lat="45.6813" lon="2.84283">
        <ele>893.2</ele>
        <time>2021-08-14T18:25:21Z</time>
      </trkpt>
      <trkpt lat="45.68124" lon="2.84282">
        <ele>893.2</ele>
        <time>2021-08-14T18:25:22Z</time>
      </trkpt>
      <trkpt lat="45.68118" lon="2.84281">
        <ele>893.2</ele>
        <time>2021-08-14T18:25:23Z</time>
      </trkpt>
      <trkpt lat="45.68098" lon="2.84279">
        <ele>894.16</ele>
        <time>2021-08-14T18:25:28Z</time>
      </trkpt>
      <trkpt lat="45.68094" lon="2.84278">
        <ele>894.16</ele>
        <time>2021-08-14T18:25:29Z</time>
      </trkpt>
      <trkpt lat="45.68078" lon="2.84273">
        <ele>895.61</ele>
        <time>2021-08-14T18:25:36Z</time>
      </trkpt>
      <trkpt lat="45.68064" lon="2.84268">
        <ele>897.05</ele>
        <time>2021-08-14T18:25:45Z</time>
      </trkpt>
      <trkpt lat="45.6805" lon="2.84263">
        <ele>898.01</ele>
        <time>2021-08-14T18:25:54Z</time>
      </trkpt>
      <trkpt lat="45.68033" lon="2.84255">
        <ele>898.97</ele>
        <time>2021-08-14T18:26:03Z</time>
      </trkpt>
      <trkpt lat="45.68024" lon="2.84251">
        <ele>899.45</ele>
        <time>2021-08-14T18:26:07Z</time>
      </trkpt>
      <trkpt lat="45.68013" lon="2.84248">
        <ele>899.93</ele>
        <time>2021-08-14T18:26:12Z</time>
      </trkpt>
      <trkpt lat="45.68001" lon="2.84236">
        <ele>900.89</ele>
        <time>2021-08-14T18:26:22Z</time>
      </trkpt>
      <trkpt lat="45.67985" lon="2.84226">
        <ele>901.37</ele>
        <time>2021-08-14T18:26:31Z</time>
      </trkpt>
      <trkpt lat="45.67968" lon="2.84215">
        <ele>902.33</ele>
        <time>2021-08-14T18:26:40Z</time>
      </trkpt>
      <trkpt lat="45.67947" lon="2.84204">
        <ele>902.82</ele>
        <time>2021-08-14T18:26:50Z</time>
      </trkpt>
      <trkpt lat="45.67921" lon="2.842">
        <ele>902.82</ele>
        <time>2021-08-14T18:26:59Z</time>
      </trkpt>
      <trkpt lat="45.67898" lon="2.84198">
        <ele>901.85</ele>
        <time>2021-08-14T18:27:05Z</time>
      </trkpt>
      <trkpt lat="45.67864" lon="2.84201">
        <ele>901.85</ele>
        <time>2021-08-14T18:27:14Z</time>
      </trkpt>
      <trkpt lat="45.67848" lon="2.84206">
        <ele>903.3</ele>
        <time>2021-08-14T18:27:21Z</time>
      </trkpt>
      <trkpt lat="45.67839" lon="2.84205">
        <ele>904.74</ele>
        <time>2021-08-14T18:27:30Z</time>
      </trkpt>
      <trkpt lat="45.67829" lon="2.84203">
        <ele>906.18</ele>
        <time>2021-08-14T18:27:40Z</time>
      </trkpt>
      <trkpt lat="45.67819" lon="2.84203">
        <ele>907.62</ele>
        <time>2021-08-14T18:27:50Z</time>
      </trkpt>
      <trkpt lat="45.67811" lon="2.84204">
        <ele>908.58</ele>
        <time>2021-08-14T18:27:58Z</time>
      </trkpt>
      <trkpt lat="45.67798" lon="2.84205">
        <ele>909.54</ele>
        <time>2021-08-14T18:28:09Z</time>
      </trkpt>
      <trkpt lat="45.67791" lon="2.84205">
        <ele>910.99</ele>
        <time>2021-08-14T18:28:14Z</time>
      </trkpt>
      <trkpt lat="45.67781" lon="2.84207">
        <ele>911.95</ele>
        <time>2021-08-14T18:28:22Z</time>
      </trkpt>
      <trkpt lat="45.6778" lon="2.84207">
        <ele>911.95</ele>
        <time>2021-08-14T18:28:23Z</time>
      </trkpt>
      <trkpt lat="45.67779" lon="2.84208">
        <ele>911.95</ele>
        <time>2021-08-14T18:28:24Z</time>
      </trkpt>
      <trkpt lat="45.67777" lon="2.84209">
        <ele>912.43</ele>
        <time>2021-08-14T18:28:26Z</time>
      </trkpt>
      <trkpt lat="45.67776" lon="2.84209">
        <ele>912.43</ele>
        <time>2021-08-14T18:28:27Z</time>
      </trkpt>
      <trkpt lat="45.67775" lon="2.84208">
        <ele>912.43</ele>
        <time>2021-08-14T18:28:28Z</time>
      </trkpt>
      <trkpt lat="45.67773" lon="2.84208">
        <ele>912.43</ele>
        <time>2021-08-14T18:28:29Z</time>
      </trkpt>
      <trkpt lat="45.67772" lon="2.84208">
        <ele>912.43</ele>
        <time>2021-08-14T18:28:30Z</time>
      </trkpt>
      <trkpt lat="45.67771" lon="2.84208">
        <ele>912.43</ele>
        <time>2021-08-14T18:28:31Z</time>
      </trkpt>
      <trkpt lat="45.6777" lon="2.84208">
        <ele>913.39</ele>
        <time>2021-08-14T18:28:32Z</time>
      </trkpt>
      <trkpt lat="45.67769" lon="2.84209">
        <ele>913.39</ele>
        <time>2021-08-14T18:28:33Z</time>
      </trkpt>
      <trkpt lat="45.67759" lon="2.8421">
        <ele>913.87</ele>
        <time>2021-08-14T18:28:41Z</time>
      </trkpt>
      <trkpt lat="45.67746" lon="2.8421">
        <ele>915.31</ele>
        <time>2021-08-14T18:28:52Z</time>
      </trkpt>
      <trkpt lat="45.67738" lon="2.84211">
        <ele>916.27</ele>
        <time>2021-08-14T18:29:00Z</time>
      </trkpt>
      <trkpt lat="45.67727" lon="2.8421">
        <ele>917.72</ele>
        <time>2021-08-14T18:29:11Z</time>
      </trkpt>
      <trkpt lat="45.67717" lon="2.84212">
        <ele>919.64</ele>
        <time>2021-08-14T18:29:21Z</time>
      </trkpt>
      <trkpt lat="45.67708" lon="2.84216">
        <ele>921.08</ele>
        <time>2021-08-14T18:29:32Z</time>
      </trkpt>
      <trkpt lat="45.677" lon="2.84222">
        <ele>923</ele>
        <time>2021-08-14T18:29:43Z</time>
      </trkpt>
      <trkpt lat="45.67691" lon="2.84228">
        <ele>924.45</ele>
        <time>2021-08-14T18:29:54Z</time>
      </trkpt>
      <trkpt lat="45.67684" lon="2.84234">
        <ele>925.41</ele>
        <time>2021-08-14T18:30:04Z</time>
      </trkpt>
      <trkpt lat="45.67682" lon="2.84238">
        <ele>925.89</ele>
        <time>2021-08-14T18:30:08Z</time>
      </trkpt>
      <trkpt lat="45.67676" lon="2.84246">
        <ele>927.81</ele>
        <time>2021-08-14T18:30:19Z</time>
      </trkpt>
      <trkpt lat="45.67669" lon="2.84254">
        <ele>929.25</ele>
        <time>2021-08-14T18:30:31Z</time>
      </trkpt>
      <trkpt lat="45.67663" lon="2.84262">
        <ele>930.21</ele>
        <time>2021-08-14T18:30:40Z</time>
      </trkpt>
      <trkpt lat="45.67658" lon="2.84266">
        <ele>931.17</ele>
        <time>2021-08-14T18:30:49Z</time>
      </trkpt>
      <trkpt lat="45.67654" lon="2.8427">
        <ele>931.17</ele>
        <time>2021-08-14T18:30:54Z</time>
      </trkpt>
      <trkpt lat="45.67653" lon="2.84271">
        <ele>931.17</ele>
        <time>2021-08-14T18:30:55Z</time>
      </trkpt>
      <trkpt lat="45.67652" lon="2.84272">
        <ele>931.17</ele>
        <time>2021-08-14T18:30:56Z</time>
      </trkpt>
      <trkpt lat="45.67651" lon="2.84273">
        <ele>931.17</ele>
        <time>2021-08-14T18:30:57Z</time>
      </trkpt>
      <trkpt lat="45.6765" lon="2.84274">
        <ele>931.65</ele>
        <time>2021-08-14T18:30:58Z</time>
      </trkpt>
      <trkpt lat="45.67649" lon="2.84276">
        <ele>932.14</ele>
        <time>2021-08-14T18:30:59Z</time>
      </trkpt>
      <trkpt lat="45.67647" lon="2.84276">
        <ele>932.14</ele>
        <time>2021-08-14T18:31:00Z</time>
      </trkpt>
      <trkpt lat="45.67643" lon="2.8428">
        <ele>932.62</ele>
        <time>2021-08-14T18:31:04Z</time>
      </trkpt>
      <trkpt lat="45.67642" lon="2.84279">
        <ele>932.62</ele>
        <time>2021-08-14T18:31:05Z</time>
      </trkpt>
      <trkpt lat="45.67641" lon="2.8428">
        <ele>932.62</ele>
        <time>2021-08-14T18:31:06Z</time>
      </trkpt>
      <trkpt lat="45.6764" lon="2.84281">
        <ele>932.62</ele>
        <time>2021-08-14T18:31:07Z</time>
      </trkpt>
      <trkpt lat="45.6764" lon="2.84283">
        <ele>933.58</ele>
        <time>2021-08-14T18:31:08Z</time>
      </trkpt>
      <trkpt lat="45.67639" lon="2.84284">
        <ele>933.58</ele>
        <time>2021-08-14T18:31:09Z</time>
      </trkpt>
      <trkpt lat="45.67639" lon="2.84286">
        <ele>933.58</ele>
        <time>2021-08-14T18:31:10Z</time>
      </trkpt>
      <trkpt lat="45.6764" lon="2.84288">
        <ele>933.58</ele>
        <time>2021-08-14T18:31:11Z</time>
      </trkpt>
      <trkpt lat="45.67638" lon="2.84292">
        <ele>934.06</ele>
        <time>2021-08-14T18:31:13Z</time>
      </trkpt>
      <trkpt lat="45.67629" lon="2.84303">
        <ele>935.5</ele>
        <time>2021-08-14T18:31:22Z</time>
      </trkpt>
      <trkpt lat="45.67621" lon="2.84314">
        <ele>935.98</ele>
        <time>2021-08-14T18:31:31Z</time>
      </trkpt>
      <trkpt lat="45.6762" lon="2.84315">
        <ele>936.94</ele>
        <time>2021-08-14T18:31:32Z</time>
      </trkpt>
      <trkpt lat="45.67619" lon="2.84316">
        <ele>936.94</ele>
        <time>2021-08-14T18:31:33Z</time>
      </trkpt>
      <trkpt lat="45.67618" lon="2.84317">
        <ele>936.94</ele>
        <time>2021-08-14T18:31:34Z</time>
      </trkpt>
      <trkpt lat="45.67618" lon="2.84319">
        <ele>936.94</ele>
        <time>2021-08-14T18:31:35Z</time>
      </trkpt>
      <trkpt lat="45.67617" lon="2.8432">
        <ele>937.42</ele>
        <time>2021-08-14T18:31:36Z</time>
      </trkpt>
      <trkpt lat="45.67616" lon="2.84321">
        <ele>937.42</ele>
        <time>2021-08-14T18:31:37Z</time>
      </trkpt>
      <trkpt lat="45.67615" lon="2.84322">
        <ele>937.42</ele>
        <time>2021-08-14T18:31:38Z</time>
      </trkpt>
      <trkpt lat="45.67614" lon="2.84323">
        <ele>937.42</ele>
        <time>2021-08-14T18:31:39Z</time>
      </trkpt>
      <trkpt lat="45.67613" lon="2.84324">
        <ele>937.42</ele>
        <time>2021-08-14T18:31:40Z</time>
      </trkpt>
      <trkpt lat="45.67612" lon="2.84325">
        <ele>937.9</ele>
        <time>2021-08-14T18:31:41Z</time>
      </trkpt>
      <trkpt lat="45.6761" lon="2.84327">
        <ele>937.9</ele>
        <time>2021-08-14T18:31:43Z</time>
      </trkpt>
      <trkpt lat="45.67602" lon="2.84342">
        <ele>939.35</ele>
        <time>2021-08-14T18:31:55Z</time>
      </trkpt>
      <trkpt lat="45.67594" lon="2.84355">
        <ele>940.79</ele>
        <time>2021-08-14T18:32:05Z</time>
      </trkpt>
      <trkpt lat="45.67588" lon="2.84368">
        <ele>941.75</ele>
        <time>2021-08-14T18:32:14Z</time>
      </trkpt>
      <trkpt lat="45.6758" lon="2.84381">
        <ele>942.23</ele>
        <time>2021-08-14T18:32:23Z</time>
      </trkpt>
      <trkpt lat="45.67574" lon="2.84392">
        <ele>943.67</ele>
        <time>2021-08-14T18:32:32Z</time>
      </trkpt>
      <trkpt lat="45.67573" lon="2.84395">
        <ele>944.63</ele>
        <time>2021-08-14T18:32:34Z</time>
      </trkpt>
      <trkpt lat="45.67573" lon="2.84396">
        <ele>944.63</ele>
        <time>2021-08-14T18:32:35Z</time>
      </trkpt>
      <trkpt lat="45.67572" lon="2.84397">
        <ele>944.63</ele>
        <time>2021-08-14T18:32:36Z</time>
      </trkpt>
      <trkpt lat="45.67565" lon="2.8441">
        <ele>945.59</ele>
        <time>2021-08-14T18:32:46Z</time>
      </trkpt>
      <trkpt lat="45.67558" lon="2.84425">
        <ele>947.04</ele>
        <time>2021-08-14T18:32:56Z</time>
      </trkpt>
      <trkpt lat="45.67557" lon="2.84431">
        <ele>947.52</ele>
        <time>2021-08-14T18:33:00Z</time>
      </trkpt>
      <trkpt lat="45.67556" lon="2.84432">
        <ele>947.52</ele>
        <time>2021-08-14T18:33:01Z</time>
      </trkpt>
      <trkpt lat="45.67555" lon="2.84433">
        <ele>947.52</ele>
        <time>2021-08-14T18:33:02Z</time>
      </trkpt>
      <trkpt lat="45.67554" lon="2.84434">
        <ele>947.52</ele>
        <time>2021-08-14T18:33:03Z</time>
      </trkpt>
      <trkpt lat="45.67553" lon="2.84436">
        <ele>947.52</ele>
        <time>2021-08-14T18:33:04Z</time>
      </trkpt>
      <trkpt lat="45.67552" lon="2.84438">
        <ele>948</ele>
        <time>2021-08-14T18:33:06Z</time>
      </trkpt>
      <trkpt lat="45.67551" lon="2.8444">
        <ele>948</ele>
        <time>2021-08-14T18:33:07Z</time>
      </trkpt>
      <trkpt lat="45.67546" lon="2.84455">
        <ele>948.96</ele>
        <time>2021-08-14T18:33:17Z</time>
      </trkpt>
      <trkpt lat="45.67541" lon="2.8447">
        <ele>949.92</ele>
        <time>2021-08-14T18:33:26Z</time>
      </trkpt>
      <trkpt lat="45.67541" lon="2.84471">
        <ele>949.92</ele>
        <time>2021-08-14T18:33:27Z</time>
      </trkpt>
      <trkpt lat="45.6754" lon="2.84472">
        <ele>949.92</ele>
        <time>2021-08-14T18:33:28Z</time>
      </trkpt>
      <trkpt lat="45.67539" lon="2.84474">
        <ele>950.4</ele>
        <time>2021-08-14T18:33:29Z</time>
      </trkpt>
      <trkpt lat="45.67539" lon="2.84476">
        <ele>950.4</ele>
        <time>2021-08-14T18:33:30Z</time>
      </trkpt>
      <trkpt lat="45.67538" lon="2.84477">
        <ele>950.4</ele>
        <time>2021-08-14T18:33:31Z</time>
      </trkpt>
      <trkpt lat="45.6753" lon="2.84494">
        <ele>952.32</ele>
        <time>2021-08-14T18:33:44Z</time>
      </trkpt>
      <trkpt lat="45.6753" lon="2.84496">
        <ele>952.32</ele>
        <time>2021-08-14T18:33:45Z</time>
      </trkpt>
      <trkpt lat="45.67529" lon="2.84497">
        <ele>952.32</ele>
        <time>2021-08-14T18:33:46Z</time>
      </trkpt>
      <trkpt lat="45.67529" lon="2.84499">
        <ele>952.8</ele>
        <time>2021-08-14T18:33:47Z</time>
      </trkpt>
      <trkpt lat="45.67526" lon="2.84504">
        <ele>953.77</ele>
        <time>2021-08-14T18:33:52Z</time>
      </trkpt>
      <trkpt lat="45.67521" lon="2.84516">
        <ele>955.21</ele>
        <time>2021-08-14T18:34:02Z</time>
      </trkpt>
      <trkpt lat="45.67518" lon="2.84525">
        <ele>955.69</ele>
        <time>2021-08-14T18:34:10Z</time>
      </trkpt>
      <trkpt lat="45.67514" lon="2.84534">
        <ele>957.61</ele>
        <time>2021-08-14T18:34:21Z</time>
      </trkpt>
      <trkpt lat="45.67508" lon="2.84543">
        <ele>959.05</ele>
        <time>2021-08-14T18:34:32Z</time>
      </trkpt>
      <trkpt lat="45.67505" lon="2.84547">
        <ele>960.01</ele>
        <time>2021-08-14T18:34:41Z</time>
      </trkpt>
      <trkpt lat="45.67502" lon="2.84552">
        <ele>960.98</ele>
        <time>2021-08-14T18:34:51Z</time>
      </trkpt>
      <trkpt lat="45.67498" lon="2.84558">
        <ele>962.42</ele>
        <time>2021-08-14T18:35:01Z</time>
      </trkpt>
      <trkpt lat="45.67495" lon="2.84565">
        <ele>963.38</ele>
        <time>2021-08-14T18:35:10Z</time>
      </trkpt>
      <trkpt lat="45.67491" lon="2.8457">
        <ele>964.82</ele>
        <time>2021-08-14T18:35:21Z</time>
      </trkpt>
      <trkpt lat="45.67488" lon="2.84576">
        <ele>966.74</ele>
        <time>2021-08-14T18:35:30Z</time>
      </trkpt>
      <trkpt lat="45.67486" lon="2.84584">
        <ele>968.18</ele>
        <time>2021-08-14T18:35:39Z</time>
      </trkpt>
      <trkpt lat="45.67484" lon="2.84592">
        <ele>969.15</ele>
        <time>2021-08-14T18:35:48Z</time>
      </trkpt>
      <trkpt lat="45.6748" lon="2.84596">
        <ele>971.07</ele>
        <time>2021-08-14T18:35:59Z</time>
      </trkpt>
      <trkpt lat="45.67474" lon="2.84601">
        <ele>973.47</ele>
        <time>2021-08-14T18:36:11Z</time>
      </trkpt>
      <trkpt lat="45.67473" lon="2.84602">
        <ele>973.95</ele>
        <time>2021-08-14T18:36:16Z</time>
      </trkpt>
      <trkpt lat="45.6747" lon="2.84609">
        <ele>975.39</ele>
        <time>2021-08-14T18:36:25Z</time>
      </trkpt>
      <trkpt lat="45.67466" lon="2.84614">
        <ele>976.84</ele>
        <time>2021-08-14T18:36:35Z</time>
      </trkpt>
      <trkpt lat="45.67464" lon="2.84618">
        <ele>977.8</ele>
        <time>2021-08-14T18:36:43Z</time>
      </trkpt>
      <trkpt lat="45.67463" lon="2.84624">
        <ele>979.24</ele>
        <time>2021-08-14T18:36:51Z</time>
      </trkpt>
      <trkpt lat="45.67458" lon="2.84628">
        <ele>980.68</ele>
        <time>2021-08-14T18:37:01Z</time>
      </trkpt>
      <trkpt lat="45.67455" lon="2.84634">
        <ele>982.12</ele>
        <time>2021-08-14T18:37:11Z</time>
      </trkpt>
      <trkpt lat="45.67451" lon="2.8464">
        <ele>983.57</ele>
        <time>2021-08-14T18:37:22Z</time>
      </trkpt>
      <trkpt lat="45.67445" lon="2.84646">
        <ele>984.05</ele>
        <time>2021-08-14T18:37:31Z</time>
      </trkpt>
      <trkpt lat="45.67438" lon="2.84647">
        <ele>985.49</ele>
        <time>2021-08-14T18:37:40Z</time>
      </trkpt>
      <trkpt lat="45.67431" lon="2.8465">
        <ele>986.45</ele>
        <time>2021-08-14T18:37:50Z</time>
      </trkpt>
      <trkpt lat="45.67423" lon="2.84654">
        <ele>988.37</ele>
        <time>2021-08-14T18:38:01Z</time>
      </trkpt>
      <trkpt lat="45.67417" lon="2.84654">
        <ele>989.33</ele>
        <time>2021-08-14T18:38:11Z</time>
      </trkpt>
      <trkpt lat="45.6741" lon="2.84654">
        <ele>990.3</ele>
        <time>2021-08-14T18:38:19Z</time>
      </trkpt>
      <trkpt lat="45.67401" lon="2.84651">
        <ele>991.74</ele>
        <time>2021-08-14T18:38:28Z</time>
      </trkpt>
      <trkpt lat="45.67393" lon="2.84651">
        <ele>992.22</ele>
        <time>2021-08-14T18:38:36Z</time>
      </trkpt>
      <trkpt lat="45.67384" lon="2.8465">
        <ele>994.14</ele>
        <time>2021-08-14T18:38:47Z</time>
      </trkpt>
      <trkpt lat="45.67375" lon="2.84646">
        <ele>995.1</ele>
        <time>2021-08-14T18:38:57Z</time>
      </trkpt>
      <trkpt lat="45.6737" lon="2.84643">
        <ele>995.58</ele>
        <time>2021-08-14T18:39:03Z</time>
      </trkpt>
      <trkpt lat="45.67362" lon="2.84636">
        <ele>997.02</ele>
        <time>2021-08-14T18:39:12Z</time>
      </trkpt>
      <trkpt lat="45.67356" lon="2.84626">
        <ele>997.99</ele>
        <time>2021-08-14T18:39:22Z</time>
      </trkpt>
      <trkpt lat="45.67351" lon="2.84619">
        <ele>998.95</ele>
        <time>2021-08-14T18:39:30Z</time>
      </trkpt>
      <trkpt lat="45.67347" lon="2.84613">
        <ele>999.91</ele>
        <time>2021-08-14T18:39:38Z</time>
      </trkpt>
      <trkpt lat="45.67339" lon="2.84607">
        <ele>1001.35</ele>
        <time>2021-08-14T18:39:49Z</time>
      </trkpt>
      <trkpt lat="45.67332" lon="2.84603">
        <ele>1002.31</ele>
        <time>2021-08-14T18:39:59Z</time>
      </trkpt>
      <trkpt lat="45.67326" lon="2.84601">
        <ele>1003.75</ele>
        <time>2021-08-14T18:40:09Z</time>
      </trkpt>
      <trkpt lat="45.67319" lon="2.846">
        <ele>1004.72</ele>
        <time>2021-08-14T18:40:19Z</time>
      </trkpt>
      <trkpt lat="45.67312" lon="2.84604">
        <ele>1006.16</ele>
        <time>2021-08-14T18:40:29Z</time>
      </trkpt>
      <trkpt lat="45.6731" lon="2.84606">
        <ele>1006.64</ele>
        <time>2021-08-14T18:40:33Z</time>
      </trkpt>
      <trkpt lat="45.67308" lon="2.84614">
        <ele>1007.12</ele>
        <time>2021-08-14T18:40:41Z</time>
      </trkpt>
      <trkpt lat="45.67308" lon="2.84624">
        <ele>1008.56</ele>
        <time>2021-08-14T18:40:51Z</time>
      </trkpt>
      <trkpt lat="45.67309" lon="2.8463">
        <ele>1009.04</ele>
        <time>2021-08-14T18:40:56Z</time>
      </trkpt>
      <trkpt lat="45.67312" lon="2.84638">
        <ele>1010</ele>
        <time>2021-08-14T18:41:03Z</time>
      </trkpt>
      <trkpt lat="45.67314" lon="2.84645">
        <ele>1010.48</ele>
        <time>2021-08-14T18:41:09Z</time>
      </trkpt>
      <trkpt lat="45.67315" lon="2.84655">
        <ele>1011.44</ele>
        <time>2021-08-14T18:41:17Z</time>
      </trkpt>
      <trkpt lat="45.67315" lon="2.84665">
        <ele>1012.41</ele>
        <time>2021-08-14T18:41:26Z</time>
      </trkpt>
      <trkpt lat="45.67316" lon="2.84671">
        <ele>1013.37</ele>
        <time>2021-08-14T18:41:33Z</time>
      </trkpt>
      <trkpt lat="45.67315" lon="2.84679">
        <ele>1014.33</ele>
        <time>2021-08-14T18:41:41Z</time>
      </trkpt>
      <trkpt lat="45.67314" lon="2.84684">
        <ele>1014.81</ele>
        <time>2021-08-14T18:41:45Z</time>
      </trkpt>
      <trkpt lat="45.67312" lon="2.84692">
        <ele>1016.25</ele>
        <time>2021-08-14T18:41:53Z</time>
      </trkpt>
      <trkpt lat="45.67309" lon="2.84702">
        <ele>1017.21</ele>
        <time>2021-08-14T18:42:03Z</time>
      </trkpt>
      <trkpt lat="45.67308" lon="2.84712">
        <ele>1018.17</ele>
        <time>2021-08-14T18:42:11Z</time>
      </trkpt>
      <trkpt lat="45.67305" lon="2.84725">
        <ele>1019.62</ele>
        <time>2021-08-14T18:42:24Z</time>
      </trkpt>
      <trkpt lat="45.67302" lon="2.84734">
        <ele>1020.58</ele>
        <time>2021-08-14T18:42:34Z</time>
      </trkpt>
      <trkpt lat="45.673" lon="2.84745">
        <ele>1022.02</ele>
        <time>2021-08-14T18:42:44Z</time>
      </trkpt>
      <trkpt lat="45.67297" lon="2.84755">
        <ele>1022.98</ele>
        <time>2021-08-14T18:42:53Z</time>
      </trkpt>
      <trkpt lat="45.67295" lon="2.84765">
        <ele>1023.94</ele>
        <time>2021-08-14T18:43:02Z</time>
      </trkpt>
      <trkpt lat="45.67292" lon="2.84779">
        <ele>1024.9</ele>
        <time>2021-08-14T18:43:12Z</time>
      </trkpt>
      <trkpt lat="45.67287" lon="2.84793">
        <ele>1025.38</ele>
        <time>2021-08-14T18:43:23Z</time>
      </trkpt>
      <trkpt lat="45.67286" lon="2.84795">
        <ele>1025.86</ele>
        <time>2021-08-14T18:43:31Z</time>
      </trkpt>
      <trkpt lat="45.67286" lon="2.84797">
        <ele>1025.86</ele>
        <time>2021-08-14T18:43:41Z</time>
      </trkpt>
      <trkpt lat="45.67285" lon="2.84799">
        <ele>1025.86</ele>
        <time>2021-08-14T18:43:42Z</time>
      </trkpt>
      <trkpt lat="45.67285" lon="2.848">
        <ele>1025.86</ele>
        <time>2021-08-14T18:43:43Z</time>
      </trkpt>
      <trkpt lat="45.67284" lon="2.84802">
        <ele>1025.86</ele>
        <time>2021-08-14T18:43:44Z</time>
      </trkpt>
      <trkpt lat="45.67284" lon="2.84803">
        <ele>1025.86</ele>
        <time>2021-08-14T18:43:45Z</time>
      </trkpt>
      <trkpt lat="45.67281" lon="2.8482">
        <ele>1026.83</ele>
        <time>2021-08-14T18:43:55Z</time>
      </trkpt>
      <trkpt lat="45.67275" lon="2.84834">
        <ele>1027.79</ele>
        <time>2021-08-14T18:44:02Z</time>
      </trkpt>
      <trkpt lat="45.67269" lon="2.84853">
        <ele>1027.31</ele>
        <time>2021-08-14T18:44:10Z</time>
      </trkpt>
      <trkpt lat="45.67262" lon="2.84877">
        <ele>1027.31</ele>
        <time>2021-08-14T18:44:18Z</time>
      </trkpt>
      <trkpt lat="45.67254" lon="2.84904">
        <ele>1026.34</ele>
        <time>2021-08-14T18:44:27Z</time>
      </trkpt>
      <trkpt lat="45.67247" lon="2.84927">
        <ele>1026.34</ele>
        <time>2021-08-14T18:44:34Z</time>
      </trkpt>
      <trkpt lat="45.67234" lon="2.84957">
        <ele>1026.34</ele>
        <time>2021-08-14T18:44:44Z</time>
      </trkpt>
      <trkpt lat="45.67215" lon="2.84983">
        <ele>1026.34</ele>
        <time>2021-08-14T18:44:54Z</time>
      </trkpt>
      <trkpt lat="45.67196" lon="2.84994">
        <ele>1027.31</ele>
        <time>2021-08-14T18:45:02Z</time>
      </trkpt>
      <trkpt lat="45.67178" lon="2.84994">
        <ele>1027.31</ele>
        <time>2021-08-14T18:45:09Z</time>
      </trkpt>
      <trkpt lat="45.6716" lon="2.84995">
        <ele>1028.75</ele>
        <time>2021-08-14T18:45:18Z</time>
      </trkpt>
      <trkpt lat="45.6714" lon="2.84995">
        <ele>1030.67</ele>
        <time>2021-08-14T18:45:30Z</time>
      </trkpt>
      <trkpt lat="45.67127" lon="2.84995">
        <ele>1031.63</ele>
        <time>2021-08-14T18:45:39Z</time>
      </trkpt>
      <trkpt lat="45.67125" lon="2.84997">
        <ele>1032.11</ele>
        <time>2021-08-14T18:45:41Z</time>
      </trkpt>
      <trkpt lat="45.67124" lon="2.85">
        <ele>1032.59</ele>
        <time>2021-08-14T18:45:43Z</time>
      </trkpt>
      <trkpt lat="45.67127" lon="2.85004">
        <ele>1033.07</ele>
        <time>2021-08-14T18:45:46Z</time>
      </trkpt>
      <trkpt lat="45.67128" lon="2.85005">
        <ele>1033.07</ele>
        <time>2021-08-14T18:45:47Z</time>
      </trkpt>
      <trkpt lat="45.67129" lon="2.85007">
        <ele>1033.07</ele>
        <time>2021-08-14T18:45:48Z</time>
      </trkpt>
      <trkpt lat="45.6714" lon="2.85018">
        <ele>1033.55</ele>
        <time>2021-08-14T18:45:56Z</time>
      </trkpt>
      <trkpt lat="45.67147" lon="2.8503">
        <ele>1034.52</ele>
        <time>2021-08-14T18:46:02Z</time>
      </trkpt>
      <trkpt lat="45.6715" lon="2.85033">
        <ele>1035</ele>
        <time>2021-08-14T18:46:04Z</time>
      </trkpt>
      <trkpt lat="45.67155" lon="2.85036">
        <ele>1035.48</ele>
        <time>2021-08-14T18:46:07Z</time>
      </trkpt>
      <trkpt lat="45.67156" lon="2.85038">
        <ele>1035.48</ele>
        <time>2021-08-14T18:46:08Z</time>
      </trkpt>
      <trkpt lat="45.67157" lon="2.8504">
        <ele>1035.48</ele>
        <time>2021-08-14T18:46:09Z</time>
      </trkpt>
      <trkpt lat="45.67159" lon="2.85047">
        <ele>1035.48</ele>
        <time>2021-08-14T18:46:12Z</time>
      </trkpt>
      <trkpt lat="45.67161" lon="2.85049">
        <ele>1035.96</ele>
        <time>2021-08-14T18:46:14Z</time>
      </trkpt>
      <trkpt lat="45.67163" lon="2.85051">
        <ele>1035.96</ele>
        <time>2021-08-14T18:46:15Z</time>
      </trkpt>
      <trkpt lat="45.67164" lon="2.85053">
        <ele>1035.96</ele>
        <time>2021-08-14T18:46:16Z</time>
      </trkpt>
      <trkpt lat="45.67168" lon="2.85059">
        <ele>1035.96</ele>
        <time>2021-08-14T18:46:19Z</time>
      </trkpt>
      <trkpt lat="45.6717" lon="2.85063">
        <ele>1036.92</ele>
        <time>2021-08-14T18:46:21Z</time>
      </trkpt>
      <trkpt lat="45.67172" lon="2.85065">
        <ele>1036.92</ele>
        <time>2021-08-14T18:46:22Z</time>
      </trkpt>
      <trkpt lat="45.67187" lon="2.85089">
        <ele>1037.4</ele>
        <time>2021-08-14T18:46:33Z</time>
      </trkpt>
      <trkpt lat="45.67192" lon="2.85102">
        <ele>1037.4</ele>
        <time>2021-08-14T18:46:39Z</time>
      </trkpt>
      <trkpt lat="45.67193" lon="2.85111">
        <ele>1037.4</ele>
        <time>2021-08-14T18:46:42Z</time>
      </trkpt>
      <trkpt lat="45.67184" lon="2.8512">
        <ele>1037.88</ele>
        <time>2021-08-14T18:46:48Z</time>
      </trkpt>
      <trkpt lat="45.6717" lon="2.85118">
        <ele>1038.36</ele>
        <time>2021-08-14T18:46:55Z</time>
      </trkpt>
      <trkpt lat="45.67147" lon="2.85108">
        <ele>1038.84</ele>
        <time>2021-08-14T18:47:04Z</time>
      </trkpt>
      <trkpt lat="45.6713" lon="2.85104">
        <ele>1039.32</ele>
        <time>2021-08-14T18:47:11Z</time>
      </trkpt>
      <trkpt lat="45.67126" lon="2.85103">
        <ele>1039.32</ele>
        <time>2021-08-14T18:47:13Z</time>
      </trkpt>
      <trkpt lat="45.671" lon="2.85094">
        <ele>1039.8</ele>
        <time>2021-08-14T18:47:24Z</time>
      </trkpt>
      <trkpt lat="45.67076" lon="2.85088">
        <ele>1040.28</ele>
        <time>2021-08-14T18:47:34Z</time>
      </trkpt>
      <trkpt lat="45.67052" lon="2.85078">
        <ele>1041.25</ele>
        <time>2021-08-14T18:47:45Z</time>
      </trkpt>
      <trkpt lat="45.67036" lon="2.85072">
        <ele>1042.21</ele>
        <time>2021-08-14T18:47:53Z</time>
      </trkpt>
      <trkpt lat="45.67016" lon="2.85064">
        <ele>1043.65</ele>
        <time>2021-08-14T18:48:03Z</time>
      </trkpt>
      <trkpt lat="45.66997" lon="2.85055">
        <ele>1044.61</ele>
        <time>2021-08-14T18:48:14Z</time>
      </trkpt>
      <trkpt lat="45.6698" lon="2.85052">
        <ele>1045.57</ele>
        <time>2021-08-14T18:48:24Z</time>
      </trkpt>
      <trkpt lat="45.66963" lon="2.85044">
        <ele>1047.01</ele>
        <time>2021-08-14T18:48:35Z</time>
      </trkpt>
      <trkpt lat="45.66946" lon="2.85035">
        <ele>1047.49</ele>
        <time>2021-08-14T18:48:45Z</time>
      </trkpt>
      <trkpt lat="45.66931" lon="2.85028">
        <ele>1048.94</ele>
        <time>2021-08-14T18:48:54Z</time>
      </trkpt>
      <trkpt lat="45.66918" lon="2.8502">
        <ele>1049.9</ele>
        <time>2021-08-14T18:49:03Z</time>
      </trkpt>
      <trkpt lat="45.66902" lon="2.85012">
        <ele>1051.82</ele>
        <time>2021-08-14T18:49:15Z</time>
      </trkpt>
      <trkpt lat="45.6689" lon="2.85008">
        <ele>1052.78</ele>
        <time>2021-08-14T18:49:24Z</time>
      </trkpt>
      <trkpt lat="45.66875" lon="2.85002">
        <ele>1054.7</ele>
        <time>2021-08-14T18:49:35Z</time>
      </trkpt>
      <trkpt lat="45.66858" lon="2.84994">
        <ele>1056.63</ele>
        <time>2021-08-14T18:49:49Z</time>
      </trkpt>
      <trkpt lat="45.66849" lon="2.84991">
        <ele>1057.59</ele>
        <time>2021-08-14T18:49:56Z</time>
      </trkpt>
      <trkpt lat="45.66836" lon="2.84986">
        <ele>1059.03</ele>
        <time>2021-08-14T18:50:05Z</time>
      </trkpt>
      <trkpt lat="45.66824" lon="2.8498">
        <ele>1059.99</ele>
        <time>2021-08-14T18:50:15Z</time>
      </trkpt>
      <trkpt lat="45.66808" lon="2.84973">
        <ele>1061.43</ele>
        <time>2021-08-14T18:50:27Z</time>
      </trkpt>
      <trkpt lat="45.66801" lon="2.8497">
        <ele>1061.43</ele>
        <time>2021-08-14T18:50:33Z</time>
      </trkpt>
      <trkpt lat="45.66799" lon="2.8497">
        <ele>1061.91</ele>
        <time>2021-08-14T18:50:34Z</time>
      </trkpt>
      <trkpt lat="45.66798" lon="2.84969">
        <ele>1061.91</ele>
        <time>2021-08-14T18:50:35Z</time>
      </trkpt>
      <trkpt lat="45.66797" lon="2.84969">
        <ele>1061.91</ele>
        <time>2021-08-14T18:50:36Z</time>
      </trkpt>
      <trkpt lat="45.66795" lon="2.84968">
        <ele>1061.91</ele>
        <time>2021-08-14T18:50:37Z</time>
      </trkpt>
      <trkpt lat="45.6678" lon="2.84963">
        <ele>1063.36</ele>
        <time>2021-08-14T18:50:49Z</time>
      </trkpt>
      <trkpt lat="45.66773" lon="2.8496">
        <ele>1063.84</ele>
        <time>2021-08-14T18:50:54Z</time>
      </trkpt>
      <trkpt lat="45.66772" lon="2.8496">
        <ele>1063.84</ele>
        <time>2021-08-14T18:50:55Z</time>
      </trkpt>
      <trkpt lat="45.66763" lon="2.84957">
        <ele>1064.8</ele>
        <time>2021-08-14T18:51:03Z</time>
      </trkpt>
      <trkpt lat="45.6675" lon="2.84953">
        <ele>1066.24</ele>
        <time>2021-08-14T18:51:11Z</time>
      </trkpt>
      <trkpt lat="45.66737" lon="2.84948">
        <ele>1067.2</ele>
        <time>2021-08-14T18:51:20Z</time>
      </trkpt>
      <trkpt lat="45.66721" lon="2.84942">
        <ele>1068.64</ele>
        <time>2021-08-14T18:51:31Z</time>
      </trkpt>
      <trkpt lat="45.66709" lon="2.84937">
        <ele>1070.08</ele>
        <time>2021-08-14T18:51:40Z</time>
      </trkpt>
      <trkpt lat="45.66694" lon="2.84932">
        <ele>1072.01</ele>
        <time>2021-08-14T18:51:50Z</time>
      </trkpt>
      <trkpt lat="45.66679" lon="2.84925">
        <ele>1072.97</ele>
        <time>2021-08-14T18:52:01Z</time>
      </trkpt>
      <trkpt lat="45.66667" lon="2.84921">
        <ele>1073.93</ele>
        <time>2021-08-14T18:52:09Z</time>
      </trkpt>
      <trkpt lat="45.66655" lon="2.84917">
        <ele>1074.89</ele>
        <time>2021-08-14T18:52:18Z</time>
      </trkpt>
      <trkpt lat="45.66645" lon="2.84914">
        <ele>1075.37</ele>
        <time>2021-08-14T18:52:25Z</time>
      </trkpt>
      <trkpt lat="45.66631" lon="2.8491">
        <ele>1076.33</ele>
        <time>2021-08-14T18:52:34Z</time>
      </trkpt>
      <trkpt lat="45.66614" lon="2.84906">
        <ele>1077.29</ele>
        <time>2021-08-14T18:52:45Z</time>
      </trkpt>
      <trkpt lat="45.666" lon="2.849">
        <ele>1077.78</ele>
        <time>2021-08-14T18:52:54Z</time>
      </trkpt>
      <trkpt lat="45.66588" lon="2.84895">
        <ele>1078.26</ele>
        <time>2021-08-14T18:53:01Z</time>
      </trkpt>
      <trkpt lat="45.66575" lon="2.84888">
        <ele>1078.74</ele>
        <time>2021-08-14T18:53:10Z</time>
      </trkpt>
      <trkpt lat="45.6656" lon="2.84878">
        <ele>1080.18</ele>
        <time>2021-08-14T18:53:19Z</time>
      </trkpt>
      <trkpt lat="45.66547" lon="2.84871">
        <ele>1081.14</ele>
        <time>2021-08-14T18:53:27Z</time>
      </trkpt>
      <trkpt lat="45.66545" lon="2.8487">
        <ele>1081.14</ele>
        <time>2021-08-14T18:53:28Z</time>
      </trkpt>
      <trkpt lat="45.6653" lon="2.84862">
        <ele>1081.62</ele>
        <time>2021-08-14T18:53:37Z</time>
      </trkpt>
      <trkpt lat="45.66514" lon="2.84855">
        <ele>1082.58</ele>
        <time>2021-08-14T18:53:46Z</time>
      </trkpt>
      <trkpt lat="45.66496" lon="2.84846">
        <ele>1083.54</ele>
        <time>2021-08-14T18:53:56Z</time>
      </trkpt>
      <trkpt lat="45.66483" lon="2.84836">
        <ele>1084.5</ele>
        <time>2021-08-14T18:54:05Z</time>
      </trkpt>
      <trkpt lat="45.66469" lon="2.84827">
        <ele>1084.99</ele>
        <time>2021-08-14T18:54:13Z</time>
      </trkpt>
      <trkpt lat="45.66458" lon="2.84818">
        <ele>1086.43</ele>
        <time>2021-08-14T18:54:20Z</time>
      </trkpt>
      <trkpt lat="45.6645" lon="2.84812">
        <ele>1086.91</ele>
        <time>2021-08-14T18:54:25Z</time>
      </trkpt>
      <trkpt lat="45.66448" lon="2.84811">
        <ele>1086.91</ele>
        <time>2021-08-14T18:54:26Z</time>
      </trkpt>
      <trkpt lat="45.66446" lon="2.8481">
        <ele>1087.39</ele>
        <time>2021-08-14T18:54:27Z</time>
      </trkpt>
      <trkpt lat="45.66445" lon="2.84808">
        <ele>1087.39</ele>
        <time>2021-08-14T18:54:28Z</time>
      </trkpt>
      <trkpt lat="45.66443" lon="2.84807">
        <ele>1087.39</ele>
        <time>2021-08-14T18:54:29Z</time>
      </trkpt>
      <trkpt lat="45.66427" lon="2.84795">
        <ele>1088.35</ele>
        <time>2021-08-14T18:54:39Z</time>
      </trkpt>
      <trkpt lat="45.66413" lon="2.84784">
        <ele>1089.31</ele>
        <time>2021-08-14T18:54:48Z</time>
      </trkpt>
      <trkpt lat="45.66405" lon="2.84779">
        <ele>1089.79</ele>
        <time>2021-08-14T18:54:53Z</time>
      </trkpt>
      <trkpt lat="45.66403" lon="2.84779">
        <ele>1090.27</ele>
        <time>2021-08-14T18:54:54Z</time>
      </trkpt>
      <trkpt lat="45.66401" lon="2.84778">
        <ele>1090.27</ele>
        <time>2021-08-14T18:54:55Z</time>
      </trkpt>
      <trkpt lat="45.664" lon="2.84777">
        <ele>1090.27</ele>
        <time>2021-08-14T18:54:56Z</time>
      </trkpt>
      <trkpt lat="45.66399" lon="2.84776">
        <ele>1090.27</ele>
        <time>2021-08-14T18:54:57Z</time>
      </trkpt>
      <trkpt lat="45.66397" lon="2.84776">
        <ele>1090.27</ele>
        <time>2021-08-14T18:54:58Z</time>
      </trkpt>
      <trkpt lat="45.66383" lon="2.84769">
        <ele>1091.23</ele>
        <time>2021-08-14T18:55:07Z</time>
      </trkpt>
      <trkpt lat="45.66361" lon="2.84756">
        <ele>1091.71</ele>
        <time>2021-08-14T18:55:18Z</time>
      </trkpt>
      <trkpt lat="45.66346" lon="2.84745">
        <ele>1092.2</ele>
        <time>2021-08-14T18:55:25Z</time>
      </trkpt>
      <trkpt lat="45.6633" lon="2.84731">
        <ele>1090.75</ele>
        <time>2021-08-14T18:55:31Z</time>
      </trkpt>
      <trkpt lat="45.66323" lon="2.84724">
        <ele>1089.79</ele>
        <time>2021-08-14T18:55:33Z</time>
      </trkpt>
      <trkpt lat="45.66318" lon="2.84722">
        <ele>1088.83</ele>
        <time>2021-08-14T18:55:34Z</time>
      </trkpt>
      <trkpt lat="45.66313" lon="2.84722">
        <ele>1088.35</ele>
        <time>2021-08-14T18:55:35Z</time>
      </trkpt>
      <trkpt lat="45.66307" lon="2.84724">
        <ele>1087.87</ele>
        <time>2021-08-14T18:55:36Z</time>
      </trkpt>
      <trkpt lat="45.66304" lon="2.84726">
        <ele>1087.87</ele>
        <time>2021-08-14T18:55:37Z</time>
      </trkpt>
      <trkpt lat="45.663" lon="2.84729">
        <ele>1087.87</ele>
        <time>2021-08-14T18:55:38Z</time>
      </trkpt>
      <trkpt lat="45.66294" lon="2.84735">
        <ele>1089.31</ele>
        <time>2021-08-14T18:55:40Z</time>
      </trkpt>
      <trkpt lat="45.6627" lon="2.84755">
        <ele>1090.75</ele>
        <time>2021-08-14T18:55:49Z</time>
      </trkpt>
      <trkpt lat="45.66253" lon="2.84764">
        <ele>1091.71</ele>
        <time>2021-08-14T18:55:56Z</time>
      </trkpt>
      <trkpt lat="45.66237" lon="2.84767">
        <ele>1092.2</ele>
        <time>2021-08-14T18:56:02Z</time>
      </trkpt>
      <trkpt lat="45.66216" lon="2.84773">
        <ele>1093.16</ele>
        <time>2021-08-14T18:56:11Z</time>
      </trkpt>
      <trkpt lat="45.66204" lon="2.84782">
        <ele>1094.6</ele>
        <time>2021-08-14T18:56:19Z</time>
      </trkpt>
      <trkpt lat="45.66201" lon="2.84798">
        <ele>1095.56</ele>
        <time>2021-08-14T18:56:26Z</time>
      </trkpt>
      <trkpt lat="45.66202" lon="2.84821">
        <ele>1096.52</ele>
        <time>2021-08-14T18:56:35Z</time>
      </trkpt>
      <trkpt lat="45.66201" lon="2.84851">
        <ele>1097</ele>
        <time>2021-08-14T18:56:44Z</time>
      </trkpt>
      <trkpt lat="45.66195" lon="2.84885">
        <ele>1097</ele>
        <time>2021-08-14T18:56:53Z</time>
      </trkpt>
      <trkpt lat="45.66181" lon="2.84896">
        <ele>1097.48</ele>
        <time>2021-08-14T18:56:59Z</time>
      </trkpt>
      <trkpt lat="45.66166" lon="2.84907">
        <ele>1097.96</ele>
        <time>2021-08-14T18:57:07Z</time>
      </trkpt>
      <trkpt lat="45.6615" lon="2.84918">
        <ele>1098.92</ele>
        <time>2021-08-14T18:57:16Z</time>
      </trkpt>
      <trkpt lat="45.6614" lon="2.84923">
        <ele>1099.4</ele>
        <time>2021-08-14T18:57:22Z</time>
      </trkpt>
      <trkpt lat="45.66125" lon="2.84931">
        <ele>1100.85</ele>
        <time>2021-08-14T18:57:30Z</time>
      </trkpt>
      <trkpt lat="45.66123" lon="2.84932">
        <ele>1100.85</ele>
        <time>2021-08-14T18:57:31Z</time>
      </trkpt>
      <trkpt lat="45.661" lon="2.84941">
        <ele>1101.81</ele>
        <time>2021-08-14T18:57:41Z</time>
      </trkpt>
      <trkpt lat="45.66087" lon="2.84946">
        <ele>1102.77</ele>
        <time>2021-08-14T18:57:48Z</time>
      </trkpt>
      <trkpt lat="45.66074" lon="2.84954">
        <ele>1103.73</ele>
        <time>2021-08-14T18:57:56Z</time>
      </trkpt>
      <trkpt lat="45.66062" lon="2.84961">
        <ele>1104.69</ele>
        <time>2021-08-14T18:58:04Z</time>
      </trkpt>
      <trkpt lat="45.6605" lon="2.84961">
        <ele>1105.65</ele>
        <time>2021-08-14T18:58:11Z</time>
      </trkpt>
      <trkpt lat="45.66041" lon="2.84963">
        <ele>1106.61</ele>
        <time>2021-08-14T18:58:19Z</time>
      </trkpt>
      <trkpt lat="45.66032" lon="2.84965">
        <ele>1107.1</ele>
        <time>2021-08-14T18:58:27Z</time>
      </trkpt>
      <trkpt lat="45.66025" lon="2.84968">
        <ele>1108.06</ele>
        <time>2021-08-14T18:58:33Z</time>
      </trkpt>
      <trkpt lat="45.66016" lon="2.84972">
        <ele>1108.54</ele>
        <time>2021-08-14T18:58:39Z</time>
      </trkpt>
      <trkpt lat="45.66014" lon="2.84974">
        <ele>1108.54</ele>
        <time>2021-08-14T18:58:41Z</time>
      </trkpt>
      <trkpt lat="45.66003" lon="2.84978">
        <ele>1109.5</ele>
        <time>2021-08-14T18:58:49Z</time>
      </trkpt>
      <trkpt lat="45.65992" lon="2.84983">
        <ele>1110.94</ele>
        <time>2021-08-14T18:58:58Z</time>
      </trkpt>
      <trkpt lat="45.65989" lon="2.84983">
        <ele>1110.94</ele>
        <time>2021-08-14T18:59:00Z</time>
      </trkpt>
      <trkpt lat="45.65978" lon="2.84988">
        <ele>1110.94</ele>
        <time>2021-08-14T18:59:07Z</time>
      </trkpt>
      <trkpt lat="45.65971" lon="2.84989">
        <ele>1111.42</ele>
        <time>2021-08-14T18:59:11Z</time>
      </trkpt>
      <trkpt lat="45.65969" lon="2.8499">
        <ele>1111.42</ele>
        <time>2021-08-14T18:59:12Z</time>
      </trkpt>
      <trkpt lat="45.65959" lon="2.84993">
        <ele>1112.38</ele>
        <time>2021-08-14T18:59:19Z</time>
      </trkpt>
      <trkpt lat="45.65944" lon="2.84995">
        <ele>1112.86</ele>
        <time>2021-08-14T18:59:28Z</time>
      </trkpt>
      <trkpt lat="45.65929" lon="2.84998">
        <ele>1114.31</ele>
        <time>2021-08-14T18:59:38Z</time>
      </trkpt>
      <trkpt lat="45.65924" lon="2.84998">
        <ele>1114.79</ele>
        <time>2021-08-14T18:59:42Z</time>
      </trkpt>
      <trkpt lat="45.65923" lon="2.84999">
        <ele>1115.27</ele>
        <time>2021-08-14T18:59:43Z</time>
      </trkpt>
      <trkpt lat="45.65912" lon="2.85003">
        <ele>1116.23</ele>
        <time>2021-08-14T18:59:51Z</time>
      </trkpt>
      <trkpt lat="45.65911" lon="2.85003">
        <ele>1116.71</ele>
        <time>2021-08-14T18:59:52Z</time>
      </trkpt>
      <trkpt lat="45.65899" lon="2.8501">
        <ele>1117.67</ele>
        <time>2021-08-14T19:00:01Z</time>
      </trkpt>
      <trkpt lat="45.65887" lon="2.85015">
        <ele>1119.11</ele>
        <time>2021-08-14T19:00:09Z</time>
      </trkpt>
      <trkpt lat="45.65876" lon="2.85022">
        <ele>1120.07</ele>
        <time>2021-08-14T19:00:18Z</time>
      </trkpt>
      <trkpt lat="45.65868" lon="2.85025">
        <ele>1121.03</ele>
        <time>2021-08-14T19:00:24Z</time>
      </trkpt>
      <trkpt lat="45.65854" lon="2.85032">
        <ele>1121.52</ele>
        <time>2021-08-14T19:00:33Z</time>
      </trkpt>
      <trkpt lat="45.65838" lon="2.85036">
        <ele>1122.96</ele>
        <time>2021-08-14T19:00:42Z</time>
      </trkpt>
      <trkpt lat="45.65829" lon="2.85041">
        <ele>1123.92</ele>
        <time>2021-08-14T19:00:50Z</time>
      </trkpt>
      <trkpt lat="45.65822" lon="2.85048">
        <ele>1124.4</ele>
        <time>2021-08-14T19:00:57Z</time>
      </trkpt>
      <trkpt lat="45.65821" lon="2.85049">
        <ele>1124.4</ele>
        <time>2021-08-14T19:00:58Z</time>
      </trkpt>
      <trkpt lat="45.65811" lon="2.85055">
        <ele>1125.36</ele>
        <time>2021-08-14T19:01:06Z</time>
      </trkpt>
      <trkpt lat="45.65797" lon="2.85062">
        <ele>1126.32</ele>
        <time>2021-08-14T19:01:15Z</time>
      </trkpt>
      <trkpt lat="45.6579" lon="2.85067">
        <ele>1127.28</ele>
        <time>2021-08-14T19:01:21Z</time>
      </trkpt>
      <trkpt lat="45.65783" lon="2.85071">
        <ele>1127.76</ele>
        <time>2021-08-14T19:01:28Z</time>
      </trkpt>
      <trkpt lat="45.6578" lon="2.85072">
        <ele>1128.24</ele>
        <time>2021-08-14T19:01:30Z</time>
      </trkpt>
      <trkpt lat="45.65775" lon="2.85075">
        <ele>1128.73</ele>
        <time>2021-08-14T19:01:37Z</time>
      </trkpt>
      <trkpt lat="45.65766" lon="2.8508">
        <ele>1129.69</ele>
        <time>2021-08-14T19:01:47Z</time>
      </trkpt>
      <trkpt lat="45.65759" lon="2.85085">
        <ele>1130.65</ele>
        <time>2021-08-14T19:01:55Z</time>
      </trkpt>
      <trkpt lat="45.65752" lon="2.85089">
        <ele>1131.61</ele>
        <time>2021-08-14T19:02:03Z</time>
      </trkpt>
      <trkpt lat="45.65746" lon="2.85094">
        <ele>1132.57</ele>
        <time>2021-08-14T19:02:11Z</time>
      </trkpt>
      <trkpt lat="45.65741" lon="2.85102">
        <ele>1133.05</ele>
        <time>2021-08-14T19:02:20Z</time>
      </trkpt>
      <trkpt lat="45.65736" lon="2.8511">
        <ele>1134.01</ele>
        <time>2021-08-14T19:02:28Z</time>
      </trkpt>
      <trkpt lat="45.65732" lon="2.85113">
        <ele>1134.49</ele>
        <time>2021-08-14T19:02:36Z</time>
      </trkpt>
      <trkpt lat="45.65724" lon="2.85123">
        <ele>1134.97</ele>
        <time>2021-08-14T19:02:44Z</time>
      </trkpt>
      <trkpt lat="45.6572" lon="2.85127">
        <ele>1135.45</ele>
        <time>2021-08-14T19:02:48Z</time>
      </trkpt>
      <trkpt lat="45.65719" lon="2.85128">
        <ele>1135.45</ele>
        <time>2021-08-14T19:02:49Z</time>
      </trkpt>
      <trkpt lat="45.65718" lon="2.85129">
        <ele>1135.45</ele>
        <time>2021-08-14T19:02:50Z</time>
      </trkpt>
      <trkpt lat="45.6571" lon="2.85135">
        <ele>1135.94</ele>
        <time>2021-08-14T19:02:56Z</time>
      </trkpt>
      <trkpt lat="45.65709" lon="2.85136">
        <ele>1135.94</ele>
        <time>2021-08-14T19:02:57Z</time>
      </trkpt>
      <trkpt lat="45.65707" lon="2.85136">
        <ele>1135.94</ele>
        <time>2021-08-14T19:02:58Z</time>
      </trkpt>
      <trkpt lat="45.65706" lon="2.85138">
        <ele>1136.42</ele>
        <time>2021-08-14T19:02:59Z</time>
      </trkpt>
      <trkpt lat="45.65705" lon="2.85139">
        <ele>1136.42</ele>
        <time>2021-08-14T19:03:00Z</time>
      </trkpt>
      <trkpt lat="45.65704" lon="2.8514">
        <ele>1136.42</ele>
        <time>2021-08-14T19:03:01Z</time>
      </trkpt>
      <trkpt lat="45.65703" lon="2.85142">
        <ele>1136.42</ele>
        <time>2021-08-14T19:03:02Z</time>
      </trkpt>
      <trkpt lat="45.65702" lon="2.85143">
        <ele>1136.42</ele>
        <time>2021-08-14T19:03:03Z</time>
      </trkpt>
      <trkpt lat="45.65701" lon="2.85144">
        <ele>1136.42</ele>
        <time>2021-08-14T19:03:04Z</time>
      </trkpt>
      <trkpt lat="45.657" lon="2.85145">
        <ele>1136.42</ele>
        <time>2021-08-14T19:03:05Z</time>
      </trkpt>
      <trkpt lat="45.65693" lon="2.85154">
        <ele>1137.38</ele>
        <time>2021-08-14T19:03:12Z</time>
      </trkpt>
      <trkpt lat="45.65688" lon="2.85165">
        <ele>1138.34</ele>
        <time>2021-08-14T19:03:21Z</time>
      </trkpt>
      <trkpt lat="45.6568" lon="2.85176">
        <ele>1139.3</ele>
        <time>2021-08-14T19:03:29Z</time>
      </trkpt>
      <trkpt lat="45.65675" lon="2.85189">
        <ele>1139.3</ele>
        <time>2021-08-14T19:03:37Z</time>
      </trkpt>
      <trkpt lat="45.65668" lon="2.85203">
        <ele>1139.78</ele>
        <time>2021-08-14T19:03:44Z</time>
      </trkpt>
      <trkpt lat="45.65655" lon="2.85222">
        <ele>1140.74</ele>
        <time>2021-08-14T19:03:53Z</time>
      </trkpt>
      <trkpt lat="45.65654" lon="2.85224">
        <ele>1140.74</ele>
        <time>2021-08-14T19:03:54Z</time>
      </trkpt>
      <trkpt lat="45.65652" lon="2.85226">
        <ele>1140.74</ele>
        <time>2021-08-14T19:03:55Z</time>
      </trkpt>
      <trkpt lat="45.65651" lon="2.85227">
        <ele>1140.74</ele>
        <time>2021-08-14T19:03:56Z</time>
      </trkpt>
      <trkpt lat="45.6565" lon="2.85229">
        <ele>1141.22</ele>
        <time>2021-08-14T19:03:57Z</time>
      </trkpt>
      <trkpt lat="45.65648" lon="2.85231">
        <ele>1141.22</ele>
        <time>2021-08-14T19:03:58Z</time>
      </trkpt>
      <trkpt lat="45.65647" lon="2.85232">
        <ele>1141.22</ele>
        <time>2021-08-14T19:03:59Z</time>
      </trkpt>
      <trkpt lat="45.65645" lon="2.85234">
        <ele>1141.7</ele>
        <time>2021-08-14T19:04:00Z</time>
      </trkpt>
      <trkpt lat="45.65644" lon="2.85235">
        <ele>1141.7</ele>
        <time>2021-08-14T19:04:01Z</time>
      </trkpt>
      <trkpt lat="45.65643" lon="2.85237">
        <ele>1142.18</ele>
        <time>2021-08-14T19:04:02Z</time>
      </trkpt>
      <trkpt lat="45.65641" lon="2.85238">
        <ele>1142.18</ele>
        <time>2021-08-14T19:04:03Z</time>
      </trkpt>
      <trkpt lat="45.6564" lon="2.8524">
        <ele>1142.18</ele>
        <time>2021-08-14T19:04:04Z</time>
      </trkpt>
      <trkpt lat="45.65639" lon="2.85242">
        <ele>1142.18</ele>
        <time>2021-08-14T19:04:05Z</time>
      </trkpt>
      <trkpt lat="45.65638" lon="2.85244">
        <ele>1142.18</ele>
        <time>2021-08-14T19:04:06Z</time>
      </trkpt>
      <trkpt lat="45.65625" lon="2.8526">
        <ele>1143.63</ele>
        <time>2021-08-14T19:04:16Z</time>
      </trkpt>
      <trkpt lat="45.65617" lon="2.85266">
        <ele>1144.11</ele>
        <time>2021-08-14T19:04:21Z</time>
      </trkpt>
      <trkpt lat="45.65616" lon="2.85267">
        <ele>1144.11</ele>
        <time>2021-08-14T19:04:22Z</time>
      </trkpt>
      <trkpt lat="45.65607" lon="2.85278">
        <ele>1145.07</ele>
        <time>2021-08-14T19:04:30Z</time>
      </trkpt>
      <trkpt lat="45.656" lon="2.85285">
        <ele>1146.03</ele>
        <time>2021-08-14T19:04:36Z</time>
      </trkpt>
      <trkpt lat="45.6559" lon="2.85296">
        <ele>1146.99</ele>
        <time>2021-08-14T19:04:44Z</time>
      </trkpt>
      <trkpt lat="45.65584" lon="2.85302">
        <ele>1147.95</ele>
        <time>2021-08-14T19:04:51Z</time>
      </trkpt>
      <trkpt lat="45.65575" lon="2.85311">
        <ele>1149.39</ele>
        <time>2021-08-14T19:04:59Z</time>
      </trkpt>
      <trkpt lat="45.65567" lon="2.8532">
        <ele>1150.84</ele>
        <time>2021-08-14T19:05:06Z</time>
      </trkpt>
      <trkpt lat="45.65566" lon="2.85322">
        <ele>1150.84</ele>
        <time>2021-08-14T19:05:07Z</time>
      </trkpt>
      <trkpt lat="45.65565" lon="2.85324">
        <ele>1150.84</ele>
        <time>2021-08-14T19:05:08Z</time>
      </trkpt>
      <trkpt lat="45.65565" lon="2.85326">
        <ele>1150.84</ele>
        <time>2021-08-14T19:05:09Z</time>
      </trkpt>
      <trkpt lat="45.65564" lon="2.85328">
        <ele>1150.84</ele>
        <time>2021-08-14T19:05:10Z</time>
      </trkpt>
      <trkpt lat="45.65563" lon="2.8533">
        <ele>1150.84</ele>
        <time>2021-08-14T19:05:11Z</time>
      </trkpt>
      <trkpt lat="45.65562" lon="2.85331">
        <ele>1150.84</ele>
        <time>2021-08-14T19:05:12Z</time>
      </trkpt>
      <trkpt lat="45.65561" lon="2.85333">
        <ele>1151.32</ele>
        <time>2021-08-14T19:05:13Z</time>
      </trkpt>
      <trkpt lat="45.65559" lon="2.85337">
        <ele>1151.32</ele>
        <time>2021-08-14T19:05:16Z</time>
      </trkpt>
      <trkpt lat="45.65557" lon="2.85339">
        <ele>1151.8</ele>
        <time>2021-08-14T19:05:18Z</time>
      </trkpt>
      <trkpt lat="45.65556" lon="2.85341">
        <ele>1151.8</ele>
        <time>2021-08-14T19:05:19Z</time>
      </trkpt>
      <trkpt lat="45.65549" lon="2.85349">
        <ele>1153.24</ele>
        <time>2021-08-14T19:05:27Z</time>
      </trkpt>
      <trkpt lat="45.65547" lon="2.85353">
        <ele>1154.2</ele>
        <time>2021-08-14T19:05:30Z</time>
      </trkpt>
      <trkpt lat="45.65545" lon="2.85355">
        <ele>1154.2</ele>
        <time>2021-08-14T19:05:32Z</time>
      </trkpt>
      <trkpt lat="45.65544" lon="2.85356">
        <ele>1154.68</ele>
        <time>2021-08-14T19:05:33Z</time>
      </trkpt>
      <trkpt lat="45.65543" lon="2.85357">
        <ele>1154.68</ele>
        <time>2021-08-14T19:05:34Z</time>
      </trkpt>
      <trkpt lat="45.65541" lon="2.85358">
        <ele>1154.68</ele>
        <time>2021-08-14T19:05:35Z</time>
      </trkpt>
      <trkpt lat="45.6554" lon="2.85359">
        <ele>1155.16</ele>
        <time>2021-08-14T19:05:36Z</time>
      </trkpt>
      <trkpt lat="45.65537" lon="2.85362">
        <ele>1155.16</ele>
        <time>2021-08-14T19:05:43Z</time>
      </trkpt>
      <trkpt lat="45.65535" lon="2.85366">
        <ele>1156.12</ele>
        <time>2021-08-14T19:05:52Z</time>
      </trkpt>
      <trkpt lat="45.65531" lon="2.85369">
        <ele>1156.6</ele>
        <time>2021-08-14T19:05:58Z</time>
      </trkpt>
      <trkpt lat="45.65528" lon="2.85375">
        <ele>1157.56</ele>
        <time>2021-08-14T19:06:06Z</time>
      </trkpt>
      <trkpt lat="45.65522" lon="2.85381">
        <ele>1158.53</ele>
        <time>2021-08-14T19:06:14Z</time>
      </trkpt>
      <trkpt lat="45.65515" lon="2.85387">
        <ele>1159.49</ele>
        <time>2021-08-14T19:06:23Z</time>
      </trkpt>
      <trkpt lat="45.65504" lon="2.85393">
        <ele>1160.45</ele>
        <time>2021-08-14T19:06:33Z</time>
      </trkpt>
      <trkpt lat="45.65496" lon="2.85398">
        <ele>1161.41</ele>
        <time>2021-08-14T19:06:40Z</time>
      </trkpt>
      <trkpt lat="45.65486" lon="2.85399">
        <ele>1162.37</ele>
        <time>2021-08-14T19:06:49Z</time>
      </trkpt>
      <trkpt lat="45.65473" lon="2.85401">
        <ele>1163.81</ele>
        <time>2021-08-14T19:07:00Z</time>
      </trkpt>
      <trkpt lat="45.65465" lon="2.85405">
        <ele>1164.29</ele>
        <time>2021-08-14T19:07:09Z</time>
      </trkpt>
      <trkpt lat="45.65463" lon="2.85405">
        <ele>1164.29</ele>
        <time>2021-08-14T19:07:10Z</time>
      </trkpt>
      <trkpt lat="45.65451" lon="2.85413">
        <ele>1165.74</ele>
        <time>2021-08-14T19:07:20Z</time>
      </trkpt>
      <trkpt lat="45.65443" lon="2.85415">
        <ele>1166.22</ele>
        <time>2021-08-14T19:07:30Z</time>
      </trkpt>
      <trkpt lat="45.65437" lon="2.85412">
        <ele>1166.22</ele>
        <time>2021-08-14T19:07:41Z</time>
      </trkpt>
      <trkpt lat="45.65436" lon="2.85412">
        <ele>1166.22</ele>
        <time>2021-08-14T19:07:42Z</time>
      </trkpt>
      <trkpt lat="45.65428" lon="2.85403">
        <ele>1167.66</ele>
        <time>2021-08-14T19:07:50Z</time>
      </trkpt>
      <trkpt lat="45.65424" lon="2.85399">
        <ele>1168.14</ele>
        <time>2021-08-14T19:07:54Z</time>
      </trkpt>
      <trkpt lat="45.65415" lon="2.85397">
        <ele>1169.1</ele>
        <time>2021-08-14T19:08:01Z</time>
      </trkpt>
      <trkpt lat="45.65413" lon="2.85397">
        <ele>1169.1</ele>
        <time>2021-08-14T19:08:02Z</time>
      </trkpt>
      <trkpt lat="45.65412" lon="2.85397">
        <ele>1169.1</ele>
        <time>2021-08-14T19:08:03Z</time>
      </trkpt>
      <trkpt lat="45.65411" lon="2.85397">
        <ele>1169.1</ele>
        <time>2021-08-14T19:08:04Z</time>
      </trkpt>
      <trkpt lat="45.65409" lon="2.85396">
        <ele>1169.58</ele>
        <time>2021-08-14T19:08:05Z</time>
      </trkpt>
      <trkpt lat="45.65396" lon="2.85395">
        <ele>1170.54</ele>
        <time>2021-08-14T19:08:14Z</time>
      </trkpt>
      <trkpt lat="45.65383" lon="2.85394">
        <ele>1171.5</ele>
        <time>2021-08-14T19:08:24Z</time>
      </trkpt>
      <trkpt lat="45.65378" lon="2.85393">
        <ele>1171.5</ele>
        <time>2021-08-14T19:08:28Z</time>
      </trkpt>
      <trkpt lat="45.65376" lon="2.85393">
        <ele>1171.98</ele>
        <time>2021-08-14T19:08:29Z</time>
      </trkpt>
      <trkpt lat="45.65375" lon="2.85393">
        <ele>1171.98</ele>
        <time>2021-08-14T19:08:30Z</time>
      </trkpt>
      <trkpt lat="45.65362" lon="2.85392">
        <ele>1172.47</ele>
        <time>2021-08-14T19:08:39Z</time>
      </trkpt>
      <trkpt lat="45.65349" lon="2.8539">
        <ele>1173.91</ele>
        <time>2021-08-14T19:08:49Z</time>
      </trkpt>
      <trkpt lat="45.65332" lon="2.85389">
        <ele>1175.35</ele>
        <time>2021-08-14T19:09:02Z</time>
      </trkpt>
      <trkpt lat="45.6532" lon="2.85386">
        <ele>1176.79</ele>
        <time>2021-08-14T19:09:12Z</time>
      </trkpt>
      <trkpt lat="45.65317" lon="2.85383">
        <ele>1176.79</ele>
        <time>2021-08-14T19:09:15Z</time>
      </trkpt>
      <trkpt lat="45.65316" lon="2.85381">
        <ele>1177.27</ele>
        <time>2021-08-14T19:09:16Z</time>
      </trkpt>
      <trkpt lat="45.65316" lon="2.85379">
        <ele>1177.27</ele>
        <time>2021-08-14T19:09:17Z</time>
      </trkpt>
      <trkpt lat="45.65315" lon="2.85378">
        <ele>1177.27</ele>
        <time>2021-08-14T19:09:18Z</time>
      </trkpt>
      <trkpt lat="45.65314" lon="2.85376">
        <ele>1177.27</ele>
        <time>2021-08-14T19:09:19Z</time>
      </trkpt>
      <trkpt lat="45.65313" lon="2.85374">
        <ele>1177.27</ele>
        <time>2021-08-14T19:09:20Z</time>
      </trkpt>
      <trkpt lat="45.65313" lon="2.85372">
        <ele>1177.27</ele>
        <time>2021-08-14T19:09:21Z</time>
      </trkpt>
      <trkpt lat="45.65313" lon="2.85371">
        <ele>1177.27</ele>
        <time>2021-08-14T19:09:22Z</time>
      </trkpt>
      <trkpt lat="45.65313" lon="2.85369">
        <ele>1177.27</ele>
        <time>2021-08-14T19:09:23Z</time>
      </trkpt>
      <trkpt lat="45.65312" lon="2.85368">
        <ele>1177.27</ele>
        <time>2021-08-14T19:09:24Z</time>
      </trkpt>
      <trkpt lat="45.65312" lon="2.85366">
        <ele>1177.27</ele>
        <time>2021-08-14T19:09:25Z</time>
      </trkpt>
      <trkpt lat="45.65311" lon="2.85364">
        <ele>1177.75</ele>
        <time>2021-08-14T19:09:26Z</time>
      </trkpt>
      <trkpt lat="45.6531" lon="2.85362">
        <ele>1177.75</ele>
        <time>2021-08-14T19:09:27Z</time>
      </trkpt>
      <trkpt lat="45.65309" lon="2.8536">
        <ele>1177.75</ele>
        <time>2021-08-14T19:09:28Z</time>
      </trkpt>
      <trkpt lat="45.65304" lon="2.85346">
        <ele>1177.75</ele>
        <time>2021-08-14T19:09:34Z</time>
      </trkpt>
      <trkpt lat="45.65296" lon="2.85329">
        <ele>1178.71</ele>
        <time>2021-08-14T19:09:41Z</time>
      </trkpt>
      <trkpt lat="45.65287" lon="2.85309">
        <ele>1179.19</ele>
        <time>2021-08-14T19:09:49Z</time>
      </trkpt>
      <trkpt lat="45.65283" lon="2.85299">
        <ele>1179.67</ele>
        <time>2021-08-14T19:09:53Z</time>
      </trkpt>
      <trkpt lat="45.65267" lon="2.85278">
        <ele>1180.64</ele>
        <time>2021-08-14T19:10:04Z</time>
      </trkpt>
      <trkpt lat="45.65249" lon="2.85261">
        <ele>1181.12</ele>
        <time>2021-08-14T19:10:15Z</time>
      </trkpt>
      <trkpt lat="45.65233" lon="2.85249">
        <ele>1182.08</ele>
        <time>2021-08-14T19:10:25Z</time>
      </trkpt>
      <trkpt lat="45.65214" lon="2.85243">
        <ele>1182.56</ele>
        <time>2021-08-14T19:10:36Z</time>
      </trkpt>
      <trkpt lat="45.65198" lon="2.85239">
        <ele>1183.04</ele>
        <time>2021-08-14T19:10:45Z</time>
      </trkpt>
      <trkpt lat="45.65176" lon="2.85234">
        <ele>1183.52</ele>
        <time>2021-08-14T19:10:54Z</time>
      </trkpt>
      <trkpt lat="45.65166" lon="2.85232">
        <ele>1183.52</ele>
        <time>2021-08-14T19:10:58Z</time>
      </trkpt>
      <trkpt lat="45.65146" lon="2.8523">
        <ele>1184</ele>
        <time>2021-08-14T19:11:06Z</time>
      </trkpt>
      <trkpt lat="45.6513" lon="2.85226">
        <ele>1184</ele>
        <time>2021-08-14T19:11:13Z</time>
      </trkpt>
      <trkpt lat="45.65112" lon="2.85223">
        <ele>1184.48</ele>
        <time>2021-08-14T19:11:21Z</time>
      </trkpt>
      <trkpt lat="45.65085" lon="2.8522">
        <ele>1184.48</ele>
        <time>2021-08-14T19:11:30Z</time>
      </trkpt>
      <trkpt lat="45.65074" lon="2.85218">
        <ele>1183.52</ele>
        <time>2021-08-14T19:11:33Z</time>
      </trkpt>
      <trkpt lat="45.6503" lon="2.85211">
        <ele>1182.56</ele>
        <time>2021-08-14T19:11:43Z</time>
      </trkpt>
      <trkpt lat="45.64994" lon="2.85206">
        <ele>1182.56</ele>
        <time>2021-08-14T19:11:52Z</time>
      </trkpt>
      <trkpt lat="45.64968" lon="2.85213">
        <ele>1182.56</ele>
        <time>2021-08-14T19:11:59Z</time>
      </trkpt>
      <trkpt lat="45.64948" lon="2.85222">
        <ele>1182.56</ele>
        <time>2021-08-14T19:12:07Z</time>
      </trkpt>
      <trkpt lat="45.64933" lon="2.85233">
        <ele>1184.96</ele>
        <time>2021-08-14T19:12:16Z</time>
      </trkpt>
      <trkpt lat="45.64918" lon="2.85243">
        <ele>1185.92</ele>
        <time>2021-08-14T19:12:25Z</time>
      </trkpt>
      <trkpt lat="45.64901" lon="2.85253">
        <ele>1186.4</ele>
        <time>2021-08-14T19:12:35Z</time>
      </trkpt>
      <trkpt lat="45.64889" lon="2.85261">
        <ele>1187.37</ele>
        <time>2021-08-14T19:12:43Z</time>
      </trkpt>
      <trkpt lat="45.64877" lon="2.85269">
        <ele>1188.81</ele>
        <time>2021-08-14T19:12:51Z</time>
      </trkpt>
      <trkpt lat="45.64863" lon="2.85278">
        <ele>1190.25</ele>
        <time>2021-08-14T19:13:00Z</time>
      </trkpt>
      <trkpt lat="45.64852" lon="2.85285">
        <ele>1191.21</ele>
        <time>2021-08-14T19:13:08Z</time>
      </trkpt>
      <trkpt lat="45.64842" lon="2.85292">
        <ele>1192.17</ele>
        <time>2021-08-14T19:13:16Z</time>
      </trkpt>
      <trkpt lat="45.64841" lon="2.85293">
        <ele>1192.17</ele>
        <time>2021-08-14T19:13:17Z</time>
      </trkpt>
      <trkpt lat="45.6484" lon="2.85294">
        <ele>1192.17</ele>
        <time>2021-08-14T19:13:18Z</time>
      </trkpt>
      <trkpt lat="45.64826" lon="2.85302">
        <ele>1193.61</ele>
        <time>2021-08-14T19:13:27Z</time>
      </trkpt>
      <trkpt lat="45.64813" lon="2.85313">
        <ele>1195.06</ele>
        <time>2021-08-14T19:13:37Z</time>
      </trkpt>
      <trkpt lat="45.648" lon="2.85326">
        <ele>1196.02</ele>
        <time>2021-08-14T19:13:47Z</time>
      </trkpt>
      <trkpt lat="45.64791" lon="2.85341">
        <ele>1196.98</ele>
        <time>2021-08-14T19:13:56Z</time>
      </trkpt>
      <trkpt lat="45.64785" lon="2.85353">
        <ele>1197.94</ele>
        <time>2021-08-14T19:14:04Z</time>
      </trkpt>
      <trkpt lat="45.64784" lon="2.85355">
        <ele>1198.42</ele>
        <time>2021-08-14T19:14:05Z</time>
      </trkpt>
      <trkpt lat="45.64775" lon="2.85366">
        <ele>1198.9</ele>
        <time>2021-08-14T19:14:13Z</time>
      </trkpt>
      <trkpt lat="45.64766" lon="2.85375">
        <ele>1199.86</ele>
        <time>2021-08-14T19:14:21Z</time>
      </trkpt>
      <trkpt lat="45.64759" lon="2.8538">
        <ele>1200.34</ele>
        <time>2021-08-14T19:14:25Z</time>
      </trkpt>
      <trkpt lat="45.64758" lon="2.85382">
        <ele>1200.34</ele>
        <time>2021-08-14T19:14:26Z</time>
      </trkpt>
      <trkpt lat="45.64758" lon="2.85385">
        <ele>1200.34</ele>
        <time>2021-08-14T19:14:27Z</time>
      </trkpt>
      <trkpt lat="45.64757" lon="2.85387">
        <ele>1200.34</ele>
        <time>2021-08-14T19:14:28Z</time>
      </trkpt>
      <trkpt lat="45.64757" lon="2.85389">
        <ele>1200.82</ele>
        <time>2021-08-14T19:14:29Z</time>
      </trkpt>
      <trkpt lat="45.64756" lon="2.85391">
        <ele>1200.82</ele>
        <time>2021-08-14T19:14:30Z</time>
      </trkpt>
      <trkpt lat="45.64753" lon="2.85409">
        <ele>1201.3</ele>
        <time>2021-08-14T19:14:38Z</time>
      </trkpt>
      <trkpt lat="45.6475" lon="2.85428">
        <ele>1202.75</ele>
        <time>2021-08-14T19:14:47Z</time>
      </trkpt>
      <trkpt lat="45.64747" lon="2.85445">
        <ele>1203.71</ele>
        <time>2021-08-14T19:14:55Z</time>
      </trkpt>
      <trkpt lat="45.64748" lon="2.85461">
        <ele>1204.67</ele>
        <time>2021-08-14T19:15:02Z</time>
      </trkpt>
      <trkpt lat="45.64748" lon="2.85463">
        <ele>1204.67</ele>
        <time>2021-08-14T19:15:03Z</time>
      </trkpt>
      <trkpt lat="45.64748" lon="2.85466">
        <ele>1205.15</ele>
        <time>2021-08-14T19:15:04Z</time>
      </trkpt>
      <trkpt lat="45.64748" lon="2.85468">
        <ele>1205.15</ele>
        <time>2021-08-14T19:15:05Z</time>
      </trkpt>
      <trkpt lat="45.64748" lon="2.85471">
        <ele>1205.15</ele>
        <time>2021-08-14T19:15:06Z</time>
      </trkpt>
      <trkpt lat="45.64748" lon="2.85484">
        <ele>1206.11</ele>
        <time>2021-08-14T19:15:12Z</time>
      </trkpt>
      <trkpt lat="45.64748" lon="2.85486">
        <ele>1206.11</ele>
        <time>2021-08-14T19:15:13Z</time>
      </trkpt>
      <trkpt lat="45.64748" lon="2.85489">
        <ele>1206.11</ele>
        <time>2021-08-14T19:15:14Z</time>
      </trkpt>
      <trkpt lat="45.64748" lon="2.85492">
        <ele>1206.11</ele>
        <time>2021-08-14T19:15:15Z</time>
      </trkpt>
      <trkpt lat="45.64748" lon="2.85494">
        <ele>1206.11</ele>
        <time>2021-08-14T19:15:16Z</time>
      </trkpt>
      <trkpt lat="45.64748" lon="2.85497">
        <ele>1206.11</ele>
        <time>2021-08-14T19:15:17Z</time>
      </trkpt>
      <trkpt lat="45.64747" lon="2.8551">
        <ele>1206.11</ele>
        <time>2021-08-14T19:15:22Z</time>
      </trkpt>
      <trkpt lat="45.64748" lon="2.85528">
        <ele>1206.59</ele>
        <time>2021-08-14T19:15:30Z</time>
      </trkpt>
      <trkpt lat="45.64748" lon="2.8553">
        <ele>1206.59</ele>
        <time>2021-08-14T19:15:31Z</time>
      </trkpt>
      <trkpt lat="45.64748" lon="2.85532">
        <ele>1206.59</ele>
        <time>2021-08-14T19:15:32Z</time>
      </trkpt>
      <trkpt lat="45.64748" lon="2.85534">
        <ele>1206.59</ele>
        <time>2021-08-14T19:15:33Z</time>
      </trkpt>
      <trkpt lat="45.64749" lon="2.85536">
        <ele>1206.59</ele>
        <time>2021-08-14T19:15:34Z</time>
      </trkpt>
      <trkpt lat="45.64749" lon="2.85539">
        <ele>1206.59</ele>
        <time>2021-08-14T19:15:35Z</time>
      </trkpt>
      <trkpt lat="45.6475" lon="2.85541">
        <ele>1206.59</ele>
        <time>2021-08-14T19:15:36Z</time>
      </trkpt>
      <trkpt lat="45.64751" lon="2.85558">
        <ele>1206.59</ele>
        <time>2021-08-14T19:15:42Z</time>
      </trkpt>
      <trkpt lat="45.64755" lon="2.8558">
        <ele>1206.59</ele>
        <time>2021-08-14T19:15:50Z</time>
      </trkpt>
      <trkpt lat="45.64759" lon="2.856">
        <ele>1206.59</ele>
        <time>2021-08-14T19:15:56Z</time>
      </trkpt>
      <trkpt lat="45.64762" lon="2.85622">
        <ele>1206.59</ele>
        <time>2021-08-14T19:16:03Z</time>
      </trkpt>
      <trkpt lat="45.64767" lon="2.85653">
        <ele>1206.59</ele>
        <time>2021-08-14T19:16:11Z</time>
      </trkpt>
      <trkpt lat="45.64776" lon="2.85691">
        <ele>1206.59</ele>
        <time>2021-08-14T19:16:20Z</time>
      </trkpt>
      <trkpt lat="45.64781" lon="2.85717">
        <ele>1206.59</ele>
        <time>2021-08-14T19:16:27Z</time>
      </trkpt>
      <trkpt lat="45.64784" lon="2.8575">
        <ele>1207.07</ele>
        <time>2021-08-14T19:16:35Z</time>
      </trkpt>
      <trkpt lat="45.64789" lon="2.85779">
        <ele>1207.07</ele>
        <time>2021-08-14T19:16:42Z</time>
      </trkpt>
      <trkpt lat="45.64795" lon="2.85812">
        <ele>1207.07</ele>
        <time>2021-08-14T19:16:50Z</time>
      </trkpt>
      <trkpt lat="45.64796" lon="2.85848">
        <ele>1205.63</ele>
        <time>2021-08-14T19:16:59Z</time>
      </trkpt>
      <trkpt lat="45.64793" lon="2.85872">
        <ele>1205.15</ele>
        <time>2021-08-14T19:17:05Z</time>
      </trkpt>
      <trkpt lat="45.6479" lon="2.85898">
        <ele>1204.67</ele>
        <time>2021-08-14T19:17:11Z</time>
      </trkpt>
      <trkpt lat="45.64788" lon="2.85932">
        <ele>1204.19</ele>
        <time>2021-08-14T19:17:18Z</time>
      </trkpt>
      <trkpt lat="45.64781" lon="2.85971">
        <ele>1204.19</ele>
        <time>2021-08-14T19:17:26Z</time>
      </trkpt>
      <trkpt lat="45.64776" lon="2.86004">
        <ele>1204.19</ele>
        <time>2021-08-14T19:17:34Z</time>
      </trkpt>
      <trkpt lat="45.64775" lon="2.86008">
        <ele>1204.19</ele>
        <time>2021-08-14T19:17:40Z</time>
      </trkpt>
      <trkpt lat="45.64777" lon="2.86009">
        <ele>1204.19</ele>
        <time>2021-08-14T19:17:59Z</time>
      </trkpt>
      <trkpt lat="45.64779" lon="2.86009">
        <ele>1204.67</ele>
        <time>2021-08-14T19:18:20Z</time>
      </trkpt>
      <trkpt lat="45.64778" lon="2.86007">
        <ele>1204.67</ele>
        <time>2021-08-14T19:18:40Z</time>
      </trkpt>
      <trkpt lat="45.64778" lon="2.86013">
        <ele>1204.67</ele>
        <time>2021-08-14T19:18:48Z</time>
      </trkpt>
      <trkpt lat="45.64778" lon="2.86015">
        <ele>1204.67</ele>
        <time>2021-08-14T19:18:49Z</time>
      </trkpt>
      <trkpt lat="45.64777" lon="2.86017">
        <ele>1204.67</ele>
        <time>2021-08-14T19:18:50Z</time>
      </trkpt>
      <trkpt lat="45.64773" lon="2.86031">
        <ele>1204.67</ele>
        <time>2021-08-14T19:18:56Z</time>
      </trkpt>
      <trkpt lat="45.64769" lon="2.86047">
        <ele>1206.11</ele>
        <time>2021-08-14T19:19:01Z</time>
      </trkpt>
      <trkpt lat="45.64764" lon="2.86081">
        <ele>1206.59</ele>
        <time>2021-08-14T19:19:09Z</time>
      </trkpt>
      <trkpt lat="45.64756" lon="2.86127">
        <ele>1206.59</ele>
        <time>2021-08-14T19:19:19Z</time>
      </trkpt>
      <trkpt lat="45.6475" lon="2.86169">
        <ele>1207.07</ele>
        <time>2021-08-14T19:19:29Z</time>
      </trkpt>
      <trkpt lat="45.64742" lon="2.8621">
        <ele>1205.63</ele>
        <time>2021-08-14T19:19:38Z</time>
      </trkpt>
      <trkpt lat="45.64739" lon="2.86246">
        <ele>1204.19</ele>
        <time>2021-08-14T19:19:46Z</time>
      </trkpt>
      <trkpt lat="45.64737" lon="2.86261">
        <ele>1202.75</ele>
        <time>2021-08-14T19:19:50Z</time>
      </trkpt>
      <trkpt lat="45.64739" lon="2.8629">
        <ele>1201.3</ele>
        <time>2021-08-14T19:19:56Z</time>
      </trkpt>
      <trkpt lat="45.64739" lon="2.86334">
        <ele>1198.42</ele>
        <time>2021-08-14T19:20:02Z</time>
      </trkpt>
      <trkpt lat="45.64739" lon="2.8634">
        <ele>1197.46</ele>
        <time>2021-08-14T19:20:03Z</time>
      </trkpt>
      <trkpt lat="45.6474" lon="2.86347">
        <ele>1196.98</ele>
        <time>2021-08-14T19:20:04Z</time>
      </trkpt>
      <trkpt lat="45.64739" lon="2.86353">
        <ele>1196.98</ele>
        <time>2021-08-14T19:20:05Z</time>
      </trkpt>
      <trkpt lat="45.64734" lon="2.86391">
        <ele>1193.61</ele>
        <time>2021-08-14T19:20:10Z</time>
      </trkpt>
      <trkpt lat="45.64729" lon="2.86439">
        <ele>1190.25</ele>
        <time>2021-08-14T19:20:16Z</time>
      </trkpt>
      <trkpt lat="45.64726" lon="2.86498">
        <ele>1186.88</ele>
        <time>2021-08-14T19:20:22Z</time>
      </trkpt>
      <trkpt lat="45.64726" lon="2.86519">
        <ele>1186.4</ele>
        <time>2021-08-14T19:20:24Z</time>
      </trkpt>
      <trkpt lat="45.64727" lon="2.8656">
        <ele>1183.52</ele>
        <time>2021-08-14T19:20:28Z</time>
      </trkpt>
      <trkpt lat="45.64727" lon="2.86581">
        <ele>1182.56</ele>
        <time>2021-08-14T19:20:30Z</time>
      </trkpt>
      <trkpt lat="45.64729" lon="2.86614">
        <ele>1181.12</ele>
        <time>2021-08-14T19:20:34Z</time>
      </trkpt>
      <trkpt lat="45.64728" lon="2.86621">
        <ele>1181.12</ele>
        <time>2021-08-14T19:20:35Z</time>
      </trkpt>
      <trkpt lat="45.64716" lon="2.86682">
        <ele>1178.71</ele>
        <time>2021-08-14T19:20:43Z</time>
      </trkpt>
      <trkpt lat="45.64709" lon="2.86721">
        <ele>1178.23</ele>
        <time>2021-08-14T19:20:48Z</time>
      </trkpt>
      <trkpt lat="45.64708" lon="2.86745">
        <ele>1177.75</ele>
        <time>2021-08-14T19:20:51Z</time>
      </trkpt>
      <trkpt lat="45.64706" lon="2.86754">
        <ele>1177.75</ele>
        <time>2021-08-14T19:20:52Z</time>
      </trkpt>
      <trkpt lat="45.64704" lon="2.86761">
        <ele>1177.27</ele>
        <time>2021-08-14T19:20:53Z</time>
      </trkpt>
      <trkpt lat="45.647" lon="2.86774">
        <ele>1177.27</ele>
        <time>2021-08-14T19:20:55Z</time>
      </trkpt>
      <trkpt lat="45.64697" lon="2.86785">
        <ele>1176.79</ele>
        <time>2021-08-14T19:20:57Z</time>
      </trkpt>
      <trkpt lat="45.64686" lon="2.86834">
        <ele>1176.31</ele>
        <time>2021-08-14T19:21:05Z</time>
      </trkpt>
      <trkpt lat="45.64676" lon="2.86865">
        <ele>1176.31</ele>
        <time>2021-08-14T19:21:12Z</time>
      </trkpt>
      <trkpt lat="45.64661" lon="2.86894">
        <ele>1176.31</ele>
        <time>2021-08-14T19:21:20Z</time>
      </trkpt>
      <trkpt lat="45.64647" lon="2.86919">
        <ele>1176.31</ele>
        <time>2021-08-14T19:21:27Z</time>
      </trkpt>
      <trkpt lat="45.64633" lon="2.86943">
        <ele>1176.31</ele>
        <time>2021-08-14T19:21:34Z</time>
      </trkpt>
      <trkpt lat="45.64616" lon="2.86964">
        <ele>1177.27</ele>
        <time>2021-08-14T19:21:41Z</time>
      </trkpt>
      <trkpt lat="45.64604" lon="2.86978">
        <ele>1177.75</ele>
        <time>2021-08-14T19:21:48Z</time>
      </trkpt>
      <trkpt lat="45.64598" lon="2.86984">
        <ele>1177.75</ele>
        <time>2021-08-14T19:21:55Z</time>
      </trkpt>
      <trkpt lat="45.64584" lon="2.87002">
        <ele>1178.23</ele>
        <time>2021-08-14T19:22:03Z</time>
      </trkpt>
      <trkpt lat="45.64569" lon="2.87031">
        <ele>1178.23</ele>
        <time>2021-08-14T19:22:12Z</time>
      </trkpt>
      <trkpt lat="45.64567" lon="2.87056">
        <ele>1176.79</ele>
        <time>2021-08-14T19:22:18Z</time>
      </trkpt>
      <trkpt lat="45.64554" lon="2.87087">
        <ele>1175.35</ele>
        <time>2021-08-14T19:22:25Z</time>
      </trkpt>
      <trkpt lat="45.64553" lon="2.87092">
        <ele>1174.87</ele>
        <time>2021-08-14T19:22:26Z</time>
      </trkpt>
      <trkpt lat="45.64553" lon="2.87098">
        <ele>1174.87</ele>
        <time>2021-08-14T19:22:27Z</time>
      </trkpt>
      <trkpt lat="45.64552" lon="2.87103">
        <ele>1174.87</ele>
        <time>2021-08-14T19:22:28Z</time>
      </trkpt>
      <trkpt lat="45.64549" lon="2.87107">
        <ele>1174.39</ele>
        <time>2021-08-14T19:22:29Z</time>
      </trkpt>
      <trkpt lat="45.64546" lon="2.87109">
        <ele>1174.39</ele>
        <time>2021-08-14T19:22:30Z</time>
      </trkpt>
      <trkpt lat="45.64543" lon="2.8711">
        <ele>1174.39</ele>
        <time>2021-08-14T19:22:31Z</time>
      </trkpt>
      <trkpt lat="45.6454" lon="2.87111">
        <ele>1174.39</ele>
        <time>2021-08-14T19:22:32Z</time>
      </trkpt>
      <trkpt lat="45.64537" lon="2.87112">
        <ele>1174.39</ele>
        <time>2021-08-14T19:22:33Z</time>
      </trkpt>
      <trkpt lat="45.64534" lon="2.87114">
        <ele>1174.39</ele>
        <time>2021-08-14T19:22:34Z</time>
      </trkpt>
      <trkpt lat="45.64531" lon="2.87116">
        <ele>1173.91</ele>
        <time>2021-08-14T19:22:35Z</time>
      </trkpt>
      <trkpt lat="45.64529" lon="2.87119">
        <ele>1173.91</ele>
        <time>2021-08-14T19:22:36Z</time>
      </trkpt>
      <trkpt lat="45.64523" lon="2.87142">
        <ele>1172.95</ele>
        <time>2021-08-14T19:22:41Z</time>
      </trkpt>
      <trkpt lat="45.64523" lon="2.87148">
        <ele>1172.95</ele>
        <time>2021-08-14T19:22:42Z</time>
      </trkpt>
      <trkpt lat="45.64523" lon="2.87181">
        <ele>1171.02</ele>
        <time>2021-08-14T19:22:48Z</time>
      </trkpt>
      <trkpt lat="45.64522" lon="2.87191">
        <ele>1171.02</ele>
        <time>2021-08-14T19:22:53Z</time>
      </trkpt>
      <trkpt lat="45.6452" lon="2.87193">
        <ele>1171.02</ele>
        <time>2021-08-14T19:22:54Z</time>
      </trkpt>
      <trkpt lat="45.64508" lon="2.872">
        <ele>1170.54</ele>
        <time>2021-08-14T19:23:00Z</time>
      </trkpt>
      <trkpt lat="45.64505" lon="2.87206">
        <ele>1169.58</ele>
        <time>2021-08-14T19:23:02Z</time>
      </trkpt>
      <trkpt lat="45.64504" lon="2.87208">
        <ele>1169.58</ele>
        <time>2021-08-14T19:23:03Z</time>
      </trkpt>
      <trkpt lat="45.64499" lon="2.87228">
        <ele>1168.62</ele>
        <time>2021-08-14T19:23:10Z</time>
      </trkpt>
      <trkpt lat="45.64506" lon="2.87252">
        <ele>1166.7</ele>
        <time>2021-08-14T19:23:15Z</time>
      </trkpt>
      <trkpt lat="45.64513" lon="2.87279">
        <ele>1164.77</ele>
        <time>2021-08-14T19:23:21Z</time>
      </trkpt>
      <trkpt lat="45.64516" lon="2.87298">
        <ele>1163.81</ele>
        <time>2021-08-14T19:23:26Z</time>
      </trkpt>
      <trkpt lat="45.64519" lon="2.87324">
        <ele>1161.89</ele>
        <time>2021-08-14T19:23:32Z</time>
      </trkpt>
      <trkpt lat="45.64522" lon="2.87354">
        <ele>1159.97</ele>
        <time>2021-08-14T19:23:38Z</time>
      </trkpt>
      <trkpt lat="45.64526" lon="2.87387">
        <ele>1158.05</ele>
        <time>2021-08-14T19:23:44Z</time>
      </trkpt>
      <trkpt lat="45.64529" lon="2.8741">
        <ele>1156.6</ele>
        <time>2021-08-14T19:23:50Z</time>
      </trkpt>
      <trkpt lat="45.6453" lon="2.87425">
        <ele>1155.64</ele>
        <time>2021-08-14T19:23:54Z</time>
      </trkpt>
      <trkpt lat="45.6453" lon="2.87429">
        <ele>1154.68</ele>
        <time>2021-08-14T19:23:55Z</time>
      </trkpt>
      <trkpt lat="45.64529" lon="2.87434">
        <ele>1154.68</ele>
        <time>2021-08-14T19:23:56Z</time>
      </trkpt>
      <trkpt lat="45.6453" lon="2.87439">
        <ele>1154.68</ele>
        <time>2021-08-14T19:23:57Z</time>
      </trkpt>
      <trkpt lat="45.6453" lon="2.87444">
        <ele>1154.2</ele>
        <time>2021-08-14T19:23:58Z</time>
      </trkpt>
      <trkpt lat="45.6453" lon="2.87448">
        <ele>1154.2</ele>
        <time>2021-08-14T19:23:59Z</time>
      </trkpt>
      <trkpt lat="45.64529" lon="2.87453">
        <ele>1153.72</ele>
        <time>2021-08-14T19:24:00Z</time>
      </trkpt>
      <trkpt lat="45.64526" lon="2.87482">
        <ele>1150.84</ele>
        <time>2021-08-14T19:24:05Z</time>
      </trkpt>
      <trkpt lat="45.64525" lon="2.87518">
        <ele>1148.91</ele>
        <time>2021-08-14T19:24:11Z</time>
      </trkpt>
      <trkpt lat="45.64523" lon="2.87537">
        <ele>1147.47</ele>
        <time>2021-08-14T19:24:15Z</time>
      </trkpt>
      <trkpt lat="45.64524" lon="2.87569">
        <ele>1146.03</ele>
        <time>2021-08-14T19:24:22Z</time>
      </trkpt>
      <trkpt lat="45.64528" lon="2.87597">
        <ele>1144.59</ele>
        <time>2021-08-14T19:24:28Z</time>
      </trkpt>
      <trkpt lat="45.64521" lon="2.87623">
        <ele>1142.66</ele>
        <time>2021-08-14T19:24:33Z</time>
      </trkpt>
      <trkpt lat="45.6452" lon="2.8766">
        <ele>1140.26</ele>
        <time>2021-08-14T19:24:40Z</time>
      </trkpt>
      <trkpt lat="45.64523" lon="2.87684">
        <ele>1139.3</ele>
        <time>2021-08-14T19:24:45Z</time>
      </trkpt>
      <trkpt lat="45.64526" lon="2.87703">
        <ele>1137.86</ele>
        <time>2021-08-14T19:24:51Z</time>
      </trkpt>
      <trkpt lat="45.64535" lon="2.87742">
        <ele>1134.49</ele>
        <time>2021-08-14T19:24:59Z</time>
      </trkpt>
      <trkpt lat="45.64541" lon="2.87774">
        <ele>1133.05</ele>
        <time>2021-08-14T19:25:06Z</time>
      </trkpt>
      <trkpt lat="45.64547" lon="2.87803">
        <ele>1132.09</ele>
        <time>2021-08-14T19:25:12Z</time>
      </trkpt>
      <trkpt lat="45.64556" lon="2.87817">
        <ele>1130.65</ele>
        <time>2021-08-14T19:25:15Z</time>
      </trkpt>
      <trkpt lat="45.64571" lon="2.87837">
        <ele>1130.17</ele>
        <time>2021-08-14T19:25:20Z</time>
      </trkpt>
      <trkpt lat="45.6459" lon="2.87852">
        <ele>1130.17</ele>
        <time>2021-08-14T19:25:27Z</time>
      </trkpt>
      <trkpt lat="45.64611" lon="2.87866">
        <ele>1127.76</ele>
        <time>2021-08-14T19:25:33Z</time>
      </trkpt>
      <trkpt lat="45.64614" lon="2.87869">
        <ele>1128.24</ele>
        <time>2021-08-14T19:25:34Z</time>
      </trkpt>
      <trkpt lat="45.64631" lon="2.87885">
        <ele>1128.24</ele>
        <time>2021-08-14T19:25:40Z</time>
      </trkpt>
      <trkpt lat="45.64653" lon="2.8791">
        <ele>1128.24</ele>
        <time>2021-08-14T19:25:48Z</time>
      </trkpt>
      <trkpt lat="45.64663" lon="2.87919">
        <ele>1126.8</ele>
        <time>2021-08-14T19:25:51Z</time>
      </trkpt>
      <trkpt lat="45.64667" lon="2.87922">
        <ele>1126.8</ele>
        <time>2021-08-14T19:25:52Z</time>
      </trkpt>
      <trkpt lat="45.6467" lon="2.87924">
        <ele>1126.8</ele>
        <time>2021-08-14T19:25:53Z</time>
      </trkpt>
      <trkpt lat="45.64673" lon="2.87926">
        <ele>1126.32</ele>
        <time>2021-08-14T19:25:54Z</time>
      </trkpt>
      <trkpt lat="45.64676" lon="2.87929">
        <ele>1126.32</ele>
        <time>2021-08-14T19:25:55Z</time>
      </trkpt>
      <trkpt lat="45.64691" lon="2.87941">
        <ele>1123.92</ele>
        <time>2021-08-14T19:25:59Z</time>
      </trkpt>
      <trkpt lat="45.64696" lon="2.87947">
        <ele>1123.92</ele>
        <time>2021-08-14T19:26:00Z</time>
      </trkpt>
      <trkpt lat="45.64712" lon="2.87969">
        <ele>1123.92</ele>
        <time>2021-08-14T19:26:05Z</time>
      </trkpt>
      <trkpt lat="45.64726" lon="2.87989">
        <ele>1123.92</ele>
        <time>2021-08-14T19:26:11Z</time>
      </trkpt>
      <trkpt lat="45.64732" lon="2.87999">
        <ele>1123.44</ele>
        <time>2021-08-14T19:26:13Z</time>
      </trkpt>
      <trkpt lat="45.64754" lon="2.88031">
        <ele>1122.96</ele>
        <time>2021-08-14T19:26:20Z</time>
      </trkpt>
      <trkpt lat="45.64778" lon="2.88061">
        <ele>1121.52</ele>
        <time>2021-08-14T19:26:28Z</time>
      </trkpt>
      <trkpt lat="45.64782" lon="2.88066">
        <ele>1121.03</ele>
        <time>2021-08-14T19:26:30Z</time>
      </trkpt>
      <trkpt lat="45.64782" lon="2.88069">
        <ele>1121.03</ele>
        <time>2021-08-14T19:26:31Z</time>
      </trkpt>
      <trkpt lat="45.64782" lon="2.88071">
        <ele>1120.55</ele>
        <time>2021-08-14T19:26:32Z</time>
      </trkpt>
      <trkpt lat="45.64781" lon="2.88073">
        <ele>1120.55</ele>
        <time>2021-08-14T19:26:33Z</time>
      </trkpt>
      <trkpt lat="45.6478" lon="2.88074">
        <ele>1120.07</ele>
        <time>2021-08-14T19:26:34Z</time>
      </trkpt>
      <trkpt lat="45.64778" lon="2.88074">
        <ele>1119.11</ele>
        <time>2021-08-14T19:26:35Z</time>
      </trkpt>
      <trkpt lat="45.64771" lon="2.88076">
        <ele>1118.15</ele>
        <time>2021-08-14T19:26:39Z</time>
      </trkpt>
      <trkpt lat="45.6476" lon="2.88079">
        <ele>1115.27</ele>
        <time>2021-08-14T19:26:46Z</time>
      </trkpt>
      <trkpt lat="45.64752" lon="2.8808">
        <ele>1114.31</ele>
        <time>2021-08-14T19:26:50Z</time>
      </trkpt>
      <trkpt lat="45.64751" lon="2.88081">
        <ele>1113.82</ele>
        <time>2021-08-14T19:26:51Z</time>
      </trkpt>
      <trkpt lat="45.6475" lon="2.88082">
        <ele>1113.82</ele>
        <time>2021-08-14T19:26:52Z</time>
      </trkpt>
      <trkpt lat="45.64735" lon="2.88086">
        <ele>1112.86</ele>
        <time>2021-08-14T19:26:59Z</time>
      </trkpt>
      <trkpt lat="45.64719" lon="2.88091">
        <ele>1112.86</ele>
        <time>2021-08-14T19:27:05Z</time>
      </trkpt>
      <trkpt lat="45.64701" lon="2.88093">
        <ele>1112.86</ele>
        <time>2021-08-14T19:27:12Z</time>
      </trkpt>
      <trkpt lat="45.64684" lon="2.88091">
        <ele>1114.31</ele>
        <time>2021-08-14T19:27:20Z</time>
      </trkpt>
      <trkpt lat="45.64674" lon="2.88085">
        <ele>1115.75</ele>
        <time>2021-08-14T19:27:27Z</time>
      </trkpt>
      <trkpt lat="45.64668" lon="2.88082">
        <ele>1116.23</ele>
        <time>2021-08-14T19:27:32Z</time>
      </trkpt>
      <trkpt lat="45.6466" lon="2.88077">
        <ele>1116.23</ele>
        <time>2021-08-14T19:27:37Z</time>
      </trkpt>
      <trkpt lat="45.64658" lon="2.88076">
        <ele>1116.23</ele>
        <time>2021-08-14T19:27:38Z</time>
      </trkpt>
      <trkpt lat="45.64647" lon="2.88074">
        <ele>1116.71</ele>
        <time>2021-08-14T19:27:45Z</time>
      </trkpt>
      <trkpt lat="45.64635" lon="2.88073">
        <ele>1118.15</ele>
        <time>2021-08-14T19:27:53Z</time>
      </trkpt>
      <trkpt lat="45.64626" lon="2.88072">
        <ele>1119.11</ele>
        <time>2021-08-14T19:28:01Z</time>
      </trkpt>
      <trkpt lat="45.64616" lon="2.88075">
        <ele>1120.55</ele>
        <time>2021-08-14T19:28:09Z</time>
      </trkpt>
      <trkpt lat="45.64607" lon="2.88076">
        <ele>1121.52</ele>
        <time>2021-08-14T19:28:16Z</time>
      </trkpt>
      <trkpt lat="45.64598" lon="2.88079">
        <ele>1122.48</ele>
        <time>2021-08-14T19:28:23Z</time>
      </trkpt>
      <trkpt lat="45.64592" lon="2.8808">
        <ele>1123.44</ele>
        <time>2021-08-14T19:28:28Z</time>
      </trkpt>
      <trkpt lat="45.64589" lon="2.8808">
        <ele>1123.44</ele>
        <time>2021-08-14T19:28:30Z</time>
      </trkpt>
      <trkpt lat="45.64581" lon="2.88082">
        <ele>1124.4</ele>
        <time>2021-08-14T19:28:37Z</time>
      </trkpt>
      <trkpt lat="45.64571" lon="2.88087">
        <ele>1125.36</ele>
        <time>2021-08-14T19:28:45Z</time>
      </trkpt>
      <trkpt lat="45.64564" lon="2.8809">
        <ele>1125.84</ele>
        <time>2021-08-14T19:28:52Z</time>
      </trkpt>
      <trkpt lat="45.64558" lon="2.88094">
        <ele>1126.8</ele>
        <time>2021-08-14T19:28:59Z</time>
      </trkpt>
      <trkpt lat="45.64549" lon="2.881">
        <ele>1128.24</ele>
        <time>2021-08-14T19:29:08Z</time>
      </trkpt>
      <trkpt lat="45.64541" lon="2.88106">
        <ele>1129.69</ele>
        <time>2021-08-14T19:29:16Z</time>
      </trkpt>
      <trkpt lat="45.64532" lon="2.88111">
        <ele>1130.65</ele>
        <time>2021-08-14T19:29:25Z</time>
      </trkpt>
      <trkpt lat="45.64528" lon="2.88114">
        <ele>1131.13</ele>
        <time>2021-08-14T19:29:34Z</time>
      </trkpt>
      <trkpt lat="45.64525" lon="2.88115">
        <ele>1131.13</ele>
        <time>2021-08-14T19:29:40Z</time>
      </trkpt>
      <trkpt lat="45.64514" lon="2.88118">
        <ele>1132.09</ele>
        <time>2021-08-14T19:29:47Z</time>
      </trkpt>
      <trkpt lat="45.64502" lon="2.8812">
        <ele>1132.57</ele>
        <time>2021-08-14T19:29:53Z</time>
      </trkpt>
      <trkpt lat="45.64487" lon="2.88119">
        <ele>1133.05</ele>
        <time>2021-08-14T19:30:00Z</time>
      </trkpt>
      <trkpt lat="45.64472" lon="2.88125">
        <ele>1133.53</ele>
        <time>2021-08-14T19:30:08Z</time>
      </trkpt>
      <trkpt lat="45.6446" lon="2.88138">
        <ele>1134.01</ele>
        <time>2021-08-14T19:30:15Z</time>
      </trkpt>
      <trkpt lat="45.64454" lon="2.88143">
        <ele>1134.01</ele>
        <time>2021-08-14T19:30:18Z</time>
      </trkpt>
      <trkpt lat="45.64452" lon="2.88144">
        <ele>1134.49</ele>
        <time>2021-08-14T19:30:19Z</time>
      </trkpt>
      <trkpt lat="45.6445" lon="2.88147">
        <ele>1134.49</ele>
        <time>2021-08-14T19:30:20Z</time>
      </trkpt>
      <trkpt lat="45.64448" lon="2.88149">
        <ele>1134.49</ele>
        <time>2021-08-14T19:30:21Z</time>
      </trkpt>
      <trkpt lat="45.64446" lon="2.8815">
        <ele>1134.49</ele>
        <time>2021-08-14T19:30:22Z</time>
      </trkpt>
      <trkpt lat="45.6443" lon="2.88164">
        <ele>1135.45</ele>
        <time>2021-08-14T19:30:30Z</time>
      </trkpt>
      <trkpt lat="45.6442" lon="2.88172">
        <ele>1135.94</ele>
        <time>2021-08-14T19:30:36Z</time>
      </trkpt>
      <trkpt lat="45.64404" lon="2.88181">
        <ele>1136.42</ele>
        <time>2021-08-14T19:30:45Z</time>
      </trkpt>
      <trkpt lat="45.64402" lon="2.88181">
        <ele>1136.9</ele>
        <time>2021-08-14T19:30:46Z</time>
      </trkpt>
      <trkpt lat="45.64396" lon="2.88182">
        <ele>1137.38</ele>
        <time>2021-08-14T19:30:49Z</time>
      </trkpt>
      <trkpt lat="45.64395" lon="2.88183">
        <ele>1137.38</ele>
        <time>2021-08-14T19:30:50Z</time>
      </trkpt>
      <trkpt lat="45.64393" lon="2.88184">
        <ele>1137.38</ele>
        <time>2021-08-14T19:30:51Z</time>
      </trkpt>
      <trkpt lat="45.6438" lon="2.88188">
        <ele>1137.86</ele>
        <time>2021-08-14T19:30:58Z</time>
      </trkpt>
      <trkpt lat="45.64358" lon="2.88195">
        <ele>1139.78</ele>
        <time>2021-08-14T19:31:08Z</time>
      </trkpt>
      <trkpt lat="45.64341" lon="2.88197">
        <ele>1141.22</ele>
        <time>2021-08-14T19:31:18Z</time>
      </trkpt>
      <trkpt lat="45.64324" lon="2.88192">
        <ele>1142.66</ele>
        <time>2021-08-14T19:31:27Z</time>
      </trkpt>
      <trkpt lat="45.6432" lon="2.88192">
        <ele>1143.14</ele>
        <time>2021-08-14T19:31:30Z</time>
      </trkpt>
      <trkpt lat="45.64318" lon="2.88192">
        <ele>1143.14</ele>
        <time>2021-08-14T19:31:31Z</time>
      </trkpt>
      <trkpt lat="45.64316" lon="2.88192">
        <ele>1143.14</ele>
        <time>2021-08-14T19:31:32Z</time>
      </trkpt>
      <trkpt lat="45.64314" lon="2.88192">
        <ele>1143.63</ele>
        <time>2021-08-14T19:31:33Z</time>
      </trkpt>
      <trkpt lat="45.64313" lon="2.88191">
        <ele>1143.63</ele>
        <time>2021-08-14T19:31:34Z</time>
      </trkpt>
      <trkpt lat="45.64309" lon="2.88191">
        <ele>1143.63</ele>
        <time>2021-08-14T19:31:36Z</time>
      </trkpt>
      <trkpt lat="45.64307" lon="2.88191">
        <ele>1144.11</ele>
        <time>2021-08-14T19:31:37Z</time>
      </trkpt>
      <trkpt lat="45.64305" lon="2.8819">
        <ele>1144.11</ele>
        <time>2021-08-14T19:31:38Z</time>
      </trkpt>
      <trkpt lat="45.64304" lon="2.88189">
        <ele>1144.59</ele>
        <time>2021-08-14T19:31:39Z</time>
      </trkpt>
      <trkpt lat="45.64302" lon="2.88189">
        <ele>1144.59</ele>
        <time>2021-08-14T19:31:40Z</time>
      </trkpt>
      <trkpt lat="45.64301" lon="2.88188">
        <ele>1144.59</ele>
        <time>2021-08-14T19:31:41Z</time>
      </trkpt>
      <trkpt lat="45.64295" lon="2.88185">
        <ele>1145.07</ele>
        <time>2021-08-14T19:31:45Z</time>
      </trkpt>
      <trkpt lat="45.64283" lon="2.88181">
        <ele>1146.51</ele>
        <time>2021-08-14T19:31:55Z</time>
      </trkpt>
      <trkpt lat="45.64271" lon="2.88179">
        <ele>1147.47</ele>
        <time>2021-08-14T19:32:04Z</time>
      </trkpt>
      <trkpt lat="45.64266" lon="2.88178">
        <ele>1147.47</ele>
        <time>2021-08-14T19:32:08Z</time>
      </trkpt>
      <trkpt lat="45.64265" lon="2.88179">
        <ele>1147.47</ele>
        <time>2021-08-14T19:32:09Z</time>
      </trkpt>
      <trkpt lat="45.64264" lon="2.88179">
        <ele>1147.47</ele>
        <time>2021-08-14T19:32:10Z</time>
      </trkpt>
      <trkpt lat="45.64262" lon="2.88179">
        <ele>1147.95</ele>
        <time>2021-08-14T19:32:11Z</time>
      </trkpt>
      <trkpt lat="45.64261" lon="2.88179">
        <ele>1147.95</ele>
        <time>2021-08-14T19:32:12Z</time>
      </trkpt>
      <trkpt lat="45.6426" lon="2.88179">
        <ele>1147.95</ele>
        <time>2021-08-14T19:32:13Z</time>
      </trkpt>
      <trkpt lat="45.64259" lon="2.88179">
        <ele>1147.95</ele>
        <time>2021-08-14T19:32:14Z</time>
      </trkpt>
      <trkpt lat="45.64257" lon="2.8818">
        <ele>1147.95</ele>
        <time>2021-08-14T19:32:15Z</time>
      </trkpt>
      <trkpt lat="45.64256" lon="2.8818">
        <ele>1147.95</ele>
        <time>2021-08-14T19:32:16Z</time>
      </trkpt>
      <trkpt lat="45.64255" lon="2.8818">
        <ele>1147.95</ele>
        <time>2021-08-14T19:32:17Z</time>
      </trkpt>
      <trkpt lat="45.64253" lon="2.8818">
        <ele>1147.95</ele>
        <time>2021-08-14T19:32:18Z</time>
      </trkpt>
      <trkpt lat="45.64241" lon="2.88181">
        <ele>1148.91</ele>
        <time>2021-08-14T19:32:27Z</time>
      </trkpt>
      <trkpt lat="45.64228" lon="2.88184">
        <ele>1149.87</ele>
        <time>2021-08-14T19:32:36Z</time>
      </trkpt>
      <trkpt lat="45.64219" lon="2.88186">
        <ele>1150.35</ele>
        <time>2021-08-14T19:32:43Z</time>
      </trkpt>
      <trkpt lat="45.64209" lon="2.88189">
        <ele>1151.32</ele>
        <time>2021-08-14T19:32:50Z</time>
      </trkpt>
      <trkpt lat="45.64202" lon="2.88191">
        <ele>1151.8</ele>
        <time>2021-08-14T19:32:54Z</time>
      </trkpt>
      <trkpt lat="45.64201" lon="2.88192">
        <ele>1151.8</ele>
        <time>2021-08-14T19:32:55Z</time>
      </trkpt>
      <trkpt lat="45.642" lon="2.88194">
        <ele>1151.8</ele>
        <time>2021-08-14T19:32:56Z</time>
      </trkpt>
      <trkpt lat="45.64198" lon="2.88196">
        <ele>1152.28</ele>
        <time>2021-08-14T19:32:58Z</time>
      </trkpt>
      <trkpt lat="45.64197" lon="2.88196">
        <ele>1152.28</ele>
        <time>2021-08-14T19:32:59Z</time>
      </trkpt>
      <trkpt lat="45.64195" lon="2.88197">
        <ele>1152.28</ele>
        <time>2021-08-14T19:33:00Z</time>
      </trkpt>
      <trkpt lat="45.64194" lon="2.88197">
        <ele>1152.76</ele>
        <time>2021-08-14T19:33:01Z</time>
      </trkpt>
      <trkpt lat="45.64193" lon="2.88197">
        <ele>1152.76</ele>
        <time>2021-08-14T19:33:02Z</time>
      </trkpt>
      <trkpt lat="45.64191" lon="2.88196">
        <ele>1152.76</ele>
        <time>2021-08-14T19:33:03Z</time>
      </trkpt>
      <trkpt lat="45.6419" lon="2.88196">
        <ele>1152.76</ele>
        <time>2021-08-14T19:33:04Z</time>
      </trkpt>
      <trkpt lat="45.64188" lon="2.88196">
        <ele>1152.76</ele>
        <time>2021-08-14T19:33:05Z</time>
      </trkpt>
      <trkpt lat="45.64181" lon="2.88196">
        <ele>1153.72</ele>
        <time>2021-08-14T19:33:10Z</time>
      </trkpt>
      <trkpt lat="45.6418" lon="2.88196">
        <ele>1153.72</ele>
        <time>2021-08-14T19:33:11Z</time>
      </trkpt>
      <trkpt lat="45.64179" lon="2.88197">
        <ele>1153.72</ele>
        <time>2021-08-14T19:33:12Z</time>
      </trkpt>
      <trkpt lat="45.64177" lon="2.88197">
        <ele>1153.72</ele>
        <time>2021-08-14T19:33:13Z</time>
      </trkpt>
      <trkpt lat="45.64176" lon="2.88198">
        <ele>1153.72</ele>
        <time>2021-08-14T19:33:14Z</time>
      </trkpt>
      <trkpt lat="45.64166" lon="2.88199">
        <ele>1154.68</ele>
        <time>2021-08-14T19:33:23Z</time>
      </trkpt>
      <trkpt lat="45.64153" lon="2.88201">
        <ele>1155.64</ele>
        <time>2021-08-14T19:33:32Z</time>
      </trkpt>
      <trkpt lat="45.64138" lon="2.88205">
        <ele>1156.12</ele>
        <time>2021-08-14T19:33:41Z</time>
      </trkpt>
      <trkpt lat="45.64121" lon="2.8821">
        <ele>1157.08</ele>
        <time>2021-08-14T19:33:51Z</time>
      </trkpt>
      <trkpt lat="45.64106" lon="2.88215">
        <ele>1157.56</ele>
        <time>2021-08-14T19:33:58Z</time>
      </trkpt>
      <trkpt lat="45.6409" lon="2.88221">
        <ele>1158.05</ele>
        <time>2021-08-14T19:34:06Z</time>
      </trkpt>
      <trkpt lat="45.64077" lon="2.88224">
        <ele>1158.53</ele>
        <time>2021-08-14T19:34:13Z</time>
      </trkpt>
      <trkpt lat="45.64064" lon="2.88232">
        <ele>1159.49</ele>
        <time>2021-08-14T19:34:21Z</time>
      </trkpt>
      <trkpt lat="45.64048" lon="2.88249">
        <ele>1160.45</ele>
        <time>2021-08-14T19:34:31Z</time>
      </trkpt>
      <trkpt lat="45.64043" lon="2.88258">
        <ele>1160.45</ele>
        <time>2021-08-14T19:34:35Z</time>
      </trkpt>
      <trkpt lat="45.64029" lon="2.88288">
        <ele>1161.41</ele>
        <time>2021-08-14T19:34:44Z</time>
      </trkpt>
      <trkpt lat="45.64018" lon="2.88318">
        <ele>1161.89</ele>
        <time>2021-08-14T19:34:53Z</time>
      </trkpt>
      <trkpt lat="45.64017" lon="2.88322">
        <ele>1161.89</ele>
        <time>2021-08-14T19:34:59Z</time>
      </trkpt>
      <trkpt lat="45.64017" lon="2.88321">
        <ele>1161.89</ele>
        <time>2021-08-14T19:35:10Z</time>
      </trkpt>
      <trkpt lat="45.64017" lon="2.8832">
        <ele>1161.89</ele>
        <time>2021-08-14T19:35:28Z</time>
      </trkpt>
      <trkpt lat="45.64018" lon="2.88318">
        <ele>1161.89</ele>
        <time>2021-08-14T19:35:42Z</time>
      </trkpt>
      <trkpt lat="45.6402" lon="2.88319">
        <ele>1161.89</ele>
        <time>2021-08-14T19:35:49Z</time>
      </trkpt>
      <trkpt lat="45.64019" lon="2.88324">
        <ele>1161.89</ele>
        <time>2021-08-14T19:35:55Z</time>
      </trkpt>
      <trkpt lat="45.64011" lon="2.88348">
        <ele>1161.89</ele>
        <time>2021-08-14T19:36:03Z</time>
      </trkpt>
      <trkpt lat="45.64" lon="2.8838">
        <ele>1162.37</ele>
        <time>2021-08-14T19:36:12Z</time>
      </trkpt>
      <trkpt lat="45.63989" lon="2.8841">
        <ele>1162.85</ele>
        <time>2021-08-14T19:36:21Z</time>
      </trkpt>
      <trkpt lat="45.63977" lon="2.88442">
        <ele>1163.33</ele>
        <time>2021-08-14T19:36:30Z</time>
      </trkpt>
      <trkpt lat="45.63971" lon="2.88459">
        <ele>1163.81</ele>
        <time>2021-08-14T19:36:35Z</time>
      </trkpt>
      <trkpt lat="45.6397" lon="2.88463">
        <ele>1163.81</ele>
        <time>2021-08-14T19:36:36Z</time>
      </trkpt>
      <trkpt lat="45.63969" lon="2.88467">
        <ele>1163.81</ele>
        <time>2021-08-14T19:36:37Z</time>
      </trkpt>
      <trkpt lat="45.63968" lon="2.8847">
        <ele>1163.81</ele>
        <time>2021-08-14T19:36:38Z</time>
      </trkpt>
      <trkpt lat="45.63967" lon="2.88473">
        <ele>1163.81</ele>
        <time>2021-08-14T19:36:39Z</time>
      </trkpt>
      <trkpt lat="45.63965" lon="2.88477">
        <ele>1164.29</ele>
        <time>2021-08-14T19:36:40Z</time>
      </trkpt>
      <trkpt lat="45.63964" lon="2.8848">
        <ele>1164.29</ele>
        <time>2021-08-14T19:36:41Z</time>
      </trkpt>
      <trkpt lat="45.63953" lon="2.88507">
        <ele>1164.77</ele>
        <time>2021-08-14T19:36:49Z</time>
      </trkpt>
      <trkpt lat="45.63944" lon="2.88531">
        <ele>1165.26</ele>
        <time>2021-08-14T19:36:56Z</time>
      </trkpt>
      <trkpt lat="45.6394" lon="2.88554">
        <ele>1165.74</ele>
        <time>2021-08-14T19:37:02Z</time>
      </trkpt>
      <trkpt lat="45.63927" lon="2.88579">
        <ele>1166.22</ele>
        <time>2021-08-14T19:37:09Z</time>
      </trkpt>
      <trkpt lat="45.63915" lon="2.88607">
        <ele>1166.7</ele>
        <time>2021-08-14T19:37:17Z</time>
      </trkpt>
      <trkpt lat="45.63905" lon="2.88634">
        <ele>1167.18</ele>
        <time>2021-08-14T19:37:24Z</time>
      </trkpt>
      <trkpt lat="45.63889" lon="2.88662">
        <ele>1167.66</ele>
        <time>2021-08-14T19:37:32Z</time>
      </trkpt>
      <trkpt lat="45.63877" lon="2.88681">
        <ele>1167.66</ele>
        <time>2021-08-14T19:37:38Z</time>
      </trkpt>
      <trkpt lat="45.63859" lon="2.8872">
        <ele>1168.14</ele>
        <time>2021-08-14T19:37:48Z</time>
      </trkpt>
      <trkpt lat="45.63846" lon="2.88745">
        <ele>1168.62</ele>
        <time>2021-08-14T19:37:54Z</time>
      </trkpt>
      <trkpt lat="45.63826" lon="2.88773">
        <ele>1169.1</ele>
        <time>2021-08-14T19:38:02Z</time>
      </trkpt>
      <trkpt lat="45.63804" lon="2.88793">
        <ele>1169.1</ele>
        <time>2021-08-14T19:38:09Z</time>
      </trkpt>
      <trkpt lat="45.63791" lon="2.88807">
        <ele>1169.1</ele>
        <time>2021-08-14T19:38:13Z</time>
      </trkpt>
      <trkpt lat="45.63785" lon="2.88816">
        <ele>1169.1</ele>
        <time>2021-08-14T19:38:15Z</time>
      </trkpt>
      <trkpt lat="45.63782" lon="2.8882">
        <ele>1169.1</ele>
        <time>2021-08-14T19:38:16Z</time>
      </trkpt>
      <trkpt lat="45.63767" lon="2.88837">
        <ele>1169.1</ele>
        <time>2021-08-14T19:38:22Z</time>
      </trkpt>
      <trkpt lat="45.63746" lon="2.88862">
        <ele>1169.1</ele>
        <time>2021-08-14T19:38:30Z</time>
      </trkpt>
      <trkpt lat="45.63734" lon="2.88877">
        <ele>1169.58</ele>
        <time>2021-08-14T19:38:36Z</time>
      </trkpt>
      <trkpt lat="45.63722" lon="2.8889">
        <ele>1169.58</ele>
        <time>2021-08-14T19:38:43Z</time>
      </trkpt>
      <trkpt lat="45.63708" lon="2.88909">
        <ele>1170.54</ele>
        <time>2021-08-14T19:38:51Z</time>
      </trkpt>
      <trkpt lat="45.63696" lon="2.88928">
        <ele>1171.02</ele>
        <time>2021-08-14T19:38:58Z</time>
      </trkpt>
      <trkpt lat="45.63688" lon="2.88932">
        <ele>1171.5</ele>
        <time>2021-08-14T19:39:02Z</time>
      </trkpt>
      <trkpt lat="45.63686" lon="2.88933">
        <ele>1171.5</ele>
        <time>2021-08-14T19:39:03Z</time>
      </trkpt>
      <trkpt lat="45.63684" lon="2.88935">
        <ele>1171.5</ele>
        <time>2021-08-14T19:39:04Z</time>
      </trkpt>
      <trkpt lat="45.63683" lon="2.88937">
        <ele>1171.98</ele>
        <time>2021-08-14T19:39:05Z</time>
      </trkpt>
      <trkpt lat="45.63682" lon="2.88939">
        <ele>1171.98</ele>
        <time>2021-08-14T19:39:06Z</time>
      </trkpt>
      <trkpt lat="45.6368" lon="2.88942">
        <ele>1171.98</ele>
        <time>2021-08-14T19:39:07Z</time>
      </trkpt>
      <trkpt lat="45.63679" lon="2.88944">
        <ele>1171.98</ele>
        <time>2021-08-14T19:39:08Z</time>
      </trkpt>
      <trkpt lat="45.63677" lon="2.88946">
        <ele>1171.98</ele>
        <time>2021-08-14T19:39:09Z</time>
      </trkpt>
      <trkpt lat="45.63676" lon="2.88947">
        <ele>1172.47</ele>
        <time>2021-08-14T19:39:10Z</time>
      </trkpt>
      <trkpt lat="45.63675" lon="2.88949">
        <ele>1172.47</ele>
        <time>2021-08-14T19:39:11Z</time>
      </trkpt>
      <trkpt lat="45.63674" lon="2.8895">
        <ele>1172.47</ele>
        <time>2021-08-14T19:39:12Z</time>
      </trkpt>
      <trkpt lat="45.63672" lon="2.88952">
        <ele>1172.47</ele>
        <time>2021-08-14T19:39:13Z</time>
      </trkpt>
      <trkpt lat="45.63671" lon="2.88952">
        <ele>1172.95</ele>
        <time>2021-08-14T19:39:14Z</time>
      </trkpt>
      <trkpt lat="45.63669" lon="2.88952">
        <ele>1172.95</ele>
        <time>2021-08-14T19:39:15Z</time>
      </trkpt>
      <trkpt lat="45.63667" lon="2.88951">
        <ele>1172.95</ele>
        <time>2021-08-14T19:39:16Z</time>
      </trkpt>
      <trkpt lat="45.63666" lon="2.8895">
        <ele>1173.43</ele>
        <time>2021-08-14T19:39:17Z</time>
      </trkpt>
      <trkpt lat="45.63665" lon="2.88949">
        <ele>1173.43</ele>
        <time>2021-08-14T19:39:18Z</time>
      </trkpt>
      <trkpt lat="45.63663" lon="2.88948">
        <ele>1173.43</ele>
        <time>2021-08-14T19:39:19Z</time>
      </trkpt>
      <trkpt lat="45.63648" lon="2.88946">
        <ele>1174.39</ele>
        <time>2021-08-14T19:39:27Z</time>
      </trkpt>
      <trkpt lat="45.63637" lon="2.88946">
        <ele>1175.35</ele>
        <time>2021-08-14T19:39:35Z</time>
      </trkpt>
      <trkpt lat="45.63636" lon="2.88945">
        <ele>1175.35</ele>
        <time>2021-08-14T19:39:36Z</time>
      </trkpt>
      <trkpt lat="45.63635" lon="2.88943">
        <ele>1175.35</ele>
        <time>2021-08-14T19:39:37Z</time>
      </trkpt>
      <trkpt lat="45.63634" lon="2.88941">
        <ele>1175.83</ele>
        <time>2021-08-14T19:39:38Z</time>
      </trkpt>
      <trkpt lat="45.63633" lon="2.88939">
        <ele>1175.83</ele>
        <time>2021-08-14T19:39:39Z</time>
      </trkpt>
      <trkpt lat="45.63633" lon="2.88937">
        <ele>1175.83</ele>
        <time>2021-08-14T19:39:40Z</time>
      </trkpt>
      <trkpt lat="45.63632" lon="2.88935">
        <ele>1175.83</ele>
        <time>2021-08-14T19:39:41Z</time>
      </trkpt>
      <trkpt lat="45.63632" lon="2.88933">
        <ele>1176.31</ele>
        <time>2021-08-14T19:39:42Z</time>
      </trkpt>
      <trkpt lat="45.63624" lon="2.88915">
        <ele>1176.79</ele>
        <time>2021-08-14T19:39:51Z</time>
      </trkpt>
      <trkpt lat="45.63621" lon="2.88912">
        <ele>1176.79</ele>
        <time>2021-08-14T19:39:53Z</time>
      </trkpt>
      <trkpt lat="45.6362" lon="2.88912">
        <ele>1176.79</ele>
        <time>2021-08-14T19:39:54Z</time>
      </trkpt>
      <trkpt lat="45.63618" lon="2.88912">
        <ele>1177.27</ele>
        <time>2021-08-14T19:39:55Z</time>
      </trkpt>
      <trkpt lat="45.63617" lon="2.88911">
        <ele>1177.27</ele>
        <time>2021-08-14T19:39:56Z</time>
      </trkpt>
      <trkpt lat="45.63615" lon="2.88911">
        <ele>1177.27</ele>
        <time>2021-08-14T19:39:57Z</time>
      </trkpt>
      <trkpt lat="45.63602" lon="2.88908">
        <ele>1178.23</ele>
        <time>2021-08-14T19:40:05Z</time>
      </trkpt>
      <trkpt lat="45.63588" lon="2.88904">
        <ele>1179.19</ele>
        <time>2021-08-14T19:40:13Z</time>
      </trkpt>
      <trkpt lat="45.63587" lon="2.88903">
        <ele>1179.19</ele>
        <time>2021-08-14T19:40:14Z</time>
      </trkpt>
      <trkpt lat="45.63571" lon="2.88892">
        <ele>1180.64</ele>
        <time>2021-08-14T19:40:24Z</time>
      </trkpt>
      <trkpt lat="45.63558" lon="2.88879">
        <ele>1181.6</ele>
        <time>2021-08-14T19:40:33Z</time>
      </trkpt>
      <trkpt lat="45.63547" lon="2.88865">
        <ele>1182.56</ele>
        <time>2021-08-14T19:40:41Z</time>
      </trkpt>
      <trkpt lat="45.63537" lon="2.8886">
        <ele>1183.04</ele>
        <time>2021-08-14T19:40:47Z</time>
      </trkpt>
      <trkpt lat="45.63524" lon="2.88866">
        <ele>1183.04</ele>
        <time>2021-08-14T19:40:54Z</time>
      </trkpt>
      <trkpt lat="45.63505" lon="2.8888">
        <ele>1183.04</ele>
        <time>2021-08-14T19:41:04Z</time>
      </trkpt>
      <trkpt lat="45.63491" lon="2.88891">
        <ele>1183.04</ele>
        <time>2021-08-14T19:41:13Z</time>
      </trkpt>
      <trkpt lat="45.63479" lon="2.88902">
        <ele>1183.04</ele>
        <time>2021-08-14T19:41:20Z</time>
      </trkpt>
      <trkpt lat="45.63465" lon="2.88912">
        <ele>1183.04</ele>
        <time>2021-08-14T19:41:27Z</time>
      </trkpt>
      <trkpt lat="45.63463" lon="2.88915">
        <ele>1183.04</ele>
        <time>2021-08-14T19:41:28Z</time>
      </trkpt>
      <trkpt lat="45.63462" lon="2.88918">
        <ele>1183.04</ele>
        <time>2021-08-14T19:41:29Z</time>
      </trkpt>
      <trkpt lat="45.63462" lon="2.88921">
        <ele>1183.04</ele>
        <time>2021-08-14T19:41:30Z</time>
      </trkpt>
      <trkpt lat="45.63461" lon="2.88925">
        <ele>1183.04</ele>
        <time>2021-08-14T19:41:31Z</time>
      </trkpt>
      <trkpt lat="45.63458" lon="2.8894">
        <ele>1181.6</ele>
        <time>2021-08-14T19:41:34Z</time>
      </trkpt>
      <trkpt lat="45.63454" lon="2.8896">
        <ele>1179.19</ele>
        <time>2021-08-14T19:41:38Z</time>
      </trkpt>
      <trkpt lat="45.63447" lon="2.88997">
        <ele>1176.31</ele>
        <time>2021-08-14T19:41:46Z</time>
      </trkpt>
      <trkpt lat="45.63447" lon="2.89">
        <ele>1176.31</ele>
        <time>2021-08-14T19:41:47Z</time>
      </trkpt>
      <trkpt lat="45.63449" lon="2.89002">
        <ele>1176.31</ele>
        <time>2021-08-14T19:41:48Z</time>
      </trkpt>
      <trkpt lat="45.6346" lon="2.89026">
        <ele>1175.35</ele>
        <time>2021-08-14T19:41:55Z</time>
      </trkpt>
      <trkpt lat="45.63457" lon="2.89061">
        <ele>1172.95</ele>
        <time>2021-08-14T19:42:01Z</time>
      </trkpt>
      <trkpt lat="45.63447" lon="2.89114">
        <ele>1170.54</ele>
        <time>2021-08-14T19:42:09Z</time>
      </trkpt>
      <trkpt lat="45.63443" lon="2.89144">
        <ele>1167.66</ele>
        <time>2021-08-14T19:42:15Z</time>
      </trkpt>
      <trkpt lat="45.63455" lon="2.89167">
        <ele>1166.22</ele>
        <time>2021-08-14T19:42:22Z</time>
      </trkpt>
      <trkpt lat="45.63477" lon="2.89195">
        <ele>1163.81</ele>
        <time>2021-08-14T19:42:31Z</time>
      </trkpt>
      <trkpt lat="45.63501" lon="2.89228">
        <ele>1161.89</ele>
        <time>2021-08-14T19:42:39Z</time>
      </trkpt>
      <trkpt lat="45.63536" lon="2.89278">
        <ele>1159.97</ele>
        <time>2021-08-14T19:42:49Z</time>
      </trkpt>
      <trkpt lat="45.63575" lon="2.89332">
        <ele>1157.56</ele>
        <time>2021-08-14T19:42:59Z</time>
      </trkpt>
      <trkpt lat="45.63608" lon="2.89376">
        <ele>1155.64</ele>
        <time>2021-08-14T19:43:06Z</time>
      </trkpt>
      <trkpt lat="45.63611" lon="2.89381">
        <ele>1155.64</ele>
        <time>2021-08-14T19:43:07Z</time>
      </trkpt>
      <trkpt lat="45.63613" lon="2.89387">
        <ele>1155.64</ele>
        <time>2021-08-14T19:43:08Z</time>
      </trkpt>
      <trkpt lat="45.63613" lon="2.89394">
        <ele>1154.68</ele>
        <time>2021-08-14T19:43:09Z</time>
      </trkpt>
      <trkpt lat="45.63611" lon="2.89399">
        <ele>1154.2</ele>
        <time>2021-08-14T19:43:10Z</time>
      </trkpt>
      <trkpt lat="45.63607" lon="2.89404">
        <ele>1153.72</ele>
        <time>2021-08-14T19:43:11Z</time>
      </trkpt>
      <trkpt lat="45.63602" lon="2.89408">
        <ele>1153.24</ele>
        <time>2021-08-14T19:43:12Z</time>
      </trkpt>
      <trkpt lat="45.63597" lon="2.89412">
        <ele>1153.24</ele>
        <time>2021-08-14T19:43:13Z</time>
      </trkpt>
      <trkpt lat="45.63558" lon="2.89442">
        <ele>1149.87</ele>
        <time>2021-08-14T19:43:20Z</time>
      </trkpt>
      <trkpt lat="45.63546" lon="2.89453">
        <ele>1148.91</ele>
        <time>2021-08-14T19:43:22Z</time>
      </trkpt>
      <trkpt lat="45.63521" lon="2.89473">
        <ele>1145.55</ele>
        <time>2021-08-14T19:43:26Z</time>
      </trkpt>
      <trkpt lat="45.63498" lon="2.89492">
        <ele>1142.18</ele>
        <time>2021-08-14T19:43:30Z</time>
      </trkpt>
      <trkpt lat="45.63484" lon="2.89503">
        <ele>1140.74</ele>
        <time>2021-08-14T19:43:33Z</time>
      </trkpt>
      <trkpt lat="45.6347" lon="2.89521">
        <ele>1138.34</ele>
        <time>2021-08-14T19:43:38Z</time>
      </trkpt>
      <trkpt lat="45.63469" lon="2.89528">
        <ele>1138.34</ele>
        <time>2021-08-14T19:43:39Z</time>
      </trkpt>
      <trkpt lat="45.63469" lon="2.89535">
        <ele>1137.86</ele>
        <time>2021-08-14T19:43:40Z</time>
      </trkpt>
      <trkpt lat="45.63466" lon="2.89587">
        <ele>1136.42</ele>
        <time>2021-08-14T19:43:47Z</time>
      </trkpt>
      <trkpt lat="45.6346" lon="2.89663">
        <ele>1134.01</ele>
        <time>2021-08-14T19:43:57Z</time>
      </trkpt>
      <trkpt lat="45.63458" lon="2.89685">
        <ele>1134.01</ele>
        <time>2021-08-14T19:44:00Z</time>
      </trkpt>
      <trkpt lat="45.63458" lon="2.89691">
        <ele>1134.01</ele>
        <time>2021-08-14T19:44:01Z</time>
      </trkpt>
      <trkpt lat="45.63457" lon="2.89698">
        <ele>1134.01</ele>
        <time>2021-08-14T19:44:02Z</time>
      </trkpt>
      <trkpt lat="45.63455" lon="2.8974">
        <ele>1133.53</ele>
        <time>2021-08-14T19:44:09Z</time>
      </trkpt>
      <trkpt lat="45.63455" lon="2.89746">
        <ele>1133.05</ele>
        <time>2021-08-14T19:44:10Z</time>
      </trkpt>
      <trkpt lat="45.63456" lon="2.89752">
        <ele>1132.57</ele>
        <time>2021-08-14T19:44:11Z</time>
      </trkpt>
      <trkpt lat="45.63458" lon="2.89758">
        <ele>1132.57</ele>
        <time>2021-08-14T19:44:12Z</time>
      </trkpt>
      <trkpt lat="45.63474" lon="2.89813">
        <ele>1131.61</ele>
        <time>2021-08-14T19:44:21Z</time>
      </trkpt>
      <trkpt lat="45.63485" lon="2.89846">
        <ele>1131.61</ele>
        <time>2021-08-14T19:44:28Z</time>
      </trkpt>
      <trkpt lat="45.63498" lon="2.89885">
        <ele>1131.61</ele>
        <time>2021-08-14T19:44:36Z</time>
      </trkpt>
      <trkpt lat="45.63519" lon="2.89954">
        <ele>1130.65</ele>
        <time>2021-08-14T19:44:48Z</time>
      </trkpt>
      <trkpt lat="45.6354" lon="2.90018">
        <ele>1130.17</ele>
        <time>2021-08-14T19:44:59Z</time>
      </trkpt>
      <trkpt lat="45.63555" lon="2.90066">
        <ele>1129.21</ele>
        <time>2021-08-14T19:45:07Z</time>
      </trkpt>
      <trkpt lat="45.63573" lon="2.90122">
        <ele>1128.24</ele>
        <time>2021-08-14T19:45:16Z</time>
      </trkpt>
      <trkpt lat="45.6358" lon="2.90143">
        <ele>1127.76</ele>
        <time>2021-08-14T19:45:19Z</time>
      </trkpt>
      <trkpt lat="45.63582" lon="2.90149">
        <ele>1127.76</ele>
        <time>2021-08-14T19:45:20Z</time>
      </trkpt>
      <trkpt lat="45.63584" lon="2.90156">
        <ele>1127.76</ele>
        <time>2021-08-14T19:45:21Z</time>
      </trkpt>
      <trkpt lat="45.63586" lon="2.90163">
        <ele>1127.28</ele>
        <time>2021-08-14T19:45:22Z</time>
      </trkpt>
      <trkpt lat="45.63588" lon="2.9017">
        <ele>1127.28</ele>
        <time>2021-08-14T19:45:23Z</time>
      </trkpt>
      <trkpt lat="45.6361" lon="2.90237">
        <ele>1125.84</ele>
        <time>2021-08-14T19:45:33Z</time>
      </trkpt>
      <trkpt lat="45.63625" lon="2.90288">
        <ele>1124.4</ele>
        <time>2021-08-14T19:45:41Z</time>
      </trkpt>
      <trkpt lat="45.6364" lon="2.90331">
        <ele>1122.48</ele>
        <time>2021-08-14T19:45:47Z</time>
      </trkpt>
      <trkpt lat="45.63661" lon="2.90396">
        <ele>1120.07</ele>
        <time>2021-08-14T19:45:55Z</time>
      </trkpt>
      <trkpt lat="45.63681" lon="2.90458">
        <ele>1118.63</ele>
        <time>2021-08-14T19:46:03Z</time>
      </trkpt>
      <trkpt lat="45.63702" lon="2.90523">
        <ele>1115.75</ele>
        <time>2021-08-14T19:46:12Z</time>
      </trkpt>
      <trkpt lat="45.63706" lon="2.9056">
        <ele>1114.31</ele>
        <time>2021-08-14T19:46:19Z</time>
      </trkpt>
      <trkpt lat="45.63691" lon="2.90573">
        <ele>1113.82</ele>
        <time>2021-08-14T19:46:24Z</time>
      </trkpt>
      <trkpt lat="45.63663" lon="2.9059">
        <ele>1111.9</ele>
        <time>2021-08-14T19:46:31Z</time>
      </trkpt>
      <trkpt lat="45.63635" lon="2.90609">
        <ele>1109.02</ele>
        <time>2021-08-14T19:46:36Z</time>
      </trkpt>
      <trkpt lat="45.636" lon="2.90635">
        <ele>1105.17</ele>
        <time>2021-08-14T19:46:42Z</time>
      </trkpt>
      <trkpt lat="45.63595" lon="2.90639">
        <ele>1105.17</ele>
        <time>2021-08-14T19:46:43Z</time>
      </trkpt>
      <trkpt lat="45.6359" lon="2.90643">
        <ele>1104.69</ele>
        <time>2021-08-14T19:46:44Z</time>
      </trkpt>
      <trkpt lat="45.63585" lon="2.90648">
        <ele>1103.73</ele>
        <time>2021-08-14T19:46:45Z</time>
      </trkpt>
      <trkpt lat="45.63581" lon="2.90651">
        <ele>1103.73</ele>
        <time>2021-08-14T19:46:46Z</time>
      </trkpt>
      <trkpt lat="45.63553" lon="2.90671">
        <ele>1100.85</ele>
        <time>2021-08-14T19:46:51Z</time>
      </trkpt>
      <trkpt lat="45.63525" lon="2.90693">
        <ele>1097.48</ele>
        <time>2021-08-14T19:46:57Z</time>
      </trkpt>
      <trkpt lat="45.63522" lon="2.90697">
        <ele>1097.48</ele>
        <time>2021-08-14T19:46:58Z</time>
      </trkpt>
      <trkpt lat="45.63519" lon="2.90701">
        <ele>1097</ele>
        <time>2021-08-14T19:46:59Z</time>
      </trkpt>
      <trkpt lat="45.63518" lon="2.90707">
        <ele>1097</ele>
        <time>2021-08-14T19:47:00Z</time>
      </trkpt>
      <trkpt lat="45.63517" lon="2.90712">
        <ele>1097</ele>
        <time>2021-08-14T19:47:01Z</time>
      </trkpt>
      <trkpt lat="45.63518" lon="2.90718">
        <ele>1097</ele>
        <time>2021-08-14T19:47:02Z</time>
      </trkpt>
      <trkpt lat="45.63519" lon="2.90724">
        <ele>1096.52</ele>
        <time>2021-08-14T19:47:03Z</time>
      </trkpt>
      <trkpt lat="45.63521" lon="2.90729">
        <ele>1097</ele>
        <time>2021-08-14T19:47:04Z</time>
      </trkpt>
      <trkpt lat="45.63523" lon="2.90735">
        <ele>1097</ele>
        <time>2021-08-14T19:47:05Z</time>
      </trkpt>
      <trkpt lat="45.63526" lon="2.9074">
        <ele>1097</ele>
        <time>2021-08-14T19:47:06Z</time>
      </trkpt>
      <trkpt lat="45.63543" lon="2.90785">
        <ele>1096.04</ele>
        <time>2021-08-14T19:47:14Z</time>
      </trkpt>
      <trkpt lat="45.63564" lon="2.90844">
        <ele>1095.56</ele>
        <time>2021-08-14T19:47:24Z</time>
      </trkpt>
      <trkpt lat="45.63574" lon="2.90876">
        <ele>1095.56</ele>
        <time>2021-08-14T19:47:31Z</time>
      </trkpt>
      <trkpt lat="45.63589" lon="2.90917">
        <ele>1095.56</ele>
        <time>2021-08-14T19:47:40Z</time>
      </trkpt>
      <trkpt lat="45.63597" lon="2.90937">
        <ele>1095.56</ele>
        <time>2021-08-14T19:47:44Z</time>
      </trkpt>
      <trkpt lat="45.63598" lon="2.90941">
        <ele>1095.56</ele>
        <time>2021-08-14T19:47:45Z</time>
      </trkpt>
      <trkpt lat="45.636" lon="2.90947">
        <ele>1095.56</ele>
        <time>2021-08-14T19:47:46Z</time>
      </trkpt>
      <trkpt lat="45.63601" lon="2.90951">
        <ele>1095.56</ele>
        <time>2021-08-14T19:47:47Z</time>
      </trkpt>
      <trkpt lat="45.63602" lon="2.90956">
        <ele>1095.56</ele>
        <time>2021-08-14T19:47:48Z</time>
      </trkpt>
      <trkpt lat="45.63604" lon="2.90961">
        <ele>1095.56</ele>
        <time>2021-08-14T19:47:49Z</time>
      </trkpt>
      <trkpt lat="45.63605" lon="2.90965">
        <ele>1096.52</ele>
        <time>2021-08-14T19:47:50Z</time>
      </trkpt>
      <trkpt lat="45.63606" lon="2.90969">
        <ele>1096.52</ele>
        <time>2021-08-14T19:47:51Z</time>
      </trkpt>
      <trkpt lat="45.63616" lon="2.90992">
        <ele>1097.48</ele>
        <time>2021-08-14T19:47:57Z</time>
      </trkpt>
      <trkpt lat="45.63625" lon="2.9102">
        <ele>1097.48</ele>
        <time>2021-08-14T19:48:04Z</time>
      </trkpt>
      <trkpt lat="45.63634" lon="2.91047">
        <ele>1096.04</ele>
        <time>2021-08-14T19:48:09Z</time>
      </trkpt>
      <trkpt lat="45.63654" lon="2.91099">
        <ele>1095.08</ele>
        <time>2021-08-14T19:48:18Z</time>
      </trkpt>
      <trkpt lat="45.63656" lon="2.91105">
        <ele>1095.08</ele>
        <time>2021-08-14T19:48:19Z</time>
      </trkpt>
      <trkpt lat="45.63658" lon="2.9111">
        <ele>1094.6</ele>
        <time>2021-08-14T19:48:20Z</time>
      </trkpt>
      <trkpt lat="45.63677" lon="2.91163">
        <ele>1093.16</ele>
        <time>2021-08-14T19:48:29Z</time>
      </trkpt>
      <trkpt lat="45.63696" lon="2.91217">
        <ele>1091.23</ele>
        <time>2021-08-14T19:48:38Z</time>
      </trkpt>
      <trkpt lat="45.63702" lon="2.91235">
        <ele>1089.79</ele>
        <time>2021-08-14T19:48:41Z</time>
      </trkpt>
      <trkpt lat="45.63703" lon="2.91241">
        <ele>1089.79</ele>
        <time>2021-08-14T19:48:42Z</time>
      </trkpt>
      <trkpt lat="45.63711" lon="2.91262">
        <ele>1087.87</ele>
        <time>2021-08-14T19:48:45Z</time>
      </trkpt>
      <trkpt lat="45.63714" lon="2.91269">
        <ele>1087.39</ele>
        <time>2021-08-14T19:48:46Z</time>
      </trkpt>
      <trkpt lat="45.63726" lon="2.91303">
        <ele>1086.43</ele>
        <time>2021-08-14T19:48:50Z</time>
      </trkpt>
      <trkpt lat="45.63738" lon="2.91338">
        <ele>1084.5</ele>
        <time>2021-08-14T19:48:54Z</time>
      </trkpt>
      <trkpt lat="45.63749" lon="2.91373">
        <ele>1083.06</ele>
        <time>2021-08-14T19:48:58Z</time>
      </trkpt>
      <trkpt lat="45.63777" lon="2.91454">
        <ele>1082.58</ele>
        <time>2021-08-14T19:49:08Z</time>
      </trkpt>
      <trkpt lat="45.63797" lon="2.91509">
        <ele>1082.1</ele>
        <time>2021-08-14T19:49:16Z</time>
      </trkpt>
      <trkpt lat="45.6382" lon="2.91574">
        <ele>1082.1</ele>
        <time>2021-08-14T19:49:26Z</time>
      </trkpt>
      <trkpt lat="45.63845" lon="2.91646">
        <ele>1081.14</ele>
        <time>2021-08-14T19:49:36Z</time>
      </trkpt>
      <trkpt lat="45.63856" lon="2.91675">
        <ele>1079.7</ele>
        <time>2021-08-14T19:49:40Z</time>
      </trkpt>
      <trkpt lat="45.63858" lon="2.91681">
        <ele>1079.22</ele>
        <time>2021-08-14T19:49:41Z</time>
      </trkpt>
      <trkpt lat="45.63871" lon="2.91722">
        <ele>1075.85</ele>
        <time>2021-08-14T19:49:46Z</time>
      </trkpt>
      <trkpt lat="45.63874" lon="2.9173">
        <ele>1075.85</ele>
        <time>2021-08-14T19:49:47Z</time>
      </trkpt>
      <trkpt lat="45.63888" lon="2.91765">
        <ele>1072.97</ele>
        <time>2021-08-14T19:49:51Z</time>
      </trkpt>
      <trkpt lat="45.63902" lon="2.91804">
        <ele>1069.6</ele>
        <time>2021-08-14T19:49:56Z</time>
      </trkpt>
      <trkpt lat="45.6391" lon="2.91826">
        <ele>1066.72</ele>
        <time>2021-08-14T19:49:59Z</time>
      </trkpt>
      <trkpt lat="45.63912" lon="2.91834">
        <ele>1066.72</ele>
        <time>2021-08-14T19:50:00Z</time>
      </trkpt>
      <trkpt lat="45.63922" lon="2.91863">
        <ele>1064.32</ele>
        <time>2021-08-14T19:50:04Z</time>
      </trkpt>
      <trkpt lat="45.63934" lon="2.91906">
        <ele>1061.43</ele>
        <time>2021-08-14T19:50:10Z</time>
      </trkpt>
      <trkpt lat="45.63951" lon="2.91952">
        <ele>1059.51</ele>
        <time>2021-08-14T19:50:17Z</time>
      </trkpt>
      <trkpt lat="45.63957" lon="2.9197">
        <ele>1059.03</ele>
        <time>2021-08-14T19:50:20Z</time>
      </trkpt>
      <trkpt lat="45.63974" lon="2.92016">
        <ele>1057.11</ele>
        <time>2021-08-14T19:50:28Z</time>
      </trkpt>
      <trkpt lat="45.63973" lon="2.92025">
        <ele>1056.63</ele>
        <time>2021-08-14T19:50:30Z</time>
      </trkpt>
      <trkpt lat="45.63965" lon="2.92038">
        <ele>1056.63</ele>
        <time>2021-08-14T19:50:35Z</time>
      </trkpt>
      <trkpt lat="45.63954" lon="2.92041">
        <ele>1056.63</ele>
        <time>2021-08-14T19:50:38Z</time>
      </trkpt>
      <trkpt lat="45.63941" lon="2.92046">
        <ele>1055.67</ele>
        <time>2021-08-14T19:50:42Z</time>
      </trkpt>
      <trkpt lat="45.63919" lon="2.92054">
        <ele>1054.7</ele>
        <time>2021-08-14T19:50:47Z</time>
      </trkpt>
      <trkpt lat="45.63906" lon="2.92056">
        <ele>1053.74</ele>
        <time>2021-08-14T19:50:50Z</time>
      </trkpt>
      <trkpt lat="45.63902" lon="2.92055">
        <ele>1053.26</ele>
        <time>2021-08-14T19:50:51Z</time>
      </trkpt>
      <trkpt lat="45.63897" lon="2.92053">
        <ele>1053.26</ele>
        <time>2021-08-14T19:50:52Z</time>
      </trkpt>
      <trkpt lat="45.63893" lon="2.9205">
        <ele>1052.78</ele>
        <time>2021-08-14T19:50:53Z</time>
      </trkpt>
      <trkpt lat="45.63889" lon="2.92048">
        <ele>1052.78</ele>
        <time>2021-08-14T19:50:54Z</time>
      </trkpt>
      <trkpt lat="45.63885" lon="2.92044">
        <ele>1052.78</ele>
        <time>2021-08-14T19:50:55Z</time>
      </trkpt>
      <trkpt lat="45.63881" lon="2.92039">
        <ele>1052.3</ele>
        <time>2021-08-14T19:50:56Z</time>
      </trkpt>
      <trkpt lat="45.63877" lon="2.92034">
        <ele>1051.82</ele>
        <time>2021-08-14T19:50:57Z</time>
      </trkpt>
      <trkpt lat="45.63846" lon="2.92002">
        <ele>1049.9</ele>
        <time>2021-08-14T19:51:03Z</time>
      </trkpt>
      <trkpt lat="45.63836" lon="2.91994">
        <ele>1049.9</ele>
        <time>2021-08-14T19:51:05Z</time>
      </trkpt>
      <trkpt lat="45.63831" lon="2.91991">
        <ele>1049.9</ele>
        <time>2021-08-14T19:51:06Z</time>
      </trkpt>
      <trkpt lat="45.63826" lon="2.91989">
        <ele>1049.9</ele>
        <time>2021-08-14T19:51:07Z</time>
      </trkpt>
      <trkpt lat="45.63821" lon="2.91988">
        <ele>1049.9</ele>
        <time>2021-08-14T19:51:08Z</time>
      </trkpt>
      <trkpt lat="45.63816" lon="2.91988">
        <ele>1049.9</ele>
        <time>2021-08-14T19:51:09Z</time>
      </trkpt>
      <trkpt lat="45.63811" lon="2.91988">
        <ele>1049.9</ele>
        <time>2021-08-14T19:51:10Z</time>
      </trkpt>
      <trkpt lat="45.63773" lon="2.91996">
        <ele>1049.9</ele>
        <time>2021-08-14T19:51:18Z</time>
      </trkpt>
      <trkpt lat="45.63729" lon="2.91998">
        <ele>1049.42</ele>
        <time>2021-08-14T19:51:28Z</time>
      </trkpt>
      <trkpt lat="45.6372" lon="2.91994">
        <ele>1049.42</ele>
        <time>2021-08-14T19:51:30Z</time>
      </trkpt>
      <trkpt lat="45.63716" lon="2.91992">
        <ele>1049.42</ele>
        <time>2021-08-14T19:51:31Z</time>
      </trkpt>
      <trkpt lat="45.63711" lon="2.91988">
        <ele>1048.94</ele>
        <time>2021-08-14T19:51:32Z</time>
      </trkpt>
      <trkpt lat="45.63707" lon="2.91983">
        <ele>1048.94</ele>
        <time>2021-08-14T19:51:33Z</time>
      </trkpt>
      <trkpt lat="45.63702" lon="2.91979">
        <ele>1047.97</ele>
        <time>2021-08-14T19:51:34Z</time>
      </trkpt>
      <trkpt lat="45.63683" lon="2.9196">
        <ele>1046.05</ele>
        <time>2021-08-14T19:51:38Z</time>
      </trkpt>
      <trkpt lat="45.63656" lon="2.91932">
        <ele>1043.17</ele>
        <time>2021-08-14T19:51:43Z</time>
      </trkpt>
      <trkpt lat="45.63625" lon="2.91903">
        <ele>1039.32</ele>
        <time>2021-08-14T19:51:48Z</time>
      </trkpt>
      <trkpt lat="45.63593" lon="2.91877">
        <ele>1035.96</ele>
        <time>2021-08-14T19:51:53Z</time>
      </trkpt>
      <trkpt lat="45.63562" lon="2.91857">
        <ele>1034.52</ele>
        <time>2021-08-14T19:51:59Z</time>
      </trkpt>
      <trkpt lat="45.63552" lon="2.91853">
        <ele>1033.55</ele>
        <time>2021-08-14T19:52:01Z</time>
      </trkpt>
      <trkpt lat="45.63548" lon="2.91853">
        <ele>1033.55</ele>
        <time>2021-08-14T19:52:02Z</time>
      </trkpt>
      <trkpt lat="45.63545" lon="2.91853">
        <ele>1033.55</ele>
        <time>2021-08-14T19:52:03Z</time>
      </trkpt>
      <trkpt lat="45.63543" lon="2.91854">
        <ele>1033.55</ele>
        <time>2021-08-14T19:52:04Z</time>
      </trkpt>
      <trkpt lat="45.6354" lon="2.91856">
        <ele>1033.55</ele>
        <time>2021-08-14T19:52:05Z</time>
      </trkpt>
      <trkpt lat="45.63538" lon="2.91858">
        <ele>1033.55</ele>
        <time>2021-08-14T19:52:06Z</time>
      </trkpt>
      <trkpt lat="45.63536" lon="2.91861">
        <ele>1033.55</ele>
        <time>2021-08-14T19:52:07Z</time>
      </trkpt>
      <trkpt lat="45.63534" lon="2.91864">
        <ele>1033.55</ele>
        <time>2021-08-14T19:52:08Z</time>
      </trkpt>
      <trkpt lat="45.63522" lon="2.91899">
        <ele>1033.55</ele>
        <time>2021-08-14T19:52:16Z</time>
      </trkpt>
      <trkpt lat="45.63518" lon="2.91935">
        <ele>1033.55</ele>
        <time>2021-08-14T19:52:24Z</time>
      </trkpt>
      <trkpt lat="45.63517" lon="2.91942">
        <ele>1035</ele>
        <time>2021-08-14T19:52:26Z</time>
      </trkpt>
      <trkpt lat="45.63513" lon="2.9197">
        <ele>1035.96</ele>
        <time>2021-08-14T19:52:35Z</time>
      </trkpt>
      <trkpt lat="45.63508" lon="2.91985">
        <ele>1036.92</ele>
        <time>2021-08-14T19:52:42Z</time>
      </trkpt>
      <trkpt lat="45.63501" lon="2.92006">
        <ele>1037.88</ele>
        <time>2021-08-14T19:52:53Z</time>
      </trkpt>
      <trkpt lat="45.63496" lon="2.9202">
        <ele>1039.32</ele>
        <time>2021-08-14T19:53:01Z</time>
      </trkpt>
      <trkpt lat="45.63495" lon="2.92021">
        <ele>1039.32</ele>
        <time>2021-08-14T19:53:02Z</time>
      </trkpt>
      <trkpt lat="45.63494" lon="2.92023">
        <ele>1039.32</ele>
        <time>2021-08-14T19:53:03Z</time>
      </trkpt>
      <trkpt lat="45.63493" lon="2.92025">
        <ele>1039.32</ele>
        <time>2021-08-14T19:53:04Z</time>
      </trkpt>
      <trkpt lat="45.63493" lon="2.92026">
        <ele>1040.28</ele>
        <time>2021-08-14T19:53:05Z</time>
      </trkpt>
      <trkpt lat="45.63492" lon="2.92028">
        <ele>1040.28</ele>
        <time>2021-08-14T19:53:06Z</time>
      </trkpt>
      <trkpt lat="45.63492" lon="2.92029">
        <ele>1040.28</ele>
        <time>2021-08-14T19:53:07Z</time>
      </trkpt>
      <trkpt lat="45.63491" lon="2.92031">
        <ele>1040.28</ele>
        <time>2021-08-14T19:53:08Z</time>
      </trkpt>
      <trkpt lat="45.63487" lon="2.92043">
        <ele>1040.76</ele>
        <time>2021-08-14T19:53:16Z</time>
      </trkpt>
      <trkpt lat="45.63482" lon="2.92058">
        <ele>1042.21</ele>
        <time>2021-08-14T19:53:25Z</time>
      </trkpt>
      <trkpt lat="45.63477" lon="2.92074">
        <ele>1043.65</ele>
        <time>2021-08-14T19:53:34Z</time>
      </trkpt>
      <trkpt lat="45.63476" lon="2.92079">
        <ele>1043.65</ele>
        <time>2021-08-14T19:53:37Z</time>
      </trkpt>
      <trkpt lat="45.63475" lon="2.9208">
        <ele>1044.13</ele>
        <time>2021-08-14T19:53:38Z</time>
      </trkpt>
      <trkpt lat="45.63475" lon="2.92082">
        <ele>1044.13</ele>
        <time>2021-08-14T19:53:39Z</time>
      </trkpt>
      <trkpt lat="45.63474" lon="2.92083">
        <ele>1044.13</ele>
        <time>2021-08-14T19:53:40Z</time>
      </trkpt>
      <trkpt lat="45.63474" lon="2.92085">
        <ele>1044.13</ele>
        <time>2021-08-14T19:53:41Z</time>
      </trkpt>
      <trkpt lat="45.63473" lon="2.92086">
        <ele>1044.13</ele>
        <time>2021-08-14T19:53:42Z</time>
      </trkpt>
      <trkpt lat="45.63473" lon="2.92088">
        <ele>1044.61</ele>
        <time>2021-08-14T19:53:43Z</time>
      </trkpt>
      <trkpt lat="45.6347" lon="2.92098">
        <ele>1045.09</ele>
        <time>2021-08-14T19:53:50Z</time>
      </trkpt>
      <trkpt lat="45.63464" lon="2.92112">
        <ele>1046.05</ele>
        <time>2021-08-14T19:53:59Z</time>
      </trkpt>
      <trkpt lat="45.63462" lon="2.9212">
        <ele>1046.53</ele>
        <time>2021-08-14T19:54:03Z</time>
      </trkpt>
      <trkpt lat="45.63462" lon="2.92121">
        <ele>1046.53</ele>
        <time>2021-08-14T19:54:04Z</time>
      </trkpt>
      <trkpt lat="45.63461" lon="2.92123">
        <ele>1046.53</ele>
        <time>2021-08-14T19:54:05Z</time>
      </trkpt>
      <trkpt lat="45.63458" lon="2.92136">
        <ele>1047.49</ele>
        <time>2021-08-14T19:54:12Z</time>
      </trkpt>
      <trkpt lat="45.63451" lon="2.92152">
        <ele>1048.94</ele>
        <time>2021-08-14T19:54:22Z</time>
      </trkpt>
      <trkpt lat="45.63446" lon="2.92159">
        <ele>1049.42</ele>
        <time>2021-08-14T19:54:29Z</time>
      </trkpt>
      <trkpt lat="45.6344" lon="2.92169">
        <ele>1051.34</ele>
        <time>2021-08-14T19:54:39Z</time>
      </trkpt>
      <trkpt lat="45.63435" lon="2.92181">
        <ele>1051.82</ele>
        <time>2021-08-14T19:54:48Z</time>
      </trkpt>
      <trkpt lat="45.63431" lon="2.92194">
        <ele>1053.26</ele>
        <time>2021-08-14T19:54:58Z</time>
      </trkpt>
      <trkpt lat="45.63426" lon="2.9221">
        <ele>1054.22</ele>
        <time>2021-08-14T19:55:10Z</time>
      </trkpt>
      <trkpt lat="45.63425" lon="2.92218">
        <ele>1055.18</ele>
        <time>2021-08-14T19:55:18Z</time>
      </trkpt>
      <trkpt lat="45.63425" lon="2.92219">
        <ele>1055.67</ele>
        <time>2021-08-14T19:55:30Z</time>
      </trkpt>
      <trkpt lat="45.63424" lon="2.92223">
        <ele>1055.67</ele>
        <time>2021-08-14T19:55:33Z</time>
      </trkpt>
      <trkpt lat="45.63423" lon="2.92224">
        <ele>1055.67</ele>
        <time>2021-08-14T19:55:34Z</time>
      </trkpt>
      <trkpt lat="45.63422" lon="2.92229">
        <ele>1056.15</ele>
        <time>2021-08-14T19:55:37Z</time>
      </trkpt>
      <trkpt lat="45.63422" lon="2.92231">
        <ele>1056.15</ele>
        <time>2021-08-14T19:55:38Z</time>
      </trkpt>
      <trkpt lat="45.63421" lon="2.92236">
        <ele>1056.63</ele>
        <time>2021-08-14T19:55:42Z</time>
      </trkpt>
      <trkpt lat="45.63417" lon="2.92241">
        <ele>1057.11</ele>
        <time>2021-08-14T19:55:48Z</time>
      </trkpt>
      <trkpt lat="45.63411" lon="2.92253">
        <ele>1058.07</ele>
        <time>2021-08-14T19:55:58Z</time>
      </trkpt>
      <trkpt lat="45.63405" lon="2.92268">
        <ele>1059.03</ele>
        <time>2021-08-14T19:56:10Z</time>
      </trkpt>
      <trkpt lat="45.63401" lon="2.9228">
        <ele>1059.99</ele>
        <time>2021-08-14T19:56:20Z</time>
      </trkpt>
      <trkpt lat="45.63398" lon="2.9229">
        <ele>1060.95</ele>
        <time>2021-08-14T19:56:29Z</time>
      </trkpt>
      <trkpt lat="45.63395" lon="2.92299">
        <ele>1061.91</ele>
        <time>2021-08-14T19:56:37Z</time>
      </trkpt>
      <trkpt lat="45.63393" lon="2.92309">
        <ele>1062.87</ele>
        <time>2021-08-14T19:56:46Z</time>
      </trkpt>
      <trkpt lat="45.63389" lon="2.92318">
        <ele>1064.32</ele>
        <time>2021-08-14T19:56:55Z</time>
      </trkpt>
      <trkpt lat="45.63386" lon="2.92326">
        <ele>1064.8</ele>
        <time>2021-08-14T19:57:04Z</time>
      </trkpt>
      <trkpt lat="45.63382" lon="2.92336">
        <ele>1066.24</ele>
        <time>2021-08-14T19:57:15Z</time>
      </trkpt>
      <trkpt lat="45.63377" lon="2.92341">
        <ele>1066.72</ele>
        <time>2021-08-14T19:57:23Z</time>
      </trkpt>
      <trkpt lat="45.63371" lon="2.92348">
        <ele>1068.16</ele>
        <time>2021-08-14T19:57:32Z</time>
      </trkpt>
      <trkpt lat="45.63363" lon="2.92355">
        <ele>1069.12</ele>
        <time>2021-08-14T19:57:43Z</time>
      </trkpt>
      <trkpt lat="45.63362" lon="2.92356">
        <ele>1069.12</ele>
        <time>2021-08-14T19:57:45Z</time>
      </trkpt>
      <trkpt lat="45.63356" lon="2.92362">
        <ele>1070.08</ele>
        <time>2021-08-14T19:57:54Z</time>
      </trkpt>
      <trkpt lat="45.63349" lon="2.92368">
        <ele>1071.53</ele>
        <time>2021-08-14T19:58:04Z</time>
      </trkpt>
      <trkpt lat="45.63347" lon="2.9237">
        <ele>1071.53</ele>
        <time>2021-08-14T19:58:06Z</time>
      </trkpt>
      <trkpt lat="45.63345" lon="2.92373">
        <ele>1071.05</ele>
        <time>2021-08-14T19:58:13Z</time>
      </trkpt>
      <trkpt lat="45.63342" lon="2.92377">
        <ele>1071.53</ele>
        <time>2021-08-14T19:58:21Z</time>
      </trkpt>
      <trkpt lat="45.63333" lon="2.92387">
        <ele>1072.49</ele>
        <time>2021-08-14T19:58:30Z</time>
      </trkpt>
      <trkpt lat="45.63332" lon="2.92388">
        <ele>1072.49</ele>
        <time>2021-08-14T19:58:31Z</time>
      </trkpt>
      <trkpt lat="45.63331" lon="2.92389">
        <ele>1072.97</ele>
        <time>2021-08-14T19:58:32Z</time>
      </trkpt>
      <trkpt lat="45.6333" lon="2.9239">
        <ele>1072.97</ele>
        <time>2021-08-14T19:58:33Z</time>
      </trkpt>
      <trkpt lat="45.63329" lon="2.9239">
        <ele>1072.97</ele>
        <time>2021-08-14T19:58:34Z</time>
      </trkpt>
      <trkpt lat="45.63328" lon="2.92391">
        <ele>1072.97</ele>
        <time>2021-08-14T19:58:35Z</time>
      </trkpt>
      <trkpt lat="45.63327" lon="2.92392">
        <ele>1072.97</ele>
        <time>2021-08-14T19:58:36Z</time>
      </trkpt>
      <trkpt lat="45.63326" lon="2.92393">
        <ele>1072.97</ele>
        <time>2021-08-14T19:58:37Z</time>
      </trkpt>
      <trkpt lat="45.63325" lon="2.92394">
        <ele>1072.97</ele>
        <time>2021-08-14T19:58:38Z</time>
      </trkpt>
      <trkpt lat="45.63324" lon="2.92396">
        <ele>1073.45</ele>
        <time>2021-08-14T19:58:39Z</time>
      </trkpt>
      <trkpt lat="45.63323" lon="2.92398">
        <ele>1073.93</ele>
        <time>2021-08-14T19:58:40Z</time>
      </trkpt>
      <trkpt lat="45.63322" lon="2.92399">
        <ele>1073.93</ele>
        <time>2021-08-14T19:58:41Z</time>
      </trkpt>
      <trkpt lat="45.63321" lon="2.924">
        <ele>1073.93</ele>
        <time>2021-08-14T19:58:42Z</time>
      </trkpt>
      <trkpt lat="45.6332" lon="2.92401">
        <ele>1073.93</ele>
        <time>2021-08-14T19:58:43Z</time>
      </trkpt>
      <trkpt lat="45.63319" lon="2.92402">
        <ele>1073.93</ele>
        <time>2021-08-14T19:58:44Z</time>
      </trkpt>
      <trkpt lat="45.63318" lon="2.92402">
        <ele>1073.93</ele>
        <time>2021-08-14T19:58:45Z</time>
      </trkpt>
      <trkpt lat="45.63316" lon="2.92403">
        <ele>1074.41</ele>
        <time>2021-08-14T19:58:46Z</time>
      </trkpt>
      <trkpt lat="45.63307" lon="2.92413">
        <ele>1075.37</ele>
        <time>2021-08-14T19:58:55Z</time>
      </trkpt>
      <trkpt lat="45.63299" lon="2.92421">
        <ele>1075.85</ele>
        <time>2021-08-14T19:59:03Z</time>
      </trkpt>
      <trkpt lat="45.63295" lon="2.92424">
        <ele>1076.33</ele>
        <time>2021-08-14T19:59:07Z</time>
      </trkpt>
      <trkpt lat="45.63293" lon="2.92425">
        <ele>1076.33</ele>
        <time>2021-08-14T19:59:08Z</time>
      </trkpt>
      <trkpt lat="45.63292" lon="2.92425">
        <ele>1076.33</ele>
        <time>2021-08-14T19:59:09Z</time>
      </trkpt>
      <trkpt lat="45.63291" lon="2.92426">
        <ele>1076.33</ele>
        <time>2021-08-14T19:59:10Z</time>
      </trkpt>
      <trkpt lat="45.63285" lon="2.92432">
        <ele>1077.78</ele>
        <time>2021-08-14T19:59:16Z</time>
      </trkpt>
      <trkpt lat="45.63273" lon="2.92445">
        <ele>1078.26</ele>
        <time>2021-08-14T19:59:26Z</time>
      </trkpt>
      <trkpt lat="45.63272" lon="2.92447">
        <ele>1078.26</ele>
        <time>2021-08-14T19:59:27Z</time>
      </trkpt>
      <trkpt lat="45.6327" lon="2.92448">
        <ele>1078.26</ele>
        <time>2021-08-14T19:59:28Z</time>
      </trkpt>
      <trkpt lat="45.63269" lon="2.92449">
        <ele>1078.26</ele>
        <time>2021-08-14T19:59:29Z</time>
      </trkpt>
      <trkpt lat="45.63268" lon="2.92451">
        <ele>1078.26</ele>
        <time>2021-08-14T19:59:30Z</time>
      </trkpt>
      <trkpt lat="45.63267" lon="2.92452">
        <ele>1078.74</ele>
        <time>2021-08-14T19:59:31Z</time>
      </trkpt>
      <trkpt lat="45.63265" lon="2.92453">
        <ele>1078.74</ele>
        <time>2021-08-14T19:59:32Z</time>
      </trkpt>
      <trkpt lat="45.63264" lon="2.92454">
        <ele>1078.74</ele>
        <time>2021-08-14T19:59:33Z</time>
      </trkpt>
      <trkpt lat="45.63263" lon="2.92455">
        <ele>1078.74</ele>
        <time>2021-08-14T19:59:34Z</time>
      </trkpt>
      <trkpt lat="45.63262" lon="2.92456">
        <ele>1079.22</ele>
        <time>2021-08-14T19:59:35Z</time>
      </trkpt>
      <trkpt lat="45.6326" lon="2.92458">
        <ele>1079.22</ele>
        <time>2021-08-14T19:59:36Z</time>
      </trkpt>
      <trkpt lat="45.63259" lon="2.92459">
        <ele>1079.22</ele>
        <time>2021-08-14T19:59:37Z</time>
      </trkpt>
      <trkpt lat="45.63258" lon="2.9246">
        <ele>1079.22</ele>
        <time>2021-08-14T19:59:38Z</time>
      </trkpt>
      <trkpt lat="45.63257" lon="2.92461">
        <ele>1079.7</ele>
        <time>2021-08-14T19:59:39Z</time>
      </trkpt>
      <trkpt lat="45.63256" lon="2.92462">
        <ele>1079.7</ele>
        <time>2021-08-14T19:59:40Z</time>
      </trkpt>
      <trkpt lat="45.63254" lon="2.92464">
        <ele>1079.7</ele>
        <time>2021-08-14T19:59:41Z</time>
      </trkpt>
      <trkpt lat="45.63241" lon="2.92474">
        <ele>1081.14</ele>
        <time>2021-08-14T19:59:52Z</time>
      </trkpt>
      <trkpt lat="45.63238" lon="2.92475">
        <ele>1081.14</ele>
        <time>2021-08-14T19:59:55Z</time>
      </trkpt>
      <trkpt lat="45.63236" lon="2.92476">
        <ele>1081.14</ele>
        <time>2021-08-14T19:59:56Z</time>
      </trkpt>
      <trkpt lat="45.63235" lon="2.92475">
        <ele>1081.62</ele>
        <time>2021-08-14T19:59:57Z</time>
      </trkpt>
      <trkpt lat="45.63234" lon="2.92474">
        <ele>1081.62</ele>
        <time>2021-08-14T19:59:58Z</time>
      </trkpt>
      <trkpt lat="45.63233" lon="2.92473">
        <ele>1081.62</ele>
        <time>2021-08-14T19:59:59Z</time>
      </trkpt>
      <trkpt lat="45.63232" lon="2.92472">
        <ele>1081.62</ele>
        <time>2021-08-14T20:00:00Z</time>
      </trkpt>
      <trkpt lat="45.6323" lon="2.92471">
        <ele>1081.62</ele>
        <time>2021-08-14T20:00:01Z</time>
      </trkpt>
      <trkpt lat="45.63229" lon="2.92471">
        <ele>1081.62</ele>
        <time>2021-08-14T20:00:02Z</time>
      </trkpt>
      <trkpt lat="45.63227" lon="2.92471">
        <ele>1082.1</ele>
        <time>2021-08-14T20:00:03Z</time>
      </trkpt>
      <trkpt lat="45.63226" lon="2.92472">
        <ele>1082.1</ele>
        <time>2021-08-14T20:00:04Z</time>
      </trkpt>
      <trkpt lat="45.63225" lon="2.92473">
        <ele>1082.1</ele>
        <time>2021-08-14T20:00:05Z</time>
      </trkpt>
      <trkpt lat="45.63219" lon="2.92477">
        <ele>1082.1</ele>
        <time>2021-08-14T20:00:08Z</time>
      </trkpt>
      <trkpt lat="45.63218" lon="2.92478">
        <ele>1082.1</ele>
        <time>2021-08-14T20:00:09Z</time>
      </trkpt>
      <trkpt lat="45.63216" lon="2.9248">
        <ele>1082.1</ele>
        <time>2021-08-14T20:00:10Z</time>
      </trkpt>
      <trkpt lat="45.63214" lon="2.9248">
        <ele>1082.1</ele>
        <time>2021-08-14T20:00:11Z</time>
      </trkpt>
      <trkpt lat="45.63212" lon="2.92481">
        <ele>1082.58</ele>
        <time>2021-08-14T20:00:12Z</time>
      </trkpt>
      <trkpt lat="45.6321" lon="2.92481">
        <ele>1082.58</ele>
        <time>2021-08-14T20:00:13Z</time>
      </trkpt>
      <trkpt lat="45.63208" lon="2.92481">
        <ele>1082.58</ele>
        <time>2021-08-14T20:00:14Z</time>
      </trkpt>
      <trkpt lat="45.63206" lon="2.92482">
        <ele>1083.06</ele>
        <time>2021-08-14T20:00:15Z</time>
      </trkpt>
      <trkpt lat="45.63204" lon="2.92482">
        <ele>1083.06</ele>
        <time>2021-08-14T20:00:16Z</time>
      </trkpt>
      <trkpt lat="45.63181" lon="2.92487">
        <ele>1084.5</ele>
        <time>2021-08-14T20:00:25Z</time>
      </trkpt>
      <trkpt lat="45.63159" lon="2.92493">
        <ele>1084.99</ele>
        <time>2021-08-14T20:00:33Z</time>
      </trkpt>
      <trkpt lat="45.63149" lon="2.92494">
        <ele>1085.47</ele>
        <time>2021-08-14T20:00:36Z</time>
      </trkpt>
      <trkpt lat="45.63145" lon="2.92494">
        <ele>1085.47</ele>
        <time>2021-08-14T20:00:37Z</time>
      </trkpt>
      <trkpt lat="45.63131" lon="2.92499">
        <ele>1085.47</ele>
        <time>2021-08-14T20:00:42Z</time>
      </trkpt>
      <trkpt lat="45.63128" lon="2.925">
        <ele>1085.47</ele>
        <time>2021-08-14T20:00:43Z</time>
      </trkpt>
      <trkpt lat="45.63103" lon="2.92507">
        <ele>1085.47</ele>
        <time>2021-08-14T20:00:52Z</time>
      </trkpt>
      <trkpt lat="45.63086" lon="2.92512">
        <ele>1086.43</ele>
        <time>2021-08-14T20:00:59Z</time>
      </trkpt>
      <trkpt lat="45.63066" lon="2.92516">
        <ele>1085.95</ele>
        <time>2021-08-14T20:01:07Z</time>
      </trkpt>
      <trkpt lat="45.63043" lon="2.92522">
        <ele>1085.95</ele>
        <time>2021-08-14T20:01:17Z</time>
      </trkpt>
      <trkpt lat="45.63031" lon="2.92522">
        <ele>1085.95</ele>
        <time>2021-08-14T20:01:23Z</time>
      </trkpt>
      <trkpt lat="45.63029" lon="2.92523">
        <ele>1085.95</ele>
        <time>2021-08-14T20:01:28Z</time>
      </trkpt>
      <trkpt lat="45.63027" lon="2.92526">
        <ele>1085.95</ele>
        <time>2021-08-14T20:01:31Z</time>
      </trkpt>
      <trkpt lat="45.63026" lon="2.92527">
        <ele>1085.95</ele>
        <time>2021-08-14T20:01:32Z</time>
      </trkpt>
      <trkpt lat="45.63024" lon="2.92529">
        <ele>1085.95</ele>
        <time>2021-08-14T20:01:33Z</time>
      </trkpt>
      <trkpt lat="45.63022" lon="2.9253">
        <ele>1085.95</ele>
        <time>2021-08-14T20:01:34Z</time>
      </trkpt>
      <trkpt lat="45.63018" lon="2.92531">
        <ele>1085.95</ele>
        <time>2021-08-14T20:01:35Z</time>
      </trkpt>
      <trkpt lat="45.62991" lon="2.92537">
        <ele>1085.95</ele>
        <time>2021-08-14T20:01:43Z</time>
      </trkpt>
      <trkpt lat="45.62968" lon="2.92541">
        <ele>1085.95</ele>
        <time>2021-08-14T20:01:50Z</time>
      </trkpt>
      <trkpt lat="45.62942" lon="2.9255">
        <ele>1085.95</ele>
        <time>2021-08-14T20:01:57Z</time>
      </trkpt>
      <trkpt lat="45.62917" lon="2.92557">
        <ele>1085.95</ele>
        <time>2021-08-14T20:02:04Z</time>
      </trkpt>
      <trkpt lat="45.62884" lon="2.92565">
        <ele>1085.95</ele>
        <time>2021-08-14T20:02:13Z</time>
      </trkpt>
      <trkpt lat="45.62855" lon="2.92573">
        <ele>1085.95</ele>
        <time>2021-08-14T20:02:21Z</time>
      </trkpt>
      <trkpt lat="45.62826" lon="2.92581">
        <ele>1086.43</ele>
        <time>2021-08-14T20:02:29Z</time>
      </trkpt>
      <trkpt lat="45.62789" lon="2.92589">
        <ele>1086.91</ele>
        <time>2021-08-14T20:02:38Z</time>
      </trkpt>
      <trkpt lat="45.62766" lon="2.92594">
        <ele>1084.99</ele>
        <time>2021-08-14T20:02:43Z</time>
      </trkpt>
      <trkpt lat="45.6274" lon="2.92601">
        <ele>1081.62</ele>
        <time>2021-08-14T20:02:48Z</time>
      </trkpt>
      <trkpt lat="45.6273" lon="2.92605">
        <ele>1080.18</ele>
        <time>2021-08-14T20:02:50Z</time>
      </trkpt>
      <trkpt lat="45.62714" lon="2.92616">
        <ele>1077.78</ele>
        <time>2021-08-14T20:02:56Z</time>
      </trkpt>
      <trkpt lat="45.62711" lon="2.92618">
        <ele>1077.78</ele>
        <time>2021-08-14T20:02:57Z</time>
      </trkpt>
      <trkpt lat="45.62707" lon="2.9262">
        <ele>1076.33</ele>
        <time>2021-08-14T20:02:58Z</time>
      </trkpt>
      <trkpt lat="45.62702" lon="2.92621">
        <ele>1075.85</ele>
        <time>2021-08-14T20:02:59Z</time>
      </trkpt>
      <trkpt lat="45.62697" lon="2.92622">
        <ele>1074.89</ele>
        <time>2021-08-14T20:03:00Z</time>
      </trkpt>
      <trkpt lat="45.62692" lon="2.92625">
        <ele>1074.41</ele>
        <time>2021-08-14T20:03:01Z</time>
      </trkpt>
      <trkpt lat="45.62687" lon="2.92628">
        <ele>1073.45</ele>
        <time>2021-08-14T20:03:02Z</time>
      </trkpt>
      <trkpt lat="45.62662" lon="2.9264">
        <ele>1070.08</ele>
        <time>2021-08-14T20:03:07Z</time>
      </trkpt>
      <trkpt lat="45.62639" lon="2.9265">
        <ele>1067.2</ele>
        <time>2021-08-14T20:03:12Z</time>
      </trkpt>
      <trkpt lat="45.62615" lon="2.92656">
        <ele>1065.76</ele>
        <time>2021-08-14T20:03:19Z</time>
      </trkpt>
      <trkpt lat="45.62613" lon="2.92655">
        <ele>1065.28</ele>
        <time>2021-08-14T20:03:20Z</time>
      </trkpt>
      <trkpt lat="45.62611" lon="2.92655">
        <ele>1065.28</ele>
        <time>2021-08-14T20:03:21Z</time>
      </trkpt>
      <trkpt lat="45.6261" lon="2.92657">
        <ele>1065.28</ele>
        <time>2021-08-14T20:03:22Z</time>
      </trkpt>
      <trkpt lat="45.62609" lon="2.92659">
        <ele>1065.76</ele>
        <time>2021-08-14T20:03:23Z</time>
      </trkpt>
      <trkpt lat="45.62607" lon="2.92662">
        <ele>1065.28</ele>
        <time>2021-08-14T20:03:24Z</time>
      </trkpt>
      <trkpt lat="45.62605" lon="2.92666">
        <ele>1065.28</ele>
        <time>2021-08-14T20:03:25Z</time>
      </trkpt>
      <trkpt lat="45.62603" lon="2.92669">
        <ele>1065.28</ele>
        <time>2021-08-14T20:03:26Z</time>
      </trkpt>
      <trkpt lat="45.62601" lon="2.92672">
        <ele>1065.28</ele>
        <time>2021-08-14T20:03:27Z</time>
      </trkpt>
      <trkpt lat="45.6258" lon="2.92702">
        <ele>1064.32</ele>
        <time>2021-08-14T20:03:35Z</time>
      </trkpt>
      <trkpt lat="45.62557" lon="2.92725">
        <ele>1063.84</ele>
        <time>2021-08-14T20:03:43Z</time>
      </trkpt>
      <trkpt lat="45.62528" lon="2.92739">
        <ele>1063.84</ele>
        <time>2021-08-14T20:03:51Z</time>
      </trkpt>
      <trkpt lat="45.62499" lon="2.92753">
        <ele>1063.84</ele>
        <time>2021-08-14T20:03:59Z</time>
      </trkpt>
      <trkpt lat="45.62485" lon="2.92765">
        <ele>1063.36</ele>
        <time>2021-08-14T20:04:03Z</time>
      </trkpt>
      <trkpt lat="45.62478" lon="2.92772">
        <ele>1063.36</ele>
        <time>2021-08-14T20:04:05Z</time>
      </trkpt>
      <trkpt lat="45.6245" lon="2.92802">
        <ele>1063.36</ele>
        <time>2021-08-14T20:04:14Z</time>
      </trkpt>
      <trkpt lat="45.62443" lon="2.92807">
        <ele>1063.36</ele>
        <time>2021-08-14T20:04:16Z</time>
      </trkpt>
      <trkpt lat="45.62439" lon="2.9281">
        <ele>1063.36</ele>
        <time>2021-08-14T20:04:17Z</time>
      </trkpt>
      <trkpt lat="45.62424" lon="2.92819">
        <ele>1062.87</ele>
        <time>2021-08-14T20:04:21Z</time>
      </trkpt>
      <trkpt lat="45.62413" lon="2.92828">
        <ele>1062.87</ele>
        <time>2021-08-14T20:04:24Z</time>
      </trkpt>
      <trkpt lat="45.6241" lon="2.92832">
        <ele>1062.39</ele>
        <time>2021-08-14T20:04:25Z</time>
      </trkpt>
      <trkpt lat="45.624" lon="2.92843">
        <ele>1061.91</ele>
        <time>2021-08-14T20:04:28Z</time>
      </trkpt>
      <trkpt lat="45.62377" lon="2.92871">
        <ele>1060.47</ele>
        <time>2021-08-14T20:04:36Z</time>
      </trkpt>
      <trkpt lat="45.62362" lon="2.92902">
        <ele>1059.03</ele>
        <time>2021-08-14T20:04:44Z</time>
      </trkpt>
      <trkpt lat="45.62361" lon="2.9292">
        <ele>1060.95</ele>
        <time>2021-08-14T20:04:50Z</time>
      </trkpt>
      <trkpt lat="45.62361" lon="2.92925">
        <ele>1060.95</ele>
        <time>2021-08-14T20:04:52Z</time>
      </trkpt>
      <trkpt lat="45.62361" lon="2.92928">
        <ele>1060.95</ele>
        <time>2021-08-14T20:04:53Z</time>
      </trkpt>
      <trkpt lat="45.6236" lon="2.92931">
        <ele>1060.95</ele>
        <time>2021-08-14T20:04:54Z</time>
      </trkpt>
      <trkpt lat="45.62352" lon="2.9296">
        <ele>1059.03</ele>
        <time>2021-08-14T20:05:00Z</time>
      </trkpt>
      <trkpt lat="45.62343" lon="2.92989">
        <ele>1058.07</ele>
        <time>2021-08-14T20:05:07Z</time>
      </trkpt>
      <trkpt lat="45.62338" lon="2.92993">
        <ele>1057.59</ele>
        <time>2021-08-14T20:05:10Z</time>
      </trkpt>
      <trkpt lat="45.62336" lon="2.92993">
        <ele>1057.59</ele>
        <time>2021-08-14T20:05:11Z</time>
      </trkpt>
      <trkpt lat="45.62335" lon="2.92993">
        <ele>1057.11</ele>
        <time>2021-08-14T20:05:12Z</time>
      </trkpt>
      <trkpt lat="45.62334" lon="2.92994">
        <ele>1057.11</ele>
        <time>2021-08-14T20:05:13Z</time>
      </trkpt>
      <trkpt lat="45.62334" lon="2.92994">
        <ele>1056.63</ele>
        <time>2021-08-14T20:05:19Z</time>
      </trkpt>
      <trkpt lat="45.62332" lon="2.92998">
        <ele>1056.63</ele>
        <time>2021-08-14T20:05:25Z</time>
      </trkpt>
      <trkpt lat="45.62332" lon="2.92999">
        <ele>1056.63</ele>
        <time>2021-08-14T20:05:26Z</time>
      </trkpt>
      <trkpt lat="45.62334" lon="2.93001">
        <ele>1056.63</ele>
        <time>2021-08-14T20:05:29Z</time>
      </trkpt>
      <trkpt lat="45.62334" lon="2.93004">
        <ele>1056.63</ele>
        <time>2021-08-14T20:05:30Z</time>
      </trkpt>
      <trkpt lat="45.62335" lon="2.93007">
        <ele>1056.63</ele>
        <time>2021-08-14T20:05:31Z</time>
      </trkpt>
      <trkpt lat="45.62334" lon="2.9301">
        <ele>1056.63</ele>
        <time>2021-08-14T20:05:32Z</time>
      </trkpt>
      <trkpt lat="45.62333" lon="2.93014">
        <ele>1056.63</ele>
        <time>2021-08-14T20:05:33Z</time>
      </trkpt>
      <trkpt lat="45.62332" lon="2.93017">
        <ele>1056.63</ele>
        <time>2021-08-14T20:05:34Z</time>
      </trkpt>
      <trkpt lat="45.6233" lon="2.9302">
        <ele>1056.63</ele>
        <time>2021-08-14T20:05:35Z</time>
      </trkpt>
      <trkpt lat="45.62328" lon="2.93024">
        <ele>1056.15</ele>
        <time>2021-08-14T20:05:36Z</time>
      </trkpt>
      <trkpt lat="45.62327" lon="2.93027">
        <ele>1056.15</ele>
        <time>2021-08-14T20:05:37Z</time>
      </trkpt>
      <trkpt lat="45.62326" lon="2.9303">
        <ele>1056.15</ele>
        <time>2021-08-14T20:05:38Z</time>
      </trkpt>
      <trkpt lat="45.62325" lon="2.93032">
        <ele>1055.67</ele>
        <time>2021-08-14T20:05:39Z</time>
      </trkpt>
      <trkpt lat="45.62323" lon="2.93034">
        <ele>1055.67</ele>
        <time>2021-08-14T20:05:40Z</time>
      </trkpt>
      <trkpt lat="45.62322" lon="2.93035">
        <ele>1055.18</ele>
        <time>2021-08-14T20:05:41Z</time>
      </trkpt>
      <trkpt lat="45.6232" lon="2.93035">
        <ele>1055.18</ele>
        <time>2021-08-14T20:05:42Z</time>
      </trkpt>
      <trkpt lat="45.62316" lon="2.93035">
        <ele>1054.7</ele>
        <time>2021-08-14T20:05:43Z</time>
      </trkpt>
      <trkpt lat="45.62313" lon="2.93035">
        <ele>1054.7</ele>
        <time>2021-08-14T20:05:44Z</time>
      </trkpt>
      <trkpt lat="45.6231" lon="2.93034">
        <ele>1054.22</ele>
        <time>2021-08-14T20:05:45Z</time>
      </trkpt>
      <trkpt lat="45.62289" lon="2.93026">
        <ele>1050.86</ele>
        <time>2021-08-14T20:05:51Z</time>
      </trkpt>
      <trkpt lat="45.62268" lon="2.93016">
        <ele>1047.97</ele>
        <time>2021-08-14T20:05:58Z</time>
      </trkpt>
      <trkpt lat="45.6226" lon="2.93006">
        <ele>1046.05</ele>
        <time>2021-08-14T20:06:04Z</time>
      </trkpt>
      <trkpt lat="45.6226" lon="2.93005">
        <ele>1046.53</ele>
        <time>2021-08-14T20:06:12Z</time>
      </trkpt>
      <trkpt lat="45.6226" lon="2.93007">
        <ele>1046.53</ele>
        <time>2021-08-14T20:06:23Z</time>
      </trkpt>
      <trkpt lat="45.6226" lon="2.93005">
        <ele>1046.53</ele>
        <time>2021-08-14T20:06:37Z</time>
      </trkpt>
      <trkpt lat="45.62258" lon="2.93006">
        <ele>1046.53</ele>
        <time>2021-08-14T20:06:45Z</time>
      </trkpt>
      <trkpt lat="45.62256" lon="2.93005">
        <ele>1046.53</ele>
        <time>2021-08-14T20:06:46Z</time>
      </trkpt>
      <trkpt lat="45.62254" lon="2.93004">
        <ele>1046.05</ele>
        <time>2021-08-14T20:06:47Z</time>
      </trkpt>
      <trkpt lat="45.62252" lon="2.93002">
        <ele>1045.57</ele>
        <time>2021-08-14T20:06:48Z</time>
      </trkpt>
      <trkpt lat="45.62249" lon="2.93">
        <ele>1045.57</ele>
        <time>2021-08-14T20:06:49Z</time>
      </trkpt>
      <trkpt lat="45.62245" lon="2.92998">
        <ele>1044.61</ele>
        <time>2021-08-14T20:06:50Z</time>
      </trkpt>
      <trkpt lat="45.62239" lon="2.92994">
        <ele>1043.65</ele>
        <time>2021-08-14T20:06:54Z</time>
      </trkpt>
      <trkpt lat="45.62238" lon="2.92994">
        <ele>1043.17</ele>
        <time>2021-08-14T20:07:00Z</time>
      </trkpt>
      <trkpt lat="45.62238" lon="2.92992">
        <ele>1042.69</ele>
        <time>2021-08-14T20:07:01Z</time>
      </trkpt>
      <trkpt lat="45.62239" lon="2.92991">
        <ele>1042.69</ele>
        <time>2021-08-14T20:07:02Z</time>
      </trkpt>
      <trkpt lat="45.62241" lon="2.92991">
        <ele>1042.69</ele>
        <time>2021-08-14T20:07:03Z</time>
      </trkpt>
      <trkpt lat="45.62243" lon="2.92993">
        <ele>1043.17</ele>
        <time>2021-08-14T20:07:08Z</time>
      </trkpt>
      <trkpt lat="45.62243" lon="2.92994">
        <ele>1043.17</ele>
        <time>2021-08-14T20:07:09Z</time>
      </trkpt>
      <trkpt lat="45.62244" lon="2.92995">
        <ele>1043.17</ele>
        <time>2021-08-14T20:07:10Z</time>
      </trkpt>
      <trkpt lat="45.62245" lon="2.92997">
        <ele>1043.17</ele>
        <time>2021-08-14T20:07:11Z</time>
      </trkpt>
      <trkpt lat="45.62246" lon="2.92998">
        <ele>1043.17</ele>
        <time>2021-08-14T20:07:12Z</time>
      </trkpt>
      <trkpt lat="45.62247" lon="2.92999">
        <ele>1044.61</ele>
        <time>2021-08-14T20:07:13Z</time>
      </trkpt>
      <trkpt lat="45.62249" lon="2.93">
        <ele>1044.61</ele>
        <time>2021-08-14T20:07:14Z</time>
      </trkpt>
      <trkpt lat="45.62258" lon="2.93006">
        <ele>1046.05</ele>
        <time>2021-08-14T20:07:22Z</time>
      </trkpt>
      <trkpt lat="45.62259" lon="2.93005">
        <ele>1046.05</ele>
        <time>2021-08-14T20:07:23Z</time>
      </trkpt>
      <trkpt lat="45.6226" lon="2.93004">
        <ele>1046.05</ele>
        <time>2021-08-14T20:07:24Z</time>
      </trkpt>
      <trkpt lat="45.62261" lon="2.93">
        <ele>1046.53</ele>
        <time>2021-08-14T20:07:27Z</time>
      </trkpt>
      <trkpt lat="45.62261" lon="2.92999">
        <ele>1047.01</ele>
        <time>2021-08-14T20:07:28Z</time>
      </trkpt>
      <trkpt lat="45.62261" lon="2.92997">
        <ele>1047.01</ele>
        <time>2021-08-14T20:07:29Z</time>
      </trkpt>
      <trkpt lat="45.62261" lon="2.92996">
        <ele>1047.49</ele>
        <time>2021-08-14T20:07:30Z</time>
      </trkpt>
      <trkpt lat="45.62261" lon="2.92994">
        <ele>1047.49</ele>
        <time>2021-08-14T20:07:31Z</time>
      </trkpt>
      <trkpt lat="45.62261" lon="2.92992">
        <ele>1047.49</ele>
        <time>2021-08-14T20:07:32Z</time>
      </trkpt>
      <trkpt lat="45.62261" lon="2.9299">
        <ele>1047.49</ele>
        <time>2021-08-14T20:07:33Z</time>
      </trkpt>
      <trkpt lat="45.62261" lon="2.92988">
        <ele>1047.01</ele>
        <time>2021-08-14T20:07:34Z</time>
      </trkpt>
      <trkpt lat="45.62261" lon="2.92986">
        <ele>1047.49</ele>
        <time>2021-08-14T20:07:35Z</time>
      </trkpt>
      <trkpt lat="45.62261" lon="2.92985">
        <ele>1047.49</ele>
        <time>2021-08-14T20:07:36Z</time>
      </trkpt>
      <trkpt lat="45.62261" lon="2.92983">
        <ele>1047.49</ele>
        <time>2021-08-14T20:07:37Z</time>
      </trkpt>
      <trkpt lat="45.62261" lon="2.92981">
        <ele>1047.49</ele>
        <time>2021-08-14T20:07:38Z</time>
      </trkpt>
      <trkpt lat="45.62262" lon="2.9298">
        <ele>1047.97</ele>
        <time>2021-08-14T20:07:39Z</time>
      </trkpt>
      <trkpt lat="45.62262" lon="2.92978">
        <ele>1047.97</ele>
        <time>2021-08-14T20:07:40Z</time>
      </trkpt>
      <trkpt lat="45.62262" lon="2.92976">
        <ele>1047.97</ele>
        <time>2021-08-14T20:07:41Z</time>
      </trkpt>
      <trkpt lat="45.62262" lon="2.92975">
        <ele>1047.97</ele>
        <time>2021-08-14T20:07:42Z</time>
      </trkpt>
      <trkpt lat="45.62266" lon="2.92964">
        <ele>1049.42</ele>
        <time>2021-08-14T20:07:52Z</time>
      </trkpt>
      <trkpt lat="45.62273" lon="2.92956">
        <ele>1049.9</ele>
        <time>2021-08-14T20:08:02Z</time>
      </trkpt>
      <trkpt lat="45.62281" lon="2.92955">
        <ele>1050.86</ele>
        <time>2021-08-14T20:08:12Z</time>
      </trkpt>
      <trkpt lat="45.6228" lon="2.92954">
        <ele>1051.34</ele>
        <time>2021-08-14T20:08:17Z</time>
      </trkpt>
      <trkpt lat="45.62278" lon="2.92955">
        <ele>1051.34</ele>
        <time>2021-08-14T20:08:21Z</time>
      </trkpt>
      <trkpt lat="45.62277" lon="2.92954">
        <ele>1051.34</ele>
        <time>2021-08-14T20:08:22Z</time>
      </trkpt>
      <trkpt lat="45.62274" lon="2.92954">
        <ele>1051.34</ele>
        <time>2021-08-14T20:08:23Z</time>
      </trkpt>
      <trkpt lat="45.62273" lon="2.92956">
        <ele>1050.38</ele>
        <time>2021-08-14T20:08:24Z</time>
      </trkpt>
      <trkpt lat="45.62271" lon="2.92959">
        <ele>1050.38</ele>
        <time>2021-08-14T20:08:25Z</time>
      </trkpt>
      <trkpt lat="45.62269" lon="2.92963">
        <ele>1049.9</ele>
        <time>2021-08-14T20:08:26Z</time>
      </trkpt>
      <trkpt lat="45.62264" lon="2.92972">
        <ele>1048.94</ele>
        <time>2021-08-14T20:08:28Z</time>
      </trkpt>
      <trkpt lat="45.62261" lon="2.92979">
        <ele>1047.97</ele>
        <time>2021-08-14T20:08:30Z</time>
      </trkpt>
      <trkpt lat="45.62259" lon="2.92979">
        <ele>1047.49</ele>
        <time>2021-08-14T20:08:31Z</time>
      </trkpt>
      <trkpt lat="45.62258" lon="2.92978">
        <ele>1047.49</ele>
        <time>2021-08-14T20:08:32Z</time>
      </trkpt>
      <trkpt lat="45.62259" lon="2.92974">
        <ele>1047.49</ele>
        <time>2021-08-14T20:08:37Z</time>
      </trkpt>
      <trkpt lat="45.62263" lon="2.92973">
        <ele>1047.49</ele>
        <time>2021-08-14T20:08:48Z</time>
      </trkpt>
      <trkpt lat="45.62264" lon="2.92972">
        <ele>1047.49</ele>
        <time>2021-08-14T20:08:49Z</time>
      </trkpt>
      <trkpt lat="45.62266" lon="2.92967">
        <ele>1048.94</ele>
        <time>2021-08-14T20:08:53Z</time>
      </trkpt>
      <trkpt lat="45.62274" lon="2.92957">
        <ele>1050.38</ele>
        <time>2021-08-14T20:09:03Z</time>
      </trkpt>
      <trkpt lat="45.62284" lon="2.92954">
        <ele>1051.34</ele>
        <time>2021-08-14T20:09:12Z</time>
      </trkpt>
      <trkpt lat="45.62295" lon="2.92954">
        <ele>1052.78</ele>
        <time>2021-08-14T20:09:22Z</time>
      </trkpt>
    </trkseg>
  </trk>
</gpx>